﻿<?xml version="1.0" encoding="UTF-8"?>
<gpx version="v1.1.5" creator="iTravel Tech Inc. - http://www.itravel-tech.com" xmlns:xsi="http://www.w3.org/2001/XMLSchema-instance" xmlns="http://www.topografix.com/GPX/1/1" xsi:schemaLocation="http://www.topografix.com/GPX/1/1 http://www.topografix.com/GPX/1/1/gpx.xsd http://www.topografix.com/GPX/gpx_overlay/0/3 http://www.topografix.com/GPX/gpx_overlay/0/3/gpx_overlay.xsd http://www.topografix.com/GPX/gpx_modified/0/1 http://www.topografix.com/GPX/gpx_modified/0/1/gpx_modified.xsd">
<trk>
<name>Holux2011/04/30_01:06</name>
<trkseg>
<trkpt lat="21.028149" lon="105.778038">
<ele>28.883560</ele>
<time>2011-04-29T22:06:05Z</time>
<desc>lat.=21.028149, lon.=105.778038, Alt.=28.883560m. Speed=0.180000m/h.</desc>
<speed>0.050000</speed>
</trkpt>
<trkpt lat="21.028168" lon="105.778053">
<ele>21.183853</ele>
<time>2011-04-29T22:06:10Z</time>
<desc>lat.=21.028168, lon.=105.778053, Alt.=21.183853m. Speed=0.036000m/h.</desc>
<speed>0.010000</speed>
</trkpt>
<trkpt lat="21.028170" lon="105.778061">
<ele>18.822037</ele>
<time>2011-04-29T22:06:15Z</time>
<desc>lat.=21.028170, lon.=105.778061, Alt.=18.822037m. Speed=0.108000m/h.</desc>
<speed>0.030000</speed>
</trkpt>
<trkpt lat="21.028170" lon="105.778069">
<ele>18.640884</ele>
<time>2011-04-29T22:06:20Z</time>
<desc>lat.=21.028170, lon.=105.778069, Alt.=18.640884m. Speed=0.468000m/h.</desc>
<speed>0.130000</speed>
</trkpt>
<trkpt lat="21.028170" lon="105.778069">
<ele>17.644302</ele>
<time>2011-04-29T22:06:25Z</time>
<desc>lat.=21.028170, lon.=105.778069, Alt.=17.644302m. Speed=0.324000m/h.</desc>
<speed>0.090000</speed>
</trkpt>
<trkpt lat="21.028164" lon="105.778084">
<ele>18.335220</ele>
<time>2011-04-29T22:06:30Z</time>
<desc>lat.=21.028164, lon.=105.778084, Alt.=18.335220m. Speed=0.072000m/h.</desc>
<speed>0.020000</speed>
</trkpt>
<trkpt lat="21.028145" lon="105.778076">
<ele>18.904068</ele>
<time>2011-04-29T22:06:35Z</time>
<desc>lat.=21.028145, lon.=105.778076, Alt.=18.904068m. Speed=0.180000m/h.</desc>
<speed>0.050000</speed>
</trkpt>
<trkpt lat="21.028149" lon="105.778076">
<ele>19.045181</ele>
<time>2011-04-29T22:06:40Z</time>
<desc>lat.=21.028149, lon.=105.778076, Alt.=19.045181m. Speed=0.252000m/h.</desc>
<speed>0.070000</speed>
</trkpt>
<trkpt lat="21.028151" lon="105.778076">
<ele>19.060806</ele>
<time>2011-04-29T22:06:45Z</time>
<desc>lat.=21.028151, lon.=105.778076, Alt.=19.060806m. Speed=0.396000m/h.</desc>
<speed>0.110000</speed>
</trkpt>
<trkpt lat="21.028154" lon="105.778076">
<ele>19.052505</ele>
<time>2011-04-29T22:06:50Z</time>
<desc>lat.=21.028154, lon.=105.778076, Alt.=19.052505m. Speed=0.288000m/h.</desc>
<speed>0.080000</speed>
</trkpt>
<trkpt lat="21.028162" lon="105.778076">
<ele>18.930435</ele>
<time>2011-04-29T22:06:55Z</time>
<desc>lat.=21.028162, lon.=105.778076, Alt.=18.930435m. Speed=0.576000m/h.</desc>
<speed>0.160000</speed>
</trkpt>
<trkpt lat="21.028164" lon="105.778076">
<ele>18.842056</ele>
<time>2011-04-29T22:07:00Z</time>
<desc>lat.=21.028164, lon.=105.778076, Alt.=18.842056m. Speed=0.036000m/h.</desc>
<speed>0.010000</speed>
</trkpt>
<trkpt lat="21.028166" lon="105.778076">
<ele>18.749283</ele>
<time>2011-04-29T22:07:05Z</time>
<desc>lat.=21.028166, lon.=105.778076, Alt.=18.749283m. Speed=0.396000m/h.</desc>
<speed>0.110000</speed>
</trkpt>
<trkpt lat="21.028170" lon="105.778069">
<ele>18.566666</ele>
<time>2011-04-29T22:07:10Z</time>
<desc>lat.=21.028170, lon.=105.778069, Alt.=18.566666m. Speed=0.036000m/h.</desc>
<speed>0.010000</speed>
</trkpt>
<trkpt lat="21.028172" lon="105.778069">
<ele>18.323990</ele>
<time>2011-04-29T22:07:15Z</time>
<desc>lat.=21.028172, lon.=105.778069, Alt.=18.323990m. Speed=0.108000m/h.</desc>
<speed>0.030000</speed>
</trkpt>
<trkpt lat="21.028172" lon="105.778069">
<ele>18.250259</ele>
<time>2011-04-29T22:07:20Z</time>
<desc>lat.=21.028172, lon.=105.778069, Alt.=18.250259m. Speed=0.108000m/h.</desc>
<speed>0.030000</speed>
</trkpt>
<trkpt lat="21.028172" lon="105.778069">
<ele>18.209244</ele>
<time>2011-04-29T22:07:25Z</time>
<desc>lat.=21.028172, lon.=105.778069, Alt.=18.209244m. Speed=0.072000m/h.</desc>
<speed>0.020000</speed>
</trkpt>
<trkpt lat="21.028173" lon="105.778069">
<ele>18.158951</ele>
<time>2011-04-29T22:07:30Z</time>
<desc>lat.=21.028173, lon.=105.778069, Alt.=18.158951m. Speed=0.108000m/h.</desc>
<speed>0.030000</speed>
</trkpt>
<trkpt lat="21.028173" lon="105.778069">
<ele>18.104263</ele>
<time>2011-04-29T22:07:35Z</time>
<desc>lat.=21.028173, lon.=105.778069, Alt.=18.104263m. Speed=0.036000m/h.</desc>
<speed>0.010000</speed>
</trkpt>
<trkpt lat="21.028173" lon="105.778069">
<ele>18.083755</ele>
<time>2011-04-29T22:07:40Z</time>
<desc>lat.=21.028173, lon.=105.778069, Alt.=18.083755m. Speed=0.072000m/h.</desc>
<speed>0.020000</speed>
</trkpt>
<trkpt lat="21.028175" lon="105.778069">
<ele>18.056900</ele>
<time>2011-04-29T22:07:45Z</time>
<desc>lat.=21.028175, lon.=105.778069, Alt.=18.056900m. Speed=0.000000m/h.</desc>
<speed>0.000000</speed>
</trkpt>
<trkpt lat="21.028175" lon="105.778069">
<ele>17.988541</ele>
<time>2011-04-29T22:07:50Z</time>
<desc>lat.=21.028175, lon.=105.778069, Alt.=17.988541m. Speed=0.360000m/h.</desc>
<speed>0.100000</speed>
</trkpt>
<trkpt lat="21.028183" lon="105.778069">
<ele>17.789322</ele>
<time>2011-04-29T22:07:55Z</time>
<desc>lat.=21.028183, lon.=105.778069, Alt.=17.789322m. Speed=1.008000m/h.</desc>
<speed>0.280000</speed>
</trkpt>
<trkpt lat="21.028191" lon="105.778061">
<ele>16.531021</ele>
<time>2011-04-29T22:08:00Z</time>
<desc>lat.=21.028191, lon.=105.778061, Alt.=16.531021m. Speed=0.144000m/h.</desc>
<speed>0.040000</speed>
</trkpt>
<trkpt lat="21.028194" lon="105.778061">
<ele>16.002213</ele>
<time>2011-04-29T22:08:05Z</time>
<desc>lat.=21.028194, lon.=105.778061, Alt.=16.002213m. Speed=0.252000m/h.</desc>
<speed>0.070000</speed>
</trkpt>
<trkpt lat="21.028198" lon="105.778061">
<ele>15.554329</ele>
<time>2011-04-29T22:08:10Z</time>
<desc>lat.=21.028198, lon.=105.778061, Alt.=15.554329m. Speed=0.324000m/h.</desc>
<speed>0.090000</speed>
</trkpt>
<trkpt lat="21.028202" lon="105.778061">
<ele>15.096077</ele>
<time>2011-04-29T22:08:15Z</time>
<desc>lat.=21.028202, lon.=105.778061, Alt.=15.096077m. Speed=0.468000m/h.</desc>
<speed>0.130000</speed>
</trkpt>
<trkpt lat="21.028208" lon="105.778053">
<ele>14.545540</ele>
<time>2011-04-29T22:08:20Z</time>
<desc>lat.=21.028208, lon.=105.778053, Alt.=14.545540m. Speed=0.720000m/h.</desc>
<speed>0.200000</speed>
</trkpt>
<trkpt lat="21.028221" lon="105.778046">
<ele>13.768196</ele>
<time>2011-04-29T22:08:25Z</time>
<desc>lat.=21.028221, lon.=105.778046, Alt.=13.768196m. Speed=1.116000m/h.</desc>
<speed>0.310000</speed>
</trkpt>
<trkpt lat="21.028229" lon="105.778046">
<ele>11.367317</ele>
<time>2011-04-29T22:08:30Z</time>
<desc>lat.=21.028229, lon.=105.778046, Alt.=11.367317m. Speed=0.252000m/h.</desc>
<speed>0.070000</speed>
</trkpt>
<trkpt lat="21.028229" lon="105.778046">
<ele>10.562141</ele>
<time>2011-04-29T22:08:35Z</time>
<desc>lat.=21.028229, lon.=105.778046, Alt.=10.562141m. Speed=0.360000m/h.</desc>
<speed>0.100000</speed>
</trkpt>
<trkpt lat="21.028231" lon="105.778053">
<ele>9.693977</ele>
<time>2011-04-29T22:08:40Z</time>
<desc>lat.=21.028231, lon.=105.778053, Alt.=9.693977m. Speed=0.576000m/h.</desc>
<speed>0.160000</speed>
</trkpt>
<trkpt lat="21.028227" lon="105.778061">
<ele>8.864388</ele>
<time>2011-04-29T22:08:45Z</time>
<desc>lat.=21.028227, lon.=105.778061, Alt.=8.864388m. Speed=0.540000m/h.</desc>
<speed>0.150000</speed>
</trkpt>
<trkpt lat="21.028221" lon="105.778069">
<ele>7.990421</ele>
<time>2011-04-29T22:08:50Z</time>
<desc>lat.=21.028221, lon.=105.778069, Alt.=7.990421m. Speed=0.648000m/h.</desc>
<speed>0.180000</speed>
</trkpt>
<trkpt lat="21.028215" lon="105.778076">
<ele>7.038151</ele>
<time>2011-04-29T22:08:55Z</time>
<desc>lat.=21.028215, lon.=105.778076, Alt.=7.038151m. Speed=0.792000m/h.</desc>
<speed>0.220000</speed>
</trkpt>
<trkpt lat="21.028210" lon="105.778084">
<ele>5.970280</ele>
<time>2011-04-29T22:09:00Z</time>
<desc>lat.=21.028210, lon.=105.778084, Alt.=5.970280m. Speed=0.540000m/h.</desc>
<speed>0.150000</speed>
</trkpt>
<trkpt lat="21.028208" lon="105.778084">
<ele>4.802189</ele>
<time>2011-04-29T22:09:05Z</time>
<desc>lat.=21.028208, lon.=105.778084, Alt.=4.802189m. Speed=0.288000m/h.</desc>
<speed>0.080000</speed>
</trkpt>
<trkpt lat="21.028206" lon="105.778091">
<ele>3.638460</ele>
<time>2011-04-29T22:09:10Z</time>
<desc>lat.=21.028206, lon.=105.778091, Alt.=3.638460m. Speed=0.072000m/h.</desc>
<speed>0.020000</speed>
</trkpt>
<trkpt lat="21.028208" lon="105.778091">
<ele>2.457064</ele>
<time>2011-04-29T22:09:15Z</time>
<desc>lat.=21.028208, lon.=105.778091, Alt.=2.457064m. Speed=0.180000m/h.</desc>
<speed>0.050000</speed>
</trkpt>
<trkpt lat="21.028208" lon="105.778091">
<ele>1.371293</ele>
<time>2011-04-29T22:09:20Z</time>
<desc>lat.=21.028208, lon.=105.778091, Alt.=1.371293m. Speed=0.108000m/h.</desc>
<speed>0.030000</speed>
</trkpt>
<trkpt lat="21.028206" lon="105.778084">
<ele>0.417164</ele>
<time>2011-04-29T22:09:25Z</time>
<desc>lat.=21.028206, lon.=105.778084, Alt.=0.417164m. Speed=0.612000m/h.</desc>
<speed>0.170000</speed>
</trkpt>
<trkpt lat="21.028200" lon="105.778076">
<ele>-0.557778</ele>
<time>2011-04-29T22:09:30Z</time>
<desc>lat.=21.028200, lon.=105.778076, Alt.=-0.557778m. Speed=0.504000m/h.</desc>
<speed>0.140000</speed>
</trkpt>
<trkpt lat="21.028196" lon="105.778076">
<ele>-1.554246</ele>
<time>2011-04-29T22:09:35Z</time>
<desc>lat.=21.028196, lon.=105.778076, Alt.=-1.554246m. Speed=0.468000m/h.</desc>
<speed>0.130000</speed>
</trkpt>
<trkpt lat="21.028191" lon="105.778069">
<ele>-2.578768</ele>
<time>2011-04-29T22:09:40Z</time>
<desc>lat.=21.028191, lon.=105.778069, Alt.=-2.578768m. Speed=0.432000m/h.</desc>
<speed>0.120000</speed>
</trkpt>
<trkpt lat="21.028185" lon="105.778069">
<ele>-3.585238</ele>
<time>2011-04-29T22:09:45Z</time>
<desc>lat.=21.028185, lon.=105.778069, Alt.=-3.585238m. Speed=0.432000m/h.</desc>
<speed>0.120000</speed>
</trkpt>
<trkpt lat="21.028179" lon="105.778069">
<ele>-4.547428</ele>
<time>2011-04-29T22:09:50Z</time>
<desc>lat.=21.028179, lon.=105.778069, Alt.=-4.547428m. Speed=0.360000m/h.</desc>
<speed>0.100000</speed>
</trkpt>
<trkpt lat="21.028177" lon="105.778069">
<ele>-5.521305</ele>
<time>2011-04-29T22:09:55Z</time>
<desc>lat.=21.028177, lon.=105.778069, Alt.=-5.521305m. Speed=0.144000m/h.</desc>
<speed>0.040000</speed>
</trkpt>
<trkpt lat="21.028177" lon="105.778069">
<ele>-6.449894</ele>
<time>2011-04-29T22:10:00Z</time>
<desc>lat.=21.028177, lon.=105.778069, Alt.=-6.449894m. Speed=0.288000m/h.</desc>
<speed>0.080000</speed>
</trkpt>
<trkpt lat="21.028181" lon="105.778069">
<ele>-7.312077</ele>
<time>2011-04-29T22:10:05Z</time>
<desc>lat.=21.028181, lon.=105.778069, Alt.=-7.312077m. Speed=0.684000m/h.</desc>
<speed>0.190000</speed>
</trkpt>
<trkpt lat="21.028187" lon="105.778061">
<ele>-8.099007</ele>
<time>2011-04-29T22:10:10Z</time>
<desc>lat.=21.028187, lon.=105.778061, Alt.=-8.099007m. Speed=0.936000m/h.</desc>
<speed>0.260000</speed>
</trkpt>
<trkpt lat="21.028193" lon="105.778046">
<ele>-8.821663</ele>
<time>2011-04-29T22:10:15Z</time>
<desc>lat.=21.028193, lon.=105.778046, Alt.=-8.821663m. Speed=0.720000m/h.</desc>
<speed>0.200000</speed>
</trkpt>
<trkpt lat="21.028194" lon="105.778038">
<ele>-9.499886</ele>
<time>2011-04-29T22:10:20Z</time>
<desc>lat.=21.028194, lon.=105.778038, Alt.=-9.499886m. Speed=0.612000m/h.</desc>
<speed>0.170000</speed>
</trkpt>
<trkpt lat="21.028194" lon="105.778030">
<ele>-10.109505</ele>
<time>2011-04-29T22:10:25Z</time>
<desc>lat.=21.028194, lon.=105.778030, Alt.=-10.109505m. Speed=0.432000m/h.</desc>
<speed>0.120000</speed>
</trkpt>
<trkpt lat="21.028196" lon="105.778023">
<ele>-10.583138</ele>
<time>2011-04-29T22:10:30Z</time>
<desc>lat.=21.028196, lon.=105.778023, Alt.=-10.583138m. Speed=0.324000m/h.</desc>
<speed>0.090000</speed>
</trkpt>
<trkpt lat="21.028200" lon="105.778023">
<ele>-10.927864</ele>
<time>2011-04-29T22:10:35Z</time>
<desc>lat.=21.028200, lon.=105.778023, Alt.=-10.927864m. Speed=0.432000m/h.</desc>
<speed>0.120000</speed>
</trkpt>
<trkpt lat="21.028208" lon="105.778023">
<ele>-11.227180</ele>
<time>2011-04-29T22:10:40Z</time>
<desc>lat.=21.028208, lon.=105.778023, Alt.=-11.227180m. Speed=0.468000m/h.</desc>
<speed>0.130000</speed>
</trkpt>
<trkpt lat="21.028212" lon="105.778030">
<ele>-11.535530</ele>
<time>2011-04-29T22:10:45Z</time>
<desc>lat.=21.028212, lon.=105.778030, Alt.=-11.535530m. Speed=0.288000m/h.</desc>
<speed>0.080000</speed>
</trkpt>
<trkpt lat="21.028214" lon="105.778030">
<ele>-11.735725</ele>
<time>2011-04-29T22:10:50Z</time>
<desc>lat.=21.028214, lon.=105.778030, Alt.=-11.735725m. Speed=0.216000m/h.</desc>
<speed>0.060000</speed>
</trkpt>
<trkpt lat="21.028212" lon="105.778030">
<ele>-11.796028</ele>
<time>2011-04-29T22:10:55Z</time>
<desc>lat.=21.028212, lon.=105.778030, Alt.=-11.796028m. Speed=0.072000m/h.</desc>
<speed>0.020000</speed>
</trkpt>
<trkpt lat="21.028212" lon="105.778030">
<ele>-11.809456</ele>
<time>2011-04-29T22:11:00Z</time>
<desc>lat.=21.028212, lon.=105.778030, Alt.=-11.809456m. Speed=0.036000m/h.</desc>
<speed>0.010000</speed>
</trkpt>
<trkpt lat="21.028212" lon="105.778030">
<ele>-11.806282</ele>
<time>2011-04-29T22:11:05Z</time>
<desc>lat.=21.028212, lon.=105.778030, Alt.=-11.806282m. Speed=0.036000m/h.</desc>
<speed>0.010000</speed>
</trkpt>
<trkpt lat="21.028212" lon="105.778030">
<ele>-11.811897</ele>
<time>2011-04-29T22:11:10Z</time>
<desc>lat.=21.028212, lon.=105.778030, Alt.=-11.811897m. Speed=0.036000m/h.</desc>
<speed>0.010000</speed>
</trkpt>
<trkpt lat="21.028212" lon="105.778038">
<ele>-11.808968</ele>
<time>2011-04-29T22:11:15Z</time>
<desc>lat.=21.028212, lon.=105.778038, Alt.=-11.808968m. Speed=0.216000m/h.</desc>
<speed>0.060000</speed>
</trkpt>
<trkpt lat="21.028215" lon="105.778038">
<ele>-11.813362</ele>
<time>2011-04-29T22:11:20Z</time>
<desc>lat.=21.028215, lon.=105.778038, Alt.=-11.813362m. Speed=0.396000m/h.</desc>
<speed>0.110000</speed>
</trkpt>
<trkpt lat="21.028217" lon="105.778046">
<ele>-11.796272</ele>
<time>2011-04-29T22:11:25Z</time>
<desc>lat.=21.028217, lon.=105.778046, Alt.=-11.796272m. Speed=0.468000m/h.</desc>
<speed>0.130000</speed>
</trkpt>
<trkpt lat="21.028221" lon="105.778053">
<ele>-11.790901</ele>
<time>2011-04-29T22:11:30Z</time>
<desc>lat.=21.028221, lon.=105.778053, Alt.=-11.790901m. Speed=0.324000m/h.</desc>
<speed>0.090000</speed>
</trkpt>
<trkpt lat="21.028223" lon="105.778053">
<ele>-11.759895</ele>
<time>2011-04-29T22:11:35Z</time>
<desc>lat.=21.028223, lon.=105.778053, Alt.=-11.759895m. Speed=0.252000m/h.</desc>
<speed>0.070000</speed>
</trkpt>
<trkpt lat="21.028225" lon="105.778053">
<ele>-11.737679</ele>
<time>2011-04-29T22:11:40Z</time>
<desc>lat.=21.028225, lon.=105.778053, Alt.=-11.737679m. Speed=0.072000m/h.</desc>
<speed>0.020000</speed>
</trkpt>
<trkpt lat="21.028225" lon="105.778053">
<ele>-11.683479</ele>
<time>2011-04-29T22:11:45Z</time>
<desc>lat.=21.028225, lon.=105.778053, Alt.=-11.683479m. Speed=0.072000m/h.</desc>
<speed>0.020000</speed>
</trkpt>
<trkpt lat="21.028225" lon="105.778053">
<ele>-11.648811</ele>
<time>2011-04-29T22:11:50Z</time>
<desc>lat.=21.028225, lon.=105.778053, Alt.=-11.648811m. Speed=0.036000m/h.</desc>
<speed>0.010000</speed>
</trkpt>
<trkpt lat="21.028225" lon="105.778053">
<ele>-11.631477</ele>
<time>2011-04-29T22:11:55Z</time>
<desc>lat.=21.028225, lon.=105.778053, Alt.=-11.631477m. Speed=0.036000m/h.</desc>
<speed>0.010000</speed>
</trkpt>
<trkpt lat="21.028225" lon="105.778053">
<ele>-11.600716</ele>
<time>2011-04-29T22:12:00Z</time>
<desc>lat.=21.028225, lon.=105.778053, Alt.=-11.600716m. Speed=0.036000m/h.</desc>
<speed>0.010000</speed>
</trkpt>
<trkpt lat="21.028225" lon="105.778053">
<ele>-11.579475</ele>
<time>2011-04-29T22:12:05Z</time>
<desc>lat.=21.028225, lon.=105.778053, Alt.=-11.579475m. Speed=0.180000m/h.</desc>
<speed>0.050000</speed>
</trkpt>
<trkpt lat="21.028225" lon="105.778053">
<ele>-11.589241</ele>
<time>2011-04-29T22:12:10Z</time>
<desc>lat.=21.028225, lon.=105.778053, Alt.=-11.589241m. Speed=0.072000m/h.</desc>
<speed>0.020000</speed>
</trkpt>
<trkpt lat="21.028225" lon="105.778053">
<ele>-11.573860</ele>
<time>2011-04-29T22:12:15Z</time>
<desc>lat.=21.028225, lon.=105.778053, Alt.=-11.573860m. Speed=0.000000m/h.</desc>
<speed>0.000000</speed>
</trkpt>
<trkpt lat="21.028225" lon="105.778053">
<ele>-11.586800</ele>
<time>2011-04-29T22:12:20Z</time>
<desc>lat.=21.028225, lon.=105.778053, Alt.=-11.586800m. Speed=0.072000m/h.</desc>
<speed>0.020000</speed>
</trkpt>
<trkpt lat="21.028225" lon="105.778053">
<ele>-11.567268</ele>
<time>2011-04-29T22:12:25Z</time>
<desc>lat.=21.028225, lon.=105.778053, Alt.=-11.567268m. Speed=0.000000m/h.</desc>
<speed>0.000000</speed>
</trkpt>
<trkpt lat="21.028223" lon="105.778053">
<ele>-11.549446</ele>
<time>2011-04-29T22:12:30Z</time>
<desc>lat.=21.028223, lon.=105.778053, Alt.=-11.549446m. Speed=0.036000m/h.</desc>
<speed>0.010000</speed>
</trkpt>
<trkpt lat="21.028223" lon="105.778053">
<ele>-11.513802</ele>
<time>2011-04-29T22:12:35Z</time>
<desc>lat.=21.028223, lon.=105.778053, Alt.=-11.513802m. Speed=0.108000m/h.</desc>
<speed>0.030000</speed>
</trkpt>
<trkpt lat="21.028223" lon="105.778053">
<ele>-11.502815</ele>
<time>2011-04-29T22:12:40Z</time>
<desc>lat.=21.028223, lon.=105.778053, Alt.=-11.502815m. Speed=0.036000m/h.</desc>
<speed>0.010000</speed>
</trkpt>
<trkpt lat="21.028223" lon="105.778053">
<ele>-11.462776</ele>
<time>2011-04-29T22:12:45Z</time>
<desc>lat.=21.028223, lon.=105.778053, Alt.=-11.462776m. Speed=0.072000m/h.</desc>
<speed>0.020000</speed>
</trkpt>
<trkpt lat="21.028221" lon="105.778061">
<ele>-11.319221</ele>
<time>2011-04-29T22:12:50Z</time>
<desc>lat.=21.028221, lon.=105.778061, Alt.=-11.319221m. Speed=0.504000m/h.</desc>
<speed>0.140000</speed>
</trkpt>
<trkpt lat="21.028219" lon="105.778069">
<ele>-11.117805</ele>
<time>2011-04-29T22:12:55Z</time>
<desc>lat.=21.028219, lon.=105.778069, Alt.=-11.117805m. Speed=0.396000m/h.</desc>
<speed>0.110000</speed>
</trkpt>
<trkpt lat="21.028217" lon="105.778069">
<ele>-10.930550</ele>
<time>2011-04-29T22:13:00Z</time>
<desc>lat.=21.028217, lon.=105.778069, Alt.=-10.930550m. Speed=0.432000m/h.</desc>
<speed>0.120000</speed>
</trkpt>
<trkpt lat="21.028219" lon="105.778076">
<ele>-10.752815</ele>
<time>2011-04-29T22:13:05Z</time>
<desc>lat.=21.028219, lon.=105.778076, Alt.=-10.752815m. Speed=0.324000m/h.</desc>
<speed>0.090000</speed>
</trkpt>
<trkpt lat="21.028219" lon="105.778076">
<ele>-10.571175</ele>
<time>2011-04-29T22:13:10Z</time>
<desc>lat.=21.028219, lon.=105.778076, Alt.=-10.571175m. Speed=0.180000m/h.</desc>
<speed>0.050000</speed>
</trkpt>
<trkpt lat="21.028217" lon="105.778084">
<ele>-10.399544</ele>
<time>2011-04-29T22:13:15Z</time>
<desc>lat.=21.028217, lon.=105.778084, Alt.=-10.399544m. Speed=0.252000m/h.</desc>
<speed>0.070000</speed>
</trkpt>
<trkpt lat="21.028214" lon="105.778091">
<ele>-10.259651</ele>
<time>2011-04-29T22:13:20Z</time>
<desc>lat.=21.028214, lon.=105.778091, Alt.=-10.259651m. Speed=0.972000m/h.</desc>
<speed>0.270000</speed>
</trkpt>
<trkpt lat="21.028208" lon="105.778099">
<ele>-10.141243</ele>
<time>2011-04-29T22:13:25Z</time>
<desc>lat.=21.028208, lon.=105.778099, Alt.=-10.141243m. Speed=0.720000m/h.</desc>
<speed>0.200000</speed>
</trkpt>
<trkpt lat="21.028202" lon="105.778107">
<ele>-9.989632</ele>
<time>2011-04-29T22:13:30Z</time>
<desc>lat.=21.028202, lon.=105.778107, Alt.=-9.989632m. Speed=0.468000m/h.</desc>
<speed>0.130000</speed>
</trkpt>
<trkpt lat="21.028198" lon="105.778114">
<ele>-9.814583</ele>
<time>2011-04-29T22:13:35Z</time>
<desc>lat.=21.028198, lon.=105.778114, Alt.=-9.814583m. Speed=0.180000m/h.</desc>
<speed>0.050000</speed>
</trkpt>
<trkpt lat="21.028198" lon="105.778107">
<ele>-9.587776</ele>
<time>2011-04-29T22:13:40Z</time>
<desc>lat.=21.028198, lon.=105.778107, Alt.=-9.587776m. Speed=0.216000m/h.</desc>
<speed>0.060000</speed>
</trkpt>
<trkpt lat="21.028200" lon="105.778107">
<ele>-9.305061</ele>
<time>2011-04-29T22:13:45Z</time>
<desc>lat.=21.028200, lon.=105.778107, Alt.=-9.305061m. Speed=0.396000m/h.</desc>
<speed>0.110000</speed>
</trkpt>
<trkpt lat="21.028202" lon="105.778099">
<ele>-8.979378</ele>
<time>2011-04-29T22:13:50Z</time>
<desc>lat.=21.028202, lon.=105.778099, Alt.=-8.979378m. Speed=0.540000m/h.</desc>
<speed>0.150000</speed>
</trkpt>
<trkpt lat="21.028202" lon="105.778091">
<ele>-8.502815</ele>
<time>2011-04-29T22:13:55Z</time>
<desc>lat.=21.028202, lon.=105.778091, Alt.=-8.502815m. Speed=0.540000m/h.</desc>
<speed>0.150000</speed>
</trkpt>
<trkpt lat="21.028202" lon="105.778084">
<ele>-7.932438</ele>
<time>2011-04-29T22:14:00Z</time>
<desc>lat.=21.028202, lon.=105.778084, Alt.=-7.932438m. Speed=0.540000m/h.</desc>
<speed>0.150000</speed>
</trkpt>
<trkpt lat="21.028202" lon="105.778076">
<ele>-7.290470</ele>
<time>2011-04-29T22:14:05Z</time>
<desc>lat.=21.028202, lon.=105.778076, Alt.=-7.290470m. Speed=0.684000m/h.</desc>
<speed>0.190000</speed>
</trkpt>
<trkpt lat="21.028202" lon="105.778069">
<ele>-6.629826</ele>
<time>2011-04-29T22:14:10Z</time>
<desc>lat.=21.028202, lon.=105.778069, Alt.=-6.629826m. Speed=0.612000m/h.</desc>
<speed>0.170000</speed>
</trkpt>
<trkpt lat="21.028198" lon="105.778061">
<ele>-5.908634</ele>
<time>2011-04-29T22:14:15Z</time>
<desc>lat.=21.028198, lon.=105.778061, Alt.=-5.908634m. Speed=0.540000m/h.</desc>
<speed>0.150000</speed>
</trkpt>
<trkpt lat="21.028198" lon="105.778053">
<ele>-5.189274</ele>
<time>2011-04-29T22:14:20Z</time>
<desc>lat.=21.028198, lon.=105.778053, Alt.=-5.189274m. Speed=0.468000m/h.</desc>
<speed>0.130000</speed>
</trkpt>
<trkpt lat="21.028198" lon="105.778046">
<ele>-4.427311</ele>
<time>2011-04-29T22:14:25Z</time>
<desc>lat.=21.028198, lon.=105.778046, Alt.=-4.427311m. Speed=0.504000m/h.</desc>
<speed>0.140000</speed>
</trkpt>
<trkpt lat="21.028198" lon="105.778038">
<ele>-3.673128</ele>
<time>2011-04-29T22:14:30Z</time>
<desc>lat.=21.028198, lon.=105.778038, Alt.=-3.673128m. Speed=0.252000m/h.</desc>
<speed>0.070000</speed>
</trkpt>
<trkpt lat="21.028196" lon="105.778038">
<ele>-2.861361</ele>
<time>2011-04-29T22:14:35Z</time>
<desc>lat.=21.028196, lon.=105.778038, Alt.=-2.861361m. Speed=0.180000m/h.</desc>
<speed>0.050000</speed>
</trkpt>
<trkpt lat="21.028194" lon="105.778046">
<ele>-1.926682</ele>
<time>2011-04-29T22:14:40Z</time>
<desc>lat.=21.028194, lon.=105.778046, Alt.=-1.926682m. Speed=0.576000m/h.</desc>
<speed>0.160000</speed>
</trkpt>
<trkpt lat="21.028191" lon="105.778053">
<ele>-0.964013</ele>
<time>2011-04-29T22:14:45Z</time>
<desc>lat.=21.028191, lon.=105.778053, Alt.=-0.964013m. Speed=0.648000m/h.</desc>
<speed>0.180000</speed>
</trkpt>
<trkpt lat="21.028187" lon="105.778061">
<ele>-0.007781</ele>
<time>2011-04-29T22:14:50Z</time>
<desc>lat.=21.028187, lon.=105.778061, Alt.=-0.007781m. Speed=0.720000m/h.</desc>
<speed>0.200000</speed>
</trkpt>
<trkpt lat="21.028185" lon="105.778069">
<ele>0.947731</ele>
<time>2011-04-29T22:14:55Z</time>
<desc>lat.=21.028185, lon.=105.778069, Alt.=0.947731m. Speed=0.576000m/h.</desc>
<speed>0.160000</speed>
</trkpt>
<trkpt lat="21.028183" lon="105.778076">
<ele>1.915147</ele>
<time>2011-04-29T22:15:00Z</time>
<desc>lat.=21.028183, lon.=105.778076, Alt.=1.915147m. Speed=0.468000m/h.</desc>
<speed>0.130000</speed>
</trkpt>
<trkpt lat="21.028183" lon="105.778076">
<ele>2.789461</ele>
<time>2011-04-29T22:15:05Z</time>
<desc>lat.=21.028183, lon.=105.778076, Alt.=2.789461m. Speed=0.108000m/h.</desc>
<speed>0.030000</speed>
</trkpt>
<trkpt lat="21.028183" lon="105.778076">
<ele>3.685579</ele>
<time>2011-04-29T22:15:10Z</time>
<desc>lat.=21.028183, lon.=105.778076, Alt.=3.685579m. Speed=0.360000m/h.</desc>
<speed>0.100000</speed>
</trkpt>
<trkpt lat="21.028187" lon="105.778069">
<ele>4.460392</ele>
<time>2011-04-29T22:15:15Z</time>
<desc>lat.=21.028187, lon.=105.778069, Alt.=4.460392m. Speed=0.936000m/h.</desc>
<speed>0.260000</speed>
</trkpt>
<trkpt lat="21.028189" lon="105.778053">
<ele>5.229191</ele>
<time>2011-04-29T22:15:20Z</time>
<desc>lat.=21.028189, lon.=105.778053, Alt.=5.229191m. Speed=1.044000m/h.</desc>
<speed>0.290000</speed>
</trkpt>
<trkpt lat="21.028200" lon="105.778023">
<ele>6.222355</ele>
<time>2011-04-29T22:15:25Z</time>
<desc>lat.=21.028200, lon.=105.778023, Alt.=6.222355m. Speed=1.116000m/h.</desc>
<speed>0.310000</speed>
</trkpt>
<trkpt lat="21.028193" lon="105.778023">
<ele>7.748722</ele>
<time>2011-04-29T22:15:30Z</time>
<desc>lat.=21.028193, lon.=105.778023, Alt.=7.748722m. Speed=0.540000m/h.</desc>
<speed>0.150000</speed>
</trkpt>
<trkpt lat="21.028193" lon="105.778015">
<ele>8.567268</ele>
<time>2011-04-29T22:15:35Z</time>
<desc>lat.=21.028193, lon.=105.778015, Alt.=8.567268m. Speed=0.684000m/h.</desc>
<speed>0.190000</speed>
</trkpt>
<trkpt lat="21.028191" lon="105.778000">
<ele>9.445686</ele>
<time>2011-04-29T22:15:40Z</time>
<desc>lat.=21.028191, lon.=105.778000, Alt.=9.445686m. Speed=0.540000m/h.</desc>
<speed>0.150000</speed>
</trkpt>
<trkpt lat="21.028191" lon="105.777992">
<ele>10.368538</ele>
<time>2011-04-29T22:15:45Z</time>
<desc>lat.=21.028191, lon.=105.777992, Alt.=10.368538m. Speed=0.504000m/h.</desc>
<speed>0.140000</speed>
</trkpt>
<trkpt lat="21.028194" lon="105.777992">
<ele>11.300911</ele>
<time>2011-04-29T22:15:50Z</time>
<desc>lat.=21.028194, lon.=105.777992, Alt.=11.300911m. Speed=0.396000m/h.</desc>
<speed>0.110000</speed>
</trkpt>
<trkpt lat="21.028206" lon="105.777985">
<ele>12.059212</ele>
<time>2011-04-29T22:15:55Z</time>
<desc>lat.=21.028206, lon.=105.777985, Alt.=12.059212m. Speed=1.008000m/h.</desc>
<speed>0.280000</speed>
</trkpt>
<trkpt lat="21.028210" lon="105.777985">
<ele>12.707405</ele>
<time>2011-04-29T22:16:00Z</time>
<desc>lat.=21.028210, lon.=105.777985, Alt.=12.707405m. Speed=0.576000m/h.</desc>
<speed>0.160000</speed>
</trkpt>
<trkpt lat="21.028214" lon="105.777985">
<ele>13.627083</ele>
<time>2011-04-29T22:16:05Z</time>
<desc>lat.=21.028214, lon.=105.777985, Alt.=13.627083m. Speed=0.180000m/h.</desc>
<speed>0.050000</speed>
</trkpt>
<trkpt lat="21.028215" lon="105.777977">
<ele>14.488655</ele>
<time>2011-04-29T22:16:10Z</time>
<desc>lat.=21.028215, lon.=105.777977, Alt.=14.488655m. Speed=0.396000m/h.</desc>
<speed>0.110000</speed>
</trkpt>
<trkpt lat="21.028210" lon="105.777977">
<ele>15.304817</ele>
<time>2011-04-29T22:16:15Z</time>
<desc>lat.=21.028210, lon.=105.777977, Alt.=15.304817m. Speed=0.720000m/h.</desc>
<speed>0.200000</speed>
</trkpt>
<trkpt lat="21.028202" lon="105.777969">
<ele>16.085220</ele>
<time>2011-04-29T22:16:20Z</time>
<desc>lat.=21.028202, lon.=105.777969, Alt.=16.085220m. Speed=0.828000m/h.</desc>
<speed>0.230000</speed>
</trkpt>
<trkpt lat="21.028191" lon="105.777969">
<ele>16.833267</ele>
<time>2011-04-29T22:16:25Z</time>
<desc>lat.=21.028191, lon.=105.777969, Alt.=16.833267m. Speed=0.900000m/h.</desc>
<speed>0.250000</speed>
</trkpt>
<trkpt lat="21.028179" lon="105.777969">
<ele>17.572525</ele>
<time>2011-04-29T22:16:30Z</time>
<desc>lat.=21.028179, lon.=105.777969, Alt.=17.572525m. Speed=0.576000m/h.</desc>
<speed>0.160000</speed>
</trkpt>
<trkpt lat="21.028173" lon="105.777977">
<ele>18.279068</ele>
<time>2011-04-29T22:16:35Z</time>
<desc>lat.=21.028173, lon.=105.777977, Alt.=18.279068m. Speed=0.576000m/h.</desc>
<speed>0.160000</speed>
</trkpt>
<trkpt lat="21.028168" lon="105.777977">
<ele>18.944107</ele>
<time>2011-04-29T22:16:40Z</time>
<desc>lat.=21.028168, lon.=105.777977, Alt.=18.944107m. Speed=0.540000m/h.</desc>
<speed>0.150000</speed>
</trkpt>
<trkpt lat="21.028162" lon="105.777977">
<ele>19.561295</ele>
<time>2011-04-29T22:16:45Z</time>
<desc>lat.=21.028162, lon.=105.777977, Alt.=19.561295m. Speed=0.540000m/h.</desc>
<speed>0.150000</speed>
</trkpt>
<trkpt lat="21.028156" lon="105.777985">
<ele>20.231216</ele>
<time>2011-04-29T22:16:50Z</time>
<desc>lat.=21.028156, lon.=105.777985, Alt.=20.231216m. Speed=0.828000m/h.</desc>
<speed>0.230000</speed>
</trkpt>
<trkpt lat="21.028154" lon="105.778000">
<ele>20.924088</ele>
<time>2011-04-29T22:16:55Z</time>
<desc>lat.=21.028154, lon.=105.778000, Alt.=20.924088m. Speed=0.900000m/h.</desc>
<speed>0.250000</speed>
</trkpt>
<trkpt lat="21.028143" lon="105.778053">
<ele>23.036392</ele>
<time>2011-04-29T22:17:00Z</time>
<desc>lat.=21.028143, lon.=105.778053, Alt.=23.036392m. Speed=1.476000m/h.</desc>
<speed>0.410000</speed>
</trkpt>
<trkpt lat="21.028168" lon="105.778061">
<ele>23.411880</ele>
<time>2011-04-29T22:17:05Z</time>
<desc>lat.=21.028168, lon.=105.778061, Alt.=23.411880m. Speed=0.540000m/h.</desc>
<speed>0.150000</speed>
</trkpt>
<trkpt lat="21.028177" lon="105.778053">
<ele>24.316666</ele>
<time>2011-04-29T22:17:10Z</time>
<desc>lat.=21.028177, lon.=105.778053, Alt.=24.316666m. Speed=0.432000m/h.</desc>
<speed>0.120000</speed>
</trkpt>
<trkpt lat="21.028181" lon="105.778038">
<ele>25.121841</ele>
<time>2011-04-29T22:17:15Z</time>
<desc>lat.=21.028181, lon.=105.778038, Alt.=25.121841m. Speed=0.900000m/h.</desc>
<speed>0.250000</speed>
</trkpt>
<trkpt lat="21.028181" lon="105.778030">
<ele>25.394791</ele>
<time>2011-04-29T22:17:20Z</time>
<desc>lat.=21.028181, lon.=105.778030, Alt.=25.394791m. Speed=0.792000m/h.</desc>
<speed>0.220000</speed>
</trkpt>
<trkpt lat="21.028168" lon="105.778030">
<ele>25.461685</ele>
<time>2011-04-29T22:17:25Z</time>
<desc>lat.=21.028168, lon.=105.778030, Alt.=25.461685m. Speed=0.252000m/h.</desc>
<speed>0.070000</speed>
</trkpt>
<trkpt lat="21.028168" lon="105.778023">
<ele>26.117935</ele>
<time>2011-04-29T22:17:30Z</time>
<desc>lat.=21.028168, lon.=105.778023, Alt.=26.117935m. Speed=0.792000m/h.</desc>
<speed>0.220000</speed>
</trkpt>
<trkpt lat="21.028172" lon="105.778008">
<ele>26.721939</ele>
<time>2011-04-29T22:17:35Z</time>
<desc>lat.=21.028172, lon.=105.778008, Alt.=26.721939m. Speed=0.360000m/h.</desc>
<speed>0.100000</speed>
</trkpt>
<trkpt lat="21.028172" lon="105.778008">
<ele>27.338150</ele>
<time>2011-04-29T22:17:40Z</time>
<desc>lat.=21.028172, lon.=105.778008, Alt.=27.338150m. Speed=0.180000m/h.</desc>
<speed>0.050000</speed>
</trkpt>
<trkpt lat="21.028170" lon="105.778008">
<ele>27.936295</ele>
<time>2011-04-29T22:17:45Z</time>
<desc>lat.=21.028170, lon.=105.778008, Alt.=27.936295m. Speed=0.108000m/h.</desc>
<speed>0.030000</speed>
</trkpt>
<trkpt lat="21.028168" lon="105.778008">
<ele>28.410416</ele>
<time>2011-04-29T22:17:50Z</time>
<desc>lat.=21.028168, lon.=105.778008, Alt.=28.410416m. Speed=0.720000m/h.</desc>
<speed>0.200000</speed>
</trkpt>
<trkpt lat="21.028160" lon="105.778023">
<ele>28.876724</ele>
<time>2011-04-29T22:17:55Z</time>
<desc>lat.=21.028160, lon.=105.778023, Alt.=28.876724m. Speed=0.720000m/h.</desc>
<speed>0.200000</speed>
</trkpt>
<trkpt lat="21.028156" lon="105.778023">
<ele>29.336685</ele>
<time>2011-04-29T22:18:00Z</time>
<desc>lat.=21.028156, lon.=105.778023, Alt.=29.336685m. Speed=0.144000m/h.</desc>
<speed>0.040000</speed>
</trkpt>
<trkpt lat="21.028156" lon="105.778023">
<ele>29.721939</ele>
<time>2011-04-29T22:18:05Z</time>
<desc>lat.=21.028156, lon.=105.778023, Alt.=29.721939m. Speed=0.216000m/h.</desc>
<speed>0.060000</speed>
</trkpt>
<trkpt lat="21.028154" lon="105.778030">
<ele>30.009537</ele>
<time>2011-04-29T22:18:10Z</time>
<desc>lat.=21.028154, lon.=105.778030, Alt.=30.009537m. Speed=0.288000m/h.</desc>
<speed>0.080000</speed>
</trkpt>
<trkpt lat="21.028152" lon="105.778030">
<ele>30.256119</ele>
<time>2011-04-29T22:18:15Z</time>
<desc>lat.=21.028152, lon.=105.778030, Alt.=30.256119m. Speed=0.036000m/h.</desc>
<speed>0.010000</speed>
</trkpt>
<trkpt lat="21.028154" lon="105.778030">
<ele>30.388443</ele>
<time>2011-04-29T22:18:20Z</time>
<desc>lat.=21.028154, lon.=105.778030, Alt.=30.388443m. Speed=0.324000m/h.</desc>
<speed>0.090000</speed>
</trkpt>
<trkpt lat="21.028156" lon="105.778023">
<ele>30.475845</ele>
<time>2011-04-29T22:18:25Z</time>
<desc>lat.=21.028156, lon.=105.778023, Alt.=30.475845m. Speed=0.540000m/h.</desc>
<speed>0.150000</speed>
</trkpt>
<trkpt lat="21.028158" lon="105.778015">
<ele>30.490005</ele>
<time>2011-04-29T22:18:30Z</time>
<desc>lat.=21.028158, lon.=105.778015, Alt.=30.490005m. Speed=0.504000m/h.</desc>
<speed>0.140000</speed>
</trkpt>
<trkpt lat="21.028156" lon="105.778008">
<ele>30.432388</ele>
<time>2011-04-29T22:18:35Z</time>
<desc>lat.=21.028156, lon.=105.778008, Alt.=30.432388m. Speed=0.540000m/h.</desc>
<speed>0.150000</speed>
</trkpt>
<trkpt lat="21.028158" lon="105.778000">
<ele>30.340591</ele>
<time>2011-04-29T22:18:40Z</time>
<desc>lat.=21.028158, lon.=105.778000, Alt.=30.340591m. Speed=0.756000m/h.</desc>
<speed>0.210000</speed>
</trkpt>
<trkpt lat="21.028158" lon="105.777992">
<ele>30.199478</ele>
<time>2011-04-29T22:18:45Z</time>
<desc>lat.=21.028158, lon.=105.777992, Alt.=30.199478m. Speed=0.576000m/h.</desc>
<speed>0.160000</speed>
</trkpt>
<trkpt lat="21.028160" lon="105.777985">
<ele>30.049576</ele>
<time>2011-04-29T22:18:50Z</time>
<desc>lat.=21.028160, lon.=105.777985, Alt.=30.049576m. Speed=0.576000m/h.</desc>
<speed>0.160000</speed>
</trkpt>
<trkpt lat="21.028168" lon="105.777977">
<ele>29.870377</ele>
<time>2011-04-29T22:18:55Z</time>
<desc>lat.=21.028168, lon.=105.777977, Alt.=29.870377m. Speed=0.720000m/h.</desc>
<speed>0.200000</speed>
</trkpt>
<trkpt lat="21.028173" lon="105.777969">
<ele>29.723404</ele>
<time>2011-04-29T22:19:00Z</time>
<desc>lat.=21.028173, lon.=105.777969, Alt.=29.723404m. Speed=0.648000m/h.</desc>
<speed>0.180000</speed>
</trkpt>
<trkpt lat="21.028177" lon="105.777962">
<ele>29.548111</ele>
<time>2011-04-29T22:19:05Z</time>
<desc>lat.=21.028177, lon.=105.777962, Alt.=29.548111m. Speed=0.396000m/h.</desc>
<speed>0.110000</speed>
</trkpt>
<trkpt lat="21.028185" lon="105.777962">
<ele>29.313736</ele>
<time>2011-04-29T22:19:10Z</time>
<desc>lat.=21.028185, lon.=105.777962, Alt.=29.313736m. Speed=0.720000m/h.</desc>
<speed>0.200000</speed>
</trkpt>
<trkpt lat="21.028193" lon="105.777962">
<ele>29.052505</ele>
<time>2011-04-29T22:19:15Z</time>
<desc>lat.=21.028193, lon.=105.777962, Alt.=29.052505m. Speed=0.360000m/h.</desc>
<speed>0.100000</speed>
</trkpt>
<trkpt lat="21.028196" lon="105.777969">
<ele>28.749283</ele>
<time>2011-04-29T22:19:20Z</time>
<desc>lat.=21.028196, lon.=105.777969, Alt.=28.749283m. Speed=0.684000m/h.</desc>
<speed>0.190000</speed>
</trkpt>
<trkpt lat="21.028200" lon="105.777985">
<ele>28.407486</ele>
<time>2011-04-29T22:19:25Z</time>
<desc>lat.=21.028200, lon.=105.777985, Alt.=28.407486m. Speed=0.792000m/h.</desc>
<speed>0.220000</speed>
</trkpt>
<trkpt lat="21.028202" lon="105.777992">
<ele>27.987564</ele>
<time>2011-04-29T22:19:30Z</time>
<desc>lat.=21.028202, lon.=105.777992, Alt.=27.987564m. Speed=0.540000m/h.</desc>
<speed>0.150000</speed>
</trkpt>
<trkpt lat="21.028212" lon="105.777992">
<ele>27.517349</ele>
<time>2011-04-29T22:19:35Z</time>
<desc>lat.=21.028212, lon.=105.777992, Alt.=27.517349m. Speed=1.008000m/h.</desc>
<speed>0.280000</speed>
</trkpt>
<trkpt lat="21.028223" lon="105.777992">
<ele>27.068130</ele>
<time>2011-04-29T22:19:40Z</time>
<desc>lat.=21.028223, lon.=105.777992, Alt.=27.068130m. Speed=0.648000m/h.</desc>
<speed>0.180000</speed>
</trkpt>
<trkpt lat="21.028233" lon="105.778000">
<ele>26.548599</ele>
<time>2011-04-29T22:19:45Z</time>
<desc>lat.=21.028233, lon.=105.778000, Alt.=26.548599m. Speed=0.396000m/h.</desc>
<speed>0.110000</speed>
</trkpt>
<trkpt lat="21.028236" lon="105.777992">
<ele>25.925552</ele>
<time>2011-04-29T22:19:50Z</time>
<desc>lat.=21.028236, lon.=105.777992, Alt.=25.925552m. Speed=0.180000m/h.</desc>
<speed>0.050000</speed>
</trkpt>
<trkpt lat="21.028236" lon="105.777992">
<ele>25.310806</ele>
<time>2011-04-29T22:19:55Z</time>
<desc>lat.=21.028236, lon.=105.777992, Alt.=25.310806m. Speed=0.180000m/h.</desc>
<speed>0.050000</speed>
</trkpt>
<trkpt lat="21.028233" lon="105.777992">
<ele>24.703384</ele>
<time>2011-04-29T22:20:00Z</time>
<desc>lat.=21.028233, lon.=105.777992, Alt.=24.703384m. Speed=0.576000m/h.</desc>
<speed>0.160000</speed>
</trkpt>
<trkpt lat="21.028227" lon="105.777992">
<ele>24.025162</ele>
<time>2011-04-29T22:20:05Z</time>
<desc>lat.=21.028227, lon.=105.777992, Alt.=24.025162m. Speed=0.432000m/h.</desc>
<speed>0.120000</speed>
</trkpt>
<trkpt lat="21.028221" lon="105.777992">
<ele>23.343033</ele>
<time>2011-04-29T22:20:10Z</time>
<desc>lat.=21.028221, lon.=105.777992, Alt.=23.343033m. Speed=0.468000m/h.</desc>
<speed>0.130000</speed>
</trkpt>
<trkpt lat="21.028217" lon="105.777985">
<ele>22.597916</ele>
<time>2011-04-29T22:20:15Z</time>
<desc>lat.=21.028217, lon.=105.777985, Alt.=22.597916m. Speed=0.360000m/h.</desc>
<speed>0.100000</speed>
</trkpt>
<trkpt lat="21.028214" lon="105.777992">
<ele>21.778091</ele>
<time>2011-04-29T22:20:20Z</time>
<desc>lat.=21.028214, lon.=105.777992, Alt.=21.778091m. Speed=0.432000m/h.</desc>
<speed>0.120000</speed>
</trkpt>
<trkpt lat="21.028212" lon="105.777992">
<ele>20.896744</ele>
<time>2011-04-29T22:20:25Z</time>
<desc>lat.=21.028212, lon.=105.777992, Alt.=20.896744m. Speed=0.252000m/h.</desc>
<speed>0.070000</speed>
</trkpt>
<trkpt lat="21.028210" lon="105.778000">
<ele>20.010513</ele>
<time>2011-04-29T22:20:30Z</time>
<desc>lat.=21.028210, lon.=105.778000, Alt.=20.010513m. Speed=0.396000m/h.</desc>
<speed>0.110000</speed>
</trkpt>
<trkpt lat="21.028206" lon="105.778000">
<ele>19.108658</ele>
<time>2011-04-29T22:20:35Z</time>
<desc>lat.=21.028206, lon.=105.778000, Alt.=19.108658m. Speed=0.432000m/h.</desc>
<speed>0.120000</speed>
</trkpt>
<trkpt lat="21.028200" lon="105.778000">
<ele>18.171646</ele>
<time>2011-04-29T22:20:40Z</time>
<desc>lat.=21.028200, lon.=105.778000, Alt.=18.171646m. Speed=0.612000m/h.</desc>
<speed>0.170000</speed>
</trkpt>
<trkpt lat="21.028194" lon="105.778000">
<ele>17.240005</ele>
<time>2011-04-29T22:20:45Z</time>
<desc>lat.=21.028194, lon.=105.778000, Alt.=17.240005m. Speed=0.468000m/h.</desc>
<speed>0.130000</speed>
</trkpt>
<trkpt lat="21.028191" lon="105.777992">
<ele>16.230728</ele>
<time>2011-04-29T22:20:50Z</time>
<desc>lat.=21.028191, lon.=105.777992, Alt.=16.230728m. Speed=0.648000m/h.</desc>
<speed>0.180000</speed>
</trkpt>
<trkpt lat="21.028187" lon="105.777985">
<ele>15.172981</ele>
<time>2011-04-29T22:20:55Z</time>
<desc>lat.=21.028187, lon.=105.777985, Alt.=15.172981m. Speed=0.504000m/h.</desc>
<speed>0.140000</speed>
</trkpt>
<trkpt lat="21.028183" lon="105.777992">
<ele>14.116341</ele>
<time>2011-04-29T22:21:00Z</time>
<desc>lat.=21.028183, lon.=105.777992, Alt.=14.116341m. Speed=0.576000m/h.</desc>
<speed>0.160000</speed>
</trkpt>
<trkpt lat="21.028187" lon="105.778000">
<ele>13.086067</ele>
<time>2011-04-29T22:21:05Z</time>
<desc>lat.=21.028187, lon.=105.778000, Alt.=13.086067m. Speed=0.396000m/h.</desc>
<speed>0.110000</speed>
</trkpt>
<trkpt lat="21.028191" lon="105.778008">
<ele>12.088753</ele>
<time>2011-04-29T22:21:10Z</time>
<desc>lat.=21.028191, lon.=105.778008, Alt.=12.088753m. Speed=0.504000m/h.</desc>
<speed>0.140000</speed>
</trkpt>
<trkpt lat="21.028194" lon="105.778015">
<ele>11.149300</ele>
<time>2011-04-29T22:21:15Z</time>
<desc>lat.=21.028194, lon.=105.778015, Alt.=11.149300m. Speed=0.720000m/h.</desc>
<speed>0.200000</speed>
</trkpt>
<trkpt lat="21.028200" lon="105.778023">
<ele>10.279182</ele>
<time>2011-04-29T22:21:20Z</time>
<desc>lat.=21.028200, lon.=105.778023, Alt.=10.279182m. Speed=0.756000m/h.</desc>
<speed>0.210000</speed>
</trkpt>
<trkpt lat="21.028206" lon="105.778030">
<ele>9.472786</ele>
<time>2011-04-29T22:21:25Z</time>
<desc>lat.=21.028206, lon.=105.778030, Alt.=9.472786m. Speed=0.720000m/h.</desc>
<speed>0.200000</speed>
</trkpt>
<trkpt lat="21.028212" lon="105.778030">
<ele>8.750130</ele>
<time>2011-04-29T22:21:30Z</time>
<desc>lat.=21.028212, lon.=105.778030, Alt.=8.750130m. Speed=0.252000m/h.</desc>
<speed>0.070000</speed>
</trkpt>
<trkpt lat="21.028210" lon="105.778030">
<ele>8.149055</ele>
<time>2011-04-29T22:21:35Z</time>
<desc>lat.=21.028210, lon.=105.778030, Alt.=8.149055m. Speed=0.360000m/h.</desc>
<speed>0.100000</speed>
</trkpt>
<trkpt lat="21.028206" lon="105.778030">
<ele>7.554508</ele>
<time>2011-04-29T22:21:40Z</time>
<desc>lat.=21.028206, lon.=105.778030, Alt.=7.554508m. Speed=0.180000m/h.</desc>
<speed>0.050000</speed>
</trkpt>
<trkpt lat="21.028210" lon="105.778023">
<ele>7.091007</ele>
<time>2011-04-29T22:21:45Z</time>
<desc>lat.=21.028210, lon.=105.778023, Alt.=7.091007m. Speed=0.288000m/h.</desc>
<speed>0.080000</speed>
</trkpt>
<trkpt lat="21.028212" lon="105.778023">
<ele>6.699894</ele>
<time>2011-04-29T22:21:50Z</time>
<desc>lat.=21.028212, lon.=105.778023, Alt.=6.699894m. Speed=0.432000m/h.</desc>
<speed>0.120000</speed>
</trkpt>
<trkpt lat="21.028212" lon="105.778015">
<ele>6.347355</ele>
<time>2011-04-29T22:21:55Z</time>
<desc>lat.=21.028212, lon.=105.778015, Alt.=6.347355m. Speed=0.324000m/h.</desc>
<speed>0.090000</speed>
</trkpt>
<trkpt lat="21.028212" lon="105.778008">
<ele>6.060490</ele>
<time>2011-04-29T22:22:00Z</time>
<desc>lat.=21.028212, lon.=105.778008, Alt.=6.060490m. Speed=0.216000m/h.</desc>
<speed>0.060000</speed>
</trkpt>
<trkpt lat="21.028214" lon="105.778008">
<ele>5.821842</ele>
<time>2011-04-29T22:22:05Z</time>
<desc>lat.=21.028214, lon.=105.778008, Alt.=5.821842m. Speed=0.504000m/h.</desc>
<speed>0.140000</speed>
</trkpt>
<trkpt lat="21.028215" lon="105.778000">
<ele>5.579533</ele>
<time>2011-04-29T22:22:10Z</time>
<desc>lat.=21.028215, lon.=105.778000, Alt.=5.579533m. Speed=0.432000m/h.</desc>
<speed>0.120000</speed>
</trkpt>
<trkpt lat="21.028217" lon="105.778000">
<ele>5.276432</ele>
<time>2011-04-29T22:22:15Z</time>
<desc>lat.=21.028217, lon.=105.778000, Alt.=5.276432m. Speed=0.108000m/h.</desc>
<speed>0.030000</speed>
</trkpt>
<trkpt lat="21.028217" lon="105.778000">
<ele>4.933048</ele>
<time>2011-04-29T22:22:20Z</time>
<desc>lat.=21.028217, lon.=105.778000, Alt.=4.933048m. Speed=0.072000m/h.</desc>
<speed>0.020000</speed>
</trkpt>
<trkpt lat="21.028217" lon="105.778000">
<ele>4.512760</ele>
<time>2011-04-29T22:22:25Z</time>
<desc>lat.=21.028217, lon.=105.778000, Alt.=4.512760m. Speed=0.144000m/h.</desc>
<speed>0.040000</speed>
</trkpt>
<trkpt lat="21.028215" lon="105.778008">
<ele>3.992769</ele>
<time>2011-04-29T22:22:30Z</time>
<desc>lat.=21.028215, lon.=105.778008, Alt.=3.992769m. Speed=0.432000m/h.</desc>
<speed>0.120000</speed>
</trkpt>
<trkpt lat="21.028214" lon="105.778015">
<ele>3.321627</ele>
<time>2011-04-29T22:22:35Z</time>
<desc>lat.=21.028214, lon.=105.778015, Alt.=3.321627m. Speed=0.576000m/h.</desc>
<speed>0.160000</speed>
</trkpt>
<trkpt lat="21.028212" lon="105.778023">
<ele>2.512484</ele>
<time>2011-04-29T22:22:40Z</time>
<desc>lat.=21.028212, lon.=105.778023, Alt.=2.512484m. Speed=0.468000m/h.</desc>
<speed>0.130000</speed>
</trkpt>
<trkpt lat="21.028212" lon="105.778023">
<ele>1.695359</ele>
<time>2011-04-29T22:22:45Z</time>
<desc>lat.=21.028212, lon.=105.778023, Alt.=1.695359m. Speed=0.684000m/h.</desc>
<speed>0.190000</speed>
</trkpt>
<trkpt lat="21.028212" lon="105.778038">
<ele>0.848809</ele>
<time>2011-04-29T22:22:50Z</time>
<desc>lat.=21.028212, lon.=105.778038, Alt.=0.848809m. Speed=0.468000m/h.</desc>
<speed>0.130000</speed>
</trkpt>
<trkpt lat="21.028212" lon="105.778046">
<ele>0.006592</ele>
<time>2011-04-29T22:22:55Z</time>
<desc>lat.=21.028212, lon.=105.778046, Alt.=0.006592m. Speed=0.720000m/h.</desc>
<speed>0.200000</speed>
</trkpt>
<trkpt lat="21.028210" lon="105.778053">
<ele>-0.799813</ele>
<time>2011-04-29T22:23:00Z</time>
<desc>lat.=21.028210, lon.=105.778053, Alt.=-0.799813m. Speed=0.864000m/h.</desc>
<speed>0.240000</speed>
</trkpt>
<trkpt lat="21.028208" lon="105.778069">
<ele>-1.606095</ele>
<time>2011-04-29T22:23:05Z</time>
<desc>lat.=21.028208, lon.=105.778069, Alt.=-1.606095m. Speed=0.864000m/h.</desc>
<speed>0.240000</speed>
</trkpt>
<trkpt lat="21.028210" lon="105.778076">
<ele>-2.396761</ele>
<time>2011-04-29T22:23:10Z</time>
<desc>lat.=21.028210, lon.=105.778076, Alt.=-2.396761m. Speed=0.288000m/h.</desc>
<speed>0.080000</speed>
</trkpt>
<trkpt lat="21.028210" lon="105.778084">
<ele>-3.129854</ele>
<time>2011-04-29T22:23:15Z</time>
<desc>lat.=21.028210, lon.=105.778084, Alt.=-3.129854m. Speed=0.108000m/h.</desc>
<speed>0.030000</speed>
</trkpt>
<trkpt lat="21.028210" lon="105.778084">
<ele>-3.824800</ele>
<time>2011-04-29T22:23:20Z</time>
<desc>lat.=21.028210, lon.=105.778084, Alt.=-3.824800m. Speed=0.216000m/h.</desc>
<speed>0.060000</speed>
</trkpt>
<trkpt lat="21.028210" lon="105.778091">
<ele>-4.487125</ele>
<time>2011-04-29T22:23:25Z</time>
<desc>lat.=21.028210, lon.=105.778091, Alt.=-4.487125m. Speed=0.432000m/h.</desc>
<speed>0.120000</speed>
</trkpt>
<trkpt lat="21.028210" lon="105.778091">
<ele>-5.073185</ele>
<time>2011-04-29T22:23:30Z</time>
<desc>lat.=21.028210, lon.=105.778091, Alt.=-5.073185m. Speed=0.072000m/h.</desc>
<speed>0.020000</speed>
</trkpt>
<trkpt lat="21.028208" lon="105.778091">
<ele>-5.599308</ele>
<time>2011-04-29T22:23:35Z</time>
<desc>lat.=21.028208, lon.=105.778091, Alt.=-5.599308m. Speed=0.180000m/h.</desc>
<speed>0.050000</speed>
</trkpt>
<trkpt lat="21.028206" lon="105.778091">
<ele>-6.133121</ele>
<time>2011-04-29T22:23:40Z</time>
<desc>lat.=21.028206, lon.=105.778091, Alt.=-6.133121m. Speed=0.396000m/h.</desc>
<speed>0.110000</speed>
</trkpt>
<trkpt lat="21.028202" lon="105.778091">
<ele>-6.671085</ele>
<time>2011-04-29T22:23:45Z</time>
<desc>lat.=21.028202, lon.=105.778091, Alt.=-6.671085m. Speed=0.612000m/h.</desc>
<speed>0.170000</speed>
</trkpt>
<trkpt lat="21.028196" lon="105.778084">
<ele>-7.226139</ele>
<time>2011-04-29T22:23:50Z</time>
<desc>lat.=21.028196, lon.=105.778084, Alt.=-7.226139m. Speed=0.324000m/h.</desc>
<speed>0.090000</speed>
</trkpt>
<trkpt lat="21.028194" lon="105.778084">
<ele>-7.732853</ele>
<time>2011-04-29T22:23:55Z</time>
<desc>lat.=21.028194, lon.=105.778084, Alt.=-7.732853m. Speed=0.504000m/h.</desc>
<speed>0.140000</speed>
</trkpt>
<trkpt lat="21.028189" lon="105.778076">
<ele>-8.234749</ele>
<time>2011-04-29T22:24:00Z</time>
<desc>lat.=21.028189, lon.=105.778076, Alt.=-8.234749m. Speed=0.252000m/h.</desc>
<speed>0.070000</speed>
</trkpt>
<trkpt lat="21.028187" lon="105.778076">
<ele>-8.629524</ele>
<time>2011-04-29T22:24:05Z</time>
<desc>lat.=21.028187, lon.=105.778076, Alt.=-8.629524m. Speed=0.216000m/h.</desc>
<speed>0.060000</speed>
</trkpt>
<trkpt lat="21.028185" lon="105.778084">
<ele>-8.764290</ele>
<time>2011-04-29T22:24:10Z</time>
<desc>lat.=21.028185, lon.=105.778084, Alt.=-8.764290m. Speed=0.180000m/h.</desc>
<speed>0.050000</speed>
</trkpt>
<trkpt lat="21.028183" lon="105.778084">
<ele>-8.662727</ele>
<time>2011-04-29T22:24:15Z</time>
<desc>lat.=21.028183, lon.=105.778084, Alt.=-8.662727m. Speed=0.180000m/h.</desc>
<speed>0.050000</speed>
</trkpt>
<trkpt lat="21.028183" lon="105.778084">
<ele>-8.565804</ele>
<time>2011-04-29T22:24:20Z</time>
<desc>lat.=21.028183, lon.=105.778084, Alt.=-8.565804m. Speed=0.072000m/h.</desc>
<speed>0.020000</speed>
</trkpt>
<trkpt lat="21.028183" lon="105.778084">
<ele>-8.524300</ele>
<time>2011-04-29T22:24:25Z</time>
<desc>lat.=21.028183, lon.=105.778084, Alt.=-8.524300m. Speed=0.072000m/h.</desc>
<speed>0.020000</speed>
</trkpt>
<trkpt lat="21.028187" lon="105.778084">
<ele>-8.431526</ele>
<time>2011-04-29T22:24:30Z</time>
<desc>lat.=21.028187, lon.=105.778084, Alt.=-8.431526m. Speed=0.180000m/h.</desc>
<speed>0.050000</speed>
</trkpt>
<trkpt lat="21.028187" lon="105.778076">
<ele>-8.216194</ele>
<time>2011-04-29T22:24:35Z</time>
<desc>lat.=21.028187, lon.=105.778076, Alt.=-8.216194m. Speed=0.468000m/h.</desc>
<speed>0.130000</speed>
</trkpt>
<trkpt lat="21.028187" lon="105.778076">
<ele>-7.796818</ele>
<time>2011-04-29T22:24:40Z</time>
<desc>lat.=21.028187, lon.=105.778076, Alt.=-7.796818m. Speed=0.144000m/h.</desc>
<speed>0.040000</speed>
</trkpt>
<trkpt lat="21.028185" lon="105.778076">
<ele>-7.225651</ele>
<time>2011-04-29T22:24:45Z</time>
<desc>lat.=21.028185, lon.=105.778076, Alt.=-7.225651m. Speed=0.360000m/h.</desc>
<speed>0.100000</speed>
</trkpt>
<trkpt lat="21.028181" lon="105.778069">
<ele>-6.561710</ele>
<time>2011-04-29T22:24:50Z</time>
<desc>lat.=21.028181, lon.=105.778069, Alt.=-6.561710m. Speed=0.324000m/h.</desc>
<speed>0.090000</speed>
</trkpt>
<trkpt lat="21.028179" lon="105.778069">
<ele>-5.749454</ele>
<time>2011-04-29T22:24:55Z</time>
<desc>lat.=21.028179, lon.=105.778069, Alt.=-5.749454m. Speed=0.216000m/h.</desc>
<speed>0.060000</speed>
</trkpt>
<trkpt lat="21.028177" lon="105.778061">
<ele>-4.829777</ele>
<time>2011-04-29T22:25:00Z</time>
<desc>lat.=21.028177, lon.=105.778061, Alt.=-4.829777m. Speed=0.180000m/h.</desc>
<speed>0.050000</speed>
</trkpt>
<trkpt lat="21.028177" lon="105.778061">
<ele>-3.719332</ele>
<time>2011-04-29T22:25:05Z</time>
<desc>lat.=21.028177, lon.=105.778061, Alt.=-3.719332m. Speed=0.216000m/h.</desc>
<speed>0.060000</speed>
</trkpt>
<trkpt lat="21.028177" lon="105.778061">
<ele>-2.435640</ele>
<time>2011-04-29T22:25:10Z</time>
<desc>lat.=21.028177, lon.=105.778061, Alt.=-2.435640m. Speed=0.324000m/h.</desc>
<speed>0.090000</speed>
</trkpt>
<trkpt lat="21.028177" lon="105.778053">
<ele>-1.030961</ele>
<time>2011-04-29T22:25:15Z</time>
<desc>lat.=21.028177, lon.=105.778053, Alt.=-1.030961m. Speed=0.504000m/h.</desc>
<speed>0.140000</speed>
</trkpt>
<trkpt lat="21.028179" lon="105.778046">
<ele>0.426647</ele>
<time>2011-04-29T22:25:20Z</time>
<desc>lat.=21.028179, lon.=105.778046, Alt.=0.426647m. Speed=0.684000m/h.</desc>
<speed>0.190000</speed>
</trkpt>
<trkpt lat="21.028179" lon="105.778038">
<ele>1.930436</ele>
<time>2011-04-29T22:25:25Z</time>
<desc>lat.=21.028179, lon.=105.778038, Alt.=1.930436m. Speed=0.720000m/h.</desc>
<speed>0.200000</speed>
</trkpt>
<trkpt lat="21.028183" lon="105.778023">
<ele>3.510836</ele>
<time>2011-04-29T22:25:30Z</time>
<desc>lat.=21.028183, lon.=105.778023, Alt.=3.510836m. Speed=0.936000m/h.</desc>
<speed>0.260000</speed>
</trkpt>
<trkpt lat="21.028187" lon="105.778000">
<ele>7.092716</ele>
<time>2011-04-29T22:25:35Z</time>
<desc>lat.=21.028187, lon.=105.778000, Alt.=7.092716m. Speed=1.224000m/h.</desc>
<speed>0.340000</speed>
</trkpt>
<trkpt lat="21.028194" lon="105.777985">
<ele>10.349007</ele>
<time>2011-04-29T22:25:40Z</time>
<desc>lat.=21.028194, lon.=105.777985, Alt.=10.349007m. Speed=1.224000m/h.</desc>
<speed>0.340000</speed>
</trkpt>
<trkpt lat="21.028212" lon="105.777962">
<ele>12.230110</ele>
<time>2011-04-29T22:25:45Z</time>
<desc>lat.=21.028212, lon.=105.777962, Alt.=12.230110m. Speed=1.836000m/h.</desc>
<speed>0.510000</speed>
</trkpt>
<trkpt lat="21.028219" lon="105.777969">
<ele>9.792122</ele>
<time>2011-04-29T22:25:50Z</time>
<desc>lat.=21.028219, lon.=105.777969, Alt.=9.792122m. Speed=1.224000m/h.</desc>
<speed>0.340000</speed>
</trkpt>
<trkpt lat="21.028225" lon="105.777977">
<ele>10.116829</ele>
<time>2011-04-29T22:25:55Z</time>
<desc>lat.=21.028225, lon.=105.777977, Alt.=10.116829m. Speed=0.324000m/h.</desc>
<speed>0.090000</speed>
</trkpt>
<trkpt lat="21.028223" lon="105.777977">
<ele>11.376350</ele>
<time>2011-04-29T22:26:00Z</time>
<desc>lat.=21.028223, lon.=105.777977, Alt.=11.376350m. Speed=0.396000m/h.</desc>
<speed>0.110000</speed>
</trkpt>
<trkpt lat="21.028217" lon="105.777977">
<ele>12.571907</ele>
<time>2011-04-29T22:26:05Z</time>
<desc>lat.=21.028217, lon.=105.777977, Alt.=12.571907m. Speed=0.540000m/h.</desc>
<speed>0.150000</speed>
</trkpt>
<trkpt lat="21.028210" lon="105.777977">
<ele>13.749641</ele>
<time>2011-04-29T22:26:10Z</time>
<desc>lat.=21.028210, lon.=105.777977, Alt.=13.749641m. Speed=0.936000m/h.</desc>
<speed>0.260000</speed>
</trkpt>
<trkpt lat="21.028206" lon="105.777969">
<ele>15.310677</ele>
<time>2011-04-29T22:26:15Z</time>
<desc>lat.=21.028206, lon.=105.777969, Alt.=15.310677m. Speed=0.828000m/h.</desc>
<speed>0.230000</speed>
</trkpt>
<trkpt lat="21.028200" lon="105.777954">
<ele>16.267838</ele>
<time>2011-04-29T22:26:20Z</time>
<desc>lat.=21.028200, lon.=105.777954, Alt.=16.267838m. Speed=1.080000m/h.</desc>
<speed>0.300000</speed>
</trkpt>
<trkpt lat="21.028200" lon="105.777946">
<ele>17.021255</ele>
<time>2011-04-29T22:26:25Z</time>
<desc>lat.=21.028200, lon.=105.777946, Alt.=17.021255m. Speed=0.828000m/h.</desc>
<speed>0.230000</speed>
</trkpt>
<trkpt lat="21.028187" lon="105.777924">
<ele>18.138931</ele>
<time>2011-04-29T22:26:30Z</time>
<desc>lat.=21.028187, lon.=105.777924, Alt.=18.138931m. Speed=1.512000m/h.</desc>
<speed>0.420000</speed>
</trkpt>
<trkpt lat="21.028179" lon="105.777924">
<ele>19.905045</ele>
<time>2011-04-29T22:26:35Z</time>
<desc>lat.=21.028179, lon.=105.777924, Alt.=19.905045m. Speed=1.152000m/h.</desc>
<speed>0.320000</speed>
</trkpt>
<trkpt lat="21.028160" lon="105.777916">
<ele>20.409439</ele>
<time>2011-04-29T22:26:40Z</time>
<desc>lat.=21.028160, lon.=105.777916, Alt.=20.409439m. Speed=1.188000m/h.</desc>
<speed>0.330000</speed>
</trkpt>
<trkpt lat="21.028137" lon="105.777924">
<ele>19.756119</ele>
<time>2011-04-29T22:26:45Z</time>
<desc>lat.=21.028137, lon.=105.777924, Alt.=19.756119m. Speed=1.224000m/h.</desc>
<speed>0.340000</speed>
</trkpt>
<trkpt lat="21.028130" lon="105.777924">
<ele>18.125748</ele>
<time>2011-04-29T22:26:50Z</time>
<desc>lat.=21.028130, lon.=105.777924, Alt.=18.125748m. Speed=0.504000m/h.</desc>
<speed>0.140000</speed>
</trkpt>
<trkpt lat="21.028122" lon="105.777924">
<ele>18.813736</ele>
<time>2011-04-29T22:26:55Z</time>
<desc>lat.=21.028122, lon.=105.777924, Alt.=18.813736m. Speed=0.324000m/h.</desc>
<speed>0.090000</speed>
</trkpt>
<trkpt lat="21.028122" lon="105.777924">
<ele>19.456802</ele>
<time>2011-04-29T22:27:00Z</time>
<desc>lat.=21.028122, lon.=105.777924, Alt.=19.456802m. Speed=0.072000m/h.</desc>
<speed>0.020000</speed>
</trkpt>
<trkpt lat="21.028122" lon="105.777916">
<ele>19.972427</ele>
<time>2011-04-29T22:27:05Z</time>
<desc>lat.=21.028122, lon.=105.777916, Alt.=19.972427m. Speed=0.684000m/h.</desc>
<speed>0.190000</speed>
</trkpt>
<trkpt lat="21.028120" lon="105.777908">
<ele>20.364517</ele>
<time>2011-04-29T22:27:10Z</time>
<desc>lat.=21.028120, lon.=105.777908, Alt.=20.364517m. Speed=0.792000m/h.</desc>
<speed>0.220000</speed>
</trkpt>
<trkpt lat="21.028109" lon="105.777901">
<ele>20.705338</ele>
<time>2011-04-29T22:27:15Z</time>
<desc>lat.=21.028109, lon.=105.777901, Alt.=20.705338m. Speed=0.864000m/h.</desc>
<speed>0.240000</speed>
</trkpt>
<trkpt lat="21.028097" lon="105.777885">
<ele>20.133560</ele>
<time>2011-04-29T22:27:20Z</time>
<desc>lat.=21.028097, lon.=105.777885, Alt.=20.133560m. Speed=1.224000m/h.</desc>
<speed>0.340000</speed>
</trkpt>
<trkpt lat="21.028065" lon="105.777870">
<ele>19.668716</ele>
<time>2011-04-29T22:27:25Z</time>
<desc>lat.=21.028065, lon.=105.777870, Alt.=19.668716m. Speed=1.476000m/h.</desc>
<speed>0.410000</speed>
</trkpt>
<trkpt lat="21.028048" lon="105.777863">
<ele>19.437271</ele>
<time>2011-04-29T22:27:30Z</time>
<desc>lat.=21.028048, lon.=105.777863, Alt.=19.437271m. Speed=1.296000m/h.</desc>
<speed>0.360000</speed>
</trkpt>
<trkpt lat="21.028027" lon="105.777855">
<ele>18.782486</ele>
<time>2011-04-29T22:27:35Z</time>
<desc>lat.=21.028027, lon.=105.777855, Alt.=18.782486m. Speed=1.224000m/h.</desc>
<speed>0.340000</speed>
</trkpt>
<trkpt lat="21.028023" lon="105.777855">
<ele>18.310318</ele>
<time>2011-04-29T22:27:40Z</time>
<desc>lat.=21.028023, lon.=105.777855, Alt.=18.310318m. Speed=0.612000m/h.</desc>
<speed>0.170000</speed>
</trkpt>
<trkpt lat="21.028011" lon="105.777855">
<ele>18.360123</ele>
<time>2011-04-29T22:27:45Z</time>
<desc>lat.=21.028011, lon.=105.777855, Alt.=18.360123m. Speed=0.756000m/h.</desc>
<speed>0.210000</speed>
</trkpt>
<trkpt lat="21.027990" lon="105.777840">
<ele>17.765884</ele>
<time>2011-04-29T22:27:50Z</time>
<desc>lat.=21.027990, lon.=105.777840, Alt.=17.765884m. Speed=1.332000m/h.</desc>
<speed>0.370000</speed>
</trkpt>
<trkpt lat="21.027971" lon="105.777847">
<ele>15.074837</ele>
<time>2011-04-29T22:27:55Z</time>
<desc>lat.=21.027971, lon.=105.777847, Alt.=15.074837m. Speed=1.296000m/h.</desc>
<speed>0.360000</speed>
</trkpt>
<trkpt lat="21.027952" lon="105.777855">
<ele>13.854866</ele>
<time>2011-04-29T22:28:00Z</time>
<desc>lat.=21.027952, lon.=105.777855, Alt.=13.854866m. Speed=1.296000m/h.</desc>
<speed>0.360000</speed>
</trkpt>
<trkpt lat="21.027931" lon="105.777855">
<ele>13.594368</ele>
<time>2011-04-29T22:28:05Z</time>
<desc>lat.=21.027931, lon.=105.777855, Alt.=13.594368m. Speed=1.440000m/h.</desc>
<speed>0.400000</speed>
</trkpt>
<trkpt lat="21.027889" lon="105.777870">
<ele>12.359261</ele>
<time>2011-04-29T22:28:10Z</time>
<desc>lat.=21.027889, lon.=105.777870, Alt.=12.359261m. Speed=1.836000m/h.</desc>
<speed>0.510000</speed>
</trkpt>
<trkpt lat="21.027868" lon="105.777870">
<ele>11.081429</ele>
<time>2011-04-29T22:28:15Z</time>
<desc>lat.=21.027868, lon.=105.777870, Alt.=11.081429m. Speed=1.440000m/h.</desc>
<speed>0.400000</speed>
</trkpt>
<trkpt lat="21.027866" lon="105.777863">
<ele>10.459114</ele>
<time>2011-04-29T22:28:20Z</time>
<desc>lat.=21.027866, lon.=105.777863, Alt.=10.459114m. Speed=0.936000m/h.</desc>
<speed>0.260000</speed>
</trkpt>
<trkpt lat="21.027845" lon="105.777870">
<ele>9.979378</ele>
<time>2011-04-29T22:28:25Z</time>
<desc>lat.=21.027845, lon.=105.777870, Alt.=9.979378m. Speed=1.440000m/h.</desc>
<speed>0.400000</speed>
</trkpt>
<trkpt lat="21.027805" lon="105.777863">
<ele>9.361946</ele>
<time>2011-04-29T22:28:30Z</time>
<desc>lat.=21.027805, lon.=105.777863, Alt.=9.361946m. Speed=1.728000m/h.</desc>
<speed>0.480000</speed>
</trkpt>
<trkpt lat="21.027769" lon="105.777870">
<ele>9.159309</ele>
<time>2011-04-29T22:28:35Z</time>
<desc>lat.=21.027769, lon.=105.777870, Alt.=9.159309m. Speed=1.800000m/h.</desc>
<speed>0.500000</speed>
</trkpt>
<trkpt lat="21.027748" lon="105.777878">
<ele>9.150520</ele>
<time>2011-04-29T22:28:40Z</time>
<desc>lat.=21.027748, lon.=105.777878, Alt.=9.150520m. Speed=1.764000m/h.</desc>
<speed>0.490000</speed>
</trkpt>
<trkpt lat="21.027702" lon="105.777885">
<ele>9.144905</ele>
<time>2011-04-29T22:28:45Z</time>
<desc>lat.=21.027702, lon.=105.777885, Alt.=9.144905m. Speed=2.124000m/h.</desc>
<speed>0.590000</speed>
</trkpt>
<trkpt lat="21.027666" lon="105.777901">
<ele>9.583626</ele>
<time>2011-04-29T22:28:50Z</time>
<desc>lat.=21.027666, lon.=105.777901, Alt.=9.583626m. Speed=3.168000m/h.</desc>
<speed>0.880000</speed>
</trkpt>
<trkpt lat="21.027611" lon="105.777885">
<ele>9.427620</ele>
<time>2011-04-29T22:28:55Z</time>
<desc>lat.=21.027611, lon.=105.777885, Alt.=9.427620m. Speed=2.592000m/h.</desc>
<speed>0.720000</speed>
</trkpt>
<trkpt lat="21.027573" lon="105.777901">
<ele>9.035042</ele>
<time>2011-04-29T22:29:00Z</time>
<desc>lat.=21.027573, lon.=105.777901, Alt.=9.035042m. Speed=2.160000m/h.</desc>
<speed>0.600000</speed>
</trkpt>
<trkpt lat="21.027559" lon="105.777916">
<ele>8.796272</ele>
<time>2011-04-29T22:29:05Z</time>
<desc>lat.=21.027559, lon.=105.777916, Alt.=8.796272m. Speed=1.440000m/h.</desc>
<speed>0.400000</speed>
</trkpt>
<trkpt lat="21.027550" lon="105.777931">
<ele>7.882999</ele>
<time>2011-04-29T22:29:10Z</time>
<desc>lat.=21.027550, lon.=105.777931, Alt.=7.882999m. Speed=1.980000m/h.</desc>
<speed>0.550000</speed>
</trkpt>
<trkpt lat="21.027527" lon="105.777985">
<ele>6.139469</ele>
<time>2011-04-29T22:29:15Z</time>
<desc>lat.=21.027527, lon.=105.777985, Alt.=6.139469m. Speed=2.520000m/h.</desc>
<speed>0.700000</speed>
</trkpt>
<trkpt lat="21.027531" lon="105.778046">
<ele>4.181339</ele>
<time>2011-04-29T22:29:20Z</time>
<desc>lat.=21.027531, lon.=105.778046, Alt.=4.181339m. Speed=4.608000m/h.</desc>
<speed>1.280000</speed>
</trkpt>
<trkpt lat="21.027534" lon="105.778084">
<ele>4.039127</ele>
<time>2011-04-29T22:29:25Z</time>
<desc>lat.=21.027534, lon.=105.778084, Alt.=4.039127m. Speed=3.204000m/h.</desc>
<speed>0.890000</speed>
</trkpt>
<trkpt lat="21.027552" lon="105.778114">
<ele>3.859529</ele>
<time>2011-04-29T22:29:30Z</time>
<desc>lat.=21.027552, lon.=105.778114, Alt.=3.859529m. Speed=1.080000m/h.</desc>
<speed>0.300000</speed>
</trkpt>
<trkpt lat="21.027544" lon="105.778198">
<ele>2.663240</ele>
<time>2011-04-29T22:29:35Z</time>
<desc>lat.=21.027544, lon.=105.778198, Alt.=2.663240m. Speed=6.660000m/h.</desc>
<speed>1.850000</speed>
</trkpt>
<trkpt lat="21.027534" lon="105.778290">
<ele>2.713472</ele>
<time>2011-04-29T22:29:40Z</time>
<desc>lat.=21.027534, lon.=105.778290, Alt.=2.713472m. Speed=3.816000m/h.</desc>
<speed>1.060000</speed>
</trkpt>
<trkpt lat="21.027546" lon="105.778397">
<ele>0.213537</ele>
<time>2011-04-29T22:29:45Z</time>
<desc>lat.=21.027546, lon.=105.778397, Alt.=0.213537m. Speed=5.508000m/h.</desc>
<speed>1.530000</speed>
</trkpt>
<trkpt lat="21.027483" lon="105.778503">
<ele>-0.165617</ele>
<time>2011-04-29T22:29:50Z</time>
<desc>lat.=21.027483, lon.=105.778503, Alt.=-0.165617m. Speed=3.348000m/h.</desc>
<speed>0.930000</speed>
</trkpt>
<trkpt lat="21.027483" lon="105.778542">
<ele>-1.053239</ele>
<time>2011-04-29T22:29:55Z</time>
<desc>lat.=21.027483, lon.=105.778542, Alt.=-1.053239m. Speed=1.404000m/h.</desc>
<speed>0.390000</speed>
</trkpt>
<trkpt lat="21.027485" lon="105.778549">
<ele>-1.988938</ele>
<time>2011-04-29T22:30:00Z</time>
<desc>lat.=21.027485, lon.=105.778549, Alt.=-1.988938m. Speed=0.936000m/h.</desc>
<speed>0.260000</speed>
</trkpt>
<trkpt lat="21.027481" lon="105.778557">
<ele>-3.389681</ele>
<time>2011-04-29T22:30:05Z</time>
<desc>lat.=21.027481, lon.=105.778557, Alt.=-3.389681m. Speed=0.684000m/h.</desc>
<speed>0.190000</speed>
</trkpt>
<trkpt lat="21.027475" lon="105.778564">
<ele>-3.694796</ele>
<time>2011-04-29T22:30:10Z</time>
<desc>lat.=21.027475, lon.=105.778564, Alt.=-3.694796m. Speed=0.432000m/h.</desc>
<speed>0.120000</speed>
</trkpt>
<trkpt lat="21.027470" lon="105.778572">
<ele>-3.973177</ele>
<time>2011-04-29T22:30:15Z</time>
<desc>lat.=21.027470, lon.=105.778572, Alt.=-3.973177m. Speed=0.180000m/h.</desc>
<speed>0.050000</speed>
</trkpt>
<trkpt lat="21.027470" lon="105.778572">
<ele>-4.254093</ele>
<time>2011-04-29T22:30:20Z</time>
<desc>lat.=21.027470, lon.=105.778572, Alt.=-4.254093m. Speed=0.252000m/h.</desc>
<speed>0.070000</speed>
</trkpt>
<trkpt lat="21.027473" lon="105.778572">
<ele>-4.523991</ele>
<time>2011-04-29T22:30:25Z</time>
<desc>lat.=21.027473, lon.=105.778572, Alt.=-4.523991m. Speed=0.396000m/h.</desc>
<speed>0.110000</speed>
</trkpt>
<trkpt lat="21.027470" lon="105.778618">
<ele>-5.263493</ele>
<time>2011-04-29T22:30:30Z</time>
<desc>lat.=21.027470, lon.=105.778618, Alt.=-5.263493m. Speed=2.448000m/h.</desc>
<speed>0.680000</speed>
</trkpt>
<trkpt lat="21.027456" lon="105.778671">
<ele>-6.089420</ele>
<time>2011-04-29T22:30:35Z</time>
<desc>lat.=21.027456, lon.=105.778671, Alt.=-6.089420m. Speed=1.944000m/h.</desc>
<speed>0.540000</speed>
</trkpt>
<trkpt lat="21.027426" lon="105.778740">
<ele>-5.463078</ele>
<time>2011-04-29T22:30:40Z</time>
<desc>lat.=21.027426, lon.=105.778740, Alt.=-5.463078m. Speed=3.240000m/h.</desc>
<speed>0.900000</speed>
</trkpt>
<trkpt lat="21.027386" lon="105.778778">
<ele>-5.266544</ele>
<time>2011-04-29T22:30:45Z</time>
<desc>lat.=21.027386, lon.=105.778778, Alt.=-5.266544m. Speed=8.352000m/h.</desc>
<speed>2.320000</speed>
</trkpt>
<trkpt lat="21.027246" lon="105.778786">
<ele>-5.179264</ele>
<time>2011-04-29T22:30:50Z</time>
<desc>lat.=21.027246, lon.=105.778786, Alt.=-5.179264m. Speed=11.952000m/h.</desc>
<speed>3.320000</speed>
</trkpt>
<trkpt lat="21.027040" lon="105.778748">
<ele>-4.888859</ele>
<time>2011-04-29T22:30:55Z</time>
<desc>lat.=21.027040, lon.=105.778748, Alt.=-4.888859m. Speed=15.228000m/h.</desc>
<speed>4.230000</speed>
</trkpt>
<trkpt lat="21.026773" lon="105.778732">
<ele>-3.911531</ele>
<time>2011-04-29T22:31:00Z</time>
<desc>lat.=21.026773, lon.=105.778732, Alt.=-3.911531m. Speed=22.068001m/h.</desc>
<speed>6.130000</speed>
</trkpt>
<trkpt lat="21.026445" lon="105.778664">
<ele>-0.157866</ele>
<time>2011-04-29T22:31:05Z</time>
<desc>lat.=21.026445, lon.=105.778664, Alt.=-0.157866m. Speed=27.288000m/h.</desc>
<speed>7.580000</speed>
</trkpt>
<trkpt lat="21.026089" lon="105.778610">
<ele>0.914376</ele>
<time>2011-04-29T22:31:10Z</time>
<desc>lat.=21.026089, lon.=105.778610, Alt.=0.914376m. Speed=27.143999m/h.</desc>
<speed>7.540000</speed>
</trkpt>
<trkpt lat="21.025734" lon="105.778572">
<ele>3.698092</ele>
<time>2011-04-29T22:31:15Z</time>
<desc>lat.=21.025734, lon.=105.778572, Alt.=3.698092m. Speed=24.732000m/h.</desc>
<speed>6.870000</speed>
</trkpt>
<trkpt lat="21.025415" lon="105.778503">
<ele>6.011662</ele>
<time>2011-04-29T22:31:20Z</time>
<desc>lat.=21.025415, lon.=105.778503, Alt.=6.011662m. Speed=28.836000m/h.</desc>
<speed>8.010000</speed>
</trkpt>
<trkpt lat="21.025068" lon="105.778465">
<ele>5.142521</ele>
<time>2011-04-29T22:31:25Z</time>
<desc>lat.=21.025068, lon.=105.778465, Alt.=5.142521m. Speed=28.980000m/h.</desc>
<speed>8.050000</speed>
</trkpt>
<trkpt lat="21.024704" lon="105.778458">
<ele>6.465397</ele>
<time>2011-04-29T22:31:30Z</time>
<desc>lat.=21.024704, lon.=105.778458, Alt.=6.465397m. Speed=29.087999m/h.</desc>
<speed>8.080000</speed>
</trkpt>
<trkpt lat="21.024366" lon="105.778450">
<ele>7.772892</ele>
<time>2011-04-29T22:31:35Z</time>
<desc>lat.=21.024366, lon.=105.778450, Alt.=7.772892m. Speed=25.308001m/h.</desc>
<speed>7.030000</speed>
</trkpt>
<trkpt lat="21.024025" lon="105.778465">
<ele>9.237190</ele>
<time>2011-04-29T22:31:40Z</time>
<desc>lat.=21.024025, lon.=105.778465, Alt.=9.237190m. Speed=26.964001m/h.</desc>
<speed>7.490000</speed>
</trkpt>
<trkpt lat="21.023689" lon="105.778496">
<ele>10.779671</ele>
<time>2011-04-29T22:31:45Z</time>
<desc>lat.=21.023689, lon.=105.778496, Alt.=10.779671m. Speed=27.000000m/h.</desc>
<speed>7.500000</speed>
</trkpt>
<trkpt lat="21.023354" lon="105.778542">
<ele>9.665413</ele>
<time>2011-04-29T22:31:50Z</time>
<desc>lat.=21.023354, lon.=105.778542, Alt.=9.665413m. Speed=26.568001m/h.</desc>
<speed>7.380000</speed>
</trkpt>
<trkpt lat="21.023037" lon="105.778603">
<ele>11.293343</ele>
<time>2011-04-29T22:31:55Z</time>
<desc>lat.=21.023037, lon.=105.778603, Alt.=11.293343m. Speed=23.940001m/h.</desc>
<speed>6.650000</speed>
</trkpt>
<trkpt lat="21.022768" lon="105.778664">
<ele>12.966438</ele>
<time>2011-04-29T22:32:00Z</time>
<desc>lat.=21.022768, lon.=105.778664, Alt.=12.966438m. Speed=21.096001m/h.</desc>
<speed>5.860000</speed>
</trkpt>
<trkpt lat="21.022533" lon="105.778755">
<ele>10.161507</ele>
<time>2011-04-29T22:32:05Z</time>
<desc>lat.=21.022533, lon.=105.778755, Alt.=10.161507m. Speed=19.296000m/h.</desc>
<speed>5.360000</speed>
</trkpt>
<trkpt lat="21.022341" lon="105.778816">
<ele>7.419132</ele>
<time>2011-04-29T22:32:10Z</time>
<desc>lat.=21.022341, lon.=105.778816, Alt.=7.419132m. Speed=9.504000m/h.</desc>
<speed>2.640000</speed>
</trkpt>
<trkpt lat="21.022308" lon="105.778816">
<ele>4.952579</ele>
<time>2011-04-29T22:32:15Z</time>
<desc>lat.=21.022308, lon.=105.778816, Alt.=4.952579m. Speed=5.580000m/h.</desc>
<speed>1.550000</speed>
</trkpt>
<trkpt lat="21.022221" lon="105.778831">
<ele>3.283846</ele>
<time>2011-04-29T22:32:20Z</time>
<desc>lat.=21.022221, lon.=105.778831, Alt.=3.283846m. Speed=11.700000m/h.</desc>
<speed>3.250000</speed>
</trkpt>
<trkpt lat="21.022062" lon="105.778900">
<ele>0.940468</ele>
<time>2011-04-29T22:32:25Z</time>
<desc>lat.=21.022062, lon.=105.778900, Alt.=0.940468m. Speed=12.924000m/h.</desc>
<speed>3.590000</speed>
</trkpt>
<trkpt lat="21.021925" lon="105.778946">
<ele>1.689012</ele>
<time>2011-04-29T22:32:30Z</time>
<desc>lat.=21.021925, lon.=105.778946, Alt.=1.689012m. Speed=6.228000m/h.</desc>
<speed>1.730000</speed>
</trkpt>
<trkpt lat="21.021891" lon="105.778969">
<ele>-0.839119</ele>
<time>2011-04-29T22:32:35Z</time>
<desc>lat.=21.021891, lon.=105.778969, Alt.=-0.839119m. Speed=2.448000m/h.</desc>
<speed>0.680000</speed>
</trkpt>
<trkpt lat="21.021847" lon="105.778969">
<ele>-0.147524</ele>
<time>2011-04-29T22:32:40Z</time>
<desc>lat.=21.021847, lon.=105.778969, Alt.=-0.147524m. Speed=4.752000m/h.</desc>
<speed>1.320000</speed>
</trkpt>
<trkpt lat="21.021740" lon="105.779030">
<ele>1.420579</ele>
<time>2011-04-29T22:32:45Z</time>
<desc>lat.=21.021740, lon.=105.779030, Alt.=1.420579m. Speed=8.280000m/h.</desc>
<speed>2.300000</speed>
</trkpt>
<trkpt lat="21.021719" lon="105.779129">
<ele>0.393376</ele>
<time>2011-04-29T22:32:50Z</time>
<desc>lat.=21.021719, lon.=105.779129, Alt.=0.393376m. Speed=6.696000m/h.</desc>
<speed>1.860000</speed>
</trkpt>
<trkpt lat="21.021746" lon="105.779236">
<ele>0.246370</ele>
<time>2011-04-29T22:32:55Z</time>
<desc>lat.=21.021746, lon.=105.779236, Alt.=0.246370m. Speed=4.320000m/h.</desc>
<speed>1.200000</speed>
</trkpt>
<trkpt lat="21.021837" lon="105.779274">
<ele>0.489475</ele>
<time>2011-04-29T22:33:00Z</time>
<desc>lat.=21.021837, lon.=105.779274, Alt.=0.489475m. Speed=7.128000m/h.</desc>
<speed>1.980000</speed>
</trkpt>
<trkpt lat="21.021971" lon="105.779282">
<ele>1.853135</ele>
<time>2011-04-29T22:33:05Z</time>
<desc>lat.=21.021971, lon.=105.779282, Alt.=1.853135m. Speed=14.004000m/h.</desc>
<speed>3.890000</speed>
</trkpt>
<trkpt lat="21.022198" lon="105.779228">
<ele>3.842562</ele>
<time>2011-04-29T22:33:10Z</time>
<desc>lat.=21.022198, lon.=105.779228, Alt.=3.842562m. Speed=16.667999m/h.</desc>
<speed>4.630000</speed>
</trkpt>
<trkpt lat="21.022408" lon="105.779167">
<ele>5.834171</ele>
<time>2011-04-29T22:33:15Z</time>
<desc>lat.=21.022408, lon.=105.779167, Alt.=5.834171m. Speed=16.955999m/h.</desc>
<speed>4.710000</speed>
</trkpt>
<trkpt lat="21.022623" lon="105.779106">
<ele>6.514835</ele>
<time>2011-04-29T22:33:20Z</time>
<desc>lat.=21.022623, lon.=105.779106, Alt.=6.514835m. Speed=17.243999m/h.</desc>
<speed>4.790000</speed>
</trkpt>
<trkpt lat="21.022890" lon="105.779015">
<ele>7.217228</ele>
<time>2011-04-29T22:33:25Z</time>
<desc>lat.=21.022890, lon.=105.779015, Alt.=7.217228m. Speed=22.860001m/h.</desc>
<speed>6.350000</speed>
</trkpt>
<trkpt lat="21.023153" lon="105.778969">
<ele>9.172005</ele>
<time>2011-04-29T22:33:30Z</time>
<desc>lat.=21.023153, lon.=105.778969, Alt.=9.172005m. Speed=19.440001m/h.</desc>
<speed>5.400000</speed>
</trkpt>
<trkpt lat="21.023376" lon="105.778938">
<ele>10.815071</ele>
<time>2011-04-29T22:33:35Z</time>
<desc>lat.=21.023376, lon.=105.778938, Alt.=10.815071m. Speed=18.504000m/h.</desc>
<speed>5.140000</speed>
</trkpt>
<trkpt lat="21.023605" lon="105.778915">
<ele>11.730354</ele>
<time>2011-04-29T22:33:40Z</time>
<desc>lat.=21.023605, lon.=105.778915, Alt.=11.730354m. Speed=19.260000m/h.</desc>
<speed>5.350000</speed>
</trkpt>
<trkpt lat="21.023834" lon="105.778885">
<ele>13.365608</ele>
<time>2011-04-29T22:33:45Z</time>
<desc>lat.=21.023834, lon.=105.778885, Alt.=13.365608m. Speed=18.468000m/h.</desc>
<speed>5.130000</speed>
</trkpt>
<trkpt lat="21.024099" lon="105.778877">
<ele>15.196907</ele>
<time>2011-04-29T22:33:50Z</time>
<desc>lat.=21.024099, lon.=105.778877, Alt.=15.196907m. Speed=19.836000m/h.</desc>
<speed>5.510000</speed>
</trkpt>
<trkpt lat="21.024374" lon="105.778854">
<ele>16.657974</ele>
<time>2011-04-29T22:33:55Z</time>
<desc>lat.=21.024374, lon.=105.778854, Alt.=16.657974m. Speed=20.304001m/h.</desc>
<speed>5.640000</speed>
</trkpt>
<trkpt lat="21.024633" lon="105.778839">
<ele>18.055923</ele>
<time>2011-04-29T22:34:00Z</time>
<desc>lat.=21.024633, lon.=105.778839, Alt.=18.055923m. Speed=22.139999m/h.</desc>
<speed>6.150000</speed>
</trkpt>
<trkpt lat="21.024908" lon="105.778847">
<ele>19.995865</ele>
<time>2011-04-29T22:34:05Z</time>
<desc>lat.=21.024908, lon.=105.778847, Alt.=19.995865m. Speed=20.591999m/h.</desc>
<speed>5.720000</speed>
</trkpt>
<trkpt lat="21.025150" lon="105.778870">
<ele>16.175552</ele>
<time>2011-04-29T22:34:10Z</time>
<desc>lat.=21.025150, lon.=105.778870, Alt.=16.175552m. Speed=20.916000m/h.</desc>
<speed>5.810000</speed>
</trkpt>
<trkpt lat="21.025415" lon="105.778893">
<ele>13.988899</ele>
<time>2011-04-29T22:34:15Z</time>
<desc>lat.=21.025415, lon.=105.778893, Alt.=13.988899m. Speed=20.808001m/h.</desc>
<speed>5.780000</speed>
</trkpt>
<trkpt lat="21.025673" lon="105.778923">
<ele>12.830696</ele>
<time>2011-04-29T22:34:20Z</time>
<desc>lat.=21.025673, lon.=105.778923, Alt.=12.830696m. Speed=20.268000m/h.</desc>
<speed>5.630000</speed>
</trkpt>
<trkpt lat="21.025936" lon="105.778938">
<ele>9.237434</ele>
<time>2011-04-29T22:34:25Z</time>
<desc>lat.=21.025936, lon.=105.778938, Alt.=9.237434m. Speed=21.420000m/h.</desc>
<speed>5.950000</speed>
</trkpt>
<trkpt lat="21.026196" lon="105.778999">
<ele>12.265755</ele>
<time>2011-04-29T22:34:30Z</time>
<desc>lat.=21.026196, lon.=105.778999, Alt.=12.265755m. Speed=18.972000m/h.</desc>
<speed>5.270000</speed>
</trkpt>
<trkpt lat="21.026442" lon="105.779045">
<ele>11.651497</ele>
<time>2011-04-29T22:34:35Z</time>
<desc>lat.=21.026442, lon.=105.779045, Alt.=11.651497m. Speed=19.980000m/h.</desc>
<speed>5.550000</speed>
</trkpt>
<trkpt lat="21.026665" lon="105.779060">
<ele>13.914436</ele>
<time>2011-04-29T22:34:40Z</time>
<desc>lat.=21.026665, lon.=105.779060, Alt.=13.914436m. Speed=16.344000m/h.</desc>
<speed>4.540000</speed>
</trkpt>
<trkpt lat="21.026842" lon="105.779106">
<ele>11.505013</ele>
<time>2011-04-29T22:34:45Z</time>
<desc>lat.=21.026842, lon.=105.779106, Alt.=11.505013m. Speed=10.224000m/h.</desc>
<speed>2.840000</speed>
</trkpt>
<trkpt lat="21.026907" lon="105.779160">
<ele>7.959904</ele>
<time>2011-04-29T22:34:50Z</time>
<desc>lat.=21.026907, lon.=105.779160, Alt.=7.959904m. Speed=4.968000m/h.</desc>
<speed>1.380000</speed>
</trkpt>
<trkpt lat="21.026970" lon="105.779175">
<ele>6.779606</ele>
<time>2011-04-29T22:34:55Z</time>
<desc>lat.=21.026970, lon.=105.779175, Alt.=6.779606m. Speed=4.608000m/h.</desc>
<speed>1.280000</speed>
</trkpt>
<trkpt lat="21.027012" lon="105.779167">
<ele>10.234016</ele>
<time>2011-04-29T22:35:00Z</time>
<desc>lat.=21.027012, lon.=105.779167, Alt.=10.234016m. Speed=3.564000m/h.</desc>
<speed>0.990000</speed>
</trkpt>
<trkpt lat="21.027061" lon="105.779167">
<ele>12.544319</ele>
<time>2011-04-29T22:35:05Z</time>
<desc>lat.=21.027061, lon.=105.779167, Alt.=12.544319m. Speed=6.372000m/h.</desc>
<speed>1.770000</speed>
</trkpt>
<trkpt lat="21.027157" lon="105.779160">
<ele>16.977310</ele>
<time>2011-04-29T22:35:10Z</time>
<desc>lat.=21.027157, lon.=105.779160, Alt.=16.977310m. Speed=8.172000m/h.</desc>
<speed>2.270000</speed>
</trkpt>
<trkpt lat="21.027224" lon="105.779190">
<ele>19.344986</ele>
<time>2011-04-29T22:35:15Z</time>
<desc>lat.=21.027224, lon.=105.779190, Alt.=19.344986m. Speed=6.480000m/h.</desc>
<speed>1.800000</speed>
</trkpt>
<trkpt lat="21.027382" lon="105.779259">
<ele>17.113052</ele>
<time>2011-04-29T22:35:20Z</time>
<desc>lat.=21.027382, lon.=105.779259, Alt.=17.113052m. Speed=14.292000m/h.</desc>
<speed>3.970000</speed>
</trkpt>
<trkpt lat="21.027575" lon="105.779266">
<ele>18.669693</ele>
<time>2011-04-29T22:35:25Z</time>
<desc>lat.=21.027575, lon.=105.779266, Alt.=18.669693m. Speed=14.508000m/h.</desc>
<speed>4.030000</speed>
</trkpt>
<trkpt lat="21.027706" lon="105.779305">
<ele>16.117447</ele>
<time>2011-04-29T22:35:30Z</time>
<desc>lat.=21.027706, lon.=105.779305, Alt.=16.117447m. Speed=12.672000m/h.</desc>
<speed>3.520000</speed>
</trkpt>
<trkpt lat="21.027931" lon="105.779327">
<ele>18.132095</ele>
<time>2011-04-29T22:35:35Z</time>
<desc>lat.=21.027931, lon.=105.779327, Alt.=18.132095m. Speed=16.344000m/h.</desc>
<speed>4.540000</speed>
</trkpt>
<trkpt lat="21.028128" lon="105.779358">
<ele>18.530045</ele>
<time>2011-04-29T22:35:40Z</time>
<desc>lat.=21.028128, lon.=105.779358, Alt.=18.530045m. Speed=15.228000m/h.</desc>
<speed>4.230000</speed>
</trkpt>
<trkpt lat="21.028301" lon="105.779366">
<ele>22.551041</ele>
<time>2011-04-29T22:35:45Z</time>
<desc>lat.=21.028301, lon.=105.779366, Alt.=22.551041m. Speed=12.312000m/h.</desc>
<speed>3.420000</speed>
</trkpt>
<trkpt lat="21.028484" lon="105.779335">
<ele>27.514420</ele>
<time>2011-04-29T22:35:50Z</time>
<desc>lat.=21.028484, lon.=105.779335, Alt.=27.514420m. Speed=14.580000m/h.</desc>
<speed>4.050000</speed>
</trkpt>
<trkpt lat="21.028738" lon="105.779343">
<ele>34.721222</ele>
<time>2011-04-29T22:35:55Z</time>
<desc>lat.=21.028738, lon.=105.779343, Alt.=34.721222m. Speed=16.344000m/h.</desc>
<speed>4.540000</speed>
</trkpt>
<trkpt lat="21.028910" lon="105.779335">
<ele>39.339386</ele>
<time>2011-04-29T22:36:00Z</time>
<desc>lat.=21.028910, lon.=105.779335, Alt.=39.339386m. Speed=9.252000m/h.</desc>
<speed>2.570000</speed>
</trkpt>
<trkpt lat="21.029110" lon="105.779343">
<ele>46.696808</ele>
<time>2011-04-29T22:36:05Z</time>
<desc>lat.=21.029110, lon.=105.779343, Alt.=46.696808m. Speed=12.096000m/h.</desc>
<speed>3.360000</speed>
</trkpt>
<trkpt lat="21.029198" lon="105.779327">
<ele>49.347198</ele>
<time>2011-04-29T22:36:10Z</time>
<desc>lat.=21.029198, lon.=105.779327, Alt.=49.347198m. Speed=1.080000m/h.</desc>
<speed>0.300000</speed>
</trkpt>
<trkpt lat="21.029209" lon="105.779335">
<ele>51.963409</ele>
<time>2011-04-29T22:36:15Z</time>
<desc>lat.=21.029209, lon.=105.779335, Alt.=51.963409m. Speed=2.916000m/h.</desc>
<speed>0.810000</speed>
</trkpt>
<trkpt lat="21.029303" lon="105.779350">
<ele>53.633331</ele>
<time>2011-04-29T22:36:20Z</time>
<desc>lat.=21.029303, lon.=105.779350, Alt.=53.633331m. Speed=8.964000m/h.</desc>
<speed>2.490000</speed>
</trkpt>
<trkpt lat="21.029469" lon="105.779427">
<ele>51.541534</ele>
<time>2011-04-29T22:36:25Z</time>
<desc>lat.=21.029469, lon.=105.779427, Alt.=51.541534m. Speed=13.428000m/h.</desc>
<speed>3.730000</speed>
</trkpt>
<trkpt lat="21.029711" lon="105.779526">
<ele>48.935089</ele>
<time>2011-04-29T22:36:30Z</time>
<desc>lat.=21.029711, lon.=105.779526, Alt.=48.935089m. Speed=18.972000m/h.</desc>
<speed>5.270000</speed>
</trkpt>
<trkpt lat="21.029972" lon="105.779579">
<ele>43.465363</ele>
<time>2011-04-29T22:36:35Z</time>
<desc>lat.=21.029972, lon.=105.779579, Alt.=43.465363m. Speed=22.320000m/h.</desc>
<speed>6.200000</speed>
</trkpt>
<trkpt lat="21.030275" lon="105.779648">
<ele>42.017120</ele>
<time>2011-04-29T22:36:40Z</time>
<desc>lat.=21.030275, lon.=105.779648, Alt.=42.017120m. Speed=22.032000m/h.</desc>
<speed>6.120000</speed>
</trkpt>
<trkpt lat="21.030540" lon="105.779663">
<ele>36.905792</ele>
<time>2011-04-29T22:36:45Z</time>
<desc>lat.=21.030540, lon.=105.779663, Alt.=36.905792m. Speed=22.716000m/h.</desc>
<speed>6.310000</speed>
</trkpt>
<trkpt lat="21.030882" lon="105.779732">
<ele>32.902863</ele>
<time>2011-04-29T22:36:50Z</time>
<desc>lat.=21.030882, lon.=105.779732, Alt.=32.902863m. Speed=26.388000m/h.</desc>
<speed>7.330000</speed>
</trkpt>
<trkpt lat="21.031252" lon="105.779854">
<ele>22.289322</ele>
<time>2011-04-29T22:36:55Z</time>
<desc>lat.=21.031252, lon.=105.779854, Alt.=22.289322m. Speed=30.743999m/h.</desc>
<speed>8.540000</speed>
</trkpt>
<trkpt lat="21.031677" lon="105.779930">
<ele>28.526138</ele>
<time>2011-04-29T22:37:00Z</time>
<desc>lat.=21.031677, lon.=105.779930, Alt.=28.526138m. Speed=31.572001m/h.</desc>
<speed>8.770000</speed>
</trkpt>
<trkpt lat="21.032061" lon="105.779961">
<ele>25.507095</ele>
<time>2011-04-29T22:37:05Z</time>
<desc>lat.=21.032061, lon.=105.779961, Alt.=25.507095m. Speed=31.032000m/h.</desc>
<speed>8.620000</speed>
</trkpt>
<trkpt lat="21.032454" lon="105.780029">
<ele>15.883186</ele>
<time>2011-04-29T22:37:10Z</time>
<desc>lat.=21.032454, lon.=105.780029, Alt.=15.883186m. Speed=30.275999m/h.</desc>
<speed>8.410000</speed>
</trkpt>
<trkpt lat="21.032846" lon="105.780067">
<ele>12.087532</ele>
<time>2011-04-29T22:37:15Z</time>
<desc>lat.=21.032846, lon.=105.780067, Alt.=12.087532m. Speed=34.703999m/h.</desc>
<speed>9.640000</speed>
</trkpt>
<trkpt lat="21.033314" lon="105.780121">
<ele>12.494270</ele>
<time>2011-04-29T22:37:20Z</time>
<desc>lat.=21.033314, lon.=105.780121, Alt.=12.494270m. Speed=39.924000m/h.</desc>
<speed>11.090000</speed>
</trkpt>
<trkpt lat="21.033873" lon="105.780197">
<ele>18.171158</ele>
<time>2011-04-29T22:37:25Z</time>
<desc>lat.=21.033873, lon.=105.780197, Alt.=18.171158m. Speed=44.964001m/h.</desc>
<speed>12.490000</speed>
</trkpt>
<trkpt lat="21.034481" lon="105.780273">
<ele>25.271744</ele>
<time>2011-04-29T22:37:30Z</time>
<desc>lat.=21.034481, lon.=105.780273, Alt.=25.271744m. Speed=51.264000m/h.</desc>
<speed>14.240000</speed>
</trkpt>
<trkpt lat="21.035110" lon="105.780388">
<ele>23.979263</ele>
<time>2011-04-29T22:37:35Z</time>
<desc>lat.=21.035110, lon.=105.780388, Alt.=23.979263m. Speed=48.636002m/h.</desc>
<speed>13.510000</speed>
</trkpt>
<trkpt lat="21.035675" lon="105.780495">
<ele>21.299576</ele>
<time>2011-04-29T22:37:40Z</time>
<desc>lat.=21.035675, lon.=105.780495, Alt.=21.299576m. Speed=42.264000m/h.</desc>
<speed>11.740000</speed>
</trkpt>
<trkpt lat="21.036179" lon="105.780556">
<ele>20.167740</ele>
<time>2011-04-29T22:37:45Z</time>
<desc>lat.=21.036179, lon.=105.780556, Alt.=20.167740m. Speed=37.655998m/h.</desc>
<speed>10.460000</speed>
</trkpt>
<trkpt lat="21.036659" lon="105.780617">
<ele>21.557388</ele>
<time>2011-04-29T22:37:50Z</time>
<desc>lat.=21.036659, lon.=105.780617, Alt.=21.557388m. Speed=38.952000m/h.</desc>
<speed>10.820000</speed>
</trkpt>
<trkpt lat="21.037132" lon="105.780678">
<ele>23.241959</ele>
<time>2011-04-29T22:37:55Z</time>
<desc>lat.=21.037132, lon.=105.780678, Alt.=23.241959m. Speed=37.368000m/h.</desc>
<speed>10.380000</speed>
</trkpt>
<trkpt lat="21.037605" lon="105.780724">
<ele>24.112076</ele>
<time>2011-04-29T22:38:00Z</time>
<desc>lat.=21.037605, lon.=105.780724, Alt.=24.112076m. Speed=37.728001m/h.</desc>
<speed>10.480000</speed>
</trkpt>
<trkpt lat="21.038063" lon="105.780769">
<ele>24.233658</ele>
<time>2011-04-29T22:38:05Z</time>
<desc>lat.=21.038063, lon.=105.780769, Alt.=24.233658m. Speed=37.908001m/h.</desc>
<speed>10.530000</speed>
</trkpt>
<trkpt lat="21.038517" lon="105.780800">
<ele>25.364029</ele>
<time>2011-04-29T22:38:10Z</time>
<desc>lat.=21.038517, lon.=105.780800, Alt.=25.364029m. Speed=38.591999m/h.</desc>
<speed>10.720000</speed>
</trkpt>
<trkpt lat="21.038948" lon="105.780853">
<ele>29.534927</ele>
<time>2011-04-29T22:38:15Z</time>
<desc>lat.=21.038948, lon.=105.780853, Alt.=29.534927m. Speed=31.896000m/h.</desc>
<speed>8.860000</speed>
</trkpt>
<trkpt lat="21.039360" lon="105.780891">
<ele>28.348892</ele>
<time>2011-04-29T22:38:20Z</time>
<desc>lat.=21.039360, lon.=105.780891, Alt.=28.348892m. Speed=28.007999m/h.</desc>
<speed>7.780000</speed>
</trkpt>
<trkpt lat="21.039652" lon="105.780907">
<ele>27.365494</ele>
<time>2011-04-29T22:38:25Z</time>
<desc>lat.=21.039652, lon.=105.780907, Alt.=27.365494m. Speed=23.724001m/h.</desc>
<speed>6.590000</speed>
</trkpt>
<trkpt lat="21.039965" lon="105.780930">
<ele>24.783463</ele>
<time>2011-04-29T22:38:30Z</time>
<desc>lat.=21.039965, lon.=105.780930, Alt.=24.783463m. Speed=28.728001m/h.</desc>
<speed>7.980000</speed>
</trkpt>
<trkpt lat="21.040295" lon="105.780930">
<ele>20.286392</ele>
<time>2011-04-29T22:38:35Z</time>
<desc>lat.=21.040295, lon.=105.780930, Alt.=20.286392m. Speed=24.552000m/h.</desc>
<speed>6.820000</speed>
</trkpt>
<trkpt lat="21.040600" lon="105.780945">
<ele>16.184830</ele>
<time>2011-04-29T22:38:40Z</time>
<desc>lat.=21.040600, lon.=105.780945, Alt.=16.184830m. Speed=24.732000m/h.</desc>
<speed>6.870000</speed>
</trkpt>
<trkpt lat="21.040915" lon="105.780960">
<ele>18.720474</ele>
<time>2011-04-29T22:38:45Z</time>
<desc>lat.=21.040915, lon.=105.780960, Alt.=18.720474m. Speed=27.288000m/h.</desc>
<speed>7.580000</speed>
</trkpt>
<trkpt lat="21.041241" lon="105.781006">
<ele>16.211197</ele>
<time>2011-04-29T22:38:50Z</time>
<desc>lat.=21.041241, lon.=105.781006, Alt.=16.211197m. Speed=25.379999m/h.</desc>
<speed>7.050000</speed>
</trkpt>
<trkpt lat="21.041563" lon="105.781006">
<ele>18.073990</ele>
<time>2011-04-29T22:38:55Z</time>
<desc>lat.=21.041563, lon.=105.781006, Alt.=18.073990m. Speed=20.808001m/h.</desc>
<speed>5.780000</speed>
</trkpt>
<trkpt lat="21.041864" lon="105.780991">
<ele>12.765755</ele>
<time>2011-04-29T22:39:00Z</time>
<desc>lat.=21.041864, lon.=105.780991, Alt.=12.765755m. Speed=20.375999m/h.</desc>
<speed>5.660000</speed>
</trkpt>
<trkpt lat="21.042175" lon="105.781067">
<ele>11.349007</ele>
<time>2011-04-29T22:39:05Z</time>
<desc>lat.=21.042175, lon.=105.781067, Alt.=11.349007m. Speed=17.459999m/h.</desc>
<speed>4.850000</speed>
</trkpt>
<trkpt lat="21.042379" lon="105.781052">
<ele>14.882454</ele>
<time>2011-04-29T22:39:10Z</time>
<desc>lat.=21.042379, lon.=105.781052, Alt.=14.882454m. Speed=8.640000m/h.</desc>
<speed>2.400000</speed>
</trkpt>
<trkpt lat="21.042530" lon="105.781029">
<ele>13.263313</ele>
<time>2011-04-29T22:39:15Z</time>
<desc>lat.=21.042530, lon.=105.781029, Alt.=13.263313m. Speed=11.844000m/h.</desc>
<speed>3.290000</speed>
</trkpt>
<trkpt lat="21.042768" lon="105.780991">
<ele>21.289322</ele>
<time>2011-04-29T22:39:20Z</time>
<desc>lat.=21.042768, lon.=105.780991, Alt.=21.289322m. Speed=16.524000m/h.</desc>
<speed>4.590000</speed>
</trkpt>
<trkpt lat="21.043072" lon="105.781036">
<ele>26.061783</ele>
<time>2011-04-29T22:39:25Z</time>
<desc>lat.=21.043072, lon.=105.781036, Alt.=26.061783m. Speed=20.916000m/h.</desc>
<speed>5.810000</speed>
</trkpt>
<trkpt lat="21.043381" lon="105.781052">
<ele>31.815201</ele>
<time>2011-04-29T22:39:30Z</time>
<desc>lat.=21.043381, lon.=105.781052, Alt.=31.815201m. Speed=24.804001m/h.</desc>
<speed>6.890000</speed>
</trkpt>
<trkpt lat="21.043736" lon="105.781082">
<ele>32.013214</ele>
<time>2011-04-29T22:39:35Z</time>
<desc>lat.=21.043736, lon.=105.781082, Alt.=32.013214m. Speed=24.660000m/h.</desc>
<speed>6.850000</speed>
</trkpt>
<trkpt lat="21.044041" lon="105.781120">
<ele>21.825943</ele>
<time>2011-04-29T22:39:40Z</time>
<desc>lat.=21.044041, lon.=105.781120, Alt.=21.825943m. Speed=20.448000m/h.</desc>
<speed>5.680000</speed>
</trkpt>
<trkpt lat="21.044359" lon="105.781128">
<ele>17.797134</ele>
<time>2011-04-29T22:39:45Z</time>
<desc>lat.=21.044359, lon.=105.781128, Alt.=17.797134m. Speed=19.332001m/h.</desc>
<speed>5.370000</speed>
</trkpt>
<trkpt lat="21.044605" lon="105.781174">
<ele>13.690315</ele>
<time>2011-04-29T22:39:50Z</time>
<desc>lat.=21.044605, lon.=105.781174, Alt.=13.690315m. Speed=12.600000m/h.</desc>
<speed>3.500000</speed>
</trkpt>
<trkpt lat="21.044846" lon="105.781197">
<ele>12.735725</ele>
<time>2011-04-29T22:39:55Z</time>
<desc>lat.=21.044846, lon.=105.781197, Alt.=12.735725m. Speed=17.424000m/h.</desc>
<speed>4.840000</speed>
</trkpt>
<trkpt lat="21.045107" lon="105.781258">
<ele>10.107307</ele>
<time>2011-04-29T22:40:00Z</time>
<desc>lat.=21.045107, lon.=105.781258, Alt.=10.107307m. Speed=17.424000m/h.</desc>
<speed>4.840000</speed>
</trkpt>
<trkpt lat="21.045368" lon="105.781265">
<ele>14.655891</ele>
<time>2011-04-29T22:40:05Z</time>
<desc>lat.=21.045368, lon.=105.781265, Alt.=14.655891m. Speed=17.747999m/h.</desc>
<speed>4.930000</speed>
</trkpt>
<trkpt lat="21.045649" lon="105.781311">
<ele>8.132942</ele>
<time>2011-04-29T22:40:10Z</time>
<desc>lat.=21.045649, lon.=105.781311, Alt.=8.132942m. Speed=20.268000m/h.</desc>
<speed>5.630000</speed>
</trkpt>
<trkpt lat="21.045914" lon="105.781342">
<ele>8.066048</ele>
<time>2011-04-29T22:40:15Z</time>
<desc>lat.=21.045914, lon.=105.781342, Alt.=8.066048m. Speed=18.000000m/h.</desc>
<speed>5.000000</speed>
</trkpt>
<trkpt lat="21.046177" lon="105.781387">
<ele>3.771273</ele>
<time>2011-04-29T22:40:20Z</time>
<desc>lat.=21.046177, lon.=105.781387, Alt.=3.771273m. Speed=16.308001m/h.</desc>
<speed>4.530000</speed>
</trkpt>
<trkpt lat="21.046394" lon="105.781380">
<ele>5.688297</ele>
<time>2011-04-29T22:40:25Z</time>
<desc>lat.=21.046394, lon.=105.781380, Alt.=5.688297m. Speed=13.860000m/h.</desc>
<speed>3.850000</speed>
</trkpt>
<trkpt lat="21.046551" lon="105.781364">
<ele>9.066780</ele>
<time>2011-04-29T22:40:30Z</time>
<desc>lat.=21.046551, lon.=105.781364, Alt.=9.066780m. Speed=10.800000m/h.</desc>
<speed>3.000000</speed>
</trkpt>
<trkpt lat="21.046654" lon="105.781349">
<ele>11.478889</ele>
<time>2011-04-29T22:40:35Z</time>
<desc>lat.=21.046654, lon.=105.781349, Alt.=11.478889m. Speed=4.032000m/h.</desc>
<speed>1.120000</speed>
</trkpt>
<trkpt lat="21.046692" lon="105.781357">
<ele>13.052620</ele>
<time>2011-04-29T22:40:40Z</time>
<desc>lat.=21.046692, lon.=105.781357, Alt.=13.052620m. Speed=6.588000m/h.</desc>
<speed>1.830000</speed>
</trkpt>
<trkpt lat="21.046787" lon="105.781387">
<ele>16.171646</ele>
<time>2011-04-29T22:40:45Z</time>
<desc>lat.=21.046787, lon.=105.781387, Alt.=16.171646m. Speed=6.264000m/h.</desc>
<speed>1.740000</speed>
</trkpt>
<trkpt lat="21.046877" lon="105.781418">
<ele>21.125259</ele>
<time>2011-04-29T22:40:50Z</time>
<desc>lat.=21.046877, lon.=105.781418, Alt.=21.125259m. Speed=5.004000m/h.</desc>
<speed>1.390000</speed>
</trkpt>
<trkpt lat="21.046919" lon="105.781425">
<ele>24.302994</ele>
<time>2011-04-29T22:40:55Z</time>
<desc>lat.=21.046919, lon.=105.781425, Alt.=24.302994m. Speed=2.664000m/h.</desc>
<speed>0.740000</speed>
</trkpt>
<trkpt lat="21.046989" lon="105.781418">
<ele>26.096451</ele>
<time>2011-04-29T22:41:00Z</time>
<desc>lat.=21.046989, lon.=105.781418, Alt.=26.096451m. Speed=12.312000m/h.</desc>
<speed>3.420000</speed>
</trkpt>
<trkpt lat="21.047203" lon="105.781387">
<ele>28.012466</ele>
<time>2011-04-29T22:41:05Z</time>
<desc>lat.=21.047203, lon.=105.781387, Alt.=28.012466m. Speed=20.736000m/h.</desc>
<speed>5.760000</speed>
</trkpt>
<trkpt lat="21.047503" lon="105.781387">
<ele>30.286392</ele>
<time>2011-04-29T22:41:10Z</time>
<desc>lat.=21.047503, lon.=105.781387, Alt.=30.286392m. Speed=25.632000m/h.</desc>
<speed>7.120000</speed>
</trkpt>
<trkpt lat="21.047897" lon="105.781433">
<ele>26.516373</ele>
<time>2011-04-29T22:41:15Z</time>
<desc>lat.=21.047897, lon.=105.781433, Alt.=26.516373m. Speed=29.375999m/h.</desc>
<speed>8.160000</speed>
</trkpt>
<trkpt lat="21.048231" lon="105.781456">
<ele>23.971939</ele>
<time>2011-04-29T22:41:20Z</time>
<desc>lat.=21.048231, lon.=105.781456, Alt.=23.971939m. Speed=22.823999m/h.</desc>
<speed>6.340000</speed>
</trkpt>
<trkpt lat="21.048496" lon="105.781479">
<ele>18.770279</ele>
<time>2011-04-29T22:41:25Z</time>
<desc>lat.=21.048496, lon.=105.781479, Alt.=18.770279m. Speed=15.084000m/h.</desc>
<speed>4.190000</speed>
</trkpt>
<trkpt lat="21.048712" lon="105.781471">
<ele>14.273323</ele>
<time>2011-04-29T22:41:30Z</time>
<desc>lat.=21.048712, lon.=105.781471, Alt.=14.273323m. Speed=15.372000m/h.</desc>
<speed>4.270000</speed>
</trkpt>
<trkpt lat="21.048899" lon="105.781494">
<ele>15.305061</ele>
<time>2011-04-29T22:41:35Z</time>
<desc>lat.=21.048899, lon.=105.781494, Alt.=15.305061m. Speed=18.864000m/h.</desc>
<speed>5.240000</speed>
</trkpt>
<trkpt lat="21.049242" lon="105.781456">
<ele>28.242935</ele>
<time>2011-04-29T22:41:40Z</time>
<desc>lat.=21.049242, lon.=105.781456, Alt.=28.242935m. Speed=26.820000m/h.</desc>
<speed>7.450000</speed>
</trkpt>
<trkpt lat="21.049585" lon="105.781464">
<ele>40.329620</ele>
<time>2011-04-29T22:41:45Z</time>
<desc>lat.=21.049585, lon.=105.781464, Alt.=40.329620m. Speed=24.948000m/h.</desc>
<speed>6.930000</speed>
</trkpt>
<trkpt lat="21.050013" lon="105.781525">
<ele>39.764191</ele>
<time>2011-04-29T22:41:50Z</time>
<desc>lat.=21.050013, lon.=105.781525, Alt.=39.764191m. Speed=32.796001m/h.</desc>
<speed>9.110000</speed>
</trkpt>
<trkpt lat="21.050493" lon="105.781570">
<ele>38.158722</ele>
<time>2011-04-29T22:41:55Z</time>
<desc>lat.=21.050493, lon.=105.781570, Alt.=38.158722m. Speed=34.236000m/h.</desc>
<speed>9.510000</speed>
</trkpt>
<trkpt lat="21.050901" lon="105.781578">
<ele>40.829620</ele>
<time>2011-04-29T22:42:00Z</time>
<desc>lat.=21.050901, lon.=105.781578, Alt.=40.829620m. Speed=25.271999m/h.</desc>
<speed>7.020000</speed>
</trkpt>
<trkpt lat="21.051260" lon="105.781586">
<ele>42.806183</ele>
<time>2011-04-29T22:42:05Z</time>
<desc>lat.=21.051260, lon.=105.781586, Alt.=42.806183m. Speed=29.160000m/h.</desc>
<speed>8.100000</speed>
</trkpt>
<trkpt lat="21.051687" lon="105.781639">
<ele>39.473175</ele>
<time>2011-04-29T22:42:10Z</time>
<desc>lat.=21.051687, lon.=105.781639, Alt.=39.473175m. Speed=34.380001m/h.</desc>
<speed>9.550000</speed>
</trkpt>
<trkpt lat="21.052176" lon="105.781677">
<ele>40.939972</ele>
<time>2011-04-29T22:42:15Z</time>
<desc>lat.=21.052176, lon.=105.781677, Alt.=40.939972m. Speed=37.512001m/h.</desc>
<speed>10.420000</speed>
</trkpt>
<trkpt lat="21.052666" lon="105.781708">
<ele>47.696808</ele>
<time>2011-04-29T22:42:20Z</time>
<desc>lat.=21.052666, lon.=105.781708, Alt.=47.696808m. Speed=33.911999m/h.</desc>
<speed>9.420000</speed>
</trkpt>
<trkpt lat="21.053123" lon="105.781731">
<ele>55.302277</ele>
<time>2011-04-29T22:42:25Z</time>
<desc>lat.=21.053123, lon.=105.781731, Alt.=55.302277m. Speed=36.216000m/h.</desc>
<speed>10.060000</speed>
</trkpt>
<trkpt lat="21.053606" lon="105.781738">
<ele>65.971741</ele>
<time>2011-04-29T22:42:30Z</time>
<desc>lat.=21.053606, lon.=105.781738, Alt.=65.971741m. Speed=39.528000m/h.</desc>
<speed>10.980000</speed>
</trkpt>
<trkpt lat="21.054136" lon="105.781830">
<ele>51.719269</ele>
<time>2011-04-29T22:42:35Z</time>
<desc>lat.=21.054136, lon.=105.781830, Alt.=51.719269m. Speed=39.383999m/h.</desc>
<speed>10.940000</speed>
</trkpt>
<trkpt lat="21.054642" lon="105.781952">
<ele>45.683136</ele>
<time>2011-04-29T22:42:40Z</time>
<desc>lat.=21.054642, lon.=105.781952, Alt.=45.683136m. Speed=40.355999m/h.</desc>
<speed>11.210000</speed>
</trkpt>
<trkpt lat="21.055149" lon="105.782082">
<ele>35.232941</ele>
<time>2011-04-29T22:42:45Z</time>
<desc>lat.=21.055149, lon.=105.782082, Alt.=35.232941m. Speed=38.844002m/h.</desc>
<speed>10.790000</speed>
</trkpt>
<trkpt lat="21.055609" lon="105.782181">
<ele>34.081573</ele>
<time>2011-04-29T22:42:50Z</time>
<desc>lat.=21.055609, lon.=105.782181, Alt.=34.081573m. Speed=30.528000m/h.</desc>
<speed>8.480000</speed>
</trkpt>
<trkpt lat="21.055923" lon="105.782242">
<ele>37.219269</ele>
<time>2011-04-29T22:42:55Z</time>
<desc>lat.=21.055923, lon.=105.782242, Alt.=37.219269m. Speed=23.148001m/h.</desc>
<speed>6.430000</speed>
</trkpt>
<trkpt lat="21.056166" lon="105.782295">
<ele>52.312042</ele>
<time>2011-04-29T22:43:00Z</time>
<desc>lat.=21.056166, lon.=105.782295, Alt.=52.312042m. Speed=20.771999m/h.</desc>
<speed>5.770000</speed>
</trkpt>
<trkpt lat="21.056471" lon="105.782326">
<ele>56.322784</ele>
<time>2011-04-29T22:43:05Z</time>
<desc>lat.=21.056471, lon.=105.782326, Alt.=56.322784m. Speed=23.615999m/h.</desc>
<speed>6.560000</speed>
</trkpt>
<trkpt lat="21.056780" lon="105.782387">
<ele>64.811584</ele>
<time>2011-04-29T22:43:10Z</time>
<desc>lat.=21.056780, lon.=105.782387, Alt.=64.811584m. Speed=22.139999m/h.</desc>
<speed>6.150000</speed>
</trkpt>
<trkpt lat="21.057058" lon="105.782471">
<ele>73.467834</ele>
<time>2011-04-29T22:43:15Z</time>
<desc>lat.=21.057058, lon.=105.782471, Alt.=73.467834m. Speed=19.511999m/h.</desc>
<speed>5.420000</speed>
</trkpt>
<trkpt lat="21.057329" lon="105.782532">
<ele>87.936584</ele>
<time>2011-04-29T22:43:20Z</time>
<desc>lat.=21.057329, lon.=105.782532, Alt.=87.936584m. Speed=15.840000m/h.</desc>
<speed>4.400000</speed>
</trkpt>
<trkpt lat="21.057632" lon="105.782600">
<ele>92.487366</ele>
<time>2011-04-29T22:43:25Z</time>
<desc>lat.=21.057632, lon.=105.782600, Alt.=92.487366m. Speed=25.308001m/h.</desc>
<speed>7.030000</speed>
</trkpt>
<trkpt lat="21.058043" lon="105.782677">
<ele>106.290100</ele>
<time>2011-04-29T22:43:30Z</time>
<desc>lat.=21.058043, lon.=105.782677, Alt.=106.290100m. Speed=28.115999m/h.</desc>
<speed>7.810000</speed>
</trkpt>
<trkpt lat="21.058268" lon="105.782715">
<ele>120.126038</ele>
<time>2011-04-29T22:43:35Z</time>
<desc>lat.=21.058268, lon.=105.782715, Alt.=120.126038m. Speed=14.472000m/h.</desc>
<speed>4.020000</speed>
</trkpt>
<trkpt lat="21.058458" lon="105.782707">
<ele>125.176819</ele>
<time>2011-04-29T22:43:40Z</time>
<desc>lat.=21.058458, lon.=105.782707, Alt.=125.176819m. Speed=12.096000m/h.</desc>
<speed>3.360000</speed>
</trkpt>
<trkpt lat="21.058617" lon="105.782738">
<ele>124.735413</ele>
<time>2011-04-29T22:43:45Z</time>
<desc>lat.=21.058617, lon.=105.782738, Alt.=124.735413m. Speed=8.532000m/h.</desc>
<speed>2.370000</speed>
</trkpt>
<trkpt lat="21.058796" lon="105.782784">
<ele>126.547913</ele>
<time>2011-04-29T22:43:50Z</time>
<desc>lat.=21.058796, lon.=105.782784, Alt.=126.547913m. Speed=15.120000m/h.</desc>
<speed>4.200000</speed>
</trkpt>
<trkpt lat="21.058939" lon="105.782822">
<ele>130.197388</ele>
<time>2011-04-29T22:43:55Z</time>
<desc>lat.=21.058939, lon.=105.782822, Alt.=130.197388m. Speed=9.972000m/h.</desc>
<speed>2.770000</speed>
</trkpt>
<trkpt lat="21.059196" lon="105.782845">
<ele>131.974731</ele>
<time>2011-04-29T22:44:00Z</time>
<desc>lat.=21.059196, lon.=105.782845, Alt.=131.974731m. Speed=27.216000m/h.</desc>
<speed>7.560000</speed>
</trkpt>
<trkpt lat="21.059574" lon="105.782913">
<ele>136.275513</ele>
<time>2011-04-29T22:44:05Z</time>
<desc>lat.=21.059574, lon.=105.782913, Alt.=136.275513m. Speed=30.167999m/h.</desc>
<speed>8.380000</speed>
</trkpt>
<trkpt lat="21.060009" lon="105.783028">
<ele>134.170044</ele>
<time>2011-04-29T22:44:10Z</time>
<desc>lat.=21.060009, lon.=105.783028, Alt.=134.170044m. Speed=36.216000m/h.</desc>
<speed>10.060000</speed>
</trkpt>
<trkpt lat="21.060507" lon="105.783173">
<ele>134.912231</ele>
<time>2011-04-29T22:44:15Z</time>
<desc>lat.=21.060507, lon.=105.783173, Alt.=134.912231m. Speed=37.223999m/h.</desc>
<speed>10.340000</speed>
</trkpt>
<trkpt lat="21.061031" lon="105.783417">
<ele>121.692444</ele>
<time>2011-04-29T22:44:20Z</time>
<desc>lat.=21.061031, lon.=105.783417, Alt.=121.692444m. Speed=43.236000m/h.</desc>
<speed>12.010000</speed>
</trkpt>
<trkpt lat="21.061573" lon="105.783539">
<ele>120.581116</ele>
<time>2011-04-29T22:44:25Z</time>
<desc>lat.=21.061573, lon.=105.783539, Alt.=120.581116m. Speed=42.588001m/h.</desc>
<speed>11.830000</speed>
</trkpt>
<trkpt lat="21.062107" lon="105.783669">
<ele>117.739319</ele>
<time>2011-04-29T22:44:30Z</time>
<desc>lat.=21.062107, lon.=105.783669, Alt.=117.739319m. Speed=42.372002m/h.</desc>
<speed>11.770000</speed>
</trkpt>
<trkpt lat="21.062632" lon="105.783798">
<ele>111.835022</ele>
<time>2011-04-29T22:44:35Z</time>
<desc>lat.=21.062632, lon.=105.783798, Alt.=111.835022m. Speed=43.056000m/h.</desc>
<speed>11.960000</speed>
</trkpt>
<trkpt lat="21.063211" lon="105.783966">
<ele>112.612366</ele>
<time>2011-04-29T22:44:40Z</time>
<desc>lat.=21.063211, lon.=105.783966, Alt.=112.612366m. Speed=45.576000m/h.</desc>
<speed>12.660000</speed>
</trkpt>
<trkpt lat="21.063795" lon="105.784119">
<ele>109.311584</ele>
<time>2011-04-29T22:44:45Z</time>
<desc>lat.=21.063795, lon.=105.784119, Alt.=109.311584m. Speed=46.368000m/h.</desc>
<speed>12.880000</speed>
</trkpt>
<trkpt lat="21.064407" lon="105.784317">
<ele>104.450256</ele>
<time>2011-04-29T22:44:50Z</time>
<desc>lat.=21.064407, lon.=105.784317, Alt.=104.450256m. Speed=49.751999m/h.</desc>
<speed>13.820000</speed>
</trkpt>
<trkpt lat="21.064983" lon="105.784485">
<ele>96.073303</ele>
<time>2011-04-29T22:44:55Z</time>
<desc>lat.=21.064983, lon.=105.784485, Alt.=96.073303m. Speed=49.212002m/h.</desc>
<speed>13.670001</speed>
</trkpt>
<trkpt lat="21.065647" lon="105.784653">
<ele>88.376038</ele>
<time>2011-04-29T22:45:00Z</time>
<desc>lat.=21.065647, lon.=105.784653, Alt.=88.376038m. Speed=50.688000m/h.</desc>
<speed>14.080000</speed>
</trkpt>
<trkpt lat="21.066267" lon="105.784813">
<ele>82.899475</ele>
<time>2011-04-29T22:45:05Z</time>
<desc>lat.=21.066267, lon.=105.784813, Alt.=82.899475m. Speed=48.599998m/h.</desc>
<speed>13.500000</speed>
</trkpt>
<trkpt lat="21.066906" lon="105.784943">
<ele>77.241272</ele>
<time>2011-04-29T22:45:10Z</time>
<desc>lat.=21.066906, lon.=105.784943, Alt.=77.241272m. Speed=49.716000m/h.</desc>
<speed>13.810000</speed>
</trkpt>
<trkpt lat="21.067492" lon="105.785049">
<ele>73.739319</ele>
<time>2011-04-29T22:45:15Z</time>
<desc>lat.=21.067492, lon.=105.785049, Alt.=73.739319m. Speed=41.616001m/h.</desc>
<speed>11.560000</speed>
</trkpt>
<trkpt lat="21.068037" lon="105.785164">
<ele>65.219788</ele>
<time>2011-04-29T22:45:20Z</time>
<desc>lat.=21.068037, lon.=105.785164, Alt.=65.219788m. Speed=38.736000m/h.</desc>
<speed>10.760000</speed>
</trkpt>
<trkpt lat="21.068478" lon="105.785294">
<ele>60.458527</ele>
<time>2011-04-29T22:45:25Z</time>
<desc>lat.=21.068478, lon.=105.785294, Alt.=60.458527m. Speed=30.240000m/h.</desc>
<speed>8.400000</speed>
</trkpt>
<trkpt lat="21.068733" lon="105.785324">
<ele>54.806183</ele>
<time>2011-04-29T22:45:30Z</time>
<desc>lat.=21.068733, lon.=105.785324, Alt.=54.806183m. Speed=8.352000m/h.</desc>
<speed>2.320000</speed>
</trkpt>
<trkpt lat="21.068804" lon="105.785347">
<ele>54.259308</ele>
<time>2011-04-29T22:45:35Z</time>
<desc>lat.=21.068804, lon.=105.785347, Alt.=54.259308m. Speed=10.224000m/h.</desc>
<speed>2.840000</speed>
</trkpt>
<trkpt lat="21.069019" lon="105.785370">
<ele>60.804230</ele>
<time>2011-04-29T22:45:40Z</time>
<desc>lat.=21.069019, lon.=105.785370, Alt.=60.804230m. Speed=17.028000m/h.</desc>
<speed>4.730000</speed>
</trkpt>
<trkpt lat="21.069380" lon="105.785446">
<ele>47.760284</ele>
<time>2011-04-29T22:45:45Z</time>
<desc>lat.=21.069380, lon.=105.785446, Alt.=47.760284m. Speed=29.304001m/h.</desc>
<speed>8.140000</speed>
</trkpt>
<trkpt lat="21.069767" lon="105.785469">
<ele>42.946808</ele>
<time>2011-04-29T22:45:50Z</time>
<desc>lat.=21.069767, lon.=105.785469, Alt.=42.946808m. Speed=27.468000m/h.</desc>
<speed>7.630000</speed>
</trkpt>
<trkpt lat="21.069981" lon="105.785492">
<ele>42.680206</ele>
<time>2011-04-29T22:45:55Z</time>
<desc>lat.=21.069981, lon.=105.785492, Alt.=42.680206m. Speed=8.136000m/h.</desc>
<speed>2.260000</speed>
</trkpt>
<trkpt lat="21.070129" lon="105.785515">
<ele>37.973175</ele>
<time>2011-04-29T22:46:00Z</time>
<desc>lat.=21.070129, lon.=105.785515, Alt.=37.973175m. Speed=11.844000m/h.</desc>
<speed>3.290000</speed>
</trkpt>
<trkpt lat="21.070446" lon="105.785553">
<ele>37.172394</ele>
<time>2011-04-29T22:46:05Z</time>
<desc>lat.=21.070446, lon.=105.785553, Alt.=37.172394m. Speed=25.416000m/h.</desc>
<speed>7.060000</speed>
</trkpt>
<trkpt lat="21.070848" lon="105.785576">
<ele>35.577667</ele>
<time>2011-04-29T22:46:10Z</time>
<desc>lat.=21.070848, lon.=105.785576, Alt.=35.577667m. Speed=33.480000m/h.</desc>
<speed>9.300000</speed>
</trkpt>
<trkpt lat="21.071386" lon="105.785629">
<ele>34.907745</ele>
<time>2011-04-29T22:46:15Z</time>
<desc>lat.=21.071386, lon.=105.785629, Alt.=34.907745m. Speed=42.624001m/h.</desc>
<speed>11.840000</speed>
</trkpt>
<trkpt lat="21.071918" lon="105.785675">
<ele>35.433136</ele>
<time>2011-04-29T22:46:20Z</time>
<desc>lat.=21.071918, lon.=105.785675, Alt.=35.433136m. Speed=37.908001m/h.</desc>
<speed>10.530000</speed>
</trkpt>
<trkpt lat="21.072449" lon="105.785683">
<ele>34.743683</ele>
<time>2011-04-29T22:46:25Z</time>
<desc>lat.=21.072449, lon.=105.785683, Alt.=34.743683m. Speed=38.484001m/h.</desc>
<speed>10.690000</speed>
</trkpt>
<trkpt lat="21.072954" lon="105.785706">
<ele>41.585480</ele>
<time>2011-04-29T22:46:30Z</time>
<desc>lat.=21.072954, lon.=105.785706, Alt.=41.585480m. Speed=33.911999m/h.</desc>
<speed>9.420000</speed>
</trkpt>
<trkpt lat="21.073212" lon="105.785721">
<ele>46.462433</ele>
<time>2011-04-29T22:46:35Z</time>
<desc>lat.=21.073212, lon.=105.785721, Alt.=46.462433m. Speed=10.836000m/h.</desc>
<speed>3.010000</speed>
</trkpt>
<trkpt lat="21.073326" lon="105.785759">
<ele>45.053253</ele>
<time>2011-04-29T22:46:40Z</time>
<desc>lat.=21.073326, lon.=105.785759, Alt.=45.053253m. Speed=8.748000m/h.</desc>
<speed>2.430000</speed>
</trkpt>
<trkpt lat="21.073399" lon="105.785751">
<ele>44.952667</ele>
<time>2011-04-29T22:46:45Z</time>
<desc>lat.=21.073399, lon.=105.785751, Alt.=44.952667m. Speed=1.692000m/h.</desc>
<speed>0.470000</speed>
</trkpt>
<trkpt lat="21.073431" lon="105.785728">
<ele>44.139191</ele>
<time>2011-04-29T22:46:50Z</time>
<desc>lat.=21.073431, lon.=105.785728, Alt.=44.139191m. Speed=1.332000m/h.</desc>
<speed>0.370000</speed>
</trkpt>
<trkpt lat="21.073517" lon="105.785736">
<ele>43.384308</ele>
<time>2011-04-29T22:46:55Z</time>
<desc>lat.=21.073517, lon.=105.785736, Alt.=43.384308m. Speed=14.724000m/h.</desc>
<speed>4.090000</speed>
</trkpt>
<trkpt lat="21.073782" lon="105.785736">
<ele>42.582550</ele>
<time>2011-04-29T22:47:00Z</time>
<desc>lat.=21.073782, lon.=105.785736, Alt.=42.582550m. Speed=22.931999m/h.</desc>
<speed>6.370000</speed>
</trkpt>
<trkpt lat="21.074131" lon="105.785805">
<ele>47.925323</ele>
<time>2011-04-29T22:47:05Z</time>
<desc>lat.=21.074131, lon.=105.785805, Alt.=47.925323m. Speed=28.152000m/h.</desc>
<speed>7.820000</speed>
</trkpt>
<trkpt lat="21.074549" lon="105.785858">
<ele>49.614777</ele>
<time>2011-04-29T22:47:10Z</time>
<desc>lat.=21.074549, lon.=105.785858, Alt.=49.614777m. Speed=23.760000m/h.</desc>
<speed>6.600000</speed>
</trkpt>
<trkpt lat="21.074690" lon="105.785873">
<ele>49.386261</ele>
<time>2011-04-29T22:47:15Z</time>
<desc>lat.=21.074690, lon.=105.785873, Alt.=49.386261m. Speed=4.212000m/h.</desc>
<speed>1.170000</speed>
</trkpt>
<trkpt lat="21.074739" lon="105.785851">
<ele>49.174347</ele>
<time>2011-04-29T22:47:20Z</time>
<desc>lat.=21.074739, lon.=105.785851, Alt.=49.174347m. Speed=0.972000m/h.</desc>
<speed>0.270000</speed>
</trkpt>
<trkpt lat="21.074747" lon="105.785851">
<ele>49.987823</ele>
<time>2011-04-29T22:47:25Z</time>
<desc>lat.=21.074747, lon.=105.785851, Alt.=49.987823m. Speed=0.504000m/h.</desc>
<speed>0.140000</speed>
</trkpt>
<trkpt lat="21.074766" lon="105.785851">
<ele>50.158722</ele>
<time>2011-04-29T22:47:30Z</time>
<desc>lat.=21.074766, lon.=105.785851, Alt.=50.158722m. Speed=4.464000m/h.</desc>
<speed>1.240000</speed>
</trkpt>
<trkpt lat="21.075058" lon="105.785820">
<ele>51.178253</ele>
<time>2011-04-29T22:47:35Z</time>
<desc>lat.=21.075058, lon.=105.785820, Alt.=51.178253m. Speed=22.392000m/h.</desc>
<speed>6.220000</speed>
</trkpt>
<trkpt lat="21.075468" lon="105.785873">
<ele>50.848175</ele>
<time>2011-04-29T22:47:40Z</time>
<desc>lat.=21.075468, lon.=105.785873, Alt.=50.848175m. Speed=34.632000m/h.</desc>
<speed>9.620000</speed>
</trkpt>
<trkpt lat="21.075954" lon="105.785988">
<ele>52.724152</ele>
<time>2011-04-29T22:47:45Z</time>
<desc>lat.=21.075954, lon.=105.785988, Alt.=52.724152m. Speed=35.748001m/h.</desc>
<speed>9.930000</speed>
</trkpt>
<trkpt lat="21.076363" lon="105.786133">
<ele>52.201691</ele>
<time>2011-04-29T22:47:50Z</time>
<desc>lat.=21.076363, lon.=105.786133, Alt.=52.201691m. Speed=28.260000m/h.</desc>
<speed>7.850000</speed>
</trkpt>
<trkpt lat="21.076609" lon="105.786324">
<ele>49.864777</ele>
<time>2011-04-29T22:47:55Z</time>
<desc>lat.=21.076609, lon.=105.786324, Alt.=49.864777m. Speed=20.160000m/h.</desc>
<speed>5.600000</speed>
</trkpt>
<trkpt lat="21.076912" lon="105.786514">
<ele>49.357941</ele>
<time>2011-04-29T22:48:00Z</time>
<desc>lat.=21.076912, lon.=105.786514, Alt.=49.357941m. Speed=35.712002m/h.</desc>
<speed>9.920001</speed>
</trkpt>
<trkpt lat="21.077326" lon="105.786751">
<ele>49.270050</ele>
<time>2011-04-29T22:48:05Z</time>
<desc>lat.=21.077326, lon.=105.786751, Alt.=49.270050m. Speed=34.307999m/h.</desc>
<speed>9.530000</speed>
</trkpt>
<trkpt lat="21.077644" lon="105.786995">
<ele>45.719269</ele>
<time>2011-04-29T22:48:10Z</time>
<desc>lat.=21.077644, lon.=105.786995, Alt.=45.719269m. Speed=18.900000m/h.</desc>
<speed>5.250000</speed>
</trkpt>
<trkpt lat="21.077696" lon="105.787071">
<ele>42.483917</ele>
<time>2011-04-29T22:48:15Z</time>
<desc>lat.=21.077696, lon.=105.787071, Alt.=42.483917m. Speed=0.864000m/h.</desc>
<speed>0.240000</speed>
</trkpt>
<trkpt lat="21.077705" lon="105.787079">
<ele>42.018097</ele>
<time>2011-04-29T22:48:20Z</time>
<desc>lat.=21.077705, lon.=105.787079, Alt.=42.018097m. Speed=1.584000m/h.</desc>
<speed>0.440000</speed>
</trkpt>
<trkpt lat="21.077724" lon="105.787079">
<ele>42.110870</ele>
<time>2011-04-29T22:48:25Z</time>
<desc>lat.=21.077724, lon.=105.787079, Alt.=42.110870m. Speed=1.980000m/h.</desc>
<speed>0.550000</speed>
</trkpt>
<trkpt lat="21.077806" lon="105.787109">
<ele>43.104034</ele>
<time>2011-04-29T22:48:30Z</time>
<desc>lat.=21.077806, lon.=105.787109, Alt.=43.104034m. Speed=10.728000m/h.</desc>
<speed>2.980000</speed>
</trkpt>
<trkpt lat="21.077932" lon="105.787163">
<ele>38.854034</ele>
<time>2011-04-29T22:48:35Z</time>
<desc>lat.=21.077932, lon.=105.787163, Alt.=38.854034m. Speed=3.600000m/h.</desc>
<speed>1.000000</speed>
</trkpt>
<trkpt lat="21.077990" lon="105.787224">
<ele>33.266144</ele>
<time>2011-04-29T22:48:40Z</time>
<desc>lat.=21.077990, lon.=105.787224, Alt.=33.266144m. Speed=1.872000m/h.</desc>
<speed>0.520000</speed>
</trkpt>
<trkpt lat="21.077965" lon="105.787277">
<ele>31.296646</ele>
<time>2011-04-29T22:48:45Z</time>
<desc>lat.=21.077965, lon.=105.787277, Alt.=31.296646m. Speed=0.288000m/h.</desc>
<speed>0.080000</speed>
</trkpt>
<trkpt lat="21.077967" lon="105.787277">
<ele>31.105240</ele>
<time>2011-04-29T22:48:50Z</time>
<desc>lat.=21.077967, lon.=105.787277, Alt.=31.105240m. Speed=0.396000m/h.</desc>
<speed>0.110000</speed>
</trkpt>
<trkpt lat="21.077963" lon="105.787277">
<ele>30.990982</ele>
<time>2011-04-29T22:48:55Z</time>
<desc>lat.=21.077963, lon.=105.787277, Alt.=30.990982m. Speed=0.468000m/h.</desc>
<speed>0.130000</speed>
</trkpt>
<trkpt lat="21.077961" lon="105.787285">
<ele>30.942154</ele>
<time>2011-04-29T22:49:00Z</time>
<desc>lat.=21.077961, lon.=105.787285, Alt.=30.942154m. Speed=0.612000m/h.</desc>
<speed>0.170000</speed>
</trkpt>
<trkpt lat="21.077961" lon="105.787292">
<ele>30.899185</ele>
<time>2011-04-29T22:49:05Z</time>
<desc>lat.=21.077961, lon.=105.787292, Alt.=30.899185m. Speed=0.216000m/h.</desc>
<speed>0.060000</speed>
</trkpt>
<trkpt lat="21.077978" lon="105.787300">
<ele>30.691177</ele>
<time>2011-04-29T22:49:10Z</time>
<desc>lat.=21.077978, lon.=105.787300, Alt.=30.691177m. Speed=2.700000m/h.</desc>
<speed>0.750000</speed>
</trkpt>
<trkpt lat="21.078104" lon="105.787376">
<ele>30.240494</ele>
<time>2011-04-29T22:49:15Z</time>
<desc>lat.=21.078104, lon.=105.787376, Alt.=30.240494m. Speed=19.224001m/h.</desc>
<speed>5.340000</speed>
</trkpt>
<trkpt lat="21.078360" lon="105.787514">
<ele>29.741470</ele>
<time>2011-04-29T22:49:20Z</time>
<desc>lat.=21.078360, lon.=105.787514, Alt.=29.741470m. Speed=26.459999m/h.</desc>
<speed>7.350000</speed>
</trkpt>
<trkpt lat="21.078724" lon="105.787758">
<ele>26.517349</ele>
<time>2011-04-29T22:49:25Z</time>
<desc>lat.=21.078724, lon.=105.787758, Alt.=26.517349m. Speed=36.216000m/h.</desc>
<speed>10.060000</speed>
</trkpt>
<trkpt lat="21.079048" lon="105.787941">
<ele>24.717545</ele>
<time>2011-04-29T22:49:30Z</time>
<desc>lat.=21.079048, lon.=105.787941, Alt.=24.717545m. Speed=12.672000m/h.</desc>
<speed>3.520000</speed>
</trkpt>
<trkpt lat="21.079092" lon="105.787971">
<ele>22.945572</ele>
<time>2011-04-29T22:49:35Z</time>
<desc>lat.=21.079092, lon.=105.787971, Alt.=22.945572m. Speed=0.936000m/h.</desc>
<speed>0.260000</speed>
</trkpt>
<trkpt lat="21.079094" lon="105.787979">
<ele>22.531021</ele>
<time>2011-04-29T22:49:40Z</time>
<desc>lat.=21.079094, lon.=105.787979, Alt.=22.531021m. Speed=1.080000m/h.</desc>
<speed>0.300000</speed>
</trkpt>
<trkpt lat="21.079140" lon="105.787994">
<ele>22.611588</ele>
<time>2011-04-29T22:49:45Z</time>
<desc>lat.=21.079140, lon.=105.787994, Alt.=22.611588m. Speed=9.684000m/h.</desc>
<speed>2.690000</speed>
</trkpt>
<trkpt lat="21.079327" lon="105.788078">
<ele>23.927017</ele>
<time>2011-04-29T22:49:50Z</time>
<desc>lat.=21.079327, lon.=105.788078, Alt.=23.927017m. Speed=20.016001m/h.</desc>
<speed>5.560000</speed>
</trkpt>
<trkpt lat="21.079710" lon="105.788216">
<ele>22.846451</ele>
<time>2011-04-29T22:49:55Z</time>
<desc>lat.=21.079710, lon.=105.788216, Alt.=22.846451m. Speed=35.459999m/h.</desc>
<speed>9.850000</speed>
</trkpt>
<trkpt lat="21.080294" lon="105.788368">
<ele>22.604752</ele>
<time>2011-04-29T22:50:00Z</time>
<desc>lat.=21.080294, lon.=105.788368, Alt.=22.604752m. Speed=42.264000m/h.</desc>
<speed>11.740000</speed>
</trkpt>
<trkpt lat="21.080854" lon="105.788467">
<ele>16.823502</ele>
<time>2011-04-29T22:50:05Z</time>
<desc>lat.=21.080854, lon.=105.788467, Alt.=16.823502m. Speed=43.200001m/h.</desc>
<speed>12.000000</speed>
</trkpt>
<trkpt lat="21.081444" lon="105.788445">
<ele>16.717056</ele>
<time>2011-04-29T22:50:10Z</time>
<desc>lat.=21.081444, lon.=105.788445, Alt.=16.717056m. Speed=44.820000m/h.</desc>
<speed>12.450000</speed>
</trkpt>
<trkpt lat="21.082016" lon="105.788376">
<ele>15.287971</ele>
<time>2011-04-29T22:50:15Z</time>
<desc>lat.=21.082016, lon.=105.788376, Alt.=15.287971m. Speed=46.223999m/h.</desc>
<speed>12.840000</speed>
</trkpt>
<trkpt lat="21.082640" lon="105.788208">
<ele>15.898811</ele>
<time>2011-04-29T22:50:20Z</time>
<desc>lat.=21.082640, lon.=105.788208, Alt.=15.898811m. Speed=50.220001m/h.</desc>
<speed>13.950000</speed>
</trkpt>
<trkpt lat="21.083275" lon="105.788002">
<ele>13.946663</ele>
<time>2011-04-29T22:50:25Z</time>
<desc>lat.=21.083275, lon.=105.788002, Alt.=13.946663m. Speed=59.076000m/h.</desc>
<speed>16.410000</speed>
</trkpt>
<trkpt lat="21.083954" lon="105.787781">
<ele>12.030159</ele>
<time>2011-04-29T22:50:30Z</time>
<desc>lat.=21.083954, lon.=105.787781, Alt.=12.030159m. Speed=54.827999m/h.</desc>
<speed>15.230000</speed>
</trkpt>
<trkpt lat="21.084597" lon="105.787575">
<ele>11.981087</ele>
<time>2011-04-29T22:50:35Z</time>
<desc>lat.=21.084597, lon.=105.787575, Alt.=11.981087m. Speed=50.040001m/h.</desc>
<speed>13.900000</speed>
</trkpt>
<trkpt lat="21.085209" lon="105.787346">
<ele>13.315315</ele>
<time>2011-04-29T22:50:40Z</time>
<desc>lat.=21.085209, lon.=105.787346, Alt.=13.315315m. Speed=52.487999m/h.</desc>
<speed>14.580000</speed>
</trkpt>
<trkpt lat="21.085867" lon="105.787125">
<ele>14.380745</ele>
<time>2011-04-29T22:50:45Z</time>
<desc>lat.=21.085867, lon.=105.787125, Alt.=14.380745m. Speed=53.712002m/h.</desc>
<speed>14.920001</speed>
</trkpt>
<trkpt lat="21.086533" lon="105.786888">
<ele>16.211197</ele>
<time>2011-04-29T22:50:50Z</time>
<desc>lat.=21.086533, lon.=105.786888, Alt.=16.211197m. Speed=57.779999m/h.</desc>
<speed>16.050000</speed>
</trkpt>
<trkpt lat="21.087214" lon="105.786667">
<ele>17.727310</ele>
<time>2011-04-29T22:50:55Z</time>
<desc>lat.=21.087214, lon.=105.786667, Alt.=17.727310m. Speed=56.015999m/h.</desc>
<speed>15.560000</speed>
</trkpt>
<trkpt lat="21.087910" lon="105.786461">
<ele>20.908951</ele>
<time>2011-04-29T22:51:00Z</time>
<desc>lat.=21.087910, lon.=105.786461, Alt.=20.908951m. Speed=55.007999m/h.</desc>
<speed>15.280000</speed>
</trkpt>
<trkpt lat="21.088573" lon="105.786224">
<ele>23.552994</ele>
<time>2011-04-29T22:51:05Z</time>
<desc>lat.=21.088573, lon.=105.786224, Alt.=23.552994m. Speed=53.208000m/h.</desc>
<speed>14.780000</speed>
</trkpt>
<trkpt lat="21.089218" lon="105.786003">
<ele>26.688736</ele>
<time>2011-04-29T22:51:10Z</time>
<desc>lat.=21.089218, lon.=105.786003, Alt.=26.688736m. Speed=51.948002m/h.</desc>
<speed>14.430001</speed>
</trkpt>
<trkpt lat="21.089874" lon="105.785889">
<ele>29.468033</ele>
<time>2011-04-29T22:51:15Z</time>
<desc>lat.=21.089874, lon.=105.785889, Alt.=29.468033m. Speed=51.335999m/h.</desc>
<speed>14.260000</speed>
</trkpt>
<trkpt lat="21.090557" lon="105.785881">
<ele>29.586197</ele>
<time>2011-04-29T22:51:20Z</time>
<desc>lat.=21.090557, lon.=105.785881, Alt.=29.586197m. Speed=54.108002m/h.</desc>
<speed>15.030000</speed>
</trkpt>
<trkpt lat="21.091249" lon="105.785934">
<ele>28.874283</ele>
<time>2011-04-29T22:51:25Z</time>
<desc>lat.=21.091249, lon.=105.785934, Alt.=28.874283m. Speed=58.787998m/h.</desc>
<speed>16.329999</speed>
</trkpt>
<trkpt lat="21.092001" lon="105.785995">
<ele>29.011978</ele>
<time>2011-04-29T22:51:30Z</time>
<desc>lat.=21.092001, lon.=105.785995, Alt.=29.011978m. Speed=59.652000m/h.</desc>
<speed>16.570000</speed>
</trkpt>
<trkpt lat="21.092768" lon="105.786057">
<ele>27.523697</ele>
<time>2011-04-29T22:51:35Z</time>
<desc>lat.=21.092768, lon.=105.786057, Alt.=27.523697m. Speed=60.911999m/h.</desc>
<speed>16.920000</speed>
</trkpt>
<trkpt lat="21.093506" lon="105.786125">
<ele>27.935806</ele>
<time>2011-04-29T22:51:40Z</time>
<desc>lat.=21.093506, lon.=105.786125, Alt.=27.935806m. Speed=58.787998m/h.</desc>
<speed>16.329999</speed>
</trkpt>
<trkpt lat="21.094254" lon="105.786179">
<ele>24.936783</ele>
<time>2011-04-29T22:51:45Z</time>
<desc>lat.=21.094254, lon.=105.786179, Alt.=24.936783m. Speed=59.436001m/h.</desc>
<speed>16.510000</speed>
</trkpt>
<trkpt lat="21.095001" lon="105.786240">
<ele>27.615005</ele>
<time>2011-04-29T22:51:50Z</time>
<desc>lat.=21.095001, lon.=105.786240, Alt.=27.615005m. Speed=58.931999m/h.</desc>
<speed>16.370000</speed>
</trkpt>
<trkpt lat="21.095778" lon="105.786308">
<ele>28.082779</ele>
<time>2011-04-29T22:51:55Z</time>
<desc>lat.=21.095778, lon.=105.786308, Alt.=28.082779m. Speed=63.035999m/h.</desc>
<speed>17.510000</speed>
</trkpt>
<trkpt lat="21.096592" lon="105.786369">
<ele>29.323990</ele>
<time>2011-04-29T22:52:00Z</time>
<desc>lat.=21.096592, lon.=105.786369, Alt.=29.323990m. Speed=66.959999m/h.</desc>
<speed>18.600000</speed>
</trkpt>
<trkpt lat="21.097454" lon="105.786438">
<ele>30.006119</ele>
<time>2011-04-29T22:52:05Z</time>
<desc>lat.=21.097454, lon.=105.786438, Alt.=30.006119m. Speed=68.400002m/h.</desc>
<speed>19.000000</speed>
</trkpt>
<trkpt lat="21.098318" lon="105.786507">
<ele>29.969986</ele>
<time>2011-04-29T22:52:10Z</time>
<desc>lat.=21.098318, lon.=105.786507, Alt.=29.969986m. Speed=68.795998m/h.</desc>
<speed>19.109999</speed>
</trkpt>
<trkpt lat="21.099138" lon="105.786568">
<ele>26.435318</ele>
<time>2011-04-29T22:52:15Z</time>
<desc>lat.=21.099138, lon.=105.786568, Alt.=26.435318m. Speed=65.160004m/h.</desc>
<speed>18.100001</speed>
</trkpt>
<trkpt lat="21.099953" lon="105.786613">
<ele>24.980240</ele>
<time>2011-04-29T22:52:20Z</time>
<desc>lat.=21.099953, lon.=105.786613, Alt.=24.980240m. Speed=63.000000m/h.</desc>
<speed>17.500000</speed>
</trkpt>
<trkpt lat="21.100754" lon="105.786659">
<ele>24.189224</ele>
<time>2011-04-29T22:52:25Z</time>
<desc>lat.=21.100754, lon.=105.786659, Alt.=24.189224m. Speed=62.243999m/h.</desc>
<speed>17.290000</speed>
</trkpt>
<trkpt lat="21.101534" lon="105.786751">
<ele>24.361099</ele>
<time>2011-04-29T22:52:30Z</time>
<desc>lat.=21.101534, lon.=105.786751, Alt.=24.361099m. Speed=63.287998m/h.</desc>
<speed>17.579999</speed>
</trkpt>
<trkpt lat="21.102314" lon="105.786797">
<ele>24.933365</ele>
<time>2011-04-29T22:52:35Z</time>
<desc>lat.=21.102314, lon.=105.786797, Alt.=24.933365m. Speed=58.860001m/h.</desc>
<speed>16.350000</speed>
</trkpt>
<trkpt lat="21.102974" lon="105.786850">
<ele>27.961197</ele>
<time>2011-04-29T22:52:40Z</time>
<desc>lat.=21.102974, lon.=105.786850, Alt.=27.961197m. Speed=52.667999m/h.</desc>
<speed>14.630000</speed>
</trkpt>
<trkpt lat="21.103592" lon="105.786896">
<ele>29.780533</ele>
<time>2011-04-29T22:52:45Z</time>
<desc>lat.=21.103592, lon.=105.786896, Alt.=29.780533m. Speed=44.136002m/h.</desc>
<speed>12.260000</speed>
</trkpt>
<trkpt lat="21.104122" lon="105.786934">
<ele>28.649673</ele>
<time>2011-04-29T22:52:50Z</time>
<desc>lat.=21.104122, lon.=105.786934, Alt.=28.649673m. Speed=42.768002m/h.</desc>
<speed>11.880000</speed>
</trkpt>
<trkpt lat="21.104702" lon="105.786972">
<ele>26.389420</ele>
<time>2011-04-29T22:52:55Z</time>
<desc>lat.=21.104702, lon.=105.786972, Alt.=26.389420m. Speed=51.084000m/h.</desc>
<speed>14.190000</speed>
</trkpt>
<trkpt lat="21.105389" lon="105.787018">
<ele>22.525162</ele>
<time>2011-04-29T22:53:00Z</time>
<desc>lat.=21.105389, lon.=105.787018, Alt.=22.525162m. Speed=57.528000m/h.</desc>
<speed>15.980000</speed>
</trkpt>
<trkpt lat="21.106131" lon="105.787064">
<ele>21.267838</ele>
<time>2011-04-29T22:53:05Z</time>
<desc>lat.=21.106131, lon.=105.787064, Alt.=21.267838m. Speed=58.535999m/h.</desc>
<speed>16.260000</speed>
</trkpt>
<trkpt lat="21.106878" lon="105.787132">
<ele>22.300064</ele>
<time>2011-04-29T22:53:10Z</time>
<desc>lat.=21.106878, lon.=105.787132, Alt.=22.300064m. Speed=58.967999m/h.</desc>
<speed>16.380000</speed>
</trkpt>
<trkpt lat="21.107536" lon="105.787163">
<ele>22.390396</ele>
<time>2011-04-29T22:53:15Z</time>
<desc>lat.=21.107536, lon.=105.787163, Alt.=22.390396m. Speed=46.728001m/h.</desc>
<speed>12.980000</speed>
</trkpt>
<trkpt lat="21.108084" lon="105.787102">
<ele>23.948990</ele>
<time>2011-04-29T22:53:20Z</time>
<desc>lat.=21.108084, lon.=105.787102, Alt.=23.948990m. Speed=44.568001m/h.</desc>
<speed>12.380000</speed>
</trkpt>
<trkpt lat="21.108669" lon="105.786949">
<ele>26.421646</ele>
<time>2011-04-29T22:53:25Z</time>
<desc>lat.=21.108669, lon.=105.786949, Alt.=26.421646m. Speed=50.327999m/h.</desc>
<speed>13.980000</speed>
</trkpt>
<trkpt lat="21.109268" lon="105.786743">
<ele>26.930435</ele>
<time>2011-04-29T22:53:30Z</time>
<desc>lat.=21.109268, lon.=105.786743, Alt.=26.930435m. Speed=49.464001m/h.</desc>
<speed>13.740000</speed>
</trkpt>
<trkpt lat="21.109831" lon="105.786583">
<ele>26.656998</ele>
<time>2011-04-29T22:53:35Z</time>
<desc>lat.=21.109831, lon.=105.786583, Alt.=26.656998m. Speed=45.324001m/h.</desc>
<speed>12.590000</speed>
</trkpt>
<trkpt lat="21.110392" lon="105.786377">
<ele>23.238052</ele>
<time>2011-04-29T22:53:40Z</time>
<desc>lat.=21.110392, lon.=105.786377, Alt.=23.238052m. Speed=51.012001m/h.</desc>
<speed>14.170000</speed>
</trkpt>
<trkpt lat="21.111036" lon="105.786148">
<ele>23.162369</ele>
<time>2011-04-29T22:53:45Z</time>
<desc>lat.=21.111036, lon.=105.786148, Alt.=23.162369m. Speed=52.776001m/h.</desc>
<speed>14.660000</speed>
</trkpt>
<trkpt lat="21.111658" lon="105.785942">
<ele>20.394791</ele>
<time>2011-04-29T22:53:50Z</time>
<desc>lat.=21.111658, lon.=105.785942, Alt.=20.394791m. Speed=51.372002m/h.</desc>
<speed>14.270000</speed>
</trkpt>
<trkpt lat="21.112267" lon="105.785736">
<ele>16.994400</ele>
<time>2011-04-29T22:53:55Z</time>
<desc>lat.=21.112267, lon.=105.785736, Alt.=16.994400m. Speed=49.428001m/h.</desc>
<speed>13.730000</speed>
</trkpt>
<trkpt lat="21.112850" lon="105.785530">
<ele>16.011978</ele>
<time>2011-04-29T22:54:00Z</time>
<desc>lat.=21.112850, lon.=105.785530, Alt.=16.011978m. Speed=46.692001m/h.</desc>
<speed>12.970000</speed>
</trkpt>
<trkpt lat="21.113434" lon="105.785355">
<ele>15.027229</ele>
<time>2011-04-29T22:54:05Z</time>
<desc>lat.=21.113434, lon.=105.785355, Alt.=15.027229m. Speed=50.400002m/h.</desc>
<speed>14.000000</speed>
</trkpt>
<trkpt lat="21.114023" lon="105.785172">
<ele>12.573128</ele>
<time>2011-04-29T22:54:10Z</time>
<desc>lat.=21.114023, lon.=105.785172, Alt.=12.573128m. Speed=46.296001m/h.</desc>
<speed>12.860000</speed>
</trkpt>
<trkpt lat="21.114542" lon="105.785011">
<ele>8.359505</ele>
<time>2011-04-29T22:54:15Z</time>
<desc>lat.=21.114542, lon.=105.785011, Alt.=8.359505m. Speed=41.292000m/h.</desc>
<speed>11.470000</speed>
</trkpt>
<trkpt lat="21.114958" lon="105.784866">
<ele>8.233772</ele>
<time>2011-04-29T22:54:20Z</time>
<desc>lat.=21.114958, lon.=105.784866, Alt.=8.233772m. Speed=33.192001m/h.</desc>
<speed>9.220000</speed>
</trkpt>
<trkpt lat="21.115349" lon="105.784744">
<ele>6.219791</ele>
<time>2011-04-29T22:54:25Z</time>
<desc>lat.=21.115349, lon.=105.784744, Alt.=6.219791m. Speed=33.624001m/h.</desc>
<speed>9.340000</speed>
</trkpt>
<trkpt lat="21.115812" lon="105.784592">
<ele>5.899113</ele>
<time>2011-04-29T22:54:30Z</time>
<desc>lat.=21.115812, lon.=105.784592, Alt.=5.899113m. Speed=42.408001m/h.</desc>
<speed>11.780000</speed>
</trkpt>
<trkpt lat="21.116318" lon="105.784409">
<ele>8.379524</ele>
<time>2011-04-29T22:54:35Z</time>
<desc>lat.=21.116318, lon.=105.784409, Alt.=8.379524m. Speed=41.147999m/h.</desc>
<speed>11.430000</speed>
</trkpt>
<trkpt lat="21.116856" lon="105.784233">
<ele>8.360237</ele>
<time>2011-04-29T22:54:40Z</time>
<desc>lat.=21.116856, lon.=105.784233, Alt.=8.360237m. Speed=48.779999m/h.</desc>
<speed>13.550000</speed>
</trkpt>
<trkpt lat="21.117489" lon="105.784019">
<ele>8.081917</ele>
<time>2011-04-29T22:54:45Z</time>
<desc>lat.=21.117489, lon.=105.784019, Alt.=8.081917m. Speed=54.108002m/h.</desc>
<speed>15.030000</speed>
</trkpt>
<trkpt lat="21.118071" lon="105.783829">
<ele>10.446663</ele>
<time>2011-04-29T22:54:50Z</time>
<desc>lat.=21.118071, lon.=105.783829, Alt.=10.446663m. Speed=46.692001m/h.</desc>
<speed>12.970000</speed>
</trkpt>
<trkpt lat="21.118559" lon="105.783653">
<ele>9.961311</ele>
<time>2011-04-29T22:54:55Z</time>
<desc>lat.=21.118559, lon.=105.783653, Alt.=9.961311m. Speed=39.240002m/h.</desc>
<speed>10.900000</speed>
</trkpt>
<trkpt lat="21.119036" lon="105.783485">
<ele>9.724983</ele>
<time>2011-04-29T22:55:00Z</time>
<desc>lat.=21.119036, lon.=105.783485, Alt.=9.724983m. Speed=41.292000m/h.</desc>
<speed>11.470000</speed>
</trkpt>
<trkpt lat="21.119600" lon="105.783310">
<ele>14.033089</ele>
<time>2011-04-29T22:55:05Z</time>
<desc>lat.=21.119600, lon.=105.783310, Alt.=14.033089m. Speed=47.015999m/h.</desc>
<speed>13.060000</speed>
</trkpt>
<trkpt lat="21.120207" lon="105.783104">
<ele>14.753792</ele>
<time>2011-04-29T22:55:10Z</time>
<desc>lat.=21.120207, lon.=105.783104, Alt.=14.753792m. Speed=50.004002m/h.</desc>
<speed>13.890000</speed>
</trkpt>
<trkpt lat="21.120823" lon="105.782890">
<ele>13.532112</ele>
<time>2011-04-29T22:55:15Z</time>
<desc>lat.=21.120823, lon.=105.782890, Alt.=13.532112m. Speed=51.731998m/h.</desc>
<speed>14.370000</speed>
</trkpt>
<trkpt lat="21.121460" lon="105.782654">
<ele>12.843147</ele>
<time>2011-04-29T22:55:20Z</time>
<desc>lat.=21.121460, lon.=105.782654, Alt.=12.843147m. Speed=55.476002m/h.</desc>
<speed>15.410000</speed>
</trkpt>
<trkpt lat="21.122141" lon="105.782440">
<ele>11.406624</ele>
<time>2011-04-29T22:55:25Z</time>
<desc>lat.=21.122141, lon.=105.782440, Alt.=11.406624m. Speed=58.139999m/h.</desc>
<speed>16.150000</speed>
</trkpt>
<trkpt lat="21.122871" lon="105.782219">
<ele>12.862434</ele>
<time>2011-04-29T22:55:30Z</time>
<desc>lat.=21.122871, lon.=105.782219, Alt.=12.862434m. Speed=59.759998m/h.</desc>
<speed>16.600000</speed>
</trkpt>
<trkpt lat="21.123596" lon="105.781975">
<ele>14.396126</ele>
<time>2011-04-29T22:55:35Z</time>
<desc>lat.=21.123596, lon.=105.781975, Alt.=14.396126m. Speed=57.383999m/h.</desc>
<speed>15.940000</speed>
</trkpt>
<trkpt lat="21.124302" lon="105.781738">
<ele>16.829361</ele>
<time>2011-04-29T22:55:40Z</time>
<desc>lat.=21.124302, lon.=105.781738, Alt.=16.829361m. Speed=58.535999m/h.</desc>
<speed>16.260000</speed>
</trkpt>
<trkpt lat="21.124964" lon="105.781517">
<ele>18.825455</ele>
<time>2011-04-29T22:55:45Z</time>
<desc>lat.=21.124964, lon.=105.781517, Alt.=18.825455m. Speed=54.863998m/h.</desc>
<speed>15.240000</speed>
</trkpt>
<trkpt lat="21.125597" lon="105.781303">
<ele>20.927017</ele>
<time>2011-04-29T22:55:50Z</time>
<desc>lat.=21.125597, lon.=105.781303, Alt.=20.927017m. Speed=52.560001m/h.</desc>
<speed>14.600000</speed>
</trkpt>
<trkpt lat="21.126240" lon="105.781090">
<ele>21.338638</ele>
<time>2011-04-29T22:55:55Z</time>
<desc>lat.=21.126240, lon.=105.781090, Alt.=21.338638m. Speed=53.099998m/h.</desc>
<speed>14.750000</speed>
</trkpt>
<trkpt lat="21.126848" lon="105.780876">
<ele>20.509048</ele>
<time>2011-04-29T22:56:00Z</time>
<desc>lat.=21.126848, lon.=105.780876, Alt.=20.509048m. Speed=50.868000m/h.</desc>
<speed>14.130000</speed>
</trkpt>
<trkpt lat="21.127451" lon="105.780678">
<ele>21.856705</ele>
<time>2011-04-29T22:56:05Z</time>
<desc>lat.=21.127451, lon.=105.780678, Alt.=21.856705m. Speed=49.248001m/h.</desc>
<speed>13.680000</speed>
</trkpt>
<trkpt lat="21.128050" lon="105.780464">
<ele>18.036392</ele>
<time>2011-04-29T22:56:10Z</time>
<desc>lat.=21.128050, lon.=105.780464, Alt.=18.036392m. Speed=45.216000m/h.</desc>
<speed>12.560000</speed>
</trkpt>
<trkpt lat="21.128525" lon="105.780319">
<ele>12.111458</ele>
<time>2011-04-29T22:56:15Z</time>
<desc>lat.=21.128525, lon.=105.780319, Alt.=12.111458m. Speed=39.995998m/h.</desc>
<speed>11.110000</speed>
</trkpt>
<trkpt lat="21.129023" lon="105.780151">
<ele>10.730110</ele>
<time>2011-04-29T22:56:20Z</time>
<desc>lat.=21.129023, lon.=105.780151, Alt.=10.730110m. Speed=46.476002m/h.</desc>
<speed>12.910000</speed>
</trkpt>
<trkpt lat="21.129534" lon="105.779984">
<ele>11.517464</ele>
<time>2011-04-29T22:56:25Z</time>
<desc>lat.=21.129534, lon.=105.779984, Alt.=11.517464m. Speed=38.880001m/h.</desc>
<speed>10.800000</speed>
</trkpt>
<trkpt lat="21.130016" lon="105.779808">
<ele>10.780891</ele>
<time>2011-04-29T22:56:30Z</time>
<desc>lat.=21.130016, lon.=105.779808, Alt.=10.780891m. Speed=44.495998m/h.</desc>
<speed>12.360000</speed>
</trkpt>
<trkpt lat="21.130589" lon="105.779594">
<ele>9.322639</ele>
<time>2011-04-29T22:56:35Z</time>
<desc>lat.=21.130589, lon.=105.779594, Alt.=9.322639m. Speed=50.327999m/h.</desc>
<speed>13.980000</speed>
</trkpt>
<trkpt lat="21.131157" lon="105.779396">
<ele>13.746468</ele>
<time>2011-04-29T22:56:40Z</time>
<desc>lat.=21.131157, lon.=105.779396, Alt.=13.746468m. Speed=44.675999m/h.</desc>
<speed>12.410000</speed>
</trkpt>
<trkpt lat="21.131666" lon="105.779251">
<ele>12.597054</ele>
<time>2011-04-29T22:56:45Z</time>
<desc>lat.=21.131666, lon.=105.779251, Alt.=12.597054m. Speed=33.984001m/h.</desc>
<speed>9.440000</speed>
</trkpt>
<trkpt lat="21.131994" lon="105.779144">
<ele>12.576790</ele>
<time>2011-04-29T22:56:50Z</time>
<desc>lat.=21.131994, lon.=105.779144, Alt.=12.576790m. Speed=26.747999m/h.</desc>
<speed>7.430000</speed>
</trkpt>
<trkpt lat="21.132399" lon="105.778999">
<ele>11.626595</ele>
<time>2011-04-29T22:56:55Z</time>
<desc>lat.=21.132399, lon.=105.778999, Alt.=11.626595m. Speed=41.004002m/h.</desc>
<speed>11.390000</speed>
</trkpt>
<trkpt lat="21.132906" lon="105.778839">
<ele>14.095345</ele>
<time>2011-04-29T22:57:00Z</time>
<desc>lat.=21.132906, lon.=105.778839, Alt.=14.095345m. Speed=46.512001m/h.</desc>
<speed>12.920000</speed>
</trkpt>
<trkpt lat="21.133532" lon="105.778679">
<ele>16.010513</ele>
<time>2011-04-29T22:57:05Z</time>
<desc>lat.=21.133532, lon.=105.778679, Alt.=16.010513m. Speed=53.855999m/h.</desc>
<speed>14.960000</speed>
</trkpt>
<trkpt lat="21.134283" lon="105.778542">
<ele>12.984505</ele>
<time>2011-04-29T22:57:10Z</time>
<desc>lat.=21.134283, lon.=105.778542, Alt.=12.984505m. Speed=58.212002m/h.</desc>
<speed>16.170001</speed>
</trkpt>
<trkpt lat="21.135080" lon="105.778427">
<ele>12.980110</ele>
<time>2011-04-29T22:57:15Z</time>
<desc>lat.=21.135080, lon.=105.778427, Alt.=12.980110m. Speed=62.928001m/h.</desc>
<speed>17.480000</speed>
</trkpt>
<trkpt lat="21.135860" lon="105.778397">
<ele>12.163704</ele>
<time>2011-04-29T22:57:20Z</time>
<desc>lat.=21.135860, lon.=105.778397, Alt.=12.163704m. Speed=55.692001m/h.</desc>
<speed>15.470000</speed>
</trkpt>
<trkpt lat="21.136524" lon="105.778412">
<ele>11.508186</ele>
<time>2011-04-29T22:57:25Z</time>
<desc>lat.=21.136524, lon.=105.778412, Alt.=11.508186m. Speed=50.220001m/h.</desc>
<speed>13.950000</speed>
</trkpt>
<trkpt lat="21.137144" lon="105.778442">
<ele>14.934700</ele>
<time>2011-04-29T22:57:30Z</time>
<desc>lat.=21.137144, lon.=105.778442, Alt.=14.934700m. Speed=46.332001m/h.</desc>
<speed>12.870000</speed>
</trkpt>
<trkpt lat="21.137714" lon="105.778465">
<ele>16.038345</ele>
<time>2011-04-29T22:57:35Z</time>
<desc>lat.=21.137714, lon.=105.778465, Alt.=16.038345m. Speed=44.675999m/h.</desc>
<speed>12.410000</speed>
</trkpt>
<trkpt lat="21.138262" lon="105.778473">
<ele>16.005142</ele>
<time>2011-04-29T22:57:40Z</time>
<desc>lat.=21.138262, lon.=105.778473, Alt.=16.005142m. Speed=46.296001m/h.</desc>
<speed>12.860000</speed>
</trkpt>
<trkpt lat="21.138895" lon="105.778488">
<ele>14.671272</ele>
<time>2011-04-29T22:57:45Z</time>
<desc>lat.=21.138895, lon.=105.778488, Alt.=14.671272m. Speed=54.216000m/h.</desc>
<speed>15.060000</speed>
</trkpt>
<trkpt lat="21.139629" lon="105.778519">
<ele>14.049690</ele>
<time>2011-04-29T22:57:50Z</time>
<desc>lat.=21.139629, lon.=105.778519, Alt.=14.049690m. Speed=62.712002m/h.</desc>
<speed>17.420001</speed>
</trkpt>
<trkpt lat="21.140472" lon="105.778542">
<ele>13.311653</ele>
<time>2011-04-29T22:57:55Z</time>
<desc>lat.=21.140472, lon.=105.778542, Alt.=13.311653m. Speed=66.132004m/h.</desc>
<speed>18.370001</speed>
</trkpt>
<trkpt lat="21.141335" lon="105.778595">
<ele>10.434700</ele>
<time>2011-04-29T22:58:00Z</time>
<desc>lat.=21.141335, lon.=105.778595, Alt.=10.434700m. Speed=71.028000m/h.</desc>
<speed>19.730000</speed>
</trkpt>
<trkpt lat="21.142233" lon="105.778633">
<ele>8.903206</ele>
<time>2011-04-29T22:58:05Z</time>
<desc>lat.=21.142233, lon.=105.778633, Alt.=8.903206m. Speed=70.596001m/h.</desc>
<speed>19.610000</speed>
</trkpt>
<trkpt lat="21.143148" lon="105.778671">
<ele>9.640999</ele>
<time>2011-04-29T22:58:10Z</time>
<desc>lat.=21.143148, lon.=105.778671, Alt.=9.640999m. Speed=71.531998m/h.</desc>
<speed>19.869999</speed>
</trkpt>
<trkpt lat="21.144053" lon="105.778732">
<ele>10.216438</ele>
<time>2011-04-29T22:58:15Z</time>
<desc>lat.=21.144053, lon.=105.778732, Alt.=10.216438m. Speed=72.720001m/h.</desc>
<speed>20.200000</speed>
</trkpt>
<trkpt lat="21.144974" lon="105.778770">
<ele>10.015755</ele>
<time>2011-04-29T22:58:20Z</time>
<desc>lat.=21.144974, lon.=105.778770, Alt.=10.015755m. Speed=72.792000m/h.</desc>
<speed>20.220000</speed>
</trkpt>
<trkpt lat="21.145872" lon="105.778816">
<ele>12.056038</ele>
<time>2011-04-29T22:58:25Z</time>
<desc>lat.=21.145872, lon.=105.778816, Alt.=12.056038m. Speed=69.192001m/h.</desc>
<speed>19.220000</speed>
</trkpt>
<trkpt lat="21.146734" lon="105.778839">
<ele>12.225960</ele>
<time>2011-04-29T22:58:30Z</time>
<desc>lat.=21.146734, lon.=105.778839, Alt.=12.225960m. Speed=69.084000m/h.</desc>
<speed>19.190000</speed>
</trkpt>
<trkpt lat="21.147579" lon="105.778893">
<ele>9.950569</ele>
<time>2011-04-29T22:58:35Z</time>
<desc>lat.=21.147579, lon.=105.778893, Alt.=9.950569m. Speed=64.115997m/h.</desc>
<speed>17.809999</speed>
</trkpt>
<trkpt lat="21.148346" lon="105.778938">
<ele>10.327278</ele>
<time>2011-04-29T22:58:40Z</time>
<desc>lat.=21.148346, lon.=105.778938, Alt.=10.327278m. Speed=61.236000m/h.</desc>
<speed>17.010000</speed>
</trkpt>
<trkpt lat="21.149107" lon="105.778961">
<ele>12.886848</ele>
<time>2011-04-29T22:58:45Z</time>
<desc>lat.=21.149107, lon.=105.778961, Alt.=12.886848m. Speed=60.551998m/h.</desc>
<speed>16.819999</speed>
</trkpt>
<trkpt lat="21.149857" lon="105.778992">
<ele>13.005501</ele>
<time>2011-04-29T22:58:50Z</time>
<desc>lat.=21.149857, lon.=105.778992, Alt.=13.005501m. Speed=57.023998m/h.</desc>
<speed>15.840000</speed>
</trkpt>
<trkpt lat="21.150530" lon="105.779022">
<ele>13.041389</ele>
<time>2011-04-29T22:58:55Z</time>
<desc>lat.=21.150530, lon.=105.779022, Alt.=13.041389m. Speed=51.335999m/h.</desc>
<speed>14.260000</speed>
</trkpt>
<trkpt lat="21.151199" lon="105.779045">
<ele>15.848518</ele>
<time>2011-04-29T22:59:00Z</time>
<desc>lat.=21.151199, lon.=105.779045, Alt.=15.848518m. Speed=56.952000m/h.</desc>
<speed>15.820000</speed>
</trkpt>
<trkpt lat="21.151941" lon="105.779068">
<ele>16.869400</ele>
<time>2011-04-29T22:59:05Z</time>
<desc>lat.=21.151941, lon.=105.779068, Alt.=16.869400m. Speed=59.327999m/h.</desc>
<speed>16.480000</speed>
</trkpt>
<trkpt lat="21.152679" lon="105.779114">
<ele>15.993538</ele>
<time>2011-04-29T22:59:10Z</time>
<desc>lat.=21.152679, lon.=105.779114, Alt.=15.993538m. Speed=55.368000m/h.</desc>
<speed>15.380000</speed>
</trkpt>
<trkpt lat="21.153351" lon="105.779144">
<ele>16.213638</ele>
<time>2011-04-29T22:59:15Z</time>
<desc>lat.=21.153351, lon.=105.779144, Alt.=16.213638m. Speed=53.099998m/h.</desc>
<speed>14.750000</speed>
</trkpt>
<trkpt lat="21.153936" lon="105.779167">
<ele>14.545052</ele>
<time>2011-04-29T22:59:20Z</time>
<desc>lat.=21.153936, lon.=105.779167, Alt.=14.545052m. Speed=42.155998m/h.</desc>
<speed>11.710000</speed>
</trkpt>
<trkpt lat="21.154526" lon="105.779213">
<ele>14.318733</ele>
<time>2011-04-29T22:59:25Z</time>
<desc>lat.=21.154526, lon.=105.779213, Alt.=14.318733m. Speed=50.363998m/h.</desc>
<speed>13.990000</speed>
</trkpt>
<trkpt lat="21.155214" lon="105.779243">
<ele>14.395638</ele>
<time>2011-04-29T22:59:30Z</time>
<desc>lat.=21.155214, lon.=105.779243, Alt.=14.395638m. Speed=58.931999m/h.</desc>
<speed>16.370000</speed>
</trkpt>
<trkpt lat="21.155996" lon="105.779266">
<ele>12.311165</ele>
<time>2011-04-29T22:59:35Z</time>
<desc>lat.=21.155996, lon.=105.779266, Alt.=12.311165m. Speed=62.424000m/h.</desc>
<speed>17.340000</speed>
</trkpt>
<trkpt lat="21.156839" lon="105.779305">
<ele>11.347054</ele>
<time>2011-04-29T22:59:40Z</time>
<desc>lat.=21.156839, lon.=105.779305, Alt.=11.347054m. Speed=66.059998m/h.</desc>
<speed>18.349999</speed>
</trkpt>
<trkpt lat="21.157658" lon="105.779343">
<ele>12.776985</ele>
<time>2011-04-29T22:59:45Z</time>
<desc>lat.=21.157658, lon.=105.779343, Alt.=12.776985m. Speed=64.043999m/h.</desc>
<speed>17.790000</speed>
</trkpt>
<trkpt lat="21.158401" lon="105.779366">
<ele>9.045052</ele>
<time>2011-04-29T22:59:50Z</time>
<desc>lat.=21.158401, lon.=105.779366, Alt.=9.045052m. Speed=52.740002m/h.</desc>
<speed>14.650000</speed>
</trkpt>
<trkpt lat="21.159006" lon="105.779388">
<ele>10.160530</ele>
<time>2011-04-29T22:59:55Z</time>
<desc>lat.=21.159006, lon.=105.779388, Alt.=10.160530m. Speed=47.231998m/h.</desc>
<speed>13.120000</speed>
</trkpt>
<trkpt lat="21.159523" lon="105.779419">
<ele>15.152473</ele>
<time>2011-04-29T23:00:00Z</time>
<desc>lat.=21.159523, lon.=105.779419, Alt.=15.152473m. Speed=34.560001m/h.</desc>
<speed>9.600000</speed>
</trkpt>
<trkpt lat="21.159864" lon="105.779449">
<ele>14.387581</ele>
<time>2011-04-29T23:00:05Z</time>
<desc>lat.=21.159864, lon.=105.779449, Alt.=14.387581m. Speed=19.872000m/h.</desc>
<speed>5.520000</speed>
</trkpt>
<trkpt lat="21.159956" lon="105.779465">
<ele>14.949348</ele>
<time>2011-04-29T23:00:10Z</time>
<desc>lat.=21.159956, lon.=105.779465, Alt.=14.949348m. Speed=1.152000m/h.</desc>
<speed>0.320000</speed>
</trkpt>
<trkpt lat="21.159985" lon="105.779457">
<ele>12.837776</ele>
<time>2011-04-29T23:00:15Z</time>
<desc>lat.=21.159985, lon.=105.779457, Alt.=12.837776m. Speed=0.396000m/h.</desc>
<speed>0.110000</speed>
</trkpt>
<trkpt lat="21.159986" lon="105.779457">
<ele>12.495491</ele>
<time>2011-04-29T23:00:20Z</time>
<desc>lat.=21.159986, lon.=105.779457, Alt.=12.495491m. Speed=0.072000m/h.</desc>
<speed>0.020000</speed>
</trkpt>
<trkpt lat="21.159986" lon="105.779457">
<ele>12.312630</ele>
<time>2011-04-29T23:00:25Z</time>
<desc>lat.=21.159986, lon.=105.779457, Alt.=12.312630m. Speed=0.252000m/h.</desc>
<speed>0.070000</speed>
</trkpt>
<trkpt lat="21.159994" lon="105.779465">
<ele>12.292122</ele>
<time>2011-04-29T23:00:30Z</time>
<desc>lat.=21.159994, lon.=105.779465, Alt.=12.292122m. Speed=4.536000m/h.</desc>
<speed>1.260000</speed>
</trkpt>
<trkpt lat="21.160227" lon="105.779480">
<ele>15.013802</ele>
<time>2011-04-29T23:00:35Z</time>
<desc>lat.=21.160227, lon.=105.779480, Alt.=15.013802m. Speed=22.535999m/h.</desc>
<speed>6.260000</speed>
</trkpt>
<trkpt lat="21.160580" lon="105.779488">
<ele>15.277962</ele>
<time>2011-04-29T23:00:40Z</time>
<desc>lat.=21.160580, lon.=105.779488, Alt.=15.277962m. Speed=31.392000m/h.</desc>
<speed>8.720000</speed>
</trkpt>
<trkpt lat="21.161083" lon="105.779510">
<ele>16.306900</ele>
<time>2011-04-29T23:00:45Z</time>
<desc>lat.=21.161083, lon.=105.779510, Alt.=16.306900m. Speed=42.804001m/h.</desc>
<speed>11.890000</speed>
</trkpt>
<trkpt lat="21.161650" lon="105.779503">
<ele>15.277718</ele>
<time>2011-04-29T23:00:50Z</time>
<desc>lat.=21.161650, lon.=105.779503, Alt.=15.277718m. Speed=47.124001m/h.</desc>
<speed>13.090000</speed>
</trkpt>
<trkpt lat="21.162302" lon="105.779518">
<ele>15.949593</ele>
<time>2011-04-29T23:00:55Z</time>
<desc>lat.=21.162302, lon.=105.779518, Alt.=15.949593m. Speed=55.152000m/h.</desc>
<speed>15.320000</speed>
</trkpt>
<trkpt lat="21.163033" lon="105.779564">
<ele>20.688248</ele>
<time>2011-04-29T23:01:00Z</time>
<desc>lat.=21.163033, lon.=105.779564, Alt.=20.688248m. Speed=59.759998m/h.</desc>
<speed>16.600000</speed>
</trkpt>
<trkpt lat="21.163780" lon="105.779610">
<ele>20.176041</ele>
<time>2011-04-29T23:01:05Z</time>
<desc>lat.=21.163780, lon.=105.779610, Alt.=20.176041m. Speed=59.939999m/h.</desc>
<speed>16.650000</speed>
</trkpt>
<trkpt lat="21.164469" lon="105.779663">
<ele>21.651138</ele>
<time>2011-04-29T23:01:10Z</time>
<desc>lat.=21.164469, lon.=105.779663, Alt.=21.651138m. Speed=49.608002m/h.</desc>
<speed>13.780000</speed>
</trkpt>
<trkpt lat="21.165108" lon="105.779686">
<ele>23.699966</ele>
<time>2011-04-29T23:01:15Z</time>
<desc>lat.=21.165108, lon.=105.779686, Alt.=23.699966m. Speed=52.056000m/h.</desc>
<speed>14.460000</speed>
</trkpt>
<trkpt lat="21.165817" lon="105.779701">
<ele>20.974380</ele>
<time>2011-04-29T23:01:20Z</time>
<desc>lat.=21.165817, lon.=105.779701, Alt.=20.974380m. Speed=57.383999m/h.</desc>
<speed>15.940000</speed>
</trkpt>
<trkpt lat="21.166563" lon="105.779724">
<ele>21.862076</ele>
<time>2011-04-29T23:01:25Z</time>
<desc>lat.=21.166563, lon.=105.779724, Alt.=21.862076m. Speed=60.444000m/h.</desc>
<speed>16.790000</speed>
</trkpt>
<trkpt lat="21.167385" lon="105.779770">
<ele>25.330338</ele>
<time>2011-04-29T23:01:30Z</time>
<desc>lat.=21.167385, lon.=105.779770, Alt.=25.330338m. Speed=65.304001m/h.</desc>
<speed>18.140000</speed>
</trkpt>
<trkpt lat="21.168238" lon="105.779793">
<ele>25.610611</ele>
<time>2011-04-29T23:01:35Z</time>
<desc>lat.=21.168238, lon.=105.779793, Alt.=25.610611m. Speed=69.444000m/h.</desc>
<speed>19.290000</speed>
</trkpt>
<trkpt lat="21.169125" lon="105.779839">
<ele>25.564224</ele>
<time>2011-04-29T23:01:40Z</time>
<desc>lat.=21.169125, lon.=105.779839, Alt.=25.564224m. Speed=71.603996m/h.</desc>
<speed>19.889999</speed>
</trkpt>
<trkpt lat="21.170057" lon="105.779877">
<ele>28.746841</ele>
<time>2011-04-29T23:01:45Z</time>
<desc>lat.=21.170057, lon.=105.779877, Alt.=28.746841m. Speed=74.052002m/h.</desc>
<speed>20.570001</speed>
</trkpt>
<trkpt lat="21.171000" lon="105.779915">
<ele>26.181412</ele>
<time>2011-04-29T23:01:50Z</time>
<desc>lat.=21.171000, lon.=105.779915, Alt.=26.181412m. Speed=74.807999m/h.</desc>
<speed>20.780000</speed>
</trkpt>
<trkpt lat="21.171965" lon="105.779953">
<ele>24.925064</ele>
<time>2011-04-29T23:01:55Z</time>
<desc>lat.=21.171965, lon.=105.779953, Alt.=24.925064m. Speed=75.779999m/h.</desc>
<speed>21.050000</speed>
</trkpt>
<trkpt lat="21.172964" lon="105.779991">
<ele>25.204361</ele>
<time>2011-04-29T23:02:00Z</time>
<desc>lat.=21.172964, lon.=105.779991, Alt.=25.204361m. Speed=77.795998m/h.</desc>
<speed>21.609999</speed>
</trkpt>
<trkpt lat="21.173916" lon="105.780037">
<ele>27.890884</ele>
<time>2011-04-29T23:02:05Z</time>
<desc>lat.=21.173916, lon.=105.780037, Alt.=27.890884m. Speed=76.896004m/h.</desc>
<speed>21.360001</speed>
</trkpt>
<trkpt lat="21.174864" lon="105.780075">
<ele>25.657486</ele>
<time>2011-04-29T23:02:10Z</time>
<desc>lat.=21.174864, lon.=105.780075, Alt.=25.657486m. Speed=74.015999m/h.</desc>
<speed>20.560000</speed>
</trkpt>
<trkpt lat="21.175755" lon="105.780106">
<ele>24.516861</ele>
<time>2011-04-29T23:02:15Z</time>
<desc>lat.=21.175755, lon.=105.780106, Alt.=24.516861m. Speed=68.867996m/h.</desc>
<speed>19.129999</speed>
</trkpt>
<trkpt lat="21.176575" lon="105.780151">
<ele>24.296646</ele>
<time>2011-04-29T23:02:20Z</time>
<desc>lat.=21.176575, lon.=105.780151, Alt.=24.296646m. Speed=65.339996m/h.</desc>
<speed>18.149999</speed>
</trkpt>
<trkpt lat="21.177378" lon="105.780182">
<ele>27.580826</ele>
<time>2011-04-29T23:02:25Z</time>
<desc>lat.=21.177378, lon.=105.780182, Alt.=27.580826m. Speed=65.447998m/h.</desc>
<speed>18.179999</speed>
</trkpt>
<trkpt lat="21.178211" lon="105.780197">
<ele>29.900162</ele>
<time>2011-04-29T23:02:30Z</time>
<desc>lat.=21.178211, lon.=105.780197, Alt.=29.900162m. Speed=66.599998m/h.</desc>
<speed>18.500000</speed>
</trkpt>
<trkpt lat="21.179056" lon="105.780235">
<ele>31.365494</ele>
<time>2011-04-29T23:02:35Z</time>
<desc>lat.=21.179056, lon.=105.780235, Alt.=31.365494m. Speed=67.139999m/h.</desc>
<speed>18.650000</speed>
</trkpt>
<trkpt lat="21.179924" lon="105.780266">
<ele>32.953644</ele>
<time>2011-04-29T23:02:40Z</time>
<desc>lat.=21.179924, lon.=105.780266, Alt.=32.953644m. Speed=69.264000m/h.</desc>
<speed>19.240000</speed>
</trkpt>
<trkpt lat="21.180786" lon="105.780312">
<ele>31.317642</ele>
<time>2011-04-29T23:02:45Z</time>
<desc>lat.=21.180786, lon.=105.780312, Alt.=31.317642m. Speed=69.264000m/h.</desc>
<speed>19.240000</speed>
</trkpt>
<trkpt lat="21.181648" lon="105.780342">
<ele>27.889908</ele>
<time>2011-04-29T23:02:50Z</time>
<desc>lat.=21.181648, lon.=105.780342, Alt.=27.889908m. Speed=67.968002m/h.</desc>
<speed>18.880001</speed>
</trkpt>
<trkpt lat="21.182487" lon="105.780396">
<ele>25.174088</ele>
<time>2011-04-29T23:02:55Z</time>
<desc>lat.=21.182487, lon.=105.780396, Alt.=25.174088m. Speed=64.764000m/h.</desc>
<speed>17.990000</speed>
</trkpt>
<trkpt lat="21.183296" lon="105.780418">
<ele>23.436783</ele>
<time>2011-04-29T23:03:00Z</time>
<desc>lat.=21.183296, lon.=105.780418, Alt.=23.436783m. Speed=64.260002m/h.</desc>
<speed>17.850001</speed>
</trkpt>
<trkpt lat="21.184057" lon="105.780449">
<ele>22.203384</ele>
<time>2011-04-29T23:03:05Z</time>
<desc>lat.=21.184057, lon.=105.780449, Alt.=22.203384m. Speed=58.428001m/h.</desc>
<speed>16.230000</speed>
</trkpt>
<trkpt lat="21.184795" lon="105.780464">
<ele>18.944107</ele>
<time>2011-04-29T23:03:10Z</time>
<desc>lat.=21.184795, lon.=105.780464, Alt.=18.944107m. Speed=60.155998m/h.</desc>
<speed>16.710000</speed>
</trkpt>
<trkpt lat="21.185593" lon="105.780472">
<ele>17.164322</ele>
<time>2011-04-29T23:03:15Z</time>
<desc>lat.=21.185593, lon.=105.780472, Alt.=17.164322m. Speed=65.015999m/h.</desc>
<speed>18.060000</speed>
</trkpt>
<trkpt lat="21.186384" lon="105.780518">
<ele>11.567513</ele>
<time>2011-04-29T23:03:20Z</time>
<desc>lat.=21.186384, lon.=105.780518, Alt.=11.567513m. Speed=61.164001m/h.</desc>
<speed>16.990000</speed>
</trkpt>
<trkpt lat="21.187113" lon="105.780548">
<ele>11.327278</ele>
<time>2011-04-29T23:03:25Z</time>
<desc>lat.=21.187113, lon.=105.780548, Alt.=11.327278m. Speed=55.548000m/h.</desc>
<speed>15.430000</speed>
</trkpt>
<trkpt lat="21.187847" lon="105.780563">
<ele>14.424446</ele>
<time>2011-04-29T23:03:30Z</time>
<desc>lat.=21.187847, lon.=105.780563, Alt.=14.424446m. Speed=58.860001m/h.</desc>
<speed>16.350000</speed>
</trkpt>
<trkpt lat="21.188633" lon="105.780594">
<ele>15.473763</ele>
<time>2011-04-29T23:03:35Z</time>
<desc>lat.=21.188633, lon.=105.780594, Alt.=15.473763m. Speed=63.647999m/h.</desc>
<speed>17.680000</speed>
</trkpt>
<trkpt lat="21.189440" lon="105.780640">
<ele>16.670670</ele>
<time>2011-04-29T23:03:40Z</time>
<desc>lat.=21.189440, lon.=105.780640, Alt.=16.670670m. Speed=61.883999m/h.</desc>
<speed>17.190000</speed>
</trkpt>
<trkpt lat="21.190088" lon="105.780663">
<ele>14.320686</ele>
<time>2011-04-29T23:03:45Z</time>
<desc>lat.=21.190088, lon.=105.780663, Alt.=14.320686m. Speed=38.952000m/h.</desc>
<speed>10.820000</speed>
</trkpt>
<trkpt lat="21.190313" lon="105.780685">
<ele>15.316292</ele>
<time>2011-04-29T23:03:50Z</time>
<desc>lat.=21.190313, lon.=105.780685, Alt.=15.316292m. Speed=5.076000m/h.</desc>
<speed>1.410000</speed>
</trkpt>
<trkpt lat="21.190332" lon="105.780685">
<ele>14.983772</ele>
<time>2011-04-29T23:03:55Z</time>
<desc>lat.=21.190332, lon.=105.780685, Alt.=14.983772m. Speed=0.072000m/h.</desc>
<speed>0.020000</speed>
</trkpt>
<trkpt lat="21.190331" lon="105.780685">
<ele>14.937386</ele>
<time>2011-04-29T23:04:00Z</time>
<desc>lat.=21.190331, lon.=105.780685, Alt.=14.937386m. Speed=0.252000m/h.</desc>
<speed>0.070000</speed>
</trkpt>
<trkpt lat="21.190332" lon="105.780678">
<ele>14.940315</ele>
<time>2011-04-29T23:04:05Z</time>
<desc>lat.=21.190332, lon.=105.780678, Alt.=14.940315m. Speed=1.116000m/h.</desc>
<speed>0.310000</speed>
</trkpt>
<trkpt lat="21.190340" lon="105.780670">
<ele>14.977669</ele>
<time>2011-04-29T23:04:10Z</time>
<desc>lat.=21.190340, lon.=105.780670, Alt.=14.977669m. Speed=1.332000m/h.</desc>
<speed>0.370000</speed>
</trkpt>
<trkpt lat="21.190447" lon="105.780693">
<ele>15.108772</ele>
<time>2011-04-29T23:04:15Z</time>
<desc>lat.=21.190447, lon.=105.780693, Alt.=15.108772m. Speed=17.388000m/h.</desc>
<speed>4.830000</speed>
</trkpt>
<trkpt lat="21.190731" lon="105.780708">
<ele>14.958138</ele>
<time>2011-04-29T23:04:20Z</time>
<desc>lat.=21.190731, lon.=105.780708, Alt.=14.958138m. Speed=26.388000m/h.</desc>
<speed>7.330000</speed>
</trkpt>
<trkpt lat="21.191181" lon="105.780708">
<ele>17.558365</ele>
<time>2011-04-29T23:04:25Z</time>
<desc>lat.=21.191181, lon.=105.780708, Alt.=17.558365m. Speed=40.139999m/h.</desc>
<speed>11.150000</speed>
</trkpt>
<trkpt lat="21.191694" lon="105.780739">
<ele>16.817642</ele>
<time>2011-04-29T23:04:30Z</time>
<desc>lat.=21.191694, lon.=105.780739, Alt.=16.817642m. Speed=35.388000m/h.</desc>
<speed>9.830000</speed>
</trkpt>
<trkpt lat="21.192049" lon="105.780769">
<ele>19.340591</ele>
<time>2011-04-29T23:04:35Z</time>
<desc>lat.=21.192049, lon.=105.780769, Alt.=19.340591m. Speed=17.676001m/h.</desc>
<speed>4.910000</speed>
</trkpt>
<trkpt lat="21.192112" lon="105.780769">
<ele>18.515884</ele>
<time>2011-04-29T23:04:40Z</time>
<desc>lat.=21.192112, lon.=105.780769, Alt.=18.515884m. Speed=0.792000m/h.</desc>
<speed>0.220000</speed>
</trkpt>
<trkpt lat="21.192181" lon="105.780785">
<ele>17.289322</ele>
<time>2011-04-29T23:04:45Z</time>
<desc>lat.=21.192181, lon.=105.780785, Alt.=17.289322m. Speed=11.412000m/h.</desc>
<speed>3.170000</speed>
</trkpt>
<trkpt lat="21.192316" lon="105.780777">
<ele>20.317154</ele>
<time>2011-04-29T23:04:50Z</time>
<desc>lat.=21.192316, lon.=105.780777, Alt.=20.317154m. Speed=1.584000m/h.</desc>
<speed>0.440000</speed>
</trkpt>
<trkpt lat="21.192341" lon="105.780762">
<ele>22.212662</ele>
<time>2011-04-29T23:04:55Z</time>
<desc>lat.=21.192341, lon.=105.780762, Alt.=22.212662m. Speed=1.548000m/h.</desc>
<speed>0.430000</speed>
</trkpt>
<trkpt lat="21.192463" lon="105.780769">
<ele>21.387955</ele>
<time>2011-04-29T23:05:00Z</time>
<desc>lat.=21.192463, lon.=105.780769, Alt.=21.387955m. Speed=18.756001m/h.</desc>
<speed>5.210000</speed>
</trkpt>
<trkpt lat="21.192778" lon="105.780769">
<ele>22.657486</ele>
<time>2011-04-29T23:05:05Z</time>
<desc>lat.=21.192778, lon.=105.780769, Alt.=22.657486m. Speed=25.020000m/h.</desc>
<speed>6.950000</speed>
</trkpt>
<trkpt lat="21.193144" lon="105.780785">
<ele>21.585709</ele>
<time>2011-04-29T23:05:10Z</time>
<desc>lat.=21.193144, lon.=105.780785, Alt.=21.585709m. Speed=28.188000m/h.</desc>
<speed>7.830000</speed>
</trkpt>
<trkpt lat="21.193577" lon="105.780792">
<ele>20.181900</ele>
<time>2011-04-29T23:05:15Z</time>
<desc>lat.=21.193577, lon.=105.780792, Alt.=20.181900m. Speed=36.504002m/h.</desc>
<speed>10.140000</speed>
</trkpt>
<trkpt lat="21.194077" lon="105.780807">
<ele>22.469986</ele>
<time>2011-04-29T23:05:20Z</time>
<desc>lat.=21.194077, lon.=105.780807, Alt.=22.469986m. Speed=38.556000m/h.</desc>
<speed>10.710000</speed>
</trkpt>
<trkpt lat="21.194582" lon="105.780807">
<ele>19.357681</ele>
<time>2011-04-29T23:05:25Z</time>
<desc>lat.=21.194582, lon.=105.780807, Alt.=19.357681m. Speed=39.599998m/h.</desc>
<speed>11.000000</speed>
</trkpt>
<trkpt lat="21.195086" lon="105.780800">
<ele>14.714729</ele>
<time>2011-04-29T23:05:30Z</time>
<desc>lat.=21.195086, lon.=105.780800, Alt.=14.714729m. Speed=43.596001m/h.</desc>
<speed>12.110000</speed>
</trkpt>
<trkpt lat="21.195702" lon="105.780769">
<ele>12.770882</ele>
<time>2011-04-29T23:05:35Z</time>
<desc>lat.=21.195702, lon.=105.780769, Alt.=12.770882m. Speed=50.436001m/h.</desc>
<speed>14.010000</speed>
</trkpt>
<trkpt lat="21.196360" lon="105.780693">
<ele>11.358284</ele>
<time>2011-04-29T23:05:40Z</time>
<desc>lat.=21.196360, lon.=105.780693, Alt.=11.358284m. Speed=52.740002m/h.</desc>
<speed>14.650000</speed>
</trkpt>
<trkpt lat="21.197062" lon="105.780609">
<ele>13.413216</ele>
<time>2011-04-29T23:05:45Z</time>
<desc>lat.=21.197062, lon.=105.780609, Alt.=13.413216m. Speed=59.688000m/h.</desc>
<speed>16.580000</speed>
</trkpt>
<trkpt lat="21.197800" lon="105.780510">
<ele>16.193619</ele>
<time>2011-04-29T23:05:50Z</time>
<desc>lat.=21.197800, lon.=105.780510, Alt.=16.193619m. Speed=63.251999m/h.</desc>
<speed>17.570000</speed>
</trkpt>
<trkpt lat="21.198610" lon="105.780411">
<ele>16.539322</ele>
<time>2011-04-29T23:05:55Z</time>
<desc>lat.=21.198610, lon.=105.780411, Alt.=16.539322m. Speed=66.204002m/h.</desc>
<speed>18.390001</speed>
</trkpt>
<trkpt lat="21.199440" lon="105.780327">
<ele>18.623306</ele>
<time>2011-04-29T23:06:00Z</time>
<desc>lat.=21.199440, lon.=105.780327, Alt.=18.623306m. Speed=66.564003m/h.</desc>
<speed>18.490001</speed>
</trkpt>
<trkpt lat="21.200298" lon="105.780251">
<ele>17.886002</ele>
<time>2011-04-29T23:06:05Z</time>
<desc>lat.=21.200298, lon.=105.780251, Alt.=17.886002m. Speed=66.636002m/h.</desc>
<speed>18.510000</speed>
</trkpt>
<trkpt lat="21.201132" lon="105.780167">
<ele>16.602798</ele>
<time>2011-04-29T23:06:10Z</time>
<desc>lat.=21.201132, lon.=105.780167, Alt.=16.602798m. Speed=60.408001m/h.</desc>
<speed>16.780000</speed>
</trkpt>
<trkpt lat="21.201777" lon="105.780121">
<ele>16.952408</ele>
<time>2011-04-29T23:06:15Z</time>
<desc>lat.=21.201777, lon.=105.780121, Alt.=16.952408m. Speed=48.672001m/h.</desc>
<speed>13.520000</speed>
</trkpt>
<trkpt lat="21.202309" lon="105.780113">
<ele>17.937271</ele>
<time>2011-04-29T23:06:20Z</time>
<desc>lat.=21.202309, lon.=105.780113, Alt.=17.937271m. Speed=35.928001m/h.</desc>
<speed>9.980000</speed>
</trkpt>
<trkpt lat="21.202700" lon="105.780098">
<ele>18.885025</ele>
<time>2011-04-29T23:06:25Z</time>
<desc>lat.=21.202700, lon.=105.780098, Alt.=18.885025m. Speed=22.931999m/h.</desc>
<speed>6.370000</speed>
</trkpt>
<trkpt lat="21.202890" lon="105.780083">
<ele>18.279556</ele>
<time>2011-04-29T23:06:30Z</time>
<desc>lat.=21.202890, lon.=105.780083, Alt.=18.279556m. Speed=8.928000m/h.</desc>
<speed>2.480000</speed>
</trkpt>
<trkpt lat="21.202969" lon="105.780067">
<ele>20.379654</ele>
<time>2011-04-29T23:06:35Z</time>
<desc>lat.=21.202969, lon.=105.780067, Alt.=20.379654m. Speed=6.696000m/h.</desc>
<speed>1.860000</speed>
</trkpt>
<trkpt lat="21.203079" lon="105.780060">
<ele>20.571548</ele>
<time>2011-04-29T23:06:40Z</time>
<desc>lat.=21.203079, lon.=105.780060, Alt.=20.571548m. Speed=7.488000m/h.</desc>
<speed>2.080000</speed>
</trkpt>
<trkpt lat="21.203121" lon="105.780052">
<ele>19.593033</ele>
<time>2011-04-29T23:06:45Z</time>
<desc>lat.=21.203121, lon.=105.780052, Alt.=19.593033m. Speed=0.468000m/h.</desc>
<speed>0.130000</speed>
</trkpt>
<trkpt lat="21.203135" lon="105.780052">
<ele>18.535904</ele>
<time>2011-04-29T23:06:50Z</time>
<desc>lat.=21.203135, lon.=105.780052, Alt.=18.535904m. Speed=0.864000m/h.</desc>
<speed>0.240000</speed>
</trkpt>
<trkpt lat="21.203171" lon="105.780045">
<ele>18.255630</ele>
<time>2011-04-29T23:06:55Z</time>
<desc>lat.=21.203171, lon.=105.780045, Alt.=18.255630m. Speed=5.652000m/h.</desc>
<speed>1.570000</speed>
</trkpt>
<trkpt lat="21.203306" lon="105.780029">
<ele>17.197525</ele>
<time>2011-04-29T23:07:00Z</time>
<desc>lat.=21.203306, lon.=105.780029, Alt.=17.197525m. Speed=13.752000m/h.</desc>
<speed>3.820000</speed>
</trkpt>
<trkpt lat="21.203648" lon="105.780006">
<ele>17.717056</ele>
<time>2011-04-29T23:07:05Z</time>
<desc>lat.=21.203648, lon.=105.780006, Alt.=17.717056m. Speed=22.968000m/h.</desc>
<speed>6.380000</speed>
</trkpt>
<trkpt lat="21.203934" lon="105.779976">
<ele>19.245377</ele>
<time>2011-04-29T23:07:10Z</time>
<desc>lat.=21.203934, lon.=105.779976, Alt.=19.245377m. Speed=9.936000m/h.</desc>
<speed>2.760000</speed>
</trkpt>
<trkpt lat="21.204008" lon="105.779961">
<ele>18.672623</ele>
<time>2011-04-29T23:07:15Z</time>
<desc>lat.=21.204008, lon.=105.779961, Alt.=18.672623m. Speed=1.584000m/h.</desc>
<speed>0.440000</speed>
</trkpt>
<trkpt lat="21.204025" lon="105.779961">
<ele>18.679947</ele>
<time>2011-04-29T23:07:20Z</time>
<desc>lat.=21.204025, lon.=105.779961, Alt.=18.679947m. Speed=1.728000m/h.</desc>
<speed>0.480000</speed>
</trkpt>
<trkpt lat="21.204058" lon="105.779953">
<ele>18.417252</ele>
<time>2011-04-29T23:07:25Z</time>
<desc>lat.=21.204058, lon.=105.779953, Alt.=18.417252m. Speed=5.076000m/h.</desc>
<speed>1.410000</speed>
</trkpt>
<trkpt lat="21.204117" lon="105.779953">
<ele>16.108170</ele>
<time>2011-04-29T23:07:30Z</time>
<desc>lat.=21.204117, lon.=105.779953, Alt.=16.108170m. Speed=1.584000m/h.</desc>
<speed>0.440000</speed>
</trkpt>
<trkpt lat="21.204168" lon="105.779953">
<ele>14.929573</ele>
<time>2011-04-29T23:07:35Z</time>
<desc>lat.=21.204168, lon.=105.779953, Alt.=14.929573m. Speed=6.804000m/h.</desc>
<speed>1.890000</speed>
</trkpt>
<trkpt lat="21.204384" lon="105.780022">
<ele>14.919807</ele>
<time>2011-04-29T23:07:40Z</time>
<desc>lat.=21.204384, lon.=105.780022, Alt.=14.919807m. Speed=25.020000m/h.</desc>
<speed>6.950000</speed>
</trkpt>
<trkpt lat="21.204618" lon="105.780205">
<ele>16.178482</ele>
<time>2011-04-29T23:07:45Z</time>
<desc>lat.=21.204618, lon.=105.780205, Alt.=16.178482m. Speed=26.568001m/h.</desc>
<speed>7.380000</speed>
</trkpt>
<trkpt lat="21.204823" lon="105.780472">
<ele>17.079849</ele>
<time>2011-04-29T23:07:50Z</time>
<desc>lat.=21.204823, lon.=105.780472, Alt.=17.079849m. Speed=30.780001m/h.</desc>
<speed>8.550000</speed>
</trkpt>
<trkpt lat="21.204924" lon="105.780930">
<ele>14.614388</ele>
<time>2011-04-29T23:07:55Z</time>
<desc>lat.=21.204924, lon.=105.780930, Alt.=14.614388m. Speed=41.220001m/h.</desc>
<speed>11.450000</speed>
</trkpt>
<trkpt lat="21.204830" lon="105.781548">
<ele>14.197884</ele>
<time>2011-04-29T23:08:00Z</time>
<desc>lat.=21.204830, lon.=105.781548, Alt.=14.197884m. Speed=47.231998m/h.</desc>
<speed>13.120000</speed>
</trkpt>
<trkpt lat="21.204659" lon="105.782257">
<ele>12.681282</ele>
<time>2011-04-29T23:08:05Z</time>
<desc>lat.=21.204659, lon.=105.782257, Alt.=12.681282m. Speed=55.116001m/h.</desc>
<speed>15.310000</speed>
</trkpt>
<trkpt lat="21.204485" lon="105.783020">
<ele>10.929573</ele>
<time>2011-04-29T23:08:10Z</time>
<desc>lat.=21.204485, lon.=105.783020, Alt.=10.929573m. Speed=53.388000m/h.</desc>
<speed>14.830000</speed>
</trkpt>
<trkpt lat="21.204569" lon="105.783607">
<ele>14.162971</ele>
<time>2011-04-29T23:08:15Z</time>
<desc>lat.=21.204569, lon.=105.783607, Alt.=14.162971m. Speed=40.824001m/h.</desc>
<speed>11.340000</speed>
</trkpt>
<trkpt lat="21.204897" lon="105.784058">
<ele>16.385513</ele>
<time>2011-04-29T23:08:20Z</time>
<desc>lat.=21.204897, lon.=105.784058, Alt.=16.385513m. Speed=44.604000m/h.</desc>
<speed>12.390000</speed>
</trkpt>
<trkpt lat="21.205118" lon="105.784592">
<ele>17.607681</ele>
<time>2011-04-29T23:08:25Z</time>
<desc>lat.=21.205118, lon.=105.784592, Alt.=17.607681m. Speed=38.807999m/h.</desc>
<speed>10.780000</speed>
</trkpt>
<trkpt lat="21.205116" lon="105.784912">
<ele>14.559944</ele>
<time>2011-04-29T23:08:30Z</time>
<desc>lat.=21.205116, lon.=105.784912, Alt.=14.559944m. Speed=7.452000m/h.</desc>
<speed>2.070000</speed>
</trkpt>
<trkpt lat="21.205090" lon="105.784996">
<ele>13.160530</ele>
<time>2011-04-29T23:08:35Z</time>
<desc>lat.=21.205090, lon.=105.784996, Alt.=13.160530m. Speed=11.880000m/h.</desc>
<speed>3.300000</speed>
</trkpt>
<trkpt lat="21.204983" lon="105.785263">
<ele>12.979622</ele>
<time>2011-04-29T23:08:40Z</time>
<desc>lat.=21.204983, lon.=105.785263, Alt.=12.979622m. Speed=25.992001m/h.</desc>
<speed>7.220000</speed>
</trkpt>
<trkpt lat="21.204782" lon="105.785645">
<ele>11.016975</ele>
<time>2011-04-29T23:08:45Z</time>
<desc>lat.=21.204782, lon.=105.785645, Alt.=11.016975m. Speed=39.132000m/h.</desc>
<speed>10.870000</speed>
</trkpt>
<trkpt lat="21.204500" lon="105.786156">
<ele>13.408333</ele>
<time>2011-04-29T23:08:50Z</time>
<desc>lat.=21.204500, lon.=105.786156, Alt.=13.408333m. Speed=44.964001m/h.</desc>
<speed>12.490000</speed>
</trkpt>
<trkpt lat="21.204136" lon="105.786720">
<ele>15.056038</ele>
<time>2011-04-29T23:08:55Z</time>
<desc>lat.=21.204136, lon.=105.786720, Alt.=15.056038m. Speed=54.972000m/h.</desc>
<speed>15.270000</speed>
</trkpt>
<trkpt lat="21.203726" lon="105.787331">
<ele>14.756233</ele>
<time>2011-04-29T23:09:00Z</time>
<desc>lat.=21.203726, lon.=105.787331, Alt.=14.756233m. Speed=58.931999m/h.</desc>
<speed>16.370000</speed>
</trkpt>
<trkpt lat="21.203220" lon="105.788017">
<ele>17.668716</ele>
<time>2011-04-29T23:09:05Z</time>
<desc>lat.=21.203220, lon.=105.788017, Alt.=17.668716m. Speed=66.996002m/h.</desc>
<speed>18.610001</speed>
</trkpt>
<trkpt lat="21.202690" lon="105.788734">
<ele>17.336197</ele>
<time>2011-04-29T23:09:10Z</time>
<desc>lat.=21.202690, lon.=105.788734, Alt.=17.336197m. Speed=69.227997m/h.</desc>
<speed>19.229999</speed>
</trkpt>
<trkpt lat="21.202118" lon="105.789505">
<ele>16.770767</ele>
<time>2011-04-29T23:09:15Z</time>
<desc>lat.=21.202118, lon.=105.789505, Alt.=16.770767m. Speed=73.043999m/h.</desc>
<speed>20.290000</speed>
</trkpt>
<trkpt lat="21.201551" lon="105.790276">
<ele>17.722427</ele>
<time>2011-04-29T23:09:20Z</time>
<desc>lat.=21.201551, lon.=105.790276, Alt.=17.722427m. Speed=74.195999m/h.</desc>
<speed>20.610000</speed>
</trkpt>
<trkpt lat="21.200968" lon="105.791092">
<ele>18.201920</ele>
<time>2011-04-29T23:09:25Z</time>
<desc>lat.=21.200968, lon.=105.791092, Alt.=18.201920m. Speed=76.608002m/h.</desc>
<speed>21.280000</speed>
</trkpt>
<trkpt lat="21.200354" lon="105.791924">
<ele>16.478287</ele>
<time>2011-04-29T23:09:30Z</time>
<desc>lat.=21.200354, lon.=105.791924, Alt.=16.478287m. Speed=78.012001m/h.</desc>
<speed>21.670000</speed>
</trkpt>
<trkpt lat="21.199732" lon="105.792763">
<ele>13.512337</ele>
<time>2011-04-29T23:09:35Z</time>
<desc>lat.=21.199732, lon.=105.792763, Alt.=13.512337m. Speed=79.632004m/h.</desc>
<speed>22.120001</speed>
</trkpt>
<trkpt lat="21.199146" lon="105.793602">
<ele>10.661018</ele>
<time>2011-04-29T23:09:40Z</time>
<desc>lat.=21.199146, lon.=105.793602, Alt.=10.661018m. Speed=79.632004m/h.</desc>
<speed>22.120001</speed>
</trkpt>
<trkpt lat="21.198532" lon="105.794472">
<ele>9.260139</ele>
<time>2011-04-29T23:09:45Z</time>
<desc>lat.=21.198532, lon.=105.794472, Alt.=9.260139m. Speed=79.559998m/h.</desc>
<speed>22.099999</speed>
</trkpt>
<trkpt lat="21.197926" lon="105.795380">
<ele>12.574593</ele>
<time>2011-04-29T23:09:50Z</time>
<desc>lat.=21.197926, lon.=105.795380, Alt.=12.574593m. Speed=81.251999m/h.</desc>
<speed>22.570000</speed>
</trkpt>
<trkpt lat="21.197367" lon="105.796295">
<ele>14.018929</ele>
<time>2011-04-29T23:09:55Z</time>
<desc>lat.=21.197367, lon.=105.796295, Alt.=14.018929m. Speed=81.216003m/h.</desc>
<speed>22.560001</speed>
</trkpt>
<trkpt lat="21.196844" lon="105.797234">
<ele>16.061295</ele>
<time>2011-04-29T23:10:00Z</time>
<desc>lat.=21.196844, lon.=105.797234, Alt.=16.061295m. Speed=81.648003m/h.</desc>
<speed>22.680001</speed>
</trkpt>
<trkpt lat="21.196371" lon="105.798195">
<ele>15.240364</ele>
<time>2011-04-29T23:10:05Z</time>
<desc>lat.=21.196371, lon.=105.798195, Alt.=15.240364m. Speed=80.459999m/h.</desc>
<speed>22.350000</speed>
</trkpt>
<trkpt lat="21.195940" lon="105.799171">
<ele>15.505257</ele>
<time>2011-04-29T23:10:10Z</time>
<desc>lat.=21.195940, lon.=105.799171, Alt.=15.505257m. Speed=81.972000m/h.</desc>
<speed>22.770000</speed>
</trkpt>
<trkpt lat="21.195538" lon="105.800186">
<ele>15.580208</ele>
<time>2011-04-29T23:10:15Z</time>
<desc>lat.=21.195538, lon.=105.800186, Alt.=15.580208m. Speed=82.764000m/h.</desc>
<speed>22.990000</speed>
</trkpt>
<trkpt lat="21.195177" lon="105.801208">
<ele>13.826546</ele>
<time>2011-04-29T23:10:20Z</time>
<desc>lat.=21.195177, lon.=105.801208, Alt.=13.826546m. Speed=80.064003m/h.</desc>
<speed>22.240001</speed>
</trkpt>
<trkpt lat="21.194891" lon="105.802200">
<ele>12.437141</ele>
<time>2011-04-29T23:10:25Z</time>
<desc>lat.=21.194891, lon.=105.802200, Alt.=12.437141m. Speed=77.903999m/h.</desc>
<speed>21.640000</speed>
</trkpt>
<trkpt lat="21.194632" lon="105.803200">
<ele>10.593147</ele>
<time>2011-04-29T23:10:30Z</time>
<desc>lat.=21.194632, lon.=105.803200, Alt.=10.593147m. Speed=78.552002m/h.</desc>
<speed>21.820001</speed>
</trkpt>
<trkpt lat="21.194397" lon="105.804245">
<ele>8.491341</ele>
<time>2011-04-29T23:10:35Z</time>
<desc>lat.=21.194397, lon.=105.804245, Alt.=8.491341m. Speed=79.956001m/h.</desc>
<speed>22.210000</speed>
</trkpt>
<trkpt lat="21.194239" lon="105.805290">
<ele>5.962345</ele>
<time>2011-04-29T23:10:40Z</time>
<desc>lat.=21.194239, lon.=105.805290, Alt.=5.962345m. Speed=79.379997m/h.</desc>
<speed>22.049999</speed>
</trkpt>
<trkpt lat="21.194111" lon="105.806366">
<ele>5.512394</ele>
<time>2011-04-29T23:10:45Z</time>
<desc>lat.=21.194111, lon.=105.806366, Alt.=5.512394m. Speed=81.216003m/h.</desc>
<speed>22.560001</speed>
</trkpt>
<trkpt lat="21.194016" lon="105.807396">
<ele>4.351505</ele>
<time>2011-04-29T23:10:50Z</time>
<desc>lat.=21.194016, lon.=105.807396, Alt.=4.351505m. Speed=75.204002m/h.</desc>
<speed>20.890001</speed>
</trkpt>
<trkpt lat="21.193983" lon="105.808434">
<ele>8.826057</ele>
<time>2011-04-29T23:10:55Z</time>
<desc>lat.=21.193983, lon.=105.808434, Alt.=8.826057m. Speed=77.112000m/h.</desc>
<speed>21.420000</speed>
</trkpt>
<trkpt lat="21.193975" lon="105.809479">
<ele>11.578255</ele>
<time>2011-04-29T23:11:00Z</time>
<desc>lat.=21.193975, lon.=105.809479, Alt.=11.578255m. Speed=80.171997m/h.</desc>
<speed>22.269999</speed>
</trkpt>
<trkpt lat="21.193996" lon="105.810585">
<ele>12.391731</ele>
<time>2011-04-29T23:11:05Z</time>
<desc>lat.=21.193996, lon.=105.810585, Alt.=12.391731m. Speed=83.987999m/h.</desc>
<speed>23.330000</speed>
</trkpt>
<trkpt lat="21.193993" lon="105.811768">
<ele>11.261360</ele>
<time>2011-04-29T23:11:10Z</time>
<desc>lat.=21.193993, lon.=105.811768, Alt.=11.261360m. Speed=90.036003m/h.</desc>
<speed>25.010001</speed>
</trkpt>
<trkpt lat="21.194017" lon="105.812996">
<ele>7.842838</ele>
<time>2011-04-29T23:11:15Z</time>
<desc>lat.=21.194017, lon.=105.812996, Alt.=7.842838m. Speed=91.655998m/h.</desc>
<speed>25.460000</speed>
</trkpt>
<trkpt lat="21.194054" lon="105.814224">
<ele>3.882906</ele>
<time>2011-04-29T23:11:20Z</time>
<desc>lat.=21.194054, lon.=105.814224, Alt.=3.882906m. Speed=91.115997m/h.</desc>
<speed>25.309999</speed>
</trkpt>
<trkpt lat="21.194105" lon="105.815445">
<ele>1.543778</ele>
<time>2011-04-29T23:11:25Z</time>
<desc>lat.=21.194105, lon.=105.815445, Alt.=1.543778m. Speed=91.080002m/h.</desc>
<speed>25.300001</speed>
</trkpt>
<trkpt lat="21.194153" lon="105.816666">
<ele>0.447354</ele>
<time>2011-04-29T23:11:30Z</time>
<desc>lat.=21.194153, lon.=105.816666, Alt.=0.447354m. Speed=91.547997m/h.</desc>
<speed>25.429999</speed>
</trkpt>
<trkpt lat="21.194201" lon="105.817879">
<ele>-0.250180</ele>
<time>2011-04-29T23:11:35Z</time>
<desc>lat.=21.194201, lon.=105.817879, Alt.=-0.250180m. Speed=90.180000m/h.</desc>
<speed>25.050000</speed>
</trkpt>
<trkpt lat="21.194235" lon="105.819077">
<ele>-0.075334</ele>
<time>2011-04-29T23:11:40Z</time>
<desc>lat.=21.194235, lon.=105.819077, Alt.=-0.075334m. Speed=90.251999m/h.</desc>
<speed>25.070000</speed>
</trkpt>
<trkpt lat="21.194269" lon="105.820320">
<ele>0.976754</ele>
<time>2011-04-29T23:11:45Z</time>
<desc>lat.=21.194269, lon.=105.820320, Alt.=0.976754m. Speed=94.931999m/h.</desc>
<speed>26.370000</speed>
</trkpt>
<trkpt lat="21.194334" lon="105.821587">
<ele>1.116838</ele>
<time>2011-04-29T23:11:50Z</time>
<desc>lat.=21.194334, lon.=105.821587, Alt.=1.116838m. Speed=95.328003m/h.</desc>
<speed>26.480001</speed>
</trkpt>
<trkpt lat="21.194395" lon="105.822853">
<ele>0.306126</ele>
<time>2011-04-29T23:11:55Z</time>
<desc>lat.=21.194395, lon.=105.822853, Alt.=0.306126m. Speed=92.339996m/h.</desc>
<speed>25.649999</speed>
</trkpt>
<trkpt lat="21.194483" lon="105.823982">
<ele>3.550936</ele>
<time>2011-04-29T23:12:00Z</time>
<desc>lat.=21.194483, lon.=105.823982, Alt.=3.550936m. Speed=75.671997m/h.</desc>
<speed>21.019999</speed>
</trkpt>
<trkpt lat="21.194586" lon="105.824814">
<ele>6.397648</ele>
<time>2011-04-29T23:12:05Z</time>
<desc>lat.=21.194586, lon.=105.824814, Alt.=6.397648m. Speed=52.307999m/h.</desc>
<speed>14.530000</speed>
</trkpt>
<trkpt lat="21.194704" lon="105.825241">
<ele>11.319710</ele>
<time>2011-04-29T23:12:10Z</time>
<desc>lat.=21.194704, lon.=105.825241, Alt.=11.319710m. Speed=20.412001m/h.</desc>
<speed>5.670000</speed>
</trkpt>
<trkpt lat="21.194719" lon="105.825302">
<ele>13.069710</ele>
<time>2011-04-29T23:12:15Z</time>
<desc>lat.=21.194719, lon.=105.825302, Alt.=13.069710m. Speed=1.656000m/h.</desc>
<speed>0.460000</speed>
</trkpt>
<trkpt lat="21.194721" lon="105.825317">
<ele>14.526497</ele>
<time>2011-04-29T23:12:20Z</time>
<desc>lat.=21.194721, lon.=105.825317, Alt.=14.526497m. Speed=2.376000m/h.</desc>
<speed>0.660000</speed>
</trkpt>
<trkpt lat="21.194778" lon="105.825523">
<ele>13.653694</ele>
<time>2011-04-29T23:12:25Z</time>
<desc>lat.=21.194778, lon.=105.825523, Alt.=13.653694m. Speed=25.236000m/h.</desc>
<speed>7.010000</speed>
</trkpt>
<trkpt lat="21.194902" lon="105.825882">
<ele>13.915657</ele>
<time>2011-04-29T23:12:30Z</time>
<desc>lat.=21.194902, lon.=105.825882, Alt.=13.915657m. Speed=32.436001m/h.</desc>
<speed>9.010000</speed>
</trkpt>
<trkpt lat="21.195051" lon="105.826385">
<ele>14.442268</ele>
<time>2011-04-29T23:12:35Z</time>
<desc>lat.=21.195051, lon.=105.826385, Alt.=14.442268m. Speed=45.035999m/h.</desc>
<speed>12.510000</speed>
</trkpt>
<trkpt lat="21.195244" lon="105.826973">
<ele>15.048958</ele>
<time>2011-04-29T23:12:40Z</time>
<desc>lat.=21.195244, lon.=105.826973, Alt.=15.048958m. Speed=49.139999m/h.</desc>
<speed>13.650000</speed>
</trkpt>
<trkpt lat="21.195509" lon="105.827652">
<ele>13.645882</ele>
<time>2011-04-29T23:12:45Z</time>
<desc>lat.=21.195509, lon.=105.827652, Alt.=13.645882m. Speed=58.248001m/h.</desc>
<speed>16.180000</speed>
</trkpt>
<trkpt lat="21.195869" lon="105.828384">
<ele>11.381721</ele>
<time>2011-04-29T23:12:50Z</time>
<desc>lat.=21.195869, lon.=105.828384, Alt.=11.381721m. Speed=66.096001m/h.</desc>
<speed>18.360000</speed>
</trkpt>
<trkpt lat="21.196270" lon="105.829170">
<ele>11.524788</ele>
<time>2011-04-29T23:12:55Z</time>
<desc>lat.=21.196270, lon.=105.829170, Alt.=11.524788m. Speed=68.652000m/h.</desc>
<speed>19.070000</speed>
</trkpt>
<trkpt lat="21.196747" lon="105.829956">
<ele>14.166145</ele>
<time>2011-04-29T23:13:00Z</time>
<desc>lat.=21.196747, lon.=105.829956, Alt.=14.166145m. Speed=72.216003m/h.</desc>
<speed>20.060001</speed>
</trkpt>
<trkpt lat="21.197292" lon="105.830757">
<ele>15.466194</ele>
<time>2011-04-29T23:13:05Z</time>
<desc>lat.=21.197292, lon.=105.830757, Alt.=15.466194m. Speed=74.124001m/h.</desc>
<speed>20.590000</speed>
</trkpt>
<trkpt lat="21.197906" lon="105.831520">
<ele>17.949966</ele>
<time>2011-04-29T23:13:10Z</time>
<desc>lat.=21.197906, lon.=105.831520, Alt.=17.949966m. Speed=76.571999m/h.</desc>
<speed>21.270000</speed>
</trkpt>
<trkpt lat="21.198601" lon="105.832275">
<ele>24.676041</ele>
<time>2011-04-29T23:13:15Z</time>
<desc>lat.=21.198601, lon.=105.832275, Alt.=24.676041m. Speed=79.236000m/h.</desc>
<speed>22.010000</speed>
</trkpt>
<trkpt lat="21.199387" lon="105.832993">
<ele>24.651627</ele>
<time>2011-04-29T23:13:20Z</time>
<desc>lat.=21.199387, lon.=105.832993, Alt.=24.651627m. Speed=81.000000m/h.</desc>
<speed>22.500000</speed>
</trkpt>
<trkpt lat="21.200186" lon="105.833641">
<ele>22.695572</ele>
<time>2011-04-29T23:13:25Z</time>
<desc>lat.=21.200186, lon.=105.833641, Alt.=22.695572m. Speed=76.463997m/h.</desc>
<speed>21.239999</speed>
</trkpt>
<trkpt lat="21.200960" lon="105.834190">
<ele>21.091080</ele>
<time>2011-04-29T23:13:30Z</time>
<desc>lat.=21.200960, lon.=105.834190, Alt.=21.091080m. Speed=68.975998m/h.</desc>
<speed>19.159999</speed>
</trkpt>
<trkpt lat="21.201641" lon="105.834625">
<ele>21.729263</ele>
<time>2011-04-29T23:13:35Z</time>
<desc>lat.=21.201641, lon.=105.834625, Alt.=21.729263m. Speed=65.267998m/h.</desc>
<speed>18.129999</speed>
</trkpt>
<trkpt lat="21.202347" lon="105.835114">
<ele>23.976334</ele>
<time>2011-04-29T23:13:40Z</time>
<desc>lat.=21.202347, lon.=105.835114, Alt.=23.976334m. Speed=70.236000m/h.</desc>
<speed>19.510000</speed>
</trkpt>
<trkpt lat="21.203112" lon="105.835640">
<ele>24.641373</ele>
<time>2011-04-29T23:13:45Z</time>
<desc>lat.=21.203112, lon.=105.835640, Alt.=24.641373m. Speed=74.160004m/h.</desc>
<speed>20.600001</speed>
</trkpt>
<trkpt lat="21.203873" lon="105.836235">
<ele>24.996841</ele>
<time>2011-04-29T23:13:50Z</time>
<desc>lat.=21.203873, lon.=105.836235, Alt.=24.996841m. Speed=75.851997m/h.</desc>
<speed>21.069999</speed>
</trkpt>
<trkpt lat="21.204649" lon="105.836891">
<ele>25.067154</ele>
<time>2011-04-29T23:13:55Z</time>
<desc>lat.=21.204649, lon.=105.836891, Alt.=25.067154m. Speed=79.416000m/h.</desc>
<speed>22.060000</speed>
</trkpt>
<trkpt lat="21.205383" lon="105.837608">
<ele>24.739029</ele>
<time>2011-04-29T23:14:00Z</time>
<desc>lat.=21.205383, lon.=105.837608, Alt.=24.739029m. Speed=78.335999m/h.</desc>
<speed>21.760000</speed>
</trkpt>
<trkpt lat="21.206099" lon="105.838379">
<ele>23.823990</ele>
<time>2011-04-29T23:14:05Z</time>
<desc>lat.=21.206099, lon.=105.838379, Alt.=23.823990m. Speed=78.732002m/h.</desc>
<speed>21.870001</speed>
</trkpt>
<trkpt lat="21.206749" lon="105.839157">
<ele>23.128677</ele>
<time>2011-04-29T23:14:10Z</time>
<desc>lat.=21.206749, lon.=105.839157, Alt.=23.128677m. Speed=75.959999m/h.</desc>
<speed>21.100000</speed>
</trkpt>
<trkpt lat="21.207329" lon="105.839920">
<ele>24.104752</ele>
<time>2011-04-29T23:14:15Z</time>
<desc>lat.=21.207329, lon.=105.839920, Alt.=24.104752m. Speed=70.379997m/h.</desc>
<speed>19.549999</speed>
</trkpt>
<trkpt lat="21.207830" lon="105.840691">
<ele>23.750259</ele>
<time>2011-04-29T23:14:20Z</time>
<desc>lat.=21.207830, lon.=105.840691, Alt.=23.750259m. Speed=68.795998m/h.</desc>
<speed>19.109999</speed>
</trkpt>
<trkpt lat="21.208269" lon="105.841423">
<ele>22.746353</ele>
<time>2011-04-29T23:14:25Z</time>
<desc>lat.=21.208269, lon.=105.841423, Alt.=22.746353m. Speed=61.632000m/h.</desc>
<speed>17.120000</speed>
</trkpt>
<trkpt lat="21.208693" lon="105.842125">
<ele>20.976334</ele>
<time>2011-04-29T23:14:30Z</time>
<desc>lat.=21.208693, lon.=105.842125, Alt.=20.976334m. Speed=61.667999m/h.</desc>
<speed>17.130000</speed>
</trkpt>
<trkpt lat="21.209057" lon="105.842773">
<ele>19.085709</ele>
<time>2011-04-29T23:14:35Z</time>
<desc>lat.=21.209057, lon.=105.842773, Alt.=19.085709m. Speed=56.124001m/h.</desc>
<speed>15.590000</speed>
</trkpt>
<trkpt lat="21.209332" lon="105.843376">
<ele>18.521255</ele>
<time>2011-04-29T23:14:40Z</time>
<desc>lat.=21.209332, lon.=105.843376, Alt.=18.521255m. Speed=42.012001m/h.</desc>
<speed>11.670000</speed>
</trkpt>
<trkpt lat="21.209547" lon="105.843880">
<ele>17.006119</ele>
<time>2011-04-29T23:14:45Z</time>
<desc>lat.=21.209547, lon.=105.843880, Alt.=17.006119m. Speed=34.164001m/h.</desc>
<speed>9.490000</speed>
</trkpt>
<trkpt lat="21.209652" lon="105.844124">
<ele>12.422737</ele>
<time>2011-04-29T23:14:50Z</time>
<desc>lat.=21.209652, lon.=105.844124, Alt.=12.422737m. Speed=4.284000m/h.</desc>
<speed>1.190000</speed>
</trkpt>
<trkpt lat="21.209646" lon="105.844131">
<ele>12.808968</ele>
<time>2011-04-29T23:14:55Z</time>
<desc>lat.=21.209646, lon.=105.844131, Alt.=12.808968m. Speed=0.360000m/h.</desc>
<speed>0.100000</speed>
</trkpt>
<trkpt lat="21.209650" lon="105.844131">
<ele>12.594856</ele>
<time>2011-04-29T23:15:00Z</time>
<desc>lat.=21.209650, lon.=105.844131, Alt.=12.594856m. Speed=1.188000m/h.</desc>
<speed>0.330000</speed>
</trkpt>
<trkpt lat="21.209684" lon="105.844215">
<ele>13.053108</ele>
<time>2011-04-29T23:15:05Z</time>
<desc>lat.=21.209684, lon.=105.844215, Alt.=13.053108m. Speed=11.916000m/h.</desc>
<speed>3.310000</speed>
</trkpt>
<trkpt lat="21.209793" lon="105.844460">
<ele>13.566780</ele>
<time>2011-04-29T23:15:10Z</time>
<desc>lat.=21.209793, lon.=105.844460, Alt.=13.566780m. Speed=21.455999m/h.</desc>
<speed>5.960000</speed>
</trkpt>
<trkpt lat="21.209972" lon="105.844803">
<ele>15.810188</ele>
<time>2011-04-29T23:15:15Z</time>
<desc>lat.=21.209972, lon.=105.844803, Alt.=15.810188m. Speed=34.992001m/h.</desc>
<speed>9.720000</speed>
</trkpt>
<trkpt lat="21.210150" lon="105.845360">
<ele>17.214127</ele>
<time>2011-04-29T23:15:20Z</time>
<desc>lat.=21.210150, lon.=105.845360, Alt.=17.214127m. Speed=41.220001m/h.</desc>
<speed>11.450000</speed>
</trkpt>
<trkpt lat="21.210344" lon="105.845917">
<ele>16.419205</ele>
<time>2011-04-29T23:15:25Z</time>
<desc>lat.=21.210344, lon.=105.845917, Alt.=16.419205m. Speed=45.827999m/h.</desc>
<speed>12.730000</speed>
</trkpt>
<trkpt lat="21.210541" lon="105.846542">
<ele>15.984993</ele>
<time>2011-04-29T23:15:30Z</time>
<desc>lat.=21.210541, lon.=105.846542, Alt.=15.984993m. Speed=51.875999m/h.</desc>
<speed>14.410000</speed>
</trkpt>
<trkpt lat="21.210732" lon="105.847252">
<ele>15.040657</ele>
<time>2011-04-29T23:15:35Z</time>
<desc>lat.=21.210732, lon.=105.847252, Alt.=15.040657m. Speed=55.296001m/h.</desc>
<speed>15.360000</speed>
</trkpt>
<trkpt lat="21.210897" lon="105.848015">
<ele>13.407112</ele>
<time>2011-04-29T23:15:40Z</time>
<desc>lat.=21.210897, lon.=105.848015, Alt.=13.407112m. Speed=59.652000m/h.</desc>
<speed>16.570000</speed>
</trkpt>
<trkpt lat="21.211046" lon="105.848816">
<ele>13.086800</ele>
<time>2011-04-29T23:15:45Z</time>
<desc>lat.=21.211046, lon.=105.848816, Alt.=13.086800m. Speed=61.776001m/h.</desc>
<speed>17.160000</speed>
</trkpt>
<trkpt lat="21.211159" lon="105.849678">
<ele>14.461311</ele>
<time>2011-04-29T23:15:50Z</time>
<desc>lat.=21.211159, lon.=105.849678, Alt.=14.461311m. Speed=63.647999m/h.</desc>
<speed>17.680000</speed>
</trkpt>
<trkpt lat="21.211262" lon="105.850540">
<ele>14.771370</ele>
<time>2011-04-29T23:15:55Z</time>
<desc>lat.=21.211262, lon.=105.850540, Alt.=14.771370m. Speed=68.112000m/h.</desc>
<speed>18.920000</speed>
</trkpt>
<trkpt lat="21.211319" lon="105.851501">
<ele>13.916634</ele>
<time>2011-04-29T23:16:00Z</time>
<desc>lat.=21.211319, lon.=105.851501, Alt.=13.916634m. Speed=74.087997m/h.</desc>
<speed>20.579999</speed>
</trkpt>
<trkpt lat="21.211344" lon="105.852531">
<ele>15.352180</ele>
<time>2011-04-29T23:16:05Z</time>
<desc>lat.=21.211344, lon.=105.852531, Alt.=15.352180m. Speed=79.127998m/h.</desc>
<speed>21.980000</speed>
</trkpt>
<trkpt lat="21.211260" lon="105.853615">
<ele>16.783463</ele>
<time>2011-04-29T23:16:10Z</time>
<desc>lat.=21.211260, lon.=105.853615, Alt.=16.783463m. Speed=82.332001m/h.</desc>
<speed>22.870000</speed>
</trkpt>
<trkpt lat="21.211149" lon="105.854713">
<ele>21.203873</ele>
<time>2011-04-29T23:16:15Z</time>
<desc>lat.=21.211149, lon.=105.854713, Alt.=21.203873m. Speed=81.503998m/h.</desc>
<speed>22.639999</speed>
</trkpt>
<trkpt lat="21.211048" lon="105.855774">
<ele>23.033463</ele>
<time>2011-04-29T23:16:20Z</time>
<desc>lat.=21.211048, lon.=105.855774, Alt.=23.033463m. Speed=77.688004m/h.</desc>
<speed>21.580001</speed>
</trkpt>
<trkpt lat="21.210960" lon="105.856796">
<ele>23.796646</ele>
<time>2011-04-29T23:16:25Z</time>
<desc>lat.=21.210960, lon.=105.856796, Alt.=23.796646m. Speed=77.292000m/h.</desc>
<speed>21.470000</speed>
</trkpt>
<trkpt lat="21.210852" lon="105.857841">
<ele>23.731216</ele>
<time>2011-04-29T23:16:30Z</time>
<desc>lat.=21.210852, lon.=105.857841, Alt.=23.731216m. Speed=79.487999m/h.</desc>
<speed>22.080000</speed>
</trkpt>
<trkpt lat="21.210766" lon="105.858894">
<ele>21.975845</ele>
<time>2011-04-29T23:16:35Z</time>
<desc>lat.=21.210766, lon.=105.858894, Alt.=21.975845m. Speed=78.839996m/h.</desc>
<speed>21.899999</speed>
</trkpt>
<trkpt lat="21.210667" lon="105.859970">
<ele>19.104752</ele>
<time>2011-04-29T23:16:40Z</time>
<desc>lat.=21.210667, lon.=105.859970, Alt.=19.104752m. Speed=82.692001m/h.</desc>
<speed>22.970000</speed>
</trkpt>
<trkpt lat="21.210587" lon="105.861099">
<ele>16.861588</ele>
<time>2011-04-29T23:16:45Z</time>
<desc>lat.=21.210587, lon.=105.861099, Alt.=16.861588m. Speed=84.348000m/h.</desc>
<speed>23.430000</speed>
</trkpt>
<trkpt lat="21.210571" lon="105.862267">
<ele>9.309212</ele>
<time>2011-04-29T23:16:50Z</time>
<desc>lat.=21.210571, lon.=105.862267, Alt.=9.309212m. Speed=84.671997m/h.</desc>
<speed>23.519999</speed>
</trkpt>
<trkpt lat="21.210625" lon="105.863396">
<ele>7.176579</ele>
<time>2011-04-29T23:16:55Z</time>
<desc>lat.=21.210625, lon.=105.863396, Alt.=7.176579m. Speed=82.403999m/h.</desc>
<speed>22.890000</speed>
</trkpt>
<trkpt lat="21.210712" lon="105.864487">
<ele>6.457340</ele>
<time>2011-04-29T23:17:00Z</time>
<desc>lat.=21.210712, lon.=105.864487, Alt.=6.457340m. Speed=78.587997m/h.</desc>
<speed>21.829999</speed>
</trkpt>
<trkpt lat="21.210871" lon="105.865471">
<ele>6.789249</ele>
<time>2011-04-29T23:17:05Z</time>
<desc>lat.=21.210871, lon.=105.865471, Alt.=6.789249m. Speed=69.912003m/h.</desc>
<speed>19.420001</speed>
</trkpt>
<trkpt lat="21.211065" lon="105.866394">
<ele>7.972355</ele>
<time>2011-04-29T23:17:10Z</time>
<desc>lat.=21.211065, lon.=105.866394, Alt.=7.972355m. Speed=72.431999m/h.</desc>
<speed>20.120000</speed>
</trkpt>
<trkpt lat="21.211296" lon="105.867355">
<ele>7.951115</ele>
<time>2011-04-29T23:17:15Z</time>
<desc>lat.=21.211296, lon.=105.867355, Alt.=7.951115m. Speed=76.283997m/h.</desc>
<speed>21.189999</speed>
</trkpt>
<trkpt lat="21.211584" lon="105.868332">
<ele>9.328743</ele>
<time>2011-04-29T23:17:20Z</time>
<desc>lat.=21.211584, lon.=105.868332, Alt.=9.328743m. Speed=77.508003m/h.</desc>
<speed>21.530001</speed>
</trkpt>
<trkpt lat="21.211935" lon="105.869270">
<ele>10.522835</ele>
<time>2011-04-29T23:17:25Z</time>
<desc>lat.=21.211935, lon.=105.869270, Alt.=10.522835m. Speed=72.216003m/h.</desc>
<speed>20.060001</speed>
</trkpt>
<trkpt lat="21.212311" lon="105.870155">
<ele>11.587288</ele>
<time>2011-04-29T23:17:30Z</time>
<desc>lat.=21.212311, lon.=105.870155, Alt.=11.587288m. Speed=73.043999m/h.</desc>
<speed>20.290000</speed>
</trkpt>
<trkpt lat="21.212713" lon="105.871048">
<ele>10.925179</ele>
<time>2011-04-29T23:17:35Z</time>
<desc>lat.=21.212713, lon.=105.871048, Alt.=10.925179m. Speed=71.028000m/h.</desc>
<speed>19.730000</speed>
</trkpt>
<trkpt lat="21.213152" lon="105.871887">
<ele>11.283577</ele>
<time>2011-04-29T23:17:40Z</time>
<desc>lat.=21.213152, lon.=105.871887, Alt.=11.283577m. Speed=76.500000m/h.</desc>
<speed>21.250000</speed>
</trkpt>
<trkpt lat="21.213646" lon="105.872787">
<ele>12.285774</ele>
<time>2011-04-29T23:17:45Z</time>
<desc>lat.=21.213646, lon.=105.872787, Alt.=12.285774m. Speed=80.171997m/h.</desc>
<speed>22.269999</speed>
</trkpt>
<trkpt lat="21.214159" lon="105.873734">
<ele>11.869759</ele>
<time>2011-04-29T23:17:50Z</time>
<desc>lat.=21.214159, lon.=105.873734, Alt.=11.869759m. Speed=82.512001m/h.</desc>
<speed>22.920000</speed>
</trkpt>
<trkpt lat="21.214655" lon="105.874702">
<ele>10.974251</ele>
<time>2011-04-29T23:17:55Z</time>
<desc>lat.=21.214655, lon.=105.874702, Alt.=10.974251m. Speed=83.160004m/h.</desc>
<speed>23.100001</speed>
</trkpt>
<trkpt lat="21.215111" lon="105.875710">
<ele>12.372200</ele>
<time>2011-04-29T23:18:00Z</time>
<desc>lat.=21.215111, lon.=105.875710, Alt.=12.372200m. Speed=81.360001m/h.</desc>
<speed>22.600000</speed>
</trkpt>
<trkpt lat="21.215504" lon="105.876755">
<ele>15.874397</ele>
<time>2011-04-29T23:18:05Z</time>
<desc>lat.=21.215504, lon.=105.876755, Alt.=15.874397m. Speed=80.459999m/h.</desc>
<speed>22.350000</speed>
</trkpt>
<trkpt lat="21.215841" lon="105.877762">
<ele>16.344986</ele>
<time>2011-04-29T23:18:10Z</time>
<desc>lat.=21.215841, lon.=105.877762, Alt.=16.344986m. Speed=80.279999m/h.</desc>
<speed>22.300000</speed>
</trkpt>
<trkpt lat="21.216110" lon="105.878799">
<ele>14.667366</ele>
<time>2011-04-29T23:18:15Z</time>
<desc>lat.=21.216110, lon.=105.878799, Alt.=14.667366m. Speed=82.223999m/h.</desc>
<speed>22.840000</speed>
</trkpt>
<trkpt lat="21.216333" lon="105.879860">
<ele>11.801888</ele>
<time>2011-04-29T23:18:20Z</time>
<desc>lat.=21.216333, lon.=105.879860, Alt.=11.801888m. Speed=83.124001m/h.</desc>
<speed>23.090000</speed>
</trkpt>
<trkpt lat="21.216505" lon="105.880951">
<ele>11.035042</ele>
<time>2011-04-29T23:18:25Z</time>
<desc>lat.=21.216505, lon.=105.880951, Alt.=11.035042m. Speed=81.360001m/h.</desc>
<speed>22.600000</speed>
</trkpt>
<trkpt lat="21.216621" lon="105.882034">
<ele>10.878304</ele>
<time>2011-04-29T23:18:30Z</time>
<desc>lat.=21.216621, lon.=105.882034, Alt.=10.878304m. Speed=80.459999m/h.</desc>
<speed>22.350000</speed>
</trkpt>
<trkpt lat="21.216682" lon="105.883110">
<ele>9.756966</ele>
<time>2011-04-29T23:18:35Z</time>
<desc>lat.=21.216682, lon.=105.883110, Alt.=9.756966m. Speed=81.612000m/h.</desc>
<speed>22.670000</speed>
</trkpt>
<trkpt lat="21.216660" lon="105.884193">
<ele>11.879768</ele>
<time>2011-04-29T23:18:40Z</time>
<desc>lat.=21.216660, lon.=105.884193, Alt.=11.879768m. Speed=77.435997m/h.</desc>
<speed>21.509999</speed>
</trkpt>
<trkpt lat="21.216597" lon="105.885201">
<ele>11.339729</ele>
<time>2011-04-29T23:18:45Z</time>
<desc>lat.=21.216597, lon.=105.885201, Alt.=11.339729m. Speed=71.351997m/h.</desc>
<speed>19.819999</speed>
</trkpt>
<trkpt lat="21.216482" lon="105.886108">
<ele>11.021614</ele>
<time>2011-04-29T23:18:50Z</time>
<desc>lat.=21.216482, lon.=105.886108, Alt.=11.021614m. Speed=70.487999m/h.</desc>
<speed>19.580000</speed>
</trkpt>
<trkpt lat="21.216330" lon="105.887108">
<ele>12.782845</ele>
<time>2011-04-29T23:18:55Z</time>
<desc>lat.=21.216330, lon.=105.887108, Alt.=12.782845m. Speed=77.615997m/h.</desc>
<speed>21.559999</speed>
</trkpt>
<trkpt lat="21.216120" lon="105.888168">
<ele>13.357307</ele>
<time>2011-04-29T23:19:00Z</time>
<desc>lat.=21.216120, lon.=105.888168, Alt.=13.357307m. Speed=82.403999m/h.</desc>
<speed>22.890000</speed>
</trkpt>
<trkpt lat="21.215847" lon="105.889252">
<ele>9.815315</ele>
<time>2011-04-29T23:19:05Z</time>
<desc>lat.=21.215847, lon.=105.889252, Alt.=9.815315m. Speed=83.339996m/h.</desc>
<speed>23.149999</speed>
</trkpt>
<trkpt lat="21.215574" lon="105.890350">
<ele>4.223331</ele>
<time>2011-04-29T23:19:10Z</time>
<desc>lat.=21.215574, lon.=105.890350, Alt.=4.223331m. Speed=86.255997m/h.</desc>
<speed>23.959999</speed>
</trkpt>
<trkpt lat="21.215290" lon="105.891457">
<ele>0.422001</ele>
<time>2011-04-29T23:19:15Z</time>
<desc>lat.=21.215290, lon.=105.891457, Alt.=0.422001m. Speed=85.248001m/h.</desc>
<speed>23.680000</speed>
</trkpt>
<trkpt lat="21.215015" lon="105.892517">
<ele>0.030751</ele>
<time>2011-04-29T23:19:20Z</time>
<desc>lat.=21.215015, lon.=105.892517, Alt.=0.030751m. Speed=78.012001m/h.</desc>
<speed>21.670000</speed>
</trkpt>
<trkpt lat="21.214760" lon="105.893532">
<ele>-0.934655</ele>
<time>2011-04-29T23:19:25Z</time>
<desc>lat.=21.214760, lon.=105.893532, Alt.=-0.934655m. Speed=79.344002m/h.</desc>
<speed>22.040000</speed>
</trkpt>
<trkpt lat="21.214481" lon="105.894554">
<ele>-0.187300</ele>
<time>2011-04-29T23:19:30Z</time>
<desc>lat.=21.214481, lon.=105.894554, Alt.=-0.187300m. Speed=79.919998m/h.</desc>
<speed>22.199999</speed>
</trkpt>
<trkpt lat="21.214201" lon="105.895584">
<ele>-0.928429</ele>
<time>2011-04-29T23:19:35Z</time>
<desc>lat.=21.214201, lon.=105.895584, Alt.=-0.928429m. Speed=79.632004m/h.</desc>
<speed>22.120001</speed>
</trkpt>
<trkpt lat="21.213932" lon="105.896606">
<ele>1.869584</ele>
<time>2011-04-29T23:19:40Z</time>
<desc>lat.=21.213932, lon.=105.896606, Alt.=1.869584m. Speed=79.884003m/h.</desc>
<speed>22.190001</speed>
</trkpt>
<trkpt lat="21.213650" lon="105.897659">
<ele>2.717623</ele>
<time>2011-04-29T23:19:45Z</time>
<desc>lat.=21.213650, lon.=105.897659, Alt.=2.717623m. Speed=80.639999m/h.</desc>
<speed>22.400000</speed>
</trkpt>
<trkpt lat="21.213373" lon="105.898689">
<ele>4.919376</ele>
<time>2011-04-29T23:19:50Z</time>
<desc>lat.=21.213373, lon.=105.898689, Alt.=4.919376m. Speed=79.848000m/h.</desc>
<speed>22.180000</speed>
</trkpt>
<trkpt lat="21.213095" lon="105.899719">
<ele>7.543644</ele>
<time>2011-04-29T23:19:55Z</time>
<desc>lat.=21.213095, lon.=105.899719, Alt.=7.543644m. Speed=79.416000m/h.</desc>
<speed>22.060000</speed>
</trkpt>
<trkpt lat="21.212828" lon="105.900749">
<ele>7.831608</ele>
<time>2011-04-29T23:20:00Z</time>
<desc>lat.=21.212828, lon.=105.900749, Alt.=7.831608m. Speed=80.244003m/h.</desc>
<speed>22.290001</speed>
</trkpt>
<trkpt lat="21.212582" lon="105.901802">
<ele>9.737679</ele>
<time>2011-04-29T23:20:05Z</time>
<desc>lat.=21.212582, lon.=105.901802, Alt.=9.737679m. Speed=82.223999m/h.</desc>
<speed>22.840000</speed>
</trkpt>
<trkpt lat="21.212370" lon="105.902832">
<ele>10.681526</ele>
<time>2011-04-29T23:20:10Z</time>
<desc>lat.=21.212370, lon.=105.902832, Alt.=10.681526m. Speed=78.407997m/h.</desc>
<speed>21.779999</speed>
</trkpt>
<trkpt lat="21.212214" lon="105.903862">
<ele>11.673225</ele>
<time>2011-04-29T23:20:15Z</time>
<desc>lat.=21.212214, lon.=105.903862, Alt.=11.673225m. Speed=77.760002m/h.</desc>
<speed>21.600001</speed>
</trkpt>
<trkpt lat="21.212109" lon="105.904877">
<ele>10.391243</ele>
<time>2011-04-29T23:20:20Z</time>
<desc>lat.=21.212109, lon.=105.904877, Alt.=10.391243m. Speed=76.211998m/h.</desc>
<speed>21.169999</speed>
</trkpt>
<trkpt lat="21.212030" lon="105.905884">
<ele>10.870735</ele>
<time>2011-04-29T23:20:25Z</time>
<desc>lat.=21.212030, lon.=105.905884, Alt.=10.870735m. Speed=75.744003m/h.</desc>
<speed>21.040001</speed>
</trkpt>
<trkpt lat="21.212008" lon="105.906929">
<ele>9.078987</ele>
<time>2011-04-29T23:20:30Z</time>
<desc>lat.=21.212008, lon.=105.906929, Alt.=9.078987m. Speed=78.120003m/h.</desc>
<speed>21.700001</speed>
</trkpt>
<trkpt lat="21.212011" lon="105.907974">
<ele>9.004768</ele>
<time>2011-04-29T23:20:35Z</time>
<desc>lat.=21.212011, lon.=105.907974, Alt.=9.004768m. Speed=76.788002m/h.</desc>
<speed>21.330001</speed>
</trkpt>
<trkpt lat="21.212036" lon="105.909004">
<ele>10.384163</ele>
<time>2011-04-29T23:20:40Z</time>
<desc>lat.=21.212036, lon.=105.909004, Alt.=10.384163m. Speed=76.428001m/h.</desc>
<speed>21.230000</speed>
</trkpt>
<trkpt lat="21.212082" lon="105.910034">
<ele>11.502083</ele>
<time>2011-04-29T23:20:45Z</time>
<desc>lat.=21.212082, lon.=105.910034, Alt.=11.502083m. Speed=75.888000m/h.</desc>
<speed>21.080000</speed>
</trkpt>
<trkpt lat="21.212147" lon="105.911049">
<ele>12.061409</ele>
<time>2011-04-29T23:20:50Z</time>
<desc>lat.=21.212147, lon.=105.911049, Alt.=12.061409m. Speed=74.916000m/h.</desc>
<speed>20.810000</speed>
</trkpt>
<trkpt lat="21.212164" lon="105.912079">
<ele>13.616096</ele>
<time>2011-04-29T23:20:55Z</time>
<desc>lat.=21.212164, lon.=105.912079, Alt.=13.616096m. Speed=75.419998m/h.</desc>
<speed>20.949999</speed>
</trkpt>
<trkpt lat="21.212172" lon="105.913063">
<ele>15.014290</ele>
<time>2011-04-29T23:21:00Z</time>
<desc>lat.=21.212172, lon.=105.913063, Alt.=15.014290m. Speed=71.099998m/h.</desc>
<speed>19.750000</speed>
</trkpt>
<trkpt lat="21.212147" lon="105.914024">
<ele>14.856575</ele>
<time>2011-04-29T23:21:05Z</time>
<desc>lat.=21.212147, lon.=105.914024, Alt.=14.856575m. Speed=69.875999m/h.</desc>
<speed>19.410000</speed>
</trkpt>
<trkpt lat="21.212154" lon="105.914978">
<ele>13.654182</ele>
<time>2011-04-29T23:21:10Z</time>
<desc>lat.=21.212154, lon.=105.914978, Alt.=13.654182m. Speed=69.624001m/h.</desc>
<speed>19.340000</speed>
</trkpt>
<trkpt lat="21.212137" lon="105.915894">
<ele>15.410530</ele>
<time>2011-04-29T23:21:15Z</time>
<desc>lat.=21.212137, lon.=105.915894, Alt.=15.410530m. Speed=62.243999m/h.</desc>
<speed>17.290000</speed>
</trkpt>
<trkpt lat="21.212130" lon="105.916710">
<ele>15.890511</ele>
<time>2011-04-29T23:21:20Z</time>
<desc>lat.=21.212130, lon.=105.916710, Alt.=15.890511m. Speed=59.040001m/h.</desc>
<speed>16.400000</speed>
</trkpt>
<trkpt lat="21.212101" lon="105.917534">
<ele>15.179085</ele>
<time>2011-04-29T23:21:25Z</time>
<desc>lat.=21.212101, lon.=105.917534, Alt.=15.179085m. Speed=60.515999m/h.</desc>
<speed>16.810000</speed>
</trkpt>
<trkpt lat="21.212046" lon="105.918350">
<ele>13.415657</ele>
<time>2011-04-29T23:21:30Z</time>
<desc>lat.=21.212046, lon.=105.918350, Alt.=13.415657m. Speed=60.012001m/h.</desc>
<speed>16.670000</speed>
</trkpt>
<trkpt lat="21.212030" lon="105.919205">
<ele>14.723030</ele>
<time>2011-04-29T23:21:35Z</time>
<desc>lat.=21.212030, lon.=105.919205, Alt.=14.723030m. Speed=67.139999m/h.</desc>
<speed>18.650000</speed>
</trkpt>
<trkpt lat="21.212000" lon="105.920143">
<ele>15.347542</ele>
<time>2011-04-29T23:21:40Z</time>
<desc>lat.=21.212000, lon.=105.920143, Alt.=15.347542m. Speed=70.848000m/h.</desc>
<speed>19.680000</speed>
</trkpt>
<trkpt lat="21.211979" lon="105.921127">
<ele>15.291878</ele>
<time>2011-04-29T23:21:45Z</time>
<desc>lat.=21.211979, lon.=105.921127, Alt.=15.291878m. Speed=74.772003m/h.</desc>
<speed>20.770001</speed>
</trkpt>
<trkpt lat="21.211948" lon="105.922180">
<ele>16.359634</ele>
<time>2011-04-29T23:21:50Z</time>
<desc>lat.=21.211948, lon.=105.922180, Alt.=16.359634m. Speed=81.071999m/h.</desc>
<speed>22.520000</speed>
</trkpt>
<trkpt lat="21.211906" lon="105.923294">
<ele>14.895882</ele>
<time>2011-04-29T23:21:55Z</time>
<desc>lat.=21.211906, lon.=105.923294, Alt.=14.895882m. Speed=87.012001m/h.</desc>
<speed>24.170000</speed>
</trkpt>
<trkpt lat="21.211809" lon="105.924484">
<ele>14.147102</ele>
<time>2011-04-29T23:22:00Z</time>
<desc>lat.=21.211809, lon.=105.924484, Alt.=14.147102m. Speed=89.748001m/h.</desc>
<speed>24.930000</speed>
</trkpt>
<trkpt lat="21.211706" lon="105.925682">
<ele>12.618782</ele>
<time>2011-04-29T23:22:05Z</time>
<desc>lat.=21.211706, lon.=105.925682, Alt.=12.618782m. Speed=89.603996m/h.</desc>
<speed>24.889999</speed>
</trkpt>
<trkpt lat="21.211555" lon="105.926872">
<ele>14.536507</ele>
<time>2011-04-29T23:22:10Z</time>
<desc>lat.=21.211555, lon.=105.926872, Alt.=14.536507m. Speed=89.928001m/h.</desc>
<speed>24.980000</speed>
</trkpt>
<trkpt lat="21.211355" lon="105.928070">
<ele>14.959114</ele>
<time>2011-04-29T23:22:15Z</time>
<desc>lat.=21.211355, lon.=105.928070, Alt.=14.959114m. Speed=91.547997m/h.</desc>
<speed>25.429999</speed>
</trkpt>
<trkpt lat="21.211082" lon="105.929306">
<ele>11.593880</ele>
<time>2011-04-29T23:22:20Z</time>
<desc>lat.=21.211082, lon.=105.929306, Alt.=11.593880m. Speed=94.823997m/h.</desc>
<speed>26.339999</speed>
</trkpt>
<trkpt lat="21.210768" lon="105.930534">
<ele>7.142155</ele>
<time>2011-04-29T23:22:25Z</time>
<desc>lat.=21.210768, lon.=105.930534, Alt.=7.142155m. Speed=95.688004m/h.</desc>
<speed>26.580001</speed>
</trkpt>
<trkpt lat="21.210411" lon="105.931763">
<ele>6.627506</ele>
<time>2011-04-29T23:22:30Z</time>
<desc>lat.=21.210411, lon.=105.931763, Alt.=6.627506m. Speed=94.716003m/h.</desc>
<speed>26.310001</speed>
</trkpt>
<trkpt lat="21.210033" lon="105.932968">
<ele>7.526920</ele>
<time>2011-04-29T23:22:35Z</time>
<desc>lat.=21.210033, lon.=105.932968, Alt.=7.526920m. Speed=95.183998m/h.</desc>
<speed>26.439999</speed>
</trkpt>
<trkpt lat="21.209669" lon="105.934174">
<ele>8.562874</ele>
<time>2011-04-29T23:22:40Z</time>
<desc>lat.=21.209669, lon.=105.934174, Alt.=8.562874m. Speed=94.716003m/h.</desc>
<speed>26.310001</speed>
</trkpt>
<trkpt lat="21.209305" lon="105.935364">
<ele>8.558723</ele>
<time>2011-04-29T23:22:45Z</time>
<desc>lat.=21.209305, lon.=105.935364, Alt.=8.558723m. Speed=93.816002m/h.</desc>
<speed>26.060001</speed>
</trkpt>
<trkpt lat="21.208954" lon="105.936539">
<ele>8.413216</ele>
<time>2011-04-29T23:22:50Z</time>
<desc>lat.=21.208954, lon.=105.936539, Alt.=8.413216m. Speed=92.339996m/h.</desc>
<speed>25.649999</speed>
</trkpt>
<trkpt lat="21.208580" lon="105.937691">
<ele>8.778206</ele>
<time>2011-04-29T23:22:55Z</time>
<desc>lat.=21.208580, lon.=105.937691, Alt.=8.778206m. Speed=90.863998m/h.</desc>
<speed>25.240000</speed>
</trkpt>
<trkpt lat="21.208212" lon="105.938850">
<ele>10.376350</ele>
<time>2011-04-29T23:23:00Z</time>
<desc>lat.=21.208212, lon.=105.938850, Alt.=10.376350m. Speed=92.519997m/h.</desc>
<speed>25.699999</speed>
</trkpt>
<trkpt lat="21.207853" lon="105.940025">
<ele>12.066292</ele>
<time>2011-04-29T23:23:05Z</time>
<desc>lat.=21.207853, lon.=105.940025, Alt.=12.066292m. Speed=93.132004m/h.</desc>
<speed>25.870001</speed>
</trkpt>
<trkpt lat="21.207474" lon="105.941216">
<ele>13.455940</ele>
<time>2011-04-29T23:23:10Z</time>
<desc>lat.=21.207474, lon.=105.941216, Alt.=13.455940m. Speed=90.720001m/h.</desc>
<speed>25.200000</speed>
</trkpt>
<trkpt lat="21.207106" lon="105.942390">
<ele>12.196175</ele>
<time>2011-04-29T23:23:15Z</time>
<desc>lat.=21.207106, lon.=105.942390, Alt.=12.196175m. Speed=91.260002m/h.</desc>
<speed>25.350001</speed>
</trkpt>
<trkpt lat="21.206751" lon="105.943535">
<ele>11.950081</ele>
<time>2011-04-29T23:23:20Z</time>
<desc>lat.=21.206751, lon.=105.943535, Alt.=11.950081m. Speed=90.648003m/h.</desc>
<speed>25.180001</speed>
</trkpt>
<trkpt lat="21.206415" lon="105.944687">
<ele>9.401741</ele>
<time>2011-04-29T23:23:25Z</time>
<desc>lat.=21.206415, lon.=105.944687, Alt.=9.401741m. Speed=91.475998m/h.</desc>
<speed>25.409999</speed>
</trkpt>
<trkpt lat="21.206097" lon="105.945885">
<ele>8.702278</ele>
<time>2011-04-29T23:23:30Z</time>
<desc>lat.=21.206097, lon.=105.945885, Alt.=8.702278m. Speed=93.528000m/h.</desc>
<speed>25.980000</speed>
</trkpt>
<trkpt lat="21.205763" lon="105.947075">
<ele>9.997932</ele>
<time>2011-04-29T23:23:35Z</time>
<desc>lat.=21.205763, lon.=105.947075, Alt.=9.997932m. Speed=92.052002m/h.</desc>
<speed>25.570001</speed>
</trkpt>
<trkpt lat="21.205444" lon="105.948265">
<ele>10.859749</ele>
<time>2011-04-29T23:23:40Z</time>
<desc>lat.=21.205444, lon.=105.948265, Alt.=10.859749m. Speed=90.216003m/h.</desc>
<speed>25.060001</speed>
</trkpt>
<trkpt lat="21.205145" lon="105.949425">
<ele>11.773323</ele>
<time>2011-04-29T23:23:45Z</time>
<desc>lat.=21.205145, lon.=105.949425, Alt.=11.773323m. Speed=90.180000m/h.</desc>
<speed>25.050000</speed>
</trkpt>
<trkpt lat="21.204838" lon="105.950600">
<ele>12.194954</ele>
<time>2011-04-29T23:23:50Z</time>
<desc>lat.=21.204838, lon.=105.950600, Alt.=12.194954m. Speed=93.167999m/h.</desc>
<speed>25.880000</speed>
</trkpt>
<trkpt lat="21.204496" lon="105.951820">
<ele>10.175911</ele>
<time>2011-04-29T23:23:55Z</time>
<desc>lat.=21.204496, lon.=105.951820, Alt.=10.175911m. Speed=94.320000m/h.</desc>
<speed>26.200000</speed>
</trkpt>
<trkpt lat="21.204189" lon="105.953011">
<ele>9.598763</ele>
<time>2011-04-29T23:24:00Z</time>
<desc>lat.=21.204189, lon.=105.953011, Alt.=9.598763m. Speed=92.447998m/h.</desc>
<speed>25.679999</speed>
</trkpt>
<trkpt lat="21.203867" lon="105.954216">
<ele>7.024479</ele>
<time>2011-04-29T23:24:05Z</time>
<desc>lat.=21.203867, lon.=105.954216, Alt.=7.024479m. Speed=92.627998m/h.</desc>
<speed>25.730000</speed>
</trkpt>
<trkpt lat="21.203571" lon="105.955368">
<ele>2.423189</ele>
<time>2011-04-29T23:24:10Z</time>
<desc>lat.=21.203571, lon.=105.955368, Alt.=2.423189m. Speed=84.636002m/h.</desc>
<speed>23.510000</speed>
</trkpt>
<trkpt lat="21.203295" lon="105.956406">
<ele>-0.185690</ele>
<time>2011-04-29T23:24:15Z</time>
<desc>lat.=21.203295, lon.=105.956406, Alt.=-0.185690m. Speed=77.112000m/h.</desc>
<speed>21.420000</speed>
</trkpt>
<trkpt lat="21.203056" lon="105.957291">
<ele>-1.461228</ele>
<time>2011-04-29T23:24:20Z</time>
<desc>lat.=21.203056, lon.=105.957291, Alt.=-1.461228m. Speed=62.820000m/h.</desc>
<speed>17.450000</speed>
</trkpt>
<trkpt lat="21.202887" lon="105.957947">
<ele>-2.086519</ele>
<time>2011-04-29T23:24:25Z</time>
<desc>lat.=21.202887, lon.=105.957947, Alt.=-2.086519m. Speed=37.116001m/h.</desc>
<speed>10.310000</speed>
</trkpt>
<trkpt lat="21.202805" lon="105.958206">
<ele>-1.407853</ele>
<time>2011-04-29T23:24:30Z</time>
<desc>lat.=21.202805, lon.=105.958206, Alt.=-1.407853m. Speed=4.464000m/h.</desc>
<speed>1.240000</speed>
</trkpt>
<trkpt lat="21.202791" lon="105.958214">
<ele>-0.988152</ele>
<time>2011-04-29T23:24:35Z</time>
<desc>lat.=21.202791, lon.=105.958214, Alt.=-0.988152m. Speed=0.720000m/h.</desc>
<speed>0.200000</speed>
</trkpt>
<trkpt lat="21.202791" lon="105.958221">
<ele>-0.981728</ele>
<time>2011-04-29T23:24:40Z</time>
<desc>lat.=21.202791, lon.=105.958221, Alt.=-0.981728m. Speed=1.368000m/h.</desc>
<speed>0.380000</speed>
</trkpt>
<trkpt lat="21.202785" lon="105.958229">
<ele>-0.963341</ele>
<time>2011-04-29T23:24:45Z</time>
<desc>lat.=21.202785, lon.=105.958229, Alt.=-0.963341m. Speed=1.440000m/h.</desc>
<speed>0.400000</speed>
</trkpt>
<trkpt lat="21.202782" lon="105.958237">
<ele>-0.952950</ele>
<time>2011-04-29T23:24:50Z</time>
<desc>lat.=21.202782, lon.=105.958237, Alt.=-0.952950m. Speed=0.216000m/h.</desc>
<speed>0.060000</speed>
</trkpt>
<trkpt lat="21.202785" lon="105.958267">
<ele>-0.831780</ele>
<time>2011-04-29T23:24:55Z</time>
<desc>lat.=21.202785, lon.=105.958267, Alt.=-0.831780m. Speed=7.272000m/h.</desc>
<speed>2.020000</speed>
</trkpt>
<trkpt lat="21.202732" lon="105.958542">
<ele>0.676781</ele>
<time>2011-04-29T23:25:00Z</time>
<desc>lat.=21.202732, lon.=105.958542, Alt.=0.676781m. Speed=24.660000m/h.</desc>
<speed>6.850000</speed>
</trkpt>
<trkpt lat="21.202650" lon="105.958916">
<ele>-0.532067</ele>
<time>2011-04-29T23:25:05Z</time>
<desc>lat.=21.202650, lon.=105.958916, Alt.=-0.532067m. Speed=35.136002m/h.</desc>
<speed>9.760000</speed>
</trkpt>
<trkpt lat="21.202486" lon="105.959457">
<ele>0.121152</ele>
<time>2011-04-29T23:25:10Z</time>
<desc>lat.=21.202486, lon.=105.959457, Alt.=0.121152m. Speed=43.596001m/h.</desc>
<speed>12.110000</speed>
</trkpt>
<trkpt lat="21.202326" lon="105.960060">
<ele>0.502984</ele>
<time>2011-04-29T23:25:15Z</time>
<desc>lat.=21.202326, lon.=105.960060, Alt.=0.502984m. Speed=50.868000m/h.</desc>
<speed>14.130000</speed>
</trkpt>
<trkpt lat="21.202129" lon="105.960800">
<ele>1.913194</ele>
<time>2011-04-29T23:25:20Z</time>
<desc>lat.=21.202129, lon.=105.960800, Alt.=1.913194m. Speed=59.543999m/h.</desc>
<speed>16.540000</speed>
</trkpt>
<trkpt lat="21.201910" lon="105.961632">
<ele>2.585054</ele>
<time>2011-04-29T23:25:25Z</time>
<desc>lat.=21.201910, lon.=105.961632, Alt.=2.585054m. Speed=65.087997m/h.</desc>
<speed>18.079999</speed>
</trkpt>
<trkpt lat="21.201702" lon="105.962517">
<ele>1.593461</ele>
<time>2011-04-29T23:25:30Z</time>
<desc>lat.=21.201702, lon.=105.962517, Alt.=1.593461m. Speed=69.515999m/h.</desc>
<speed>19.310000</speed>
</trkpt>
<trkpt lat="21.201458" lon="105.963455">
<ele>-0.153914</ele>
<time>2011-04-29T23:25:35Z</time>
<desc>lat.=21.201458, lon.=105.963455, Alt.=-0.153914m. Speed=73.043999m/h.</desc>
<speed>20.290000</speed>
</trkpt>
<trkpt lat="21.201218" lon="105.964417">
<ele>1.139024</ele>
<time>2011-04-29T23:25:40Z</time>
<desc>lat.=21.201218, lon.=105.964417, Alt.=1.139024m. Speed=74.160004m/h.</desc>
<speed>20.600001</speed>
</trkpt>
<trkpt lat="21.200968" lon="105.965401">
<ele>2.191927</ele>
<time>2011-04-29T23:25:45Z</time>
<desc>lat.=21.200968, lon.=105.965401, Alt.=2.191927m. Speed=75.888000m/h.</desc>
<speed>21.080000</speed>
</trkpt>
<trkpt lat="21.200714" lon="105.966408">
<ele>2.185823</ele>
<time>2011-04-29T23:25:50Z</time>
<desc>lat.=21.200714, lon.=105.966408, Alt.=2.185823m. Speed=79.991997m/h.</desc>
<speed>22.219999</speed>
</trkpt>
<trkpt lat="21.200445" lon="105.967453">
<ele>-0.667717</ele>
<time>2011-04-29T23:25:55Z</time>
<desc>lat.=21.200445, lon.=105.967453, Alt.=-0.667717m. Speed=80.316002m/h.</desc>
<speed>22.310001</speed>
</trkpt>
<trkpt lat="21.200180" lon="105.968491">
<ele>-1.703782</ele>
<time>2011-04-29T23:26:00Z</time>
<desc>lat.=21.200180, lon.=105.968491, Alt.=-1.703782m. Speed=79.272003m/h.</desc>
<speed>22.020001</speed>
</trkpt>
<trkpt lat="21.199921" lon="105.969498">
<ele>-2.200045</ele>
<time>2011-04-29T23:26:05Z</time>
<desc>lat.=21.199921, lon.=105.969498, Alt.=-2.200045m. Speed=79.739998m/h.</desc>
<speed>22.149999</speed>
</trkpt>
<trkpt lat="21.199654" lon="105.970543">
<ele>-1.720750</ele>
<time>2011-04-29T23:26:10Z</time>
<desc>lat.=21.199654, lon.=105.970543, Alt.=-1.720750m. Speed=81.935997m/h.</desc>
<speed>22.759999</speed>
</trkpt>
<trkpt lat="21.199371" lon="105.971596">
<ele>-0.882775</ele>
<time>2011-04-29T23:26:15Z</time>
<desc>lat.=21.199371, lon.=105.971596, Alt.=-0.882775m. Speed=80.568001m/h.</desc>
<speed>22.380000</speed>
</trkpt>
<trkpt lat="21.199104" lon="105.972656">
<ele>0.990990</ele>
<time>2011-04-29T23:26:20Z</time>
<desc>lat.=21.199104, lon.=105.972656, Alt.=0.990990m. Speed=81.468002m/h.</desc>
<speed>22.630001</speed>
</trkpt>
<trkpt lat="21.198851" lon="105.973709">
<ele>0.584084</ele>
<time>2011-04-29T23:26:25Z</time>
<desc>lat.=21.198851, lon.=105.973709, Alt.=0.584084m. Speed=81.360001m/h.</desc>
<speed>22.600000</speed>
</trkpt>
<trkpt lat="21.198645" lon="105.974762">
<ele>0.483937</ele>
<time>2011-04-29T23:26:30Z</time>
<desc>lat.=21.198645, lon.=105.974762, Alt.=0.483937m. Speed=81.071999m/h.</desc>
<speed>22.520000</speed>
</trkpt>
<trkpt lat="21.198469" lon="105.975815">
<ele>1.055833</ele>
<time>2011-04-29T23:26:35Z</time>
<desc>lat.=21.198469, lon.=105.975815, Alt.=1.055833m. Speed=81.143997m/h.</desc>
<speed>22.539999</speed>
</trkpt>
<trkpt lat="21.198278" lon="105.976883">
<ele>1.325639</ele>
<time>2011-04-29T23:26:40Z</time>
<desc>lat.=21.198278, lon.=105.976883, Alt.=1.325639m. Speed=81.503998m/h.</desc>
<speed>22.639999</speed>
</trkpt>
<trkpt lat="21.198114" lon="105.977959">
<ele>2.517672</ele>
<time>2011-04-29T23:26:45Z</time>
<desc>lat.=21.198114, lon.=105.977959, Alt.=2.517672m. Speed=80.316002m/h.</desc>
<speed>22.310001</speed>
</trkpt>
<trkpt lat="21.197987" lon="105.979065">
<ele>3.039156</ele>
<time>2011-04-29T23:26:50Z</time>
<desc>lat.=21.197987, lon.=105.979065, Alt.=3.039156m. Speed=82.547997m/h.</desc>
<speed>22.929999</speed>
</trkpt>
<trkpt lat="21.197863" lon="105.980171">
<ele>2.578524</ele>
<time>2011-04-29T23:26:55Z</time>
<desc>lat.=21.197863, lon.=105.980171, Alt.=2.578524m. Speed=83.952003m/h.</desc>
<speed>23.320001</speed>
</trkpt>
<trkpt lat="21.197737" lon="105.981285">
<ele>4.303165</ele>
<time>2011-04-29T23:27:00Z</time>
<desc>lat.=21.197737, lon.=105.981285, Alt.=4.303165m. Speed=87.047997m/h.</desc>
<speed>24.179999</speed>
</trkpt>
<trkpt lat="21.197601" lon="105.982445">
<ele>4.318546</ele>
<time>2011-04-29T23:27:05Z</time>
<desc>lat.=21.197601, lon.=105.982445, Alt.=4.318546m. Speed=87.192001m/h.</desc>
<speed>24.220000</speed>
</trkpt>
<trkpt lat="21.197485" lon="105.983620">
<ele>3.736483</ele>
<time>2011-04-29T23:27:10Z</time>
<desc>lat.=21.197485, lon.=105.983620, Alt.=3.736483m. Speed=88.991997m/h.</desc>
<speed>24.719999</speed>
</trkpt>
<trkpt lat="21.197357" lon="105.984795">
<ele>4.377384</ele>
<time>2011-04-29T23:27:15Z</time>
<desc>lat.=21.197357, lon.=105.984795, Alt.=4.377384m. Speed=86.940002m/h.</desc>
<speed>24.150001</speed>
</trkpt>
<trkpt lat="21.197222" lon="105.985947">
<ele>4.161686</ele>
<time>2011-04-29T23:27:20Z</time>
<desc>lat.=21.197222, lon.=105.985947, Alt.=4.161686m. Speed=85.860001m/h.</desc>
<speed>23.850000</speed>
</trkpt>
<trkpt lat="21.197094" lon="105.987045">
<ele>5.758610</ele>
<time>2011-04-29T23:27:25Z</time>
<desc>lat.=21.197094, lon.=105.987045, Alt.=5.758610m. Speed=81.612000m/h.</desc>
<speed>22.670000</speed>
</trkpt>
<trkpt lat="21.196980" lon="105.988121">
<ele>5.452091</ele>
<time>2011-04-29T23:27:30Z</time>
<desc>lat.=21.196980, lon.=105.988121, Alt.=5.452091m. Speed=80.388000m/h.</desc>
<speed>22.330000</speed>
</trkpt>
<trkpt lat="21.196863" lon="105.989166">
<ele>4.388004</ele>
<time>2011-04-29T23:27:35Z</time>
<desc>lat.=21.196863, lon.=105.989166, Alt.=4.388004m. Speed=77.760002m/h.</desc>
<speed>21.600001</speed>
</trkpt>
<trkpt lat="21.196714" lon="105.990166">
<ele>3.878450</ele>
<time>2011-04-29T23:27:40Z</time>
<desc>lat.=21.196714, lon.=105.990166, Alt.=3.878450m. Speed=71.136002m/h.</desc>
<speed>19.760000</speed>
</trkpt>
<trkpt lat="21.196550" lon="105.991051">
<ele>4.338078</ele>
<time>2011-04-29T23:27:45Z</time>
<desc>lat.=21.196550, lon.=105.991051, Alt.=4.338078m. Speed=64.295998m/h.</desc>
<speed>17.859999</speed>
</trkpt>
<trkpt lat="21.196377" lon="105.991829">
<ele>5.745914</ele>
<time>2011-04-29T23:27:50Z</time>
<desc>lat.=21.196377, lon.=105.991829, Alt.=5.745914m. Speed=61.020000m/h.</desc>
<speed>16.950000</speed>
</trkpt>
<trkpt lat="21.196196" lon="105.992554">
<ele>6.274235</ele>
<time>2011-04-29T23:27:55Z</time>
<desc>lat.=21.196196, lon.=105.992554, Alt.=6.274235m. Speed=46.944000m/h.</desc>
<speed>13.040000</speed>
</trkpt>
<trkpt lat="21.196070" lon="105.993088">
<ele>7.637882</ele>
<time>2011-04-29T23:28:00Z</time>
<desc>lat.=21.196070, lon.=105.993088, Alt.=7.637882m. Speed=31.896000m/h.</desc>
<speed>8.860000</speed>
</trkpt>
<trkpt lat="21.196026" lon="105.993248">
<ele>8.306038</ele>
<time>2011-04-29T23:28:05Z</time>
<desc>lat.=21.196026, lon.=105.993248, Alt.=8.306038m. Speed=5.796000m/h.</desc>
<speed>1.610000</speed>
</trkpt>
<trkpt lat="21.195976" lon="105.993416">
<ele>6.541569</ele>
<time>2011-04-29T23:28:10Z</time>
<desc>lat.=21.195976, lon.=105.993416, Alt.=6.541569m. Speed=22.320000m/h.</desc>
<speed>6.200000</speed>
</trkpt>
<trkpt lat="21.195866" lon="105.993744">
<ele>7.338810</ele>
<time>2011-04-29T23:28:15Z</time>
<desc>lat.=21.195866, lon.=105.993744, Alt.=7.338810m. Speed=30.384001m/h.</desc>
<speed>8.440000</speed>
</trkpt>
<trkpt lat="21.195719" lon="105.994179">
<ele>8.993538</ele>
<time>2011-04-29T23:28:20Z</time>
<desc>lat.=21.195719, lon.=105.994179, Alt.=8.993538m. Speed=36.972000m/h.</desc>
<speed>10.270000</speed>
</trkpt>
<trkpt lat="21.195545" lon="105.994682">
<ele>8.624153</ele>
<time>2011-04-29T23:28:25Z</time>
<desc>lat.=21.195545, lon.=105.994682, Alt.=8.624153m. Speed=40.535999m/h.</desc>
<speed>11.260000</speed>
</trkpt>
<trkpt lat="21.195333" lon="105.995262">
<ele>6.453312</ele>
<time>2011-04-29T23:28:30Z</time>
<desc>lat.=21.195333, lon.=105.995262, Alt.=6.453312m. Speed=46.116001m/h.</desc>
<speed>12.810000</speed>
</trkpt>
<trkpt lat="21.195078" lon="105.995903">
<ele>1.108171</ele>
<time>2011-04-29T23:28:35Z</time>
<desc>lat.=21.195078, lon.=105.995903, Alt.=1.108171m. Speed=55.655998m/h.</desc>
<speed>15.460000</speed>
</trkpt>
<trkpt lat="21.194756" lon="105.996651">
<ele>0.023732</ele>
<time>2011-04-29T23:28:40Z</time>
<desc>lat.=21.194756, lon.=105.996651, Alt.=0.023732m. Speed=63.180000m/h.</desc>
<speed>17.550000</speed>
</trkpt>
<trkpt lat="21.194397" lon="105.997437">
<ele>-2.581820</ele>
<time>2011-04-29T23:28:45Z</time>
<desc>lat.=21.194397, lon.=105.997437, Alt.=-2.581820m. Speed=66.564003m/h.</desc>
<speed>18.490001</speed>
</trkpt>
<trkpt lat="21.193991" lon="105.998245">
<ele>-3.086641</ele>
<time>2011-04-29T23:28:50Z</time>
<desc>lat.=21.193991, lon.=105.998245, Alt.=-3.086641m. Speed=68.112000m/h.</desc>
<speed>18.920000</speed>
</trkpt>
<trkpt lat="21.193562" lon="105.999016">
<ele>-1.548783</ele>
<time>2011-04-29T23:28:55Z</time>
<desc>lat.=21.193562, lon.=105.999016, Alt.=-1.548783m. Speed=65.556000m/h.</desc>
<speed>18.210000</speed>
</trkpt>
<trkpt lat="21.193119" lon="105.999733">
<ele>1.849229</ele>
<time>2011-04-29T23:29:00Z</time>
<desc>lat.=21.193119, lon.=105.999733, Alt.=1.849229m. Speed=64.440002m/h.</desc>
<speed>17.900001</speed>
</trkpt>
<trkpt lat="21.192657" lon="106.000435">
<ele>1.925645</ele>
<time>2011-04-29T23:29:05Z</time>
<desc>lat.=21.192657, lon.=106.000435, Alt.=1.925645m. Speed=65.052002m/h.</desc>
<speed>18.070001</speed>
</trkpt>
<trkpt lat="21.192169" lon="106.001114">
<ele>1.615952</ele>
<time>2011-04-29T23:29:10Z</time>
<desc>lat.=21.192169, lon.=106.001114, Alt.=1.615952m. Speed=63.180000m/h.</desc>
<speed>17.550000</speed>
</trkpt>
<trkpt lat="21.191683" lon="106.001747">
<ele>3.364962</ele>
<time>2011-04-29T23:29:15Z</time>
<desc>lat.=21.191683, lon.=106.001747, Alt.=3.364962m. Speed=57.348000m/h.</desc>
<speed>15.930000</speed>
</trkpt>
<trkpt lat="21.191196" lon="106.002342">
<ele>1.515946</ele>
<time>2011-04-29T23:29:20Z</time>
<desc>lat.=21.191196, lon.=106.002342, Alt.=1.515946m. Speed=59.796001m/h.</desc>
<speed>16.610000</speed>
</trkpt>
<trkpt lat="21.190653" lon="106.002968">
<ele>3.868074</ele>
<time>2011-04-29T23:29:25Z</time>
<desc>lat.=21.190653, lon.=106.002968, Alt.=3.868074m. Speed=66.419998m/h.</desc>
<speed>18.449999</speed>
</trkpt>
<trkpt lat="21.190065" lon="106.003593">
<ele>7.529606</ele>
<time>2011-04-29T23:29:30Z</time>
<desc>lat.=21.190065, lon.=106.003593, Alt.=7.529606m. Speed=65.807999m/h.</desc>
<speed>18.280000</speed>
</trkpt>
<trkpt lat="21.189432" lon="106.004204">
<ele>9.988655</ele>
<time>2011-04-29T23:29:35Z</time>
<desc>lat.=21.189432, lon.=106.004204, Alt.=9.988655m. Speed=68.543999m/h.</desc>
<speed>19.040000</speed>
</trkpt>
<trkpt lat="21.188776" lon="106.004814">
<ele>10.675911</ele>
<time>2011-04-29T23:29:40Z</time>
<desc>lat.=21.188776, lon.=106.004814, Alt.=10.675911m. Speed=66.059998m/h.</desc>
<speed>18.349999</speed>
</trkpt>
<trkpt lat="21.188137" lon="106.005386">
<ele>9.071663</ele>
<time>2011-04-29T23:29:45Z</time>
<desc>lat.=21.188137, lon.=106.005386, Alt.=9.071663m. Speed=64.440002m/h.</desc>
<speed>17.900001</speed>
</trkpt>
<trkpt lat="21.187527" lon="106.005974">
<ele>8.723518</ele>
<time>2011-04-29T23:29:50Z</time>
<desc>lat.=21.187527, lon.=106.005974, Alt.=8.723518m. Speed=64.692001m/h.</desc>
<speed>17.970000</speed>
</trkpt>
<trkpt lat="21.186909" lon="106.006546">
<ele>8.319710</ele>
<time>2011-04-29T23:29:55Z</time>
<desc>lat.=21.186909, lon.=106.006546, Alt.=8.319710m. Speed=65.232002m/h.</desc>
<speed>18.120001</speed>
</trkpt>
<trkpt lat="21.186327" lon="106.007126">
<ele>5.409611</ele>
<time>2011-04-29T23:30:00Z</time>
<desc>lat.=21.186327, lon.=106.007126, Alt.=5.409611m. Speed=67.896004m/h.</desc>
<speed>18.860001</speed>
</trkpt>
<trkpt lat="21.185699" lon="106.007767">
<ele>3.747164</ele>
<time>2011-04-29T23:30:05Z</time>
<desc>lat.=21.185699, lon.=106.007767, Alt.=3.747164m. Speed=69.984001m/h.</desc>
<speed>19.440000</speed>
</trkpt>
<trkpt lat="21.185123" lon="106.008469">
<ele>5.448307</ele>
<time>2011-04-29T23:30:10Z</time>
<desc>lat.=21.185123, lon.=106.008469, Alt.=5.448307m. Speed=69.515999m/h.</desc>
<speed>19.310000</speed>
</trkpt>
<trkpt lat="21.184540" lon="106.009201">
<ele>6.823551</ele>
<time>2011-04-29T23:30:15Z</time>
<desc>lat.=21.184540, lon.=106.009201, Alt.=6.823551m. Speed=73.152000m/h.</desc>
<speed>20.320000</speed>
</trkpt>
<trkpt lat="21.183983" lon="106.010025">
<ele>6.028507</ele>
<time>2011-04-29T23:30:20Z</time>
<desc>lat.=21.183983, lon.=106.010025, Alt.=6.028507m. Speed=75.924004m/h.</desc>
<speed>21.090001</speed>
</trkpt>
<trkpt lat="21.183434" lon="106.010895">
<ele>5.780338</ele>
<time>2011-04-29T23:30:25Z</time>
<desc>lat.=21.183434, lon.=106.010895, Alt.=5.780338m. Speed=78.335999m/h.</desc>
<speed>21.760000</speed>
</trkpt>
<trkpt lat="21.182926" lon="106.011803">
<ele>4.030216</ele>
<time>2011-04-29T23:30:30Z</time>
<desc>lat.=21.182926, lon.=106.011803, Alt.=4.030216m. Speed=79.019997m/h.</desc>
<speed>21.949999</speed>
</trkpt>
<trkpt lat="21.182470" lon="106.012733">
<ele>3.732332</ele>
<time>2011-04-29T23:30:35Z</time>
<desc>lat.=21.182470, lon.=106.012733, Alt.=3.732332m. Speed=75.851997m/h.</desc>
<speed>21.069999</speed>
</trkpt>
<trkpt lat="21.182041" lon="106.013664">
<ele>1.821794</ele>
<time>2011-04-29T23:30:40Z</time>
<desc>lat.=21.182041, lon.=106.013664, Alt.=1.821794m. Speed=74.124001m/h.</desc>
<speed>20.590000</speed>
</trkpt>
<trkpt lat="21.181683" lon="106.014565">
<ele>0.873375</ele>
<time>2011-04-29T23:30:45Z</time>
<desc>lat.=21.181683, lon.=106.014565, Alt.=0.873375m. Speed=71.424004m/h.</desc>
<speed>19.840001</speed>
</trkpt>
<trkpt lat="21.181362" lon="106.015419">
<ele>1.241014</ele>
<time>2011-04-29T23:30:50Z</time>
<desc>lat.=21.181362, lon.=106.015419, Alt.=1.241014m. Speed=67.463997m/h.</desc>
<speed>18.739999</speed>
</trkpt>
<trkpt lat="21.181032" lon="106.016273">
<ele>2.530306</ele>
<time>2011-04-29T23:30:55Z</time>
<desc>lat.=21.181032, lon.=106.016273, Alt.=2.530306m. Speed=72.323997m/h.</desc>
<speed>20.089999</speed>
</trkpt>
<trkpt lat="21.180672" lon="106.017189">
<ele>0.555123</ele>
<time>2011-04-29T23:31:00Z</time>
<desc>lat.=21.180672, lon.=106.017189, Alt.=0.555123m. Speed=76.176003m/h.</desc>
<speed>21.160001</speed>
</trkpt>
<trkpt lat="21.180292" lon="106.018158">
<ele>0.115426</ele>
<time>2011-04-29T23:31:05Z</time>
<desc>lat.=21.180292, lon.=106.018158, Alt.=0.115426m. Speed=80.136002m/h.</desc>
<speed>22.260000</speed>
</trkpt>
<trkpt lat="21.179913" lon="106.019150">
<ele>-1.503800</ele>
<time>2011-04-29T23:31:10Z</time>
<desc>lat.=21.179913, lon.=106.019150, Alt.=-1.503800m. Speed=81.468002m/h.</desc>
<speed>22.630001</speed>
</trkpt>
<trkpt lat="21.179529" lon="106.020172">
<ele>-2.963533</ele>
<time>2011-04-29T23:31:15Z</time>
<desc>lat.=21.179529, lon.=106.020172, Alt.=-2.963533m. Speed=83.879997m/h.</desc>
<speed>23.299999</speed>
</trkpt>
<trkpt lat="21.179115" lon="106.021225">
<ele>-1.807237</ele>
<time>2011-04-29T23:31:20Z</time>
<desc>lat.=21.179115, lon.=106.021225, Alt.=-1.807237m. Speed=86.255997m/h.</desc>
<speed>23.959999</speed>
</trkpt>
<trkpt lat="21.178709" lon="106.022285">
<ele>-0.967370</ele>
<time>2011-04-29T23:31:25Z</time>
<desc>lat.=21.178709, lon.=106.022285, Alt.=-0.967370m. Speed=86.760002m/h.</desc>
<speed>24.100001</speed>
</trkpt>
<trkpt lat="21.178295" lon="106.023338">
<ele>-1.859879</ele>
<time>2011-04-29T23:31:30Z</time>
<desc>lat.=21.178295, lon.=106.023338, Alt.=-1.859879m. Speed=84.779999m/h.</desc>
<speed>23.550000</speed>
</trkpt>
<trkpt lat="21.177912" lon="106.024384">
<ele>-3.108004</ele>
<time>2011-04-29T23:31:35Z</time>
<desc>lat.=21.177912, lon.=106.024384, Alt.=-3.108004m. Speed=83.339996m/h.</desc>
<speed>23.149999</speed>
</trkpt>
<trkpt lat="21.177536" lon="106.025406">
<ele>-2.766817</ele>
<time>2011-04-29T23:31:40Z</time>
<desc>lat.=21.177536, lon.=106.025406, Alt.=-2.766817m. Speed=82.008003m/h.</desc>
<speed>22.780001</speed>
</trkpt>
<trkpt lat="21.177132" lon="106.026436">
<ele>-0.849389</ele>
<time>2011-04-29T23:31:45Z</time>
<desc>lat.=21.177132, lon.=106.026436, Alt.=-0.849389m. Speed=82.835999m/h.</desc>
<speed>23.010000</speed>
</trkpt>
<trkpt lat="21.176735" lon="106.027489">
<ele>0.305516</ele>
<time>2011-04-29T23:31:50Z</time>
<desc>lat.=21.176735, lon.=106.027489, Alt.=0.305516m. Speed=85.391998m/h.</desc>
<speed>23.720000</speed>
</trkpt>
<trkpt lat="21.176331" lon="106.028549">
<ele>1.406083</ele>
<time>2011-04-29T23:31:55Z</time>
<desc>lat.=21.176331, lon.=106.028549, Alt.=1.406083m. Speed=85.571999m/h.</desc>
<speed>23.770000</speed>
</trkpt>
<trkpt lat="21.175886" lon="106.029602">
<ele>2.552584</ele>
<time>2011-04-29T23:32:00Z</time>
<desc>lat.=21.175886, lon.=106.029602, Alt.=2.552584m. Speed=85.571999m/h.</desc>
<speed>23.770000</speed>
</trkpt>
<trkpt lat="21.175444" lon="106.030655">
<ele>3.123934</ele>
<time>2011-04-29T23:32:05Z</time>
<desc>lat.=21.175444, lon.=106.030655, Alt.=3.123934m. Speed=86.400002m/h.</desc>
<speed>24.000000</speed>
</trkpt>
<trkpt lat="21.174990" lon="106.031700">
<ele>2.552950</ele>
<time>2011-04-29T23:32:10Z</time>
<desc>lat.=21.174990, lon.=106.031700, Alt.=2.552950m. Speed=84.276001m/h.</desc>
<speed>23.410000</speed>
</trkpt>
<trkpt lat="21.174541" lon="106.032715">
<ele>2.778414</ele>
<time>2011-04-29T23:32:15Z</time>
<desc>lat.=21.174541, lon.=106.032715, Alt.=2.778414m. Speed=82.188004m/h.</desc>
<speed>22.830001</speed>
</trkpt>
<trkpt lat="21.174091" lon="106.033684">
<ele>2.929171</ele>
<time>2011-04-29T23:32:20Z</time>
<desc>lat.=21.174091, lon.=106.033684, Alt.=2.929171m. Speed=79.667999m/h.</desc>
<speed>22.130000</speed>
</trkpt>
<trkpt lat="21.173637" lon="106.034569">
<ele>5.664127</ele>
<time>2011-04-29T23:32:25Z</time>
<desc>lat.=21.173637, lon.=106.034569, Alt.=5.664127m. Speed=72.000000m/h.</desc>
<speed>20.000000</speed>
</trkpt>
<trkpt lat="21.173195" lon="106.035378">
<ele>6.765568</ele>
<time>2011-04-29T23:32:30Z</time>
<desc>lat.=21.173195, lon.=106.035378, Alt.=6.765568m. Speed=68.183998m/h.</desc>
<speed>18.939999</speed>
</trkpt>
<trkpt lat="21.172764" lon="106.036079">
<ele>5.810001</ele>
<time>2011-04-29T23:32:35Z</time>
<desc>lat.=21.172764, lon.=106.036079, Alt.=5.810001m. Speed=58.248001m/h.</desc>
<speed>16.180000</speed>
</trkpt>
<trkpt lat="21.172398" lon="106.036659">
<ele>5.509953</ele>
<time>2011-04-29T23:32:40Z</time>
<desc>lat.=21.172398, lon.=106.036659, Alt.=5.509953m. Speed=48.203999m/h.</desc>
<speed>13.390000</speed>
</trkpt>
<trkpt lat="21.171991" lon="106.037231">
<ele>4.891056</ele>
<time>2011-04-29T23:32:45Z</time>
<desc>lat.=21.171991, lon.=106.037231, Alt.=4.891056m. Speed=59.220001m/h.</desc>
<speed>16.450000</speed>
</trkpt>
<trkpt lat="21.171478" lon="106.037903">
<ele>5.242741</ele>
<time>2011-04-29T23:32:50Z</time>
<desc>lat.=21.171478, lon.=106.037903, Alt.=5.242741m. Speed=68.363998m/h.</desc>
<speed>18.990000</speed>
</trkpt>
<trkpt lat="21.170897" lon="106.038597">
<ele>3.857088</ele>
<time>2011-04-29T23:32:55Z</time>
<desc>lat.=21.170897, lon.=106.038597, Alt.=3.857088m. Speed=74.519997m/h.</desc>
<speed>20.699999</speed>
</trkpt>
<trkpt lat="21.170231" lon="106.039330">
<ele>1.920335</ele>
<time>2011-04-29T23:33:00Z</time>
<desc>lat.=21.170231, lon.=106.039330, Alt.=1.920335m. Speed=76.608002m/h.</desc>
<speed>21.280000</speed>
</trkpt>
<trkpt lat="21.169544" lon="106.040039">
<ele>4.007511</ele>
<time>2011-04-29T23:33:05Z</time>
<desc>lat.=21.169544, lon.=106.040039, Alt.=4.007511m. Speed=76.931999m/h.</desc>
<speed>21.370000</speed>
</trkpt>
<trkpt lat="21.168808" lon="106.040710">
<ele>9.556282</ele>
<time>2011-04-29T23:33:10Z</time>
<desc>lat.=21.168808, lon.=106.040710, Alt.=9.556282m. Speed=76.896004m/h.</desc>
<speed>21.360001</speed>
</trkpt>
<trkpt lat="21.168039" lon="106.041359">
<ele>12.773811</ele>
<time>2011-04-29T23:33:15Z</time>
<desc>lat.=21.168039, lon.=106.041359, Alt.=12.773811m. Speed=78.444000m/h.</desc>
<speed>21.790000</speed>
</trkpt>
<trkpt lat="21.167236" lon="106.041962">
<ele>14.817024</ele>
<time>2011-04-29T23:33:20Z</time>
<desc>lat.=21.167236, lon.=106.041962, Alt.=14.817024m. Speed=79.776001m/h.</desc>
<speed>22.160000</speed>
</trkpt>
<trkpt lat="21.166401" lon="106.042549">
<ele>15.123909</ele>
<time>2011-04-29T23:33:25Z</time>
<desc>lat.=21.166401, lon.=106.042549, Alt.=15.123909m. Speed=79.056000m/h.</desc>
<speed>21.960000</speed>
</trkpt>
<trkpt lat="21.165564" lon="106.043106">
<ele>12.971321</ele>
<time>2011-04-29T23:33:30Z</time>
<desc>lat.=21.165564, lon.=106.043106, Alt.=12.971321m. Speed=78.552002m/h.</desc>
<speed>21.820001</speed>
</trkpt>
<trkpt lat="21.164715" lon="106.043655">
<ele>10.086067</ele>
<time>2011-04-29T23:33:35Z</time>
<desc>lat.=21.164715, lon.=106.043655, Alt.=10.086067m. Speed=79.991997m/h.</desc>
<speed>22.219999</speed>
</trkpt>
<trkpt lat="21.163851" lon="106.044258">
<ele>7.959293</ele>
<time>2011-04-29T23:33:40Z</time>
<desc>lat.=21.163851, lon.=106.044258, Alt.=7.959293m. Speed=86.580002m/h.</desc>
<speed>24.050001</speed>
</trkpt>
<trkpt lat="21.162979" lon="106.044975">
<ele>5.095646</ele>
<time>2011-04-29T23:33:45Z</time>
<desc>lat.=21.162979, lon.=106.044975, Alt.=5.095646m. Speed=87.047997m/h.</desc>
<speed>24.179999</speed>
</trkpt>
<trkpt lat="21.162159" lon="106.045746">
<ele>7.486637</ele>
<time>2011-04-29T23:33:50Z</time>
<desc>lat.=21.162159, lon.=106.045746, Alt.=7.486637m. Speed=85.283997m/h.</desc>
<speed>23.689999</speed>
</trkpt>
<trkpt lat="21.161425" lon="106.046555">
<ele>7.516666</ele>
<time>2011-04-29T23:33:55Z</time>
<desc>lat.=21.161425, lon.=106.046555, Alt.=7.516666m. Speed=81.251999m/h.</desc>
<speed>22.570000</speed>
</trkpt>
<trkpt lat="21.160765" lon="106.047386">
<ele>5.370182</ele>
<time>2011-04-29T23:34:00Z</time>
<desc>lat.=21.160765, lon.=106.047386, Alt.=5.370182m. Speed=81.755997m/h.</desc>
<speed>22.709999</speed>
</trkpt>
<trkpt lat="21.160137" lon="106.048218">
<ele>6.512760</ele>
<time>2011-04-29T23:34:05Z</time>
<desc>lat.=21.160137, lon.=106.048218, Alt.=6.512760m. Speed=76.139999m/h.</desc>
<speed>21.150000</speed>
</trkpt>
<trkpt lat="21.159586" lon="106.048943">
<ele>6.996769</ele>
<time>2011-04-29T23:34:10Z</time>
<desc>lat.=21.159586, lon.=106.048943, Alt.=6.996769m. Speed=63.936001m/h.</desc>
<speed>17.760000</speed>
</trkpt>
<trkpt lat="21.159168" lon="106.049522">
<ele>8.756966</ele>
<time>2011-04-29T23:34:15Z</time>
<desc>lat.=21.159168, lon.=106.049522, Alt.=8.756966m. Speed=48.636002m/h.</desc>
<speed>13.510000</speed>
</trkpt>
<trkpt lat="21.158880" lon="106.050018">
<ele>7.019352</ele>
<time>2011-04-29T23:34:20Z</time>
<desc>lat.=21.158880, lon.=106.050018, Alt.=7.019352m. Speed=41.939999m/h.</desc>
<speed>11.650000</speed>
</trkpt>
<trkpt lat="21.158596" lon="106.050484">
<ele>4.850773</ele>
<time>2011-04-29T23:34:25Z</time>
<desc>lat.=21.158596, lon.=106.050484, Alt.=4.850773m. Speed=45.647999m/h.</desc>
<speed>12.680000</speed>
</trkpt>
<trkpt lat="21.158398" lon="106.051056">
<ele>2.573885</ele>
<time>2011-04-29T23:34:30Z</time>
<desc>lat.=21.158398, lon.=106.051056, Alt.=2.573885m. Speed=47.987999m/h.</desc>
<speed>13.330000</speed>
</trkpt>
<trkpt lat="21.158503" lon="106.051666">
<ele>1.359757</ele>
<time>2011-04-29T23:34:35Z</time>
<desc>lat.=21.158503, lon.=106.051666, Alt.=1.359757m. Speed=46.584000m/h.</desc>
<speed>12.940000</speed>
</trkpt>
<trkpt lat="21.158781" lon="106.052193">
<ele>1.122910</ele>
<time>2011-04-29T23:34:40Z</time>
<desc>lat.=21.158781, lon.=106.052193, Alt.=1.122910m. Speed=43.776001m/h.</desc>
<speed>12.160000</speed>
</trkpt>
<trkpt lat="21.159063" lon="106.052734">
<ele>1.422746</ele>
<time>2011-04-29T23:34:45Z</time>
<desc>lat.=21.159063, lon.=106.052734, Alt.=1.422746m. Speed=46.944000m/h.</desc>
<speed>13.040000</speed>
</trkpt>
<trkpt lat="21.159103" lon="106.053360">
<ele>1.890031</ele>
<time>2011-04-29T23:34:50Z</time>
<desc>lat.=21.159103, lon.=106.053360, Alt.=1.890031m. Speed=46.152000m/h.</desc>
<speed>12.820000</speed>
</trkpt>
<trkpt lat="21.158831" lon="106.053947">
<ele>4.003971</ele>
<time>2011-04-29T23:34:55Z</time>
<desc>lat.=21.158831, lon.=106.053947, Alt.=4.003971m. Speed=51.012001m/h.</desc>
<speed>14.170000</speed>
</trkpt>
<trkpt lat="21.158321" lon="106.054382">
<ele>7.344303</ele>
<time>2011-04-29T23:35:00Z</time>
<desc>lat.=21.158321, lon.=106.054382, Alt.=7.344303m. Speed=51.804001m/h.</desc>
<speed>14.390000</speed>
</trkpt>
<trkpt lat="21.157827" lon="106.054741">
<ele>9.283333</ele>
<time>2011-04-29T23:35:05Z</time>
<desc>lat.=21.157827, lon.=106.054741, Alt.=9.283333m. Speed=46.944000m/h.</desc>
<speed>13.040000</speed>
</trkpt>
<trkpt lat="21.157318" lon="106.055099">
<ele>11.955696</ele>
<time>2011-04-29T23:35:10Z</time>
<desc>lat.=21.157318, lon.=106.055099, Alt.=11.955696m. Speed=51.444000m/h.</desc>
<speed>14.290000</speed>
</trkpt>
<trkpt lat="21.156729" lon="106.055527">
<ele>12.737923</ele>
<time>2011-04-29T23:35:15Z</time>
<desc>lat.=21.156729, lon.=106.055527, Alt.=12.737923m. Speed=57.708000m/h.</desc>
<speed>16.030000</speed>
</trkpt>
<trkpt lat="21.156160" lon="106.055939">
<ele>12.411751</ele>
<time>2011-04-29T23:35:20Z</time>
<desc>lat.=21.156160, lon.=106.055939, Alt.=12.411751m. Speed=51.768002m/h.</desc>
<speed>14.380000</speed>
</trkpt>
<trkpt lat="21.155613" lon="106.056343">
<ele>12.754524</ele>
<time>2011-04-29T23:35:25Z</time>
<desc>lat.=21.155613, lon.=106.056343, Alt.=12.754524m. Speed=48.852001m/h.</desc>
<speed>13.570000</speed>
</trkpt>
<trkpt lat="21.155125" lon="106.056694">
<ele>13.586067</ele>
<time>2011-04-29T23:35:30Z</time>
<desc>lat.=21.155125, lon.=106.056694, Alt.=13.586067m. Speed=41.759998m/h.</desc>
<speed>11.600000</speed>
</trkpt>
<trkpt lat="21.154720" lon="106.056999">
<ele>14.442513</ele>
<time>2011-04-29T23:35:35Z</time>
<desc>lat.=21.154720, lon.=106.056999, Alt.=14.442513m. Speed=35.099998m/h.</desc>
<speed>9.750000</speed>
</trkpt>
<trkpt lat="21.154364" lon="106.057312">
<ele>11.312386</ele>
<time>2011-04-29T23:35:40Z</time>
<desc>lat.=21.154364, lon.=106.057312, Alt.=11.312386m. Speed=38.807999m/h.</desc>
<speed>10.780000</speed>
</trkpt>
<trkpt lat="21.154198" lon="106.057831">
<ele>10.596565</ele>
<time>2011-04-29T23:35:45Z</time>
<desc>lat.=21.154198, lon.=106.057831, Alt.=10.596565m. Speed=45.647999m/h.</desc>
<speed>12.680000</speed>
</trkpt>
<trkpt lat="21.154440" lon="106.058365">
<ele>10.770393</ele>
<time>2011-04-29T23:35:50Z</time>
<desc>lat.=21.154440, lon.=106.058365, Alt.=10.770393m. Speed=46.944000m/h.</desc>
<speed>13.040000</speed>
</trkpt>
<trkpt lat="21.155043" lon="106.058525">
<ele>5.059025</ele>
<time>2011-04-29T23:35:55Z</time>
<desc>lat.=21.155043, lon.=106.058525, Alt.=5.059025m. Speed=49.535999m/h.</desc>
<speed>13.760000</speed>
</trkpt>
<trkpt lat="21.155689" lon="106.058502">
<ele>4.686222</ele>
<time>2011-04-29T23:36:00Z</time>
<desc>lat.=21.155689, lon.=106.058502, Alt.=4.686222m. Speed=49.535999m/h.</desc>
<speed>13.760000</speed>
</trkpt>
<trkpt lat="21.156260" lon="106.058708">
<ele>4.740543</ele>
<time>2011-04-29T23:36:05Z</time>
<desc>lat.=21.156260, lon.=106.058708, Alt.=4.740543m. Speed=48.456001m/h.</desc>
<speed>13.460000</speed>
</trkpt>
<trkpt lat="21.156738" lon="106.059219">
<ele>5.483952</ele>
<time>2011-04-29T23:36:10Z</time>
<desc>lat.=21.156738, lon.=106.059219, Alt.=5.483952m. Speed=56.736000m/h.</desc>
<speed>15.760000</speed>
</trkpt>
<trkpt lat="21.157190" lon="106.059906">
<ele>5.209293</ele>
<time>2011-04-29T23:36:15Z</time>
<desc>lat.=21.157190, lon.=106.059906, Alt.=5.209293m. Speed=65.592003m/h.</desc>
<speed>18.220001</speed>
</trkpt>
<trkpt lat="21.157692" lon="106.060692">
<ele>5.045109</ele>
<time>2011-04-29T23:36:20Z</time>
<desc>lat.=21.157692, lon.=106.060692, Alt.=5.045109m. Speed=71.676003m/h.</desc>
<speed>19.910001</speed>
</trkpt>
<trkpt lat="21.158213" lon="106.061493">
<ele>6.748966</ele>
<time>2011-04-29T23:36:25Z</time>
<desc>lat.=21.158213, lon.=106.061493, Alt.=6.748966m. Speed=73.367996m/h.</desc>
<speed>20.379999</speed>
</trkpt>
<trkpt lat="21.158739" lon="106.062317">
<ele>7.848820</ele>
<time>2011-04-29T23:36:30Z</time>
<desc>lat.=21.158739, lon.=106.062317, Alt.=7.848820m. Speed=70.884003m/h.</desc>
<speed>19.690001</speed>
</trkpt>
<trkpt lat="21.159189" lon="106.063072">
<ele>7.516788</ele>
<time>2011-04-29T23:36:35Z</time>
<desc>lat.=21.159189, lon.=106.063072, Alt.=7.516788m. Speed=66.744003m/h.</desc>
<speed>18.540001</speed>
</trkpt>
<trkpt lat="21.159660" lon="106.063812">
<ele>8.667122</ele>
<time>2011-04-29T23:36:40Z</time>
<desc>lat.=21.159660, lon.=106.063812, Alt.=8.667122m. Speed=64.403999m/h.</desc>
<speed>17.890000</speed>
</trkpt>
<trkpt lat="21.160107" lon="106.064514">
<ele>9.214973</ele>
<time>2011-04-29T23:36:45Z</time>
<desc>lat.=21.160107, lon.=106.064514, Alt.=9.214973m. Speed=63.251999m/h.</desc>
<speed>17.570000</speed>
</trkpt>
<trkpt lat="21.160568" lon="106.065239">
<ele>10.507942</ele>
<time>2011-04-29T23:36:50Z</time>
<desc>lat.=21.160568, lon.=106.065239, Alt.=10.507942m. Speed=64.980003m/h.</desc>
<speed>18.050001</speed>
</trkpt>
<trkpt lat="21.161030" lon="106.065948">
<ele>10.398811</ele>
<time>2011-04-29T23:36:55Z</time>
<desc>lat.=21.161030, lon.=106.065948, Alt.=10.398811m. Speed=62.532001m/h.</desc>
<speed>17.370000</speed>
</trkpt>
<trkpt lat="21.161465" lon="106.066650">
<ele>7.065495</ele>
<time>2011-04-29T23:37:00Z</time>
<desc>lat.=21.161465, lon.=106.066650, Alt.=7.065495m. Speed=63.756001m/h.</desc>
<speed>17.710000</speed>
</trkpt>
<trkpt lat="21.161884" lon="106.067383">
<ele>6.894718</ele>
<time>2011-04-29T23:37:05Z</time>
<desc>lat.=21.161884, lon.=106.067383, Alt.=6.894718m. Speed=63.396000m/h.</desc>
<speed>17.610000</speed>
</trkpt>
<trkpt lat="21.162256" lon="106.068077">
<ele>6.356998</ele>
<time>2011-04-29T23:37:10Z</time>
<desc>lat.=21.162256, lon.=106.068077, Alt.=6.356998m. Speed=58.500000m/h.</desc>
<speed>16.250000</speed>
</trkpt>
<trkpt lat="21.162588" lon="106.068764">
<ele>6.507999</ele>
<time>2011-04-29T23:37:15Z</time>
<desc>lat.=21.162588, lon.=106.068764, Alt.=6.507999m. Speed=62.712002m/h.</desc>
<speed>17.420001</speed>
</trkpt>
<trkpt lat="21.162951" lon="106.069595">
<ele>6.561344</ele>
<time>2011-04-29T23:37:20Z</time>
<desc>lat.=21.162951, lon.=106.069595, Alt.=6.561344m. Speed=71.171997m/h.</desc>
<speed>19.769999</speed>
</trkpt>
<trkpt lat="21.163305" lon="106.070496">
<ele>4.631046</ele>
<time>2011-04-29T23:37:25Z</time>
<desc>lat.=21.163305, lon.=106.070496, Alt.=4.631046m. Speed=70.884003m/h.</desc>
<speed>19.690001</speed>
</trkpt>
<trkpt lat="21.163633" lon="106.071442">
<ele>6.186832</ele>
<time>2011-04-29T23:37:30Z</time>
<desc>lat.=21.163633, lon.=106.071442, Alt.=6.186832m. Speed=74.879997m/h.</desc>
<speed>20.799999</speed>
</trkpt>
<trkpt lat="21.163965" lon="106.072403">
<ele>6.843937</ele>
<time>2011-04-29T23:37:35Z</time>
<desc>lat.=21.163965, lon.=106.072403, Alt.=6.843937m. Speed=72.755997m/h.</desc>
<speed>20.209999</speed>
</trkpt>
<trkpt lat="21.164215" lon="106.073334">
<ele>6.375919</ele>
<time>2011-04-29T23:37:40Z</time>
<desc>lat.=21.164215, lon.=106.073334, Alt.=6.375919m. Speed=70.884003m/h.</desc>
<speed>19.690001</speed>
</trkpt>
<trkpt lat="21.164450" lon="106.074272">
<ele>8.393684</ele>
<time>2011-04-29T23:37:45Z</time>
<desc>lat.=21.164450, lon.=106.074272, Alt.=8.393684m. Speed=72.180000m/h.</desc>
<speed>20.050000</speed>
</trkpt>
<trkpt lat="21.164684" lon="106.075264">
<ele>8.207405</ele>
<time>2011-04-29T23:37:50Z</time>
<desc>lat.=21.164684, lon.=106.075264, Alt.=8.207405m. Speed=77.148003m/h.</desc>
<speed>21.430001</speed>
</trkpt>
<trkpt lat="21.164917" lon="106.076286">
<ele>9.816536</ele>
<time>2011-04-29T23:37:55Z</time>
<desc>lat.=21.164917, lon.=106.076286, Alt.=9.816536m. Speed=77.652000m/h.</desc>
<speed>21.570000</speed>
</trkpt>
<trkpt lat="21.165173" lon="106.077293">
<ele>8.937386</ele>
<time>2011-04-29T23:38:00Z</time>
<desc>lat.=21.165173, lon.=106.077293, Alt.=8.937386m. Speed=76.428001m/h.</desc>
<speed>21.230000</speed>
</trkpt>
<trkpt lat="21.165415" lon="106.078308">
<ele>8.505013</ele>
<time>2011-04-29T23:38:05Z</time>
<desc>lat.=21.165415, lon.=106.078308, Alt.=8.505013m. Speed=77.183998m/h.</desc>
<speed>21.439999</speed>
</trkpt>
<trkpt lat="21.165676" lon="106.079300">
<ele>10.778206</ele>
<time>2011-04-29T23:38:10Z</time>
<desc>lat.=21.165676, lon.=106.079300, Alt.=10.778206m. Speed=78.192001m/h.</desc>
<speed>21.720000</speed>
</trkpt>
<trkpt lat="21.165997" lon="106.080299">
<ele>11.185188</ele>
<time>2011-04-29T23:38:15Z</time>
<desc>lat.=21.165997, lon.=106.080299, Alt.=11.185188m. Speed=78.480003m/h.</desc>
<speed>21.800001</speed>
</trkpt>
<trkpt lat="21.166349" lon="106.081253">
<ele>8.104866</ele>
<time>2011-04-29T23:38:20Z</time>
<desc>lat.=21.166349, lon.=106.081253, Alt.=8.104866m. Speed=75.779999m/h.</desc>
<speed>21.050000</speed>
</trkpt>
<trkpt lat="21.166729" lon="106.082146">
<ele>6.402164</ele>
<time>2011-04-29T23:38:25Z</time>
<desc>lat.=21.166729, lon.=106.082146, Alt.=6.402164m. Speed=72.828003m/h.</desc>
<speed>20.230001</speed>
</trkpt>
<trkpt lat="21.167154" lon="106.083038">
<ele>6.817081</ele>
<time>2011-04-29T23:38:30Z</time>
<desc>lat.=21.167154, lon.=106.083038, Alt.=6.817081m. Speed=73.764000m/h.</desc>
<speed>20.490000</speed>
</trkpt>
<trkpt lat="21.167616" lon="106.083900">
<ele>5.754215</ele>
<time>2011-04-29T23:38:35Z</time>
<desc>lat.=21.167616, lon.=106.083900, Alt.=5.754215m. Speed=69.804001m/h.</desc>
<speed>19.390000</speed>
</trkpt>
<trkpt lat="21.168089" lon="106.084663">
<ele>5.871891</ele>
<time>2011-04-29T23:38:40Z</time>
<desc>lat.=21.168089, lon.=106.084663, Alt.=5.871891m. Speed=66.239998m/h.</desc>
<speed>18.399999</speed>
</trkpt>
<trkpt lat="21.168568" lon="106.085403">
<ele>6.536808</ele>
<time>2011-04-29T23:38:45Z</time>
<desc>lat.=21.168568, lon.=106.085403, Alt.=6.536808m. Speed=68.435997m/h.</desc>
<speed>19.009999</speed>
</trkpt>
<trkpt lat="21.169107" lon="106.086121">
<ele>8.238655</ele>
<time>2011-04-29T23:38:50Z</time>
<desc>lat.=21.169107, lon.=106.086121, Alt.=8.238655m. Speed=67.968002m/h.</desc>
<speed>18.880001</speed>
</trkpt>
<trkpt lat="21.169645" lon="106.086777">
<ele>9.194221</ele>
<time>2011-04-29T23:38:55Z</time>
<desc>lat.=21.169645, lon.=106.086777, Alt.=9.194221m. Speed=64.835999m/h.</desc>
<speed>18.010000</speed>
</trkpt>
<trkpt lat="21.170151" lon="106.087379">
<ele>9.775520</ele>
<time>2011-04-29T23:39:00Z</time>
<desc>lat.=21.170151, lon.=106.087379, Alt.=9.775520m. Speed=54.972000m/h.</desc>
<speed>15.270000</speed>
</trkpt>
<trkpt lat="21.170572" lon="106.087875">
<ele>12.563362</ele>
<time>2011-04-29T23:39:05Z</time>
<desc>lat.=21.170572, lon.=106.087875, Alt.=12.563362m. Speed=43.091999m/h.</desc>
<speed>11.970000</speed>
</trkpt>
<trkpt lat="21.170902" lon="106.088249">
<ele>13.270882</ele>
<time>2011-04-29T23:39:10Z</time>
<desc>lat.=21.170902, lon.=106.088249, Alt.=13.270882m. Speed=33.264000m/h.</desc>
<speed>9.240000</speed>
</trkpt>
<trkpt lat="21.171154" lon="106.088593">
<ele>12.985970</ele>
<time>2011-04-29T23:39:15Z</time>
<desc>lat.=21.171154, lon.=106.088593, Alt.=12.985970m. Speed=33.768002m/h.</desc>
<speed>9.380000</speed>
</trkpt>
<trkpt lat="21.171335" lon="106.089066">
<ele>9.615608</ele>
<time>2011-04-29T23:39:20Z</time>
<desc>lat.=21.171335, lon.=106.089066, Alt.=9.615608m. Speed=39.167999m/h.</desc>
<speed>10.880000</speed>
</trkpt>
<trkpt lat="21.171341" lon="106.089584">
<ele>9.353645</ele>
<time>2011-04-29T23:39:25Z</time>
<desc>lat.=21.171341, lon.=106.089584, Alt.=9.353645m. Speed=41.580002m/h.</desc>
<speed>11.550001</speed>
</trkpt>
<trkpt lat="21.171225" lon="106.090164">
<ele>5.530949</ele>
<time>2011-04-29T23:39:30Z</time>
<desc>lat.=21.171225, lon.=106.090164, Alt.=5.530949m. Speed=46.188000m/h.</desc>
<speed>12.830000</speed>
</trkpt>
<trkpt lat="21.171087" lon="106.090790">
<ele>5.545963</ele>
<time>2011-04-29T23:39:35Z</time>
<desc>lat.=21.171087, lon.=106.090790, Alt.=5.545963m. Speed=46.872002m/h.</desc>
<speed>13.020000</speed>
</trkpt>
<trkpt lat="21.171022" lon="106.091370">
<ele>3.504366</ele>
<time>2011-04-29T23:39:40Z</time>
<desc>lat.=21.171022, lon.=106.091370, Alt.=3.504366m. Speed=42.299999m/h.</desc>
<speed>11.750000</speed>
</trkpt>
<trkpt lat="21.171219" lon="106.091866">
<ele>4.045231</ele>
<time>2011-04-29T23:39:45Z</time>
<desc>lat.=21.171219, lon.=106.091866, Alt.=4.045231m. Speed=36.396000m/h.</desc>
<speed>10.110000</speed>
</trkpt>
<trkpt lat="21.171558" lon="106.092163">
<ele>6.234074</ele>
<time>2011-04-29T23:39:50Z</time>
<desc>lat.=21.171558, lon.=106.092163, Alt.=6.234074m. Speed=30.384001m/h.</desc>
<speed>8.440000</speed>
</trkpt>
<trkpt lat="21.171785" lon="106.092361">
<ele>6.419132</ele>
<time>2011-04-29T23:39:55Z</time>
<desc>lat.=21.171785, lon.=106.092361, Alt.=6.419132m. Speed=20.304001m/h.</desc>
<speed>5.640000</speed>
</trkpt>
<trkpt lat="21.171837" lon="106.092659">
<ele>8.902229</ele>
<time>2011-04-29T23:40:00Z</time>
<desc>lat.=21.171837, lon.=106.092659, Alt.=8.902229m. Speed=27.792000m/h.</desc>
<speed>7.720000</speed>
</trkpt>
<trkpt lat="21.171782" lon="106.092957">
<ele>11.591927</ele>
<time>2011-04-29T23:40:05Z</time>
<desc>lat.=21.171782, lon.=106.092957, Alt.=11.591927m. Speed=16.091999m/h.</desc>
<speed>4.470000</speed>
</trkpt>
<trkpt lat="21.171753" lon="106.093086">
<ele>12.577766</ele>
<time>2011-04-29T23:40:10Z</time>
<desc>lat.=21.171753, lon.=106.093086, Alt.=12.577766m. Speed=4.392000m/h.</desc>
<speed>1.220000</speed>
</trkpt>
<trkpt lat="21.171761" lon="106.093117">
<ele>11.127815</ele>
<time>2011-04-29T23:40:15Z</time>
<desc>lat.=21.171761, lon.=106.093117, Alt.=11.127815m. Speed=0.828000m/h.</desc>
<speed>0.230000</speed>
</trkpt>
<trkpt lat="21.171764" lon="106.093124">
<ele>11.964729</ele>
<time>2011-04-29T23:40:20Z</time>
<desc>lat.=21.171764, lon.=106.093124, Alt.=11.964729m. Speed=0.180000m/h.</desc>
<speed>0.050000</speed>
</trkpt>
<trkpt lat="21.171766" lon="106.093124">
<ele>12.214485</ele>
<time>2011-04-29T23:40:25Z</time>
<desc>lat.=21.171766, lon.=106.093124, Alt.=12.214485m. Speed=0.540000m/h.</desc>
<speed>0.150000</speed>
</trkpt>
<trkpt lat="21.171772" lon="106.093124">
<ele>12.238411</ele>
<time>2011-04-29T23:40:30Z</time>
<desc>lat.=21.171772, lon.=106.093124, Alt.=12.238411m. Speed=0.468000m/h.</desc>
<speed>0.130000</speed>
</trkpt>
<trkpt lat="21.171774" lon="106.093132">
<ele>12.265511</ele>
<time>2011-04-29T23:40:35Z</time>
<desc>lat.=21.171774, lon.=106.093132, Alt.=12.265511m. Speed=0.108000m/h.</desc>
<speed>0.030000</speed>
</trkpt>
<trkpt lat="21.171774" lon="106.093124">
<ele>12.284309</ele>
<time>2011-04-29T23:40:40Z</time>
<desc>lat.=21.171774, lon.=106.093124, Alt.=12.284309m. Speed=0.000000m/h.</desc>
<speed>0.000000</speed>
</trkpt>
<trkpt lat="21.171776" lon="106.093124">
<ele>12.292122</ele>
<time>2011-04-29T23:40:45Z</time>
<desc>lat.=21.171776, lon.=106.093124, Alt.=12.292122m. Speed=0.216000m/h.</desc>
<speed>0.060000</speed>
</trkpt>
<trkpt lat="21.171778" lon="106.093124">
<ele>12.295296</ele>
<time>2011-04-29T23:40:50Z</time>
<desc>lat.=21.171778, lon.=106.093124, Alt.=12.295296m. Speed=0.144000m/h.</desc>
<speed>0.040000</speed>
</trkpt>
<trkpt lat="21.171776" lon="106.093124">
<ele>12.284065</ele>
<time>2011-04-29T23:40:55Z</time>
<desc>lat.=21.171776, lon.=106.093124, Alt.=12.284065m. Speed=0.216000m/h.</desc>
<speed>0.060000</speed>
</trkpt>
<trkpt lat="21.171780" lon="106.093124">
<ele>12.276985</ele>
<time>2011-04-29T23:41:00Z</time>
<desc>lat.=21.171780, lon.=106.093124, Alt.=12.276985m. Speed=0.504000m/h.</desc>
<speed>0.140000</speed>
</trkpt>
<trkpt lat="21.171783" lon="106.093124">
<ele>12.281624</ele>
<time>2011-04-29T23:41:05Z</time>
<desc>lat.=21.171783, lon.=106.093124, Alt.=12.281624m. Speed=0.288000m/h.</desc>
<speed>0.080000</speed>
</trkpt>
<trkpt lat="21.171785" lon="106.093124">
<ele>12.286018</ele>
<time>2011-04-29T23:41:10Z</time>
<desc>lat.=21.171785, lon.=106.093124, Alt.=12.286018m. Speed=0.216000m/h.</desc>
<speed>0.060000</speed>
</trkpt>
<trkpt lat="21.171783" lon="106.093132">
<ele>12.272835</ele>
<time>2011-04-29T23:41:15Z</time>
<desc>lat.=21.171783, lon.=106.093132, Alt.=12.272835m. Speed=0.252000m/h.</desc>
<speed>0.070000</speed>
</trkpt>
<trkpt lat="21.171780" lon="106.093124">
<ele>12.269905</ele>
<time>2011-04-29T23:41:20Z</time>
<desc>lat.=21.171780, lon.=106.093124, Alt.=12.269905m. Speed=0.324000m/h.</desc>
<speed>0.090000</speed>
</trkpt>
<trkpt lat="21.171774" lon="106.093124">
<ele>12.326790</ele>
<time>2011-04-29T23:41:25Z</time>
<desc>lat.=21.171774, lon.=106.093124, Alt.=12.326790m. Speed=0.432000m/h.</desc>
<speed>0.120000</speed>
</trkpt>
<trkpt lat="21.171772" lon="106.093124">
<ele>12.367317</ele>
<time>2011-04-29T23:41:30Z</time>
<desc>lat.=21.171772, lon.=106.093124, Alt.=12.367317m. Speed=0.360000m/h.</desc>
<speed>0.100000</speed>
</trkpt>
<trkpt lat="21.171770" lon="106.093124">
<ele>12.385384</ele>
<time>2011-04-29T23:41:35Z</time>
<desc>lat.=21.171770, lon.=106.093124, Alt.=12.385384m. Speed=0.216000m/h.</desc>
<speed>0.060000</speed>
</trkpt>
<trkpt lat="21.171770" lon="106.093124">
<ele>12.389290</ele>
<time>2011-04-29T23:41:40Z</time>
<desc>lat.=21.171770, lon.=106.093124, Alt.=12.389290m. Speed=0.036000m/h.</desc>
<speed>0.010000</speed>
</trkpt>
<trkpt lat="21.171770" lon="106.093124">
<ele>12.376839</ele>
<time>2011-04-29T23:41:45Z</time>
<desc>lat.=21.171770, lon.=106.093124, Alt.=12.376839m. Speed=0.000000m/h.</desc>
<speed>0.000000</speed>
</trkpt>
<trkpt lat="21.171770" lon="106.093124">
<ele>12.362923</ele>
<time>2011-04-29T23:41:50Z</time>
<desc>lat.=21.171770, lon.=106.093124, Alt.=12.362923m. Speed=0.072000m/h.</desc>
<speed>0.020000</speed>
</trkpt>
<trkpt lat="21.171768" lon="106.093124">
<ele>12.335823</ele>
<time>2011-04-29T23:41:55Z</time>
<desc>lat.=21.171768, lon.=106.093124, Alt.=12.335823m. Speed=0.072000m/h.</desc>
<speed>0.020000</speed>
</trkpt>
<trkpt lat="21.171768" lon="106.093124">
<ele>12.312141</ele>
<time>2011-04-29T23:42:00Z</time>
<desc>lat.=21.171768, lon.=106.093124, Alt.=12.312141m. Speed=0.072000m/h.</desc>
<speed>0.020000</speed>
</trkpt>
<trkpt lat="21.171768" lon="106.093124">
<ele>12.286995</ele>
<time>2011-04-29T23:42:05Z</time>
<desc>lat.=21.171768, lon.=106.093124, Alt.=12.286995m. Speed=0.108000m/h.</desc>
<speed>0.030000</speed>
</trkpt>
<trkpt lat="21.171768" lon="106.093124">
<ele>12.278450</ele>
<time>2011-04-29T23:42:10Z</time>
<desc>lat.=21.171768, lon.=106.093124, Alt.=12.278450m. Speed=0.648000m/h.</desc>
<speed>0.180000</speed>
</trkpt>
<trkpt lat="21.171762" lon="106.093231">
<ele>12.250374</ele>
<time>2011-04-29T23:42:15Z</time>
<desc>lat.=21.171762, lon.=106.093231, Alt.=12.250374m. Speed=20.520000m/h.</desc>
<speed>5.700000</speed>
</trkpt>
<trkpt lat="21.171690" lon="106.093575">
<ele>12.570686</ele>
<time>2011-04-29T23:42:20Z</time>
<desc>lat.=21.171690, lon.=106.093575, Alt.=12.570686m. Speed=25.775999m/h.</desc>
<speed>7.160000</speed>
</trkpt>
<trkpt lat="21.171595" lon="106.094040">
<ele>12.068489</ele>
<time>2011-04-29T23:42:25Z</time>
<desc>lat.=21.171595, lon.=106.094040, Alt.=12.068489m. Speed=37.152000m/h.</desc>
<speed>10.320000</speed>
</trkpt>
<trkpt lat="21.171465" lon="106.094612">
<ele>12.089729</ele>
<time>2011-04-29T23:42:30Z</time>
<desc>lat.=21.171465, lon.=106.094612, Alt.=12.089729m. Speed=45.683998m/h.</desc>
<speed>12.689999</speed>
</trkpt>
<trkpt lat="21.171316" lon="106.095200">
<ele>12.034065</ele>
<time>2011-04-29T23:42:35Z</time>
<desc>lat.=21.171316, lon.=106.095200, Alt.=12.034065m. Speed=42.984001m/h.</desc>
<speed>11.940000</speed>
</trkpt>
<trkpt lat="21.171181" lon="106.095818">
<ele>14.283577</ele>
<time>2011-04-29T23:42:40Z</time>
<desc>lat.=21.171181, lon.=106.095818, Alt.=14.283577m. Speed=50.147999m/h.</desc>
<speed>13.930000</speed>
</trkpt>
<trkpt lat="21.171021" lon="106.096527">
<ele>16.557388</ele>
<time>2011-04-29T23:42:45Z</time>
<desc>lat.=21.171021, lon.=106.096527, Alt.=16.557388m. Speed=57.779999m/h.</desc>
<speed>16.050000</speed>
</trkpt>
<trkpt lat="21.170841" lon="106.097252">
<ele>19.187759</ele>
<time>2011-04-29T23:42:50Z</time>
<desc>lat.=21.170841, lon.=106.097252, Alt.=19.187759m. Speed=50.183998m/h.</desc>
<speed>13.939999</speed>
</trkpt>
<trkpt lat="21.170687" lon="106.097900">
<ele>18.674088</ele>
<time>2011-04-29T23:42:55Z</time>
<desc>lat.=21.170687, lon.=106.097900, Alt.=18.674088m. Speed=48.312000m/h.</desc>
<speed>13.420000</speed>
</trkpt>
<trkpt lat="21.170519" lon="106.098549">
<ele>17.829361</ele>
<time>2011-04-29T23:43:00Z</time>
<desc>lat.=21.170519, lon.=106.098549, Alt.=17.829361m. Speed=50.040001m/h.</desc>
<speed>13.900000</speed>
</trkpt>
<trkpt lat="21.170374" lon="106.099220">
<ele>16.529556</ele>
<time>2011-04-29T23:43:05Z</time>
<desc>lat.=21.170374, lon.=106.099220, Alt.=16.529556m. Speed=50.472000m/h.</desc>
<speed>14.020000</speed>
</trkpt>
<trkpt lat="21.170246" lon="106.099831">
<ele>15.945686</ele>
<time>2011-04-29T23:43:10Z</time>
<desc>lat.=21.170246, lon.=106.099831, Alt.=15.945686m. Speed=43.703999m/h.</desc>
<speed>12.140000</speed>
</trkpt>
<trkpt lat="21.170109" lon="106.100327">
<ele>17.105240</ele>
<time>2011-04-29T23:43:15Z</time>
<desc>lat.=21.170109, lon.=106.100327, Alt.=17.105240m. Speed=34.452000m/h.</desc>
<speed>9.570000</speed>
</trkpt>
<trkpt lat="21.169996" lon="106.100830">
<ele>18.748306</ele>
<time>2011-04-29T23:43:20Z</time>
<desc>lat.=21.169996, lon.=106.100830, Alt.=18.748306m. Speed=34.883999m/h.</desc>
<speed>9.690000</speed>
</trkpt>
<trkpt lat="21.169809" lon="106.101326">
<ele>15.350471</ele>
<time>2011-04-29T23:43:25Z</time>
<desc>lat.=21.169809, lon.=106.101326, Alt.=15.350471m. Speed=35.855999m/h.</desc>
<speed>9.960000</speed>
</trkpt>
<trkpt lat="21.169514" lon="106.101814">
<ele>15.322151</ele>
<time>2011-04-29T23:43:30Z</time>
<desc>lat.=21.169514, lon.=106.101814, Alt.=15.322151m. Speed=42.804001m/h.</desc>
<speed>11.890000</speed>
</trkpt>
<trkpt lat="21.169237" lon="106.102196">
<ele>15.036995</ele>
<time>2011-04-29T23:43:35Z</time>
<desc>lat.=21.169237, lon.=106.102196, Alt.=15.036995m. Speed=35.712002m/h.</desc>
<speed>9.920001</speed>
</trkpt>
<trkpt lat="21.168951" lon="106.102623">
<ele>17.009048</ele>
<time>2011-04-29T23:43:40Z</time>
<desc>lat.=21.168951, lon.=106.102623, Alt.=17.009048m. Speed=41.472000m/h.</desc>
<speed>11.520000</speed>
</trkpt>
<trkpt lat="21.168549" lon="106.103134">
<ele>11.887337</ele>
<time>2011-04-29T23:43:45Z</time>
<desc>lat.=21.168549, lon.=106.103134, Alt.=11.887337m. Speed=50.796001m/h.</desc>
<speed>14.110000</speed>
</trkpt>
<trkpt lat="21.168129" lon="106.103714">
<ele>10.535042</ele>
<time>2011-04-29T23:43:50Z</time>
<desc>lat.=21.168129, lon.=106.103714, Alt.=10.535042m. Speed=57.060001m/h.</desc>
<speed>15.850000</speed>
</trkpt>
<trkpt lat="21.167667" lon="106.104347">
<ele>10.093636</ele>
<time>2011-04-29T23:43:55Z</time>
<desc>lat.=21.167667, lon.=106.104347, Alt.=10.093636m. Speed=58.175999m/h.</desc>
<speed>16.160000</speed>
</trkpt>
<trkpt lat="21.167204" lon="106.105019">
<ele>6.608707</ele>
<time>2011-04-29T23:44:00Z</time>
<desc>lat.=21.167204, lon.=106.105019, Alt.=6.608707m. Speed=61.596001m/h.</desc>
<speed>17.110000</speed>
</trkpt>
<trkpt lat="21.166739" lon="106.105675">
<ele>6.803410</ele>
<time>2011-04-29T23:44:05Z</time>
<desc>lat.=21.166739, lon.=106.105675, Alt.=6.803410m. Speed=60.192001m/h.</desc>
<speed>16.720000</speed>
</trkpt>
<trkpt lat="21.166283" lon="106.106285">
<ele>4.923771</ele>
<time>2011-04-29T23:44:10Z</time>
<desc>lat.=21.166283, lon.=106.106285, Alt.=4.923771m. Speed=56.556000m/h.</desc>
<speed>15.710000</speed>
</trkpt>
<trkpt lat="21.165876" lon="106.106873">
<ele>4.113224</ele>
<time>2011-04-29T23:44:15Z</time>
<desc>lat.=21.165876, lon.=106.106873, Alt.=4.113224m. Speed=49.896000m/h.</desc>
<speed>13.860000</speed>
</trkpt>
<trkpt lat="21.165531" lon="106.107368">
<ele>5.656071</ele>
<time>2011-04-29T23:44:20Z</time>
<desc>lat.=21.165531, lon.=106.107368, Alt.=5.656071m. Speed=45.431999m/h.</desc>
<speed>12.620000</speed>
</trkpt>
<trkpt lat="21.165169" lon="106.107849">
<ele>7.003727</ele>
<time>2011-04-29T23:44:25Z</time>
<desc>lat.=21.165169, lon.=106.107849, Alt.=7.003727m. Speed=43.956001m/h.</desc>
<speed>12.210000</speed>
</trkpt>
<trkpt lat="21.164814" lon="106.108322">
<ele>7.878971</ele>
<time>2011-04-29T23:44:30Z</time>
<desc>lat.=21.164814, lon.=106.108322, Alt.=7.878971m. Speed=43.271999m/h.</desc>
<speed>12.020000</speed>
</trkpt>
<trkpt lat="21.164492" lon="106.108727">
<ele>8.586800</ele>
<time>2011-04-29T23:44:35Z</time>
<desc>lat.=21.164492, lon.=106.108727, Alt.=8.586800m. Speed=38.448002m/h.</desc>
<speed>10.680001</speed>
</trkpt>
<trkpt lat="21.164145" lon="106.109131">
<ele>8.775764</ele>
<time>2011-04-29T23:44:40Z</time>
<desc>lat.=21.164145, lon.=106.109131, Alt.=8.775764m. Speed=39.132000m/h.</desc>
<speed>10.870000</speed>
</trkpt>
<trkpt lat="21.163807" lon="106.109451">
<ele>10.346809</ele>
<time>2011-04-29T23:44:45Z</time>
<desc>lat.=21.163807, lon.=106.109451, Alt.=10.346809m. Speed=33.480000m/h.</desc>
<speed>9.300000</speed>
</trkpt>
<trkpt lat="21.163456" lon="106.109779">
<ele>11.431526</ele>
<time>2011-04-29T23:44:50Z</time>
<desc>lat.=21.163456, lon.=106.109779, Alt.=11.431526m. Speed=39.599998m/h.</desc>
<speed>11.000000</speed>
</trkpt>
<trkpt lat="21.163017" lon="106.110153">
<ele>12.553108</ele>
<time>2011-04-29T23:44:55Z</time>
<desc>lat.=21.163017, lon.=106.110153, Alt.=12.553108m. Speed=41.112000m/h.</desc>
<speed>11.420000</speed>
</trkpt>
<trkpt lat="21.162588" lon="106.110527">
<ele>12.219368</ele>
<time>2011-04-29T23:45:00Z</time>
<desc>lat.=21.162588, lon.=106.110527, Alt.=12.219368m. Speed=42.840000m/h.</desc>
<speed>11.900000</speed>
</trkpt>
<trkpt lat="21.162176" lon="106.110893">
<ele>10.810921</ele>
<time>2011-04-29T23:45:05Z</time>
<desc>lat.=21.162176, lon.=106.110893, Alt.=10.810921m. Speed=37.548000m/h.</desc>
<speed>10.430000</speed>
</trkpt>
<trkpt lat="21.161779" lon="106.111237">
<ele>11.246223</ele>
<time>2011-04-29T23:45:10Z</time>
<desc>lat.=21.161779, lon.=106.111237, Alt.=11.246223m. Speed=38.268002m/h.</desc>
<speed>10.630000</speed>
</trkpt>
<trkpt lat="21.161419" lon="106.111595">
<ele>10.446419</ele>
<time>2011-04-29T23:45:15Z</time>
<desc>lat.=21.161419, lon.=106.111595, Alt.=10.446419m. Speed=41.580002m/h.</desc>
<speed>11.550001</speed>
</trkpt>
<trkpt lat="21.161022" lon="106.112007">
<ele>10.441780</ele>
<time>2011-04-29T23:45:20Z</time>
<desc>lat.=21.161022, lon.=106.112007, Alt.=10.441780m. Speed=44.964001m/h.</desc>
<speed>12.490000</speed>
</trkpt>
<trkpt lat="21.160664" lon="106.112442">
<ele>7.607365</ele>
<time>2011-04-29T23:45:25Z</time>
<desc>lat.=21.160664, lon.=106.112442, Alt.=7.607365m. Speed=36.216000m/h.</desc>
<speed>10.060000</speed>
</trkpt>
<trkpt lat="21.160416" lon="106.112793">
<ele>4.745670</ele>
<time>2011-04-29T23:45:30Z</time>
<desc>lat.=21.160416, lon.=106.112793, Alt.=4.745670m. Speed=30.132000m/h.</desc>
<speed>8.370000</speed>
</trkpt>
<trkpt lat="21.160175" lon="106.113197">
<ele>5.974064</ele>
<time>2011-04-29T23:45:35Z</time>
<desc>lat.=21.160175, lon.=106.113197, Alt.=5.974064m. Speed=39.672001m/h.</desc>
<speed>11.020000</speed>
</trkpt>
<trkpt lat="21.159904" lon="106.113663">
<ele>10.666389</ele>
<time>2011-04-29T23:45:40Z</time>
<desc>lat.=21.159904, lon.=106.113663, Alt.=10.666389m. Speed=44.604000m/h.</desc>
<speed>12.390000</speed>
</trkpt>
<trkpt lat="21.159630" lon="106.114235">
<ele>12.119270</ele>
<time>2011-04-29T23:45:45Z</time>
<desc>lat.=21.159630, lon.=106.114235, Alt.=12.119270m. Speed=46.080002m/h.</desc>
<speed>12.800001</speed>
</trkpt>
<trkpt lat="21.159416" lon="106.114777">
<ele>11.457405</ele>
<time>2011-04-29T23:45:50Z</time>
<desc>lat.=21.159416, lon.=106.114777, Alt.=11.457405m. Speed=42.444000m/h.</desc>
<speed>11.790000</speed>
</trkpt>
<trkpt lat="21.159222" lon="106.115280">
<ele>18.302505</ele>
<time>2011-04-29T23:45:55Z</time>
<desc>lat.=21.159222, lon.=106.115280, Alt.=18.302505m. Speed=41.256001m/h.</desc>
<speed>11.460000</speed>
</trkpt>
<trkpt lat="21.159103" lon="106.115837">
<ele>21.551041</ele>
<time>2011-04-29T23:46:00Z</time>
<desc>lat.=21.159103, lon.=106.115837, Alt.=21.551041m. Speed=41.543999m/h.</desc>
<speed>11.540000</speed>
</trkpt>
<trkpt lat="21.159027" lon="106.116394">
<ele>28.188248</ele>
<time>2011-04-29T23:46:05Z</time>
<desc>lat.=21.159027, lon.=106.116394, Alt.=28.188248m. Speed=40.464001m/h.</desc>
<speed>11.240000</speed>
</trkpt>
<trkpt lat="21.158915" lon="106.116959">
<ele>30.249283</ele>
<time>2011-04-29T23:46:10Z</time>
<desc>lat.=21.158915, lon.=106.116959, Alt.=30.249283m. Speed=41.507999m/h.</desc>
<speed>11.530000</speed>
</trkpt>
<trkpt lat="21.158823" lon="106.117508">
<ele>30.128677</ele>
<time>2011-04-29T23:46:15Z</time>
<desc>lat.=21.158823, lon.=106.117508, Alt.=30.128677m. Speed=42.624001m/h.</desc>
<speed>11.840000</speed>
</trkpt>
<trkpt lat="21.158714" lon="106.118088">
<ele>28.432388</ele>
<time>2011-04-29T23:46:20Z</time>
<desc>lat.=21.158714, lon.=106.118088, Alt.=28.432388m. Speed=43.020000m/h.</desc>
<speed>11.950000</speed>
</trkpt>
<trkpt lat="21.158619" lon="106.118713">
<ele>29.323990</ele>
<time>2011-04-29T23:46:25Z</time>
<desc>lat.=21.158619, lon.=106.118713, Alt.=29.323990m. Speed=49.104000m/h.</desc>
<speed>13.640000</speed>
</trkpt>
<trkpt lat="21.158531" lon="106.119400">
<ele>28.575455</ele>
<time>2011-04-29T23:46:30Z</time>
<desc>lat.=21.158531, lon.=106.119400, Alt.=28.575455m. Speed=53.928001m/h.</desc>
<speed>14.980000</speed>
</trkpt>
<trkpt lat="21.158415" lon="106.120140">
<ele>27.646255</ele>
<time>2011-04-29T23:46:35Z</time>
<desc>lat.=21.158415, lon.=106.120140, Alt.=27.646255m. Speed=57.816002m/h.</desc>
<speed>16.060001</speed>
</trkpt>
<trkpt lat="21.158278" lon="106.120949">
<ele>27.004654</ele>
<time>2011-04-29T23:46:40Z</time>
<desc>lat.=21.158278, lon.=106.120949, Alt.=27.004654m. Speed=60.984001m/h.</desc>
<speed>16.940000</speed>
</trkpt>
<trkpt lat="21.158121" lon="106.121773">
<ele>26.938736</ele>
<time>2011-04-29T23:46:45Z</time>
<desc>lat.=21.158121, lon.=106.121773, Alt.=26.938736m. Speed=65.664001m/h.</desc>
<speed>18.240000</speed>
</trkpt>
<trkpt lat="21.157991" lon="106.122665">
<ele>25.865005</ele>
<time>2011-04-29T23:46:50Z</time>
<desc>lat.=21.157991, lon.=106.122665, Alt.=25.865005m. Speed=69.192001m/h.</desc>
<speed>19.220000</speed>
</trkpt>
<trkpt lat="21.157848" lon="106.123581">
<ele>23.486588</ele>
<time>2011-04-29T23:46:55Z</time>
<desc>lat.=21.157848, lon.=106.123581, Alt.=23.486588m. Speed=68.975998m/h.</desc>
<speed>19.159999</speed>
</trkpt>
<trkpt lat="21.157717" lon="106.124496">
<ele>22.514420</ele>
<time>2011-04-29T23:47:00Z</time>
<desc>lat.=21.157717, lon.=106.124496, Alt.=22.514420m. Speed=69.875999m/h.</desc>
<speed>19.410000</speed>
</trkpt>
<trkpt lat="21.157598" lon="106.125488">
<ele>23.980728</ele>
<time>2011-04-29T23:47:05Z</time>
<desc>lat.=21.157598, lon.=106.125488, Alt.=23.980728m. Speed=76.608002m/h.</desc>
<speed>21.280000</speed>
</trkpt>
<trkpt lat="21.157427" lon="106.126480">
<ele>24.056900</ele>
<time>2011-04-29T23:47:10Z</time>
<desc>lat.=21.157427, lon.=106.126480, Alt.=24.056900m. Speed=76.320000m/h.</desc>
<speed>21.200000</speed>
</trkpt>
<trkpt lat="21.157238" lon="106.127495">
<ele>23.648209</ele>
<time>2011-04-29T23:47:15Z</time>
<desc>lat.=21.157238, lon.=106.127495, Alt.=23.648209m. Speed=73.512001m/h.</desc>
<speed>20.420000</speed>
</trkpt>
<trkpt lat="21.157074" lon="106.128479">
<ele>24.024673</ele>
<time>2011-04-29T23:47:20Z</time>
<desc>lat.=21.157074, lon.=106.128479, Alt.=24.024673m. Speed=76.536003m/h.</desc>
<speed>21.260001</speed>
</trkpt>
<trkpt lat="21.156904" lon="106.129524">
<ele>24.447525</ele>
<time>2011-04-29T23:47:25Z</time>
<desc>lat.=21.156904, lon.=106.129524, Alt.=24.447525m. Speed=80.244003m/h.</desc>
<speed>22.290001</speed>
</trkpt>
<trkpt lat="21.156731" lon="106.130554">
<ele>24.669205</ele>
<time>2011-04-29T23:47:30Z</time>
<desc>lat.=21.156731, lon.=106.130554, Alt.=24.669205m. Speed=75.599998m/h.</desc>
<speed>21.000000</speed>
</trkpt>
<trkpt lat="21.156563" lon="106.131523">
<ele>24.580338</ele>
<time>2011-04-29T23:47:35Z</time>
<desc>lat.=21.156563, lon.=106.131523, Alt.=24.580338m. Speed=71.856003m/h.</desc>
<speed>19.960001</speed>
</trkpt>
<trkpt lat="21.156406" lon="106.132446">
<ele>24.034439</ele>
<time>2011-04-29T23:47:40Z</time>
<desc>lat.=21.156406, lon.=106.132446, Alt.=24.034439m. Speed=65.699997m/h.</desc>
<speed>18.249999</speed>
</trkpt>
<trkpt lat="21.156269" lon="106.133232">
<ele>23.728287</ele>
<time>2011-04-29T23:47:45Z</time>
<desc>lat.=21.156269, lon.=106.133232, Alt.=23.728287m. Speed=53.459999m/h.</desc>
<speed>14.850000</speed>
</trkpt>
<trkpt lat="21.156151" lon="106.133919">
<ele>24.162857</ele>
<time>2011-04-29T23:47:50Z</time>
<desc>lat.=21.156151, lon.=106.133919, Alt.=24.162857m. Speed=55.764000m/h.</desc>
<speed>15.490000</speed>
</trkpt>
<trkpt lat="21.156019" lon="106.134682">
<ele>24.551041</ele>
<time>2011-04-29T23:47:55Z</time>
<desc>lat.=21.156019, lon.=106.134682, Alt.=24.551041m. Speed=60.048000m/h.</desc>
<speed>16.680000</speed>
</trkpt>
<trkpt lat="21.155865" lon="106.135490">
<ele>24.767838</ele>
<time>2011-04-29T23:48:00Z</time>
<desc>lat.=21.155865, lon.=106.135490, Alt.=24.767838m. Speed=59.903999m/h.</desc>
<speed>16.640000</speed>
</trkpt>
<trkpt lat="21.155739" lon="106.136307">
<ele>24.729752</ele>
<time>2011-04-29T23:48:05Z</time>
<desc>lat.=21.155739, lon.=106.136307, Alt.=24.729752m. Speed=62.675999m/h.</desc>
<speed>17.410000</speed>
</trkpt>
<trkpt lat="21.155628" lon="106.137177">
<ele>24.387955</ele>
<time>2011-04-29T23:48:10Z</time>
<desc>lat.=21.155628, lon.=106.137177, Alt.=24.387955m. Speed=67.500000m/h.</desc>
<speed>18.750000</speed>
</trkpt>
<trkpt lat="21.155495" lon="106.138069">
<ele>22.349380</ele>
<time>2011-04-29T23:48:15Z</time>
<desc>lat.=21.155495, lon.=106.138069, Alt.=22.349380m. Speed=68.903999m/h.</desc>
<speed>19.140000</speed>
</trkpt>
<trkpt lat="21.155363" lon="106.138985">
<ele>20.844009</ele>
<time>2011-04-29T23:48:20Z</time>
<desc>lat.=21.155363, lon.=106.138985, Alt.=20.844009m. Speed=66.636002m/h.</desc>
<speed>18.510000</speed>
</trkpt>
<trkpt lat="21.155210" lon="106.139809">
<ele>20.728287</ele>
<time>2011-04-29T23:48:25Z</time>
<desc>lat.=21.155210, lon.=106.139809, Alt.=20.728287m. Speed=61.667999m/h.</desc>
<speed>17.130000</speed>
</trkpt>
<trkpt lat="21.155077" lon="106.140671">
<ele>22.859634</ele>
<time>2011-04-29T23:48:30Z</time>
<desc>lat.=21.155077, lon.=106.140671, Alt.=22.859634m. Speed=64.907997m/h.</desc>
<speed>18.029999</speed>
</trkpt>
<trkpt lat="21.154921" lon="106.141533">
<ele>21.729752</ele>
<time>2011-04-29T23:48:35Z</time>
<desc>lat.=21.154921, lon.=106.141533, Alt.=21.729752m. Speed=68.435997m/h.</desc>
<speed>19.009999</speed>
</trkpt>
<trkpt lat="21.154768" lon="106.142448">
<ele>21.194107</ele>
<time>2011-04-29T23:48:40Z</time>
<desc>lat.=21.154768, lon.=106.142448, Alt.=21.194107m. Speed=68.363998m/h.</desc>
<speed>18.990000</speed>
</trkpt>
<trkpt lat="21.154623" lon="106.143326">
<ele>20.610611</ele>
<time>2011-04-29T23:48:45Z</time>
<desc>lat.=21.154623, lon.=106.143326, Alt.=20.610611m. Speed=63.972000m/h.</desc>
<speed>17.770000</speed>
</trkpt>
<trkpt lat="21.154484" lon="106.144112">
<ele>19.361588</ele>
<time>2011-04-29T23:48:50Z</time>
<desc>lat.=21.154484, lon.=106.144112, Alt.=19.361588m. Speed=54.144001m/h.</desc>
<speed>15.040000</speed>
</trkpt>
<trkpt lat="21.154369" lon="106.144814">
<ele>18.622818</ele>
<time>2011-04-29T23:48:55Z</time>
<desc>lat.=21.154369, lon.=106.144814, Alt.=18.622818m. Speed=54.792000m/h.</desc>
<speed>15.220000</speed>
</trkpt>
<trkpt lat="21.154257" lon="106.145531">
<ele>17.728775</ele>
<time>2011-04-29T23:49:00Z</time>
<desc>lat.=21.154257, lon.=106.145531, Alt.=17.728775m. Speed=54.035999m/h.</desc>
<speed>15.010000</speed>
</trkpt>
<trkpt lat="21.154131" lon="106.146263">
<ele>17.050552</ele>
<time>2011-04-29T23:49:05Z</time>
<desc>lat.=21.154131, lon.=106.146263, Alt.=17.050552m. Speed=55.043999m/h.</desc>
<speed>15.290000</speed>
</trkpt>
<trkpt lat="21.154020" lon="106.146957">
<ele>16.418716</ele>
<time>2011-04-29T23:49:10Z</time>
<desc>lat.=21.154020, lon.=106.146957, Alt.=16.418716m. Speed=55.332001m/h.</desc>
<speed>15.370000</speed>
</trkpt>
<trkpt lat="21.153898" lon="106.147713">
<ele>16.241959</ele>
<time>2011-04-29T23:49:15Z</time>
<desc>lat.=21.153898, lon.=106.147713, Alt.=16.241959m. Speed=60.911999m/h.</desc>
<speed>16.920000</speed>
</trkpt>
<trkpt lat="21.153776" lon="106.148521">
<ele>17.080826</ele>
<time>2011-04-29T23:49:20Z</time>
<desc>lat.=21.153776, lon.=106.148521, Alt.=17.080826m. Speed=56.771999m/h.</desc>
<speed>15.770000</speed>
</trkpt>
<trkpt lat="21.153639" lon="106.149231">
<ele>18.271744</ele>
<time>2011-04-29T23:49:25Z</time>
<desc>lat.=21.153639, lon.=106.149231, Alt.=18.271744m. Speed=51.012001m/h.</desc>
<speed>14.170000</speed>
</trkpt>
<trkpt lat="21.153540" lon="106.149857">
<ele>18.023209</ele>
<time>2011-04-29T23:49:30Z</time>
<desc>lat.=21.153540, lon.=106.149857, Alt.=18.023209m. Speed=43.416000m/h.</desc>
<speed>12.060000</speed>
</trkpt>
<trkpt lat="21.153433" lon="106.150482">
<ele>18.649673</ele>
<time>2011-04-29T23:49:35Z</time>
<desc>lat.=21.153433, lon.=106.150482, Alt.=18.649673m. Speed=42.048000m/h.</desc>
<speed>11.680000</speed>
</trkpt>
<trkpt lat="21.153395" lon="106.150925">
<ele>19.126236</ele>
<time>2011-04-29T23:49:40Z</time>
<desc>lat.=21.153395, lon.=106.150925, Alt.=19.126236m. Speed=25.236000m/h.</desc>
<speed>7.010000</speed>
</trkpt>
<trkpt lat="21.153425" lon="106.151077">
<ele>19.971451</ele>
<time>2011-04-29T23:49:45Z</time>
<desc>lat.=21.153425, lon.=106.151077, Alt.=19.971451m. Speed=7.632000m/h.</desc>
<speed>2.120000</speed>
</trkpt>
<trkpt lat="21.153402" lon="106.151230">
<ele>18.493912</ele>
<time>2011-04-29T23:49:50Z</time>
<desc>lat.=21.153402, lon.=106.151230, Alt.=18.493912m. Speed=3.744000m/h.</desc>
<speed>1.040000</speed>
</trkpt>
<trkpt lat="21.153364" lon="106.151299">
<ele>18.094498</ele>
<time>2011-04-29T23:49:55Z</time>
<desc>lat.=21.153364, lon.=106.151299, Alt.=18.094498m. Speed=2.736000m/h.</desc>
<speed>0.760000</speed>
</trkpt>
<trkpt lat="21.153353" lon="106.151421">
<ele>19.427994</ele>
<time>2011-04-29T23:50:00Z</time>
<desc>lat.=21.153353, lon.=106.151421, Alt.=19.427994m. Speed=12.024000m/h.</desc>
<speed>3.340000</speed>
</trkpt>
<trkpt lat="21.153286" lon="106.151672">
<ele>17.293716</ele>
<time>2011-04-29T23:50:05Z</time>
<desc>lat.=21.153286, lon.=106.151672, Alt.=17.293716m. Speed=18.540001m/h.</desc>
<speed>5.150000</speed>
</trkpt>
<trkpt lat="21.153273" lon="106.151985">
<ele>18.208267</ele>
<time>2011-04-29T23:50:10Z</time>
<desc>lat.=21.153273, lon.=106.151985, Alt.=18.208267m. Speed=30.743999m/h.</desc>
<speed>8.540000</speed>
</trkpt>
<trkpt lat="21.153128" lon="106.152534">
<ele>17.555923</ele>
<time>2011-04-29T23:50:15Z</time>
<desc>lat.=21.153128, lon.=106.152534, Alt.=17.555923m. Speed=40.068001m/h.</desc>
<speed>11.130000</speed>
</trkpt>
<trkpt lat="21.153004" lon="106.153122">
<ele>17.037857</ele>
<time>2011-04-29T23:50:20Z</time>
<desc>lat.=21.153004, lon.=106.153122, Alt.=17.037857m. Speed=43.667999m/h.</desc>
<speed>12.130000</speed>
</trkpt>
<trkpt lat="21.152910" lon="106.153786">
<ele>15.816780</ele>
<time>2011-04-29T23:50:25Z</time>
<desc>lat.=21.152910, lon.=106.153786, Alt.=15.816780m. Speed=48.528000m/h.</desc>
<speed>13.480000</speed>
</trkpt>
<trkpt lat="21.152826" lon="106.154442">
<ele>13.669319</ele>
<time>2011-04-29T23:50:30Z</time>
<desc>lat.=21.152826, lon.=106.154442, Alt.=13.669319m. Speed=48.708000m/h.</desc>
<speed>13.530000</speed>
</trkpt>
<trkpt lat="21.152714" lon="106.155128">
<ele>13.013557</ele>
<time>2011-04-29T23:50:35Z</time>
<desc>lat.=21.152714, lon.=106.155128, Alt.=13.013557m. Speed=49.355999m/h.</desc>
<speed>13.710000</speed>
</trkpt>
<trkpt lat="21.152609" lon="106.155823">
<ele>11.871712</ele>
<time>2011-04-29T23:50:40Z</time>
<desc>lat.=21.152609, lon.=106.155823, Alt.=11.871712m. Speed=53.712002m/h.</desc>
<speed>14.920001</speed>
</trkpt>
<trkpt lat="21.152506" lon="106.156555">
<ele>11.338753</ele>
<time>2011-04-29T23:50:45Z</time>
<desc>lat.=21.152506, lon.=106.156555, Alt.=11.338753m. Speed=54.431999m/h.</desc>
<speed>15.120000</speed>
</trkpt>
<trkpt lat="21.152456" lon="106.157272">
<ele>10.126595</ele>
<time>2011-04-29T23:50:50Z</time>
<desc>lat.=21.152456, lon.=106.157272, Alt.=10.126595m. Speed=53.424000m/h.</desc>
<speed>14.840000</speed>
</trkpt>
<trkpt lat="21.152397" lon="106.158058">
<ele>9.023323</ele>
<time>2011-04-29T23:50:55Z</time>
<desc>lat.=21.152397, lon.=106.158058, Alt.=9.023323m. Speed=58.608002m/h.</desc>
<speed>16.280000</speed>
</trkpt>
<trkpt lat="21.152237" lon="106.158913">
<ele>8.974251</ele>
<time>2011-04-29T23:51:00Z</time>
<desc>lat.=21.152237, lon.=106.158913, Alt.=8.974251m. Speed=61.127998m/h.</desc>
<speed>16.980000</speed>
</trkpt>
<trkpt lat="21.152102" lon="106.159760">
<ele>8.447639</ele>
<time>2011-04-29T23:51:05Z</time>
<desc>lat.=21.152102, lon.=106.159760, Alt.=8.447639m. Speed=62.028000m/h.</desc>
<speed>17.230000</speed>
</trkpt>
<trkpt lat="21.151955" lon="106.160599">
<ele>12.690559</ele>
<time>2011-04-29T23:51:10Z</time>
<desc>lat.=21.151955, lon.=106.160599, Alt.=12.690559m. Speed=62.243999m/h.</desc>
<speed>17.290000</speed>
</trkpt>
<trkpt lat="21.151762" lon="106.161469">
<ele>17.009537</ele>
<time>2011-04-29T23:51:15Z</time>
<desc>lat.=21.151762, lon.=106.161469, Alt.=17.009537m. Speed=62.028000m/h.</desc>
<speed>17.230000</speed>
</trkpt>
<trkpt lat="21.151506" lon="106.162277">
<ele>17.864517</ele>
<time>2011-04-29T23:51:20Z</time>
<desc>lat.=21.151506, lon.=106.162277, Alt.=17.864517m. Speed=61.523998m/h.</desc>
<speed>17.090000</speed>
</trkpt>
<trkpt lat="21.151178" lon="106.163033">
<ele>17.629654</ele>
<time>2011-04-29T23:51:25Z</time>
<desc>lat.=21.151178, lon.=106.163033, Alt.=17.629654m. Speed=61.164001m/h.</desc>
<speed>16.990000</speed>
</trkpt>
<trkpt lat="21.150854" lon="106.163673">
<ele>17.334244</ele>
<time>2011-04-29T23:51:30Z</time>
<desc>lat.=21.150854, lon.=106.163673, Alt.=17.334244m. Speed=45.071999m/h.</desc>
<speed>12.520000</speed>
</trkpt>
<trkpt lat="21.150503" lon="106.164124">
<ele>15.145882</ele>
<time>2011-04-29T23:51:35Z</time>
<desc>lat.=21.150503, lon.=106.164124, Alt.=15.145882m. Speed=44.712002m/h.</desc>
<speed>12.420001</speed>
</trkpt>
<trkpt lat="21.150068" lon="106.164734">
<ele>16.425064</ele>
<time>2011-04-29T23:51:40Z</time>
<desc>lat.=21.150068, lon.=106.164734, Alt.=16.425064m. Speed=57.636002m/h.</desc>
<speed>16.010000</speed>
</trkpt>
<trkpt lat="21.149570" lon="106.165398">
<ele>17.791275</ele>
<time>2011-04-29T23:51:45Z</time>
<desc>lat.=21.149570, lon.=106.165398, Alt.=17.791275m. Speed=61.919998m/h.</desc>
<speed>17.199999</speed>
</trkpt>
<trkpt lat="21.149014" lon="106.166054">
<ele>18.719498</ele>
<time>2011-04-29T23:51:50Z</time>
<desc>lat.=21.149014, lon.=106.166054, Alt.=18.719498m. Speed=64.152000m/h.</desc>
<speed>17.820000</speed>
</trkpt>
<trkpt lat="21.148476" lon="106.166725">
<ele>18.866959</ele>
<time>2011-04-29T23:51:55Z</time>
<desc>lat.=21.148476, lon.=106.166725, Alt.=18.866959m. Speed=65.879997m/h.</desc>
<speed>18.299999</speed>
</trkpt>
<trkpt lat="21.147882" lon="106.167397">
<ele>18.458267</ele>
<time>2011-04-29T23:52:00Z</time>
<desc>lat.=21.147882, lon.=106.167397, Alt.=18.458267m. Speed=70.559998m/h.</desc>
<speed>19.599999</speed>
</trkpt>
<trkpt lat="21.147230" lon="106.168091">
<ele>19.215591</ele>
<time>2011-04-29T23:52:05Z</time>
<desc>lat.=21.147230, lon.=106.168091, Alt.=19.215591m. Speed=74.339996m/h.</desc>
<speed>20.649999</speed>
</trkpt>
<trkpt lat="21.146553" lon="106.168800">
<ele>19.077896</ele>
<time>2011-04-29T23:52:10Z</time>
<desc>lat.=21.146553, lon.=106.168800, Alt.=19.077896m. Speed=74.484001m/h.</desc>
<speed>20.690000</speed>
</trkpt>
<trkpt lat="21.145889" lon="106.169525">
<ele>18.937271</ele>
<time>2011-04-29T23:52:15Z</time>
<desc>lat.=21.145889, lon.=106.169525, Alt.=18.937271m. Speed=76.428001m/h.</desc>
<speed>21.230000</speed>
</trkpt>
<trkpt lat="21.145208" lon="106.170258">
<ele>15.772102</ele>
<time>2011-04-29T23:52:20Z</time>
<desc>lat.=21.145208, lon.=106.170258, Alt.=15.772102m. Speed=77.688004m/h.</desc>
<speed>21.580001</speed>
</trkpt>
<trkpt lat="21.144510" lon="106.170998">
<ele>16.424088</ele>
<time>2011-04-29T23:52:25Z</time>
<desc>lat.=21.144510, lon.=106.170998, Alt.=16.424088m. Speed=79.236000m/h.</desc>
<speed>22.010000</speed>
</trkpt>
<trkpt lat="21.143835" lon="106.171738">
<ele>16.441666</ele>
<time>2011-04-29T23:52:30Z</time>
<desc>lat.=21.143835, lon.=106.171738, Alt.=16.441666m. Speed=75.888000m/h.</desc>
<speed>21.080000</speed>
</trkpt>
<trkpt lat="21.143166" lon="106.172432">
<ele>17.219498</ele>
<time>2011-04-29T23:52:35Z</time>
<desc>lat.=21.143166, lon.=106.172432, Alt.=17.219498m. Speed=72.468002m/h.</desc>
<speed>20.130001</speed>
</trkpt>
<trkpt lat="21.142485" lon="106.173164">
<ele>17.916275</ele>
<time>2011-04-29T23:52:40Z</time>
<desc>lat.=21.142485, lon.=106.173164, Alt.=17.916275m. Speed=77.255997m/h.</desc>
<speed>21.459999</speed>
</trkpt>
<trkpt lat="21.141794" lon="106.173927">
<ele>17.266861</ele>
<time>2011-04-29T23:52:45Z</time>
<desc>lat.=21.141794, lon.=106.173927, Alt.=17.266861m. Speed=78.480003m/h.</desc>
<speed>21.800001</speed>
</trkpt>
<trkpt lat="21.141075" lon="106.174652">
<ele>16.166275</ele>
<time>2011-04-29T23:52:50Z</time>
<desc>lat.=21.141075, lon.=106.174652, Alt.=16.166275m. Speed=76.823997m/h.</desc>
<speed>21.339999</speed>
</trkpt>
<trkpt lat="21.140347" lon="106.175301">
<ele>13.415413</ele>
<time>2011-04-29T23:52:55Z</time>
<desc>lat.=21.140347, lon.=106.175301, Alt.=13.415413m. Speed=70.956001m/h.</desc>
<speed>19.710000</speed>
</trkpt>
<trkpt lat="21.139635" lon="106.175911">
<ele>13.162727</ele>
<time>2011-04-29T23:53:00Z</time>
<desc>lat.=21.139635, lon.=106.175911, Alt.=13.162727m. Speed=74.987999m/h.</desc>
<speed>20.830000</speed>
</trkpt>
<trkpt lat="21.138968" lon="106.176620">
<ele>14.594856</ele>
<time>2011-04-29T23:53:05Z</time>
<desc>lat.=21.138968, lon.=106.176620, Alt.=14.594856m. Speed=75.636002m/h.</desc>
<speed>21.010000</speed>
</trkpt>
<trkpt lat="21.138418" lon="106.177414">
<ele>14.479378</ele>
<time>2011-04-29T23:53:10Z</time>
<desc>lat.=21.138418, lon.=106.177414, Alt.=14.479378m. Speed=72.071999m/h.</desc>
<speed>20.020000</speed>
</trkpt>
<trkpt lat="21.138021" lon="106.178246">
<ele>14.111702</ele>
<time>2011-04-29T23:53:15Z</time>
<desc>lat.=21.138021, lon.=106.178246, Alt.=14.111702m. Speed=67.391998m/h.</desc>
<speed>18.720000</speed>
</trkpt>
<trkpt lat="21.137663" lon="106.179077">
<ele>11.241341</ele>
<time>2011-04-29T23:53:20Z</time>
<desc>lat.=21.137663, lon.=106.179077, Alt.=11.241341m. Speed=65.987999m/h.</desc>
<speed>18.330000</speed>
</trkpt>
<trkpt lat="21.137321" lon="106.179901">
<ele>10.554817</ele>
<time>2011-04-29T23:53:25Z</time>
<desc>lat.=21.137321, lon.=106.179901, Alt.=10.554817m. Speed=70.019997m/h.</desc>
<speed>19.449999</speed>
</trkpt>
<trkpt lat="21.136929" lon="106.180779">
<ele>8.560921</ele>
<time>2011-04-29T23:53:30Z</time>
<desc>lat.=21.136929, lon.=106.180779, Alt.=8.560921m. Speed=74.772003m/h.</desc>
<speed>20.770001</speed>
</trkpt>
<trkpt lat="21.136463" lon="106.181648">
<ele>9.078499</ele>
<time>2011-04-29T23:53:35Z</time>
<desc>lat.=21.136463, lon.=106.181648, Alt.=9.078499m. Speed=75.419998m/h.</desc>
<speed>20.949999</speed>
</trkpt>
<trkpt lat="21.135952" lon="106.182526">
<ele>11.105598</ele>
<time>2011-04-29T23:53:40Z</time>
<desc>lat.=21.135952, lon.=106.182526, Alt.=11.105598m. Speed=74.339996m/h.</desc>
<speed>20.649999</speed>
</trkpt>
<trkpt lat="21.135462" lon="106.183372">
<ele>12.242073</ele>
<time>2011-04-29T23:53:45Z</time>
<desc>lat.=21.135462, lon.=106.183372, Alt.=12.242073m. Speed=67.068001m/h.</desc>
<speed>18.630000</speed>
</trkpt>
<trkpt lat="21.134995" lon="106.184128">
<ele>10.884895</ele>
<time>2011-04-29T23:53:50Z</time>
<desc>lat.=21.134995, lon.=106.184128, Alt.=10.884895m. Speed=67.391998m/h.</desc>
<speed>18.720000</speed>
</trkpt>
<trkpt lat="21.134546" lon="106.184868">
<ele>9.586067</ele>
<time>2011-04-29T23:53:55Z</time>
<desc>lat.=21.134546, lon.=106.184868, Alt.=9.586067m. Speed=67.068001m/h.</desc>
<speed>18.630000</speed>
</trkpt>
<trkpt lat="21.134113" lon="106.185623">
<ele>9.549202</ele>
<time>2011-04-29T23:54:00Z</time>
<desc>lat.=21.134113, lon.=106.185623, Alt.=9.549202m. Speed=65.987999m/h.</desc>
<speed>18.330000</speed>
</trkpt>
<trkpt lat="21.133677" lon="106.186363">
<ele>8.494759</ele>
<time>2011-04-29T23:54:05Z</time>
<desc>lat.=21.133677, lon.=106.186363, Alt.=8.494759m. Speed=65.952003m/h.</desc>
<speed>18.320001</speed>
</trkpt>
<trkpt lat="21.133251" lon="106.187065">
<ele>7.967960</ele>
<time>2011-04-29T23:54:10Z</time>
<desc>lat.=21.133251, lon.=106.187065, Alt.=7.967960m. Speed=56.987999m/h.</desc>
<speed>15.830000</speed>
</trkpt>
<trkpt lat="21.132874" lon="106.187759">
<ele>8.139290</ele>
<time>2011-04-29T23:54:15Z</time>
<desc>lat.=21.132874, lon.=106.187759, Alt.=8.139290m. Speed=58.104000m/h.</desc>
<speed>16.140000</speed>
</trkpt>
<trkpt lat="21.132570" lon="106.188507">
<ele>10.533333</ele>
<time>2011-04-29T23:54:20Z</time>
<desc>lat.=21.132570, lon.=106.188507, Alt.=10.533333m. Speed=61.956001m/h.</desc>
<speed>17.210000</speed>
</trkpt>
<trkpt lat="21.132248" lon="106.189331">
<ele>13.263557</ele>
<time>2011-04-29T23:54:25Z</time>
<desc>lat.=21.132248, lon.=106.189331, Alt.=13.263557m. Speed=68.867996m/h.</desc>
<speed>19.129999</speed>
</trkpt>
<trkpt lat="21.131886" lon="106.190186">
<ele>15.474007</ele>
<time>2011-04-29T23:54:30Z</time>
<desc>lat.=21.131886, lon.=106.190186, Alt.=15.474007m. Speed=73.584000m/h.</desc>
<speed>20.440000</speed>
</trkpt>
<trkpt lat="21.131519" lon="106.191116">
<ele>15.083138</ele>
<time>2011-04-29T23:54:35Z</time>
<desc>lat.=21.131519, lon.=106.191116, Alt.=15.083138m. Speed=76.500000m/h.</desc>
<speed>21.250000</speed>
</trkpt>
<trkpt lat="21.131161" lon="106.192078">
<ele>14.861702</ele>
<time>2011-04-29T23:54:40Z</time>
<desc>lat.=21.131161, lon.=106.192078, Alt.=14.861702m. Speed=75.491997m/h.</desc>
<speed>20.969999</speed>
</trkpt>
<trkpt lat="21.130804" lon="106.193001">
<ele>14.782845</ele>
<time>2011-04-29T23:54:45Z</time>
<desc>lat.=21.130804, lon.=106.193001, Alt.=14.782845m. Speed=73.440002m/h.</desc>
<speed>20.400001</speed>
</trkpt>
<trkpt lat="21.130449" lon="106.193909">
<ele>13.578011</ele>
<time>2011-04-29T23:54:50Z</time>
<desc>lat.=21.130449, lon.=106.193909, Alt.=13.578011m. Speed=73.907997m/h.</desc>
<speed>20.529999</speed>
</trkpt>
<trkpt lat="21.130074" lon="106.194786">
<ele>13.801399</ele>
<time>2011-04-29T23:54:55Z</time>
<desc>lat.=21.130074, lon.=106.194786, Alt.=13.801399m. Speed=70.416000m/h.</desc>
<speed>19.560000</speed>
</trkpt>
<trkpt lat="21.129686" lon="106.195625">
<ele>12.728645</ele>
<time>2011-04-29T23:55:00Z</time>
<desc>lat.=21.129686, lon.=106.195625, Alt.=12.728645m. Speed=68.688004m/h.</desc>
<speed>19.080001</speed>
</trkpt>
<trkpt lat="21.129259" lon="106.196426">
<ele>11.382454</ele>
<time>2011-04-29T23:55:05Z</time>
<desc>lat.=21.129259, lon.=106.196426, Alt.=11.382454m. Speed=70.379997m/h.</desc>
<speed>19.549999</speed>
</trkpt>
<trkpt lat="21.128803" lon="106.197205">
<ele>9.051643</ele>
<time>2011-04-29T23:55:10Z</time>
<desc>lat.=21.128803, lon.=106.197205, Alt.=9.051643m. Speed=67.788002m/h.</desc>
<speed>18.830001</speed>
</trkpt>
<trkpt lat="21.128353" lon="106.197960">
<ele>7.492008</ele>
<time>2011-04-29T23:55:15Z</time>
<desc>lat.=21.128353, lon.=106.197960, Alt.=7.492008m. Speed=64.260002m/h.</desc>
<speed>17.850001</speed>
</trkpt>
<trkpt lat="21.127974" lon="106.198616">
<ele>7.303165</ele>
<time>2011-04-29T23:55:20Z</time>
<desc>lat.=21.127974, lon.=106.198616, Alt.=7.303165m. Speed=44.136002m/h.</desc>
<speed>12.260000</speed>
</trkpt>
<trkpt lat="21.127811" lon="106.198921">
<ele>5.878849</ele>
<time>2011-04-29T23:55:25Z</time>
<desc>lat.=21.127811, lon.=106.198921, Alt.=5.878849m. Speed=10.512000m/h.</desc>
<speed>2.920000</speed>
</trkpt>
<trkpt lat="21.127794" lon="106.198921">
<ele>4.355534</ele>
<time>2011-04-29T23:55:30Z</time>
<desc>lat.=21.127794, lon.=106.198921, Alt.=4.355534m. Speed=0.360000m/h.</desc>
<speed>0.100000</speed>
</trkpt>
<trkpt lat="21.127802" lon="106.198929">
<ele>4.105167</ele>
<time>2011-04-29T23:55:35Z</time>
<desc>lat.=21.127802, lon.=106.198929, Alt.=4.105167m. Speed=0.756000m/h.</desc>
<speed>0.210000</speed>
</trkpt>
<trkpt lat="21.127811" lon="106.198929">
<ele>3.961214</ele>
<time>2011-04-29T23:55:40Z</time>
<desc>lat.=21.127811, lon.=106.198929, Alt.=3.961214m. Speed=0.108000m/h.</desc>
<speed>0.030000</speed>
</trkpt>
<trkpt lat="21.127815" lon="106.198929">
<ele>3.905245</ele>
<time>2011-04-29T23:55:45Z</time>
<desc>lat.=21.127815, lon.=106.198929, Alt.=3.905245m. Speed=0.000000m/h.</desc>
<speed>0.000000</speed>
</trkpt>
<trkpt lat="21.127815" lon="106.198929">
<ele>3.897249</ele>
<time>2011-04-29T23:55:50Z</time>
<desc>lat.=21.127815, lon.=106.198929, Alt.=3.897249m. Speed=0.720000m/h.</desc>
<speed>0.200000</speed>
</trkpt>
<trkpt lat="21.127813" lon="106.198929">
<ele>3.909273</ele>
<time>2011-04-29T23:55:55Z</time>
<desc>lat.=21.127813, lon.=106.198929, Alt.=3.909273m. Speed=0.504000m/h.</desc>
<speed>0.140000</speed>
</trkpt>
<trkpt lat="21.127815" lon="106.198929">
<ele>3.937044</ele>
<time>2011-04-29T23:56:00Z</time>
<desc>lat.=21.127815, lon.=106.198929, Alt.=3.937044m. Speed=0.360000m/h.</desc>
<speed>0.100000</speed>
</trkpt>
<trkpt lat="21.127819" lon="106.198936">
<ele>3.948519</ele>
<time>2011-04-29T23:56:05Z</time>
<desc>lat.=21.127819, lon.=106.198936, Alt.=3.948519m. Speed=0.180000m/h.</desc>
<speed>0.050000</speed>
</trkpt>
<trkpt lat="21.127781" lon="106.199013">
<ele>3.956697</ele>
<time>2011-04-29T23:56:10Z</time>
<desc>lat.=21.127781, lon.=106.199013, Alt.=3.956697m. Speed=16.632000m/h.</desc>
<speed>4.620000</speed>
</trkpt>
<trkpt lat="21.127636" lon="106.199326">
<ele>4.402897</ele>
<time>2011-04-29T23:56:15Z</time>
<desc>lat.=21.127636, lon.=106.199326, Alt.=4.402897m. Speed=26.856001m/h.</desc>
<speed>7.460000</speed>
</trkpt>
<trkpt lat="21.127396" lon="106.199684">
<ele>5.450993</ele>
<time>2011-04-29T23:56:20Z</time>
<desc>lat.=21.127396, lon.=106.199684, Alt.=5.450993m. Speed=37.619999m/h.</desc>
<speed>10.450000</speed>
</trkpt>
<trkpt lat="21.127115" lon="106.200165">
<ele>6.202091</ele>
<time>2011-04-29T23:56:25Z</time>
<desc>lat.=21.127115, lon.=106.200165, Alt.=6.202091m. Speed=44.675999m/h.</desc>
<speed>12.410000</speed>
</trkpt>
<trkpt lat="21.126814" lon="106.200676">
<ele>9.324104</ele>
<time>2011-04-29T23:56:30Z</time>
<desc>lat.=21.126814, lon.=106.200676, Alt.=9.324104m. Speed=43.416000m/h.</desc>
<speed>12.060000</speed>
</trkpt>
<trkpt lat="21.126518" lon="106.201218">
<ele>9.761848</ele>
<time>2011-04-29T23:56:35Z</time>
<desc>lat.=21.126518, lon.=106.201218, Alt.=9.761848m. Speed=48.023998m/h.</desc>
<speed>13.340000</speed>
</trkpt>
<trkpt lat="21.126244" lon="106.201820">
<ele>7.327824</ele>
<time>2011-04-29T23:56:40Z</time>
<desc>lat.=21.126244, lon.=106.201820, Alt.=7.327824m. Speed=48.492001m/h.</desc>
<speed>13.470000</speed>
</trkpt>
<trkpt lat="21.126007" lon="106.202400">
<ele>4.909245</ele>
<time>2011-04-29T23:56:45Z</time>
<desc>lat.=21.126007, lon.=106.202400, Alt.=4.909245m. Speed=49.284000m/h.</desc>
<speed>13.690000</speed>
</trkpt>
<trkpt lat="21.125803" lon="106.203079">
<ele>3.732576</ele>
<time>2011-04-29T23:56:50Z</time>
<desc>lat.=21.125803, lon.=106.203079, Alt.=3.732576m. Speed=54.324001m/h.</desc>
<speed>15.090000</speed>
</trkpt>
<trkpt lat="21.125610" lon="106.203804">
<ele>3.113192</ele>
<time>2011-04-29T23:56:55Z</time>
<desc>lat.=21.125610, lon.=106.203804, Alt.=3.113192m. Speed=57.456001m/h.</desc>
<speed>15.960000</speed>
</trkpt>
<trkpt lat="21.125469" lon="106.204605">
<ele>4.334782</ele>
<time>2011-04-29T23:57:00Z</time>
<desc>lat.=21.125469, lon.=106.204605, Alt.=4.334782m. Speed=61.776001m/h.</desc>
<speed>17.160000</speed>
</trkpt>
<trkpt lat="21.125338" lon="106.205421">
<ele>8.449837</ele>
<time>2011-04-29T23:57:05Z</time>
<desc>lat.=21.125338, lon.=106.205421, Alt.=8.449837m. Speed=61.848000m/h.</desc>
<speed>17.180000</speed>
</trkpt>
<trkpt lat="21.125233" lon="106.206268">
<ele>9.150520</ele>
<time>2011-04-29T23:57:10Z</time>
<desc>lat.=21.125233, lon.=106.206268, Alt.=9.150520m. Speed=63.900002m/h.</desc>
<speed>17.750000</speed>
</trkpt>
<trkpt lat="21.125118" lon="106.207123">
<ele>8.463020</ele>
<time>2011-04-29T23:57:15Z</time>
<desc>lat.=21.125118, lon.=106.207123, Alt.=8.463020m. Speed=63.431999m/h.</desc>
<speed>17.620000</speed>
</trkpt>
<trkpt lat="21.125006" lon="106.207977">
<ele>7.674747</ele>
<time>2011-04-29T23:57:20Z</time>
<desc>lat.=21.125006, lon.=106.207977, Alt.=7.674747m. Speed=66.564003m/h.</desc>
<speed>18.490001</speed>
</trkpt>
<trkpt lat="21.124899" lon="106.208900">
<ele>6.549992</ele>
<time>2011-04-29T23:57:25Z</time>
<desc>lat.=21.124899, lon.=106.208900, Alt.=6.549992m. Speed=71.711998m/h.</desc>
<speed>19.919999</speed>
</trkpt>
<trkpt lat="21.124763" lon="106.209869">
<ele>6.098331</ele>
<time>2011-04-29T23:57:30Z</time>
<desc>lat.=21.124763, lon.=106.209869, Alt.=6.098331m. Speed=73.835999m/h.</desc>
<speed>20.510000</speed>
</trkpt>
<trkpt lat="21.124622" lon="106.210854">
<ele>5.969547</ele>
<time>2011-04-29T23:57:35Z</time>
<desc>lat.=21.124622, lon.=106.210854, Alt.=5.969547m. Speed=74.339996m/h.</desc>
<speed>20.649999</speed>
</trkpt>
<trkpt lat="21.124483" lon="106.211853">
<ele>7.560490</ele>
<time>2011-04-29T23:57:40Z</time>
<desc>lat.=21.124483, lon.=106.211853, Alt.=7.560490m. Speed=74.412003m/h.</desc>
<speed>20.670001</speed>
</trkpt>
<trkpt lat="21.124357" lon="106.212822">
<ele>7.809879</ele>
<time>2011-04-29T23:57:45Z</time>
<desc>lat.=21.124357, lon.=106.212822, Alt.=7.809879m. Speed=72.000000m/h.</desc>
<speed>20.000000</speed>
</trkpt>
<trkpt lat="21.124241" lon="106.213776">
<ele>8.971321</ele>
<time>2011-04-29T23:57:50Z</time>
<desc>lat.=21.124241, lon.=106.213776, Alt.=8.971321m. Speed=72.143997m/h.</desc>
<speed>20.039999</speed>
</trkpt>
<trkpt lat="21.124126" lon="106.214714">
<ele>8.682503</ele>
<time>2011-04-29T23:57:55Z</time>
<desc>lat.=21.124126, lon.=106.214714, Alt.=8.682503m. Speed=71.531998m/h.</desc>
<speed>19.869999</speed>
</trkpt>
<trkpt lat="21.124004" lon="106.215698">
<ele>8.205940</ele>
<time>2011-04-29T23:58:00Z</time>
<desc>lat.=21.124004, lon.=106.215698, Alt.=8.205940m. Speed=75.708000m/h.</desc>
<speed>21.030000</speed>
</trkpt>
<trkpt lat="21.123890" lon="106.216713">
<ele>6.886051</ele>
<time>2011-04-29T23:58:05Z</time>
<desc>lat.=21.123890, lon.=106.216713, Alt.=6.886051m. Speed=77.652000m/h.</desc>
<speed>21.570000</speed>
</trkpt>
<trkpt lat="21.123775" lon="106.217728">
<ele>7.185123</ele>
<time>2011-04-29T23:58:10Z</time>
<desc>lat.=21.123775, lon.=106.217728, Alt.=7.185123m. Speed=73.800003m/h.</desc>
<speed>20.500001</speed>
</trkpt>
<trkpt lat="21.123646" lon="106.218681">
<ele>7.915714</ele>
<time>2011-04-29T23:58:15Z</time>
<desc>lat.=21.123646, lon.=106.218681, Alt.=7.915714m. Speed=72.863998m/h.</desc>
<speed>20.240000</speed>
</trkpt>
<trkpt lat="21.123547" lon="106.219673">
<ele>10.558479</ele>
<time>2011-04-29T23:58:20Z</time>
<desc>lat.=21.123547, lon.=106.219673, Alt.=10.558479m. Speed=72.648003m/h.</desc>
<speed>20.180001</speed>
</trkpt>
<trkpt lat="21.123413" lon="106.220657">
<ele>11.040169</ele>
<time>2011-04-29T23:58:25Z</time>
<desc>lat.=21.123413, lon.=106.220657, Alt.=11.040169m. Speed=73.764000m/h.</desc>
<speed>20.490000</speed>
</trkpt>
<trkpt lat="21.123280" lon="106.221649">
<ele>10.589485</ele>
<time>2011-04-29T23:58:30Z</time>
<desc>lat.=21.123280, lon.=106.221649, Alt.=10.589485m. Speed=77.040001m/h.</desc>
<speed>21.400000</speed>
</trkpt>
<trkpt lat="21.123154" lon="106.222656">
<ele>10.069954</ele>
<time>2011-04-29T23:58:35Z</time>
<desc>lat.=21.123154, lon.=106.222656, Alt.=10.069954m. Speed=73.403999m/h.</desc>
<speed>20.390000</speed>
</trkpt>
<trkpt lat="21.123014" lon="106.223625">
<ele>8.955940</ele>
<time>2011-04-29T23:58:40Z</time>
<desc>lat.=21.123014, lon.=106.223625, Alt.=8.955940m. Speed=70.092003m/h.</desc>
<speed>19.470001</speed>
</trkpt>
<trkpt lat="21.122887" lon="106.224487">
<ele>8.650276</ele>
<time>2011-04-29T23:58:45Z</time>
<desc>lat.=21.122887, lon.=106.224487, Alt.=8.650276m. Speed=62.964001m/h.</desc>
<speed>17.490000</speed>
</trkpt>
<trkpt lat="21.122768" lon="106.225342">
<ele>6.686222</ele>
<time>2011-04-29T23:58:50Z</time>
<desc>lat.=21.122768, lon.=106.225342, Alt.=6.686222m. Speed=64.403999m/h.</desc>
<speed>17.890000</speed>
</trkpt>
<trkpt lat="21.122658" lon="106.226204">
<ele>5.505680</ele>
<time>2011-04-29T23:58:55Z</time>
<desc>lat.=21.122658, lon.=106.226204, Alt.=5.505680m. Speed=67.428001m/h.</desc>
<speed>18.730000</speed>
</trkpt>
<trkpt lat="21.122547" lon="106.227066">
<ele>7.330143</ele>
<time>2011-04-29T23:59:00Z</time>
<desc>lat.=21.122547, lon.=106.227066, Alt.=7.330143m. Speed=61.883999m/h.</desc>
<speed>17.190000</speed>
</trkpt>
<trkpt lat="21.122433" lon="106.227882">
<ele>6.050114</ele>
<time>2011-04-29T23:59:05Z</time>
<desc>lat.=21.122433, lon.=106.227882, Alt.=6.050114m. Speed=64.512001m/h.</desc>
<speed>17.920000</speed>
</trkpt>
<trkpt lat="21.122328" lon="106.228760">
<ele>5.049992</ele>
<time>2011-04-29T23:59:10Z</time>
<desc>lat.=21.122328, lon.=106.228760, Alt.=5.049992m. Speed=65.916000m/h.</desc>
<speed>18.310000</speed>
</trkpt>
<trkpt lat="21.122202" lon="106.229614">
<ele>6.372746</ele>
<time>2011-04-29T23:59:15Z</time>
<desc>lat.=21.122202, lon.=106.229614, Alt.=6.372746m. Speed=65.124001m/h.</desc>
<speed>18.090000</speed>
</trkpt>
<trkpt lat="21.122072" lon="106.230522">
<ele>6.778751</ele>
<time>2011-04-29T23:59:20Z</time>
<desc>lat.=21.122072, lon.=106.230522, Alt.=6.778751m. Speed=69.155998m/h.</desc>
<speed>19.210000</speed>
</trkpt>
<trkpt lat="21.121965" lon="106.231461">
<ele>6.399967</ele>
<time>2011-04-29T23:59:25Z</time>
<desc>lat.=21.121965, lon.=106.231461, Alt.=6.399967m. Speed=73.043999m/h.</desc>
<speed>20.290000</speed>
</trkpt>
<trkpt lat="21.121841" lon="106.232407">
<ele>6.080143</ele>
<time>2011-04-29T23:59:30Z</time>
<desc>lat.=21.121841, lon.=106.232407, Alt.=6.080143m. Speed=68.183998m/h.</desc>
<speed>18.939999</speed>
</trkpt>
<trkpt lat="21.121712" lon="106.233330">
<ele>7.778385</ele>
<time>2011-04-29T23:59:35Z</time>
<desc>lat.=21.121712, lon.=106.233330, Alt.=7.778385m. Speed=69.624001m/h.</desc>
<speed>19.340000</speed>
</trkpt>
<trkpt lat="21.121584" lon="106.234261">
<ele>8.442024</ele>
<time>2011-04-29T23:59:40Z</time>
<desc>lat.=21.121584, lon.=106.234261, Alt.=8.442024m. Speed=71.351997m/h.</desc>
<speed>19.819999</speed>
</trkpt>
<trkpt lat="21.121468" lon="106.235222">
<ele>9.380501</ele>
<time>2011-04-29T23:59:45Z</time>
<desc>lat.=21.121468, lon.=106.235222, Alt.=9.380501m. Speed=72.251999m/h.</desc>
<speed>20.070000</speed>
</trkpt>
<trkpt lat="21.121349" lon="106.236191">
<ele>10.262093</ele>
<time>2011-04-29T23:59:50Z</time>
<desc>lat.=21.121349, lon.=106.236191, Alt.=10.262093m. Speed=73.403999m/h.</desc>
<speed>20.390000</speed>
</trkpt>
<trkpt lat="21.121222" lon="106.237160">
<ele>10.843636</ele>
<time>2011-04-29T23:59:55Z</time>
<desc>lat.=21.121222, lon.=106.237160, Alt.=10.843636m. Speed=71.928001m/h.</desc>
<speed>19.980000</speed>
</trkpt>
<trkpt lat="21.121101" lon="106.238106">
<ele>11.967415</ele>
<time>2011-04-30T00:00:00Z</time>
<desc>lat.=21.121101, lon.=106.238106, Alt.=11.967415m. Speed=72.180000m/h.</desc>
<speed>20.050000</speed>
</trkpt>
<trkpt lat="21.120989" lon="106.239059">
<ele>11.897346</ele>
<time>2011-04-30T00:00:05Z</time>
<desc>lat.=21.120989, lon.=106.239059, Alt.=11.897346m. Speed=71.711998m/h.</desc>
<speed>19.919999</speed>
</trkpt>
<trkpt lat="21.120871" lon="106.240021">
<ele>11.237190</ele>
<time>2011-04-30T00:00:10Z</time>
<desc>lat.=21.120871, lon.=106.240021, Alt.=11.237190m. Speed=72.648003m/h.</desc>
<speed>20.180001</speed>
</trkpt>
<trkpt lat="21.120760" lon="106.240952">
<ele>10.438850</ele>
<time>2011-04-30T00:00:15Z</time>
<desc>lat.=21.120760, lon.=106.240952, Alt.=10.438850m. Speed=68.400002m/h.</desc>
<speed>19.000000</speed>
</trkpt>
<trkpt lat="21.120655" lon="106.241837">
<ele>9.607063</ele>
<time>2011-04-30T00:00:20Z</time>
<desc>lat.=21.120655, lon.=106.241837, Alt.=9.607063m. Speed=65.484001m/h.</desc>
<speed>18.190000</speed>
</trkpt>
<trkpt lat="21.120560" lon="106.242668">
<ele>8.216927</ele>
<time>2011-04-30T00:00:25Z</time>
<desc>lat.=21.120560, lon.=106.242668, Alt.=8.216927m. Speed=60.048000m/h.</desc>
<speed>16.680000</speed>
</trkpt>
<trkpt lat="21.120483" lon="106.243401">
<ele>5.607487</ele>
<time>2011-04-30T00:00:30Z</time>
<desc>lat.=21.120483, lon.=106.243401, Alt.=5.607487m. Speed=51.335999m/h.</desc>
<speed>14.260000</speed>
</trkpt>
<trkpt lat="21.120415" lon="106.244034">
<ele>4.124577</ele>
<time>2011-04-30T00:00:35Z</time>
<desc>lat.=21.120415, lon.=106.244034, Alt.=4.124577m. Speed=44.424000m/h.</desc>
<speed>12.340000</speed>
</trkpt>
<trkpt lat="21.120354" lon="106.244652">
<ele>2.512789</ele>
<time>2011-04-30T00:00:40Z</time>
<desc>lat.=21.120354, lon.=106.244652, Alt.=2.512789m. Speed=51.192001m/h.</desc>
<speed>14.220000</speed>
</trkpt>
<trkpt lat="21.120274" lon="106.245384">
<ele>1.884202</ele>
<time>2011-04-30T00:00:45Z</time>
<desc>lat.=21.120274, lon.=106.245384, Alt.=1.884202m. Speed=58.391998m/h.</desc>
<speed>16.220000</speed>
</trkpt>
<trkpt lat="21.120199" lon="106.246193">
<ele>0.682244</ele>
<time>2011-04-30T00:00:50Z</time>
<desc>lat.=21.120199, lon.=106.246193, Alt.=0.682244m. Speed=64.475998m/h.</desc>
<speed>17.909999</speed>
</trkpt>
<trkpt lat="21.120117" lon="106.247040">
<ele>0.649483</ele>
<time>2011-04-30T00:00:55Z</time>
<desc>lat.=21.120117, lon.=106.247040, Alt.=0.649483m. Speed=63.108002m/h.</desc>
<speed>17.530000</speed>
</trkpt>
<trkpt lat="21.120003" lon="106.247871">
<ele>-0.000711</ele>
<time>2011-04-30T00:01:00Z</time>
<desc>lat.=21.120003, lon.=106.247871, Alt.=-0.000711m. Speed=62.352001m/h.</desc>
<speed>17.320000</speed>
</trkpt>
<trkpt lat="21.119907" lon="106.248596">
<ele>-0.573128</ele>
<time>2011-04-30T00:01:05Z</time>
<desc>lat.=21.119907, lon.=106.248596, Alt.=-0.573128m. Speed=48.276001m/h.</desc>
<speed>13.410000</speed>
</trkpt>
<trkpt lat="21.119871" lon="106.249031">
<ele>0.329190</ele>
<time>2011-04-30T00:01:10Z</time>
<desc>lat.=21.119871, lon.=106.249031, Alt.=0.329190m. Speed=18.180000m/h.</desc>
<speed>5.050000</speed>
</trkpt>
<trkpt lat="21.119864" lon="106.249130">
<ele>0.695244</ele>
<time>2011-04-30T00:01:15Z</time>
<desc>lat.=21.119864, lon.=106.249130, Alt.=0.695244m. Speed=1.260000m/h.</desc>
<speed>0.350000</speed>
</trkpt>
<trkpt lat="21.119848" lon="106.249138">
<ele>1.906297</ele>
<time>2011-04-30T00:01:20Z</time>
<desc>lat.=21.119848, lon.=106.249138, Alt.=1.906297m. Speed=0.360000m/h.</desc>
<speed>0.100000</speed>
</trkpt>
<trkpt lat="21.119846" lon="106.249138">
<ele>1.927567</ele>
<time>2011-04-30T00:01:25Z</time>
<desc>lat.=21.119846, lon.=106.249138, Alt.=1.927567m. Speed=0.612000m/h.</desc>
<speed>0.170000</speed>
</trkpt>
<trkpt lat="21.119844" lon="106.249146">
<ele>1.914964</ele>
<time>2011-04-30T00:01:30Z</time>
<desc>lat.=21.119844, lon.=106.249146, Alt.=1.914964m. Speed=0.288000m/h.</desc>
<speed>0.080000</speed>
</trkpt>
<trkpt lat="21.119850" lon="106.249146">
<ele>1.910600</ele>
<time>2011-04-30T00:01:35Z</time>
<desc>lat.=21.119850, lon.=106.249146, Alt.=1.910600m. Speed=1.008000m/h.</desc>
<speed>0.280000</speed>
</trkpt>
<trkpt lat="21.119860" lon="106.249138">
<ele>1.902360</ele>
<time>2011-04-30T00:01:40Z</time>
<desc>lat.=21.119860, lon.=106.249138, Alt.=1.902360m. Speed=0.540000m/h.</desc>
<speed>0.150000</speed>
</trkpt>
<trkpt lat="21.119862" lon="106.249146">
<ele>1.898210</ele>
<time>2011-04-30T00:01:45Z</time>
<desc>lat.=21.119862, lon.=106.249146, Alt.=1.898210m. Speed=0.468000m/h.</desc>
<speed>0.130000</speed>
</trkpt>
<trkpt lat="21.119862" lon="106.249153">
<ele>1.894486</ele>
<time>2011-04-30T00:01:50Z</time>
<desc>lat.=21.119862, lon.=106.249153, Alt.=1.894486m. Speed=0.792000m/h.</desc>
<speed>0.220000</speed>
</trkpt>
<trkpt lat="21.119858" lon="106.249161">
<ele>1.886643</ele>
<time>2011-04-30T00:01:55Z</time>
<desc>lat.=21.119858, lon.=106.249161, Alt.=1.886643m. Speed=1.152000m/h.</desc>
<speed>0.320000</speed>
</trkpt>
<trkpt lat="21.119854" lon="106.249168">
<ele>1.901994</ele>
<time>2011-04-30T00:02:00Z</time>
<desc>lat.=21.119854, lon.=106.249168, Alt.=1.901994m. Speed=0.792000m/h.</desc>
<speed>0.220000</speed>
</trkpt>
<trkpt lat="21.119850" lon="106.249168">
<ele>1.892747</ele>
<time>2011-04-30T00:02:05Z</time>
<desc>lat.=21.119850, lon.=106.249168, Alt.=1.892747m. Speed=0.504000m/h.</desc>
<speed>0.140000</speed>
</trkpt>
<trkpt lat="21.119848" lon="106.249207">
<ele>1.738084</ele>
<time>2011-04-30T00:02:10Z</time>
<desc>lat.=21.119848, lon.=106.249207, Alt.=1.738084m. Speed=6.192000m/h.</desc>
<speed>1.720000</speed>
</trkpt>
<trkpt lat="21.119818" lon="106.249435">
<ele>1.913255</ele>
<time>2011-04-30T00:02:15Z</time>
<desc>lat.=21.119818, lon.=106.249435, Alt.=1.913255m. Speed=22.788000m/h.</desc>
<speed>6.330000</speed>
</trkpt>
<trkpt lat="21.119787" lon="106.249771">
<ele>3.578463</ele>
<time>2011-04-30T00:02:20Z</time>
<desc>lat.=21.119787, lon.=106.249771, Alt.=3.578463m. Speed=32.112000m/h.</desc>
<speed>8.920000</speed>
</trkpt>
<trkpt lat="21.119724" lon="106.250313">
<ele>4.663395</ele>
<time>2011-04-30T00:02:25Z</time>
<desc>lat.=21.119724, lon.=106.250313, Alt.=4.663395m. Speed=43.236000m/h.</desc>
<speed>12.010000</speed>
</trkpt>
<trkpt lat="21.119658" lon="106.250900">
<ele>5.223698</ele>
<time>2011-04-30T00:02:30Z</time>
<desc>lat.=21.119658, lon.=106.250900, Alt.=5.223698m. Speed=46.043999m/h.</desc>
<speed>12.790000</speed>
</trkpt>
<trkpt lat="21.119562" lon="106.251541">
<ele>4.057194</ele>
<time>2011-04-30T00:02:35Z</time>
<desc>lat.=21.119562, lon.=106.251541, Alt.=4.057194m. Speed=53.928001m/h.</desc>
<speed>14.980000</speed>
</trkpt>
<trkpt lat="21.119457" lon="106.252312">
<ele>3.764620</ele>
<time>2011-04-30T00:02:40Z</time>
<desc>lat.=21.119457, lon.=106.252312, Alt.=3.764620m. Speed=60.804001m/h.</desc>
<speed>16.890000</speed>
</trkpt>
<trkpt lat="21.119329" lon="106.253159">
<ele>6.148136</ele>
<time>2011-04-30T00:02:45Z</time>
<desc>lat.=21.119329, lon.=106.253159, Alt.=6.148136m. Speed=64.835999m/h.</desc>
<speed>18.010000</speed>
</trkpt>
<trkpt lat="21.119205" lon="106.254013">
<ele>6.931705</ele>
<time>2011-04-30T00:02:50Z</time>
<desc>lat.=21.119205, lon.=106.254013, Alt.=6.931705m. Speed=64.980003m/h.</desc>
<speed>18.050001</speed>
</trkpt>
<trkpt lat="21.119083" lon="106.254875">
<ele>6.523258</ele>
<time>2011-04-30T00:02:55Z</time>
<desc>lat.=21.119083, lon.=106.254875, Alt.=6.523258m. Speed=63.936001m/h.</desc>
<speed>17.760000</speed>
</trkpt>
<trkpt lat="21.118969" lon="106.255745">
<ele>7.138493</ele>
<time>2011-04-30T00:03:00Z</time>
<desc>lat.=21.118969, lon.=106.255745, Alt.=7.138493m. Speed=65.699997m/h.</desc>
<speed>18.249999</speed>
</trkpt>
<trkpt lat="21.118860" lon="106.256630">
<ele>7.378361</ele>
<time>2011-04-30T00:03:05Z</time>
<desc>lat.=21.118860, lon.=106.256630, Alt.=7.378361m. Speed=68.363998m/h.</desc>
<speed>18.990000</speed>
</trkpt>
<trkpt lat="21.118725" lon="106.257545">
<ele>7.307926</ele>
<time>2011-04-30T00:03:10Z</time>
<desc>lat.=21.118725, lon.=106.257545, Alt.=7.307926m. Speed=69.084000m/h.</desc>
<speed>19.190000</speed>
</trkpt>
<trkpt lat="21.118605" lon="106.258492">
<ele>7.433537</ele>
<time>2011-04-30T00:03:15Z</time>
<desc>lat.=21.118605, lon.=106.258492, Alt.=7.433537m. Speed=71.424004m/h.</desc>
<speed>19.840001</speed>
</trkpt>
<trkpt lat="21.118513" lon="106.259445">
<ele>7.492496</ele>
<time>2011-04-30T00:03:20Z</time>
<desc>lat.=21.118513, lon.=106.259445, Alt.=7.492496m. Speed=70.632004m/h.</desc>
<speed>19.620001</speed>
</trkpt>
<trkpt lat="21.118393" lon="106.260361">
<ele>9.537971</ele>
<time>2011-04-30T00:03:25Z</time>
<desc>lat.=21.118393, lon.=106.260361, Alt.=9.537971m. Speed=63.792000m/h.</desc>
<speed>17.720000</speed>
</trkpt>
<trkpt lat="21.118298" lon="106.261200">
<ele>9.833626</ele>
<time>2011-04-30T00:03:30Z</time>
<desc>lat.=21.118298, lon.=106.261200, Alt.=9.833626m. Speed=64.260002m/h.</desc>
<speed>17.850001</speed>
</trkpt>
<trkpt lat="21.118202" lon="106.262100">
<ele>10.155403</ele>
<time>2011-04-30T00:03:35Z</time>
<desc>lat.=21.118202, lon.=106.262100, Alt.=10.155403m. Speed=69.407997m/h.</desc>
<speed>19.279999</speed>
</trkpt>
<trkpt lat="21.118082" lon="106.263031">
<ele>10.003792</ele>
<time>2011-04-30T00:03:40Z</time>
<desc>lat.=21.118082, lon.=106.263031, Alt.=10.003792m. Speed=71.351997m/h.</desc>
<speed>19.819999</speed>
</trkpt>
<trkpt lat="21.117970" lon="106.263992">
<ele>10.392952</ele>
<time>2011-04-30T00:03:45Z</time>
<desc>lat.=21.117970, lon.=106.263992, Alt.=10.392952m. Speed=71.496002m/h.</desc>
<speed>19.860001</speed>
</trkpt>
<trkpt lat="21.117844" lon="106.264946">
<ele>8.416878</ele>
<time>2011-04-30T00:03:50Z</time>
<desc>lat.=21.117844, lon.=106.264946, Alt.=8.416878m. Speed=71.783997m/h.</desc>
<speed>19.939999</speed>
</trkpt>
<trkpt lat="21.117739" lon="106.265884">
<ele>8.314827</ele>
<time>2011-04-30T00:03:55Z</time>
<desc>lat.=21.117739, lon.=106.265884, Alt.=8.314827m. Speed=70.884003m/h.</desc>
<speed>19.690001</speed>
</trkpt>
<trkpt lat="21.117626" lon="106.266823">
<ele>8.746223</ele>
<time>2011-04-30T00:04:00Z</time>
<desc>lat.=21.117626, lon.=106.266823, Alt.=8.746223m. Speed=69.839996m/h.</desc>
<speed>19.399999</speed>
</trkpt>
<trkpt lat="21.117514" lon="106.267746">
<ele>8.369514</ele>
<time>2011-04-30T00:04:05Z</time>
<desc>lat.=21.117514, lon.=106.267746, Alt.=8.369514m. Speed=67.680000m/h.</desc>
<speed>18.800000</speed>
</trkpt>
<trkpt lat="21.117407" lon="106.268631">
<ele>9.536995</ele>
<time>2011-04-30T00:04:10Z</time>
<desc>lat.=21.117407, lon.=106.268631, Alt.=9.536995m. Speed=68.363998m/h.</desc>
<speed>18.990000</speed>
</trkpt>
<trkpt lat="21.117296" lon="106.269539">
<ele>11.173714</ele>
<time>2011-04-30T00:04:15Z</time>
<desc>lat.=21.117296, lon.=106.269539, Alt.=11.173714m. Speed=67.788002m/h.</desc>
<speed>18.830001</speed>
</trkpt>
<trkpt lat="21.117197" lon="106.270447">
<ele>11.008430</ele>
<time>2011-04-30T00:04:20Z</time>
<desc>lat.=21.117197, lon.=106.270447, Alt.=11.008430m. Speed=68.148003m/h.</desc>
<speed>18.930001</speed>
</trkpt>
<trkpt lat="21.117086" lon="106.271324">
<ele>8.445686</ele>
<time>2011-04-30T00:04:25Z</time>
<desc>lat.=21.117086, lon.=106.271324, Alt.=8.445686m. Speed=65.124001m/h.</desc>
<speed>18.090000</speed>
</trkpt>
<trkpt lat="21.116989" lon="106.272110">
<ele>5.265934</ele>
<time>2011-04-30T00:04:30Z</time>
<desc>lat.=21.116989, lon.=106.272110, Alt.=5.265934m. Speed=52.667999m/h.</desc>
<speed>14.630000</speed>
</trkpt>
<trkpt lat="21.116926" lon="106.272728">
<ele>5.539371</ele>
<time>2011-04-30T00:04:35Z</time>
<desc>lat.=21.116926, lon.=106.272728, Alt.=5.539371m. Speed=45.180000m/h.</desc>
<speed>12.550000</speed>
</trkpt>
<trkpt lat="21.116859" lon="106.273346">
<ele>4.816349</ele>
<time>2011-04-30T00:04:40Z</time>
<desc>lat.=21.116859, lon.=106.273346, Alt.=4.816349m. Speed=48.492001m/h.</desc>
<speed>13.470000</speed>
</trkpt>
<trkpt lat="21.116787" lon="106.274025">
<ele>3.522371</ele>
<time>2011-04-30T00:04:45Z</time>
<desc>lat.=21.116787, lon.=106.274025, Alt.=3.522371m. Speed=50.004002m/h.</desc>
<speed>13.890000</speed>
</trkpt>
<trkpt lat="21.116707" lon="106.274658">
<ele>3.786592</ele>
<time>2011-04-30T00:04:50Z</time>
<desc>lat.=21.116707, lon.=106.274658, Alt.=3.786592m. Speed=46.043999m/h.</desc>
<speed>12.790000</speed>
</trkpt>
<trkpt lat="21.116644" lon="106.275246">
<ele>2.019625</ele>
<time>2011-04-30T00:04:55Z</time>
<desc>lat.=21.116644, lon.=106.275246, Alt.=2.019625m. Speed=42.551998m/h.</desc>
<speed>11.819999</speed>
</trkpt>
<trkpt lat="21.116552" lon="106.275757">
<ele>2.968966</ele>
<time>2011-04-30T00:05:00Z</time>
<desc>lat.=21.116552, lon.=106.275757, Alt.=2.968966m. Speed=36.612000m/h.</desc>
<speed>10.170000</speed>
</trkpt>
<trkpt lat="21.116493" lon="106.276154">
<ele>3.741854</ele>
<time>2011-04-30T00:05:05Z</time>
<desc>lat.=21.116493, lon.=106.276154, Alt.=3.741854m. Speed=20.879999m/h.</desc>
<speed>5.800000</speed>
</trkpt>
<trkpt lat="21.116484" lon="106.276329">
<ele>3.299227</ele>
<time>2011-04-30T00:05:10Z</time>
<desc>lat.=21.116484, lon.=106.276329, Alt.=3.299227m. Speed=9.468000m/h.</desc>
<speed>2.630000</speed>
</trkpt>
<trkpt lat="21.116484" lon="106.276413">
<ele>3.200960</ele>
<time>2011-04-30T00:05:15Z</time>
<desc>lat.=21.116484, lon.=106.276413, Alt.=3.200960m. Speed=2.736000m/h.</desc>
<speed>0.760000</speed>
</trkpt>
<trkpt lat="21.116491" lon="106.276421">
<ele>3.403475</ele>
<time>2011-04-30T00:05:20Z</time>
<desc>lat.=21.116491, lon.=106.276421, Alt.=3.403475m. Speed=0.360000m/h.</desc>
<speed>0.100000</speed>
</trkpt>
<trkpt lat="21.116495" lon="106.276436">
<ele>3.420321</ele>
<time>2011-04-30T00:05:25Z</time>
<desc>lat.=21.116495, lon.=106.276436, Alt.=3.420321m. Speed=1.944000m/h.</desc>
<speed>0.540000</speed>
</trkpt>
<trkpt lat="21.116486" lon="106.276497">
<ele>3.148409</ele>
<time>2011-04-30T00:05:30Z</time>
<desc>lat.=21.116486, lon.=106.276497, Alt.=3.148409m. Speed=10.764000m/h.</desc>
<speed>2.990000</speed>
</trkpt>
<trkpt lat="21.116484" lon="106.276779">
<ele>2.195223</ele>
<time>2011-04-30T00:05:35Z</time>
<desc>lat.=21.116484, lon.=106.276779, Alt.=2.195223m. Speed=21.384001m/h.</desc>
<speed>5.940000</speed>
</trkpt>
<trkpt lat="21.116493" lon="106.277245">
<ele>0.587227</ele>
<time>2011-04-30T00:05:40Z</time>
<desc>lat.=21.116493, lon.=106.277245, Alt.=0.587227m. Speed=36.251999m/h.</desc>
<speed>10.070000</speed>
</trkpt>
<trkpt lat="21.116493" lon="106.277779">
<ele>0.083888</ele>
<time>2011-04-30T00:05:45Z</time>
<desc>lat.=21.116493, lon.=106.277779, Alt.=0.083888m. Speed=41.400002m/h.</desc>
<speed>11.500000</speed>
</trkpt>
<trkpt lat="21.116512" lon="106.278358">
<ele>0.080613</ele>
<time>2011-04-30T00:05:50Z</time>
<desc>lat.=21.116512, lon.=106.278358, Alt.=0.080613m. Speed=47.088001m/h.</desc>
<speed>13.080000</speed>
</trkpt>
<trkpt lat="21.116587" lon="106.279045">
<ele>-0.669182</ele>
<time>2011-04-30T00:05:55Z</time>
<desc>lat.=21.116587, lon.=106.279045, Alt.=-0.669182m. Speed=53.495998m/h.</desc>
<speed>14.860000</speed>
</trkpt>
<trkpt lat="21.116713" lon="106.279793">
<ele>-0.021427</ele>
<time>2011-04-30T00:06:00Z</time>
<desc>lat.=21.116713, lon.=106.279793, Alt.=-0.021427m. Speed=57.240002m/h.</desc>
<speed>15.900000</speed>
</trkpt>
<trkpt lat="21.116875" lon="106.280548">
<ele>1.052445</ele>
<time>2011-04-30T00:06:05Z</time>
<desc>lat.=21.116875, lon.=106.280548, Alt.=1.052445m. Speed=59.076000m/h.</desc>
<speed>16.410000</speed>
</trkpt>
<trkpt lat="21.117096" lon="106.281380">
<ele>1.129777</ele>
<time>2011-04-30T00:06:10Z</time>
<desc>lat.=21.117096, lon.=106.281380, Alt.=1.129777m. Speed=65.160004m/h.</desc>
<speed>18.100001</speed>
</trkpt>
<trkpt lat="21.117344" lon="106.282204">
<ele>2.700472</ele>
<time>2011-04-30T00:06:15Z</time>
<desc>lat.=21.117344, lon.=106.282204, Alt.=2.700472m. Speed=60.948002m/h.</desc>
<speed>16.930001</speed>
</trkpt>
<trkpt lat="21.117575" lon="106.282997">
<ele>2.384798</ele>
<time>2011-04-30T00:06:20Z</time>
<desc>lat.=21.117575, lon.=106.282997, Alt.=2.384798m. Speed=60.768002m/h.</desc>
<speed>16.880000</speed>
</trkpt>
<trkpt lat="21.117723" lon="106.283791">
<ele>2.607210</ele>
<time>2011-04-30T00:06:25Z</time>
<desc>lat.=21.117723, lon.=106.283791, Alt.=2.607210m. Speed=57.888000m/h.</desc>
<speed>16.080000</speed>
</trkpt>
<trkpt lat="21.117790" lon="106.284615">
<ele>2.159945</ele>
<time>2011-04-30T00:06:30Z</time>
<desc>lat.=21.117790, lon.=106.284615, Alt.=2.159945m. Speed=60.444000m/h.</desc>
<speed>16.790000</speed>
</trkpt>
<trkpt lat="21.117723" lon="106.285431">
<ele>2.637972</ele>
<time>2011-04-30T00:06:35Z</time>
<desc>lat.=21.117723, lon.=106.285431, Alt.=2.637972m. Speed=61.883999m/h.</desc>
<speed>17.190000</speed>
</trkpt>
<trkpt lat="21.117537" lon="106.286270">
<ele>2.805391</ele>
<time>2011-04-30T00:06:40Z</time>
<desc>lat.=21.117537, lon.=106.286270, Alt.=2.805391m. Speed=65.736000m/h.</desc>
<speed>18.260000</speed>
</trkpt>
<trkpt lat="21.117252" lon="106.287132">
<ele>3.532503</ele>
<time>2011-04-30T00:06:45Z</time>
<desc>lat.=21.117252, lon.=106.287132, Alt.=3.532503m. Speed=69.264000m/h.</desc>
<speed>19.240000</speed>
</trkpt>
<trkpt lat="21.116938" lon="106.288040">
<ele>4.348698</ele>
<time>2011-04-30T00:06:50Z</time>
<desc>lat.=21.116938, lon.=106.288040, Alt.=4.348698m. Speed=74.015999m/h.</desc>
<speed>20.560000</speed>
</trkpt>
<trkpt lat="21.116587" lon="106.288918">
<ele>6.544376</ele>
<time>2011-04-30T00:06:55Z</time>
<desc>lat.=21.116587, lon.=106.288918, Alt.=6.544376m. Speed=68.940002m/h.</desc>
<speed>19.150001</speed>
</trkpt>
<trkpt lat="21.116278" lon="106.289780">
<ele>8.106575</ele>
<time>2011-04-30T00:07:00Z</time>
<desc>lat.=21.116278, lon.=106.289780, Alt.=8.106575m. Speed=68.975998m/h.</desc>
<speed>19.159999</speed>
</trkpt>
<trkpt lat="21.115993" lon="106.290642">
<ele>9.130257</ele>
<time>2011-04-30T00:07:05Z</time>
<desc>lat.=21.115993, lon.=106.290642, Alt.=9.130257m. Speed=69.839996m/h.</desc>
<speed>19.399999</speed>
</trkpt>
<trkpt lat="21.115696" lon="106.291504">
<ele>9.097542</ele>
<time>2011-04-30T00:07:10Z</time>
<desc>lat.=21.115696, lon.=106.291504, Alt.=9.097542m. Speed=69.839996m/h.</desc>
<speed>19.399999</speed>
</trkpt>
<trkpt lat="21.115391" lon="106.292366">
<ele>10.417122</ele>
<time>2011-04-30T00:07:15Z</time>
<desc>lat.=21.115391, lon.=106.292366, Alt.=10.417122m. Speed=70.416000m/h.</desc>
<speed>19.560000</speed>
</trkpt>
<trkpt lat="21.115080" lon="106.293266">
<ele>11.159065</ele>
<time>2011-04-30T00:07:20Z</time>
<desc>lat.=21.115080, lon.=106.293266, Alt.=11.159065m. Speed=72.648003m/h.</desc>
<speed>20.180001</speed>
</trkpt>
<trkpt lat="21.114780" lon="106.294174">
<ele>9.610725</ele>
<time>2011-04-30T00:07:25Z</time>
<desc>lat.=21.114780, lon.=106.294174, Alt.=9.610725m. Speed=67.751999m/h.</desc>
<speed>18.820000</speed>
</trkpt>
<trkpt lat="21.114515" lon="106.294914">
<ele>11.233284</ele>
<time>2011-04-30T00:07:30Z</time>
<desc>lat.=21.114515, lon.=106.294914, Alt.=11.233284m. Speed=49.931999m/h.</desc>
<speed>13.870000</speed>
</trkpt>
<trkpt lat="21.114290" lon="106.295578">
<ele>12.701302</ele>
<time>2011-04-30T00:07:35Z</time>
<desc>lat.=21.114290, lon.=106.295578, Alt.=12.701302m. Speed=54.827999m/h.</desc>
<speed>15.230000</speed>
</trkpt>
<trkpt lat="21.114061" lon="106.296265">
<ele>12.240608</ele>
<time>2011-04-30T00:07:40Z</time>
<desc>lat.=21.114061, lon.=106.296265, Alt.=12.240608m. Speed=54.504002m/h.</desc>
<speed>15.140000</speed>
</trkpt>
<trkpt lat="21.113834" lon="106.296906">
<ele>10.179329</ele>
<time>2011-04-30T00:07:45Z</time>
<desc>lat.=21.113834, lon.=106.296906, Alt.=10.179329m. Speed=45.035999m/h.</desc>
<speed>12.510000</speed>
</trkpt>
<trkpt lat="21.113611" lon="106.297485">
<ele>10.958626</ele>
<time>2011-04-30T00:07:50Z</time>
<desc>lat.=21.113611, lon.=106.297485, Alt.=10.958626m. Speed=48.419998m/h.</desc>
<speed>13.449999</speed>
</trkpt>
<trkpt lat="21.113369" lon="106.298111">
<ele>11.061897</ele>
<time>2011-04-30T00:07:55Z</time>
<desc>lat.=21.113369, lon.=106.298111, Alt.=11.061897m. Speed=51.444000m/h.</desc>
<speed>14.290000</speed>
</trkpt>
<trkpt lat="21.113178" lon="106.298668">
<ele>10.199837</ele>
<time>2011-04-30T00:08:00Z</time>
<desc>lat.=21.113178, lon.=106.298668, Alt.=10.199837m. Speed=34.667999m/h.</desc>
<speed>9.630000</speed>
</trkpt>
<trkpt lat="21.113049" lon="106.299210">
<ele>8.924934</ele>
<time>2011-04-30T00:08:05Z</time>
<desc>lat.=21.113049, lon.=106.299210, Alt.=8.924934m. Speed=41.939999m/h.</desc>
<speed>11.650000</speed>
</trkpt>
<trkpt lat="21.112942" lon="106.299767">
<ele>6.721622</ele>
<time>2011-04-30T00:08:10Z</time>
<desc>lat.=21.112942, lon.=106.299767, Alt.=6.721622m. Speed=42.984001m/h.</desc>
<speed>11.940000</speed>
</trkpt>
<trkpt lat="21.112900" lon="106.300369">
<ele>4.415226</ele>
<time>2011-04-30T00:08:15Z</time>
<desc>lat.=21.112900, lon.=106.300369, Alt.=4.415226m. Speed=44.964001m/h.</desc>
<speed>12.490000</speed>
</trkpt>
<trkpt lat="21.112928" lon="106.300957">
<ele>3.406832</ele>
<time>2011-04-30T00:08:20Z</time>
<desc>lat.=21.112928, lon.=106.300957, Alt.=3.406832m. Speed=44.352001m/h.</desc>
<speed>12.320000</speed>
</trkpt>
<trkpt lat="21.113010" lon="106.301559">
<ele>1.327958</ele>
<time>2011-04-30T00:08:25Z</time>
<desc>lat.=21.113010, lon.=106.301559, Alt.=1.327958m. Speed=44.243999m/h.</desc>
<speed>12.290000</speed>
</trkpt>
<trkpt lat="21.113094" lon="106.302124">
<ele>1.001664</ele>
<time>2011-04-30T00:08:30Z</time>
<desc>lat.=21.113094, lon.=106.302124, Alt.=1.001664m. Speed=39.312000m/h.</desc>
<speed>10.920000</speed>
</trkpt>
<trkpt lat="21.113167" lon="106.302605">
<ele>0.974709</ele>
<time>2011-04-30T00:08:35Z</time>
<desc>lat.=21.113167, lon.=106.302605, Alt.=0.974709m. Speed=35.459999m/h.</desc>
<speed>9.850000</speed>
</trkpt>
<trkpt lat="21.113226" lon="106.303093">
<ele>0.542092</ele>
<time>2011-04-30T00:08:40Z</time>
<desc>lat.=21.113226, lon.=106.303093, Alt.=0.542092m. Speed=37.908001m/h.</desc>
<speed>10.530000</speed>
</trkpt>
<trkpt lat="21.113234" lon="106.303528">
<ele>1.577409</ele>
<time>2011-04-30T00:08:45Z</time>
<desc>lat.=21.113234, lon.=106.303528, Alt.=1.577409m. Speed=29.268000m/h.</desc>
<speed>8.130000</speed>
</trkpt>
<trkpt lat="21.113224" lon="106.303955">
<ele>2.697786</ele>
<time>2011-04-30T00:08:50Z</time>
<desc>lat.=21.113224, lon.=106.303955, Alt.=2.697786m. Speed=35.855999m/h.</desc>
<speed>9.960000</speed>
</trkpt>
<trkpt lat="21.113232" lon="106.304482">
<ele>3.457247</ele>
<time>2011-04-30T00:08:55Z</time>
<desc>lat.=21.113232, lon.=106.304482, Alt.=3.457247m. Speed=41.796001m/h.</desc>
<speed>11.610000</speed>
</trkpt>
<trkpt lat="21.113199" lon="106.305046">
<ele>6.623722</ele>
<time>2011-04-30T00:09:00Z</time>
<desc>lat.=21.113199, lon.=106.305046, Alt.=6.623722m. Speed=42.840000m/h.</desc>
<speed>11.900000</speed>
</trkpt>
<trkpt lat="21.113150" lon="106.305626">
<ele>7.549015</ele>
<time>2011-04-30T00:09:05Z</time>
<desc>lat.=21.113150, lon.=106.305626, Alt.=7.549015m. Speed=41.616001m/h.</desc>
<speed>11.560000</speed>
</trkpt>
<trkpt lat="21.113073" lon="106.306145">
<ele>8.983772</ele>
<time>2011-04-30T00:09:10Z</time>
<desc>lat.=21.113073, lon.=106.306145, Alt.=8.983772m. Speed=36.467999m/h.</desc>
<speed>10.130000</speed>
</trkpt>
<trkpt lat="21.113035" lon="106.306671">
<ele>11.185432</ele>
<time>2011-04-30T00:09:15Z</time>
<desc>lat.=21.113035, lon.=106.306671, Alt.=11.185432m. Speed=42.192001m/h.</desc>
<speed>11.720000</speed>
</trkpt>
<trkpt lat="21.113003" lon="106.307274">
<ele>11.266731</ele>
<time>2011-04-30T00:09:20Z</time>
<desc>lat.=21.113003, lon.=106.307274, Alt.=11.266731m. Speed=43.596001m/h.</desc>
<speed>12.110000</speed>
</trkpt>
<trkpt lat="21.112963" lon="106.307892">
<ele>11.478645</ele>
<time>2011-04-30T00:09:25Z</time>
<desc>lat.=21.112963, lon.=106.307892, Alt.=11.478645m. Speed=45.431999m/h.</desc>
<speed>12.620000</speed>
</trkpt>
<trkpt lat="21.112959" lon="106.308556">
<ele>10.505989</ele>
<time>2011-04-30T00:09:30Z</time>
<desc>lat.=21.112959, lon.=106.308556, Alt.=10.505989m. Speed=45.287998m/h.</desc>
<speed>12.579999</speed>
</trkpt>
<trkpt lat="21.112907" lon="106.309151">
<ele>9.889046</ele>
<time>2011-04-30T00:09:35Z</time>
<desc>lat.=21.112907, lon.=106.309151, Alt.=9.889046m. Speed=44.243999m/h.</desc>
<speed>12.290000</speed>
</trkpt>
<trkpt lat="21.112860" lon="106.309769">
<ele>10.585823</ele>
<time>2011-04-30T00:09:40Z</time>
<desc>lat.=21.112860, lon.=106.309769, Alt.=10.585823m. Speed=46.259998m/h.</desc>
<speed>12.850000</speed>
</trkpt>
<trkpt lat="21.112810" lon="106.310387">
<ele>11.324593</ele>
<time>2011-04-30T00:09:45Z</time>
<desc>lat.=21.112810, lon.=106.310387, Alt.=11.324593m. Speed=41.040001m/h.</desc>
<speed>11.400000</speed>
</trkpt>
<trkpt lat="21.112755" lon="106.310883">
<ele>10.257698</ele>
<time>2011-04-30T00:09:50Z</time>
<desc>lat.=21.112755, lon.=106.310883, Alt.=10.257698m. Speed=35.459999m/h.</desc>
<speed>9.850000</speed>
</trkpt>
<trkpt lat="21.112724" lon="106.311378">
<ele>9.268684</ele>
<time>2011-04-30T00:09:55Z</time>
<desc>lat.=21.112724, lon.=106.311378, Alt.=9.268684m. Speed=38.627998m/h.</desc>
<speed>10.730000</speed>
</trkpt>
<trkpt lat="21.112730" lon="106.311913">
<ele>5.424137</ele>
<time>2011-04-30T00:10:00Z</time>
<desc>lat.=21.112730, lon.=106.311913, Alt.=5.424137m. Speed=39.240002m/h.</desc>
<speed>10.900000</speed>
</trkpt>
<trkpt lat="21.112711" lon="106.312485">
<ele>1.742814</ele>
<time>2011-04-30T00:10:05Z</time>
<desc>lat.=21.112711, lon.=106.312485, Alt.=1.742814m. Speed=42.911999m/h.</desc>
<speed>11.920000</speed>
</trkpt>
<trkpt lat="21.112684" lon="106.313087">
<ele>1.611375</ele>
<time>2011-04-30T00:10:10Z</time>
<desc>lat.=21.112684, lon.=106.313087, Alt.=1.611375m. Speed=44.099998m/h.</desc>
<speed>12.250000</speed>
</trkpt>
<trkpt lat="21.112648" lon="106.313667">
<ele>1.661729</ele>
<time>2011-04-30T00:10:15Z</time>
<desc>lat.=21.112648, lon.=106.313667, Alt.=1.661729m. Speed=42.048000m/h.</desc>
<speed>11.680000</speed>
</trkpt>
<trkpt lat="21.112619" lon="106.314217">
<ele>1.657151</ele>
<time>2011-04-30T00:10:20Z</time>
<desc>lat.=21.112619, lon.=106.314217, Alt.=1.657151m. Speed=42.299999m/h.</desc>
<speed>11.750000</speed>
</trkpt>
<trkpt lat="21.112577" lon="106.314812">
<ele>1.071641</ele>
<time>2011-04-30T00:10:25Z</time>
<desc>lat.=21.112577, lon.=106.314812, Alt.=1.071641m. Speed=45.000000m/h.</desc>
<speed>12.500000</speed>
</trkpt>
<trkpt lat="21.112545" lon="106.315422">
<ele>2.646883</ele>
<time>2011-04-30T00:10:30Z</time>
<desc>lat.=21.112545, lon.=106.315422, Alt.=2.646883m. Speed=45.000000m/h.</desc>
<speed>12.500000</speed>
</trkpt>
<trkpt lat="21.112511" lon="106.316002">
<ele>2.976229</ele>
<time>2011-04-30T00:10:35Z</time>
<desc>lat.=21.112511, lon.=106.316002, Alt.=2.976229m. Speed=40.355999m/h.</desc>
<speed>11.210000</speed>
</trkpt>
<trkpt lat="21.112478" lon="106.316574">
<ele>2.498690</ele>
<time>2011-04-30T00:10:40Z</time>
<desc>lat.=21.112478, lon.=106.316574, Alt.=2.498690m. Speed=44.388000m/h.</desc>
<speed>12.330000</speed>
</trkpt>
<trkpt lat="21.112448" lon="106.317162">
<ele>2.084932</ele>
<time>2011-04-30T00:10:45Z</time>
<desc>lat.=21.112448, lon.=106.317162, Alt.=2.084932m. Speed=44.028000m/h.</desc>
<speed>12.230000</speed>
</trkpt>
<trkpt lat="21.112453" lon="106.317833">
<ele>-2.339327</ele>
<time>2011-04-30T00:10:50Z</time>
<desc>lat.=21.112453, lon.=106.317833, Alt.=-2.339327m. Speed=51.695999m/h.</desc>
<speed>14.360000</speed>
</trkpt>
<trkpt lat="21.112419" lon="106.318573">
<ele>-4.332340</ele>
<time>2011-04-30T00:10:55Z</time>
<desc>lat.=21.112419, lon.=106.318573, Alt.=-4.332340m. Speed=56.520000m/h.</desc>
<speed>15.700000</speed>
</trkpt>
<trkpt lat="21.112375" lon="106.319298">
<ele>-5.151188</ele>
<time>2011-04-30T00:11:00Z</time>
<desc>lat.=21.112375, lon.=106.319298, Alt.=-5.151188m. Speed=52.236000m/h.</desc>
<speed>14.510000</speed>
</trkpt>
<trkpt lat="21.112328" lon="106.319939">
<ele>-7.197086</ele>
<time>2011-04-30T00:11:05Z</time>
<desc>lat.=21.112328, lon.=106.319939, Alt.=-7.197086m. Speed=41.832001m/h.</desc>
<speed>11.620000</speed>
</trkpt>
<trkpt lat="21.112291" lon="106.320450">
<ele>-7.678165</ele>
<time>2011-04-30T00:11:10Z</time>
<desc>lat.=21.112291, lon.=106.320450, Alt.=-7.678165m. Speed=37.080002m/h.</desc>
<speed>10.300001</speed>
</trkpt>
<trkpt lat="21.112236" lon="106.320946">
<ele>-5.730045</ele>
<time>2011-04-30T00:11:15Z</time>
<desc>lat.=21.112236, lon.=106.320946, Alt.=-5.730045m. Speed=37.223999m/h.</desc>
<speed>10.340000</speed>
</trkpt>
<trkpt lat="21.112164" lon="106.321487">
<ele>-5.030216</ele>
<time>2011-04-30T00:11:20Z</time>
<desc>lat.=21.112164, lon.=106.321487, Alt.=-5.030216m. Speed=42.335999m/h.</desc>
<speed>11.760000</speed>
</trkpt>
<trkpt lat="21.112072" lon="106.322060">
<ele>-3.652742</ele>
<time>2011-04-30T00:11:25Z</time>
<desc>lat.=21.112072, lon.=106.322060, Alt.=-3.652742m. Speed=43.056000m/h.</desc>
<speed>11.960000</speed>
</trkpt>
<trkpt lat="21.111923" lon="106.322609">
<ele>-3.108492</ele>
<time>2011-04-30T00:11:30Z</time>
<desc>lat.=21.111923, lon.=106.322609, Alt.=-3.108492m. Speed=42.624001m/h.</desc>
<speed>11.840000</speed>
</trkpt>
<trkpt lat="21.111725" lon="106.323204">
<ele>-2.120028</ele>
<time>2011-04-30T00:11:35Z</time>
<desc>lat.=21.111725, lon.=106.323204, Alt.=-2.120028m. Speed=47.880001m/h.</desc>
<speed>13.300000</speed>
</trkpt>
<trkpt lat="21.111530" lon="106.323837">
<ele>-1.327287</ele>
<time>2011-04-30T00:11:40Z</time>
<desc>lat.=21.111530, lon.=106.323837, Alt.=-1.327287m. Speed=45.576000m/h.</desc>
<speed>12.660000</speed>
</trkpt>
<trkpt lat="21.111355" lon="106.324387">
<ele>-0.603112</ele>
<time>2011-04-30T00:11:45Z</time>
<desc>lat.=21.111355, lon.=106.324387, Alt.=-0.603112m. Speed=41.256001m/h.</desc>
<speed>11.460000</speed>
</trkpt>
<trkpt lat="21.111269" lon="106.324936">
<ele>0.710503</ele>
<time>2011-04-30T00:11:50Z</time>
<desc>lat.=21.111269, lon.=106.324936, Alt.=0.710503m. Speed=37.476002m/h.</desc>
<speed>10.410000</speed>
</trkpt>
<trkpt lat="21.111227" lon="106.325478">
<ele>1.831620</ele>
<time>2011-04-30T00:11:55Z</time>
<desc>lat.=21.111227, lon.=106.325478, Alt.=1.831620m. Speed=43.848000m/h.</desc>
<speed>12.180000</speed>
</trkpt>
<trkpt lat="21.111080" lon="106.326157">
<ele>4.126652</ele>
<time>2011-04-30T00:12:00Z</time>
<desc>lat.=21.111080, lon.=106.326157, Alt.=4.126652m. Speed=54.647999m/h.</desc>
<speed>15.180000</speed>
</trkpt>
<trkpt lat="21.110952" lon="106.326927">
<ele>4.311100</ele>
<time>2011-04-30T00:12:05Z</time>
<desc>lat.=21.110952, lon.=106.326927, Alt.=4.311100m. Speed=60.408001m/h.</desc>
<speed>16.780000</speed>
</trkpt>
<trkpt lat="21.110825" lon="106.327728">
<ele>4.383366</ele>
<time>2011-04-30T00:12:10Z</time>
<desc>lat.=21.110825, lon.=106.327728, Alt.=4.383366m. Speed=63.035999m/h.</desc>
<speed>17.510000</speed>
</trkpt>
<trkpt lat="21.110655" lon="106.328598">
<ele>4.485172</ele>
<time>2011-04-30T00:12:15Z</time>
<desc>lat.=21.110655, lon.=106.328598, Alt.=4.485172m. Speed=67.968002m/h.</desc>
<speed>18.880001</speed>
</trkpt>
<trkpt lat="21.110458" lon="106.329521">
<ele>3.835421</ele>
<time>2011-04-30T00:12:20Z</time>
<desc>lat.=21.110458, lon.=106.329521, Alt.=3.835421m. Speed=71.171997m/h.</desc>
<speed>19.769999</speed>
</trkpt>
<trkpt lat="21.110266" lon="106.330482">
<ele>3.827486</ele>
<time>2011-04-30T00:12:25Z</time>
<desc>lat.=21.110266, lon.=106.330482, Alt.=3.827486m. Speed=71.028000m/h.</desc>
<speed>19.730000</speed>
</trkpt>
<trkpt lat="21.110100" lon="106.331413">
<ele>4.506413</ele>
<time>2011-04-30T00:12:30Z</time>
<desc>lat.=21.110100, lon.=106.331413, Alt.=4.506413m. Speed=69.120003m/h.</desc>
<speed>19.200001</speed>
</trkpt>
<trkpt lat="21.109928" lon="106.332260">
<ele>3.905550</ele>
<time>2011-04-30T00:12:35Z</time>
<desc>lat.=21.109928, lon.=106.332260, Alt.=3.905550m. Speed=61.344002m/h.</desc>
<speed>17.040000</speed>
</trkpt>
<trkpt lat="21.109806" lon="106.333054">
<ele>3.239412</ele>
<time>2011-04-30T00:12:40Z</time>
<desc>lat.=21.109806, lon.=106.333054, Alt.=3.239412m. Speed=58.248001m/h.</desc>
<speed>16.180000</speed>
</trkpt>
<trkpt lat="21.109678" lon="106.333824">
<ele>3.294588</ele>
<time>2011-04-30T00:12:45Z</time>
<desc>lat.=21.109678, lon.=106.333824, Alt.=3.294588m. Speed=60.804001m/h.</desc>
<speed>16.890000</speed>
</trkpt>
<trkpt lat="21.109526" lon="106.334663">
<ele>3.418245</ele>
<time>2011-04-30T00:12:50Z</time>
<desc>lat.=21.109526, lon.=106.334663, Alt.=3.418245m. Speed=69.480003m/h.</desc>
<speed>19.300001</speed>
</trkpt>
<trkpt lat="21.109333" lon="106.335594">
<ele>2.691439</ele>
<time>2011-04-30T00:12:55Z</time>
<desc>lat.=21.109333, lon.=106.335594, Alt.=2.691439m. Speed=71.064003m/h.</desc>
<speed>19.740001</speed>
</trkpt>
<trkpt lat="21.109138" lon="106.336563">
<ele>2.125643</ele>
<time>2011-04-30T00:13:00Z</time>
<desc>lat.=21.109138, lon.=106.336563, Alt.=2.125643m. Speed=75.348000m/h.</desc>
<speed>20.930000</speed>
</trkpt>
<trkpt lat="21.108938" lon="106.337585">
<ele>1.496385</ele>
<time>2011-04-30T00:13:05Z</time>
<desc>lat.=21.108938, lon.=106.337585, Alt.=1.496385m. Speed=78.912003m/h.</desc>
<speed>21.920001</speed>
</trkpt>
<trkpt lat="21.108725" lon="106.338608">
<ele>1.617326</ele>
<time>2011-04-30T00:13:10Z</time>
<desc>lat.=21.108725, lon.=106.338608, Alt.=1.617326m. Speed=77.652000m/h.</desc>
<speed>21.570000</speed>
</trkpt>
<trkpt lat="21.108543" lon="106.339569">
<ele>2.159883</ele>
<time>2011-04-30T00:13:15Z</time>
<desc>lat.=21.108543, lon.=106.339569, Alt.=2.159883m. Speed=68.867996m/h.</desc>
<speed>19.129999</speed>
</trkpt>
<trkpt lat="21.108372" lon="106.340408">
<ele>3.568209</ele>
<time>2011-04-30T00:13:20Z</time>
<desc>lat.=21.108372, lon.=106.340408, Alt.=3.568209m. Speed=61.883999m/h.</desc>
<speed>17.190000</speed>
</trkpt>
<trkpt lat="21.108212" lon="106.341095">
<ele>4.260075</ele>
<time>2011-04-30T00:13:25Z</time>
<desc>lat.=21.108212, lon.=106.341095, Alt.=4.260075m. Speed=46.980000m/h.</desc>
<speed>13.050000</speed>
</trkpt>
<trkpt lat="21.107977" lon="106.341660">
<ele>5.465641</ele>
<time>2011-04-30T00:13:30Z</time>
<desc>lat.=21.107977, lon.=106.341660, Alt.=5.465641m. Speed=47.124001m/h.</desc>
<speed>13.090000</speed>
</trkpt>
<trkpt lat="21.107677" lon="106.342247">
<ele>5.973576</ele>
<time>2011-04-30T00:13:35Z</time>
<desc>lat.=21.107677, lon.=106.342247, Alt.=5.973576m. Speed=50.507999m/h.</desc>
<speed>14.030000</speed>
</trkpt>
<trkpt lat="21.107449" lon="106.342766">
<ele>6.611393</ele>
<time>2011-04-30T00:13:40Z</time>
<desc>lat.=21.107449, lon.=106.342766, Alt.=6.611393m. Speed=39.132000m/h.</desc>
<speed>10.870000</speed>
</trkpt>
<trkpt lat="21.107317" lon="106.343254">
<ele>7.513859</ele>
<time>2011-04-30T00:13:45Z</time>
<desc>lat.=21.107317, lon.=106.343254, Alt.=7.513859m. Speed=37.799999m/h.</desc>
<speed>10.500000</speed>
</trkpt>
<trkpt lat="21.107271" lon="106.343819">
<ele>9.161263</ele>
<time>2011-04-30T00:13:50Z</time>
<desc>lat.=21.107271, lon.=106.343819, Alt.=9.161263m. Speed=41.436001m/h.</desc>
<speed>11.510000</speed>
</trkpt>
<trkpt lat="21.107271" lon="106.344368">
<ele>9.848763</ele>
<time>2011-04-30T00:13:55Z</time>
<desc>lat.=21.107271, lon.=106.344368, Alt.=9.848763m. Speed=42.551998m/h.</desc>
<speed>11.819999</speed>
</trkpt>
<trkpt lat="21.107244" lon="106.344933">
<ele>10.830940</ele>
<time>2011-04-30T00:14:00Z</time>
<desc>lat.=21.107244, lon.=106.344933, Alt.=10.830940m. Speed=40.824001m/h.</desc>
<speed>11.340000</speed>
</trkpt>
<trkpt lat="21.107098" lon="106.345512">
<ele>9.859505</ele>
<time>2011-04-30T00:14:05Z</time>
<desc>lat.=21.107098, lon.=106.345512, Alt.=9.859505m. Speed=48.096001m/h.</desc>
<speed>13.360000</speed>
</trkpt>
<trkpt lat="21.106823" lon="106.346146">
<ele>6.100285</ele>
<time>2011-04-30T00:14:10Z</time>
<desc>lat.=21.106823, lon.=106.346146, Alt.=6.100285m. Speed=53.748001m/h.</desc>
<speed>14.930000</speed>
</trkpt>
<trkpt lat="21.106485" lon="106.346825">
<ele>6.521061</ele>
<time>2011-04-30T00:14:15Z</time>
<desc>lat.=21.106485, lon.=106.346825, Alt.=6.521061m. Speed=58.212002m/h.</desc>
<speed>16.170001</speed>
</trkpt>
<trkpt lat="21.106199" lon="106.347557">
<ele>6.869694</ele>
<time>2011-04-30T00:14:20Z</time>
<desc>lat.=21.106199, lon.=106.347557, Alt.=6.869694m. Speed=61.020000m/h.</desc>
<speed>16.950000</speed>
</trkpt>
<trkpt lat="21.105940" lon="106.348320">
<ele>7.083195</ele>
<time>2011-04-30T00:14:25Z</time>
<desc>lat.=21.105940, lon.=106.348320, Alt.=7.083195m. Speed=61.919998m/h.</desc>
<speed>17.199999</speed>
</trkpt>
<trkpt lat="21.105692" lon="106.349129">
<ele>7.751163</ele>
<time>2011-04-30T00:14:30Z</time>
<desc>lat.=21.105692, lon.=106.349129, Alt.=7.751163m. Speed=64.764000m/h.</desc>
<speed>17.990000</speed>
</trkpt>
<trkpt lat="21.105455" lon="106.349991">
<ele>8.187141</ele>
<time>2011-04-30T00:14:35Z</time>
<desc>lat.=21.105455, lon.=106.349991, Alt.=8.187141m. Speed=65.052002m/h.</desc>
<speed>18.070001</speed>
</trkpt>
<trkpt lat="21.105228" lon="106.350761">
<ele>8.093880</ele>
<time>2011-04-30T00:14:40Z</time>
<desc>lat.=21.105228, lon.=106.350761, Alt.=8.093880m. Speed=53.964001m/h.</desc>
<speed>14.990000</speed>
</trkpt>
<trkpt lat="21.105040" lon="106.351410">
<ele>8.951057</ele>
<time>2011-04-30T00:14:45Z</time>
<desc>lat.=21.105040, lon.=106.351410, Alt.=8.951057m. Speed=49.391998m/h.</desc>
<speed>13.720000</speed>
</trkpt>
<trkpt lat="21.104897" lon="106.352142">
<ele>9.274300</ele>
<time>2011-04-30T00:14:50Z</time>
<desc>lat.=21.104897, lon.=106.352142, Alt.=9.274300m. Speed=57.888000m/h.</desc>
<speed>16.080000</speed>
</trkpt>
<trkpt lat="21.104677" lon="106.352890">
<ele>9.498177</ele>
<time>2011-04-30T00:14:55Z</time>
<desc>lat.=21.104677, lon.=106.352890, Alt.=9.498177m. Speed=55.835999m/h.</desc>
<speed>15.510000</speed>
</trkpt>
<trkpt lat="21.104454" lon="106.353561">
<ele>10.046761</ele>
<time>2011-04-30T00:15:00Z</time>
<desc>lat.=21.104454, lon.=106.353561, Alt.=10.046761m. Speed=54.540001m/h.</desc>
<speed>15.150000</speed>
</trkpt>
<trkpt lat="21.104279" lon="106.354218">
<ele>9.662727</ele>
<time>2011-04-30T00:15:05Z</time>
<desc>lat.=21.104279, lon.=106.354218, Alt.=9.662727m. Speed=52.632000m/h.</desc>
<speed>14.620000</speed>
</trkpt>
<trkpt lat="21.104071" lon="106.354973">
<ele>9.677620</ele>
<time>2011-04-30T00:15:10Z</time>
<desc>lat.=21.104071, lon.=106.354973, Alt.=9.677620m. Speed=61.740002m/h.</desc>
<speed>17.150000</speed>
</trkpt>
<trkpt lat="21.103836" lon="106.355812">
<ele>9.536995</ele>
<time>2011-04-30T00:15:15Z</time>
<desc>lat.=21.103836, lon.=106.355812, Alt.=9.536995m. Speed=65.736000m/h.</desc>
<speed>18.260000</speed>
</trkpt>
<trkpt lat="21.103598" lon="106.356651">
<ele>10.472786</ele>
<time>2011-04-30T00:15:20Z</time>
<desc>lat.=21.103598, lon.=106.356651, Alt.=10.472786m. Speed=66.636002m/h.</desc>
<speed>18.510000</speed>
</trkpt>
<trkpt lat="21.103355" lon="106.357498">
<ele>12.433235</ele>
<time>2011-04-30T00:15:25Z</time>
<desc>lat.=21.103355, lon.=106.357498, Alt.=12.433235m. Speed=64.043999m/h.</desc>
<speed>17.790000</speed>
</trkpt>
<trkpt lat="21.103123" lon="106.358292">
<ele>13.108528</ele>
<time>2011-04-30T00:15:30Z</time>
<desc>lat.=21.103123, lon.=106.358292, Alt.=13.108528m. Speed=60.911999m/h.</desc>
<speed>16.920000</speed>
</trkpt>
<trkpt lat="21.102955" lon="106.359131">
<ele>13.634163</ele>
<time>2011-04-30T00:15:35Z</time>
<desc>lat.=21.102955, lon.=106.359131, Alt.=13.634163m. Speed=64.980003m/h.</desc>
<speed>18.050001</speed>
</trkpt>
<trkpt lat="21.102863" lon="106.360016">
<ele>11.620979</ele>
<time>2011-04-30T00:15:40Z</time>
<desc>lat.=21.102863, lon.=106.360016, Alt.=11.620979m. Speed=65.627998m/h.</desc>
<speed>18.230000</speed>
</trkpt>
<trkpt lat="21.102789" lon="106.360893">
<ele>8.449348</ele>
<time>2011-04-30T00:15:45Z</time>
<desc>lat.=21.102789, lon.=106.360893, Alt.=8.449348m. Speed=64.512001m/h.</desc>
<speed>17.920000</speed>
</trkpt>
<trkpt lat="21.102777" lon="106.361755">
<ele>7.376041</ele>
<time>2011-04-30T00:15:50Z</time>
<desc>lat.=21.102777, lon.=106.361755, Alt.=7.376041m. Speed=62.172001m/h.</desc>
<speed>17.270000</speed>
</trkpt>
<trkpt lat="21.102776" lon="106.362549">
<ele>6.419376</ele>
<time>2011-04-30T00:15:55Z</time>
<desc>lat.=21.102776, lon.=106.362549, Alt.=6.419376m. Speed=57.023998m/h.</desc>
<speed>15.840000</speed>
</trkpt>
<trkpt lat="21.102753" lon="106.363297">
<ele>5.382023</ele>
<time>2011-04-30T00:16:00Z</time>
<desc>lat.=21.102753, lon.=106.363297, Alt.=5.382023m. Speed=56.556000m/h.</desc>
<speed>15.710000</speed>
</trkpt>
<trkpt lat="21.102707" lon="106.363976">
<ele>3.131685</ele>
<time>2011-04-30T00:16:05Z</time>
<desc>lat.=21.102707, lon.=106.363976, Alt.=3.131685m. Speed=45.792000m/h.</desc>
<speed>12.720000</speed>
</trkpt>
<trkpt lat="21.102667" lon="106.364532">
<ele>0.875725</ele>
<time>2011-04-30T00:16:10Z</time>
<desc>lat.=21.102667, lon.=106.364532, Alt.=0.875725m. Speed=42.048000m/h.</desc>
<speed>11.680000</speed>
</trkpt>
<trkpt lat="21.102568" lon="106.365128">
<ele>1.921220</ele>
<time>2011-04-30T00:16:15Z</time>
<desc>lat.=21.102568, lon.=106.365128, Alt.=1.921220m. Speed=47.088001m/h.</desc>
<speed>13.080000</speed>
</trkpt>
<trkpt lat="21.102467" lon="106.365746">
<ele>3.549471</ele>
<time>2011-04-30T00:16:20Z</time>
<desc>lat.=21.102467, lon.=106.365746, Alt.=3.549471m. Speed=50.220001m/h.</desc>
<speed>13.950000</speed>
</trkpt>
<trkpt lat="21.102306" lon="106.366417">
<ele>1.954576</ele>
<time>2011-04-30T00:16:25Z</time>
<desc>lat.=21.102306, lon.=106.366417, Alt.=1.954576m. Speed=51.875999m/h.</desc>
<speed>14.410000</speed>
</trkpt>
<trkpt lat="21.102053" lon="106.367104">
<ele>1.731004</ele>
<time>2011-04-30T00:16:30Z</time>
<desc>lat.=21.102053, lon.=106.367104, Alt.=1.731004m. Speed=60.155998m/h.</desc>
<speed>16.710000</speed>
</trkpt>
<trkpt lat="21.101704" lon="106.367828">
<ele>1.631486</ele>
<time>2011-04-30T00:16:35Z</time>
<desc>lat.=21.101704, lon.=106.367828, Alt.=1.631486m. Speed=59.616001m/h.</desc>
<speed>16.560000</speed>
</trkpt>
<trkpt lat="21.101374" lon="106.368576">
<ele>2.429964</ele>
<time>2011-04-30T00:16:40Z</time>
<desc>lat.=21.101374, lon.=106.368576, Alt.=2.429964m. Speed=59.472000m/h.</desc>
<speed>16.520000</speed>
</trkpt>
<trkpt lat="21.101055" lon="106.369301">
<ele>2.274263</ele>
<time>2011-04-30T00:16:45Z</time>
<desc>lat.=21.101055, lon.=106.369301, Alt.=2.274263m. Speed=56.916000m/h.</desc>
<speed>15.810000</speed>
</trkpt>
<trkpt lat="21.100727" lon="106.370079">
<ele>1.905808</ele>
<time>2011-04-30T00:16:50Z</time>
<desc>lat.=21.100727, lon.=106.370079, Alt.=1.905808m. Speed=63.216000m/h.</desc>
<speed>17.560000</speed>
</trkpt>
<trkpt lat="21.100458" lon="106.370850">
<ele>1.749436</ele>
<time>2011-04-30T00:16:55Z</time>
<desc>lat.=21.100458, lon.=106.370850, Alt.=1.749436m. Speed=61.344002m/h.</desc>
<speed>17.040000</speed>
</trkpt>
<trkpt lat="21.100210" lon="106.371628">
<ele>2.662874</ele>
<time>2011-04-30T00:17:00Z</time>
<desc>lat.=21.100210, lon.=106.371628, Alt.=2.662874m. Speed=57.816002m/h.</desc>
<speed>16.060001</speed>
</trkpt>
<trkpt lat="21.099998" lon="106.372375">
<ele>3.889742</ele>
<time>2011-04-30T00:17:05Z</time>
<desc>lat.=21.099998, lon.=106.372375, Alt.=3.889742m. Speed=54.216000m/h.</desc>
<speed>15.060000</speed>
</trkpt>
<trkpt lat="21.099842" lon="106.373077">
<ele>5.488956</ele>
<time>2011-04-30T00:17:10Z</time>
<desc>lat.=21.099842, lon.=106.373077, Alt.=5.488956m. Speed=49.355999m/h.</desc>
<speed>13.710000</speed>
</trkpt>
<trkpt lat="21.099733" lon="106.373672">
<ele>7.081730</ele>
<time>2011-04-30T00:17:15Z</time>
<desc>lat.=21.099733, lon.=106.373672, Alt.=7.081730m. Speed=44.279999m/h.</desc>
<speed>12.300000</speed>
</trkpt>
<trkpt lat="21.099615" lon="106.374252">
<ele>10.942757</ele>
<time>2011-04-30T00:17:20Z</time>
<desc>lat.=21.099615, lon.=106.374252, Alt.=10.942757m. Speed=44.820000m/h.</desc>
<speed>12.450000</speed>
</trkpt>
<trkpt lat="21.099508" lon="106.374901">
<ele>13.592903</ele>
<time>2011-04-30T00:17:25Z</time>
<desc>lat.=21.099508, lon.=106.374901, Alt.=13.592903m. Speed=50.796001m/h.</desc>
<speed>14.110000</speed>
</trkpt>
<trkpt lat="21.099386" lon="106.375595">
<ele>14.827034</ele>
<time>2011-04-30T00:17:30Z</time>
<desc>lat.=21.099386, lon.=106.375595, Alt.=14.827034m. Speed=54.863998m/h.</desc>
<speed>15.240000</speed>
</trkpt>
<trkpt lat="21.099268" lon="106.376335">
<ele>15.842415</ele>
<time>2011-04-30T00:17:35Z</time>
<desc>lat.=21.099268, lon.=106.376335, Alt.=15.842415m. Speed=55.476002m/h.</desc>
<speed>15.410000</speed>
</trkpt>
<trkpt lat="21.099188" lon="106.377068">
<ele>15.383430</ele>
<time>2011-04-30T00:17:40Z</time>
<desc>lat.=21.099188, lon.=106.377068, Alt.=15.383430m. Speed=54.863998m/h.</desc>
<speed>15.240000</speed>
</trkpt>
<trkpt lat="21.099258" lon="106.377762">
<ele>14.117073</ele>
<time>2011-04-30T00:17:45Z</time>
<desc>lat.=21.099258, lon.=106.377762, Alt.=14.117073m. Speed=48.599998m/h.</desc>
<speed>13.500000</speed>
</trkpt>
<trkpt lat="21.099443" lon="106.378334">
<ele>12.568245</ele>
<time>2011-04-30T00:17:50Z</time>
<desc>lat.=21.099443, lon.=106.378334, Alt.=12.568245m. Speed=38.375999m/h.</desc>
<speed>10.660000</speed>
</trkpt>
<trkpt lat="21.099661" lon="106.378738">
<ele>9.544319</ele>
<time>2011-04-30T00:17:55Z</time>
<desc>lat.=21.099661, lon.=106.378738, Alt.=9.544319m. Speed=31.247999m/h.</desc>
<speed>8.680000</speed>
</trkpt>
<trkpt lat="21.099901" lon="106.379082">
<ele>9.359016</ele>
<time>2011-04-30T00:18:00Z</time>
<desc>lat.=21.099901, lon.=106.379082, Alt.=9.359016m. Speed=35.388000m/h.</desc>
<speed>9.830000</speed>
</trkpt>
<trkpt lat="21.100245" lon="106.379440">
<ele>9.648079</ele>
<time>2011-04-30T00:18:05Z</time>
<desc>lat.=21.100245, lon.=106.379440, Alt.=9.648079m. Speed=42.192001m/h.</desc>
<speed>11.720000</speed>
</trkpt>
<trkpt lat="21.100628" lon="106.379738">
<ele>10.534798</ele>
<time>2011-04-30T00:18:10Z</time>
<desc>lat.=21.100628, lon.=106.379738, Alt.=10.534798m. Speed=33.480000m/h.</desc>
<speed>9.300000</speed>
</trkpt>
<trkpt lat="21.100945" lon="106.379936">
<ele>12.484505</ele>
<time>2011-04-30T00:18:15Z</time>
<desc>lat.=21.100945, lon.=106.379936, Alt.=12.484505m. Speed=26.604000m/h.</desc>
<speed>7.390000</speed>
</trkpt>
<trkpt lat="21.101208" lon="106.380150">
<ele>16.471451</ele>
<time>2011-04-30T00:18:20Z</time>
<desc>lat.=21.101208, lon.=106.380150, Alt.=16.471451m. Speed=26.820000m/h.</desc>
<speed>7.450000</speed>
</trkpt>
<trkpt lat="21.101479" lon="106.380348">
<ele>18.629166</ele>
<time>2011-04-30T00:18:25Z</time>
<desc>lat.=21.101479, lon.=106.380348, Alt.=18.629166m. Speed=26.280001m/h.</desc>
<speed>7.300000</speed>
</trkpt>
<trkpt lat="21.101717" lon="106.380531">
<ele>21.104752</ele>
<time>2011-04-30T00:18:30Z</time>
<desc>lat.=21.101717, lon.=106.380531, Alt.=21.104752m. Speed=14.688000m/h.</desc>
<speed>4.080000</speed>
</trkpt>
<trkpt lat="21.101940" lon="106.380707">
<ele>22.283463</ele>
<time>2011-04-30T00:18:35Z</time>
<desc>lat.=21.101940, lon.=106.380707, Alt.=22.283463m. Speed=25.379999m/h.</desc>
<speed>7.050000</speed>
</trkpt>
<trkpt lat="21.102335" lon="106.380997">
<ele>19.594986</ele>
<time>2011-04-30T00:18:40Z</time>
<desc>lat.=21.102335, lon.=106.380997, Alt.=19.594986m. Speed=37.908001m/h.</desc>
<speed>10.530000</speed>
</trkpt>
<trkpt lat="21.102770" lon="106.381310">
<ele>16.339615</ele>
<time>2011-04-30T00:18:45Z</time>
<desc>lat.=21.102770, lon.=106.381310, Alt.=16.339615m. Speed=41.256001m/h.</desc>
<speed>11.460000</speed>
</trkpt>
<trkpt lat="21.103260" lon="106.381653">
<ele>15.246956</ele>
<time>2011-04-30T00:18:50Z</time>
<desc>lat.=21.103260, lon.=106.381653, Alt.=15.246956m. Speed=41.688000m/h.</desc>
<speed>11.580000</speed>
</trkpt>
<trkpt lat="21.103745" lon="106.382004">
<ele>15.373177</ele>
<time>2011-04-30T00:18:55Z</time>
<desc>lat.=21.103745, lon.=106.382004, Alt.=15.373177m. Speed=38.195999m/h.</desc>
<speed>10.610000</speed>
</trkpt>
<trkpt lat="21.104162" lon="106.382347">
<ele>15.880501</ele>
<time>2011-04-30T00:19:00Z</time>
<desc>lat.=21.104162, lon.=106.382347, Alt.=15.880501m. Speed=35.495998m/h.</desc>
<speed>9.860000</speed>
</trkpt>
<trkpt lat="21.104448" lon="106.382568">
<ele>15.238411</ele>
<time>2011-04-30T00:19:05Z</time>
<desc>lat.=21.104448, lon.=106.382568, Alt.=15.238411m. Speed=21.563999m/h.</desc>
<speed>5.990000</speed>
</trkpt>
<trkpt lat="21.104797" lon="106.382835">
<ele>15.672005</ele>
<time>2011-04-30T00:19:10Z</time>
<desc>lat.=21.104797, lon.=106.382835, Alt.=15.672005m. Speed=35.964001m/h.</desc>
<speed>9.990000</speed>
</trkpt>
<trkpt lat="21.105198" lon="106.383118">
<ele>16.074478</ele>
<time>2011-04-30T00:19:15Z</time>
<desc>lat.=21.105198, lon.=106.383118, Alt.=16.074478m. Speed=36.324001m/h.</desc>
<speed>10.090000</speed>
</trkpt>
<trkpt lat="21.105576" lon="106.383377">
<ele>17.279556</ele>
<time>2011-04-30T00:19:20Z</time>
<desc>lat.=21.105576, lon.=106.383377, Alt.=17.279556m. Speed=35.604000m/h.</desc>
<speed>9.890000</speed>
</trkpt>
<trkpt lat="21.106043" lon="106.383705">
<ele>17.767838</ele>
<time>2011-04-30T00:19:25Z</time>
<desc>lat.=21.106043, lon.=106.383705, Alt.=17.767838m. Speed=44.028000m/h.</desc>
<speed>12.230000</speed>
</trkpt>
<trkpt lat="21.106499" lon="106.384048">
<ele>18.326431</ele>
<time>2011-04-30T00:19:30Z</time>
<desc>lat.=21.106499, lon.=106.384048, Alt.=18.326431m. Speed=42.551998m/h.</desc>
<speed>11.819999</speed>
</trkpt>
<trkpt lat="21.106846" lon="106.384384">
<ele>18.138443</ele>
<time>2011-04-30T00:19:35Z</time>
<desc>lat.=21.106846, lon.=106.384384, Alt.=18.138443m. Speed=31.068001m/h.</desc>
<speed>8.630000</speed>
</trkpt>
<trkpt lat="21.107159" lon="106.384697">
<ele>18.052017</ele>
<time>2011-04-30T00:19:40Z</time>
<desc>lat.=21.107159, lon.=106.384697, Alt.=18.052017m. Speed=34.091999m/h.</desc>
<speed>9.470000</speed>
</trkpt>
<trkpt lat="21.107458" lon="106.385017">
<ele>18.654556</ele>
<time>2011-04-30T00:19:45Z</time>
<desc>lat.=21.107458, lon.=106.385017, Alt.=18.654556m. Speed=30.708000m/h.</desc>
<speed>8.530000</speed>
</trkpt>
<trkpt lat="21.107649" lon="106.385307">
<ele>17.545670</ele>
<time>2011-04-30T00:19:50Z</time>
<desc>lat.=21.107649, lon.=106.385307, Alt.=17.545670m. Speed=22.896000m/h.</desc>
<speed>6.360000</speed>
</trkpt>
<trkpt lat="21.107876" lon="106.385612">
<ele>16.292252</ele>
<time>2011-04-30T00:19:55Z</time>
<desc>lat.=21.107876, lon.=106.385612, Alt.=16.292252m. Speed=31.176001m/h.</desc>
<speed>8.660000</speed>
</trkpt>
<trkpt lat="21.108170" lon="106.385986">
<ele>15.843391</ele>
<time>2011-04-30T00:20:00Z</time>
<desc>lat.=21.108170, lon.=106.385986, Alt.=15.843391m. Speed=38.340000m/h.</desc>
<speed>10.650000</speed>
</trkpt>
<trkpt lat="21.108484" lon="106.386398">
<ele>13.761360</ele>
<time>2011-04-30T00:20:05Z</time>
<desc>lat.=21.108484, lon.=106.386398, Alt.=13.761360m. Speed=38.627998m/h.</desc>
<speed>10.730000</speed>
</trkpt>
<trkpt lat="21.108747" lon="106.386734">
<ele>12.134407</ele>
<time>2011-04-30T00:20:10Z</time>
<desc>lat.=21.108747, lon.=106.386734, Alt.=12.134407m. Speed=29.808001m/h.</desc>
<speed>8.280000</speed>
</trkpt>
<trkpt lat="21.109011" lon="106.387085">
<ele>9.777473</ele>
<time>2011-04-30T00:20:15Z</time>
<desc>lat.=21.109011, lon.=106.387085, Alt.=9.777473m. Speed=36.396000m/h.</desc>
<speed>10.110000</speed>
</trkpt>
<trkpt lat="21.109341" lon="106.387520">
<ele>9.194466</ele>
<time>2011-04-30T00:20:20Z</time>
<desc>lat.=21.109341, lon.=106.387520, Alt.=9.194466m. Speed=42.480000m/h.</desc>
<speed>11.800000</speed>
</trkpt>
<trkpt lat="21.109713" lon="106.387985">
<ele>9.002327</ele>
<time>2011-04-30T00:20:25Z</time>
<desc>lat.=21.109713, lon.=106.387985, Alt.=9.002327m. Speed=43.848000m/h.</desc>
<speed>12.180000</speed>
</trkpt>
<trkpt lat="21.110029" lon="106.388420">
<ele>9.504280</ele>
<time>2011-04-30T00:20:30Z</time>
<desc>lat.=21.110029, lon.=106.388420, Alt.=9.504280m. Speed=34.307999m/h.</desc>
<speed>9.530000</speed>
</trkpt>
<trkpt lat="21.110340" lon="106.388771">
<ele>9.590218</ele>
<time>2011-04-30T00:20:35Z</time>
<desc>lat.=21.110340, lon.=106.388771, Alt.=9.590218m. Speed=37.512001m/h.</desc>
<speed>10.420000</speed>
</trkpt>
<trkpt lat="21.110641" lon="106.389191">
<ele>9.368782</ele>
<time>2011-04-30T00:20:40Z</time>
<desc>lat.=21.110641, lon.=106.389191, Alt.=9.368782m. Speed=39.492001m/h.</desc>
<speed>10.970000</speed>
</trkpt>
<trkpt lat="21.110981" lon="106.389641">
<ele>8.811165</ele>
<time>2011-04-30T00:20:45Z</time>
<desc>lat.=21.110981, lon.=106.389641, Alt.=8.811165m. Speed=44.063999m/h.</desc>
<speed>12.240000</speed>
</trkpt>
<trkpt lat="21.111292" lon="106.390091">
<ele>8.662239</ele>
<time>2011-04-30T00:20:50Z</time>
<desc>lat.=21.111292, lon.=106.390091, Alt.=8.662239m. Speed=36.900002m/h.</desc>
<speed>10.250000</speed>
</trkpt>
<trkpt lat="21.111519" lon="106.390396">
<ele>8.687874</ele>
<time>2011-04-30T00:20:55Z</time>
<desc>lat.=21.111519, lon.=106.390396, Alt.=8.687874m. Speed=18.756001m/h.</desc>
<speed>5.210000</speed>
</trkpt>
<trkpt lat="21.111580" lon="106.390465">
<ele>8.657112</ele>
<time>2011-04-30T00:21:00Z</time>
<desc>lat.=21.111580, lon.=106.390465, Alt.=8.657112m. Speed=1.260000m/h.</desc>
<speed>0.350000</speed>
</trkpt>
<trkpt lat="21.111607" lon="106.390480">
<ele>9.050911</ele>
<time>2011-04-30T00:21:05Z</time>
<desc>lat.=21.111607, lon.=106.390480, Alt.=9.050911m. Speed=1.080000m/h.</desc>
<speed>0.300000</speed>
</trkpt>
<trkpt lat="21.111618" lon="106.390495">
<ele>9.233040</ele>
<time>2011-04-30T00:21:10Z</time>
<desc>lat.=21.111618, lon.=106.390495, Alt.=9.233040m. Speed=1.224000m/h.</desc>
<speed>0.340000</speed>
</trkpt>
<trkpt lat="21.111643" lon="106.390488">
<ele>9.318489</ele>
<time>2011-04-30T00:21:15Z</time>
<desc>lat.=21.111643, lon.=106.390488, Alt.=9.318489m. Speed=2.160000m/h.</desc>
<speed>0.600000</speed>
</trkpt>
<trkpt lat="21.111666" lon="106.390495">
<ele>9.395393</ele>
<time>2011-04-30T00:21:20Z</time>
<desc>lat.=21.111666, lon.=106.390495, Alt.=9.395393m. Speed=1.872000m/h.</desc>
<speed>0.520000</speed>
</trkpt>
<trkpt lat="21.111681" lon="106.390503">
<ele>9.502327</ele>
<time>2011-04-30T00:21:25Z</time>
<desc>lat.=21.111681, lon.=106.390503, Alt.=9.502327m. Speed=1.080000m/h.</desc>
<speed>0.300000</speed>
</trkpt>
<trkpt lat="21.111696" lon="106.390503">
<ele>9.641243</ele>
<time>2011-04-30T00:21:30Z</time>
<desc>lat.=21.111696, lon.=106.390503, Alt.=9.641243m. Speed=0.612000m/h.</desc>
<speed>0.170000</speed>
</trkpt>
<trkpt lat="21.111704" lon="106.390503">
<ele>9.711800</ele>
<time>2011-04-30T00:21:35Z</time>
<desc>lat.=21.111704, lon.=106.390503, Alt.=9.711800m. Speed=0.576000m/h.</desc>
<speed>0.160000</speed>
</trkpt>
<trkpt lat="21.111713" lon="106.390503">
<ele>9.755989</ele>
<time>2011-04-30T00:21:40Z</time>
<desc>lat.=21.111713, lon.=106.390503, Alt.=9.755989m. Speed=0.720000m/h.</desc>
<speed>0.200000</speed>
</trkpt>
<trkpt lat="21.111721" lon="106.390518">
<ele>9.796028</ele>
<time>2011-04-30T00:21:45Z</time>
<desc>lat.=21.111721, lon.=106.390518, Alt.=9.796028m. Speed=2.664000m/h.</desc>
<speed>0.740000</speed>
</trkpt>
<trkpt lat="21.111786" lon="106.390572">
<ele>10.094124</ele>
<time>2011-04-30T00:21:50Z</time>
<desc>lat.=21.111786, lon.=106.390572, Alt.=10.094124m. Speed=10.296000m/h.</desc>
<speed>2.860000</speed>
</trkpt>
<trkpt lat="21.111900" lon="106.390724">
<ele>10.769417</ele>
<time>2011-04-30T00:21:55Z</time>
<desc>lat.=21.111900, lon.=106.390724, Alt.=10.769417m. Speed=15.084000m/h.</desc>
<speed>4.190000</speed>
</trkpt>
<trkpt lat="21.112015" lon="106.390923">
<ele>11.710335</ele>
<time>2011-04-30T00:22:00Z</time>
<desc>lat.=21.112015, lon.=106.390923, Alt.=11.710335m. Speed=20.340000m/h.</desc>
<speed>5.650000</speed>
</trkpt>
<trkpt lat="21.112310" lon="106.391296">
<ele>12.094856</ele>
<time>2011-04-30T00:22:05Z</time>
<desc>lat.=21.112310, lon.=106.391296, Alt.=12.094856m. Speed=32.976002m/h.</desc>
<speed>9.160000</speed>
</trkpt>
<trkpt lat="21.112511" lon="106.391632">
<ele>12.213509</ele>
<time>2011-04-30T00:22:10Z</time>
<desc>lat.=21.112511, lon.=106.391632, Alt.=12.213509m. Speed=21.492001m/h.</desc>
<speed>5.970000</speed>
</trkpt>
<trkpt lat="21.112644" lon="106.391800">
<ele>12.553108</ele>
<time>2011-04-30T00:22:15Z</time>
<desc>lat.=21.112644, lon.=106.391800, Alt.=12.553108m. Speed=7.128000m/h.</desc>
<speed>1.980000</speed>
</trkpt>
<trkpt lat="21.112658" lon="106.391830">
<ele>12.800423</ele>
<time>2011-04-30T00:22:20Z</time>
<desc>lat.=21.112658, lon.=106.391830, Alt.=12.800423m. Speed=0.792000m/h.</desc>
<speed>0.220000</speed>
</trkpt>
<trkpt lat="21.112661" lon="106.391838">
<ele>12.758675</ele>
<time>2011-04-30T00:22:25Z</time>
<desc>lat.=21.112661, lon.=106.391838, Alt.=12.758675m. Speed=1.440000m/h.</desc>
<speed>0.400000</speed>
</trkpt>
<trkpt lat="21.112661" lon="106.391861">
<ele>12.708870</ele>
<time>2011-04-30T00:22:30Z</time>
<desc>lat.=21.112661, lon.=106.391861, Alt.=12.708870m. Speed=0.648000m/h.</desc>
<speed>0.180000</speed>
</trkpt>
<trkpt lat="21.112667" lon="106.391861">
<ele>12.650764</ele>
<time>2011-04-30T00:22:35Z</time>
<desc>lat.=21.112667, lon.=106.391861, Alt.=12.650764m. Speed=0.468000m/h.</desc>
<speed>0.130000</speed>
</trkpt>
<trkpt lat="21.112682" lon="106.391876">
<ele>12.614632</ele>
<time>2011-04-30T00:22:40Z</time>
<desc>lat.=21.112682, lon.=106.391876, Alt.=12.614632m. Speed=4.320000m/h.</desc>
<speed>1.200000</speed>
</trkpt>
<trkpt lat="21.112759" lon="106.391968">
<ele>12.317513</ele>
<time>2011-04-30T00:22:45Z</time>
<desc>lat.=21.112759, lon.=106.391968, Alt.=12.317513m. Speed=6.516000m/h.</desc>
<speed>1.810000</speed>
</trkpt>
<trkpt lat="21.112894" lon="106.392075">
<ele>12.846077</ele>
<time>2011-04-30T00:22:50Z</time>
<desc>lat.=21.112894, lon.=106.392075, Alt.=12.846077m. Speed=16.775999m/h.</desc>
<speed>4.660000</speed>
</trkpt>
<trkpt lat="21.113075" lon="106.392311">
<ele>13.204720</ele>
<time>2011-04-30T00:22:55Z</time>
<desc>lat.=21.113075, lon.=106.392311, Alt.=13.204720m. Speed=19.944000m/h.</desc>
<speed>5.540000</speed>
</trkpt>
<trkpt lat="21.113220" lon="106.392540">
<ele>13.707893</ele>
<time>2011-04-30T00:23:00Z</time>
<desc>lat.=21.113220, lon.=106.392540, Alt.=13.707893m. Speed=15.516000m/h.</desc>
<speed>4.310000</speed>
</trkpt>
<trkpt lat="21.113272" lon="106.392654">
<ele>14.189827</ele>
<time>2011-04-30T00:23:05Z</time>
<desc>lat.=21.113272, lon.=106.392654, Alt.=14.189827m. Speed=1.152000m/h.</desc>
<speed>0.320000</speed>
</trkpt>
<trkpt lat="21.113291" lon="106.392677">
<ele>15.146614</ele>
<time>2011-04-30T00:23:10Z</time>
<desc>lat.=21.113291, lon.=106.392677, Alt.=15.146614m. Speed=1.548000m/h.</desc>
<speed>0.430000</speed>
</trkpt>
<trkpt lat="21.113312" lon="106.392715">
<ele>15.756966</ele>
<time>2011-04-30T00:23:15Z</time>
<desc>lat.=21.113312, lon.=106.392715, Alt.=15.756966m. Speed=4.608000m/h.</desc>
<speed>1.280000</speed>
</trkpt>
<trkpt lat="21.113426" lon="106.392868">
<ele>16.385025</ele>
<time>2011-04-30T00:23:20Z</time>
<desc>lat.=21.113426, lon.=106.392868, Alt.=16.385025m. Speed=17.028000m/h.</desc>
<speed>4.730000</speed>
</trkpt>
<trkpt lat="21.113577" lon="106.393074">
<ele>17.370865</ele>
<time>2011-04-30T00:23:25Z</time>
<desc>lat.=21.113577, lon.=106.393074, Alt.=17.370865m. Speed=17.964001m/h.</desc>
<speed>4.990000</speed>
</trkpt>
<trkpt lat="21.113850" lon="106.393440">
<ele>17.585709</ele>
<time>2011-04-30T00:23:30Z</time>
<desc>lat.=21.113850, lon.=106.393440, Alt.=17.585709m. Speed=25.020000m/h.</desc>
<speed>6.950000</speed>
</trkpt>
<trkpt lat="21.114052" lon="106.393761">
<ele>17.997818</ele>
<time>2011-04-30T00:23:35Z</time>
<desc>lat.=21.114052, lon.=106.393761, Alt.=17.997818m. Speed=24.840000m/h.</desc>
<speed>6.900000</speed>
</trkpt>
<trkpt lat="21.114214" lon="106.394035">
<ele>17.871841</ele>
<time>2011-04-30T00:23:40Z</time>
<desc>lat.=21.114214, lon.=106.394035, Alt.=17.871841m. Speed=17.243999m/h.</desc>
<speed>4.790000</speed>
</trkpt>
<trkpt lat="21.114391" lon="106.394272">
<ele>18.223404</ele>
<time>2011-04-30T00:23:45Z</time>
<desc>lat.=21.114391, lon.=106.394272, Alt.=18.223404m. Speed=23.507999m/h.</desc>
<speed>6.530000</speed>
</trkpt>
<trkpt lat="21.114635" lon="106.394585">
<ele>18.946060</ele>
<time>2011-04-30T00:23:50Z</time>
<desc>lat.=21.114635, lon.=106.394585, Alt.=18.946060m. Speed=24.732000m/h.</desc>
<speed>6.870000</speed>
</trkpt>
<trkpt lat="21.114874" lon="106.394890">
<ele>19.907486</ele>
<time>2011-04-30T00:23:55Z</time>
<desc>lat.=21.114874, lon.=106.394890, Alt.=19.907486m. Speed=21.348000m/h.</desc>
<speed>5.930000</speed>
</trkpt>
<trkpt lat="21.115015" lon="106.395134">
<ele>20.955826</ele>
<time>2011-04-30T00:24:00Z</time>
<desc>lat.=21.115015, lon.=106.395134, Alt.=20.955826m. Speed=19.332001m/h.</desc>
<speed>5.370000</speed>
</trkpt>
<trkpt lat="21.115202" lon="106.395432">
<ele>21.900162</ele>
<time>2011-04-30T00:24:05Z</time>
<desc>lat.=21.115202, lon.=106.395432, Alt.=21.900162m. Speed=21.167999m/h.</desc>
<speed>5.880000</speed>
</trkpt>
<trkpt lat="21.115389" lon="106.395699">
<ele>22.896744</ele>
<time>2011-04-30T00:24:10Z</time>
<desc>lat.=21.115389, lon.=106.395699, Alt.=22.896744m. Speed=25.164000m/h.</desc>
<speed>6.990000</speed>
</trkpt>
<trkpt lat="21.115534" lon="106.395966">
<ele>21.971939</ele>
<time>2011-04-30T00:24:15Z</time>
<desc>lat.=21.115534, lon.=106.395966, Alt.=21.971939m. Speed=10.764000m/h.</desc>
<speed>2.990000</speed>
</trkpt>
<trkpt lat="21.115635" lon="106.396057">
<ele>20.520767</ele>
<time>2011-04-30T00:24:20Z</time>
<desc>lat.=21.115635, lon.=106.396057, Alt.=20.520767m. Speed=1.836000m/h.</desc>
<speed>0.510000</speed>
</trkpt>
<trkpt lat="21.115673" lon="106.396118">
<ele>19.876724</ele>
<time>2011-04-30T00:24:25Z</time>
<desc>lat.=21.115673, lon.=106.396118, Alt.=19.876724m. Speed=8.820000m/h.</desc>
<speed>2.450000</speed>
</trkpt>
<trkpt lat="21.115801" lon="106.396324">
<ele>19.524673</ele>
<time>2011-04-30T00:24:30Z</time>
<desc>lat.=21.115801, lon.=106.396324, Alt.=19.524673m. Speed=21.204000m/h.</desc>
<speed>5.890000</speed>
</trkpt>
<trkpt lat="21.115973" lon="106.396629">
<ele>19.673599</ele>
<time>2011-04-30T00:24:35Z</time>
<desc>lat.=21.115973, lon.=106.396629, Alt.=19.673599m. Speed=29.879999m/h.</desc>
<speed>8.300000</speed>
</trkpt>
<trkpt lat="21.116205" lon="106.397064">
<ele>20.577408</ele>
<time>2011-04-30T00:24:40Z</time>
<desc>lat.=21.116205, lon.=106.397064, Alt.=20.577408m. Speed=35.855999m/h.</desc>
<speed>9.960000</speed>
</trkpt>
<trkpt lat="21.116465" lon="106.397484">
<ele>20.203384</ele>
<time>2011-04-30T00:24:45Z</time>
<desc>lat.=21.116465, lon.=106.397484, Alt.=20.203384m. Speed=35.208000m/h.</desc>
<speed>9.780000</speed>
</trkpt>
<trkpt lat="21.116665" lon="106.397850">
<ele>19.570084</ele>
<time>2011-04-30T00:24:50Z</time>
<desc>lat.=21.116665, lon.=106.397850, Alt.=19.570084m. Speed=25.740000m/h.</desc>
<speed>7.150000</speed>
</trkpt>
<trkpt lat="21.116867" lon="106.398186">
<ele>19.027603</ele>
<time>2011-04-30T00:24:55Z</time>
<desc>lat.=21.116867, lon.=106.398186, Alt.=19.027603m. Speed=20.375999m/h.</desc>
<speed>5.660000</speed>
</trkpt>
<trkpt lat="21.117085" lon="106.398529">
<ele>18.962173</ele>
<time>2011-04-30T00:25:00Z</time>
<desc>lat.=21.117085, lon.=106.398529, Alt.=18.962173m. Speed=26.028000m/h.</desc>
<speed>7.230000</speed>
</trkpt>
<trkpt lat="21.117275" lon="106.398857">
<ele>19.905533</ele>
<time>2011-04-30T00:25:05Z</time>
<desc>lat.=21.117275, lon.=106.398857, Alt.=19.905533m. Speed=24.804001m/h.</desc>
<speed>6.890000</speed>
</trkpt>
<trkpt lat="21.117472" lon="106.399208">
<ele>18.667252</ele>
<time>2011-04-30T00:25:10Z</time>
<desc>lat.=21.117472, lon.=106.399208, Alt.=18.667252m. Speed=25.524000m/h.</desc>
<speed>7.090000</speed>
</trkpt>
<trkpt lat="21.117788" lon="106.399559">
<ele>19.392838</ele>
<time>2011-04-30T00:25:15Z</time>
<desc>lat.=21.117788, lon.=106.399559, Alt.=19.392838m. Speed=37.368000m/h.</desc>
<speed>10.380000</speed>
</trkpt>
<trkpt lat="21.118137" lon="106.399933">
<ele>18.125259</ele>
<time>2011-04-30T00:25:20Z</time>
<desc>lat.=21.118137, lon.=106.399933, Alt.=18.125259m. Speed=36.251999m/h.</desc>
<speed>10.070000</speed>
</trkpt>
<trkpt lat="21.118511" lon="106.400238">
<ele>18.320084</ele>
<time>2011-04-30T00:25:25Z</time>
<desc>lat.=21.118511, lon.=106.400238, Alt.=18.320084m. Speed=37.080002m/h.</desc>
<speed>10.300001</speed>
</trkpt>
<trkpt lat="21.118845" lon="106.400513">
<ele>19.327408</ele>
<time>2011-04-30T00:25:30Z</time>
<desc>lat.=21.118845, lon.=106.400513, Alt.=19.327408m. Speed=26.459999m/h.</desc>
<speed>7.350000</speed>
</trkpt>
<trkpt lat="21.119204" lon="106.400826">
<ele>16.946060</ele>
<time>2011-04-30T00:25:35Z</time>
<desc>lat.=21.119204, lon.=106.400826, Alt.=16.946060m. Speed=35.568001m/h.</desc>
<speed>9.880000</speed>
</trkpt>
<trkpt lat="21.119656" lon="106.401260">
<ele>15.989143</ele>
<time>2011-04-30T00:25:40Z</time>
<desc>lat.=21.119656, lon.=106.401260, Alt.=15.989143m. Speed=44.316002m/h.</desc>
<speed>12.310001</speed>
</trkpt>
<trkpt lat="21.120018" lon="106.401749">
<ele>14.711555</ele>
<time>2011-04-30T00:25:45Z</time>
<desc>lat.=21.120018, lon.=106.401749, Alt.=14.711555m. Speed=46.116001m/h.</desc>
<speed>12.810000</speed>
</trkpt>
<trkpt lat="21.120443" lon="106.402313">
<ele>12.647835</ele>
<time>2011-04-30T00:25:50Z</time>
<desc>lat.=21.120443, lon.=106.402313, Alt.=12.647835m. Speed=52.919998m/h.</desc>
<speed>14.699999</speed>
</trkpt>
<trkpt lat="21.120850" lon="106.402901">
<ele>11.758675</ele>
<time>2011-04-30T00:25:55Z</time>
<desc>lat.=21.120850, lon.=106.402901, Alt.=11.758675m. Speed=56.987999m/h.</desc>
<speed>15.830000</speed>
</trkpt>
<trkpt lat="21.121239" lon="106.403488">
<ele>10.084846</ele>
<time>2011-04-30T00:26:00Z</time>
<desc>lat.=21.121239, lon.=106.403488, Alt.=10.084846m. Speed=50.976002m/h.</desc>
<speed>14.160000</speed>
</trkpt>
<trkpt lat="21.121599" lon="106.404030">
<ele>9.779671</ele>
<time>2011-04-30T00:26:05Z</time>
<desc>lat.=21.121599, lon.=106.404030, Alt.=9.779671m. Speed=46.332001m/h.</desc>
<speed>12.870000</speed>
</trkpt>
<trkpt lat="21.121912" lon="106.404526">
<ele>10.608284</ele>
<time>2011-04-30T00:26:10Z</time>
<desc>lat.=21.121912, lon.=106.404526, Alt.=10.608284m. Speed=44.352001m/h.</desc>
<speed>12.320000</speed>
</trkpt>
<trkpt lat="21.122221" lon="106.405029">
<ele>8.338997</ele>
<time>2011-04-30T00:26:15Z</time>
<desc>lat.=21.122221, lon.=106.405029, Alt.=8.338997m. Speed=44.604000m/h.</desc>
<speed>12.390000</speed>
</trkpt>
<trkpt lat="21.122555" lon="106.405540">
<ele>6.829288</ele>
<time>2011-04-30T00:26:20Z</time>
<desc>lat.=21.122555, lon.=106.405540, Alt.=6.829288m. Speed=48.924000m/h.</desc>
<speed>13.590000</speed>
</trkpt>
<trkpt lat="21.122936" lon="106.406097">
<ele>5.980412</ele>
<time>2011-04-30T00:26:25Z</time>
<desc>lat.=21.122936, lon.=106.406097, Alt.=5.980412m. Speed=50.616001m/h.</desc>
<speed>14.060000</speed>
</trkpt>
<trkpt lat="21.123283" lon="106.406654">
<ele>6.280216</ele>
<time>2011-04-30T00:26:30Z</time>
<desc>lat.=21.123283, lon.=106.406654, Alt.=6.280216m. Speed=50.040001m/h.</desc>
<speed>13.900000</speed>
</trkpt>
<trkpt lat="21.123634" lon="106.407234">
<ele>5.425968</ele>
<time>2011-04-30T00:26:35Z</time>
<desc>lat.=21.123634, lon.=106.407234, Alt.=5.425968m. Speed=50.040001m/h.</desc>
<speed>13.900000</speed>
</trkpt>
<trkpt lat="21.123985" lon="106.407768">
<ele>6.236393</ele>
<time>2011-04-30T00:26:40Z</time>
<desc>lat.=21.123985, lon.=106.407768, Alt.=6.236393m. Speed=47.124001m/h.</desc>
<speed>13.090000</speed>
</trkpt>
<trkpt lat="21.124355" lon="106.408295">
<ele>7.433781</ele>
<time>2011-04-30T00:26:45Z</time>
<desc>lat.=21.124355, lon.=106.408295, Alt.=7.433781m. Speed=50.327999m/h.</desc>
<speed>13.980000</speed>
</trkpt>
<trkpt lat="21.124800" lon="106.408829">
<ele>8.697884</ele>
<time>2011-04-30T00:26:50Z</time>
<desc>lat.=21.124800, lon.=106.408829, Alt.=8.697884m. Speed=54.251999m/h.</desc>
<speed>15.070000</speed>
</trkpt>
<trkpt lat="21.125301" lon="106.409393">
<ele>9.540413</ele>
<time>2011-04-30T00:26:55Z</time>
<desc>lat.=21.125301, lon.=106.409393, Alt.=9.540413m. Speed=58.248001m/h.</desc>
<speed>16.180000</speed>
</trkpt>
<trkpt lat="21.125822" lon="106.409996">
<ele>10.084114</ele>
<time>2011-04-30T00:27:00Z</time>
<desc>lat.=21.125822, lon.=106.409996, Alt.=10.084114m. Speed=60.875999m/h.</desc>
<speed>16.910000</speed>
</trkpt>
<trkpt lat="21.126328" lon="106.410622">
<ele>10.273567</ele>
<time>2011-04-30T00:27:05Z</time>
<desc>lat.=21.126328, lon.=106.410622, Alt.=10.273567m. Speed=60.264000m/h.</desc>
<speed>16.740000</speed>
</trkpt>
<trkpt lat="21.126778" lon="106.411278">
<ele>10.565071</ele>
<time>2011-04-30T00:27:10Z</time>
<desc>lat.=21.126778, lon.=106.411278, Alt.=10.565071m. Speed=59.580002m/h.</desc>
<speed>16.550001</speed>
</trkpt>
<trkpt lat="21.127195" lon="106.411911">
<ele>10.711311</ele>
<time>2011-04-30T00:27:15Z</time>
<desc>lat.=21.127195, lon.=106.411911, Alt.=10.711311m. Speed=54.720001m/h.</desc>
<speed>15.200000</speed>
</trkpt>
<trkpt lat="21.127529" lon="106.412430">
<ele>9.923225</ele>
<time>2011-04-30T00:27:20Z</time>
<desc>lat.=21.127529, lon.=106.412430, Alt.=9.923225m. Speed=40.716000m/h.</desc>
<speed>11.310000</speed>
</trkpt>
<trkpt lat="21.127823" lon="106.412872">
<ele>10.539680</ele>
<time>2011-04-30T00:27:25Z</time>
<desc>lat.=21.127823, lon.=106.412872, Alt.=10.539680m. Speed=42.731998m/h.</desc>
<speed>11.870000</speed>
</trkpt>
<trkpt lat="21.128138" lon="106.413307">
<ele>11.344856</ele>
<time>2011-04-30T00:27:30Z</time>
<desc>lat.=21.128138, lon.=106.413307, Alt.=11.344856m. Speed=40.824001m/h.</desc>
<speed>11.340000</speed>
</trkpt>
<trkpt lat="21.128475" lon="106.413803">
<ele>11.827278</ele>
<time>2011-04-30T00:27:35Z</time>
<desc>lat.=21.128475, lon.=106.413803, Alt.=11.827278m. Speed=43.344002m/h.</desc>
<speed>12.040000</speed>
</trkpt>
<trkpt lat="21.128780" lon="106.414314">
<ele>12.271126</ele>
<time>2011-04-30T00:27:40Z</time>
<desc>lat.=21.128780, lon.=106.414314, Alt.=12.271126m. Speed=42.155998m/h.</desc>
<speed>11.710000</speed>
</trkpt>
<trkpt lat="21.129030" lon="106.414864">
<ele>12.913704</ele>
<time>2011-04-30T00:27:45Z</time>
<desc>lat.=21.129030, lon.=106.414864, Alt.=12.913704m. Speed=45.216000m/h.</desc>
<speed>12.560000</speed>
</trkpt>
<trkpt lat="21.129341" lon="106.415405">
<ele>12.159554</ele>
<time>2011-04-30T00:27:50Z</time>
<desc>lat.=21.129341, lon.=106.415405, Alt.=12.159554m. Speed=45.396000m/h.</desc>
<speed>12.610000</speed>
</trkpt>
<trkpt lat="21.129622" lon="106.415947">
<ele>11.483772</ele>
<time>2011-04-30T00:27:55Z</time>
<desc>lat.=21.129622, lon.=106.415947, Alt.=11.483772m. Speed=44.712002m/h.</desc>
<speed>12.420001</speed>
</trkpt>
<trkpt lat="21.129900" lon="106.416489">
<ele>10.573372</ele>
<time>2011-04-30T00:28:00Z</time>
<desc>lat.=21.129900, lon.=106.416489, Alt.=10.573372m. Speed=44.928001m/h.</desc>
<speed>12.480000</speed>
</trkpt>
<trkpt lat="21.130165" lon="106.416992">
<ele>9.980598</ele>
<time>2011-04-30T00:28:05Z</time>
<desc>lat.=21.130165, lon.=106.416992, Alt.=9.980598m. Speed=41.688000m/h.</desc>
<speed>11.580000</speed>
</trkpt>
<trkpt lat="21.130396" lon="106.417496">
<ele>6.284000</ele>
<time>2011-04-30T00:28:10Z</time>
<desc>lat.=21.130396, lon.=106.417496, Alt.=6.284000m. Speed=41.183998m/h.</desc>
<speed>11.439999</speed>
</trkpt>
<trkpt lat="21.130625" lon="106.417969">
<ele>5.277653</ele>
<time>2011-04-30T00:28:15Z</time>
<desc>lat.=21.130625, lon.=106.417969, Alt.=5.277653m. Speed=38.015999m/h.</desc>
<speed>10.560000</speed>
</trkpt>
<trkpt lat="21.130857" lon="106.418381">
<ele>5.423649</ele>
<time>2011-04-30T00:28:20Z</time>
<desc>lat.=21.130857, lon.=106.418381, Alt.=5.423649m. Speed=23.903999m/h.</desc>
<speed>6.640000</speed>
</trkpt>
<trkpt lat="21.131102" lon="106.418510">
<ele>2.931368</ele>
<time>2011-04-30T00:28:25Z</time>
<desc>lat.=21.131102, lon.=106.418510, Alt.=2.931368m. Speed=21.492001m/h.</desc>
<speed>5.970000</speed>
</trkpt>
<trkpt lat="21.131283" lon="106.418449">
<ele>2.533846</ele>
<time>2011-04-30T00:28:30Z</time>
<desc>lat.=21.131283, lon.=106.418449, Alt.=2.533846m. Speed=8.460000m/h.</desc>
<speed>2.350000</speed>
</trkpt>
<trkpt lat="21.131317" lon="106.418434">
<ele>1.757096</ele>
<time>2011-04-30T00:28:35Z</time>
<desc>lat.=21.131317, lon.=106.418434, Alt.=1.757096m. Speed=0.900000m/h.</desc>
<speed>0.250000</speed>
</trkpt>
<trkpt lat="21.131323" lon="106.418442">
<ele>1.726853</ele>
<time>2011-04-30T00:28:40Z</time>
<desc>lat.=21.131323, lon.=106.418442, Alt.=1.726853m. Speed=0.540000m/h.</desc>
<speed>0.150000</speed>
</trkpt>
<trkpt lat="21.131325" lon="106.418449">
<ele>1.698228</ele>
<time>2011-04-30T00:28:45Z</time>
<desc>lat.=21.131325, lon.=106.418449, Alt.=1.698228m. Speed=0.576000m/h.</desc>
<speed>0.160000</speed>
</trkpt>
<trkpt lat="21.131327" lon="106.418457">
<ele>1.678941</ele>
<time>2011-04-30T00:28:50Z</time>
<desc>lat.=21.131327, lon.=106.418457, Alt.=1.678941m. Speed=0.576000m/h.</desc>
<speed>0.160000</speed>
</trkpt>
<trkpt lat="21.131332" lon="106.418457">
<ele>1.682023</ele>
<time>2011-04-30T00:28:55Z</time>
<desc>lat.=21.131332, lon.=106.418457, Alt.=1.682023m. Speed=0.324000m/h.</desc>
<speed>0.090000</speed>
</trkpt>
<trkpt lat="21.131336" lon="106.418457">
<ele>1.663560</ele>
<time>2011-04-30T00:29:00Z</time>
<desc>lat.=21.131336, lon.=106.418457, Alt.=1.663560m. Speed=0.468000m/h.</desc>
<speed>0.130000</speed>
</trkpt>
<trkpt lat="21.131342" lon="106.418457">
<ele>1.619615</ele>
<time>2011-04-30T00:29:05Z</time>
<desc>lat.=21.131342, lon.=106.418457, Alt.=1.619615m. Speed=0.252000m/h.</desc>
<speed>0.070000</speed>
</trkpt>
<trkpt lat="21.131346" lon="106.418457">
<ele>1.605332</ele>
<time>2011-04-30T00:29:10Z</time>
<desc>lat.=21.131346, lon.=106.418457, Alt.=1.605332m. Speed=0.108000m/h.</desc>
<speed>0.030000</speed>
</trkpt>
<trkpt lat="21.131346" lon="106.418457">
<ele>1.600205</ele>
<time>2011-04-30T00:29:15Z</time>
<desc>lat.=21.131346, lon.=106.418457, Alt.=1.600205m. Speed=0.468000m/h.</desc>
<speed>0.130000</speed>
</trkpt>
<trkpt lat="21.131350" lon="106.418457">
<ele>1.613664</ele>
<time>2011-04-30T00:29:20Z</time>
<desc>lat.=21.131350, lon.=106.418457, Alt.=1.613664m. Speed=0.468000m/h.</desc>
<speed>0.130000</speed>
</trkpt>
<trkpt lat="21.131351" lon="106.418457">
<ele>1.621049</ele>
<time>2011-04-30T00:29:25Z</time>
<desc>lat.=21.131351, lon.=106.418457, Alt.=1.621049m. Speed=0.576000m/h.</desc>
<speed>0.160000</speed>
</trkpt>
<trkpt lat="21.131351" lon="106.418465">
<ele>1.634934</ele>
<time>2011-04-30T00:29:30Z</time>
<desc>lat.=21.131351, lon.=106.418465, Alt.=1.634934m. Speed=0.540000m/h.</desc>
<speed>0.150000</speed>
</trkpt>
<trkpt lat="21.131351" lon="106.418472">
<ele>1.634171</ele>
<time>2011-04-30T00:29:35Z</time>
<desc>lat.=21.131351, lon.=106.418472, Alt.=1.634171m. Speed=0.900000m/h.</desc>
<speed>0.250000</speed>
</trkpt>
<trkpt lat="21.131350" lon="106.418488">
<ele>1.623521</ele>
<time>2011-04-30T00:29:40Z</time>
<desc>lat.=21.131350, lon.=106.418488, Alt.=1.623521m. Speed=0.576000m/h.</desc>
<speed>0.160000</speed>
</trkpt>
<trkpt lat="21.131348" lon="106.418495">
<ele>1.617295</ele>
<time>2011-04-30T00:29:45Z</time>
<desc>lat.=21.131348, lon.=106.418495, Alt.=1.617295m. Speed=0.216000m/h.</desc>
<speed>0.060000</speed>
</trkpt>
<trkpt lat="21.131348" lon="106.418495">
<ele>1.602464</ele>
<time>2011-04-30T00:29:50Z</time>
<desc>lat.=21.131348, lon.=106.418495, Alt.=1.602464m. Speed=0.108000m/h.</desc>
<speed>0.030000</speed>
</trkpt>
<trkpt lat="21.131350" lon="106.418495">
<ele>1.593766</ele>
<time>2011-04-30T00:29:55Z</time>
<desc>lat.=21.131350, lon.=106.418495, Alt.=1.593766m. Speed=0.576000m/h.</desc>
<speed>0.160000</speed>
</trkpt>
<trkpt lat="21.131348" lon="106.418503">
<ele>1.591569</ele>
<time>2011-04-30T00:30:00Z</time>
<desc>lat.=21.131348, lon.=106.418503, Alt.=1.591569m. Speed=0.252000m/h.</desc>
<speed>0.070000</speed>
</trkpt>
<trkpt lat="21.131346" lon="106.418510">
<ele>1.581925</ele>
<time>2011-04-30T00:30:05Z</time>
<desc>lat.=21.131346, lon.=106.418510, Alt.=1.581925m. Speed=0.108000m/h.</desc>
<speed>0.030000</speed>
</trkpt>
<trkpt lat="21.131344" lon="106.418510">
<ele>1.571244</ele>
<time>2011-04-30T00:30:10Z</time>
<desc>lat.=21.131344, lon.=106.418510, Alt.=1.571244m. Speed=0.252000m/h.</desc>
<speed>0.070000</speed>
</trkpt>
<trkpt lat="21.131344" lon="106.418510">
<ele>1.573838</ele>
<time>2011-04-30T00:30:15Z</time>
<desc>lat.=21.131344, lon.=106.418510, Alt.=1.573838m. Speed=0.756000m/h.</desc>
<speed>0.210000</speed>
</trkpt>
<trkpt lat="21.131346" lon="106.418518">
<ele>1.560197</ele>
<time>2011-04-30T00:30:20Z</time>
<desc>lat.=21.131346, lon.=106.418518, Alt.=1.560197m. Speed=0.972000m/h.</desc>
<speed>0.270000</speed>
</trkpt>
<trkpt lat="21.131348" lon="106.418526">
<ele>1.540238</ele>
<time>2011-04-30T00:30:25Z</time>
<desc>lat.=21.131348, lon.=106.418526, Alt.=1.540238m. Speed=0.432000m/h.</desc>
<speed>0.120000</speed>
</trkpt>
<trkpt lat="21.131353" lon="106.418518">
<ele>1.524156</ele>
<time>2011-04-30T00:30:30Z</time>
<desc>lat.=21.131353, lon.=106.418518, Alt.=1.524156m. Speed=0.720000m/h.</desc>
<speed>0.200000</speed>
</trkpt>
<trkpt lat="21.131359" lon="106.418510">
<ele>1.514573</ele>
<time>2011-04-30T00:30:35Z</time>
<desc>lat.=21.131359, lon.=106.418510, Alt.=1.514573m. Speed=0.612000m/h.</desc>
<speed>0.170000</speed>
</trkpt>
<trkpt lat="21.131361" lon="106.418510">
<ele>1.537736</ele>
<time>2011-04-30T00:30:40Z</time>
<desc>lat.=21.131361, lon.=106.418510, Alt.=1.537736m. Speed=0.144000m/h.</desc>
<speed>0.040000</speed>
</trkpt>
<trkpt lat="21.131359" lon="106.418510">
<ele>1.554063</ele>
<time>2011-04-30T00:30:45Z</time>
<desc>lat.=21.131359, lon.=106.418510, Alt.=1.554063m. Speed=0.216000m/h.</desc>
<speed>0.060000</speed>
</trkpt>
<trkpt lat="21.131355" lon="106.418510">
<ele>1.553361</ele>
<time>2011-04-30T00:30:50Z</time>
<desc>lat.=21.131355, lon.=106.418510, Alt.=1.553361m. Speed=0.072000m/h.</desc>
<speed>0.020000</speed>
</trkpt>
<trkpt lat="21.131355" lon="106.418503">
<ele>1.544450</ele>
<time>2011-04-30T00:30:55Z</time>
<desc>lat.=21.131355, lon.=106.418503, Alt.=1.544450m. Speed=0.396000m/h.</desc>
<speed>0.110000</speed>
</trkpt>
<trkpt lat="21.131353" lon="106.418503">
<ele>1.541032</ele>
<time>2011-04-30T00:31:00Z</time>
<desc>lat.=21.131353, lon.=106.418503, Alt.=1.541032m. Speed=0.720000m/h.</desc>
<speed>0.200000</speed>
</trkpt>
<trkpt lat="21.131351" lon="106.418495">
<ele>1.531999</ele>
<time>2011-04-30T00:31:05Z</time>
<desc>lat.=21.131351, lon.=106.418495, Alt.=1.531999m. Speed=0.144000m/h.</desc>
<speed>0.040000</speed>
</trkpt>
<trkpt lat="21.131353" lon="106.418495">
<ele>1.561387</ele>
<time>2011-04-30T00:31:10Z</time>
<desc>lat.=21.131353, lon.=106.418495, Alt.=1.561387m. Speed=0.324000m/h.</desc>
<speed>0.090000</speed>
</trkpt>
<trkpt lat="21.131355" lon="106.418495">
<ele>1.560136</ele>
<time>2011-04-30T00:31:15Z</time>
<desc>lat.=21.131355, lon.=106.418495, Alt.=1.560136m. Speed=0.324000m/h.</desc>
<speed>0.090000</speed>
</trkpt>
<trkpt lat="21.131355" lon="106.418503">
<ele>1.566361</ele>
<time>2011-04-30T00:31:20Z</time>
<desc>lat.=21.131355, lon.=106.418503, Alt.=1.566361m. Speed=0.792000m/h.</desc>
<speed>0.220000</speed>
</trkpt>
<trkpt lat="21.131348" lon="106.418518">
<ele>1.578721</ele>
<time>2011-04-30T00:31:25Z</time>
<desc>lat.=21.131348, lon.=106.418518, Alt.=1.578721m. Speed=1.836000m/h.</desc>
<speed>0.510000</speed>
</trkpt>
<trkpt lat="21.131342" lon="106.418541">
<ele>1.594163</ele>
<time>2011-04-30T00:31:30Z</time>
<desc>lat.=21.131342, lon.=106.418541, Alt.=1.594163m. Speed=1.332000m/h.</desc>
<speed>0.370000</speed>
</trkpt>
<trkpt lat="21.131342" lon="106.418556">
<ele>1.623521</ele>
<time>2011-04-30T00:31:35Z</time>
<desc>lat.=21.131342, lon.=106.418556, Alt.=1.623521m. Speed=0.756000m/h.</desc>
<speed>0.210000</speed>
</trkpt>
<trkpt lat="21.131334" lon="106.418556">
<ele>1.673509</ele>
<time>2011-04-30T00:31:40Z</time>
<desc>lat.=21.131334, lon.=106.418556, Alt.=1.673509m. Speed=0.504000m/h.</desc>
<speed>0.140000</speed>
</trkpt>
<trkpt lat="21.131329" lon="106.418556">
<ele>1.691575</ele>
<time>2011-04-30T00:31:45Z</time>
<desc>lat.=21.131329, lon.=106.418556, Alt.=1.691575m. Speed=0.612000m/h.</desc>
<speed>0.170000</speed>
</trkpt>
<trkpt lat="21.131321" lon="106.418549">
<ele>1.731126</ele>
<time>2011-04-30T00:31:50Z</time>
<desc>lat.=21.131321, lon.=106.418549, Alt.=1.731126m. Speed=1.116000m/h.</desc>
<speed>0.310000</speed>
</trkpt>
<trkpt lat="21.131315" lon="106.418533">
<ele>1.763871</ele>
<time>2011-04-30T00:31:55Z</time>
<desc>lat.=21.131315, lon.=106.418533, Alt.=1.763871m. Speed=1.332000m/h.</desc>
<speed>0.370000</speed>
</trkpt>
<trkpt lat="21.131311" lon="106.418518">
<ele>1.796250</ele>
<time>2011-04-30T00:32:00Z</time>
<desc>lat.=21.131311, lon.=106.418518, Alt.=1.796250m. Speed=1.116000m/h.</desc>
<speed>0.310000</speed>
</trkpt>
<trkpt lat="21.131310" lon="106.418503">
<ele>1.817185</ele>
<time>2011-04-30T00:32:05Z</time>
<desc>lat.=21.131310, lon.=106.418503, Alt.=1.817185m. Speed=0.864000m/h.</desc>
<speed>0.240000</speed>
</trkpt>
<trkpt lat="21.131308" lon="106.418495">
<ele>1.876756</ele>
<time>2011-04-30T00:32:10Z</time>
<desc>lat.=21.131308, lon.=106.418495, Alt.=1.876756m. Speed=0.504000m/h.</desc>
<speed>0.140000</speed>
</trkpt>
<trkpt lat="21.131306" lon="106.418488">
<ele>1.974046</ele>
<time>2011-04-30T00:32:15Z</time>
<desc>lat.=21.131306, lon.=106.418488, Alt.=1.974046m. Speed=0.360000m/h.</desc>
<speed>0.100000</speed>
</trkpt>
<trkpt lat="21.131302" lon="106.418488">
<ele>1.943070</ele>
<time>2011-04-30T00:32:20Z</time>
<desc>lat.=21.131302, lon.=106.418488, Alt.=1.943070m. Speed=0.360000m/h.</desc>
<speed>0.100000</speed>
</trkpt>
<trkpt lat="21.131298" lon="106.418480">
<ele>1.795945</ele>
<time>2011-04-30T00:32:25Z</time>
<desc>lat.=21.131298, lon.=106.418480, Alt.=1.795945m. Speed=0.540000m/h.</desc>
<speed>0.150000</speed>
</trkpt>
<trkpt lat="21.131294" lon="106.418472">
<ele>1.715592</ele>
<time>2011-04-30T00:32:30Z</time>
<desc>lat.=21.131294, lon.=106.418472, Alt.=1.715592m. Speed=1.116000m/h.</desc>
<speed>0.310000</speed>
</trkpt>
<trkpt lat="21.131289" lon="106.418457">
<ele>1.686387</ele>
<time>2011-04-30T00:32:35Z</time>
<desc>lat.=21.131289, lon.=106.418457, Alt.=1.686387m. Speed=0.684000m/h.</desc>
<speed>0.190000</speed>
</trkpt>
<trkpt lat="21.131289" lon="106.418449">
<ele>1.663987</ele>
<time>2011-04-30T00:32:40Z</time>
<desc>lat.=21.131289, lon.=106.418449, Alt.=1.663987m. Speed=0.072000m/h.</desc>
<speed>0.020000</speed>
</trkpt>
<trkpt lat="21.131287" lon="106.418457">
<ele>1.592607</ele>
<time>2011-04-30T00:32:45Z</time>
<desc>lat.=21.131287, lon.=106.418457, Alt.=1.592607m. Speed=0.216000m/h.</desc>
<speed>0.060000</speed>
</trkpt>
<trkpt lat="21.131283" lon="106.418457">
<ele>1.571397</ele>
<time>2011-04-30T00:32:50Z</time>
<desc>lat.=21.131283, lon.=106.418457, Alt.=1.571397m. Speed=0.396000m/h.</desc>
<speed>0.110000</speed>
</trkpt>
<trkpt lat="21.131277" lon="106.418457">
<ele>1.608842</ele>
<time>2011-04-30T00:32:55Z</time>
<desc>lat.=21.131277, lon.=106.418457, Alt.=1.608842m. Speed=0.576000m/h.</desc>
<speed>0.160000</speed>
</trkpt>
<trkpt lat="21.131273" lon="106.418465">
<ele>1.663499</ele>
<time>2011-04-30T00:33:00Z</time>
<desc>lat.=21.131273, lon.=106.418465, Alt.=1.663499m. Speed=0.072000m/h.</desc>
<speed>0.020000</speed>
</trkpt>
<trkpt lat="21.131273" lon="106.418465">
<ele>1.703935</ele>
<time>2011-04-30T00:33:05Z</time>
<desc>lat.=21.131273, lon.=106.418465, Alt.=1.703935m. Speed=0.468000m/h.</desc>
<speed>0.130000</speed>
</trkpt>
<trkpt lat="21.131271" lon="106.418472">
<ele>1.738542</ele>
<time>2011-04-30T00:33:10Z</time>
<desc>lat.=21.131271, lon.=106.418472, Alt.=1.738542m. Speed=0.000000m/h.</desc>
<speed>0.000000</speed>
</trkpt>
<trkpt lat="21.131271" lon="106.418465">
<ele>1.770249</ele>
<time>2011-04-30T00:33:15Z</time>
<desc>lat.=21.131271, lon.=106.418465, Alt.=1.770249m. Speed=0.972000m/h.</desc>
<speed>0.270000</speed>
</trkpt>
<trkpt lat="21.131268" lon="106.418457">
<ele>2.011873</ele>
<time>2011-04-30T00:33:20Z</time>
<desc>lat.=21.131268, lon.=106.418457, Alt.=2.011873m. Speed=0.756000m/h.</desc>
<speed>0.210000</speed>
</trkpt>
<trkpt lat="21.131235" lon="106.418419">
<ele>0.990212</ele>
<time>2011-04-30T00:33:25Z</time>
<desc>lat.=21.131235, lon.=106.418419, Alt.=0.990212m. Speed=1.188000m/h.</desc>
<speed>0.330000</speed>
</trkpt>
<trkpt lat="21.131237" lon="106.418404">
<ele>-0.391636</ele>
<time>2011-04-30T00:33:30Z</time>
<desc>lat.=21.131237, lon.=106.418404, Alt.=-0.391636m. Speed=0.504000m/h.</desc>
<speed>0.140000</speed>
</trkpt>
<trkpt lat="21.131235" lon="106.418404">
<ele>-0.475834</ele>
<time>2011-04-30T00:33:35Z</time>
<desc>lat.=21.131235, lon.=106.418404, Alt.=-0.475834m. Speed=0.288000m/h.</desc>
<speed>0.080000</speed>
</trkpt>
<trkpt lat="21.131239" lon="106.418404">
<ele>-0.678887</ele>
<time>2011-04-30T00:33:40Z</time>
<desc>lat.=21.131239, lon.=106.418404, Alt.=-0.678887m. Speed=0.576000m/h.</desc>
<speed>0.160000</speed>
</trkpt>
<trkpt lat="21.131241" lon="106.418411">
<ele>-0.963891</ele>
<time>2011-04-30T00:33:45Z</time>
<desc>lat.=21.131241, lon.=106.418411, Alt.=-0.963891m. Speed=0.936000m/h.</desc>
<speed>0.260000</speed>
</trkpt>
<trkpt lat="21.131243" lon="106.418419">
<ele>-1.323838</ele>
<time>2011-04-30T00:33:50Z</time>
<desc>lat.=21.131243, lon.=106.418419, Alt.=-1.323838m. Speed=0.792000m/h.</desc>
<speed>0.220000</speed>
</trkpt>
<trkpt lat="21.131241" lon="106.418434">
<ele>-1.691545</ele>
<time>2011-04-30T00:33:55Z</time>
<desc>lat.=21.131241, lon.=106.418434, Alt.=-1.691545m. Speed=1.692000m/h.</desc>
<speed>0.470000</speed>
</trkpt>
<trkpt lat="21.131292" lon="106.418480">
<ele>-2.625338</ele>
<time>2011-04-30T00:34:00Z</time>
<desc>lat.=21.131292, lon.=106.418480, Alt.=-2.625338m. Speed=1.620000m/h.</desc>
<speed>0.450000</speed>
</trkpt>
<trkpt lat="21.131283" lon="106.418503">
<ele>-5.865055</ele>
<time>2011-04-30T00:34:05Z</time>
<desc>lat.=21.131283, lon.=106.418503, Alt.=-5.865055m. Speed=1.080000m/h.</desc>
<speed>0.300000</speed>
</trkpt>
<trkpt lat="21.131287" lon="106.418503">
<ele>-6.553410</ele>
<time>2011-04-30T00:34:10Z</time>
<desc>lat.=21.131287, lon.=106.418503, Alt.=-6.553410m. Speed=0.216000m/h.</desc>
<speed>0.060000</speed>
</trkpt>
<trkpt lat="21.131287" lon="106.418503">
<ele>-6.953800</ele>
<time>2011-04-30T00:34:15Z</time>
<desc>lat.=21.131287, lon.=106.418503, Alt.=-6.953800m. Speed=0.288000m/h.</desc>
<speed>0.080000</speed>
</trkpt>
<trkpt lat="21.131290" lon="106.418495">
<ele>-7.308170</ele>
<time>2011-04-30T00:34:20Z</time>
<desc>lat.=21.131290, lon.=106.418495, Alt.=-7.308170m. Speed=0.180000m/h.</desc>
<speed>0.050000</speed>
</trkpt>
<trkpt lat="21.131290" lon="106.418495">
<ele>-7.520939</ele>
<time>2011-04-30T00:34:25Z</time>
<desc>lat.=21.131290, lon.=106.418495, Alt.=-7.520939m. Speed=0.108000m/h.</desc>
<speed>0.030000</speed>
</trkpt>
<trkpt lat="21.131290" lon="106.418495">
<ele>-7.492985</ele>
<time>2011-04-30T00:34:30Z</time>
<desc>lat.=21.131290, lon.=106.418495, Alt.=-7.492985m. Speed=0.000000m/h.</desc>
<speed>0.000000</speed>
</trkpt>
<trkpt lat="21.131290" lon="106.418495">
<ele>-7.437077</ele>
<time>2011-04-30T00:34:35Z</time>
<desc>lat.=21.131290, lon.=106.418495, Alt.=-7.437077m. Speed=0.036000m/h.</desc>
<speed>0.010000</speed>
</trkpt>
<trkpt lat="21.131290" lon="106.418495">
<ele>-7.426334</ele>
<time>2011-04-30T00:34:40Z</time>
<desc>lat.=21.131290, lon.=106.418495, Alt.=-7.426334m. Speed=0.000000m/h.</desc>
<speed>0.000000</speed>
</trkpt>
<trkpt lat="21.131290" lon="106.418495">
<ele>-7.401432</ele>
<time>2011-04-30T00:34:45Z</time>
<desc>lat.=21.131290, lon.=106.418495, Alt.=-7.401432m. Speed=0.036000m/h.</desc>
<speed>0.010000</speed>
</trkpt>
<trkpt lat="21.131290" lon="106.418495">
<ele>-7.362003</ele>
<time>2011-04-30T00:34:50Z</time>
<desc>lat.=21.131290, lon.=106.418495, Alt.=-7.362003m. Speed=0.144000m/h.</desc>
<speed>0.040000</speed>
</trkpt>
<trkpt lat="21.131290" lon="106.418495">
<ele>-7.342594</ele>
<time>2011-04-30T00:34:55Z</time>
<desc>lat.=21.131290, lon.=106.418495, Alt.=-7.342594m. Speed=0.036000m/h.</desc>
<speed>0.010000</speed>
</trkpt>
<trkpt lat="21.131290" lon="106.418495">
<ele>-7.344425</ele>
<time>2011-04-30T00:35:00Z</time>
<desc>lat.=21.131290, lon.=106.418495, Alt.=-7.344425m. Speed=0.036000m/h.</desc>
<speed>0.010000</speed>
</trkpt>
<trkpt lat="21.131290" lon="106.418495">
<ele>-7.302067</ele>
<time>2011-04-30T00:35:05Z</time>
<desc>lat.=21.131290, lon.=106.418495, Alt.=-7.302067m. Speed=0.072000m/h.</desc>
<speed>0.020000</speed>
</trkpt>
<trkpt lat="21.131290" lon="106.418495">
<ele>-7.258121</ele>
<time>2011-04-30T00:35:10Z</time>
<desc>lat.=21.131290, lon.=106.418495, Alt.=-7.258121m. Speed=0.000000m/h.</desc>
<speed>0.000000</speed>
</trkpt>
<trkpt lat="21.131290" lon="106.418495">
<ele>-7.255558</ele>
<time>2011-04-30T00:35:15Z</time>
<desc>lat.=21.131290, lon.=106.418495, Alt.=-7.255558m. Speed=0.036000m/h.</desc>
<speed>0.010000</speed>
</trkpt>
<trkpt lat="21.131290" lon="106.418495">
<ele>-7.273258</ele>
<time>2011-04-30T00:35:20Z</time>
<desc>lat.=21.131290, lon.=106.418495, Alt.=-7.273258m. Speed=0.252000m/h.</desc>
<speed>0.070000</speed>
</trkpt>
<trkpt lat="21.131290" lon="106.418495">
<ele>-7.294010</ele>
<time>2011-04-30T00:35:25Z</time>
<desc>lat.=21.131290, lon.=106.418495, Alt.=-7.294010m. Speed=0.432000m/h.</desc>
<speed>0.120000</speed>
</trkpt>
<trkpt lat="21.131290" lon="106.418488">
<ele>-7.317204</ele>
<time>2011-04-30T00:35:30Z</time>
<desc>lat.=21.131290, lon.=106.418488, Alt.=-7.317204m. Speed=0.648000m/h.</desc>
<speed>0.180000</speed>
</trkpt>
<trkpt lat="21.131294" lon="106.418472">
<ele>-7.350285</ele>
<time>2011-04-30T00:35:35Z</time>
<desc>lat.=21.131294, lon.=106.418472, Alt.=-7.350285m. Speed=0.936000m/h.</desc>
<speed>0.260000</speed>
</trkpt>
<trkpt lat="21.131302" lon="106.418465">
<ele>-7.336369</ele>
<time>2011-04-30T00:35:40Z</time>
<desc>lat.=21.131302, lon.=106.418465, Alt.=-7.336369m. Speed=1.080000m/h.</desc>
<speed>0.300000</speed>
</trkpt>
<trkpt lat="21.131317" lon="106.418449">
<ele>-7.482243</ele>
<time>2011-04-30T00:35:45Z</time>
<desc>lat.=21.131317, lon.=106.418449, Alt.=-7.482243m. Speed=0.756000m/h.</desc>
<speed>0.210000</speed>
</trkpt>
<trkpt lat="21.131321" lon="106.418442">
<ele>-7.479191</ele>
<time>2011-04-30T00:35:50Z</time>
<desc>lat.=21.131321, lon.=106.418442, Alt.=-7.479191m. Speed=0.720000m/h.</desc>
<speed>0.200000</speed>
</trkpt>
<trkpt lat="21.131327" lon="106.418434">
<ele>-7.464176</ele>
<time>2011-04-30T00:35:55Z</time>
<desc>lat.=21.131327, lon.=106.418434, Alt.=-7.464176m. Speed=0.792000m/h.</desc>
<speed>0.220000</speed>
</trkpt>
<trkpt lat="21.131332" lon="106.418427">
<ele>-7.366276</ele>
<time>2011-04-30T00:36:00Z</time>
<desc>lat.=21.131332, lon.=106.418427, Alt.=-7.366276m. Speed=0.648000m/h.</desc>
<speed>0.180000</speed>
</trkpt>
<trkpt lat="21.131338" lon="106.418419">
<ele>-7.229191</ele>
<time>2011-04-30T00:36:05Z</time>
<desc>lat.=21.131338, lon.=106.418419, Alt.=-7.229191m. Speed=0.432000m/h.</desc>
<speed>0.120000</speed>
</trkpt>
<trkpt lat="21.131340" lon="106.418419">
<ele>-6.943913</ele>
<time>2011-04-30T00:36:10Z</time>
<desc>lat.=21.131340, lon.=106.418419, Alt.=-6.943913m. Speed=0.324000m/h.</desc>
<speed>0.090000</speed>
</trkpt>
<trkpt lat="21.131340" lon="106.418419">
<ele>-6.429386</ele>
<time>2011-04-30T00:36:15Z</time>
<desc>lat.=21.131340, lon.=106.418419, Alt.=-6.429386m. Speed=0.288000m/h.</desc>
<speed>0.080000</speed>
</trkpt>
<trkpt lat="21.131336" lon="106.418411">
<ele>-5.620670</ele>
<time>2011-04-30T00:36:20Z</time>
<desc>lat.=21.131336, lon.=106.418411, Alt.=-5.620670m. Speed=0.684000m/h.</desc>
<speed>0.190000</speed>
</trkpt>
<trkpt lat="21.131329" lon="106.418419">
<ele>-4.609196</ele>
<time>2011-04-30T00:36:25Z</time>
<desc>lat.=21.131329, lon.=106.418419, Alt.=-4.609196m. Speed=0.828000m/h.</desc>
<speed>0.230000</speed>
</trkpt>
<trkpt lat="21.131332" lon="106.418427">
<ele>0.001143</ele>
<time>2011-04-30T00:36:30Z</time>
<desc>lat.=21.131332, lon.=106.418427, Alt.=0.001143m. Speed=0.648000m/h.</desc>
<speed>0.180000</speed>
</trkpt>
<trkpt lat="21.131327" lon="106.418449">
<ele>4.063297</ele>
<time>2011-04-30T00:36:35Z</time>
<desc>lat.=21.131327, lon.=106.418449, Alt.=4.063297m. Speed=1.116000m/h.</desc>
<speed>0.310000</speed>
</trkpt>
<trkpt lat="21.131321" lon="106.418457">
<ele>6.384708</ele>
<time>2011-04-30T00:36:40Z</time>
<desc>lat.=21.131321, lon.=106.418457, Alt.=6.384708m. Speed=1.008000m/h.</desc>
<speed>0.280000</speed>
</trkpt>
<trkpt lat="21.131323" lon="106.418465">
<ele>7.602116</ele>
<time>2011-04-30T00:36:45Z</time>
<desc>lat.=21.131323, lon.=106.418465, Alt.=7.602116m. Speed=0.864000m/h.</desc>
<speed>0.240000</speed>
</trkpt>
<trkpt lat="21.131317" lon="106.418480">
<ele>8.682259</ele>
<time>2011-04-30T00:36:50Z</time>
<desc>lat.=21.131317, lon.=106.418480, Alt.=8.682259m. Speed=0.828000m/h.</desc>
<speed>0.230000</speed>
</trkpt>
<trkpt lat="21.131311" lon="106.418480">
<ele>9.762093</ele>
<time>2011-04-30T00:36:55Z</time>
<desc>lat.=21.131311, lon.=106.418480, Alt.=9.762093m. Speed=0.864000m/h.</desc>
<speed>0.240000</speed>
</trkpt>
<trkpt lat="21.131302" lon="106.418488">
<ele>10.684700</ele>
<time>2011-04-30T00:37:00Z</time>
<desc>lat.=21.131302, lon.=106.418488, Alt.=10.684700m. Speed=0.864000m/h.</desc>
<speed>0.240000</speed>
</trkpt>
<trkpt lat="21.131294" lon="106.418495">
<ele>11.548225</ele>
<time>2011-04-30T00:37:05Z</time>
<desc>lat.=21.131294, lon.=106.418495, Alt.=11.548225m. Speed=0.684000m/h.</desc>
<speed>0.190000</speed>
</trkpt>
<trkpt lat="21.131290" lon="106.418503">
<ele>12.417122</ele>
<time>2011-04-30T00:37:10Z</time>
<desc>lat.=21.131290, lon.=106.418503, Alt.=12.417122m. Speed=0.576000m/h.</desc>
<speed>0.160000</speed>
</trkpt>
<trkpt lat="21.131287" lon="106.418503">
<ele>13.269905</ele>
<time>2011-04-30T00:37:15Z</time>
<desc>lat.=21.131287, lon.=106.418503, Alt.=13.269905m. Speed=0.540000m/h.</desc>
<speed>0.150000</speed>
</trkpt>
<trkpt lat="21.131283" lon="106.418510">
<ele>14.016731</ele>
<time>2011-04-30T00:37:20Z</time>
<desc>lat.=21.131283, lon.=106.418510, Alt.=14.016731m. Speed=0.432000m/h.</desc>
<speed>0.120000</speed>
</trkpt>
<trkpt lat="21.131283" lon="106.418518">
<ele>14.632210</ele>
<time>2011-04-30T00:37:25Z</time>
<desc>lat.=21.131283, lon.=106.418518, Alt.=14.632210m. Speed=0.360000m/h.</desc>
<speed>0.100000</speed>
</trkpt>
<trkpt lat="21.131283" lon="106.418526">
<ele>15.178841</ele>
<time>2011-04-30T00:37:30Z</time>
<desc>lat.=21.131283, lon.=106.418526, Alt.=15.178841m. Speed=0.324000m/h.</desc>
<speed>0.090000</speed>
</trkpt>
<trkpt lat="21.131287" lon="106.418526">
<ele>15.632942</ele>
<time>2011-04-30T00:37:35Z</time>
<desc>lat.=21.131287, lon.=106.418526, Alt.=15.632942m. Speed=0.432000m/h.</desc>
<speed>0.120000</speed>
</trkpt>
<trkpt lat="21.131289" lon="106.418533">
<ele>16.020279</ele>
<time>2011-04-30T00:37:40Z</time>
<desc>lat.=21.131289, lon.=106.418533, Alt.=16.020279m. Speed=0.432000m/h.</desc>
<speed>0.120000</speed>
</trkpt>
<trkpt lat="21.131290" lon="106.418533">
<ele>16.331314</ele>
<time>2011-04-30T00:37:45Z</time>
<desc>lat.=21.131290, lon.=106.418533, Alt.=16.331314m. Speed=0.144000m/h.</desc>
<speed>0.040000</speed>
</trkpt>
<trkpt lat="21.131292" lon="106.418533">
<ele>16.515396</ele>
<time>2011-04-30T00:37:50Z</time>
<desc>lat.=21.131292, lon.=106.418533, Alt.=16.515396m. Speed=0.108000m/h.</desc>
<speed>0.030000</speed>
</trkpt>
<trkpt lat="21.131294" lon="106.418541">
<ele>16.599869</ele>
<time>2011-04-30T00:37:55Z</time>
<desc>lat.=21.131294, lon.=106.418541, Alt.=16.599869m. Speed=0.108000m/h.</desc>
<speed>0.030000</speed>
</trkpt>
<trkpt lat="21.131294" lon="106.418541">
<ele>16.548111</ele>
<time>2011-04-30T00:38:00Z</time>
<desc>lat.=21.131294, lon.=106.418541, Alt.=16.548111m. Speed=0.000000m/h.</desc>
<speed>0.000000</speed>
</trkpt>
<trkpt lat="21.131294" lon="106.418533">
<ele>16.487076</ele>
<time>2011-04-30T00:38:05Z</time>
<desc>lat.=21.131294, lon.=106.418533, Alt.=16.487076m. Speed=0.036000m/h.</desc>
<speed>0.010000</speed>
</trkpt>
<trkpt lat="21.131294" lon="106.418533">
<ele>16.445084</ele>
<time>2011-04-30T00:38:10Z</time>
<desc>lat.=21.131294, lon.=106.418533, Alt.=16.445084m. Speed=0.036000m/h.</desc>
<speed>0.010000</speed>
</trkpt>
<trkpt lat="21.131294" lon="106.418533">
<ele>16.398697</ele>
<time>2011-04-30T00:38:15Z</time>
<desc>lat.=21.131294, lon.=106.418533, Alt.=16.398697m. Speed=0.072000m/h.</desc>
<speed>0.020000</speed>
</trkpt>
<trkpt lat="21.131294" lon="106.418533">
<ele>16.348404</ele>
<time>2011-04-30T00:38:20Z</time>
<desc>lat.=21.131294, lon.=106.418533, Alt.=16.348404m. Speed=0.000000m/h.</desc>
<speed>0.000000</speed>
</trkpt>
<trkpt lat="21.131294" lon="106.418533">
<ele>16.268814</ele>
<time>2011-04-30T00:38:25Z</time>
<desc>lat.=21.131294, lon.=106.418533, Alt.=16.268814m. Speed=0.036000m/h.</desc>
<speed>0.010000</speed>
</trkpt>
<trkpt lat="21.131294" lon="106.418533">
<ele>16.209244</ele>
<time>2011-04-30T00:38:30Z</time>
<desc>lat.=21.131294, lon.=106.418533, Alt.=16.209244m. Speed=0.036000m/h.</desc>
<speed>0.010000</speed>
</trkpt>
<trkpt lat="21.131294" lon="106.418533">
<ele>16.146255</ele>
<time>2011-04-30T00:38:35Z</time>
<desc>lat.=21.131294, lon.=106.418533, Alt.=16.146255m. Speed=0.000000m/h.</desc>
<speed>0.000000</speed>
</trkpt>
<trkpt lat="21.131294" lon="106.418533">
<ele>16.077408</ele>
<time>2011-04-30T00:38:40Z</time>
<desc>lat.=21.131294, lon.=106.418533, Alt.=16.077408m. Speed=0.036000m/h.</desc>
<speed>0.010000</speed>
</trkpt>
<trkpt lat="21.131294" lon="106.418533">
<ele>16.020279</ele>
<time>2011-04-30T00:38:45Z</time>
<desc>lat.=21.131294, lon.=106.418533, Alt.=16.020279m. Speed=0.072000m/h.</desc>
<speed>0.020000</speed>
</trkpt>
<trkpt lat="21.131294" lon="106.418533">
<ele>15.969368</ele>
<time>2011-04-30T00:38:50Z</time>
<desc>lat.=21.131294, lon.=106.418533, Alt.=15.969368m. Speed=0.036000m/h.</desc>
<speed>0.010000</speed>
</trkpt>
<trkpt lat="21.131294" lon="106.418533">
<ele>15.928352</ele>
<time>2011-04-30T00:38:55Z</time>
<desc>lat.=21.131294, lon.=106.418533, Alt.=15.928352m. Speed=0.000000m/h.</desc>
<speed>0.000000</speed>
</trkpt>
<trkpt lat="21.131296" lon="106.418533">
<ele>15.873909</ele>
<time>2011-04-30T00:39:00Z</time>
<desc>lat.=21.131296, lon.=106.418533, Alt.=15.873909m. Speed=0.072000m/h.</desc>
<speed>0.020000</speed>
</trkpt>
<trkpt lat="21.131296" lon="106.418533">
<ele>15.838753</ele>
<time>2011-04-30T00:39:05Z</time>
<desc>lat.=21.131296, lon.=106.418533, Alt.=15.838753m. Speed=0.108000m/h.</desc>
<speed>0.030000</speed>
</trkpt>
<trkpt lat="21.131296" lon="106.418533">
<ele>15.764290</ele>
<time>2011-04-30T00:39:10Z</time>
<desc>lat.=21.131296, lon.=106.418533, Alt.=15.764290m. Speed=0.036000m/h.</desc>
<speed>0.010000</speed>
</trkpt>
<trkpt lat="21.131296" lon="106.418533">
<ele>15.726448</ele>
<time>2011-04-30T00:39:15Z</time>
<desc>lat.=21.131296, lon.=106.418533, Alt.=15.726448m. Speed=0.108000m/h.</desc>
<speed>0.030000</speed>
</trkpt>
<trkpt lat="21.131296" lon="106.418533">
<ele>15.711555</ele>
<time>2011-04-30T00:39:20Z</time>
<desc>lat.=21.131296, lon.=106.418533, Alt.=15.711555m. Speed=0.108000m/h.</desc>
<speed>0.030000</speed>
</trkpt>
<trkpt lat="21.131298" lon="106.418533">
<ele>15.698860</ele>
<time>2011-04-30T00:39:25Z</time>
<desc>lat.=21.131298, lon.=106.418533, Alt.=15.698860m. Speed=0.108000m/h.</desc>
<speed>0.030000</speed>
</trkpt>
<trkpt lat="21.131298" lon="106.418533">
<ele>15.668098</ele>
<time>2011-04-30T00:39:30Z</time>
<desc>lat.=21.131298, lon.=106.418533, Alt.=15.668098m. Speed=0.108000m/h.</desc>
<speed>0.030000</speed>
</trkpt>
<trkpt lat="21.131298" lon="106.418533">
<ele>15.610237</ele>
<time>2011-04-30T00:39:35Z</time>
<desc>lat.=21.131298, lon.=106.418533, Alt.=15.610237m. Speed=0.072000m/h.</desc>
<speed>0.020000</speed>
</trkpt>
<trkpt lat="21.131298" lon="106.418533">
<ele>15.543831</ele>
<time>2011-04-30T00:39:40Z</time>
<desc>lat.=21.131298, lon.=106.418533, Alt.=15.543831m. Speed=0.072000m/h.</desc>
<speed>0.020000</speed>
</trkpt>
<trkpt lat="21.131298" lon="106.418533">
<ele>15.459602</ele>
<time>2011-04-30T00:39:45Z</time>
<desc>lat.=21.131298, lon.=106.418533, Alt.=15.459602m. Speed=0.108000m/h.</desc>
<speed>0.030000</speed>
</trkpt>
<trkpt lat="21.131298" lon="106.418533">
<ele>15.368538</ele>
<time>2011-04-30T00:39:50Z</time>
<desc>lat.=21.131298, lon.=106.418533, Alt.=15.368538m. Speed=0.108000m/h.</desc>
<speed>0.030000</speed>
</trkpt>
<trkpt lat="21.131298" lon="106.418526">
<ele>15.305061</ele>
<time>2011-04-30T00:39:55Z</time>
<desc>lat.=21.131298, lon.=106.418526, Alt.=15.305061m. Speed=0.108000m/h.</desc>
<speed>0.030000</speed>
</trkpt>
<trkpt lat="21.131298" lon="106.418526">
<ele>15.218880</ele>
<time>2011-04-30T00:40:00Z</time>
<desc>lat.=21.131298, lon.=106.418526, Alt.=15.218880m. Speed=0.180000m/h.</desc>
<speed>0.050000</speed>
</trkpt>
<trkpt lat="21.131298" lon="106.418526">
<ele>15.188118</ele>
<time>2011-04-30T00:40:05Z</time>
<desc>lat.=21.131298, lon.=106.418526, Alt.=15.188118m. Speed=0.144000m/h.</desc>
<speed>0.040000</speed>
</trkpt>
<trkpt lat="21.131300" lon="106.418526">
<ele>15.122688</ele>
<time>2011-04-30T00:40:10Z</time>
<desc>lat.=21.131300, lon.=106.418526, Alt.=15.122688m. Speed=0.180000m/h.</desc>
<speed>0.050000</speed>
</trkpt>
<trkpt lat="21.131300" lon="106.418526">
<ele>15.055794</ele>
<time>2011-04-30T00:40:15Z</time>
<desc>lat.=21.131300, lon.=106.418526, Alt.=15.055794m. Speed=0.144000m/h.</desc>
<speed>0.040000</speed>
</trkpt>
<trkpt lat="21.131300" lon="106.418526">
<ele>14.977913</ele>
<time>2011-04-30T00:40:20Z</time>
<desc>lat.=21.131300, lon.=106.418526, Alt.=14.977913m. Speed=0.072000m/h.</desc>
<speed>0.020000</speed>
</trkpt>
<trkpt lat="21.131302" lon="106.418526">
<ele>14.954475</ele>
<time>2011-04-30T00:40:25Z</time>
<desc>lat.=21.131302, lon.=106.418526, Alt.=14.954475m. Speed=0.072000m/h.</desc>
<speed>0.020000</speed>
</trkpt>
<trkpt lat="21.131302" lon="106.418526">
<ele>14.937141</ele>
<time>2011-04-30T00:40:30Z</time>
<desc>lat.=21.131302, lon.=106.418526, Alt.=14.937141m. Speed=0.108000m/h.</desc>
<speed>0.030000</speed>
</trkpt>
<trkpt lat="21.131302" lon="106.418526">
<ele>14.931282</ele>
<time>2011-04-30T00:40:35Z</time>
<desc>lat.=21.131302, lon.=106.418526, Alt.=14.931282m. Speed=0.108000m/h.</desc>
<speed>0.030000</speed>
</trkpt>
<trkpt lat="21.131302" lon="106.418526">
<ele>14.878059</ele>
<time>2011-04-30T00:40:40Z</time>
<desc>lat.=21.131302, lon.=106.418526, Alt.=14.878059m. Speed=0.072000m/h.</desc>
<speed>0.020000</speed>
</trkpt>
<trkpt lat="21.131306" lon="106.418518">
<ele>14.786018</ele>
<time>2011-04-30T00:40:45Z</time>
<desc>lat.=21.131306, lon.=106.418518, Alt.=14.786018m. Speed=0.576000m/h.</desc>
<speed>0.160000</speed>
</trkpt>
<trkpt lat="21.131313" lon="106.418518">
<ele>14.646858</ele>
<time>2011-04-30T00:40:50Z</time>
<desc>lat.=21.131313, lon.=106.418518, Alt.=14.646858m. Speed=0.648000m/h.</desc>
<speed>0.180000</speed>
</trkpt>
<trkpt lat="21.131323" lon="106.418518">
<ele>14.355110</ele>
<time>2011-04-30T00:40:55Z</time>
<desc>lat.=21.131323, lon.=106.418518, Alt.=14.355110m. Speed=0.612000m/h.</desc>
<speed>0.170000</speed>
</trkpt>
<trkpt lat="21.131329" lon="106.418518">
<ele>14.016243</ele>
<time>2011-04-30T00:41:00Z</time>
<desc>lat.=21.131329, lon.=106.418518, Alt.=14.016243m. Speed=0.540000m/h.</desc>
<speed>0.150000</speed>
</trkpt>
<trkpt lat="21.131336" lon="106.418510">
<ele>13.714729</ele>
<time>2011-04-30T00:41:05Z</time>
<desc>lat.=21.131336, lon.=106.418510, Alt.=13.714729m. Speed=0.612000m/h.</desc>
<speed>0.170000</speed>
</trkpt>
<trkpt lat="21.131344" lon="106.418510">
<ele>13.389778</ele>
<time>2011-04-30T00:41:10Z</time>
<desc>lat.=21.131344, lon.=106.418510, Alt.=13.389778m. Speed=0.504000m/h.</desc>
<speed>0.140000</speed>
</trkpt>
<trkpt lat="21.131346" lon="106.418503">
<ele>13.065559</ele>
<time>2011-04-30T00:41:15Z</time>
<desc>lat.=21.131346, lon.=106.418503, Alt.=13.065559m. Speed=0.468000m/h.</desc>
<speed>0.130000</speed>
</trkpt>
<trkpt lat="21.131348" lon="106.418495">
<ele>12.738411</ele>
<time>2011-04-30T00:41:20Z</time>
<desc>lat.=21.131348, lon.=106.418495, Alt.=12.738411m. Speed=0.504000m/h.</desc>
<speed>0.140000</speed>
</trkpt>
<trkpt lat="21.131346" lon="106.418488">
<ele>12.451057</ele>
<time>2011-04-30T00:41:25Z</time>
<desc>lat.=21.131346, lon.=106.418488, Alt.=12.451057m. Speed=0.648000m/h.</desc>
<speed>0.180000</speed>
</trkpt>
<trkpt lat="21.131344" lon="106.418480">
<ele>12.185921</ele>
<time>2011-04-30T00:41:30Z</time>
<desc>lat.=21.131344, lon.=106.418480, Alt.=12.185921m. Speed=0.684000m/h.</desc>
<speed>0.190000</speed>
</trkpt>
<trkpt lat="21.131342" lon="106.418472">
<ele>12.040901</ele>
<time>2011-04-30T00:41:35Z</time>
<desc>lat.=21.131342, lon.=106.418472, Alt.=12.040901m. Speed=0.720000m/h.</desc>
<speed>0.200000</speed>
</trkpt>
<trkpt lat="21.131340" lon="106.418457">
<ele>12.023079</ele>
<time>2011-04-30T00:41:40Z</time>
<desc>lat.=21.131340, lon.=106.418457, Alt.=12.023079m. Speed=0.864000m/h.</desc>
<speed>0.240000</speed>
</trkpt>
<trkpt lat="21.131338" lon="106.418442">
<ele>12.165901</ele>
<time>2011-04-30T00:41:45Z</time>
<desc>lat.=21.131338, lon.=106.418442, Alt.=12.165901m. Speed=1.044000m/h.</desc>
<speed>0.290000</speed>
</trkpt>
<trkpt lat="21.131336" lon="106.418434">
<ele>12.441780</ele>
<time>2011-04-30T00:41:50Z</time>
<desc>lat.=21.131336, lon.=106.418434, Alt.=12.441780m. Speed=0.648000m/h.</desc>
<speed>0.180000</speed>
</trkpt>
<trkpt lat="21.131334" lon="106.418427">
<ele>12.745979</ele>
<time>2011-04-30T00:41:55Z</time>
<desc>lat.=21.131334, lon.=106.418427, Alt.=12.745979m. Speed=0.360000m/h.</desc>
<speed>0.100000</speed>
</trkpt>
<trkpt lat="21.131330" lon="106.418427">
<ele>13.056282</ele>
<time>2011-04-30T00:42:00Z</time>
<desc>lat.=21.131330, lon.=106.418427, Alt.=13.056282m. Speed=0.540000m/h.</desc>
<speed>0.150000</speed>
</trkpt>
<trkpt lat="21.131327" lon="106.418419">
<ele>13.311897</ele>
<time>2011-04-30T00:42:05Z</time>
<desc>lat.=21.131327, lon.=106.418419, Alt.=13.311897m. Speed=0.396000m/h.</desc>
<speed>0.110000</speed>
</trkpt>
<trkpt lat="21.131325" lon="106.418419">
<ele>13.542122</ele>
<time>2011-04-30T00:42:10Z</time>
<desc>lat.=21.131325, lon.=106.418419, Alt.=13.542122m. Speed=0.396000m/h.</desc>
<speed>0.110000</speed>
</trkpt>
<trkpt lat="21.131321" lon="106.418419">
<ele>13.800179</ele>
<time>2011-04-30T00:42:15Z</time>
<desc>lat.=21.131321, lon.=106.418419, Alt.=13.800179m. Speed=0.180000m/h.</desc>
<speed>0.050000</speed>
</trkpt>
<trkpt lat="21.131321" lon="106.418419">
<ele>14.030159</ele>
<time>2011-04-30T00:42:20Z</time>
<desc>lat.=21.131321, lon.=106.418419, Alt.=14.030159m. Speed=0.288000m/h.</desc>
<speed>0.080000</speed>
</trkpt>
<trkpt lat="21.131317" lon="106.418427">
<ele>14.220833</ele>
<time>2011-04-30T00:42:25Z</time>
<desc>lat.=21.131317, lon.=106.418427, Alt.=14.220833m. Speed=0.396000m/h.</desc>
<speed>0.110000</speed>
</trkpt>
<trkpt lat="21.131315" lon="106.418427">
<ele>14.397102</ele>
<time>2011-04-30T00:42:30Z</time>
<desc>lat.=21.131315, lon.=106.418427, Alt.=14.397102m. Speed=0.036000m/h.</desc>
<speed>0.010000</speed>
</trkpt>
<trkpt lat="21.131315" lon="106.418427">
<ele>14.467659</ele>
<time>2011-04-30T00:42:35Z</time>
<desc>lat.=21.131315, lon.=106.418427, Alt.=14.467659m. Speed=0.072000m/h.</desc>
<speed>0.020000</speed>
</trkpt>
<trkpt lat="21.131315" lon="106.418427">
<ele>14.437874</ele>
<time>2011-04-30T00:42:40Z</time>
<desc>lat.=21.131315, lon.=106.418427, Alt.=14.437874m. Speed=0.216000m/h.</desc>
<speed>0.060000</speed>
</trkpt>
<trkpt lat="21.131315" lon="106.418427">
<ele>14.392220</ele>
<time>2011-04-30T00:42:45Z</time>
<desc>lat.=21.131315, lon.=106.418427, Alt.=14.392220m. Speed=0.072000m/h.</desc>
<speed>0.020000</speed>
</trkpt>
<trkpt lat="21.131315" lon="106.418427">
<ele>14.349739</ele>
<time>2011-04-30T00:42:50Z</time>
<desc>lat.=21.131315, lon.=106.418427, Alt.=14.349739m. Speed=0.108000m/h.</desc>
<speed>0.030000</speed>
</trkpt>
<trkpt lat="21.131315" lon="106.418427">
<ele>14.313606</ele>
<time>2011-04-30T00:42:55Z</time>
<desc>lat.=21.131315, lon.=106.418427, Alt.=14.313606m. Speed=0.144000m/h.</desc>
<speed>0.040000</speed>
</trkpt>
<trkpt lat="21.131310" lon="106.418427">
<ele>14.249397</ele>
<time>2011-04-30T00:43:00Z</time>
<desc>lat.=21.131310, lon.=106.418427, Alt.=14.249397m. Speed=0.504000m/h.</desc>
<speed>0.140000</speed>
</trkpt>
<trkpt lat="21.131302" lon="106.418427">
<ele>14.191780</ele>
<time>2011-04-30T00:43:05Z</time>
<desc>lat.=21.131302, lon.=106.418427, Alt.=14.191780m. Speed=0.648000m/h.</desc>
<speed>0.180000</speed>
</trkpt>
<trkpt lat="21.131294" lon="106.418434">
<ele>14.158577</ele>
<time>2011-04-30T00:43:10Z</time>
<desc>lat.=21.131294, lon.=106.418434, Alt.=14.158577m. Speed=0.756000m/h.</desc>
<speed>0.210000</speed>
</trkpt>
<trkpt lat="21.131287" lon="106.418442">
<ele>14.129768</ele>
<time>2011-04-30T00:43:15Z</time>
<desc>lat.=21.131287, lon.=106.418442, Alt.=14.129768m. Speed=0.972000m/h.</desc>
<speed>0.270000</speed>
</trkpt>
<trkpt lat="21.131281" lon="106.418457">
<ele>14.114143</ele>
<time>2011-04-30T00:43:20Z</time>
<desc>lat.=21.131281, lon.=106.418457, Alt.=14.114143m. Speed=0.540000m/h.</desc>
<speed>0.150000</speed>
</trkpt>
<trkpt lat="21.131277" lon="106.418465">
<ele>14.021370</ele>
<time>2011-04-30T00:43:25Z</time>
<desc>lat.=21.131277, lon.=106.418465, Alt.=14.021370m. Speed=0.684000m/h.</desc>
<speed>0.190000</speed>
</trkpt>
<trkpt lat="21.131277" lon="106.418472">
<ele>13.851448</ele>
<time>2011-04-30T00:43:30Z</time>
<desc>lat.=21.131277, lon.=106.418472, Alt.=13.851448m. Speed=0.432000m/h.</desc>
<speed>0.120000</speed>
</trkpt>
<trkpt lat="21.131273" lon="106.418480">
<ele>13.625618</ele>
<time>2011-04-30T00:43:35Z</time>
<desc>lat.=21.131273, lon.=106.418480, Alt.=13.625618m. Speed=0.684000m/h.</desc>
<speed>0.190000</speed>
</trkpt>
<trkpt lat="21.131273" lon="106.418488">
<ele>13.409554</ele>
<time>2011-04-30T00:43:40Z</time>
<desc>lat.=21.131273, lon.=106.418488, Alt.=13.409554m. Speed=0.792000m/h.</desc>
<speed>0.220000</speed>
</trkpt>
<trkpt lat="21.131271" lon="106.418495">
<ele>13.181526</ele>
<time>2011-04-30T00:43:45Z</time>
<desc>lat.=21.131271, lon.=106.418495, Alt.=13.181526m. Speed=0.540000m/h.</desc>
<speed>0.150000</speed>
</trkpt>
<trkpt lat="21.131275" lon="106.418495">
<ele>12.953987</ele>
<time>2011-04-30T00:43:50Z</time>
<desc>lat.=21.131275, lon.=106.418495, Alt.=12.953987m. Speed=0.684000m/h.</desc>
<speed>0.190000</speed>
</trkpt>
<trkpt lat="21.131277" lon="106.418503">
<ele>12.815315</ele>
<time>2011-04-30T00:43:55Z</time>
<desc>lat.=21.131277, lon.=106.418503, Alt.=12.815315m. Speed=0.072000m/h.</desc>
<speed>0.020000</speed>
</trkpt>
<trkpt lat="21.131277" lon="106.418503">
<ele>12.741829</ele>
<time>2011-04-30T00:44:00Z</time>
<desc>lat.=21.131277, lon.=106.418503, Alt.=12.741829m. Speed=0.432000m/h.</desc>
<speed>0.120000</speed>
</trkpt>
<trkpt lat="21.131275" lon="106.418495">
<ele>12.749641</ele>
<time>2011-04-30T00:44:05Z</time>
<desc>lat.=21.131275, lon.=106.418495, Alt.=12.749641m. Speed=0.720000m/h.</desc>
<speed>0.200000</speed>
</trkpt>
<trkpt lat="21.131271" lon="106.418480">
<ele>13.384651</ele>
<time>2011-04-30T00:44:10Z</time>
<desc>lat.=21.131271, lon.=106.418480, Alt.=13.384651m. Speed=1.008000m/h.</desc>
<speed>0.280000</speed>
</trkpt>
<trkpt lat="21.131273" lon="106.418457">
<ele>14.023567</ele>
<time>2011-04-30T00:44:15Z</time>
<desc>lat.=21.131273, lon.=106.418457, Alt.=14.023567m. Speed=1.116000m/h.</desc>
<speed>0.310000</speed>
</trkpt>
<trkpt lat="21.131296" lon="106.418442">
<ele>14.234016</ele>
<time>2011-04-30T00:44:20Z</time>
<desc>lat.=21.131296, lon.=106.418442, Alt.=14.234016m. Speed=1.044000m/h.</desc>
<speed>0.290000</speed>
</trkpt>
<trkpt lat="21.131304" lon="106.418434">
<ele>14.789680</ele>
<time>2011-04-30T00:44:25Z</time>
<desc>lat.=21.131304, lon.=106.418434, Alt.=14.789680m. Speed=0.756000m/h.</desc>
<speed>0.210000</speed>
</trkpt>
<trkpt lat="21.131306" lon="106.418427">
<ele>15.047981</ele>
<time>2011-04-30T00:44:30Z</time>
<desc>lat.=21.131306, lon.=106.418427, Alt.=15.047981m. Speed=0.396000m/h.</desc>
<speed>0.110000</speed>
</trkpt>
<trkpt lat="21.131306" lon="106.418419">
<ele>15.276253</ele>
<time>2011-04-30T00:44:35Z</time>
<desc>lat.=21.131306, lon.=106.418419, Alt.=15.276253m. Speed=0.288000m/h.</desc>
<speed>0.080000</speed>
</trkpt>
<trkpt lat="21.131308" lon="106.418427">
<ele>15.464485</ele>
<time>2011-04-30T00:44:40Z</time>
<desc>lat.=21.131308, lon.=106.418427, Alt.=15.464485m. Speed=0.252000m/h.</desc>
<speed>0.070000</speed>
</trkpt>
<trkpt lat="21.131308" lon="106.418427">
<ele>15.585335</ele>
<time>2011-04-30T00:44:45Z</time>
<desc>lat.=21.131308, lon.=106.418427, Alt.=15.585335m. Speed=1.044000m/h.</desc>
<speed>0.290000</speed>
</trkpt>
<trkpt lat="21.131308" lon="106.418442">
<ele>15.653938</ele>
<time>2011-04-30T00:44:50Z</time>
<desc>lat.=21.131308, lon.=106.418442, Alt.=15.653938m. Speed=0.792000m/h.</desc>
<speed>0.220000</speed>
</trkpt>
<trkpt lat="21.131308" lon="106.418449">
<ele>15.670052</ele>
<time>2011-04-30T00:44:55Z</time>
<desc>lat.=21.131308, lon.=106.418449, Alt.=15.670052m. Speed=0.396000m/h.</desc>
<speed>0.110000</speed>
</trkpt>
<trkpt lat="21.131310" lon="106.418457">
<ele>15.546761</ele>
<time>2011-04-30T00:45:00Z</time>
<desc>lat.=21.131310, lon.=106.418457, Alt.=15.546761m. Speed=0.288000m/h.</desc>
<speed>0.080000</speed>
</trkpt>
<trkpt lat="21.131310" lon="106.418449">
<ele>15.380745</ele>
<time>2011-04-30T00:45:05Z</time>
<desc>lat.=21.131310, lon.=106.418449, Alt.=15.380745m. Speed=0.684000m/h.</desc>
<speed>0.190000</speed>
</trkpt>
<trkpt lat="21.131306" lon="106.418442">
<ele>15.193489</ele>
<time>2011-04-30T00:45:10Z</time>
<desc>lat.=21.131306, lon.=106.418442, Alt.=15.193489m. Speed=0.864000m/h.</desc>
<speed>0.240000</speed>
</trkpt>
<trkpt lat="21.131300" lon="106.418434">
<ele>14.981819</ele>
<time>2011-04-30T00:45:15Z</time>
<desc>lat.=21.131300, lon.=106.418434, Alt.=14.981819m. Speed=0.360000m/h.</desc>
<speed>0.100000</speed>
</trkpt>
<trkpt lat="21.131296" lon="106.418434">
<ele>14.700325</ele>
<time>2011-04-30T00:45:20Z</time>
<desc>lat.=21.131296, lon.=106.418434, Alt.=14.700325m. Speed=0.180000m/h.</desc>
<speed>0.050000</speed>
</trkpt>
<trkpt lat="21.131294" lon="106.418434">
<ele>14.377083</ele>
<time>2011-04-30T00:45:25Z</time>
<desc>lat.=21.131294, lon.=106.418434, Alt.=14.377083m. Speed=0.540000m/h.</desc>
<speed>0.150000</speed>
</trkpt>
<trkpt lat="21.131287" lon="106.418457">
<ele>13.572395</ele>
<time>2011-04-30T00:45:30Z</time>
<desc>lat.=21.131287, lon.=106.418457, Alt.=13.572395m. Speed=1.368000m/h.</desc>
<speed>0.380000</speed>
</trkpt>
<trkpt lat="21.131271" lon="106.418472">
<ele>11.599251</ele>
<time>2011-04-30T00:45:35Z</time>
<desc>lat.=21.131271, lon.=106.418472, Alt.=11.599251m. Speed=1.224000m/h.</desc>
<speed>0.340000</speed>
</trkpt>
<trkpt lat="21.131264" lon="106.418488">
<ele>10.368050</ele>
<time>2011-04-30T00:45:40Z</time>
<desc>lat.=21.131264, lon.=106.418488, Alt.=10.368050m. Speed=1.188000m/h.</desc>
<speed>0.330000</speed>
</trkpt>
<trkpt lat="21.131273" lon="106.418510">
<ele>9.070198</ele>
<time>2011-04-30T00:45:45Z</time>
<desc>lat.=21.131273, lon.=106.418510, Alt.=9.070198m. Speed=0.972000m/h.</desc>
<speed>0.270000</speed>
</trkpt>
<trkpt lat="21.131283" lon="106.418533">
<ele>8.117317</ele>
<time>2011-04-30T00:45:50Z</time>
<desc>lat.=21.131283, lon.=106.418533, Alt.=8.117317m. Speed=0.360000m/h.</desc>
<speed>0.100000</speed>
</trkpt>
<trkpt lat="21.131283" lon="106.418541">
<ele>7.530704</ele>
<time>2011-04-30T00:45:55Z</time>
<desc>lat.=21.131283, lon.=106.418541, Alt.=7.530704m. Speed=0.252000m/h.</desc>
<speed>0.070000</speed>
</trkpt>
<trkpt lat="21.131283" lon="106.418541">
<ele>6.945988</ele>
<time>2011-04-30T00:46:00Z</time>
<desc>lat.=21.131283, lon.=106.418541, Alt.=6.945988m. Speed=0.396000m/h.</desc>
<speed>0.110000</speed>
</trkpt>
<trkpt lat="21.131287" lon="106.418549">
<ele>6.374454</ele>
<time>2011-04-30T00:46:05Z</time>
<desc>lat.=21.131287, lon.=106.418549, Alt.=6.374454m. Speed=0.468000m/h.</desc>
<speed>0.130000</speed>
</trkpt>
<trkpt lat="21.131292" lon="106.418549">
<ele>5.793522</ele>
<time>2011-04-30T00:46:10Z</time>
<desc>lat.=21.131292, lon.=106.418549, Alt.=5.793522m. Speed=0.576000m/h.</desc>
<speed>0.160000</speed>
</trkpt>
<trkpt lat="21.131300" lon="106.418556">
<ele>5.193180</ele>
<time>2011-04-30T00:46:15Z</time>
<desc>lat.=21.131300, lon.=106.418556, Alt.=5.193180m. Speed=0.540000m/h.</desc>
<speed>0.150000</speed>
</trkpt>
<trkpt lat="21.131306" lon="106.418556">
<ele>4.583683</ele>
<time>2011-04-30T00:46:20Z</time>
<desc>lat.=21.131306, lon.=106.418556, Alt.=4.583683m. Speed=0.108000m/h.</desc>
<speed>0.030000</speed>
</trkpt>
<trkpt lat="21.131306" lon="106.418556">
<ele>3.960299</ele>
<time>2011-04-30T00:46:25Z</time>
<desc>lat.=21.131306, lon.=106.418556, Alt.=3.960299m. Speed=0.252000m/h.</desc>
<speed>0.070000</speed>
</trkpt>
<trkpt lat="21.131306" lon="106.418549">
<ele>3.327669</ele>
<time>2011-04-30T00:46:30Z</time>
<desc>lat.=21.131306, lon.=106.418549, Alt.=3.327669m. Speed=0.288000m/h.</desc>
<speed>0.080000</speed>
</trkpt>
<trkpt lat="21.131306" lon="106.418549">
<ele>3.310762</ele>
<time>2011-04-30T00:46:35Z</time>
<desc>lat.=21.131306, lon.=106.418549, Alt.=3.310762m. Speed=0.144000m/h.</desc>
<speed>0.040000</speed>
</trkpt>
<trkpt lat="21.131306" lon="106.418549">
<ele>3.300081</ele>
<time>2011-04-30T00:46:40Z</time>
<desc>lat.=21.131306, lon.=106.418549, Alt.=3.300081m. Speed=0.036000m/h.</desc>
<speed>0.010000</speed>
</trkpt>
<trkpt lat="21.131304" lon="106.418549">
<ele>3.288973</ele>
<time>2011-04-30T00:46:45Z</time>
<desc>lat.=21.131304, lon.=106.418549, Alt.=3.288973m. Speed=0.036000m/h.</desc>
<speed>0.010000</speed>
</trkpt>
<trkpt lat="21.131304" lon="106.418549">
<ele>3.269442</ele>
<time>2011-04-30T00:46:50Z</time>
<desc>lat.=21.131304, lon.=106.418549, Alt.=3.269442m. Speed=0.072000m/h.</desc>
<speed>0.020000</speed>
</trkpt>
<trkpt lat="21.131306" lon="106.418549">
<ele>3.236177</ele>
<time>2011-04-30T00:46:55Z</time>
<desc>lat.=21.131306, lon.=106.418549, Alt.=3.236177m. Speed=0.324000m/h.</desc>
<speed>0.090000</speed>
</trkpt>
<trkpt lat="21.131308" lon="106.418541">
<ele>3.094454</ele>
<time>2011-04-30T00:47:00Z</time>
<desc>lat.=21.131308, lon.=106.418541, Alt.=3.094454m. Speed=0.360000m/h.</desc>
<speed>0.100000</speed>
</trkpt>
<trkpt lat="21.131308" lon="106.418533">
<ele>2.876986</ele>
<time>2011-04-30T00:47:05Z</time>
<desc>lat.=21.131308, lon.=106.418533, Alt.=2.876986m. Speed=0.504000m/h.</desc>
<speed>0.140000</speed>
</trkpt>
<trkpt lat="21.131306" lon="106.418526">
<ele>2.538607</ele>
<time>2011-04-30T00:47:10Z</time>
<desc>lat.=21.131306, lon.=106.418526, Alt.=2.538607m. Speed=0.684000m/h.</desc>
<speed>0.190000</speed>
</trkpt>
<trkpt lat="21.131304" lon="106.418518">
<ele>1.958482</ele>
<time>2011-04-30T00:47:15Z</time>
<desc>lat.=21.131304, lon.=106.418518, Alt.=1.958482m. Speed=0.828000m/h.</desc>
<speed>0.230000</speed>
</trkpt>
<trkpt lat="21.131300" lon="106.418503">
<ele>1.187760</ele>
<time>2011-04-30T00:47:20Z</time>
<desc>lat.=21.131300, lon.=106.418503, Alt.=1.187760m. Speed=0.900000m/h.</desc>
<speed>0.250000</speed>
</trkpt>
<trkpt lat="21.131300" lon="106.418495">
<ele>0.371266</ele>
<time>2011-04-30T00:47:25Z</time>
<desc>lat.=21.131300, lon.=106.418495, Alt.=0.371266m. Speed=0.864000m/h.</desc>
<speed>0.240000</speed>
</trkpt>
<trkpt lat="21.131302" lon="106.418480">
<ele>-0.516732</ele>
<time>2011-04-30T00:47:30Z</time>
<desc>lat.=21.131302, lon.=106.418480, Alt.=-0.516732m. Speed=0.792000m/h.</desc>
<speed>0.220000</speed>
</trkpt>
<trkpt lat="21.131304" lon="106.418472">
<ele>-1.407670</ele>
<time>2011-04-30T00:47:35Z</time>
<desc>lat.=21.131304, lon.=106.418472, Alt.=-1.407670m. Speed=0.540000m/h.</desc>
<speed>0.150000</speed>
</trkpt>
<trkpt lat="21.131300" lon="106.418465">
<ele>-2.319124</ele>
<time>2011-04-30T00:47:40Z</time>
<desc>lat.=21.131300, lon.=106.418465, Alt.=-2.319124m. Speed=0.396000m/h.</desc>
<speed>0.110000</speed>
</trkpt>
<trkpt lat="21.131298" lon="106.418465">
<ele>-3.266451</ele>
<time>2011-04-30T00:47:45Z</time>
<desc>lat.=21.131298, lon.=106.418465, Alt.=-3.266451m. Speed=0.108000m/h.</desc>
<speed>0.030000</speed>
</trkpt>
<trkpt lat="21.131296" lon="106.418472">
<ele>-4.235294</ele>
<time>2011-04-30T00:47:50Z</time>
<desc>lat.=21.131296, lon.=106.418472, Alt.=-4.235294m. Speed=0.324000m/h.</desc>
<speed>0.090000</speed>
</trkpt>
<trkpt lat="21.131296" lon="106.418472">
<ele>-5.019962</ele>
<time>2011-04-30T00:47:55Z</time>
<desc>lat.=21.131296, lon.=106.418472, Alt.=-5.019962m. Speed=0.144000m/h.</desc>
<speed>0.040000</speed>
</trkpt>
<trkpt lat="21.131296" lon="106.418472">
<ele>-5.030460</ele>
<time>2011-04-30T00:48:00Z</time>
<desc>lat.=21.131296, lon.=106.418472, Alt.=-5.030460m. Speed=0.000000m/h.</desc>
<speed>0.000000</speed>
</trkpt>
<trkpt lat="21.131296" lon="106.418472">
<ele>-4.994450</ele>
<time>2011-04-30T00:48:05Z</time>
<desc>lat.=21.131296, lon.=106.418472, Alt.=-4.994450m. Speed=0.036000m/h.</desc>
<speed>0.010000</speed>
</trkpt>
<trkpt lat="21.131296" lon="106.418472">
<ele>-4.925480</ele>
<time>2011-04-30T00:48:10Z</time>
<desc>lat.=21.131296, lon.=106.418472, Alt.=-4.925480m. Speed=0.324000m/h.</desc>
<speed>0.090000</speed>
</trkpt>
<trkpt lat="21.131294" lon="106.418472">
<ele>-4.924625</ele>
<time>2011-04-30T00:48:15Z</time>
<desc>lat.=21.131294, lon.=106.418472, Alt.=-4.924625m. Speed=0.216000m/h.</desc>
<speed>0.060000</speed>
</trkpt>
<trkpt lat="21.131287" lon="106.418472">
<ele>-4.882389</ele>
<time>2011-04-30T00:48:20Z</time>
<desc>lat.=21.131287, lon.=106.418472, Alt.=-4.882389m. Speed=1.116000m/h.</desc>
<speed>0.310000</speed>
</trkpt>
<trkpt lat="21.131231" lon="106.418465">
<ele>-5.126530</ele>
<time>2011-04-30T00:48:25Z</time>
<desc>lat.=21.131231, lon.=106.418465, Alt.=-5.126530m. Speed=0.792000m/h.</desc>
<speed>0.220000</speed>
</trkpt>
<trkpt lat="21.131222" lon="106.418472">
<ele>-5.309513</ele>
<time>2011-04-30T00:48:30Z</time>
<desc>lat.=21.131222, lon.=106.418472, Alt.=-5.309513m. Speed=2.232000m/h.</desc>
<speed>0.620000</speed>
</trkpt>
<trkpt lat="21.131176" lon="106.418587">
<ele>-5.109806</ele>
<time>2011-04-30T00:48:35Z</time>
<desc>lat.=21.131176, lon.=106.418587, Alt.=-5.109806m. Speed=8.604000m/h.</desc>
<speed>2.390000</speed>
</trkpt>
<trkpt lat="21.131182" lon="106.418678">
<ele>-5.874210</ele>
<time>2011-04-30T00:48:40Z</time>
<desc>lat.=21.131182, lon.=106.418678, Alt.=-5.874210m. Speed=0.864000m/h.</desc>
<speed>0.240000</speed>
</trkpt>
<trkpt lat="21.131159" lon="106.418732">
<ele>-4.614445</ele>
<time>2011-04-30T00:48:45Z</time>
<desc>lat.=21.131159, lon.=106.418732, Alt.=-4.614445m. Speed=5.652000m/h.</desc>
<speed>1.570000</speed>
</trkpt>
<trkpt lat="21.131166" lon="106.418961">
<ele>-3.188143</ele>
<time>2011-04-30T00:48:50Z</time>
<desc>lat.=21.131166, lon.=106.418961, Alt.=-3.188143m. Speed=22.427999m/h.</desc>
<speed>6.230000</speed>
</trkpt>
<trkpt lat="21.131306" lon="106.419289">
<ele>-1.635728</ele>
<time>2011-04-30T00:48:55Z</time>
<desc>lat.=21.131306, lon.=106.419289, Alt.=-1.635728m. Speed=31.643999m/h.</desc>
<speed>8.790000</speed>
</trkpt>
<trkpt lat="21.131531" lon="106.419777">
<ele>-3.399263</ele>
<time>2011-04-30T00:49:00Z</time>
<desc>lat.=21.131531, lon.=106.419777, Alt.=-3.399263m. Speed=40.967999m/h.</desc>
<speed>11.380000</speed>
</trkpt>
<trkpt lat="21.131802" lon="106.420311">
<ele>-3.281649</ele>
<time>2011-04-30T00:49:05Z</time>
<desc>lat.=21.131802, lon.=106.420311, Alt.=-3.281649m. Speed=44.495998m/h.</desc>
<speed>12.360000</speed>
</trkpt>
<trkpt lat="21.132076" lon="106.420868">
<ele>-3.709200</ele>
<time>2011-04-30T00:49:10Z</time>
<desc>lat.=21.132076, lon.=106.420868, Alt.=-3.709200m. Speed=44.459999m/h.</desc>
<speed>12.350000</speed>
</trkpt>
<trkpt lat="21.132385" lon="106.421425">
<ele>-2.314302</ele>
<time>2011-04-30T00:49:15Z</time>
<desc>lat.=21.132385, lon.=106.421425, Alt.=-2.314302m. Speed=47.051998m/h.</desc>
<speed>13.069999</speed>
</trkpt>
<trkpt lat="21.132660" lon="106.421951">
<ele>-0.494396</ele>
<time>2011-04-30T00:49:20Z</time>
<desc>lat.=21.132660, lon.=106.421951, Alt.=-0.494396m. Speed=44.532001m/h.</desc>
<speed>12.370000</speed>
</trkpt>
<trkpt lat="21.132904" lon="106.422485">
<ele>-1.438188</ele>
<time>2011-04-30T00:49:25Z</time>
<desc>lat.=21.132904, lon.=106.422485, Alt.=-1.438188m. Speed=43.020000m/h.</desc>
<speed>11.950000</speed>
</trkpt>
<trkpt lat="21.133144" lon="106.422989">
<ele>-2.871798</ele>
<time>2011-04-30T00:49:30Z</time>
<desc>lat.=21.133144, lon.=106.422989, Alt.=-2.871798m. Speed=43.703999m/h.</desc>
<speed>12.140000</speed>
</trkpt>
<trkpt lat="21.133343" lon="106.423553">
<ele>-4.355656</ele>
<time>2011-04-30T00:49:35Z</time>
<desc>lat.=21.133343, lon.=106.423553, Alt.=-4.355656m. Speed=48.167999m/h.</desc>
<speed>13.380000</speed>
</trkpt>
<trkpt lat="21.133478" lon="106.424225">
<ele>-5.165104</ele>
<time>2011-04-30T00:49:40Z</time>
<desc>lat.=21.133478, lon.=106.424225, Alt.=-5.165104m. Speed=55.368000m/h.</desc>
<speed>15.380000</speed>
</trkpt>
<trkpt lat="21.133493" lon="106.424995">
<ele>-6.109684</ele>
<time>2011-04-30T00:49:45Z</time>
<desc>lat.=21.133493, lon.=106.424995, Alt.=-6.109684m. Speed=61.560001m/h.</desc>
<speed>17.100000</speed>
</trkpt>
<trkpt lat="21.133394" lon="106.425819">
<ele>-5.840031</ele>
<time>2011-04-30T00:49:50Z</time>
<desc>lat.=21.133394, lon.=106.425819, Alt.=-5.840031m. Speed=63.251999m/h.</desc>
<speed>17.570000</speed>
</trkpt>
<trkpt lat="21.133303" lon="106.426682">
<ele>-5.427799</ele>
<time>2011-04-30T00:49:55Z</time>
<desc>lat.=21.133303, lon.=106.426682, Alt.=-5.427799m. Speed=67.751999m/h.</desc>
<speed>18.820000</speed>
</trkpt>
<trkpt lat="21.133217" lon="106.427635">
<ele>-5.097721</ele>
<time>2011-04-30T00:50:00Z</time>
<desc>lat.=21.133217, lon.=106.427635, Alt.=-5.097721m. Speed=71.099998m/h.</desc>
<speed>19.750000</speed>
</trkpt>
<trkpt lat="21.133099" lon="106.428612">
<ele>-4.250553</ele>
<time>2011-04-30T00:50:05Z</time>
<desc>lat.=21.133099, lon.=106.428612, Alt.=-4.250553m. Speed=73.620003m/h.</desc>
<speed>20.450001</speed>
</trkpt>
<trkpt lat="21.132957" lon="106.429596">
<ele>-4.807316</ele>
<time>2011-04-30T00:50:10Z</time>
<desc>lat.=21.132957, lon.=106.429596, Alt.=-4.807316m. Speed=71.856003m/h.</desc>
<speed>19.960001</speed>
</trkpt>
<trkpt lat="21.132835" lon="106.430473">
<ele>-8.329964</ele>
<time>2011-04-30T00:50:15Z</time>
<desc>lat.=21.132835, lon.=106.430473, Alt.=-8.329964m. Speed=57.492001m/h.</desc>
<speed>15.970000</speed>
</trkpt>
<trkpt lat="21.132730" lon="106.431160">
<ele>-10.596565</ele>
<time>2011-04-30T00:50:20Z</time>
<desc>lat.=21.132730, lon.=106.431160, Alt.=-10.596565m. Speed=43.992001m/h.</desc>
<speed>12.220000</speed>
</trkpt>
<trkpt lat="21.132668" lon="106.431763">
<ele>-10.737923</ele>
<time>2011-04-30T00:50:25Z</time>
<desc>lat.=21.132668, lon.=106.431763, Alt.=-10.737923m. Speed=44.568001m/h.</desc>
<speed>12.380000</speed>
</trkpt>
<trkpt lat="21.132641" lon="106.432274">
<ele>-10.296028</ele>
<time>2011-04-30T00:50:30Z</time>
<desc>lat.=21.132641, lon.=106.432274, Alt.=-10.296028m. Speed=31.643999m/h.</desc>
<speed>8.790000</speed>
</trkpt>
<trkpt lat="21.132658" lon="106.432587">
<ele>-10.089729</ele>
<time>2011-04-30T00:50:35Z</time>
<desc>lat.=21.132658, lon.=106.432587, Alt.=-10.089729m. Speed=14.940000m/h.</desc>
<speed>4.150000</speed>
</trkpt>
<trkpt lat="21.132685" lon="106.432777">
<ele>-7.953190</ele>
<time>2011-04-30T00:50:40Z</time>
<desc>lat.=21.132685, lon.=106.432777, Alt.=-7.953190m. Speed=14.220000m/h.</desc>
<speed>3.950000</speed>
</trkpt>
<trkpt lat="21.132721" lon="106.432999">
<ele>-8.462532</ele>
<time>2011-04-30T00:50:45Z</time>
<desc>lat.=21.132721, lon.=106.432999, Alt.=-8.462532m. Speed=15.912000m/h.</desc>
<speed>4.420000</speed>
</trkpt>
<trkpt lat="21.132769" lon="106.433266">
<ele>-6.930241</ele>
<time>2011-04-30T00:50:50Z</time>
<desc>lat.=21.132769, lon.=106.433266, Alt.=-6.930241m. Speed=21.672001m/h.</desc>
<speed>6.020000</speed>
</trkpt>
<trkpt lat="21.132803" lon="106.433586">
<ele>-4.925846</ele>
<time>2011-04-30T00:50:55Z</time>
<desc>lat.=21.132803, lon.=106.433586, Alt.=-4.925846m. Speed=27.431999m/h.</desc>
<speed>7.620000</speed>
</trkpt>
<trkpt lat="21.132843" lon="106.434036">
<ele>-4.996403</ele>
<time>2011-04-30T00:51:00Z</time>
<desc>lat.=21.132843, lon.=106.434036, Alt.=-4.996403m. Speed=36.972000m/h.</desc>
<speed>10.270000</speed>
</trkpt>
<trkpt lat="21.132769" lon="106.434532">
<ele>-4.446598</ele>
<time>2011-04-30T00:51:05Z</time>
<desc>lat.=21.132769, lon.=106.434532, Alt.=-4.446598m. Speed=37.223999m/h.</desc>
<speed>10.340000</speed>
</trkpt>
<trkpt lat="21.132658" lon="106.434990">
<ele>-3.696016</ele>
<time>2011-04-30T00:51:10Z</time>
<desc>lat.=21.132658, lon.=106.434990, Alt.=-3.696016m. Speed=32.147999m/h.</desc>
<speed>8.930000</speed>
</trkpt>
<trkpt lat="21.132549" lon="106.435371">
<ele>-3.036715</ele>
<time>2011-04-30T00:51:15Z</time>
<desc>lat.=21.132549, lon.=106.435371, Alt.=-3.036715m. Speed=31.139999m/h.</desc>
<speed>8.650000</speed>
</trkpt>
<trkpt lat="21.132431" lon="106.435860">
<ele>-1.685197</ele>
<time>2011-04-30T00:51:20Z</time>
<desc>lat.=21.132431, lon.=106.435860, Alt.=-1.685197m. Speed=35.820000m/h.</desc>
<speed>9.950000</speed>
</trkpt>
<trkpt lat="21.132284" lon="106.436401">
<ele>-3.598299</ele>
<time>2011-04-30T00:51:25Z</time>
<desc>lat.=21.132284, lon.=106.436401, Alt.=-3.598299m. Speed=43.632000m/h.</desc>
<speed>12.120000</speed>
</trkpt>
<trkpt lat="21.132092" lon="106.437004">
<ele>-3.551424</ele>
<time>2011-04-30T00:51:30Z</time>
<desc>lat.=21.132092, lon.=106.437004, Alt.=-3.551424m. Speed=48.924000m/h.</desc>
<speed>13.590000</speed>
</trkpt>
<trkpt lat="21.131874" lon="106.437668">
<ele>-3.440950</ele>
<time>2011-04-30T00:51:35Z</time>
<desc>lat.=21.131874, lon.=106.437668, Alt.=-3.440950m. Speed=52.416000m/h.</desc>
<speed>14.560000</speed>
</trkpt>
<trkpt lat="21.131670" lon="106.438408">
<ele>-1.328721</ele>
<time>2011-04-30T00:51:40Z</time>
<desc>lat.=21.131670, lon.=106.438408, Alt.=-1.328721m. Speed=59.183998m/h.</desc>
<speed>16.439999</speed>
</trkpt>
<trkpt lat="21.131458" lon="106.439163">
<ele>-1.981828</ele>
<time>2011-04-30T00:51:45Z</time>
<desc>lat.=21.131458, lon.=106.439163, Alt.=-1.981828m. Speed=55.476002m/h.</desc>
<speed>15.410000</speed>
</trkpt>
<trkpt lat="21.131285" lon="106.439735">
<ele>-1.969254</ele>
<time>2011-04-30T00:51:50Z</time>
<desc>lat.=21.131285, lon.=106.439735, Alt.=-1.969254m. Speed=40.391998m/h.</desc>
<speed>11.220000</speed>
</trkpt>
<trkpt lat="21.131124" lon="106.440231">
<ele>-2.339693</ele>
<time>2011-04-30T00:51:55Z</time>
<desc>lat.=21.131124, lon.=106.440231, Alt.=-2.339693m. Speed=37.043999m/h.</desc>
<speed>10.290000</speed>
</trkpt>
<trkpt lat="21.130985" lon="106.440636">
<ele>-2.401339</ele>
<time>2011-04-30T00:52:00Z</time>
<desc>lat.=21.130985, lon.=106.440636, Alt.=-2.401339m. Speed=31.680000m/h.</desc>
<speed>8.800000</speed>
</trkpt>
<trkpt lat="21.130875" lon="106.441086">
<ele>-4.317204</ele>
<time>2011-04-30T00:52:05Z</time>
<desc>lat.=21.130875, lon.=106.441086, Alt.=-4.317204m. Speed=35.639999m/h.</desc>
<speed>9.900000</speed>
</trkpt>
<trkpt lat="21.130716" lon="106.441658">
<ele>-4.453434</ele>
<time>2011-04-30T00:52:10Z</time>
<desc>lat.=21.130716, lon.=106.441658, Alt.=-4.453434m. Speed=47.484001m/h.</desc>
<speed>13.190000</speed>
</trkpt>
<trkpt lat="21.130524" lon="106.442299">
<ele>-6.522160</ele>
<time>2011-04-30T00:52:15Z</time>
<desc>lat.=21.130524, lon.=106.442299, Alt.=-6.522160m. Speed=47.340000m/h.</desc>
<speed>13.150000</speed>
</trkpt>
<trkpt lat="21.130354" lon="106.442856">
<ele>-9.291878</ele>
<time>2011-04-30T00:52:20Z</time>
<desc>lat.=21.130354, lon.=106.442856, Alt.=-9.291878m. Speed=36.251999m/h.</desc>
<speed>10.070000</speed>
</trkpt>
<trkpt lat="21.130226" lon="106.443352">
<ele>-10.339973</ele>
<time>2011-04-30T00:52:25Z</time>
<desc>lat.=21.130226, lon.=106.443352, Alt.=-10.339973m. Speed=40.680000m/h.</desc>
<speed>11.300000</speed>
</trkpt>
<trkpt lat="21.130089" lon="106.443932">
<ele>-7.447453</ele>
<time>2011-04-30T00:52:30Z</time>
<desc>lat.=21.130089, lon.=106.443932, Alt.=-7.447453m. Speed=46.835999m/h.</desc>
<speed>13.010000</speed>
</trkpt>
<trkpt lat="21.129917" lon="106.444550">
<ele>-5.149357</ele>
<time>2011-04-30T00:52:35Z</time>
<desc>lat.=21.129917, lon.=106.444550, Alt.=-5.149357m. Speed=48.779999m/h.</desc>
<speed>13.550000</speed>
</trkpt>
<trkpt lat="21.129717" lon="106.445229">
<ele>-4.529728</ele>
<time>2011-04-30T00:52:40Z</time>
<desc>lat.=21.129717, lon.=106.445229, Alt.=-4.529728m. Speed=55.116001m/h.</desc>
<speed>15.310000</speed>
</trkpt>
<trkpt lat="21.129494" lon="106.445961">
<ele>-5.327579</ele>
<time>2011-04-30T00:52:45Z</time>
<desc>lat.=21.129494, lon.=106.445961, Alt.=-5.327579m. Speed=59.472000m/h.</desc>
<speed>16.520000</speed>
</trkpt>
<trkpt lat="21.129213" lon="106.446770">
<ele>-4.404240</ele>
<time>2011-04-30T00:52:50Z</time>
<desc>lat.=21.129213, lon.=106.446770, Alt.=-4.404240m. Speed=67.931999m/h.</desc>
<speed>18.870000</speed>
</trkpt>
<trkpt lat="21.128870" lon="106.447586">
<ele>-5.085148</ele>
<time>2011-04-30T00:52:55Z</time>
<desc>lat.=21.128870, lon.=106.447586, Alt.=-5.085148m. Speed=66.239998m/h.</desc>
<speed>18.399999</speed>
</trkpt>
<trkpt lat="21.128511" lon="106.448410">
<ele>-4.177677</ele>
<time>2011-04-30T00:53:00Z</time>
<desc>lat.=21.128511, lon.=106.448410, Alt.=-4.177677m. Speed=68.003998m/h.</desc>
<speed>18.889999</speed>
</trkpt>
<trkpt lat="21.128162" lon="106.449196">
<ele>-5.733829</ele>
<time>2011-04-30T00:53:05Z</time>
<desc>lat.=21.128162, lon.=106.449196, Alt.=-5.733829m. Speed=63.792000m/h.</desc>
<speed>17.720000</speed>
</trkpt>
<trkpt lat="21.127846" lon="106.449944">
<ele>-5.953312</ele>
<time>2011-04-30T00:53:10Z</time>
<desc>lat.=21.127846, lon.=106.449944, Alt.=-5.953312m. Speed=60.264000m/h.</desc>
<speed>16.740000</speed>
</trkpt>
<trkpt lat="21.127562" lon="106.450653">
<ele>-5.756657</ele>
<time>2011-04-30T00:53:15Z</time>
<desc>lat.=21.127562, lon.=106.450653, Alt.=-5.756657m. Speed=60.228001m/h.</desc>
<speed>16.730000</speed>
</trkpt>
<trkpt lat="21.127268" lon="106.451408">
<ele>-6.730045</ele>
<time>2011-04-30T00:53:20Z</time>
<desc>lat.=21.127268, lon.=106.451408, Alt.=-6.730045m. Speed=57.636002m/h.</desc>
<speed>16.010000</speed>
</trkpt>
<trkpt lat="21.127037" lon="106.452034">
<ele>-7.155827</ele>
<time>2011-04-30T00:53:25Z</time>
<desc>lat.=21.127037, lon.=106.452034, Alt.=-7.155827m. Speed=42.012001m/h.</desc>
<speed>11.670000</speed>
</trkpt>
<trkpt lat="21.126831" lon="106.452560">
<ele>-6.187687</ele>
<time>2011-04-30T00:53:30Z</time>
<desc>lat.=21.126831, lon.=106.452560, Alt.=-6.187687m. Speed=46.764000m/h.</desc>
<speed>12.990000</speed>
</trkpt>
<trkpt lat="21.126602" lon="106.453194">
<ele>-8.722054</ele>
<time>2011-04-30T00:53:35Z</time>
<desc>lat.=21.126602, lon.=106.453194, Alt.=-8.722054m. Speed=55.332001m/h.</desc>
<speed>15.370000</speed>
</trkpt>
<trkpt lat="21.126329" lon="106.453964">
<ele>-9.740852</ele>
<time>2011-04-30T00:53:40Z</time>
<desc>lat.=21.126329, lon.=106.453964, Alt.=-9.740852m. Speed=63.756001m/h.</desc>
<speed>17.710000</speed>
</trkpt>
<trkpt lat="21.126005" lon="106.454735">
<ele>-8.012337</ele>
<time>2011-04-30T00:53:45Z</time>
<desc>lat.=21.126005, lon.=106.454735, Alt.=-8.012337m. Speed=64.584000m/h.</desc>
<speed>17.940000</speed>
</trkpt>
<trkpt lat="21.125664" lon="106.455559">
<ele>-7.495670</ele>
<time>2011-04-30T00:53:50Z</time>
<desc>lat.=21.125664, lon.=106.455559, Alt.=-7.495670m. Speed=65.987999m/h.</desc>
<speed>18.330000</speed>
</trkpt>
<trkpt lat="21.125313" lon="106.456284">
<ele>-8.990364</ele>
<time>2011-04-30T00:53:55Z</time>
<desc>lat.=21.125313, lon.=106.456284, Alt.=-8.990364m. Speed=58.787998m/h.</desc>
<speed>16.329999</speed>
</trkpt>
<trkpt lat="21.124987" lon="106.456902">
<ele>-8.711555</ele>
<time>2011-04-30T00:54:00Z</time>
<desc>lat.=21.124987, lon.=106.456902, Alt.=-8.711555m. Speed=47.015999m/h.</desc>
<speed>13.060000</speed>
</trkpt>
<trkpt lat="21.124670" lon="106.457451">
<ele>-8.938362</ele>
<time>2011-04-30T00:54:05Z</time>
<desc>lat.=21.124670, lon.=106.457451, Alt.=-8.938362m. Speed=48.959999m/h.</desc>
<speed>13.600000</speed>
</trkpt>
<trkpt lat="21.124294" lon="106.458038">
<ele>-11.828987</ele>
<time>2011-04-30T00:54:10Z</time>
<desc>lat.=21.124294, lon.=106.458038, Alt.=-11.828987m. Speed=53.855999m/h.</desc>
<speed>14.960000</speed>
</trkpt>
<trkpt lat="21.123819" lon="106.458549">
<ele>-12.063118</ele>
<time>2011-04-30T00:54:15Z</time>
<desc>lat.=21.123819, lon.=106.458549, Alt.=-12.063118m. Speed=55.116001m/h.</desc>
<speed>15.310000</speed>
</trkpt>
<trkpt lat="21.123270" lon="106.458931">
<ele>-12.072151</ele>
<time>2011-04-30T00:54:20Z</time>
<desc>lat.=21.123270, lon.=106.458931, Alt.=-12.072151m. Speed=49.535999m/h.</desc>
<speed>13.760000</speed>
</trkpt>
<trkpt lat="21.122732" lon="106.459229">
<ele>-9.098274</ele>
<time>2011-04-30T00:54:25Z</time>
<desc>lat.=21.122732, lon.=106.459229, Alt.=-9.098274m. Speed=48.528000m/h.</desc>
<speed>13.480000</speed>
</trkpt>
<trkpt lat="21.122160" lon="106.459541">
<ele>-6.868107</ele>
<time>2011-04-30T00:54:30Z</time>
<desc>lat.=21.122160, lon.=106.459541, Alt.=-6.868107m. Speed=50.543999m/h.</desc>
<speed>14.040000</speed>
</trkpt>
<trkpt lat="21.121618" lon="106.459953">
<ele>-5.265934</ele>
<time>2011-04-30T00:54:35Z</time>
<desc>lat.=21.121618, lon.=106.459953, Alt.=-5.265934m. Speed=52.020000m/h.</desc>
<speed>14.450000</speed>
</trkpt>
<trkpt lat="21.121107" lon="106.460449">
<ele>-3.385897</ele>
<time>2011-04-30T00:54:40Z</time>
<desc>lat.=21.121107, lon.=106.460449, Alt.=-3.385897m. Speed=50.292000m/h.</desc>
<speed>13.970000</speed>
</trkpt>
<trkpt lat="21.120680" lon="106.461029">
<ele>-2.788179</ele>
<time>2011-04-30T00:54:45Z</time>
<desc>lat.=21.120680, lon.=106.461029, Alt.=-2.788179m. Speed=57.563999m/h.</desc>
<speed>15.990000</speed>
</trkpt>
<trkpt lat="21.120302" lon="106.461693">
<ele>-0.059104</ele>
<time>2011-04-30T00:54:50Z</time>
<desc>lat.=21.120302, lon.=106.461693, Alt.=-0.059104m. Speed=55.476002m/h.</desc>
<speed>15.410000</speed>
</trkpt>
<trkpt lat="21.119947" lon="106.462357">
<ele>1.451829</ele>
<time>2011-04-30T00:54:55Z</time>
<desc>lat.=21.119947, lon.=106.462357, Alt.=1.451829m. Speed=51.948002m/h.</desc>
<speed>14.430001</speed>
</trkpt>
<trkpt lat="21.119627" lon="106.463051">
<ele>2.979036</ele>
<time>2011-04-30T00:55:00Z</time>
<desc>lat.=21.119627, lon.=106.463051, Alt.=2.979036m. Speed=55.728001m/h.</desc>
<speed>15.480000</speed>
</trkpt>
<trkpt lat="21.119265" lon="106.463669">
<ele>3.739168</ele>
<time>2011-04-30T00:55:05Z</time>
<desc>lat.=21.119265, lon.=106.463669, Alt.=3.739168m. Speed=52.883999m/h.</desc>
<speed>14.690000</speed>
</trkpt>
<trkpt lat="21.118919" lon="106.464294">
<ele>5.179142</ele>
<time>2011-04-30T00:55:10Z</time>
<desc>lat.=21.118919, lon.=106.464294, Alt.=5.179142m. Speed=50.868000m/h.</desc>
<speed>14.130000</speed>
</trkpt>
<trkpt lat="21.118534" lon="106.464844">
<ele>6.845524</ele>
<time>2011-04-30T00:55:15Z</time>
<desc>lat.=21.118534, lon.=106.464844, Alt.=6.845524m. Speed=51.911999m/h.</desc>
<speed>14.420000</speed>
</trkpt>
<trkpt lat="21.118164" lon="106.465355">
<ele>6.704533</ele>
<time>2011-04-30T00:55:20Z</time>
<desc>lat.=21.118164, lon.=106.465355, Alt.=6.704533m. Speed=45.287998m/h.</desc>
<speed>12.579999</speed>
</trkpt>
<trkpt lat="21.117769" lon="106.465820">
<ele>6.059757</ele>
<time>2011-04-30T00:55:25Z</time>
<desc>lat.=21.117769, lon.=106.465820, Alt.=6.059757m. Speed=47.484001m/h.</desc>
<speed>13.190000</speed>
</trkpt>
<trkpt lat="21.117376" lon="106.466240">
<ele>6.062199</ele>
<time>2011-04-30T00:55:30Z</time>
<desc>lat.=21.117376, lon.=106.466240, Alt.=6.062199m. Speed=41.688000m/h.</desc>
<speed>11.580000</speed>
</trkpt>
<trkpt lat="21.116995" lon="106.466660">
<ele>6.653141</ele>
<time>2011-04-30T00:55:35Z</time>
<desc>lat.=21.116995, lon.=106.466660, Alt.=6.653141m. Speed=44.639999m/h.</desc>
<speed>12.400000</speed>
</trkpt>
<trkpt lat="21.116558" lon="106.467155">
<ele>4.017155</ele>
<time>2011-04-30T00:55:40Z</time>
<desc>lat.=21.116558, lon.=106.467155, Alt.=4.017155m. Speed=51.408001m/h.</desc>
<speed>14.280000</speed>
</trkpt>
<trkpt lat="21.116064" lon="106.467659">
<ele>1.434861</ele>
<time>2011-04-30T00:55:45Z</time>
<desc>lat.=21.116064, lon.=106.467659, Alt.=1.434861m. Speed=57.636002m/h.</desc>
<speed>16.010000</speed>
</trkpt>
<trkpt lat="21.115540" lon="106.468132">
<ele>0.745461</ele>
<time>2011-04-30T00:55:50Z</time>
<desc>lat.=21.115540, lon.=106.468132, Alt.=0.745461m. Speed=55.332001m/h.</desc>
<speed>15.370000</speed>
</trkpt>
<trkpt lat="21.115011" lon="106.468613">
<ele>-1.568070</ele>
<time>2011-04-30T00:55:55Z</time>
<desc>lat.=21.115011, lon.=106.468613, Alt.=-1.568070m. Speed=54.504002m/h.</desc>
<speed>15.140000</speed>
</trkpt>
<trkpt lat="21.114534" lon="106.469078">
<ele>-3.097322</ele>
<time>2011-04-30T00:56:00Z</time>
<desc>lat.=21.114534, lon.=106.469078, Alt.=-3.097322m. Speed=52.740002m/h.</desc>
<speed>14.650000</speed>
</trkpt>
<trkpt lat="21.114046" lon="106.469582">
<ele>-4.031925</ele>
<time>2011-04-30T00:56:05Z</time>
<desc>lat.=21.114046, lon.=106.469582, Alt.=-4.031925m. Speed=55.188000m/h.</desc>
<speed>15.330000</speed>
</trkpt>
<trkpt lat="21.113554" lon="106.470047">
<ele>-4.909367</ele>
<time>2011-04-30T00:56:10Z</time>
<desc>lat.=21.113554, lon.=106.470047, Alt.=-4.909367m. Speed=53.964001m/h.</desc>
<speed>14.990000</speed>
</trkpt>
<trkpt lat="21.113024" lon="106.470558">
<ele>-5.577213</ele>
<time>2011-04-30T00:56:15Z</time>
<desc>lat.=21.113024, lon.=106.470558, Alt.=-5.577213m. Speed=56.448002m/h.</desc>
<speed>15.680001</speed>
</trkpt>
<trkpt lat="21.112513" lon="106.471069">
<ele>-6.618717</ele>
<time>2011-04-30T00:56:20Z</time>
<desc>lat.=21.112513, lon.=106.471069, Alt.=-6.618717m. Speed=54.683998m/h.</desc>
<speed>15.189999</speed>
</trkpt>
<trkpt lat="21.111965" lon="106.471596">
<ele>-8.735481</ele>
<time>2011-04-30T00:56:25Z</time>
<desc>lat.=21.111965, lon.=106.471596, Alt.=-8.735481m. Speed=59.112000m/h.</desc>
<speed>16.420000</speed>
</trkpt>
<trkpt lat="21.111397" lon="106.472122">
<ele>-9.636360</ele>
<time>2011-04-30T00:56:30Z</time>
<desc>lat.=21.111397, lon.=106.472122, Alt.=-9.636360m. Speed=57.779999m/h.</desc>
<speed>16.050000</speed>
</trkpt>
<trkpt lat="21.110867" lon="106.472633">
<ele>-10.432014</ele>
<time>2011-04-30T00:56:35Z</time>
<desc>lat.=21.110867, lon.=106.472633, Alt.=-10.432014m. Speed=54.108002m/h.</desc>
<speed>15.030000</speed>
</trkpt>
<trkpt lat="21.110376" lon="106.473106">
<ele>-13.709846</ele>
<time>2011-04-30T00:56:40Z</time>
<desc>lat.=21.110376, lon.=106.473106, Alt.=-13.709846m. Speed=51.731998m/h.</desc>
<speed>14.370000</speed>
</trkpt>
<trkpt lat="21.109911" lon="106.473557">
<ele>-17.364029</ele>
<time>2011-04-30T00:56:45Z</time>
<desc>lat.=21.109911, lon.=106.473557, Alt.=-17.364029m. Speed=46.835999m/h.</desc>
<speed>13.010000</speed>
</trkpt>
<trkpt lat="21.109484" lon="106.473984">
<ele>-18.910904</ele>
<time>2011-04-30T00:56:50Z</time>
<desc>lat.=21.109484, lon.=106.473984, Alt.=-18.910904m. Speed=45.360001m/h.</desc>
<speed>12.600000</speed>
</trkpt>
<trkpt lat="21.109001" lon="106.474411">
<ele>-19.253677</ele>
<time>2011-04-30T00:56:55Z</time>
<desc>lat.=21.109001, lon.=106.474411, Alt.=-19.253677m. Speed=51.444000m/h.</desc>
<speed>14.290000</speed>
</trkpt>
<trkpt lat="21.108517" lon="106.474892">
<ele>-20.387466</ele>
<time>2011-04-30T00:57:00Z</time>
<desc>lat.=21.108517, lon.=106.474892, Alt.=-20.387466m. Speed=52.344002m/h.</desc>
<speed>14.540000</speed>
</trkpt>
<trkpt lat="21.108011" lon="106.475426">
<ele>-21.882584</ele>
<time>2011-04-30T00:57:05Z</time>
<desc>lat.=21.108011, lon.=106.475426, Alt.=-21.882584m. Speed=54.683998m/h.</desc>
<speed>15.189999</speed>
</trkpt>
<trkpt lat="21.107519" lon="106.475891">
<ele>-24.709244</ele>
<time>2011-04-30T00:57:10Z</time>
<desc>lat.=21.107519, lon.=106.475891, Alt.=-24.709244m. Speed=52.919998m/h.</desc>
<speed>14.699999</speed>
</trkpt>
<trkpt lat="21.107035" lon="106.476341">
<ele>-26.788345</ele>
<time>2011-04-30T00:57:15Z</time>
<desc>lat.=21.107035, lon.=106.476341, Alt.=-26.788345m. Speed=46.584000m/h.</desc>
<speed>12.940000</speed>
</trkpt>
<trkpt lat="21.106667" lon="106.476730">
<ele>-26.161392</ele>
<time>2011-04-30T00:57:20Z</time>
<desc>lat.=21.106667, lon.=106.476730, Alt.=-26.161392m. Speed=29.591999m/h.</desc>
<speed>8.220000</speed>
</trkpt>
<trkpt lat="21.106485" lon="106.476913">
<ele>-25.239517</ele>
<time>2011-04-30T00:57:25Z</time>
<desc>lat.=21.106485, lon.=106.476913, Alt.=-25.239517m. Speed=9.324000m/h.</desc>
<speed>2.590000</speed>
</trkpt>
<trkpt lat="21.106413" lon="106.476952">
<ele>-24.376236</ele>
<time>2011-04-30T00:57:30Z</time>
<desc>lat.=21.106413, lon.=106.476952, Alt.=-24.376236m. Speed=3.168000m/h.</desc>
<speed>0.880000</speed>
</trkpt>
<trkpt lat="21.106348" lon="106.476944">
<ele>-19.526627</ele>
<time>2011-04-30T00:57:35Z</time>
<desc>lat.=21.106348, lon.=106.476944, Alt.=-19.526627m. Speed=1.800000m/h.</desc>
<speed>0.500000</speed>
</trkpt>
<trkpt lat="21.106337" lon="106.476913">
<ele>-19.530533</ele>
<time>2011-04-30T00:57:40Z</time>
<desc>lat.=21.106337, lon.=106.476913, Alt.=-19.530533m. Speed=1.296000m/h.</desc>
<speed>0.360000</speed>
</trkpt>
<trkpt lat="21.106323" lon="106.476906">
<ele>-20.307388</ele>
<time>2011-04-30T00:57:45Z</time>
<desc>lat.=21.106323, lon.=106.476906, Alt.=-20.307388m. Speed=0.756000m/h.</desc>
<speed>0.210000</speed>
</trkpt>
<trkpt lat="21.106318" lon="106.476898">
<ele>-21.072037</ele>
<time>2011-04-30T00:57:50Z</time>
<desc>lat.=21.106318, lon.=106.476898, Alt.=-21.072037m. Speed=0.360000m/h.</desc>
<speed>0.100000</speed>
</trkpt>
<trkpt lat="21.106316" lon="106.476898">
<ele>-21.766861</ele>
<time>2011-04-30T00:57:55Z</time>
<desc>lat.=21.106316, lon.=106.476898, Alt.=-21.766861m. Speed=0.216000m/h.</desc>
<speed>0.060000</speed>
</trkpt>
<trkpt lat="21.106316" lon="106.476898">
<ele>-22.316666</ele>
<time>2011-04-30T00:58:00Z</time>
<desc>lat.=21.106316, lon.=106.476898, Alt.=-22.316666m. Speed=0.216000m/h.</desc>
<speed>0.060000</speed>
</trkpt>
<trkpt lat="21.106312" lon="106.476898">
<ele>-22.697037</ele>
<time>2011-04-30T00:58:05Z</time>
<desc>lat.=21.106312, lon.=106.476898, Alt.=-22.697037m. Speed=0.576000m/h.</desc>
<speed>0.160000</speed>
</trkpt>
<trkpt lat="21.106300" lon="106.476898">
<ele>-22.973892</ele>
<time>2011-04-30T00:58:10Z</time>
<desc>lat.=21.106300, lon.=106.476898, Alt.=-22.973892m. Speed=1.080000m/h.</desc>
<speed>0.300000</speed>
</trkpt>
<trkpt lat="21.106287" lon="106.476906">
<ele>-23.256607</ele>
<time>2011-04-30T00:58:15Z</time>
<desc>lat.=21.106287, lon.=106.476906, Alt.=-23.256607m. Speed=1.116000m/h.</desc>
<speed>0.310000</speed>
</trkpt>
<trkpt lat="21.106274" lon="106.476906">
<ele>-23.504654</ele>
<time>2011-04-30T00:58:20Z</time>
<desc>lat.=21.106274, lon.=106.476906, Alt.=-23.504654m. Speed=0.900000m/h.</desc>
<speed>0.250000</speed>
</trkpt>
<trkpt lat="21.106262" lon="106.476913">
<ele>-23.805923</ele>
<time>2011-04-30T00:58:25Z</time>
<desc>lat.=21.106262, lon.=106.476913, Alt.=-23.805923m. Speed=0.612000m/h.</desc>
<speed>0.170000</speed>
</trkpt>
<trkpt lat="21.106258" lon="106.476913">
<ele>-23.984634</ele>
<time>2011-04-30T00:58:30Z</time>
<desc>lat.=21.106258, lon.=106.476913, Alt.=-23.984634m. Speed=0.108000m/h.</desc>
<speed>0.030000</speed>
</trkpt>
<trkpt lat="21.106258" lon="106.476913">
<ele>-23.954849</ele>
<time>2011-04-30T00:58:35Z</time>
<desc>lat.=21.106258, lon.=106.476913, Alt.=-23.954849m. Speed=0.288000m/h.</desc>
<speed>0.080000</speed>
</trkpt>
<trkpt lat="21.106256" lon="106.476921">
<ele>-23.828873</ele>
<time>2011-04-30T00:58:40Z</time>
<desc>lat.=21.106256, lon.=106.476921, Alt.=-23.828873m. Speed=0.468000m/h.</desc>
<speed>0.130000</speed>
</trkpt>
<trkpt lat="21.106255" lon="106.476929">
<ele>-23.597916</ele>
<time>2011-04-30T00:58:45Z</time>
<desc>lat.=21.106255, lon.=106.476929, Alt.=-23.597916m. Speed=0.108000m/h.</desc>
<speed>0.030000</speed>
</trkpt>
<trkpt lat="21.106256" lon="106.476929">
<ele>-23.352798</ele>
<time>2011-04-30T00:58:50Z</time>
<desc>lat.=21.106256, lon.=106.476929, Alt.=-23.352798m. Speed=0.936000m/h.</desc>
<speed>0.260000</speed>
</trkpt>
<trkpt lat="21.106264" lon="106.476944">
<ele>-23.079361</ele>
<time>2011-04-30T00:58:55Z</time>
<desc>lat.=21.106264, lon.=106.476944, Alt.=-23.079361m. Speed=0.576000m/h.</desc>
<speed>0.160000</speed>
</trkpt>
<trkpt lat="21.106268" lon="106.476952">
<ele>-22.790787</ele>
<time>2011-04-30T00:59:00Z</time>
<desc>lat.=21.106268, lon.=106.476952, Alt.=-22.790787m. Speed=0.504000m/h.</desc>
<speed>0.140000</speed>
</trkpt>
<trkpt lat="21.106274" lon="106.476959">
<ele>-22.446060</ele>
<time>2011-04-30T00:59:05Z</time>
<desc>lat.=21.106274, lon.=106.476959, Alt.=-22.446060m. Speed=0.720000m/h.</desc>
<speed>0.200000</speed>
</trkpt>
<trkpt lat="21.106277" lon="106.476967">
<ele>-22.081314</ele>
<time>2011-04-30T00:59:10Z</time>
<desc>lat.=21.106277, lon.=106.476967, Alt.=-22.081314m. Speed=0.720000m/h.</desc>
<speed>0.200000</speed>
</trkpt>
<trkpt lat="21.106285" lon="106.476974">
<ele>-21.693619</ele>
<time>2011-04-30T00:59:15Z</time>
<desc>lat.=21.106285, lon.=106.476974, Alt.=-21.693619m. Speed=0.540000m/h.</desc>
<speed>0.150000</speed>
</trkpt>
<trkpt lat="21.106289" lon="106.476974">
<ele>-21.037857</ele>
<time>2011-04-30T00:59:20Z</time>
<desc>lat.=21.106289, lon.=106.476974, Alt.=-21.037857m. Speed=0.504000m/h.</desc>
<speed>0.140000</speed>
</trkpt>
<trkpt lat="21.106293" lon="106.476967">
<ele>-20.221939</ele>
<time>2011-04-30T00:59:25Z</time>
<desc>lat.=21.106293, lon.=106.476967, Alt.=-20.221939m. Speed=0.432000m/h.</desc>
<speed>0.120000</speed>
</trkpt>
<trkpt lat="21.106298" lon="106.476959">
<ele>-19.341568</ele>
<time>2011-04-30T00:59:30Z</time>
<desc>lat.=21.106298, lon.=106.476959, Alt.=-19.341568m. Speed=0.684000m/h.</desc>
<speed>0.190000</speed>
</trkpt>
<trkpt lat="21.106306" lon="106.476959">
<ele>-18.326431</ele>
<time>2011-04-30T00:59:35Z</time>
<desc>lat.=21.106306, lon.=106.476959, Alt.=-18.326431m. Speed=0.756000m/h.</desc>
<speed>0.210000</speed>
</trkpt>
<trkpt lat="21.106318" lon="106.476952">
<ele>-17.079849</ele>
<time>2011-04-30T00:59:40Z</time>
<desc>lat.=21.106318, lon.=106.476952, Alt.=-17.079849m. Speed=1.044000m/h.</desc>
<speed>0.290000</speed>
</trkpt>
<trkpt lat="21.106327" lon="106.476959">
<ele>-15.699104</ele>
<time>2011-04-30T00:59:45Z</time>
<desc>lat.=21.106327, lon.=106.476959, Alt.=-15.699104m. Speed=0.756000m/h.</desc>
<speed>0.210000</speed>
</trkpt>
<trkpt lat="21.106333" lon="106.476967">
<ele>-14.177864</ele>
<time>2011-04-30T00:59:50Z</time>
<desc>lat.=21.106333, lon.=106.476967, Alt.=-14.177864m. Speed=0.036000m/h.</desc>
<speed>0.010000</speed>
</trkpt>
<trkpt lat="21.106331" lon="106.476959">
<ele>-12.961067</ele>
<time>2011-04-30T00:59:55Z</time>
<desc>lat.=21.106331, lon.=106.476959, Alt.=-12.961067m. Speed=0.288000m/h.</desc>
<speed>0.080000</speed>
</trkpt>
<trkpt lat="21.106329" lon="106.476959">
<ele>-11.667610</ele>
<time>2011-04-30T01:00:00Z</time>
<desc>lat.=21.106329, lon.=106.476959, Alt.=-11.667610m. Speed=0.396000m/h.</desc>
<speed>0.110000</speed>
</trkpt>
<trkpt lat="21.106325" lon="106.476952">
<ele>-10.361946</ele>
<time>2011-04-30T01:00:05Z</time>
<desc>lat.=21.106325, lon.=106.476952, Alt.=-10.361946m. Speed=0.648000m/h.</desc>
<speed>0.180000</speed>
</trkpt>
<trkpt lat="21.106325" lon="106.476944">
<ele>-8.900276</ele>
<time>2011-04-30T01:00:10Z</time>
<desc>lat.=21.106325, lon.=106.476944, Alt.=-8.900276m. Speed=0.288000m/h.</desc>
<speed>0.080000</speed>
</trkpt>
<trkpt lat="21.106323" lon="106.476944">
<ele>-7.261906</ele>
<time>2011-04-30T01:00:15Z</time>
<desc>lat.=21.106323, lon.=106.476944, Alt.=-7.261906m. Speed=0.180000m/h.</desc>
<speed>0.050000</speed>
</trkpt>
<trkpt lat="21.106321" lon="106.476944">
<ele>-5.976139</ele>
<time>2011-04-30T01:00:20Z</time>
<desc>lat.=21.106321, lon.=106.476944, Alt.=-5.976139m. Speed=0.288000m/h.</desc>
<speed>0.080000</speed>
</trkpt>
<trkpt lat="21.106321" lon="106.476952">
<ele>-5.257511</ele>
<time>2011-04-30T01:00:25Z</time>
<desc>lat.=21.106321, lon.=106.476952, Alt.=-5.257511m. Speed=0.072000m/h.</desc>
<speed>0.020000</speed>
</trkpt>
<trkpt lat="21.106321" lon="106.476952">
<ele>-5.253849</ele>
<time>2011-04-30T01:00:30Z</time>
<desc>lat.=21.106321, lon.=106.476952, Alt.=-5.253849m. Speed=0.072000m/h.</desc>
<speed>0.020000</speed>
</trkpt>
<trkpt lat="21.106321" lon="106.476952">
<ele>-5.232121</ele>
<time>2011-04-30T01:00:35Z</time>
<desc>lat.=21.106321, lon.=106.476952, Alt.=-5.232121m. Speed=0.144000m/h.</desc>
<speed>0.040000</speed>
</trkpt>
<trkpt lat="21.106321" lon="106.476952">
<ele>-5.221378</ele>
<time>2011-04-30T01:00:40Z</time>
<desc>lat.=21.106321, lon.=106.476952, Alt.=-5.221378m. Speed=0.108000m/h.</desc>
<speed>0.030000</speed>
</trkpt>
<trkpt lat="21.106321" lon="106.476944">
<ele>-5.222965</ele>
<time>2011-04-30T01:00:45Z</time>
<desc>lat.=21.106321, lon.=106.476944, Alt.=-5.222965m. Speed=0.072000m/h.</desc>
<speed>0.020000</speed>
</trkpt>
<trkpt lat="21.106319" lon="106.476944">
<ele>-5.198917</ele>
<time>2011-04-30T01:00:50Z</time>
<desc>lat.=21.106319, lon.=106.476944, Alt.=-5.198917m. Speed=0.036000m/h.</desc>
<speed>0.010000</speed>
</trkpt>
<trkpt lat="21.106319" lon="106.476944">
<ele>-5.140446</ele>
<time>2011-04-30T01:00:55Z</time>
<desc>lat.=21.106319, lon.=106.476944, Alt.=-5.140446m. Speed=0.036000m/h.</desc>
<speed>0.010000</speed>
</trkpt>
<trkpt lat="21.106321" lon="106.476944">
<ele>-5.080753</ele>
<time>2011-04-30T01:01:00Z</time>
<desc>lat.=21.106321, lon.=106.476944, Alt.=-5.080753m. Speed=0.036000m/h.</desc>
<speed>0.010000</speed>
</trkpt>
<trkpt lat="21.106321" lon="106.476944">
<ele>-5.057560</ele>
<time>2011-04-30T01:01:05Z</time>
<desc>lat.=21.106321, lon.=106.476944, Alt.=-5.057560m. Speed=0.144000m/h.</desc>
<speed>0.040000</speed>
</trkpt>
<trkpt lat="21.106321" lon="106.476944">
<ele>-5.048771</ele>
<time>2011-04-30T01:01:10Z</time>
<desc>lat.=21.106321, lon.=106.476944, Alt.=-5.048771m. Speed=0.036000m/h.</desc>
<speed>0.010000</speed>
</trkpt>
<trkpt lat="21.106321" lon="106.476944">
<ele>-5.033756</ele>
<time>2011-04-30T01:01:15Z</time>
<desc>lat.=21.106321, lon.=106.476944, Alt.=-5.033756m. Speed=0.108000m/h.</desc>
<speed>0.030000</speed>
</trkpt>
<trkpt lat="21.106319" lon="106.476944">
<ele>-5.040958</ele>
<time>2011-04-30T01:01:20Z</time>
<desc>lat.=21.106319, lon.=106.476944, Alt.=-5.040958m. Speed=0.072000m/h.</desc>
<speed>0.020000</speed>
</trkpt>
<trkpt lat="21.106319" lon="106.476944">
<ele>-5.059757</ele>
<time>2011-04-30T01:01:25Z</time>
<desc>lat.=21.106319, lon.=106.476944, Alt.=-5.059757m. Speed=0.072000m/h.</desc>
<speed>0.020000</speed>
</trkpt>
<trkpt lat="21.106319" lon="106.476944">
<ele>-5.054996</ele>
<time>2011-04-30T01:01:30Z</time>
<desc>lat.=21.106319, lon.=106.476944, Alt.=-5.054996m. Speed=0.036000m/h.</desc>
<speed>0.010000</speed>
</trkpt>
<trkpt lat="21.106319" lon="106.476944">
<ele>-5.059025</ele>
<time>2011-04-30T01:01:35Z</time>
<desc>lat.=21.106319, lon.=106.476944, Alt.=-5.059025m. Speed=0.036000m/h.</desc>
<speed>0.010000</speed>
</trkpt>
<trkpt lat="21.106319" lon="106.476944">
<ele>-5.038517</ele>
<time>2011-04-30T01:01:40Z</time>
<desc>lat.=21.106319, lon.=106.476944, Alt.=-5.038517m. Speed=0.072000m/h.</desc>
<speed>0.020000</speed>
</trkpt>
<trkpt lat="21.106319" lon="106.476944">
<ele>-5.020695</ele>
<time>2011-04-30T01:01:45Z</time>
<desc>lat.=21.106319, lon.=106.476944, Alt.=-5.020695m. Speed=0.000000m/h.</desc>
<speed>0.000000</speed>
</trkpt>
<trkpt lat="21.106319" lon="106.476944">
<ele>-4.997135</ele>
<time>2011-04-30T01:01:50Z</time>
<desc>lat.=21.106319, lon.=106.476944, Alt.=-4.997135m. Speed=0.036000m/h.</desc>
<speed>0.010000</speed>
</trkpt>
<trkpt lat="21.106319" lon="106.476944">
<ele>-4.970646</ele>
<time>2011-04-30T01:01:55Z</time>
<desc>lat.=21.106319, lon.=106.476944, Alt.=-4.970646m. Speed=0.036000m/h.</desc>
<speed>0.010000</speed>
</trkpt>
<trkpt lat="21.106319" lon="106.476944">
<ele>-4.993595</ele>
<time>2011-04-30T01:02:00Z</time>
<desc>lat.=21.106319, lon.=106.476944, Alt.=-4.993595m. Speed=0.072000m/h.</desc>
<speed>0.020000</speed>
</trkpt>
<trkpt lat="21.106319" lon="106.476944">
<ele>-4.993717</ele>
<time>2011-04-30T01:02:05Z</time>
<desc>lat.=21.106319, lon.=106.476944, Alt.=-4.993717m. Speed=0.036000m/h.</desc>
<speed>0.010000</speed>
</trkpt>
<trkpt lat="21.106319" lon="106.476944">
<ele>-4.949284</ele>
<time>2011-04-30T01:02:10Z</time>
<desc>lat.=21.106319, lon.=106.476944, Alt.=-4.949284m. Speed=0.036000m/h.</desc>
<speed>0.010000</speed>
</trkpt>
<trkpt lat="21.106319" lon="106.476944">
<ele>-4.914738</ele>
<time>2011-04-30T01:02:15Z</time>
<desc>lat.=21.106319, lon.=106.476944, Alt.=-4.914738m. Speed=0.036000m/h.</desc>
<speed>0.010000</speed>
</trkpt>
<trkpt lat="21.106319" lon="106.476944">
<ele>-4.857853</ele>
<time>2011-04-30T01:02:20Z</time>
<desc>lat.=21.106319, lon.=106.476944, Alt.=-4.857853m. Speed=0.036000m/h.</desc>
<speed>0.010000</speed>
</trkpt>
<trkpt lat="21.106319" lon="106.476944">
<ele>-4.761662</ele>
<time>2011-04-30T01:02:25Z</time>
<desc>lat.=21.106319, lon.=106.476944, Alt.=-4.761662m. Speed=0.072000m/h.</desc>
<speed>0.020000</speed>
</trkpt>
<trkpt lat="21.106319" lon="106.476944">
<ele>-4.796818</ele>
<time>2011-04-30T01:02:30Z</time>
<desc>lat.=21.106319, lon.=106.476944, Alt.=-4.796818m. Speed=0.108000m/h.</desc>
<speed>0.030000</speed>
</trkpt>
<trkpt lat="21.106319" lon="106.476944">
<ele>-4.787418</ele>
<time>2011-04-30T01:02:35Z</time>
<desc>lat.=21.106319, lon.=106.476944, Alt.=-4.787418m. Speed=0.072000m/h.</desc>
<speed>0.020000</speed>
</trkpt>
<trkpt lat="21.106319" lon="106.476944">
<ele>-4.831120</ele>
<time>2011-04-30T01:02:40Z</time>
<desc>lat.=21.106319, lon.=106.476944, Alt.=-4.831120m. Speed=0.216000m/h.</desc>
<speed>0.060000</speed>
</trkpt>
<trkpt lat="21.106319" lon="106.476944">
<ele>-4.794865</ele>
<time>2011-04-30T01:02:45Z</time>
<desc>lat.=21.106319, lon.=106.476944, Alt.=-4.794865m. Speed=0.108000m/h.</desc>
<speed>0.030000</speed>
</trkpt>
<trkpt lat="21.106321" lon="106.476944">
<ele>-4.736149</ele>
<time>2011-04-30T01:02:50Z</time>
<desc>lat.=21.106321, lon.=106.476944, Alt.=-4.736149m. Speed=0.036000m/h.</desc>
<speed>0.010000</speed>
</trkpt>
<trkpt lat="21.106321" lon="106.476944">
<ele>-4.730289</ele>
<time>2011-04-30T01:02:55Z</time>
<desc>lat.=21.106321, lon.=106.476944, Alt.=-4.730289m. Speed=0.180000m/h.</desc>
<speed>0.050000</speed>
</trkpt>
<trkpt lat="21.106321" lon="106.476944">
<ele>-4.725285</ele>
<time>2011-04-30T01:03:00Z</time>
<desc>lat.=21.106321, lon.=106.476944, Alt.=-4.725285m. Speed=0.072000m/h.</desc>
<speed>0.020000</speed>
</trkpt>
<trkpt lat="21.106321" lon="106.476944">
<ele>-4.726749</ele>
<time>2011-04-30T01:03:05Z</time>
<desc>lat.=21.106321, lon.=106.476944, Alt.=-4.726749m. Speed=0.108000m/h.</desc>
<speed>0.030000</speed>
</trkpt>
<trkpt lat="21.106321" lon="106.476944">
<ele>-4.730778</ele>
<time>2011-04-30T01:03:10Z</time>
<desc>lat.=21.106321, lon.=106.476944, Alt.=-4.730778m. Speed=0.108000m/h.</desc>
<speed>0.030000</speed>
</trkpt>
<trkpt lat="21.106319" lon="106.476944">
<ele>-4.742496</ele>
<time>2011-04-30T01:03:15Z</time>
<desc>lat.=21.106319, lon.=106.476944, Alt.=-4.742496m. Speed=2.628000m/h.</desc>
<speed>0.730000</speed>
</trkpt>
<trkpt lat="21.106180" lon="106.477158">
<ele>-4.501896</ele>
<time>2011-04-30T01:03:20Z</time>
<desc>lat.=21.106180, lon.=106.477158, Alt.=-4.501896m. Speed=26.388000m/h.</desc>
<speed>7.330000</speed>
</trkpt>
<trkpt lat="21.105862" lon="106.477516">
<ele>-5.590641</ele>
<time>2011-04-30T01:03:25Z</time>
<desc>lat.=21.105862, lon.=106.477516, Alt.=-5.590641m. Speed=39.995998m/h.</desc>
<speed>11.110000</speed>
</trkpt>
<trkpt lat="21.105463" lon="106.477997">
<ele>-7.982243</ele>
<time>2011-04-30T01:03:30Z</time>
<desc>lat.=21.105463, lon.=106.477997, Alt.=-7.982243m. Speed=42.551998m/h.</desc>
<speed>11.819999</speed>
</trkpt>
<trkpt lat="21.105013" lon="106.478455">
<ele>-9.341438</ele>
<time>2011-04-30T01:03:35Z</time>
<desc>lat.=21.105013, lon.=106.478455, Alt.=-9.341438m. Speed=50.112000m/h.</desc>
<speed>13.920000</speed>
</trkpt>
<trkpt lat="21.104500" lon="106.478989">
<ele>-8.840218</ele>
<time>2011-04-30T01:03:40Z</time>
<desc>lat.=21.104500, lon.=106.478989, Alt.=-8.840218m. Speed=51.408001m/h.</desc>
<speed>14.280000</speed>
</trkpt>
<trkpt lat="21.104080" lon="106.479408">
<ele>-11.595345</ele>
<time>2011-04-30T01:03:45Z</time>
<desc>lat.=21.104080, lon.=106.479408, Alt.=-11.595345m. Speed=41.436001m/h.</desc>
<speed>11.510000</speed>
</trkpt>
<trkpt lat="21.103683" lon="106.479813">
<ele>-14.651497</ele>
<time>2011-04-30T01:03:50Z</time>
<desc>lat.=21.103683, lon.=106.479813, Alt.=-14.651497m. Speed=41.183998m/h.</desc>
<speed>11.439999</speed>
</trkpt>
<trkpt lat="21.103321" lon="106.480194">
<ele>-17.525162</ele>
<time>2011-04-30T01:03:55Z</time>
<desc>lat.=21.103321, lon.=106.480194, Alt.=-17.525162m. Speed=36.612000m/h.</desc>
<speed>10.170000</speed>
</trkpt>
<trkpt lat="21.102928" lon="106.480576">
<ele>-21.777115</ele>
<time>2011-04-30T01:04:00Z</time>
<desc>lat.=21.102928, lon.=106.480576, Alt.=-21.777115m. Speed=40.464001m/h.</desc>
<speed>11.240000</speed>
</trkpt>
<trkpt lat="21.102497" lon="106.480995">
<ele>-22.115494</ele>
<time>2011-04-30T01:04:05Z</time>
<desc>lat.=21.102497, lon.=106.480995, Alt.=-22.115494m. Speed=50.939999m/h.</desc>
<speed>14.150000</speed>
</trkpt>
<trkpt lat="21.101954" lon="106.481506">
<ele>-24.019791</ele>
<time>2011-04-30T01:04:10Z</time>
<desc>lat.=21.101954, lon.=106.481506, Alt.=-24.019791m. Speed=61.271999m/h.</desc>
<speed>17.020000</speed>
</trkpt>
<trkpt lat="21.101349" lon="106.482109">
<ele>-27.372818</ele>
<time>2011-04-30T01:04:15Z</time>
<desc>lat.=21.101349, lon.=106.482109, Alt.=-27.372818m. Speed=65.484001m/h.</desc>
<speed>18.190000</speed>
</trkpt>
<trkpt lat="21.100723" lon="106.482742">
<ele>-30.370377</ele>
<time>2011-04-30T01:04:20Z</time>
<desc>lat.=21.100723, lon.=106.482742, Alt.=-30.370377m. Speed=70.811996m/h.</desc>
<speed>19.669999</speed>
</trkpt>
<trkpt lat="21.100044" lon="106.483429">
<ele>-32.788605</ele>
<time>2011-04-30T01:04:25Z</time>
<desc>lat.=21.100044, lon.=106.483429, Alt.=-32.788605m. Speed=73.727997m/h.</desc>
<speed>20.479999</speed>
</trkpt>
<trkpt lat="21.099312" lon="106.484184">
<ele>-34.658722</ele>
<time>2011-04-30T01:04:30Z</time>
<desc>lat.=21.099312, lon.=106.484184, Alt.=-34.658722m. Speed=83.592003m/h.</desc>
<speed>23.220001</speed>
</trkpt>
<trkpt lat="21.098549" lon="106.484970">
<ele>-35.137238</ele>
<time>2011-04-30T01:04:35Z</time>
<desc>lat.=21.098549, lon.=106.484970, Alt.=-35.137238m. Speed=84.456001m/h.</desc>
<speed>23.460000</speed>
</trkpt>
<trkpt lat="21.097733" lon="106.485748">
<ele>-34.437042</ele>
<time>2011-04-30T01:04:40Z</time>
<desc>lat.=21.097733, lon.=106.485748, Alt.=-34.437042m. Speed=80.099998m/h.</desc>
<speed>22.250000</speed>
</trkpt>
<trkpt lat="21.097052" lon="106.486427">
<ele>-32.657745</ele>
<time>2011-04-30T01:04:45Z</time>
<desc>lat.=21.097052, lon.=106.486427, Alt.=-32.657745m. Speed=68.508003m/h.</desc>
<speed>19.030001</speed>
</trkpt>
<trkpt lat="21.096413" lon="106.487076">
<ele>-33.678253</ele>
<time>2011-04-30T01:04:50Z</time>
<desc>lat.=21.096413, lon.=106.487076, Alt.=-33.678253m. Speed=70.307999m/h.</desc>
<speed>19.530000</speed>
</trkpt>
<trkpt lat="21.095791" lon="106.487717">
<ele>-30.428482</ele>
<time>2011-04-30T01:04:55Z</time>
<desc>lat.=21.095791, lon.=106.487717, Alt.=-30.428482m. Speed=65.807999m/h.</desc>
<speed>18.280000</speed>
</trkpt>
<trkpt lat="21.095192" lon="106.488319">
<ele>-29.272720</ele>
<time>2011-04-30T01:05:00Z</time>
<desc>lat.=21.095192, lon.=106.488319, Alt.=-29.272720m. Speed=57.167999m/h.</desc>
<speed>15.880000</speed>
</trkpt>
<trkpt lat="21.094749" lon="106.488747">
<ele>-28.114517</ele>
<time>2011-04-30T01:05:05Z</time>
<desc>lat.=21.094749, lon.=106.488747, Alt.=-28.114517m. Speed=40.824001m/h.</desc>
<speed>11.340000</speed>
</trkpt>
<trkpt lat="21.094437" lon="106.489120">
<ele>-24.955826</ele>
<time>2011-04-30T01:05:10Z</time>
<desc>lat.=21.094437, lon.=106.489120, Alt.=-24.955826m. Speed=33.515999m/h.</desc>
<speed>9.310000</speed>
</trkpt>
<trkpt lat="21.094145" lon="106.489449">
<ele>-20.575455</ele>
<time>2011-04-30T01:05:15Z</time>
<desc>lat.=21.094145, lon.=106.489449, Alt.=-20.575455m. Speed=35.495998m/h.</desc>
<speed>9.860000</speed>
</trkpt>
<trkpt lat="21.093834" lon="106.489944">
<ele>-12.808235</ele>
<time>2011-04-30T01:05:20Z</time>
<desc>lat.=21.093834, lon.=106.489944, Alt.=-12.808235m. Speed=50.903999m/h.</desc>
<speed>14.140000</speed>
</trkpt>
<trkpt lat="21.093466" lon="106.490578">
<ele>-3.518953</ele>
<time>2011-04-30T01:05:25Z</time>
<desc>lat.=21.093466, lon.=106.490578, Alt.=-3.518953m. Speed=56.015999m/h.</desc>
<speed>15.560000</speed>
</trkpt>
<trkpt lat="21.093084" lon="106.491287">
<ele>3.426729</ele>
<time>2011-04-30T01:05:30Z</time>
<desc>lat.=21.093084, lon.=106.491287, Alt.=3.426729m. Speed=57.743999m/h.</desc>
<speed>16.040000</speed>
</trkpt>
<trkpt lat="21.092718" lon="106.491936">
<ele>7.643986</ele>
<time>2011-04-30T01:05:35Z</time>
<desc>lat.=21.092718, lon.=106.491936, Alt.=7.643986m. Speed=48.743999m/h.</desc>
<speed>13.540000</speed>
</trkpt>
<trkpt lat="21.092428" lon="106.492493">
<ele>9.568001</ele>
<time>2011-04-30T01:05:40Z</time>
<desc>lat.=21.092428, lon.=106.492493, Alt.=9.568001m. Speed=42.480000m/h.</desc>
<speed>11.800000</speed>
</trkpt>
<trkpt lat="21.092148" lon="106.492981">
<ele>11.085823</ele>
<time>2011-04-30T01:05:45Z</time>
<desc>lat.=21.092148, lon.=106.492981, Alt.=11.085823m. Speed=41.939999m/h.</desc>
<speed>11.650000</speed>
</trkpt>
<trkpt lat="21.091749" lon="106.493462">
<ele>9.706184</ele>
<time>2011-04-30T01:05:50Z</time>
<desc>lat.=21.091749, lon.=106.493462, Alt.=9.706184m. Speed=50.292000m/h.</desc>
<speed>13.970000</speed>
</trkpt>
<trkpt lat="21.091232" lon="106.493851">
<ele>6.751774</ele>
<time>2011-04-30T01:05:55Z</time>
<desc>lat.=21.091232, lon.=106.493851, Alt.=6.751774m. Speed=43.020000m/h.</desc>
<speed>11.950000</speed>
</trkpt>
<trkpt lat="21.090862" lon="106.494087">
<ele>8.653694</ele>
<time>2011-04-30T01:06:00Z</time>
<desc>lat.=21.090862, lon.=106.494087, Alt.=8.653694m. Speed=22.608000m/h.</desc>
<speed>6.280000</speed>
</trkpt>
<trkpt lat="21.090635" lon="106.494209">
<ele>9.099983</ele>
<time>2011-04-30T01:06:05Z</time>
<desc>lat.=21.090635, lon.=106.494209, Alt.=9.099983m. Speed=20.412001m/h.</desc>
<speed>5.670000</speed>
</trkpt>
<trkpt lat="21.090380" lon="106.494385">
<ele>8.363411</ele>
<time>2011-04-30T01:06:10Z</time>
<desc>lat.=21.090380, lon.=106.494385, Alt.=8.363411m. Speed=25.884001m/h.</desc>
<speed>7.190000</speed>
</trkpt>
<trkpt lat="21.090034" lon="106.494606">
<ele>4.932194</ele>
<time>2011-04-30T01:06:15Z</time>
<desc>lat.=21.090034, lon.=106.494606, Alt.=4.932194m. Speed=32.903999m/h.</desc>
<speed>9.140000</speed>
</trkpt>
<trkpt lat="21.089638" lon="106.494896">
<ele>3.734041</ele>
<time>2011-04-30T01:06:20Z</time>
<desc>lat.=21.089638, lon.=106.494896, Alt.=3.734041m. Speed=39.492001m/h.</desc>
<speed>10.970000</speed>
</trkpt>
<trkpt lat="21.089182" lon="106.495201">
<ele>0.522866</ele>
<time>2011-04-30T01:06:25Z</time>
<desc>lat.=21.089182, lon.=106.495201, Alt.=0.522866m. Speed=41.256001m/h.</desc>
<speed>11.460000</speed>
</trkpt>
<trkpt lat="21.088755" lon="106.495529">
<ele>-1.202073</ele>
<time>2011-04-30T01:06:30Z</time>
<desc>lat.=21.088755, lon.=106.495529, Alt.=-1.202073m. Speed=38.664001m/h.</desc>
<speed>10.740000</speed>
</trkpt>
<trkpt lat="21.088364" lon="106.495842">
<ele>-3.522676</ele>
<time>2011-04-30T01:06:35Z</time>
<desc>lat.=21.088364, lon.=106.495842, Alt.=-3.522676m. Speed=36.683998m/h.</desc>
<speed>10.189999</speed>
</trkpt>
<trkpt lat="21.088001" lon="106.496094">
<ele>-2.990206</ele>
<time>2011-04-30T01:06:40Z</time>
<desc>lat.=21.088001, lon.=106.496094, Alt.=-2.990206m. Speed=33.444000m/h.</desc>
<speed>9.290000</speed>
</trkpt>
<trkpt lat="21.087646" lon="106.496361">
<ele>-3.421236</ele>
<time>2011-04-30T01:06:45Z</time>
<desc>lat.=21.087646, lon.=106.496361, Alt.=-3.421236m. Speed=34.776001m/h.</desc>
<speed>9.660000</speed>
</trkpt>
<trkpt lat="21.087257" lon="106.496674">
<ele>-5.850163</ele>
<time>2011-04-30T01:06:50Z</time>
<desc>lat.=21.087257, lon.=106.496674, Alt.=-5.850163m. Speed=37.835999m/h.</desc>
<speed>10.510000</speed>
</trkpt>
<trkpt lat="21.086901" lon="106.497086">
<ele>-7.387760</ele>
<time>2011-04-30T01:06:55Z</time>
<desc>lat.=21.086901, lon.=106.497086, Alt.=-7.387760m. Speed=43.344002m/h.</desc>
<speed>12.040000</speed>
</trkpt>
<trkpt lat="21.086634" lon="106.497627">
<ele>-6.990788</ele>
<time>2011-04-30T01:07:00Z</time>
<desc>lat.=21.086634, lon.=106.497627, Alt.=-6.990788m. Speed=45.936001m/h.</desc>
<speed>12.760000</speed>
</trkpt>
<trkpt lat="21.086498" lon="106.498215">
<ele>-8.199104</ele>
<time>2011-04-30T01:07:05Z</time>
<desc>lat.=21.086498, lon.=106.498215, Alt.=-8.199104m. Speed=41.436001m/h.</desc>
<speed>11.510000</speed>
</trkpt>
<trkpt lat="21.086466" lon="106.498802">
<ele>-7.332096</ele>
<time>2011-04-30T01:07:10Z</time>
<desc>lat.=21.086466, lon.=106.498802, Alt.=-7.332096m. Speed=39.492001m/h.</desc>
<speed>10.970000</speed>
</trkpt>
<trkpt lat="21.086473" lon="106.499252">
<ele>-6.611759</ele>
<time>2011-04-30T01:07:15Z</time>
<desc>lat.=21.086473, lon.=106.499252, Alt.=-6.611759m. Speed=26.351999m/h.</desc>
<speed>7.320000</speed>
</trkpt>
<trkpt lat="21.086500" lon="106.499626">
<ele>-8.003548</ele>
<time>2011-04-30T01:07:20Z</time>
<desc>lat.=21.086500, lon.=106.499626, Alt.=-8.003548m. Speed=31.247999m/h.</desc>
<speed>8.680000</speed>
</trkpt>
<trkpt lat="21.086514" lon="106.500145">
<ele>-8.463020</ele>
<time>2011-04-30T01:07:25Z</time>
<desc>lat.=21.086514, lon.=106.500145, Alt.=-8.463020m. Speed=41.436001m/h.</desc>
<speed>11.510000</speed>
</trkpt>
<trkpt lat="21.086498" lon="106.500771">
<ele>-7.526310</ele>
<time>2011-04-30T01:07:30Z</time>
<desc>lat.=21.086498, lon.=106.500771, Alt.=-7.526310m. Speed=48.599998m/h.</desc>
<speed>13.500000</speed>
</trkpt>
<trkpt lat="21.086494" lon="106.501427">
<ele>-6.638615</ele>
<time>2011-04-30T01:07:35Z</time>
<desc>lat.=21.086494, lon.=106.501427, Alt.=-6.638615m. Speed=43.416000m/h.</desc>
<speed>12.060000</speed>
</trkpt>
<trkpt lat="21.086477" lon="106.502022">
<ele>-5.258244</ele>
<time>2011-04-30T01:07:40Z</time>
<desc>lat.=21.086477, lon.=106.502022, Alt.=-5.258244m. Speed=42.588001m/h.</desc>
<speed>11.830000</speed>
</trkpt>
<trkpt lat="21.086483" lon="106.502571">
<ele>-3.212679</ele>
<time>2011-04-30T01:07:45Z</time>
<desc>lat.=21.086483, lon.=106.502571, Alt.=-3.212679m. Speed=40.644001m/h.</desc>
<speed>11.290000</speed>
</trkpt>
<trkpt lat="21.086477" lon="106.503120">
<ele>-2.870760</ele>
<time>2011-04-30T01:07:50Z</time>
<desc>lat.=21.086477, lon.=106.503120, Alt.=-2.870760m. Speed=44.820000m/h.</desc>
<speed>12.450000</speed>
</trkpt>
<trkpt lat="21.086445" lon="106.503738">
<ele>-2.265230</ele>
<time>2011-04-30T01:07:55Z</time>
<desc>lat.=21.086445, lon.=106.503738, Alt.=-2.265230m. Speed=46.332001m/h.</desc>
<speed>12.870000</speed>
</trkpt>
<trkpt lat="21.086384" lon="106.504425">
<ele>-5.091862</ele>
<time>2011-04-30T01:08:00Z</time>
<desc>lat.=21.086384, lon.=106.504425, Alt.=-5.091862m. Speed=53.028000m/h.</desc>
<speed>14.730000</speed>
</trkpt>
<trkpt lat="21.086370" lon="106.505188">
<ele>-6.563663</ele>
<time>2011-04-30T01:08:05Z</time>
<desc>lat.=21.086370, lon.=106.505188, Alt.=-6.563663m. Speed=60.911999m/h.</desc>
<speed>16.920000</speed>
</trkpt>
<trkpt lat="21.086508" lon="106.505989">
<ele>-7.691105</ele>
<time>2011-04-30T01:08:10Z</time>
<desc>lat.=21.086508, lon.=106.505989, Alt.=-7.691105m. Speed=65.447998m/h.</desc>
<speed>18.179999</speed>
</trkpt>
<trkpt lat="21.086689" lon="106.506889">
<ele>-9.886604</ele>
<time>2011-04-30T01:08:15Z</time>
<desc>lat.=21.086689, lon.=106.506889, Alt.=-9.886604m. Speed=68.723999m/h.</desc>
<speed>19.090000</speed>
</trkpt>
<trkpt lat="21.086874" lon="106.507843">
<ele>-10.274055</ele>
<time>2011-04-30T01:08:20Z</time>
<desc>lat.=21.086874, lon.=106.507843, Alt.=-10.274055m. Speed=75.528000m/h.</desc>
<speed>20.980000</speed>
</trkpt>
<trkpt lat="21.087091" lon="106.508858">
<ele>-12.641487</ele>
<time>2011-04-30T01:08:25Z</time>
<desc>lat.=21.087091, lon.=106.508858, Alt.=-12.641487m. Speed=78.984001m/h.</desc>
<speed>21.940000</speed>
</trkpt>
<trkpt lat="21.087317" lon="106.509903">
<ele>-13.684456</ele>
<time>2011-04-30T01:08:30Z</time>
<desc>lat.=21.087317, lon.=106.509903, Alt.=-13.684456m. Speed=81.071999m/h.</desc>
<speed>22.520000</speed>
</trkpt>
<trkpt lat="21.087555" lon="106.510971">
<ele>-14.528938</ele>
<time>2011-04-30T01:08:35Z</time>
<desc>lat.=21.087555, lon.=106.510971, Alt.=-14.528938m. Speed=82.115997m/h.</desc>
<speed>22.809999</speed>
</trkpt>
<trkpt lat="21.087767" lon="106.512016">
<ele>-15.445442</ele>
<time>2011-04-30T01:08:40Z</time>
<desc>lat.=21.087767, lon.=106.512016, Alt.=-15.445442m. Speed=73.223999m/h.</desc>
<speed>20.340000</speed>
</trkpt>
<trkpt lat="21.087933" lon="106.512901">
<ele>-15.518929</ele>
<time>2011-04-30T01:08:45Z</time>
<desc>lat.=21.087933, lon.=106.512901, Alt.=-15.518929m. Speed=61.919998m/h.</desc>
<speed>17.199999</speed>
</trkpt>
<trkpt lat="21.088074" lon="106.513702">
<ele>-15.873665</ele>
<time>2011-04-30T01:08:50Z</time>
<desc>lat.=21.088074, lon.=106.513702, Alt.=-15.873665m. Speed=60.948002m/h.</desc>
<speed>16.930001</speed>
</trkpt>
<trkpt lat="21.088261" lon="106.514526">
<ele>-16.098892</ele>
<time>2011-04-30T01:08:55Z</time>
<desc>lat.=21.088261, lon.=106.514526, Alt.=-16.098892m. Speed=65.304001m/h.</desc>
<speed>18.140000</speed>
</trkpt>
<trkpt lat="21.088446" lon="106.515411">
<ele>-14.841682</ele>
<time>2011-04-30T01:09:00Z</time>
<desc>lat.=21.088446, lon.=106.515411, Alt.=-14.841682m. Speed=69.192001m/h.</desc>
<speed>19.220000</speed>
</trkpt>
<trkpt lat="21.088640" lon="106.516350">
<ele>-14.094612</ele>
<time>2011-04-30T01:09:05Z</time>
<desc>lat.=21.088640, lon.=106.516350, Alt.=-14.094612m. Speed=69.084000m/h.</desc>
<speed>19.190000</speed>
</trkpt>
<trkpt lat="21.088797" lon="106.517220">
<ele>-11.767220</ele>
<time>2011-04-30T01:09:10Z</time>
<desc>lat.=21.088797, lon.=106.517220, Alt.=-11.767220m. Speed=59.976002m/h.</desc>
<speed>16.660000</speed>
</trkpt>
<trkpt lat="21.088808" lon="106.517929">
<ele>-10.976692</ele>
<time>2011-04-30T01:09:15Z</time>
<desc>lat.=21.088808, lon.=106.517929, Alt.=-10.976692m. Speed=46.584000m/h.</desc>
<speed>12.940000</speed>
</trkpt>
<trkpt lat="21.088654" lon="106.518478">
<ele>-9.715706</ele>
<time>2011-04-30T01:09:20Z</time>
<desc>lat.=21.088654, lon.=106.518478, Alt.=-9.715706m. Speed=37.908001m/h.</desc>
<speed>10.530000</speed>
</trkpt>
<trkpt lat="21.088446" lon="106.518951">
<ele>-8.678596</ele>
<time>2011-04-30T01:09:25Z</time>
<desc>lat.=21.088446, lon.=106.518951, Alt.=-8.678596m. Speed=40.104000m/h.</desc>
<speed>11.140000</speed>
</trkpt>
<trkpt lat="21.088293" lon="106.519234">
<ele>-8.122200</ele>
<time>2011-04-30T01:09:30Z</time>
<desc>lat.=21.088293, lon.=106.519234, Alt.=-8.122200m. Speed=7.920000m/h.</desc>
<speed>2.200000</speed>
</trkpt>
<trkpt lat="21.088276" lon="106.519249">
<ele>-7.843693</ele>
<time>2011-04-30T01:09:35Z</time>
<desc>lat.=21.088276, lon.=106.519249, Alt.=-7.843693m. Speed=0.504000m/h.</desc>
<speed>0.140000</speed>
</trkpt>
<trkpt lat="21.088274" lon="106.519257">
<ele>-8.034554</ele>
<time>2011-04-30T01:09:40Z</time>
<desc>lat.=21.088274, lon.=106.519257, Alt.=-8.034554m. Speed=0.288000m/h.</desc>
<speed>0.080000</speed>
</trkpt>
<trkpt lat="21.088278" lon="106.519249">
<ele>-8.098274</ele>
<time>2011-04-30T01:09:45Z</time>
<desc>lat.=21.088278, lon.=106.519249, Alt.=-8.098274m. Speed=0.792000m/h.</desc>
<speed>0.220000</speed>
</trkpt>
<trkpt lat="21.088282" lon="106.519241">
<ele>-8.116829</ele>
<time>2011-04-30T01:09:50Z</time>
<desc>lat.=21.088282, lon.=106.519241, Alt.=-8.116829m. Speed=1.080000m/h.</desc>
<speed>0.300000</speed>
</trkpt>
<trkpt lat="21.088287" lon="106.519226">
<ele>-8.136604</ele>
<time>2011-04-30T01:09:55Z</time>
<desc>lat.=21.088287, lon.=106.519226, Alt.=-8.136604m. Speed=0.864000m/h.</desc>
<speed>0.240000</speed>
</trkpt>
<trkpt lat="21.088293" lon="106.519218">
<ele>-8.134895</ele>
<time>2011-04-30T01:10:00Z</time>
<desc>lat.=21.088293, lon.=106.519218, Alt.=-8.134895m. Speed=0.144000m/h.</desc>
<speed>0.040000</speed>
</trkpt>
<trkpt lat="21.088295" lon="106.519218">
<ele>-8.150764</ele>
<time>2011-04-30T01:10:05Z</time>
<desc>lat.=21.088295, lon.=106.519218, Alt.=-8.150764m. Speed=0.108000m/h.</desc>
<speed>0.030000</speed>
</trkpt>
<trkpt lat="21.088295" lon="106.519218">
<ele>-8.168587</ele>
<time>2011-04-30T01:10:10Z</time>
<desc>lat.=21.088295, lon.=106.519218, Alt.=-8.168587m. Speed=0.360000m/h.</desc>
<speed>0.100000</speed>
</trkpt>
<trkpt lat="21.088293" lon="106.519226">
<ele>-8.151253</ele>
<time>2011-04-30T01:10:15Z</time>
<desc>lat.=21.088293, lon.=106.519226, Alt.=-8.151253m. Speed=0.036000m/h.</desc>
<speed>0.010000</speed>
</trkpt>
<trkpt lat="21.088291" lon="106.519226">
<ele>-8.105354</ele>
<time>2011-04-30T01:10:20Z</time>
<desc>lat.=21.088291, lon.=106.519226, Alt.=-8.105354m. Speed=0.252000m/h.</desc>
<speed>0.070000</speed>
</trkpt>
<trkpt lat="21.088295" lon="106.519226">
<ele>-8.040169</ele>
<time>2011-04-30T01:10:25Z</time>
<desc>lat.=21.088295, lon.=106.519226, Alt.=-8.040169m. Speed=0.180000m/h.</desc>
<speed>0.050000</speed>
</trkpt>
<trkpt lat="21.088295" lon="106.519226">
<ele>-7.991032</ele>
<time>2011-04-30T01:10:30Z</time>
<desc>lat.=21.088295, lon.=106.519226, Alt.=-7.991032m. Speed=0.072000m/h.</desc>
<speed>0.020000</speed>
</trkpt>
<trkpt lat="21.088249" lon="106.519310">
<ele>-7.757145</ele>
<time>2011-04-30T01:10:35Z</time>
<desc>lat.=21.088249, lon.=106.519310, Alt.=-7.757145m. Speed=17.568001m/h.</desc>
<speed>4.880000</speed>
</trkpt>
<trkpt lat="21.088104" lon="106.519608">
<ele>-7.016666</ele>
<time>2011-04-30T01:10:40Z</time>
<desc>lat.=21.088104, lon.=106.519608, Alt.=-7.016666m. Speed=24.191999m/h.</desc>
<speed>6.720000</speed>
</trkpt>
<trkpt lat="21.087900" lon="106.519943">
<ele>-4.099552</ele>
<time>2011-04-30T01:10:45Z</time>
<desc>lat.=21.087900, lon.=106.519943, Alt.=-4.099552m. Speed=21.312000m/h.</desc>
<speed>5.920000</speed>
</trkpt>
<trkpt lat="21.087801" lon="106.520142">
<ele>-1.765580</ele>
<time>2011-04-30T01:10:50Z</time>
<desc>lat.=21.087801, lon.=106.520142, Alt.=-1.765580m. Speed=13.176000m/h.</desc>
<speed>3.660000</speed>
</trkpt>
<trkpt lat="21.087652" lon="106.520363">
<ele>-0.526879</ele>
<time>2011-04-30T01:10:55Z</time>
<desc>lat.=21.087652, lon.=106.520363, Alt.=-0.526879m. Speed=28.188000m/h.</desc>
<speed>7.830000</speed>
</trkpt>
<trkpt lat="21.087328" lon="106.520851">
<ele>0.740334</ele>
<time>2011-04-30T01:11:00Z</time>
<desc>lat.=21.087328, lon.=106.520851, Alt.=0.740334m. Speed=41.868000m/h.</desc>
<speed>11.630000</speed>
</trkpt>
<trkpt lat="21.086981" lon="106.521362">
<ele>2.009676</ele>
<time>2011-04-30T01:11:05Z</time>
<desc>lat.=21.086981, lon.=106.521362, Alt.=2.009676m. Speed=45.108002m/h.</desc>
<speed>12.530000</speed>
</trkpt>
<trkpt lat="21.086578" lon="106.521965">
<ele>-0.590355</ele>
<time>2011-04-30T01:11:10Z</time>
<desc>lat.=21.086578, lon.=106.521965, Alt.=-0.590355m. Speed=51.948002m/h.</desc>
<speed>14.430001</speed>
</trkpt>
<trkpt lat="21.086143" lon="106.522629">
<ele>-1.815721</ele>
<time>2011-04-30T01:11:15Z</time>
<desc>lat.=21.086143, lon.=106.522629, Alt.=-1.815721m. Speed=59.004002m/h.</desc>
<speed>16.390000</speed>
</trkpt>
<trkpt lat="21.085701" lon="106.523331">
<ele>-2.445894</ele>
<time>2011-04-30T01:11:20Z</time>
<desc>lat.=21.085701, lon.=106.523331, Alt.=-2.445894m. Speed=61.380001m/h.</desc>
<speed>17.050000</speed>
</trkpt>
<trkpt lat="21.085243" lon="106.524086">
<ele>-1.459031</ele>
<time>2011-04-30T01:11:25Z</time>
<desc>lat.=21.085243, lon.=106.524086, Alt.=-1.459031m. Speed=69.695999m/h.</desc>
<speed>19.360000</speed>
</trkpt>
<trkpt lat="21.084724" lon="106.524895">
<ele>-1.413682</ele>
<time>2011-04-30T01:11:30Z</time>
<desc>lat.=21.084724, lon.=106.524895, Alt.=-1.413682m. Speed=71.676003m/h.</desc>
<speed>19.910001</speed>
</trkpt>
<trkpt lat="21.084200" lon="106.525681">
<ele>-0.409916</ele>
<time>2011-04-30T01:11:35Z</time>
<desc>lat.=21.084200, lon.=106.525681, Alt.=-0.409916m. Speed=71.748001m/h.</desc>
<speed>19.930000</speed>
</trkpt>
<trkpt lat="21.083498" lon="106.526283">
<ele>0.428189</ele>
<time>2011-04-30T01:11:40Z</time>
<desc>lat.=21.083498, lon.=106.526283, Alt.=0.428189m. Speed=67.248001m/h.</desc>
<speed>18.680000</speed>
</trkpt>
<trkpt lat="21.082682" lon="106.526672">
<ele>1.740006</ele>
<time>2011-04-30T01:11:45Z</time>
<desc>lat.=21.082682, lon.=106.526672, Alt.=1.740006m. Speed=70.307999m/h.</desc>
<speed>19.530000</speed>
</trkpt>
<trkpt lat="21.081869" lon="106.526985">
<ele>3.505465</ele>
<time>2011-04-30T01:11:50Z</time>
<desc>lat.=21.081869, lon.=106.526985, Alt.=3.505465m. Speed=62.784000m/h.</desc>
<speed>17.440000</speed>
</trkpt>
<trkpt lat="21.081202" lon="106.527222">
<ele>3.196993</ele>
<time>2011-04-30T01:11:55Z</time>
<desc>lat.=21.081202, lon.=106.527222, Alt.=3.196993m. Speed=50.688000m/h.</desc>
<speed>14.080000</speed>
</trkpt>
<trkpt lat="21.080517" lon="106.527466">
<ele>1.284562</ele>
<time>2011-04-30T01:12:00Z</time>
<desc>lat.=21.080517, lon.=106.527466, Alt.=1.284562m. Speed=61.091999m/h.</desc>
<speed>16.970000</speed>
</trkpt>
<trkpt lat="21.079754" lon="106.527756">
<ele>0.431584</ele>
<time>2011-04-30T01:12:05Z</time>
<desc>lat.=21.079754, lon.=106.527756, Alt.=0.431584m. Speed=66.851997m/h.</desc>
<speed>18.569999</speed>
</trkpt>
<trkpt lat="21.078936" lon="106.528053">
<ele>-0.453587</ele>
<time>2011-04-30T01:12:10Z</time>
<desc>lat.=21.078936, lon.=106.528053, Alt.=-0.453587m. Speed=69.732002m/h.</desc>
<speed>19.370001</speed>
</trkpt>
<trkpt lat="21.078093" lon="106.528366">
<ele>-2.178011</ele>
<time>2011-04-30T01:12:15Z</time>
<desc>lat.=21.078093, lon.=106.528366, Alt.=-2.178011m. Speed=64.584000m/h.</desc>
<speed>17.940000</speed>
</trkpt>
<trkpt lat="21.077381" lon="106.528641">
<ele>-3.237093</ele>
<time>2011-04-30T01:12:20Z</time>
<desc>lat.=21.077381, lon.=106.528641, Alt.=-3.237093m. Speed=59.903999m/h.</desc>
<speed>16.640000</speed>
</trkpt>
<trkpt lat="21.076647" lon="106.528900">
<ele>-4.057926</ele>
<time>2011-04-30T01:12:25Z</time>
<desc>lat.=21.076647, lon.=106.528900, Alt.=-4.057926m. Speed=63.756001m/h.</desc>
<speed>17.710000</speed>
</trkpt>
<trkpt lat="21.075846" lon="106.529213">
<ele>-7.152287</ele>
<time>2011-04-30T01:12:30Z</time>
<desc>lat.=21.075846, lon.=106.529213, Alt.=-7.152287m. Speed=68.148003m/h.</desc>
<speed>18.930001</speed>
</trkpt>
<trkpt lat="21.075024" lon="106.529510">
<ele>-12.053841</ele>
<time>2011-04-30T01:12:35Z</time>
<desc>lat.=21.075024, lon.=106.529510, Alt.=-12.053841m. Speed=66.276001m/h.</desc>
<speed>18.410000</speed>
</trkpt>
<trkpt lat="21.074329" lon="106.529785">
<ele>-14.519905</ele>
<time>2011-04-30T01:12:40Z</time>
<desc>lat.=21.074329, lon.=106.529785, Alt.=-14.519905m. Speed=47.484001m/h.</desc>
<speed>13.190000</speed>
</trkpt>
<trkpt lat="21.073881" lon="106.530006">
<ele>-16.422134</ele>
<time>2011-04-30T01:12:45Z</time>
<desc>lat.=21.073881, lon.=106.530006, Alt.=-16.422134m. Speed=32.652000m/h.</desc>
<speed>9.070000</speed>
</trkpt>
<trkpt lat="21.073620" lon="106.530304">
<ele>-15.490364</ele>
<time>2011-04-30T01:12:50Z</time>
<desc>lat.=21.073620, lon.=106.530304, Alt.=-15.490364m. Speed=31.176001m/h.</desc>
<speed>8.660000</speed>
</trkpt>
<trkpt lat="21.073521" lon="106.530754">
<ele>-13.090462</ele>
<time>2011-04-30T01:12:55Z</time>
<desc>lat.=21.073521, lon.=106.530754, Alt.=-13.090462m. Speed=35.495998m/h.</desc>
<speed>9.860000</speed>
</trkpt>
<trkpt lat="21.073458" lon="106.531258">
<ele>-9.746712</ele>
<time>2011-04-30T01:13:00Z</time>
<desc>lat.=21.073458, lon.=106.531258, Alt.=-9.746712m. Speed=37.439999m/h.</desc>
<speed>10.400000</speed>
</trkpt>
<trkpt lat="21.073441" lon="106.531792">
<ele>-2.435946</ele>
<time>2011-04-30T01:13:05Z</time>
<desc>lat.=21.073441, lon.=106.531792, Alt.=-2.435946m. Speed=35.388000m/h.</desc>
<speed>9.830000</speed>
</trkpt>
<trkpt lat="21.073479" lon="106.532288">
<ele>-0.620095</ele>
<time>2011-04-30T01:13:10Z</time>
<desc>lat.=21.073479, lon.=106.532288, Alt.=-0.620095m. Speed=38.124001m/h.</desc>
<speed>10.590000</speed>
</trkpt>
<trkpt lat="21.073597" lon="106.532837">
<ele>2.564119</ele>
<time>2011-04-30T01:13:15Z</time>
<desc>lat.=21.073597, lon.=106.532837, Alt.=2.564119m. Speed=41.004002m/h.</desc>
<speed>11.390000</speed>
</trkpt>
<trkpt lat="21.073702" lon="106.533394">
<ele>3.662874</ele>
<time>2011-04-30T01:13:20Z</time>
<desc>lat.=21.073702, lon.=106.533394, Alt.=3.662874m. Speed=41.723999m/h.</desc>
<speed>11.590000</speed>
</trkpt>
<trkpt lat="21.073812" lon="106.533974">
<ele>1.456986</ele>
<time>2011-04-30T01:13:25Z</time>
<desc>lat.=21.073812, lon.=106.533974, Alt.=1.456986m. Speed=41.868000m/h.</desc>
<speed>11.630000</speed>
</trkpt>
<trkpt lat="21.073896" lon="106.534576">
<ele>0.551522</ele>
<time>2011-04-30T01:13:30Z</time>
<desc>lat.=21.073896, lon.=106.534576, Alt.=0.551522m. Speed=43.271999m/h.</desc>
<speed>12.020000</speed>
</trkpt>
<trkpt lat="21.074022" lon="106.535179">
<ele>-0.373394</ele>
<time>2011-04-30T01:13:35Z</time>
<desc>lat.=21.074022, lon.=106.535179, Alt.=-0.373394m. Speed=44.639999m/h.</desc>
<speed>12.400000</speed>
</trkpt>
<trkpt lat="21.074129" lon="106.535774">
<ele>-2.520906</ele>
<time>2011-04-30T01:13:40Z</time>
<desc>lat.=21.074129, lon.=106.535774, Alt.=-2.520906m. Speed=40.212002m/h.</desc>
<speed>11.170001</speed>
</trkpt>
<trkpt lat="21.074223" lon="106.536240">
<ele>-2.123507</ele>
<time>2011-04-30T01:13:45Z</time>
<desc>lat.=21.074223, lon.=106.536240, Alt.=-2.123507m. Speed=32.147999m/h.</desc>
<speed>8.930000</speed>
</trkpt>
<trkpt lat="21.074299" lon="106.536736">
<ele>-4.711979</ele>
<time>2011-04-30T01:13:50Z</time>
<desc>lat.=21.074299, lon.=106.536736, Alt.=-4.711979m. Speed=40.608002m/h.</desc>
<speed>11.280000</speed>
</trkpt>
<trkpt lat="21.074408" lon="106.537361">
<ele>-6.257877</ele>
<time>2011-04-30T01:13:55Z</time>
<desc>lat.=21.074408, lon.=106.537361, Alt.=-6.257877m. Speed=51.299999m/h.</desc>
<speed>14.250000</speed>
</trkpt>
<trkpt lat="21.074509" lon="106.538040">
<ele>-7.689396</ele>
<time>2011-04-30T01:14:00Z</time>
<desc>lat.=21.074509, lon.=106.538040, Alt.=-7.689396m. Speed=49.571999m/h.</desc>
<speed>13.770000</speed>
</trkpt>
<trkpt lat="21.074621" lon="106.538696">
<ele>-9.586067</ele>
<time>2011-04-30T01:14:05Z</time>
<desc>lat.=21.074621, lon.=106.538696, Alt.=-9.586067m. Speed=51.948002m/h.</desc>
<speed>14.430001</speed>
</trkpt>
<trkpt lat="21.074728" lon="106.539436">
<ele>-9.618538</ele>
<time>2011-04-30T01:14:10Z</time>
<desc>lat.=21.074728, lon.=106.539436, Alt.=-9.618538m. Speed=55.655998m/h.</desc>
<speed>15.460000</speed>
</trkpt>
<trkpt lat="21.074877" lon="106.540230">
<ele>-6.200748</ele>
<time>2011-04-30T01:14:15Z</time>
<desc>lat.=21.074877, lon.=106.540230, Alt.=-6.200748m. Speed=60.551998m/h.</desc>
<speed>16.819999</speed>
</trkpt>
<trkpt lat="21.074900" lon="106.541016">
<ele>-5.318424</ele>
<time>2011-04-30T01:14:20Z</time>
<desc>lat.=21.074900, lon.=106.541016, Alt.=-5.318424m. Speed=54.792000m/h.</desc>
<speed>15.220000</speed>
</trkpt>
<trkpt lat="21.074768" lon="106.541733">
<ele>-4.784122</ele>
<time>2011-04-30T01:14:25Z</time>
<desc>lat.=21.074768, lon.=106.541733, Alt.=-4.784122m. Speed=53.712002m/h.</desc>
<speed>14.920001</speed>
</trkpt>
<trkpt lat="21.074566" lon="106.542473">
<ele>-3.834322</ele>
<time>2011-04-30T01:14:30Z</time>
<desc>lat.=21.074566, lon.=106.542473, Alt.=-3.834322m. Speed=61.776001m/h.</desc>
<speed>17.160000</speed>
</trkpt>
<trkpt lat="21.074341" lon="106.543274">
<ele>-0.254513</ele>
<time>2011-04-30T01:14:35Z</time>
<desc>lat.=21.074341, lon.=106.543274, Alt.=-0.254513m. Speed=50.112000m/h.</desc>
<speed>13.920000</speed>
</trkpt>
<trkpt lat="21.074123" lon="106.543945">
<ele>0.618706</ele>
<time>2011-04-30T01:14:40Z</time>
<desc>lat.=21.074123, lon.=106.543945, Alt.=0.618706m. Speed=55.980000m/h.</desc>
<speed>15.550000</speed>
</trkpt>
<trkpt lat="21.073931" lon="106.544678">
<ele>2.046907</ele>
<time>2011-04-30T01:14:45Z</time>
<desc>lat.=21.073931, lon.=106.544678, Alt.=2.046907m. Speed=56.880001m/h.</desc>
<speed>15.800000</speed>
</trkpt>
<trkpt lat="21.073748" lon="106.545395">
<ele>3.917208</ele>
<time>2011-04-30T01:14:50Z</time>
<desc>lat.=21.073748, lon.=106.545395, Alt.=3.917208m. Speed=54.504002m/h.</desc>
<speed>15.140000</speed>
</trkpt>
<trkpt lat="21.073549" lon="106.546120">
<ele>7.752750</ele>
<time>2011-04-30T01:14:55Z</time>
<desc>lat.=21.073549, lon.=106.546120, Alt.=7.752750m. Speed=56.051998m/h.</desc>
<speed>15.569999</speed>
</trkpt>
<trkpt lat="21.073326" lon="106.546822">
<ele>11.720833</ele>
<time>2011-04-30T01:15:00Z</time>
<desc>lat.=21.073326, lon.=106.546822, Alt.=11.720833m. Speed=52.091999m/h.</desc>
<speed>14.470000</speed>
</trkpt>
<trkpt lat="21.073149" lon="106.547493">
<ele>13.633186</ele>
<time>2011-04-30T01:15:05Z</time>
<desc>lat.=21.073149, lon.=106.547493, Alt.=13.633186m. Speed=47.987999m/h.</desc>
<speed>13.330000</speed>
</trkpt>
<trkpt lat="21.073000" lon="106.548210">
<ele>12.344612</ele>
<time>2011-04-30T01:15:10Z</time>
<desc>lat.=21.073000, lon.=106.548210, Alt.=12.344612m. Speed=49.896000m/h.</desc>
<speed>13.860000</speed>
</trkpt>
<trkpt lat="21.072824" lon="106.548874">
<ele>11.285774</ele>
<time>2011-04-30T01:15:15Z</time>
<desc>lat.=21.072824, lon.=106.548874, Alt.=11.285774m. Speed=50.939999m/h.</desc>
<speed>14.150000</speed>
</trkpt>
<trkpt lat="21.072613" lon="106.549591">
<ele>7.231754</ele>
<time>2011-04-30T01:15:20Z</time>
<desc>lat.=21.072613, lon.=106.549591, Alt.=7.231754m. Speed=54.431999m/h.</desc>
<speed>15.120000</speed>
</trkpt>
<trkpt lat="21.072403" lon="106.550308">
<ele>6.932560</ele>
<time>2011-04-30T01:15:25Z</time>
<desc>lat.=21.072403, lon.=106.550308, Alt.=6.932560m. Speed=55.007999m/h.</desc>
<speed>15.280000</speed>
</trkpt>
<trkpt lat="21.072166" lon="106.551018">
<ele>6.050480</ele>
<time>2011-04-30T01:15:30Z</time>
<desc>lat.=21.072166, lon.=106.551018, Alt.=6.050480m. Speed=56.304001m/h.</desc>
<speed>15.640000</speed>
</trkpt>
<trkpt lat="21.071898" lon="106.551765">
<ele>4.375065</ele>
<time>2011-04-30T01:15:35Z</time>
<desc>lat.=21.071898, lon.=106.551765, Alt.=4.375065m. Speed=57.276001m/h.</desc>
<speed>15.910000</speed>
</trkpt>
<trkpt lat="21.071659" lon="106.552437">
<ele>2.235750</ele>
<time>2011-04-30T01:15:40Z</time>
<desc>lat.=21.071659, lon.=106.552437, Alt.=2.235750m. Speed=47.700001m/h.</desc>
<speed>13.250000</speed>
</trkpt>
<trkpt lat="21.071436" lon="106.553032">
<ele>0.256161</ele>
<time>2011-04-30T01:15:45Z</time>
<desc>lat.=21.071436, lon.=106.553032, Alt.=0.256161m. Speed=44.891998m/h.</desc>
<speed>12.470000</speed>
</trkpt>
<trkpt lat="21.071209" lon="106.553665">
<ele>-1.515092</ele>
<time>2011-04-30T01:15:50Z</time>
<desc>lat.=21.071209, lon.=106.553665, Alt.=-1.515092m. Speed=49.824001m/h.</desc>
<speed>13.840000</speed>
</trkpt>
<trkpt lat="21.070980" lon="106.554230">
<ele>-2.736055</ele>
<time>2011-04-30T01:15:55Z</time>
<desc>lat.=21.070980, lon.=106.554230, Alt.=-2.736055m. Speed=43.919998m/h.</desc>
<speed>12.199999</speed>
</trkpt>
<trkpt lat="21.070814" lon="106.554642">
<ele>-3.165682</ele>
<time>2011-04-30T01:16:00Z</time>
<desc>lat.=21.070814, lon.=106.554642, Alt.=-3.165682m. Speed=20.016001m/h.</desc>
<speed>5.560000</speed>
</trkpt>
<trkpt lat="21.070770" lon="106.554779">
<ele>-5.433781</ele>
<time>2011-04-30T01:16:05Z</time>
<desc>lat.=21.070770, lon.=106.554779, Alt.=-5.433781m. Speed=1.332000m/h.</desc>
<speed>0.370000</speed>
</trkpt>
<trkpt lat="21.070749" lon="106.554787">
<ele>-5.545231</ele>
<time>2011-04-30T01:16:10Z</time>
<desc>lat.=21.070749, lon.=106.554787, Alt.=-5.545231m. Speed=0.900000m/h.</desc>
<speed>0.250000</speed>
</trkpt>
<trkpt lat="21.070744" lon="106.554787">
<ele>-5.808292</ele>
<time>2011-04-30T01:16:15Z</time>
<desc>lat.=21.070744, lon.=106.554787, Alt.=-5.808292m. Speed=0.432000m/h.</desc>
<speed>0.120000</speed>
</trkpt>
<trkpt lat="21.070744" lon="106.554787">
<ele>-5.874332</ele>
<time>2011-04-30T01:16:20Z</time>
<desc>lat.=21.070744, lon.=106.554787, Alt.=-5.874332m. Speed=0.468000m/h.</desc>
<speed>0.130000</speed>
</trkpt>
<trkpt lat="21.070744" lon="106.554779">
<ele>-5.887028</ele>
<time>2011-04-30T01:16:25Z</time>
<desc>lat.=21.070744, lon.=106.554779, Alt.=-5.887028m. Speed=0.252000m/h.</desc>
<speed>0.070000</speed>
</trkpt>
<trkpt lat="21.070736" lon="106.554825">
<ele>-6.112370</ele>
<time>2011-04-30T01:16:30Z</time>
<desc>lat.=21.070736, lon.=106.554825, Alt.=-6.112370m. Speed=11.628000m/h.</desc>
<speed>3.230000</speed>
</trkpt>
<trkpt lat="21.070669" lon="106.555077">
<ele>-7.198307</ele>
<time>2011-04-30T01:16:35Z</time>
<desc>lat.=21.070669, lon.=106.555077, Alt.=-7.198307m. Speed=20.232000m/h.</desc>
<speed>5.620000</speed>
</trkpt>
<trkpt lat="21.070560" lon="106.555367">
<ele>-9.090950</ele>
<time>2011-04-30T01:16:40Z</time>
<desc>lat.=21.070560, lon.=106.555367, Alt.=-9.090950m. Speed=19.044001m/h.</desc>
<speed>5.290000</speed>
</trkpt>
<trkpt lat="21.070440" lon="106.555634">
<ele>-9.629280</ele>
<time>2011-04-30T01:16:45Z</time>
<desc>lat.=21.070440, lon.=106.555634, Alt.=-9.629280m. Speed=24.372000m/h.</desc>
<speed>6.770000</speed>
</trkpt>
<trkpt lat="21.070295" lon="106.556068">
<ele>-12.275764</ele>
<time>2011-04-30T01:16:50Z</time>
<desc>lat.=21.070295, lon.=106.556068, Alt.=-12.275764m. Speed=39.276001m/h.</desc>
<speed>10.910000</speed>
</trkpt>
<trkpt lat="21.070129" lon="106.556572">
<ele>-12.297249</ele>
<time>2011-04-30T01:16:55Z</time>
<desc>lat.=21.070129, lon.=106.556572, Alt.=-12.297249m. Speed=39.779999m/h.</desc>
<speed>11.050000</speed>
</trkpt>
<trkpt lat="21.069885" lon="106.557152">
<ele>-14.275764</ele>
<time>2011-04-30T01:17:00Z</time>
<desc>lat.=21.069885, lon.=106.557152, Alt.=-14.275764m. Speed=50.220001m/h.</desc>
<speed>13.950000</speed>
</trkpt>
<trkpt lat="21.069675" lon="106.557793">
<ele>-14.430550</ele>
<time>2011-04-30T01:17:05Z</time>
<desc>lat.=21.069675, lon.=106.557793, Alt.=-14.430550m. Speed=51.984001m/h.</desc>
<speed>14.440000</speed>
</trkpt>
<trkpt lat="21.069427" lon="106.558487">
<ele>-12.923225</ele>
<time>2011-04-30T01:17:10Z</time>
<desc>lat.=21.069427, lon.=106.558487, Alt.=-12.923225m. Speed=53.099998m/h.</desc>
<speed>14.750000</speed>
</trkpt>
<trkpt lat="21.069147" lon="106.559204">
<ele>-13.157112</ele>
<time>2011-04-30T01:17:15Z</time>
<desc>lat.=21.069147, lon.=106.559204, Alt.=-13.157112m. Speed=59.616001m/h.</desc>
<speed>16.560000</speed>
</trkpt>
<trkpt lat="21.068899" lon="106.559998">
<ele>-12.810432</ele>
<time>2011-04-30T01:17:20Z</time>
<desc>lat.=21.068899, lon.=106.559998, Alt.=-12.810432m. Speed=61.992001m/h.</desc>
<speed>17.220000</speed>
</trkpt>
<trkpt lat="21.068605" lon="106.560852">
<ele>-13.653450</ele>
<time>2011-04-30T01:17:25Z</time>
<desc>lat.=21.068605, lon.=106.560852, Alt.=-13.653450m. Speed=67.176003m/h.</desc>
<speed>18.660001</speed>
</trkpt>
<trkpt lat="21.068308" lon="106.561699">
<ele>-14.422005</ele>
<time>2011-04-30T01:17:30Z</time>
<desc>lat.=21.068308, lon.=106.561699, Alt.=-14.422005m. Speed=66.924004m/h.</desc>
<speed>18.590001</speed>
</trkpt>
<trkpt lat="21.068014" lon="106.562523">
<ele>-15.127327</ele>
<time>2011-04-30T01:17:35Z</time>
<desc>lat.=21.068014, lon.=106.562523, Alt.=-15.127327m. Speed=66.384003m/h.</desc>
<speed>18.440001</speed>
</trkpt>
<trkpt lat="21.067730" lon="106.563332">
<ele>-11.856819</ele>
<time>2011-04-30T01:17:40Z</time>
<desc>lat.=21.067730, lon.=106.563332, Alt.=-11.856819m. Speed=62.891998m/h.</desc>
<speed>17.470000</speed>
</trkpt>
<trkpt lat="21.067453" lon="106.564095">
<ele>-12.963509</ele>
<time>2011-04-30T01:17:45Z</time>
<desc>lat.=21.067453, lon.=106.564095, Alt.=-12.963509m. Speed=56.627998m/h.</desc>
<speed>15.730000</speed>
</trkpt>
<trkpt lat="21.067209" lon="106.564827">
<ele>-11.552376</ele>
<time>2011-04-30T01:17:50Z</time>
<desc>lat.=21.067209, lon.=106.564827, Alt.=-11.552376m. Speed=58.175999m/h.</desc>
<speed>16.160000</speed>
</trkpt>
<trkpt lat="21.066963" lon="106.565514">
<ele>-10.604134</ele>
<time>2011-04-30T01:17:55Z</time>
<desc>lat.=21.066963, lon.=106.565514, Alt.=-10.604134m. Speed=46.655998m/h.</desc>
<speed>12.960000</speed>
</trkpt>
<trkpt lat="21.066797" lon="106.566010">
<ele>-9.640022</ele>
<time>2011-04-30T01:18:00Z</time>
<desc>lat.=21.066797, lon.=106.566010, Alt.=-9.640022m. Speed=35.388000m/h.</desc>
<speed>9.830000</speed>
</trkpt>
<trkpt lat="21.066631" lon="106.566498">
<ele>-9.620003</ele>
<time>2011-04-30T01:18:05Z</time>
<desc>lat.=21.066631, lon.=106.566498, Alt.=-9.620003m. Speed=38.736000m/h.</desc>
<speed>10.760000</speed>
</trkpt>
<trkpt lat="21.066469" lon="106.566940">
<ele>-9.415169</ele>
<time>2011-04-30T01:18:10Z</time>
<desc>lat.=21.066469, lon.=106.566940, Alt.=-9.415169m. Speed=31.860001m/h.</desc>
<speed>8.850000</speed>
</trkpt>
<trkpt lat="21.066336" lon="106.567360">
<ele>-7.359684</ele>
<time>2011-04-30T01:18:15Z</time>
<desc>lat.=21.066336, lon.=106.567360, Alt.=-7.359684m. Speed=36.540001m/h.</desc>
<speed>10.150000</speed>
</trkpt>
<trkpt lat="21.066128" lon="106.567863">
<ele>-7.338200</ele>
<time>2011-04-30T01:18:20Z</time>
<desc>lat.=21.066128, lon.=106.567863, Alt.=-7.338200m. Speed=44.352001m/h.</desc>
<speed>12.320000</speed>
</trkpt>
<trkpt lat="21.065920" lon="106.568466">
<ele>-6.563419</ele>
<time>2011-04-30T01:18:25Z</time>
<desc>lat.=21.065920, lon.=106.568466, Alt.=-6.563419m. Speed=46.835999m/h.</desc>
<speed>13.010000</speed>
</trkpt>
<trkpt lat="21.065733" lon="106.569008">
<ele>-5.621037</ele>
<time>2011-04-30T01:18:30Z</time>
<desc>lat.=21.065733, lon.=106.569008, Alt.=-5.621037m. Speed=40.139999m/h.</desc>
<speed>11.150000</speed>
</trkpt>
<trkpt lat="21.065590" lon="106.569481">
<ele>-5.352970</ele>
<time>2011-04-30T01:18:35Z</time>
<desc>lat.=21.065590, lon.=106.569481, Alt.=-5.352970m. Speed=39.383999m/h.</desc>
<speed>10.940000</speed>
</trkpt>
<trkpt lat="21.065399" lon="106.570030">
<ele>-4.831974</ele>
<time>2011-04-30T01:18:40Z</time>
<desc>lat.=21.065399, lon.=106.570030, Alt.=-4.831974m. Speed=46.835999m/h.</desc>
<speed>13.010000</speed>
</trkpt>
<trkpt lat="21.065151" lon="106.570686">
<ele>-1.687669</ele>
<time>2011-04-30T01:18:45Z</time>
<desc>lat.=21.065151, lon.=106.570686, Alt.=-1.687669m. Speed=53.136002m/h.</desc>
<speed>14.760000</speed>
</trkpt>
<trkpt lat="21.064894" lon="106.571358">
<ele>-1.816514</ele>
<time>2011-04-30T01:18:50Z</time>
<desc>lat.=21.064894, lon.=106.571358, Alt.=-1.816514m. Speed=52.776001m/h.</desc>
<speed>14.660000</speed>
</trkpt>
<trkpt lat="21.064650" lon="106.571991">
<ele>-2.152498</ele>
<time>2011-04-30T01:18:55Z</time>
<desc>lat.=21.064650, lon.=106.571991, Alt.=-2.152498m. Speed=45.863998m/h.</desc>
<speed>12.740000</speed>
</trkpt>
<trkpt lat="21.064470" lon="106.572502">
<ele>-2.416231</ele>
<time>2011-04-30T01:19:00Z</time>
<desc>lat.=21.064470, lon.=106.572502, Alt.=-2.416231m. Speed=33.984001m/h.</desc>
<speed>9.440000</speed>
</trkpt>
<trkpt lat="21.064341" lon="106.572868">
<ele>-1.677629</ele>
<time>2011-04-30T01:19:05Z</time>
<desc>lat.=21.064341, lon.=106.572868, Alt.=-1.677629m. Speed=32.543999m/h.</desc>
<speed>9.040000</speed>
</trkpt>
<trkpt lat="21.064173" lon="106.573357">
<ele>-1.568833</ele>
<time>2011-04-30T01:19:10Z</time>
<desc>lat.=21.064173, lon.=106.573357, Alt.=-1.568833m. Speed=40.967999m/h.</desc>
<speed>11.380000</speed>
</trkpt>
<trkpt lat="21.063992" lon="106.573906">
<ele>-1.903031</ele>
<time>2011-04-30T01:19:15Z</time>
<desc>lat.=21.063992, lon.=106.573906, Alt.=-1.903031m. Speed=44.712002m/h.</desc>
<speed>12.420001</speed>
</trkpt>
<trkpt lat="21.063745" lon="106.574539">
<ele>-0.325772</ele>
<time>2011-04-30T01:19:20Z</time>
<desc>lat.=21.063745, lon.=106.574539, Alt.=-0.325772m. Speed=53.964001m/h.</desc>
<speed>14.990000</speed>
</trkpt>
<trkpt lat="21.063431" lon="106.575302">
<ele>0.887887</ele>
<time>2011-04-30T01:19:25Z</time>
<desc>lat.=21.063431, lon.=106.575302, Alt.=0.887887m. Speed=64.584000m/h.</desc>
<speed>17.940000</speed>
</trkpt>
<trkpt lat="21.063129" lon="106.576141">
<ele>3.063143</ele>
<time>2011-04-30T01:19:30Z</time>
<desc>lat.=21.063129, lon.=106.576141, Alt.=3.063143m. Speed=65.879997m/h.</desc>
<speed>18.299999</speed>
</trkpt>
<trkpt lat="21.062811" lon="106.576965">
<ele>6.377262</ele>
<time>2011-04-30T01:19:35Z</time>
<desc>lat.=21.062811, lon.=106.576965, Alt.=6.377262m. Speed=66.779999m/h.</desc>
<speed>18.550000</speed>
</trkpt>
<trkpt lat="21.062544" lon="106.577843">
<ele>9.128059</ele>
<time>2011-04-30T01:19:40Z</time>
<desc>lat.=21.062544, lon.=106.577843, Alt.=9.128059m. Speed=68.363998m/h.</desc>
<speed>18.990000</speed>
</trkpt>
<trkpt lat="21.062273" lon="106.578697">
<ele>11.095345</ele>
<time>2011-04-30T01:19:45Z</time>
<desc>lat.=21.062273, lon.=106.578697, Alt.=11.095345m. Speed=64.620003m/h.</desc>
<speed>17.950001</speed>
</trkpt>
<trkpt lat="21.062094" lon="106.579567">
<ele>13.076790</ele>
<time>2011-04-30T01:19:50Z</time>
<desc>lat.=21.062094, lon.=106.579567, Alt.=13.076790m. Speed=60.408001m/h.</desc>
<speed>16.780000</speed>
</trkpt>
<trkpt lat="21.061945" lon="106.580330">
<ele>12.353645</ele>
<time>2011-04-30T01:19:55Z</time>
<desc>lat.=21.061945, lon.=106.580330, Alt.=12.353645m. Speed=49.716000m/h.</desc>
<speed>13.810000</speed>
</trkpt>
<trkpt lat="21.061817" lon="106.580902">
<ele>12.714973</ele>
<time>2011-04-30T01:20:00Z</time>
<desc>lat.=21.061817, lon.=106.580902, Alt.=12.714973m. Speed=38.664001m/h.</desc>
<speed>10.740000</speed>
</trkpt>
<trkpt lat="21.061720" lon="106.581406">
<ele>14.955696</ele>
<time>2011-04-30T01:20:05Z</time>
<desc>lat.=21.061720, lon.=106.581406, Alt.=14.955696m. Speed=32.616001m/h.</desc>
<speed>9.060000</speed>
</trkpt>
<trkpt lat="21.061617" lon="106.581741">
<ele>12.541145</ele>
<time>2011-04-30T01:20:10Z</time>
<desc>lat.=21.061617, lon.=106.581741, Alt.=12.541145m. Speed=19.584000m/h.</desc>
<speed>5.440000</speed>
</trkpt>
<trkpt lat="21.061588" lon="106.581947">
<ele>12.786018</ele>
<time>2011-04-30T01:20:15Z</time>
<desc>lat.=21.061588, lon.=106.581947, Alt.=12.786018m. Speed=14.652000m/h.</desc>
<speed>4.070000</speed>
</trkpt>
<trkpt lat="21.061531" lon="106.582222">
<ele>12.030891</ele>
<time>2011-04-30T01:20:20Z</time>
<desc>lat.=21.061531, lon.=106.582222, Alt.=12.030891m. Speed=19.908001m/h.</desc>
<speed>5.530000</speed>
</trkpt>
<trkpt lat="21.061449" lon="106.582565">
<ele>9.450813</ele>
<time>2011-04-30T01:20:25Z</time>
<desc>lat.=21.061449, lon.=106.582565, Alt.=9.450813m. Speed=24.480000m/h.</desc>
<speed>6.800000</speed>
</trkpt>
<trkpt lat="21.061340" lon="106.582962">
<ele>6.824894</ele>
<time>2011-04-30T01:20:30Z</time>
<desc>lat.=21.061340, lon.=106.582962, Alt.=6.824894m. Speed=27.000000m/h.</desc>
<speed>7.500000</speed>
</trkpt>
<trkpt lat="21.061241" lon="106.583359">
<ele>4.749577</ele>
<time>2011-04-30T01:20:35Z</time>
<desc>lat.=21.061241, lon.=106.583359, Alt.=4.749577m. Speed=29.988001m/h.</desc>
<speed>8.330000</speed>
</trkpt>
<trkpt lat="21.061178" lon="106.583633">
<ele>1.535233</ele>
<time>2011-04-30T01:20:40Z</time>
<desc>lat.=21.061178, lon.=106.583633, Alt.=1.535233m. Speed=16.200001m/h.</desc>
<speed>4.500000</speed>
</trkpt>
<trkpt lat="21.061121" lon="106.583954">
<ele>-0.843316</ele>
<time>2011-04-30T01:20:45Z</time>
<desc>lat.=21.061121, lon.=106.583954, Alt.=-0.843316m. Speed=29.952000m/h.</desc>
<speed>8.320000</speed>
</trkpt>
<trkpt lat="21.061075" lon="106.584320">
<ele>-0.665429</ele>
<time>2011-04-30T01:20:50Z</time>
<desc>lat.=21.061075, lon.=106.584320, Alt.=-0.665429m. Speed=24.120001m/h.</desc>
<speed>6.700000</speed>
</trkpt>
<trkpt lat="21.061029" lon="106.584671">
<ele>-1.080247</ele>
<time>2011-04-30T01:20:55Z</time>
<desc>lat.=21.061029, lon.=106.584671, Alt.=-1.080247m. Speed=26.820000m/h.</desc>
<speed>7.450000</speed>
</trkpt>
<trkpt lat="21.060930" lon="106.585114">
<ele>-1.529283</ele>
<time>2011-04-30T01:21:00Z</time>
<desc>lat.=21.060930, lon.=106.585114, Alt.=-1.529283m. Speed=35.532001m/h.</desc>
<speed>9.870000</speed>
</trkpt>
<trkpt lat="21.060772" lon="106.585632">
<ele>-3.412508</ele>
<time>2011-04-30T01:21:05Z</time>
<desc>lat.=21.060772, lon.=106.585632, Alt.=-3.412508m. Speed=43.164001m/h.</desc>
<speed>11.990000</speed>
</trkpt>
<trkpt lat="21.060627" lon="106.586250">
<ele>-1.827287</ele>
<time>2011-04-30T01:21:10Z</time>
<desc>lat.=21.060627, lon.=106.586250, Alt.=-1.827287m. Speed=51.624001m/h.</desc>
<speed>14.340000</speed>
</trkpt>
<trkpt lat="21.060436" lon="106.586884">
<ele>-2.307100</ele>
<time>2011-04-30T01:21:15Z</time>
<desc>lat.=21.060436, lon.=106.586884, Alt.=-2.307100m. Speed=33.119999m/h.</desc>
<speed>9.200000</speed>
</trkpt>
<trkpt lat="21.060362" lon="106.587067">
<ele>-2.191439</ele>
<time>2011-04-30T01:21:20Z</time>
<desc>lat.=21.060362, lon.=106.587067, Alt.=-2.191439m. Speed=6.696000m/h.</desc>
<speed>1.860000</speed>
</trkpt>
<trkpt lat="21.060373" lon="106.587189">
<ele>-0.072034</ele>
<time>2011-04-30T01:21:25Z</time>
<desc>lat.=21.060373, lon.=106.587189, Alt.=-0.072034m. Speed=9.756000m/h.</desc>
<speed>2.710000</speed>
</trkpt>
<trkpt lat="21.060280" lon="106.587463">
<ele>1.679856</ele>
<time>2011-04-30T01:21:30Z</time>
<desc>lat.=21.060280, lon.=106.587463, Alt.=1.679856m. Speed=26.496000m/h.</desc>
<speed>7.360000</speed>
</trkpt>
<trkpt lat="21.060156" lon="106.587868">
<ele>3.340242</ele>
<time>2011-04-30T01:21:35Z</time>
<desc>lat.=21.060156, lon.=106.587868, Alt.=3.340242m. Speed=32.220001m/h.</desc>
<speed>8.950000</speed>
</trkpt>
<trkpt lat="21.059977" lon="106.588409">
<ele>4.462223</ele>
<time>2011-04-30T01:21:40Z</time>
<desc>lat.=21.059977, lon.=106.588409, Alt.=4.462223m. Speed=39.456001m/h.</desc>
<speed>10.960000</speed>
</trkpt>
<trkpt lat="21.059830" lon="106.589005">
<ele>6.431095</ele>
<time>2011-04-30T01:21:45Z</time>
<desc>lat.=21.059830, lon.=106.589005, Alt.=6.431095m. Speed=45.576000m/h.</desc>
<speed>12.660000</speed>
</trkpt>
<trkpt lat="21.059662" lon="106.589592">
<ele>7.797794</ele>
<time>2011-04-30T01:21:50Z</time>
<desc>lat.=21.059662, lon.=106.589592, Alt.=7.797794m. Speed=40.428001m/h.</desc>
<speed>11.230000</speed>
</trkpt>
<trkpt lat="21.059557" lon="106.590073">
<ele>9.053841</ele>
<time>2011-04-30T01:21:55Z</time>
<desc>lat.=21.059557, lon.=106.590073, Alt.=9.053841m. Speed=32.759998m/h.</desc>
<speed>9.100000</speed>
</trkpt>
<trkpt lat="21.059450" lon="106.590469">
<ele>12.587288</ele>
<time>2011-04-30T01:22:00Z</time>
<desc>lat.=21.059450, lon.=106.590469, Alt.=12.587288m. Speed=26.604000m/h.</desc>
<speed>7.390000</speed>
</trkpt>
<trkpt lat="21.059420" lon="106.590752">
<ele>12.128059</ele>
<time>2011-04-30T01:22:05Z</time>
<desc>lat.=21.059420, lon.=106.590752, Alt.=12.128059m. Speed=9.900000m/h.</desc>
<speed>2.750000</speed>
</trkpt>
<trkpt lat="21.059389" lon="106.590851">
<ele>12.817513</ele>
<time>2011-04-30T01:22:10Z</time>
<desc>lat.=21.059389, lon.=106.590851, Alt.=12.817513m. Speed=2.124000m/h.</desc>
<speed>0.590000</speed>
</trkpt>
<trkpt lat="21.059381" lon="106.590919">
<ele>13.828743</ele>
<time>2011-04-30T01:22:15Z</time>
<desc>lat.=21.059381, lon.=106.590919, Alt.=13.828743m. Speed=4.788000m/h.</desc>
<speed>1.330000</speed>
</trkpt>
<trkpt lat="21.059370" lon="106.591011">
<ele>15.302620</ele>
<time>2011-04-30T01:22:20Z</time>
<desc>lat.=21.059370, lon.=106.591011, Alt.=15.302620m. Speed=3.960000m/h.</desc>
<speed>1.100000</speed>
</trkpt>
<trkpt lat="21.059357" lon="106.591057">
<ele>16.314224</ele>
<time>2011-04-30T01:22:25Z</time>
<desc>lat.=21.059357, lon.=106.591057, Alt.=16.314224m. Speed=2.268000m/h.</desc>
<speed>0.630000</speed>
</trkpt>
<trkpt lat="21.059361" lon="106.591110">
<ele>17.585709</ele>
<time>2011-04-30T01:22:30Z</time>
<desc>lat.=21.059361, lon.=106.591110, Alt.=17.585709m. Speed=2.016000m/h.</desc>
<speed>0.560000</speed>
</trkpt>
<trkpt lat="21.059343" lon="106.591133">
<ele>18.228775</ele>
<time>2011-04-30T01:22:35Z</time>
<desc>lat.=21.059343, lon.=106.591133, Alt.=18.228775m. Speed=1.764000m/h.</desc>
<speed>0.490000</speed>
</trkpt>
<trkpt lat="21.059317" lon="106.591171">
<ele>17.822525</ele>
<time>2011-04-30T01:22:40Z</time>
<desc>lat.=21.059317, lon.=106.591171, Alt.=17.822525m. Speed=5.184000m/h.</desc>
<speed>1.440000</speed>
</trkpt>
<trkpt lat="21.059294" lon="106.591270">
<ele>17.803482</ele>
<time>2011-04-30T01:22:45Z</time>
<desc>lat.=21.059294, lon.=106.591270, Alt.=17.803482m. Speed=8.424000m/h.</desc>
<speed>2.340000</speed>
</trkpt>
<trkpt lat="21.059261" lon="106.591385">
<ele>17.182388</ele>
<time>2011-04-30T01:22:50Z</time>
<desc>lat.=21.059261, lon.=106.591385, Alt.=17.182388m. Speed=8.028000m/h.</desc>
<speed>2.230000</speed>
</trkpt>
<trkpt lat="21.059216" lon="106.591560">
<ele>16.530533</ele>
<time>2011-04-30T01:22:55Z</time>
<desc>lat.=21.059216, lon.=106.591560, Alt.=16.530533m. Speed=13.500000m/h.</desc>
<speed>3.750000</speed>
</trkpt>
<trkpt lat="21.059128" lon="106.591736">
<ele>16.938248</ele>
<time>2011-04-30T01:23:00Z</time>
<desc>lat.=21.059128, lon.=106.591736, Alt.=16.938248m. Speed=12.996000m/h.</desc>
<speed>3.610000</speed>
</trkpt>
<trkpt lat="21.059027" lon="106.591949">
<ele>15.834602</ele>
<time>2011-04-30T01:23:05Z</time>
<desc>lat.=21.059027, lon.=106.591949, Alt.=15.834602m. Speed=12.312000m/h.</desc>
<speed>3.420000</speed>
</trkpt>
<trkpt lat="21.058945" lon="106.592163">
<ele>17.078873</ele>
<time>2011-04-30T01:23:10Z</time>
<desc>lat.=21.058945, lon.=106.592163, Alt.=17.078873m. Speed=15.372000m/h.</desc>
<speed>4.270000</speed>
</trkpt>
<trkpt lat="21.058796" lon="106.592468">
<ele>18.355240</ele>
<time>2011-04-30T01:23:15Z</time>
<desc>lat.=21.058796, lon.=106.592468, Alt.=18.355240m. Speed=33.335999m/h.</desc>
<speed>9.260000</speed>
</trkpt>
<trkpt lat="21.058580" lon="106.592972">
<ele>22.052505</ele>
<time>2011-04-30T01:23:20Z</time>
<desc>lat.=21.058580, lon.=106.592972, Alt.=22.052505m. Speed=39.816002m/h.</desc>
<speed>11.060001</speed>
</trkpt>
<trkpt lat="21.058393" lon="106.593422">
<ele>27.637466</ele>
<time>2011-04-30T01:23:25Z</time>
<desc>lat.=21.058393, lon.=106.593422, Alt.=27.637466m. Speed=29.520000m/h.</desc>
<speed>8.200000</speed>
</trkpt>
<trkpt lat="21.058247" lon="106.593765">
<ele>31.828384</ele>
<time>2011-04-30T01:23:30Z</time>
<desc>lat.=21.058247, lon.=106.593765, Alt.=31.828384m. Speed=20.700001m/h.</desc>
<speed>5.750000</speed>
</trkpt>
<trkpt lat="21.058151" lon="106.594009">
<ele>35.802277</ele>
<time>2011-04-30T01:23:35Z</time>
<desc>lat.=21.058151, lon.=106.594009, Alt.=35.802277m. Speed=14.364000m/h.</desc>
<speed>3.990000</speed>
</trkpt>
<trkpt lat="21.058054" lon="106.594376">
<ele>39.124542</ele>
<time>2011-04-30T01:23:40Z</time>
<desc>lat.=21.058054, lon.=106.594376, Alt.=39.124542m. Speed=21.959999m/h.</desc>
<speed>6.100000</speed>
</trkpt>
<trkpt lat="21.057974" lon="106.594719">
<ele>35.684113</ele>
<time>2011-04-30T01:23:45Z</time>
<desc>lat.=21.057974, lon.=106.594719, Alt.=35.684113m. Speed=24.336000m/h.</desc>
<speed>6.760000</speed>
</trkpt>
<trkpt lat="21.057835" lon="106.595123">
<ele>35.777863</ele>
<time>2011-04-30T01:23:50Z</time>
<desc>lat.=21.057835, lon.=106.595123, Alt.=35.777863m. Speed=31.104000m/h.</desc>
<speed>8.640000</speed>
</trkpt>
<trkpt lat="21.057682" lon="106.595535">
<ele>35.413605</ele>
<time>2011-04-30T01:23:55Z</time>
<desc>lat.=21.057682, lon.=106.595535, Alt.=35.413605m. Speed=25.344000m/h.</desc>
<speed>7.040000</speed>
</trkpt>
<trkpt lat="21.057613" lon="106.595779">
<ele>32.934113</ele>
<time>2011-04-30T01:24:00Z</time>
<desc>lat.=21.057613, lon.=106.595779, Alt.=32.934113m. Speed=9.720000m/h.</desc>
<speed>2.700000</speed>
</trkpt>
<trkpt lat="21.057549" lon="106.595955">
<ele>31.231705</ele>
<time>2011-04-30T01:24:05Z</time>
<desc>lat.=21.057549, lon.=106.595955, Alt.=31.231705m. Speed=9.432000m/h.</desc>
<speed>2.620000</speed>
</trkpt>
<trkpt lat="21.057455" lon="106.596169">
<ele>29.239029</ele>
<time>2011-04-30T01:24:10Z</time>
<desc>lat.=21.057455, lon.=106.596169, Alt.=29.239029m. Speed=15.336000m/h.</desc>
<speed>4.260000</speed>
</trkpt>
<trkpt lat="21.057339" lon="106.596420">
<ele>29.649185</ele>
<time>2011-04-30T01:24:15Z</time>
<desc>lat.=21.057339, lon.=106.596420, Alt.=29.649185m. Speed=13.392000m/h.</desc>
<speed>3.720000</speed>
</trkpt>
<trkpt lat="21.057261" lon="106.596634">
<ele>33.342316</ele>
<time>2011-04-30T01:24:20Z</time>
<desc>lat.=21.057261, lon.=106.596634, Alt.=33.342316m. Speed=14.760000m/h.</desc>
<speed>4.100000</speed>
</trkpt>
<trkpt lat="21.057209" lon="106.596916">
<ele>30.858170</ele>
<time>2011-04-30T01:24:25Z</time>
<desc>lat.=21.057209, lon.=106.596916, Alt.=30.858170m. Speed=13.896000m/h.</desc>
<speed>3.860000</speed>
</trkpt>
<trkpt lat="21.057192" lon="106.597137">
<ele>27.886978</ele>
<time>2011-04-30T01:24:30Z</time>
<desc>lat.=21.057192, lon.=106.597137, Alt.=27.886978m. Speed=9.360000m/h.</desc>
<speed>2.600000</speed>
</trkpt>
<trkpt lat="21.057091" lon="106.597313">
<ele>27.597916</ele>
<time>2011-04-30T01:24:35Z</time>
<desc>lat.=21.057091, lon.=106.597313, Alt.=27.597916m. Speed=15.156000m/h.</desc>
<speed>4.210000</speed>
</trkpt>
<trkpt lat="21.057009" lon="106.597565">
<ele>31.212173</ele>
<time>2011-04-30T01:24:40Z</time>
<desc>lat.=21.057009, lon.=106.597565, Alt.=31.212173m. Speed=12.888000m/h.</desc>
<speed>3.580000</speed>
</trkpt>
<trkpt lat="21.056942" lon="106.597710">
<ele>35.735870</ele>
<time>2011-04-30T01:24:45Z</time>
<desc>lat.=21.056942, lon.=106.597710, Alt.=35.735870m. Speed=6.876000m/h.</desc>
<speed>1.910000</speed>
</trkpt>
<trkpt lat="21.056919" lon="106.597832">
<ele>37.151886</ele>
<time>2011-04-30T01:24:50Z</time>
<desc>lat.=21.056919, lon.=106.597832, Alt.=37.151886m. Speed=12.096000m/h.</desc>
<speed>3.360000</speed>
</trkpt>
<trkpt lat="21.056908" lon="106.597954">
<ele>39.466339</ele>
<time>2011-04-30T01:24:55Z</time>
<desc>lat.=21.056908, lon.=106.597954, Alt.=39.466339m. Speed=2.520000m/h.</desc>
<speed>0.700000</speed>
</trkpt>
<trkpt lat="21.056910" lon="106.597992">
<ele>39.114777</ele>
<time>2011-04-30T01:25:00Z</time>
<desc>lat.=21.056910, lon.=106.597992, Alt.=39.114777m. Speed=1.836000m/h.</desc>
<speed>0.510000</speed>
</trkpt>
<trkpt lat="21.056898" lon="106.598076">
<ele>41.032745</ele>
<time>2011-04-30T01:25:05Z</time>
<desc>lat.=21.056898, lon.=106.598076, Alt.=41.032745m. Speed=6.660000m/h.</desc>
<speed>1.850000</speed>
</trkpt>
<trkpt lat="21.056814" lon="106.598328">
<ele>41.019073</ele>
<time>2011-04-30T01:25:10Z</time>
<desc>lat.=21.056814, lon.=106.598328, Alt.=41.019073m. Speed=17.639999m/h.</desc>
<speed>4.900000</speed>
</trkpt>
<trkpt lat="21.056746" lon="106.598595">
<ele>40.386261</ele>
<time>2011-04-30T01:25:15Z</time>
<desc>lat.=21.056746, lon.=106.598595, Alt.=40.386261m. Speed=19.007999m/h.</desc>
<speed>5.280000</speed>
</trkpt>
<trkpt lat="21.056667" lon="106.598907">
<ele>41.223175</ele>
<time>2011-04-30T01:25:20Z</time>
<desc>lat.=21.056667, lon.=106.598907, Alt.=41.223175m. Speed=20.736000m/h.</desc>
<speed>5.760000</speed>
</trkpt>
<trkpt lat="21.056602" lon="106.599075">
<ele>41.683136</ele>
<time>2011-04-30T01:25:25Z</time>
<desc>lat.=21.056602, lon.=106.599075, Alt.=41.683136m. Speed=7.416000m/h.</desc>
<speed>2.060000</speed>
</trkpt>
<trkpt lat="21.056540" lon="106.599220">
<ele>43.261261</ele>
<time>2011-04-30T01:25:30Z</time>
<desc>lat.=21.056540, lon.=106.599220, Alt.=43.261261m. Speed=7.884000m/h.</desc>
<speed>2.190000</speed>
</trkpt>
<trkpt lat="21.056473" lon="106.599342">
<ele>44.098175</ele>
<time>2011-04-30T01:25:35Z</time>
<desc>lat.=21.056473, lon.=106.599342, Alt.=44.098175m. Speed=10.296000m/h.</desc>
<speed>2.860000</speed>
</trkpt>
<trkpt lat="21.056410" lon="106.599464">
<ele>43.755402</ele>
<time>2011-04-30T01:25:40Z</time>
<desc>lat.=21.056410, lon.=106.599464, Alt.=43.755402m. Speed=5.688000m/h.</desc>
<speed>1.580000</speed>
</trkpt>
<trkpt lat="21.056381" lon="106.599586">
<ele>37.826691</ele>
<time>2011-04-30T01:25:45Z</time>
<desc>lat.=21.056381, lon.=106.599586, Alt.=37.826691m. Speed=8.784000m/h.</desc>
<speed>2.440000</speed>
</trkpt>
<trkpt lat="21.056355" lon="106.599731">
<ele>33.746613</ele>
<time>2011-04-30T01:25:50Z</time>
<desc>lat.=21.056355, lon.=106.599731, Alt.=33.746613m. Speed=9.072000m/h.</desc>
<speed>2.520000</speed>
</trkpt>
<trkpt lat="21.056328" lon="106.599869">
<ele>31.914322</ele>
<time>2011-04-30T01:25:55Z</time>
<desc>lat.=21.056328, lon.=106.599869, Alt.=31.914322m. Speed=8.568000m/h.</desc>
<speed>2.380000</speed>
</trkpt>
<trkpt lat="21.056301" lon="106.600029">
<ele>29.359146</ele>
<time>2011-04-30T01:26:00Z</time>
<desc>lat.=21.056301, lon.=106.600029, Alt.=29.359146m. Speed=7.308000m/h.</desc>
<speed>2.030000</speed>
</trkpt>
<trkpt lat="21.056231" lon="106.600189">
<ele>28.402603</ele>
<time>2011-04-30T01:26:05Z</time>
<desc>lat.=21.056231, lon.=106.600189, Alt.=28.402603m. Speed=10.800000m/h.</desc>
<speed>3.000000</speed>
</trkpt>
<trkpt lat="21.056171" lon="106.600334">
<ele>27.559830</ele>
<time>2011-04-30T01:26:10Z</time>
<desc>lat.=21.056171, lon.=106.600334, Alt.=27.559830m. Speed=12.168000m/h.</desc>
<speed>3.380000</speed>
</trkpt>
<trkpt lat="21.056103" lon="106.600540">
<ele>30.799088</ele>
<time>2011-04-30T01:26:15Z</time>
<desc>lat.=21.056103, lon.=106.600540, Alt.=30.799088m. Speed=6.120000m/h.</desc>
<speed>1.700000</speed>
</trkpt>
<trkpt lat="21.056093" lon="106.600655">
<ele>31.515884</ele>
<time>2011-04-30T01:26:20Z</time>
<desc>lat.=21.056093, lon.=106.600655, Alt.=31.515884m. Speed=4.284000m/h.</desc>
<speed>1.190000</speed>
</trkpt>
<trkpt lat="21.056095" lon="106.600723">
<ele>29.712173</ele>
<time>2011-04-30T01:26:25Z</time>
<desc>lat.=21.056095, lon.=106.600723, Alt.=29.712173m. Speed=1.296000m/h.</desc>
<speed>0.360000</speed>
</trkpt>
<trkpt lat="21.056099" lon="106.600746">
<ele>30.761490</ele>
<time>2011-04-30T01:26:30Z</time>
<desc>lat.=21.056099, lon.=106.600746, Alt.=30.761490m. Speed=1.548000m/h.</desc>
<speed>0.430000</speed>
</trkpt>
<trkpt lat="21.056099" lon="106.600777">
<ele>31.749771</ele>
<time>2011-04-30T01:26:35Z</time>
<desc>lat.=21.056099, lon.=106.600777, Alt.=31.749771m. Speed=1.512000m/h.</desc>
<speed>0.420000</speed>
</trkpt>
<trkpt lat="21.056093" lon="106.600792">
<ele>32.669464</ele>
<time>2011-04-30T01:26:40Z</time>
<desc>lat.=21.056093, lon.=106.600792, Alt.=32.669464m. Speed=0.972000m/h.</desc>
<speed>0.270000</speed>
</trkpt>
<trkpt lat="21.056093" lon="106.600792">
<ele>33.270050</ele>
<time>2011-04-30T01:26:45Z</time>
<desc>lat.=21.056093, lon.=106.600792, Alt.=33.270050m. Speed=0.648000m/h.</desc>
<speed>0.180000</speed>
</trkpt>
<trkpt lat="21.056093" lon="106.600784">
<ele>33.494659</ele>
<time>2011-04-30T01:26:50Z</time>
<desc>lat.=21.056093, lon.=106.600784, Alt.=33.494659m. Speed=0.288000m/h.</desc>
<speed>0.080000</speed>
</trkpt>
<trkpt lat="21.056095" lon="106.600784">
<ele>33.451691</ele>
<time>2011-04-30T01:26:55Z</time>
<desc>lat.=21.056095, lon.=106.600784, Alt.=33.451691m. Speed=2.268000m/h.</desc>
<speed>0.630000</speed>
</trkpt>
<trkpt lat="21.056078" lon="106.600845">
<ele>33.267120</ele>
<time>2011-04-30T01:27:00Z</time>
<desc>lat.=21.056078, lon.=106.600845, Alt.=33.267120m. Speed=6.264000m/h.</desc>
<speed>1.740000</speed>
</trkpt>
<trkpt lat="21.055998" lon="106.601036">
<ele>33.830597</ele>
<time>2011-04-30T01:27:05Z</time>
<desc>lat.=21.055998, lon.=106.601036, Alt.=33.830597m. Speed=13.860000m/h.</desc>
<speed>3.850000</speed>
</trkpt>
<trkpt lat="21.055935" lon="106.601158">
<ele>35.057159</ele>
<time>2011-04-30T01:27:10Z</time>
<desc>lat.=21.055935, lon.=106.601158, Alt.=35.057159m. Speed=7.272000m/h.</desc>
<speed>2.020000</speed>
</trkpt>
<trkpt lat="21.055893" lon="106.601227">
<ele>36.658722</ele>
<time>2011-04-30T01:27:15Z</time>
<desc>lat.=21.055893, lon.=106.601227, Alt.=36.658722m. Speed=1.944000m/h.</desc>
<speed>0.540000</speed>
</trkpt>
<trkpt lat="21.055868" lon="106.601265">
<ele>37.889191</ele>
<time>2011-04-30T01:27:20Z</time>
<desc>lat.=21.055868, lon.=106.601265, Alt.=37.889191m. Speed=2.376000m/h.</desc>
<speed>0.660000</speed>
</trkpt>
<trkpt lat="21.055855" lon="106.601311">
<ele>39.275909</ele>
<time>2011-04-30T01:27:25Z</time>
<desc>lat.=21.055855, lon.=106.601311, Alt.=39.275909m. Speed=4.356000m/h.</desc>
<speed>1.210000</speed>
</trkpt>
<trkpt lat="21.055822" lon="106.601418">
<ele>39.933136</ele>
<time>2011-04-30T01:27:30Z</time>
<desc>lat.=21.055822, lon.=106.601418, Alt.=39.933136m. Speed=2.628000m/h.</desc>
<speed>0.730000</speed>
</trkpt>
<trkpt lat="21.055809" lon="106.601433">
<ele>40.065948</ele>
<time>2011-04-30T01:27:35Z</time>
<desc>lat.=21.055809, lon.=106.601433, Alt.=40.065948m. Speed=1.260000m/h.</desc>
<speed>0.350000</speed>
</trkpt>
<trkpt lat="21.055805" lon="106.601440">
<ele>39.999542</ele>
<time>2011-04-30T01:27:40Z</time>
<desc>lat.=21.055805, lon.=106.601440, Alt.=39.999542m. Speed=0.504000m/h.</desc>
<speed>0.140000</speed>
</trkpt>
<trkpt lat="21.055792" lon="106.601456">
<ele>40.084503</ele>
<time>2011-04-30T01:27:45Z</time>
<desc>lat.=21.055792, lon.=106.601456, Alt.=40.084503m. Speed=1.404000m/h.</desc>
<speed>0.390000</speed>
</trkpt>
<trkpt lat="21.055775" lon="106.601471">
<ele>39.460480</ele>
<time>2011-04-30T01:27:50Z</time>
<desc>lat.=21.055775, lon.=106.601471, Alt.=39.460480m. Speed=0.720000m/h.</desc>
<speed>0.200000</speed>
</trkpt>
<trkpt lat="21.055759" lon="106.601509">
<ele>39.433136</ele>
<time>2011-04-30T01:27:55Z</time>
<desc>lat.=21.055759, lon.=106.601509, Alt.=39.433136m. Speed=4.176000m/h.</desc>
<speed>1.160000</speed>
</trkpt>
<trkpt lat="21.055721" lon="106.601578">
<ele>38.635284</ele>
<time>2011-04-30T01:28:00Z</time>
<desc>lat.=21.055721, lon.=106.601578, Alt.=38.635284m. Speed=5.184000m/h.</desc>
<speed>1.440000</speed>
</trkpt>
<trkpt lat="21.055676" lon="106.601662">
<ele>37.014191</ele>
<time>2011-04-30T01:28:05Z</time>
<desc>lat.=21.055676, lon.=106.601662, Alt.=37.014191m. Speed=7.200000m/h.</desc>
<speed>2.000000</speed>
</trkpt>
<trkpt lat="21.055630" lon="106.601776">
<ele>35.216339</ele>
<time>2011-04-30T01:28:10Z</time>
<desc>lat.=21.055630, lon.=106.601776, Alt.=35.216339m. Speed=5.472000m/h.</desc>
<speed>1.520000</speed>
</trkpt>
<trkpt lat="21.055616" lon="106.601913">
<ele>33.681183</ele>
<time>2011-04-30T01:28:15Z</time>
<desc>lat.=21.055616, lon.=106.601913, Alt.=33.681183m. Speed=8.352000m/h.</desc>
<speed>2.320000</speed>
</trkpt>
<trkpt lat="21.055647" lon="106.602013">
<ele>32.155792</ele>
<time>2011-04-30T01:28:20Z</time>
<desc>lat.=21.055647, lon.=106.602013, Alt.=32.155792m. Speed=6.192000m/h.</desc>
<speed>1.720000</speed>
</trkpt>
<trkpt lat="21.055540" lon="106.602211">
<ele>32.657745</ele>
<time>2011-04-30T01:28:25Z</time>
<desc>lat.=21.055540, lon.=106.602211, Alt.=32.657745m. Speed=9.504000m/h.</desc>
<speed>2.640000</speed>
</trkpt>
<trkpt lat="21.055521" lon="106.602371">
<ele>32.500519</ele>
<time>2011-04-30T01:28:30Z</time>
<desc>lat.=21.055521, lon.=106.602371, Alt.=32.500519m. Speed=7.416000m/h.</desc>
<speed>2.060000</speed>
</trkpt>
<trkpt lat="21.055525" lon="106.602478">
<ele>31.113052</ele>
<time>2011-04-30T01:28:35Z</time>
<desc>lat.=21.055525, lon.=106.602478, Alt.=31.113052m. Speed=1.332000m/h.</desc>
<speed>0.370000</speed>
</trkpt>
<trkpt lat="21.055490" lon="106.602562">
<ele>27.818130</ele>
<time>2011-04-30T01:28:40Z</time>
<desc>lat.=21.055490, lon.=106.602562, Alt.=27.818130m. Speed=1.980000m/h.</desc>
<speed>0.550000</speed>
</trkpt>
<trkpt lat="21.055477" lon="106.602600">
<ele>26.150650</ele>
<time>2011-04-30T01:28:45Z</time>
<desc>lat.=21.055477, lon.=106.602600, Alt.=26.150650m. Speed=0.540000m/h.</desc>
<speed>0.150000</speed>
</trkpt>
<trkpt lat="21.055473" lon="106.602600">
<ele>25.479752</ele>
<time>2011-04-30T01:28:50Z</time>
<desc>lat.=21.055473, lon.=106.602600, Alt.=25.479752m. Speed=0.396000m/h.</desc>
<speed>0.110000</speed>
</trkpt>
<trkpt lat="21.055471" lon="106.602608">
<ele>25.488541</ele>
<time>2011-04-30T01:28:55Z</time>
<desc>lat.=21.055471, lon.=106.602608, Alt.=25.488541m. Speed=0.900000m/h.</desc>
<speed>0.250000</speed>
</trkpt>
<trkpt lat="21.055473" lon="106.602615">
<ele>25.483658</ele>
<time>2011-04-30T01:29:00Z</time>
<desc>lat.=21.055473, lon.=106.602615, Alt.=25.483658m. Speed=0.468000m/h.</desc>
<speed>0.130000</speed>
</trkpt>
<trkpt lat="21.055473" lon="106.602623">
<ele>25.448502</ele>
<time>2011-04-30T01:29:05Z</time>
<desc>lat.=21.055473, lon.=106.602623, Alt.=25.448502m. Speed=0.756000m/h.</desc>
<speed>0.210000</speed>
</trkpt>
<trkpt lat="21.055437" lon="106.602684">
<ele>24.865005</ele>
<time>2011-04-30T01:29:10Z</time>
<desc>lat.=21.055437, lon.=106.602684, Alt.=24.865005m. Speed=4.248000m/h.</desc>
<speed>1.180000</speed>
</trkpt>
<trkpt lat="21.055399" lon="106.602753">
<ele>24.380142</ele>
<time>2011-04-30T01:29:15Z</time>
<desc>lat.=21.055399, lon.=106.602753, Alt.=24.380142m. Speed=5.868000m/h.</desc>
<speed>1.630000</speed>
</trkpt>
<trkpt lat="21.055319" lon="106.602959">
<ele>23.856216</ele>
<time>2011-04-30T01:29:20Z</time>
<desc>lat.=21.055319, lon.=106.602959, Alt.=23.856216m. Speed=18.719999m/h.</desc>
<speed>5.200000</speed>
</trkpt>
<trkpt lat="21.055283" lon="106.603271">
<ele>23.907974</ele>
<time>2011-04-30T01:29:25Z</time>
<desc>lat.=21.055283, lon.=106.603271, Alt.=23.907974m. Speed=23.652000m/h.</desc>
<speed>6.570000</speed>
</trkpt>
<trkpt lat="21.055155" lon="106.603653">
<ele>24.373306</ele>
<time>2011-04-30T01:29:30Z</time>
<desc>lat.=21.055155, lon.=106.603653, Alt.=24.373306m. Speed=34.236000m/h.</desc>
<speed>9.510000</speed>
</trkpt>
<trkpt lat="21.054991" lon="106.604172">
<ele>23.554947</ele>
<time>2011-04-30T01:29:35Z</time>
<desc>lat.=21.054991, lon.=106.604172, Alt.=23.554947m. Speed=37.296001m/h.</desc>
<speed>10.360000</speed>
</trkpt>
<trkpt lat="21.054850" lon="106.604752">
<ele>18.184830</ele>
<time>2011-04-30T01:29:40Z</time>
<desc>lat.=21.054850, lon.=106.604752, Alt.=18.184830m. Speed=41.400002m/h.</desc>
<speed>11.500000</speed>
</trkpt>
<trkpt lat="21.054680" lon="106.605316">
<ele>14.553596</ele>
<time>2011-04-30T01:29:45Z</time>
<desc>lat.=21.054680, lon.=106.605316, Alt.=14.553596m. Speed=40.391998m/h.</desc>
<speed>11.220000</speed>
</trkpt>
<trkpt lat="21.054525" lon="106.605873">
<ele>9.552132</ele>
<time>2011-04-30T01:29:50Z</time>
<desc>lat.=21.054525, lon.=106.605873, Alt.=9.552132m. Speed=36.287998m/h.</desc>
<speed>10.079999</speed>
</trkpt>
<trkpt lat="21.054407" lon="106.606285">
<ele>3.763826</ele>
<time>2011-04-30T01:29:55Z</time>
<desc>lat.=21.054407, lon.=106.606285, Alt.=3.763826m. Speed=24.516001m/h.</desc>
<speed>6.810000</speed>
</trkpt>
<trkpt lat="21.054337" lon="106.606522">
<ele>-0.421131</ele>
<time>2011-04-30T01:30:00Z</time>
<desc>lat.=21.054337, lon.=106.606522, Alt.=-0.421131m. Speed=16.992001m/h.</desc>
<speed>4.720000</speed>
</trkpt>
<trkpt lat="21.054266" lon="106.606766">
<ele>-4.793888</ele>
<time>2011-04-30T01:30:05Z</time>
<desc>lat.=21.054266, lon.=106.606766, Alt.=-4.793888m. Speed=23.256001m/h.</desc>
<speed>6.460000</speed>
</trkpt>
<trkpt lat="21.054146" lon="106.607124">
<ele>-5.636906</ele>
<time>2011-04-30T01:30:10Z</time>
<desc>lat.=21.054146, lon.=106.607124, Alt.=-5.636906m. Speed=27.540001m/h.</desc>
<speed>7.650000</speed>
</trkpt>
<trkpt lat="21.054100" lon="106.607491">
<ele>-8.321175</ele>
<time>2011-04-30T01:30:15Z</time>
<desc>lat.=21.054100, lon.=106.607491, Alt.=-8.321175m. Speed=27.719999m/h.</desc>
<speed>7.700000</speed>
</trkpt>
<trkpt lat="21.054003" lon="106.607849">
<ele>-10.486946</ele>
<time>2011-04-30T01:30:20Z</time>
<desc>lat.=21.054003, lon.=106.607849, Alt.=-10.486946m. Speed=27.072001m/h.</desc>
<speed>7.520000</speed>
</trkpt>
<trkpt lat="21.053892" lon="106.608215">
<ele>-10.348518</ele>
<time>2011-04-30T01:30:25Z</time>
<desc>lat.=21.053892, lon.=106.608215, Alt.=-10.348518m. Speed=27.864000m/h.</desc>
<speed>7.740000</speed>
</trkpt>
<trkpt lat="21.053757" lon="106.608513">
<ele>-6.984806</ele>
<time>2011-04-30T01:30:30Z</time>
<desc>lat.=21.053757, lon.=106.608513, Alt.=-6.984806m. Speed=21.996000m/h.</desc>
<speed>6.110000</speed>
</trkpt>
<trkpt lat="21.053629" lon="106.608833">
<ele>3.560274</ele>
<time>2011-04-30T01:30:35Z</time>
<desc>lat.=21.053629, lon.=106.608833, Alt.=3.560274m. Speed=24.228001m/h.</desc>
<speed>6.730000</speed>
</trkpt>
<trkpt lat="21.053556" lon="106.609161">
<ele>12.472298</ele>
<time>2011-04-30T01:30:40Z</time>
<desc>lat.=21.053556, lon.=106.609161, Alt.=12.472298m. Speed=23.472000m/h.</desc>
<speed>6.520000</speed>
</trkpt>
<trkpt lat="21.053467" lon="106.609596">
<ele>18.195572</ele>
<time>2011-04-30T01:30:45Z</time>
<desc>lat.=21.053467, lon.=106.609596, Alt.=18.195572m. Speed=34.200001m/h.</desc>
<speed>9.500000</speed>
</trkpt>
<trkpt lat="21.053360" lon="106.610107">
<ele>21.557388</ele>
<time>2011-04-30T01:30:50Z</time>
<desc>lat.=21.053360, lon.=106.610107, Alt.=21.557388m. Speed=33.048000m/h.</desc>
<speed>9.180000</speed>
</trkpt>
<trkpt lat="21.053268" lon="106.610588">
<ele>22.029556</ele>
<time>2011-04-30T01:30:55Z</time>
<desc>lat.=21.053268, lon.=106.610588, Alt.=22.029556m. Speed=33.048000m/h.</desc>
<speed>9.180000</speed>
</trkpt>
<trkpt lat="21.053171" lon="106.611092">
<ele>21.084732</ele>
<time>2011-04-30T01:31:00Z</time>
<desc>lat.=21.053171, lon.=106.611092, Alt.=21.084732m. Speed=37.116001m/h.</desc>
<speed>10.310000</speed>
</trkpt>
<trkpt lat="21.053068" lon="106.611572">
<ele>22.254166</ele>
<time>2011-04-30T01:31:05Z</time>
<desc>lat.=21.053068, lon.=106.611572, Alt.=22.254166m. Speed=31.931999m/h.</desc>
<speed>8.870000</speed>
</trkpt>
<trkpt lat="21.053003" lon="106.612045">
<ele>22.036392</ele>
<time>2011-04-30T01:31:10Z</time>
<desc>lat.=21.053003, lon.=106.612045, Alt.=22.036392m. Speed=33.012001m/h.</desc>
<speed>9.170000</speed>
</trkpt>
<trkpt lat="21.052904" lon="106.612518">
<ele>20.639908</ele>
<time>2011-04-30T01:31:15Z</time>
<desc>lat.=21.052904, lon.=106.612518, Alt.=20.639908m. Speed=29.736000m/h.</desc>
<speed>8.260000</speed>
</trkpt>
<trkpt lat="21.052795" lon="106.612907">
<ele>20.880142</ele>
<time>2011-04-30T01:31:20Z</time>
<desc>lat.=21.052795, lon.=106.612907, Alt.=20.880142m. Speed=21.924000m/h.</desc>
<speed>6.090000</speed>
</trkpt>
<trkpt lat="21.052702" lon="106.613274">
<ele>20.202408</ele>
<time>2011-04-30T01:31:25Z</time>
<desc>lat.=21.052702, lon.=106.613274, Alt.=20.202408m. Speed=25.020000m/h.</desc>
<speed>6.950000</speed>
</trkpt>
<trkpt lat="21.052599" lon="106.613617">
<ele>21.006119</ele>
<time>2011-04-30T01:31:30Z</time>
<desc>lat.=21.052599, lon.=106.613617, Alt.=21.006119m. Speed=21.600000m/h.</desc>
<speed>6.000000</speed>
</trkpt>
<trkpt lat="21.052498" lon="106.613998">
<ele>19.572525</ele>
<time>2011-04-30T01:31:35Z</time>
<desc>lat.=21.052498, lon.=106.613998, Alt.=19.572525m. Speed=26.459999m/h.</desc>
<speed>7.350000</speed>
</trkpt>
<trkpt lat="21.052387" lon="106.614349">
<ele>15.973763</ele>
<time>2011-04-30T01:31:40Z</time>
<desc>lat.=21.052387, lon.=106.614349, Alt.=15.973763m. Speed=16.091999m/h.</desc>
<speed>4.470000</speed>
</trkpt>
<trkpt lat="21.052351" lon="106.614540">
<ele>12.056770</ele>
<time>2011-04-30T01:31:45Z</time>
<desc>lat.=21.052351, lon.=106.614540, Alt.=12.056770m. Speed=18.684000m/h.</desc>
<speed>5.190000</speed>
</trkpt>
<trkpt lat="21.052258" lon="106.614891">
<ele>9.139534</ele>
<time>2011-04-30T01:31:50Z</time>
<desc>lat.=21.052258, lon.=106.614891, Alt.=9.139534m. Speed=28.476000m/h.</desc>
<speed>7.910000</speed>
</trkpt>
<trkpt lat="21.052147" lon="106.615402">
<ele>7.354679</ele>
<time>2011-04-30T01:31:55Z</time>
<desc>lat.=21.052147, lon.=106.615402, Alt.=7.354679m. Speed=41.040001m/h.</desc>
<speed>11.400000</speed>
</trkpt>
<trkpt lat="21.052023" lon="106.615990">
<ele>4.861149</ele>
<time>2011-04-30T01:32:00Z</time>
<desc>lat.=21.052023, lon.=106.615990, Alt.=4.861149m. Speed=46.403999m/h.</desc>
<speed>12.890000</speed>
</trkpt>
<trkpt lat="21.051859" lon="106.616623">
<ele>2.303560</ele>
<time>2011-04-30T01:32:05Z</time>
<desc>lat.=21.051859, lon.=106.616623, Alt.=2.303560m. Speed=52.776001m/h.</desc>
<speed>14.660000</speed>
</trkpt>
<trkpt lat="21.051714" lon="106.617287">
<ele>-1.448258</ele>
<time>2011-04-30T01:32:10Z</time>
<desc>lat.=21.051714, lon.=106.617287, Alt.=-1.448258m. Speed=46.403999m/h.</desc>
<speed>12.890000</speed>
</trkpt>
<trkpt lat="21.051611" lon="106.617760">
<ele>-4.929752</ele>
<time>2011-04-30T01:32:15Z</time>
<desc>lat.=21.051611, lon.=106.617760, Alt.=-4.929752m. Speed=26.820000m/h.</desc>
<speed>7.450000</speed>
</trkpt>
<trkpt lat="21.051563" lon="106.618050">
<ele>-7.162296</ele>
<time>2011-04-30T01:32:20Z</time>
<desc>lat.=21.051563, lon.=106.618050, Alt.=-7.162296m. Speed=25.559999m/h.</desc>
<speed>7.100000</speed>
</trkpt>
<trkpt lat="21.051590" lon="106.618454">
<ele>0.491894</ele>
<time>2011-04-30T01:32:25Z</time>
<desc>lat.=21.051590, lon.=106.618454, Alt.=0.491894m. Speed=34.200001m/h.</desc>
<speed>9.500000</speed>
</trkpt>
<trkpt lat="21.051615" lon="106.618973">
<ele>2.217196</ele>
<time>2011-04-30T01:32:30Z</time>
<desc>lat.=21.051615, lon.=106.618973, Alt.=2.217196m. Speed=40.608002m/h.</desc>
<speed>11.280000</speed>
</trkpt>
<trkpt lat="21.051662" lon="106.619560">
<ele>0.494679</ele>
<time>2011-04-30T01:32:35Z</time>
<desc>lat.=21.051662, lon.=106.619560, Alt.=0.494679m. Speed=37.980000m/h.</desc>
<speed>10.550000</speed>
</trkpt>
<trkpt lat="21.051674" lon="106.620071">
<ele>1.217546</ele>
<time>2011-04-30T01:32:40Z</time>
<desc>lat.=21.051674, lon.=106.620071, Alt.=1.217546m. Speed=38.556000m/h.</desc>
<speed>10.710000</speed>
</trkpt>
<trkpt lat="21.051706" lon="106.620605">
<ele>-0.563179</ele>
<time>2011-04-30T01:32:45Z</time>
<desc>lat.=21.051706, lon.=106.620605, Alt.=-0.563179m. Speed=37.116001m/h.</desc>
<speed>10.310000</speed>
</trkpt>
<trkpt lat="21.051743" lon="106.621063">
<ele>0.362972</ele>
<time>2011-04-30T01:32:50Z</time>
<desc>lat.=21.051743, lon.=106.621063, Alt.=0.362972m. Speed=24.587999m/h.</desc>
<speed>6.830000</speed>
</trkpt>
<trkpt lat="21.051741" lon="106.621216">
<ele>3.362459</ele>
<time>2011-04-30T01:32:55Z</time>
<desc>lat.=21.051741, lon.=106.621216, Alt.=3.362459m. Speed=2.376000m/h.</desc>
<speed>0.660000</speed>
</trkpt>
<trkpt lat="21.051727" lon="106.621231">
<ele>5.195499</ele>
<time>2011-04-30T01:33:00Z</time>
<desc>lat.=21.051727, lon.=106.621231, Alt.=5.195499m. Speed=1.224000m/h.</desc>
<speed>0.340000</speed>
</trkpt>
<trkpt lat="21.051731" lon="106.621246">
<ele>5.263493</ele>
<time>2011-04-30T01:33:05Z</time>
<desc>lat.=21.051731, lon.=106.621246, Alt.=5.263493m. Speed=0.828000m/h.</desc>
<speed>0.230000</speed>
</trkpt>
<trkpt lat="21.051733" lon="106.621246">
<ele>5.288883</ele>
<time>2011-04-30T01:33:10Z</time>
<desc>lat.=21.051733, lon.=106.621246, Alt.=5.288883m. Speed=0.720000m/h.</desc>
<speed>0.200000</speed>
</trkpt>
<trkpt lat="21.051737" lon="106.621246">
<ele>5.344547</ele>
<time>2011-04-30T01:33:15Z</time>
<desc>lat.=21.051737, lon.=106.621246, Alt.=5.344547m. Speed=0.216000m/h.</desc>
<speed>0.060000</speed>
</trkpt>
<trkpt lat="21.051743" lon="106.621254">
<ele>5.374821</ele>
<time>2011-04-30T01:33:20Z</time>
<desc>lat.=21.051743, lon.=106.621254, Alt.=5.374821m. Speed=1.008000m/h.</desc>
<speed>0.280000</speed>
</trkpt>
<trkpt lat="21.051746" lon="106.621254">
<ele>5.420719</ele>
<time>2011-04-30T01:33:25Z</time>
<desc>lat.=21.051746, lon.=106.621254, Alt.=5.420719m. Speed=1.080000m/h.</desc>
<speed>0.300000</speed>
</trkpt>
<trkpt lat="21.051758" lon="106.621307">
<ele>5.881290</ele>
<time>2011-04-30T01:33:30Z</time>
<desc>lat.=21.051758, lon.=106.621307, Alt.=5.881290m. Speed=7.740000m/h.</desc>
<speed>2.150000</speed>
</trkpt>
<trkpt lat="21.051775" lon="106.621445">
<ele>6.179264</ele>
<time>2011-04-30T01:33:35Z</time>
<desc>lat.=21.051775, lon.=106.621445, Alt.=6.179264m. Speed=11.772000m/h.</desc>
<speed>3.270000</speed>
</trkpt>
<trkpt lat="21.051798" lon="106.621681">
<ele>7.860050</ele>
<time>2011-04-30T01:33:40Z</time>
<desc>lat.=21.051798, lon.=106.621681, Alt.=7.860050m. Speed=23.112000m/h.</desc>
<speed>6.420000</speed>
</trkpt>
<trkpt lat="21.051844" lon="106.622070">
<ele>12.140755</ele>
<time>2011-04-30T01:33:45Z</time>
<desc>lat.=21.051844, lon.=106.622070, Alt.=12.140755m. Speed=28.152000m/h.</desc>
<speed>7.820000</speed>
</trkpt>
<trkpt lat="21.051897" lon="106.622620">
<ele>14.916145</ele>
<time>2011-04-30T01:33:50Z</time>
<desc>lat.=21.051897, lon.=106.622620, Alt.=14.916145m. Speed=39.852001m/h.</desc>
<speed>11.070000</speed>
</trkpt>
<trkpt lat="21.051964" lon="106.623207">
<ele>11.397102</ele>
<time>2011-04-30T01:33:55Z</time>
<desc>lat.=21.051964, lon.=106.623207, Alt.=11.397102m. Speed=43.956001m/h.</desc>
<speed>12.210000</speed>
</trkpt>
<trkpt lat="21.052031" lon="106.623840">
<ele>9.396126</ele>
<time>2011-04-30T01:34:00Z</time>
<desc>lat.=21.052031, lon.=106.623840, Alt.=9.396126m. Speed=49.571999m/h.</desc>
<speed>13.770000</speed>
</trkpt>
<trkpt lat="21.052105" lon="106.624527">
<ele>6.939152</ele>
<time>2011-04-30T01:34:05Z</time>
<desc>lat.=21.052105, lon.=106.624527, Alt.=6.939152m. Speed=48.672001m/h.</desc>
<speed>13.520000</speed>
</trkpt>
<trkpt lat="21.052172" lon="106.625168">
<ele>6.522038</ele>
<time>2011-04-30T01:34:10Z</time>
<desc>lat.=21.052172, lon.=106.625168, Alt.=6.522038m. Speed=46.619999m/h.</desc>
<speed>12.950000</speed>
</trkpt>
<trkpt lat="21.052267" lon="106.625801">
<ele>5.833805</ele>
<time>2011-04-30T01:34:15Z</time>
<desc>lat.=21.052267, lon.=106.625801, Alt.=5.833805m. Speed=45.576000m/h.</desc>
<speed>12.660000</speed>
</trkpt>
<trkpt lat="21.052351" lon="106.626381">
<ele>7.132999</ele>
<time>2011-04-30T01:34:20Z</time>
<desc>lat.=21.052351, lon.=106.626381, Alt.=7.132999m. Speed=43.380001m/h.</desc>
<speed>12.050000</speed>
</trkpt>
<trkpt lat="21.052439" lon="106.626984">
<ele>8.610970</ele>
<time>2011-04-30T01:34:25Z</time>
<desc>lat.=21.052439, lon.=106.626984, Alt.=8.610970m. Speed=47.195999m/h.</desc>
<speed>13.110000</speed>
</trkpt>
<trkpt lat="21.052546" lon="106.627632">
<ele>8.656380</ele>
<time>2011-04-30T01:34:30Z</time>
<desc>lat.=21.052546, lon.=106.627632, Alt.=8.656380m. Speed=49.680000m/h.</desc>
<speed>13.800000</speed>
</trkpt>
<trkpt lat="21.052628" lon="106.628281">
<ele>9.105598</ele>
<time>2011-04-30T01:34:35Z</time>
<desc>lat.=21.052628, lon.=106.628281, Alt.=9.105598m. Speed=42.731998m/h.</desc>
<speed>11.870000</speed>
</trkpt>
<trkpt lat="21.052671" lon="106.628777">
<ele>10.048470</ele>
<time>2011-04-30T01:34:40Z</time>
<desc>lat.=21.052671, lon.=106.628777, Alt.=10.048470m. Speed=32.652000m/h.</desc>
<speed>9.070000</speed>
</trkpt>
<trkpt lat="21.052698" lon="106.629219">
<ele>11.467659</ele>
<time>2011-04-30T01:34:45Z</time>
<desc>lat.=21.052698, lon.=106.629219, Alt.=11.467659m. Speed=33.192001m/h.</desc>
<speed>9.220000</speed>
</trkpt>
<trkpt lat="21.052744" lon="106.629684">
<ele>8.448128</ele>
<time>2011-04-30T01:34:50Z</time>
<desc>lat.=21.052744, lon.=106.629684, Alt.=8.448128m. Speed=35.964001m/h.</desc>
<speed>9.990000</speed>
</trkpt>
<trkpt lat="21.052784" lon="106.630180">
<ele>7.765324</ele>
<time>2011-04-30T01:34:55Z</time>
<desc>lat.=21.052784, lon.=106.630180, Alt.=7.765324m. Speed=35.928001m/h.</desc>
<speed>9.980000</speed>
</trkpt>
<trkpt lat="21.052820" lon="106.630585">
<ele>4.857487</ele>
<time>2011-04-30T01:35:00Z</time>
<desc>lat.=21.052820, lon.=106.630585, Alt.=4.857487m. Speed=26.136000m/h.</desc>
<speed>7.260000</speed>
</trkpt>
<trkpt lat="21.052868" lon="106.630905">
<ele>1.293717</ele>
<time>2011-04-30T01:35:05Z</time>
<desc>lat.=21.052868, lon.=106.630905, Alt.=1.293717m. Speed=17.856001m/h.</desc>
<speed>4.960000</speed>
</trkpt>
<trkpt lat="21.052914" lon="106.631157">
<ele>-0.858696</ele>
<time>2011-04-30T01:35:10Z</time>
<desc>lat.=21.052914, lon.=106.631157, Alt.=-0.858696m. Speed=22.139999m/h.</desc>
<speed>6.150000</speed>
</trkpt>
<trkpt lat="21.052956" lon="106.631546">
<ele>-3.201021</ele>
<time>2011-04-30T01:35:15Z</time>
<desc>lat.=21.052956, lon.=106.631546, Alt.=-3.201021m. Speed=32.004002m/h.</desc>
<speed>8.890000</speed>
</trkpt>
<trkpt lat="21.053011" lon="106.632027">
<ele>-3.867159</ele>
<time>2011-04-30T01:35:20Z</time>
<desc>lat.=21.053011, lon.=106.632027, Alt.=-3.867159m. Speed=36.576000m/h.</desc>
<speed>10.160000</speed>
</trkpt>
<trkpt lat="21.053064" lon="106.632591">
<ele>-4.515079</ele>
<time>2011-04-30T01:35:25Z</time>
<desc>lat.=21.053064, lon.=106.632591, Alt.=-4.515079m. Speed=40.535999m/h.</desc>
<speed>11.260000</speed>
</trkpt>
<trkpt lat="21.053110" lon="106.633217">
<ele>-8.051888</ele>
<time>2011-04-30T01:35:30Z</time>
<desc>lat.=21.053110, lon.=106.633217, Alt.=-8.051888m. Speed=41.832001m/h.</desc>
<speed>11.620000</speed>
</trkpt>
<trkpt lat="21.053150" lon="106.633812">
<ele>-9.066048</ele>
<time>2011-04-30T01:35:35Z</time>
<desc>lat.=21.053150, lon.=106.633812, Alt.=-9.066048m. Speed=40.787998m/h.</desc>
<speed>11.329999</speed>
</trkpt>
<trkpt lat="21.053177" lon="106.634407">
<ele>-10.613411</ele>
<time>2011-04-30T01:35:40Z</time>
<desc>lat.=21.053177, lon.=106.634407, Alt.=-10.613411m. Speed=44.568001m/h.</desc>
<speed>12.380000</speed>
</trkpt>
<trkpt lat="21.053278" lon="106.634972">
<ele>-10.922249</ele>
<time>2011-04-30T01:35:45Z</time>
<desc>lat.=21.053278, lon.=106.634972, Alt.=-10.922249m. Speed=37.548000m/h.</desc>
<speed>10.430000</speed>
</trkpt>
<trkpt lat="21.053358" lon="106.635551">
<ele>-11.118782</ele>
<time>2011-04-30T01:35:50Z</time>
<desc>lat.=21.053358, lon.=106.635551, Alt.=-11.118782m. Speed=40.896000m/h.</desc>
<speed>11.360000</speed>
</trkpt>
<trkpt lat="21.053440" lon="106.636162">
<ele>-9.026741</ele>
<time>2011-04-30T01:35:55Z</time>
<desc>lat.=21.053440, lon.=106.636162, Alt.=-9.026741m. Speed=42.408001m/h.</desc>
<speed>11.780000</speed>
</trkpt>
<trkpt lat="21.053499" lon="106.636703">
<ele>-10.377815</ele>
<time>2011-04-30T01:36:00Z</time>
<desc>lat.=21.053499, lon.=106.636703, Alt.=-10.377815m. Speed=37.043999m/h.</desc>
<speed>10.290000</speed>
</trkpt>
<trkpt lat="21.053583" lon="106.637184">
<ele>-10.132698</ele>
<time>2011-04-30T01:36:05Z</time>
<desc>lat.=21.053583, lon.=106.637184, Alt.=-10.132698m. Speed=36.000000m/h.</desc>
<speed>10.000000</speed>
</trkpt>
<trkpt lat="21.053654" lon="106.637695">
<ele>-3.704256</ele>
<time>2011-04-30T01:36:10Z</time>
<desc>lat.=21.053654, lon.=106.637695, Alt.=-3.704256m. Speed=34.667999m/h.</desc>
<speed>9.630000</speed>
</trkpt>
<trkpt lat="21.053745" lon="106.638206">
<ele>-3.580172</ele>
<time>2011-04-30T01:36:15Z</time>
<desc>lat.=21.053745, lon.=106.638206, Alt.=-3.580172m. Speed=38.520000m/h.</desc>
<speed>10.700000</speed>
</trkpt>
<trkpt lat="21.053820" lon="106.638725">
<ele>-2.350863</ele>
<time>2011-04-30T01:36:20Z</time>
<desc>lat.=21.053820, lon.=106.638725, Alt.=-2.350863m. Speed=37.944000m/h.</desc>
<speed>10.540000</speed>
</trkpt>
<trkpt lat="21.053911" lon="106.639221">
<ele>-1.947007</ele>
<time>2011-04-30T01:36:25Z</time>
<desc>lat.=21.053911, lon.=106.639221, Alt.=-1.947007m. Speed=31.572001m/h.</desc>
<speed>8.770000</speed>
</trkpt>
<trkpt lat="21.053989" lon="106.639656">
<ele>-2.501680</ele>
<time>2011-04-30T01:36:30Z</time>
<desc>lat.=21.053989, lon.=106.639656, Alt.=-2.501680m. Speed=34.344002m/h.</desc>
<speed>9.540000</speed>
</trkpt>
<trkpt lat="21.054090" lon="106.640144">
<ele>0.841912</ele>
<time>2011-04-30T01:36:35Z</time>
<desc>lat.=21.054090, lon.=106.640144, Alt.=0.841912m. Speed=33.984001m/h.</desc>
<speed>9.440000</speed>
</trkpt>
<trkpt lat="21.054174" lon="106.640579">
<ele>4.220646</ele>
<time>2011-04-30T01:36:40Z</time>
<desc>lat.=21.054174, lon.=106.640579, Alt.=4.220646m. Speed=34.164001m/h.</desc>
<speed>9.490000</speed>
</trkpt>
<trkpt lat="21.054243" lon="106.641075">
<ele>5.161442</ele>
<time>2011-04-30T01:36:45Z</time>
<desc>lat.=21.054243, lon.=106.641075, Alt.=5.161442m. Speed=34.776001m/h.</desc>
<speed>9.660000</speed>
</trkpt>
<trkpt lat="21.054304" lon="106.641571">
<ele>13.748909</ele>
<time>2011-04-30T01:36:50Z</time>
<desc>lat.=21.054304, lon.=106.641571, Alt.=13.748909m. Speed=35.352001m/h.</desc>
<speed>9.820000</speed>
</trkpt>
<trkpt lat="21.054296" lon="106.642052">
<ele>15.599251</ele>
<time>2011-04-30T01:36:55Z</time>
<desc>lat.=21.054296, lon.=106.642052, Alt.=15.599251m. Speed=34.740002m/h.</desc>
<speed>9.650000</speed>
</trkpt>
<trkpt lat="21.054192" lon="106.642525">
<ele>15.565315</ele>
<time>2011-04-30T01:37:00Z</time>
<desc>lat.=21.054192, lon.=106.642525, Alt.=15.565315m. Speed=34.632000m/h.</desc>
<speed>9.620000</speed>
</trkpt>
<trkpt lat="21.054098" lon="106.642990">
<ele>14.307991</ele>
<time>2011-04-30T01:37:05Z</time>
<desc>lat.=21.054098, lon.=106.642990, Alt.=14.307991m. Speed=30.455999m/h.</desc>
<speed>8.460000</speed>
</trkpt>
<trkpt lat="21.054007" lon="106.643494">
<ele>14.082161</ele>
<time>2011-04-30T01:37:10Z</time>
<desc>lat.=21.054007, lon.=106.643494, Alt.=14.082161m. Speed=35.855999m/h.</desc>
<speed>9.960000</speed>
</trkpt>
<trkpt lat="21.053947" lon="106.643951">
<ele>12.535042</ele>
<time>2011-04-30T01:37:15Z</time>
<desc>lat.=21.053947, lon.=106.643951, Alt.=12.535042m. Speed=32.256001m/h.</desc>
<speed>8.960000</speed>
</trkpt>
<trkpt lat="21.053848" lon="106.644447">
<ele>10.870979</ele>
<time>2011-04-30T01:37:20Z</time>
<desc>lat.=21.053848, lon.=106.644447, Alt.=10.870979m. Speed=38.411999m/h.</desc>
<speed>10.670000</speed>
</trkpt>
<trkpt lat="21.053761" lon="106.644989">
<ele>10.850471</ele>
<time>2011-04-30T01:37:25Z</time>
<desc>lat.=21.053761, lon.=106.644989, Alt.=10.850471m. Speed=40.248001m/h.</desc>
<speed>11.180000</speed>
</trkpt>
<trkpt lat="21.053598" lon="106.645622">
<ele>10.110237</ele>
<time>2011-04-30T01:37:30Z</time>
<desc>lat.=21.053598, lon.=106.645622, Alt.=10.110237m. Speed=50.759998m/h.</desc>
<speed>14.100000</speed>
</trkpt>
<trkpt lat="21.053457" lon="106.646301">
<ele>9.560677</ele>
<time>2011-04-30T01:37:35Z</time>
<desc>lat.=21.053457, lon.=106.646301, Alt.=9.560677m. Speed=51.624001m/h.</desc>
<speed>14.340000</speed>
</trkpt>
<trkpt lat="21.053301" lon="106.647057">
<ele>9.285042</ele>
<time>2011-04-30T01:37:40Z</time>
<desc>lat.=21.053301, lon.=106.647057, Alt.=9.285042m. Speed=57.167999m/h.</desc>
<speed>15.880000</speed>
</trkpt>
<trkpt lat="21.053146" lon="106.647858">
<ele>9.505257</ele>
<time>2011-04-30T01:37:45Z</time>
<desc>lat.=21.053146, lon.=106.647858, Alt.=9.505257m. Speed=59.939999m/h.</desc>
<speed>16.650000</speed>
</trkpt>
<trkpt lat="21.052992" lon="106.648651">
<ele>8.982063</ele>
<time>2011-04-30T01:37:50Z</time>
<desc>lat.=21.052992, lon.=106.648651, Alt.=8.982063m. Speed=56.556000m/h.</desc>
<speed>15.710000</speed>
</trkpt>
<trkpt lat="21.052835" lon="106.649330">
<ele>8.374886</ele>
<time>2011-04-30T01:37:55Z</time>
<desc>lat.=21.052835, lon.=106.649330, Alt.=8.374886m. Speed=48.959999m/h.</desc>
<speed>13.600000</speed>
</trkpt>
<trkpt lat="21.052717" lon="106.649971">
<ele>7.617496</ele>
<time>2011-04-30T01:38:00Z</time>
<desc>lat.=21.052717, lon.=106.649971, Alt.=7.617496m. Speed=48.096001m/h.</desc>
<speed>13.360000</speed>
</trkpt>
<trkpt lat="21.052656" lon="106.650681">
<ele>6.116398</ele>
<time>2011-04-30T01:38:05Z</time>
<desc>lat.=21.052656, lon.=106.650681, Alt.=6.116398m. Speed=51.192001m/h.</desc>
<speed>14.220000</speed>
</trkpt>
<trkpt lat="21.052551" lon="106.651382">
<ele>4.895695</ele>
<time>2011-04-30T01:38:10Z</time>
<desc>lat.=21.052551, lon.=106.651382, Alt.=4.895695m. Speed=50.004002m/h.</desc>
<speed>13.890000</speed>
</trkpt>
<trkpt lat="21.052481" lon="106.652046">
<ele>3.585787</ele>
<time>2011-04-30T01:38:15Z</time>
<desc>lat.=21.052481, lon.=106.652046, Alt.=3.585787m. Speed=51.480000m/h.</desc>
<speed>14.300000</speed>
</trkpt>
<trkpt lat="21.052406" lon="106.652794">
<ele>1.566361</ele>
<time>2011-04-30T01:38:20Z</time>
<desc>lat.=21.052406, lon.=106.652794, Alt.=1.566361m. Speed=56.411999m/h.</desc>
<speed>15.670000</speed>
</trkpt>
<trkpt lat="21.052265" lon="106.653610">
<ele>-1.399583</ele>
<time>2011-04-30T01:38:25Z</time>
<desc>lat.=21.052265, lon.=106.653610, Alt.=-1.399583m. Speed=60.911999m/h.</desc>
<speed>16.920000</speed>
</trkpt>
<trkpt lat="21.052162" lon="106.654396">
<ele>-2.904634</ele>
<time>2011-04-30T01:38:30Z</time>
<desc>lat.=21.052162, lon.=106.654396, Alt.=-2.904634m. Speed=53.136002m/h.</desc>
<speed>14.760000</speed>
</trkpt>
<trkpt lat="21.052086" lon="106.655121">
<ele>-5.254704</ele>
<time>2011-04-30T01:38:35Z</time>
<desc>lat.=21.052086, lon.=106.655121, Alt.=-5.254704m. Speed=56.231998m/h.</desc>
<speed>15.620000</speed>
</trkpt>
<trkpt lat="21.052013" lon="106.655899">
<ele>-6.074894</ele>
<time>2011-04-30T01:38:40Z</time>
<desc>lat.=21.052013, lon.=106.655899, Alt.=-6.074894m. Speed=58.608002m/h.</desc>
<speed>16.280000</speed>
</trkpt>
<trkpt lat="21.052052" lon="106.656708">
<ele>-6.026920</ele>
<time>2011-04-30T01:38:45Z</time>
<desc>lat.=21.052052, lon.=106.656708, Alt.=-6.026920m. Speed=58.139999m/h.</desc>
<speed>16.150000</speed>
</trkpt>
<trkpt lat="21.052099" lon="106.657387">
<ele>-7.370426</ele>
<time>2011-04-30T01:38:50Z</time>
<desc>lat.=21.052099, lon.=106.657387, Alt.=-7.370426m. Speed=47.484001m/h.</desc>
<speed>13.190000</speed>
</trkpt>
<trkpt lat="21.052147" lon="106.657951">
<ele>-7.174503</ele>
<time>2011-04-30T01:38:55Z</time>
<desc>lat.=21.052147, lon.=106.657951, Alt.=-7.174503m. Speed=37.548000m/h.</desc>
<speed>10.430000</speed>
</trkpt>
<trkpt lat="21.052212" lon="106.658516">
<ele>-5.800358</ele>
<time>2011-04-30T01:39:00Z</time>
<desc>lat.=21.052212, lon.=106.658516, Alt.=-5.800358m. Speed=44.639999m/h.</desc>
<speed>12.400000</speed>
</trkpt>
<trkpt lat="21.052250" lon="106.659058">
<ele>-0.145464</ele>
<time>2011-04-30T01:39:05Z</time>
<desc>lat.=21.052250, lon.=106.659058, Alt.=-0.145464m. Speed=33.551998m/h.</desc>
<speed>9.319999</speed>
</trkpt>
<trkpt lat="21.052250" lon="106.659485">
<ele>9.733040</ele>
<time>2011-04-30T01:39:10Z</time>
<desc>lat.=21.052250, lon.=106.659485, Alt.=9.733040m. Speed=31.823999m/h.</desc>
<speed>8.840000</speed>
</trkpt>
<trkpt lat="21.052248" lon="106.659981">
<ele>12.952766</ele>
<time>2011-04-30T01:39:15Z</time>
<desc>lat.=21.052248, lon.=106.659981, Alt.=12.952766m. Speed=38.591999m/h.</desc>
<speed>10.720000</speed>
</trkpt>
<trkpt lat="21.052240" lon="106.660561">
<ele>15.053841</ele>
<time>2011-04-30T01:39:20Z</time>
<desc>lat.=21.052240, lon.=106.660561, Alt.=15.053841m. Speed=46.980000m/h.</desc>
<speed>13.050000</speed>
</trkpt>
<trkpt lat="21.052193" lon="106.661263">
<ele>19.021255</ele>
<time>2011-04-30T01:39:25Z</time>
<desc>lat.=21.052193, lon.=106.661263, Alt.=19.021255m. Speed=54.647999m/h.</desc>
<speed>15.180000</speed>
</trkpt>
<trkpt lat="21.052160" lon="106.662033">
<ele>15.863899</ele>
<time>2011-04-30T01:39:30Z</time>
<desc>lat.=21.052160, lon.=106.662033, Alt.=15.863899m. Speed=56.051998m/h.</desc>
<speed>15.569999</speed>
</trkpt>
<trkpt lat="21.052107" lon="106.662743">
<ele>14.063850</ele>
<time>2011-04-30T01:39:35Z</time>
<desc>lat.=21.052107, lon.=106.662743, Alt.=14.063850m. Speed=54.936001m/h.</desc>
<speed>15.260000</speed>
</trkpt>
<trkpt lat="21.052059" lon="106.663521">
<ele>12.053596</ele>
<time>2011-04-30T01:39:40Z</time>
<desc>lat.=21.052059, lon.=106.663521, Alt.=12.053596m. Speed=57.959999m/h.</desc>
<speed>16.100000</speed>
</trkpt>
<trkpt lat="21.051985" lon="106.664299">
<ele>11.093636</ele>
<time>2011-04-30T01:39:45Z</time>
<desc>lat.=21.051985, lon.=106.664299, Alt.=11.093636m. Speed=54.180000m/h.</desc>
<speed>15.050000</speed>
</trkpt>
<trkpt lat="21.051928" lon="106.665001">
<ele>9.366341</ele>
<time>2011-04-30T01:39:50Z</time>
<desc>lat.=21.051928, lon.=106.665001, Alt.=9.366341m. Speed=47.591999m/h.</desc>
<speed>13.220000</speed>
</trkpt>
<trkpt lat="21.051867" lon="106.665672">
<ele>7.603947</ele>
<time>2011-04-30T01:39:55Z</time>
<desc>lat.=21.051867, lon.=106.665672, Alt.=7.603947m. Speed=51.840000m/h.</desc>
<speed>14.400000</speed>
</trkpt>
<trkpt lat="21.051825" lon="106.666374">
<ele>4.857487</ele>
<time>2011-04-30T01:40:00Z</time>
<desc>lat.=21.051825, lon.=106.666374, Alt.=4.857487m. Speed=50.147999m/h.</desc>
<speed>13.930000</speed>
</trkpt>
<trkpt lat="21.051762" lon="106.667076">
<ele>0.410855</ele>
<time>2011-04-30T01:40:05Z</time>
<desc>lat.=21.051762, lon.=106.667076, Alt.=0.410855m. Speed=53.712002m/h.</desc>
<speed>14.920001</speed>
</trkpt>
<trkpt lat="21.051708" lon="106.667793">
<ele>-2.551241</ele>
<time>2011-04-30T01:40:10Z</time>
<desc>lat.=21.051708, lon.=106.667793, Alt.=-2.551241m. Speed=52.020000m/h.</desc>
<speed>14.450000</speed>
</trkpt>
<trkpt lat="21.051662" lon="106.668472">
<ele>-6.603336</ele>
<time>2011-04-30T01:40:15Z</time>
<desc>lat.=21.051662, lon.=106.668472, Alt.=-6.603336m. Speed=51.480000m/h.</desc>
<speed>14.300000</speed>
</trkpt>
<trkpt lat="21.051615" lon="106.669151">
<ele>-5.376408</ele>
<time>2011-04-30T01:40:20Z</time>
<desc>lat.=21.051615, lon.=106.669151, Alt.=-5.376408m. Speed=51.444000m/h.</desc>
<speed>14.290000</speed>
</trkpt>
<trkpt lat="21.051567" lon="106.669830">
<ele>-3.224886</ele>
<time>2011-04-30T01:40:25Z</time>
<desc>lat.=21.051567, lon.=106.669830, Alt.=-3.224886m. Speed=49.535999m/h.</desc>
<speed>13.760000</speed>
</trkpt>
<trkpt lat="21.051519" lon="106.670486">
<ele>-5.088078</ele>
<time>2011-04-30T01:40:30Z</time>
<desc>lat.=21.051519, lon.=106.670486, Alt.=-5.088078m. Speed=50.040001m/h.</desc>
<speed>13.900000</speed>
</trkpt>
<trkpt lat="21.051458" lon="106.671188">
<ele>-7.548771</ele>
<time>2011-04-30T01:40:35Z</time>
<desc>lat.=21.051458, lon.=106.671188, Alt.=-7.548771m. Speed=54.251999m/h.</desc>
<speed>15.070000</speed>
</trkpt>
<trkpt lat="21.051401" lon="106.671913">
<ele>-10.024788</ele>
<time>2011-04-30T01:40:40Z</time>
<desc>lat.=21.051401, lon.=106.671913, Alt.=-10.024788m. Speed=49.175999m/h.</desc>
<speed>13.660000</speed>
</trkpt>
<trkpt lat="21.051325" lon="106.672508">
<ele>-11.048958</ele>
<time>2011-04-30T01:40:45Z</time>
<desc>lat.=21.051325, lon.=106.672508, Alt.=-11.048958m. Speed=46.080002m/h.</desc>
<speed>12.800001</speed>
</trkpt>
<trkpt lat="21.051191" lon="106.673119">
<ele>-11.383919</ele>
<time>2011-04-30T01:40:50Z</time>
<desc>lat.=21.051191, lon.=106.673119, Alt.=-11.383919m. Speed=45.431999m/h.</desc>
<speed>12.620000</speed>
</trkpt>
<trkpt lat="21.050928" lon="106.673714">
<ele>-11.804085</ele>
<time>2011-04-30T01:40:55Z</time>
<desc>lat.=21.050928, lon.=106.673714, Alt.=-11.804085m. Speed=47.700001m/h.</desc>
<speed>13.250000</speed>
</trkpt>
<trkpt lat="21.050629" lon="106.674294">
<ele>-12.396370</ele>
<time>2011-04-30T01:41:00Z</time>
<desc>lat.=21.050629, lon.=106.674294, Alt.=-12.396370m. Speed=46.259998m/h.</desc>
<speed>12.850000</speed>
</trkpt>
<trkpt lat="21.050304" lon="106.674873">
<ele>-13.030891</ele>
<time>2011-04-30T01:41:05Z</time>
<desc>lat.=21.050304, lon.=106.674873, Alt.=-13.030891m. Speed=47.916000m/h.</desc>
<speed>13.310000</speed>
</trkpt>
<trkpt lat="21.050007" lon="106.675392">
<ele>-13.082405</ele>
<time>2011-04-30T01:41:10Z</time>
<desc>lat.=21.050007, lon.=106.675392, Alt.=-13.082405m. Speed=43.236000m/h.</desc>
<speed>12.010000</speed>
</trkpt>
<trkpt lat="21.049726" lon="106.675888">
<ele>-10.995735</ele>
<time>2011-04-30T01:41:15Z</time>
<desc>lat.=21.049726, lon.=106.675888, Alt.=-10.995735m. Speed=42.192001m/h.</desc>
<speed>11.720000</speed>
</trkpt>
<trkpt lat="21.049459" lon="106.676338">
<ele>-9.814583</ele>
<time>2011-04-30T01:41:20Z</time>
<desc>lat.=21.049459, lon.=106.676338, Alt.=-9.814583m. Speed=35.964001m/h.</desc>
<speed>9.990000</speed>
</trkpt>
<trkpt lat="21.049267" lon="106.676712">
<ele>-5.269840</ele>
<time>2011-04-30T01:41:25Z</time>
<desc>lat.=21.049267, lon.=106.676712, Alt.=-5.269840m. Speed=30.059999m/h.</desc>
<speed>8.350000</speed>
</trkpt>
<trkpt lat="21.049063" lon="106.677086">
<ele>-3.799044</ele>
<time>2011-04-30T01:41:30Z</time>
<desc>lat.=21.049063, lon.=106.677086, Alt.=-3.799044m. Speed=34.164001m/h.</desc>
<speed>9.490000</speed>
</trkpt>
<trkpt lat="21.048849" lon="106.677444">
<ele>-1.889237</ele>
<time>2011-04-30T01:41:35Z</time>
<desc>lat.=21.048849, lon.=106.677444, Alt.=-1.889237m. Speed=30.204000m/h.</desc>
<speed>8.390000</speed>
</trkpt>
<trkpt lat="21.048664" lon="106.677773">
<ele>0.871071</ele>
<time>2011-04-30T01:41:40Z</time>
<desc>lat.=21.048664, lon.=106.677773, Alt.=0.871071m. Speed=34.812000m/h.</desc>
<speed>9.670000</speed>
</trkpt>
<trkpt lat="21.048481" lon="106.678207">
<ele>2.175997</ele>
<time>2011-04-30T01:41:45Z</time>
<desc>lat.=21.048481, lon.=106.678207, Alt.=2.175997m. Speed=36.000000m/h.</desc>
<speed>10.000000</speed>
</trkpt>
<trkpt lat="21.048307" lon="106.678680">
<ele>2.796785</ele>
<time>2011-04-30T01:41:50Z</time>
<desc>lat.=21.048307, lon.=106.678680, Alt.=2.796785m. Speed=36.720001m/h.</desc>
<speed>10.200000</speed>
</trkpt>
<trkpt lat="21.048178" lon="106.679222">
<ele>2.967989</ele>
<time>2011-04-30T01:41:55Z</time>
<desc>lat.=21.048178, lon.=106.679222, Alt.=2.967989m. Speed=41.436001m/h.</desc>
<speed>11.510000</speed>
</trkpt>
<trkpt lat="21.048080" lon="106.679810">
<ele>2.517855</ele>
<time>2011-04-30T01:42:00Z</time>
<desc>lat.=21.048080, lon.=106.679810, Alt.=2.517855m. Speed=43.307999m/h.</desc>
<speed>12.030000</speed>
</trkpt>
<trkpt lat="21.048008" lon="106.680481">
<ele>2.643648</ele>
<time>2011-04-30T01:42:05Z</time>
<desc>lat.=21.048008, lon.=106.680481, Alt.=2.643648m. Speed=51.408001m/h.</desc>
<speed>14.280000</speed>
</trkpt>
<trkpt lat="21.047901" lon="106.681160">
<ele>1.508378</ele>
<time>2011-04-30T01:42:10Z</time>
<desc>lat.=21.047901, lon.=106.681160, Alt.=1.508378m. Speed=48.383999m/h.</desc>
<speed>13.440000</speed>
</trkpt>
<trkpt lat="21.047798" lon="106.681793">
<ele>1.610551</ele>
<time>2011-04-30T01:42:15Z</time>
<desc>lat.=21.047798, lon.=106.681793, Alt.=1.610551m. Speed=48.636002m/h.</desc>
<speed>13.510000</speed>
</trkpt>
<trkpt lat="21.047712" lon="106.682419">
<ele>1.331101</ele>
<time>2011-04-30T01:42:20Z</time>
<desc>lat.=21.047712, lon.=106.682419, Alt.=1.331101m. Speed=44.855999m/h.</desc>
<speed>12.460000</speed>
</trkpt>
<trkpt lat="21.047640" lon="106.682930">
<ele>0.947289</ele>
<time>2011-04-30T01:42:25Z</time>
<desc>lat.=21.047640, lon.=106.682930, Alt.=0.947289m. Speed=37.439999m/h.</desc>
<speed>10.400000</speed>
</trkpt>
<trkpt lat="21.047567" lon="106.683395">
<ele>0.877846</ele>
<time>2011-04-30T01:42:30Z</time>
<desc>lat.=21.047567, lon.=106.683395, Alt.=0.877846m. Speed=33.804001m/h.</desc>
<speed>9.390000</speed>
</trkpt>
<trkpt lat="21.047485" lon="106.683876">
<ele>0.036821</ele>
<time>2011-04-30T01:42:35Z</time>
<desc>lat.=21.047485, lon.=106.683876, Alt.=0.036821m. Speed=39.023998m/h.</desc>
<speed>10.840000</speed>
</trkpt>
<trkpt lat="21.047403" lon="106.684387">
<ele>-0.601235</ele>
<time>2011-04-30T01:42:40Z</time>
<desc>lat.=21.047403, lon.=106.684387, Alt.=-0.601235m. Speed=38.124001m/h.</desc>
<speed>10.590000</speed>
</trkpt>
<trkpt lat="21.047350" lon="106.684738">
<ele>-0.823205</ele>
<time>2011-04-30T01:42:45Z</time>
<desc>lat.=21.047350, lon.=106.684738, Alt.=-0.823205m. Speed=21.924000m/h.</desc>
<speed>6.090000</speed>
</trkpt>
<trkpt lat="21.047319" lon="106.685066">
<ele>-0.610421</ele>
<time>2011-04-30T01:42:50Z</time>
<desc>lat.=21.047319, lon.=106.685066, Alt.=-0.610421m. Speed=24.912001m/h.</desc>
<speed>6.920000</speed>
</trkpt>
<trkpt lat="21.047256" lon="106.685501">
<ele>-2.922091</ele>
<time>2011-04-30T01:42:55Z</time>
<desc>lat.=21.047256, lon.=106.685501, Alt.=-2.922091m. Speed=34.956001m/h.</desc>
<speed>9.710000</speed>
</trkpt>
<trkpt lat="21.047173" lon="106.686035">
<ele>-2.820528</ele>
<time>2011-04-30T01:43:00Z</time>
<desc>lat.=21.047173, lon.=106.686035, Alt.=-2.820528m. Speed=41.543999m/h.</desc>
<speed>11.540000</speed>
</trkpt>
<trkpt lat="21.047100" lon="106.686607">
<ele>-3.192537</ele>
<time>2011-04-30T01:43:05Z</time>
<desc>lat.=21.047100, lon.=106.686607, Alt.=-3.192537m. Speed=40.500000m/h.</desc>
<speed>11.250000</speed>
</trkpt>
<trkpt lat="21.047014" lon="106.687149">
<ele>-3.272860</ele>
<time>2011-04-30T01:43:10Z</time>
<desc>lat.=21.047014, lon.=106.687149, Alt.=-3.272860m. Speed=40.032001m/h.</desc>
<speed>11.120000</speed>
</trkpt>
<trkpt lat="21.046968" lon="106.687622">
<ele>-5.037785</ele>
<time>2011-04-30T01:43:15Z</time>
<desc>lat.=21.046968, lon.=106.687622, Alt.=-5.037785m. Speed=32.868000m/h.</desc>
<speed>9.130000</speed>
</trkpt>
<trkpt lat="21.046886" lon="106.688110">
<ele>-7.274235</ele>
<time>2011-04-30T01:43:20Z</time>
<desc>lat.=21.046886, lon.=106.688110, Alt.=-7.274235m. Speed=40.248001m/h.</desc>
<speed>11.180000</speed>
</trkpt>
<trkpt lat="21.046804" lon="106.688652">
<ele>-9.280891</ele>
<time>2011-04-30T01:43:25Z</time>
<desc>lat.=21.046804, lon.=106.688652, Alt.=-9.280891m. Speed=43.452000m/h.</desc>
<speed>12.070000</speed>
</trkpt>
<trkpt lat="21.046747" lon="106.689278">
<ele>-7.721622</ele>
<time>2011-04-30T01:43:30Z</time>
<desc>lat.=21.046747, lon.=106.689278, Alt.=-7.721622m. Speed=47.880001m/h.</desc>
<speed>13.300000</speed>
</trkpt>
<trkpt lat="21.046648" lon="106.689964">
<ele>-7.368473</ele>
<time>2011-04-30T01:43:35Z</time>
<desc>lat.=21.046648, lon.=106.689964, Alt.=-7.368473m. Speed=48.599998m/h.</desc>
<speed>13.500000</speed>
</trkpt>
<trkpt lat="21.046551" lon="106.690590">
<ele>-6.728458</ele>
<time>2011-04-30T01:43:40Z</time>
<desc>lat.=21.046551, lon.=106.690590, Alt.=-6.728458m. Speed=48.132000m/h.</desc>
<speed>13.370000</speed>
</trkpt>
<trkpt lat="21.046459" lon="106.691277">
<ele>-7.486027</ele>
<time>2011-04-30T01:43:45Z</time>
<desc>lat.=21.046459, lon.=106.691277, Alt.=-7.486027m. Speed=51.335999m/h.</desc>
<speed>14.260000</speed>
</trkpt>
<trkpt lat="21.046370" lon="106.691971">
<ele>-9.021370</ele>
<time>2011-04-30T01:43:50Z</time>
<desc>lat.=21.046370, lon.=106.691971, Alt.=-9.021370m. Speed=52.487999m/h.</desc>
<speed>14.580000</speed>
</trkpt>
<trkpt lat="21.046288" lon="106.692673">
<ele>-6.893497</ele>
<time>2011-04-30T01:43:55Z</time>
<desc>lat.=21.046288, lon.=106.692673, Alt.=-6.893497m. Speed=53.928001m/h.</desc>
<speed>14.980000</speed>
</trkpt>
<trkpt lat="21.046181" lon="106.693367">
<ele>-6.590031</ele>
<time>2011-04-30T01:44:00Z</time>
<desc>lat.=21.046181, lon.=106.693367, Alt.=-6.590031m. Speed=49.680000m/h.</desc>
<speed>13.800000</speed>
</trkpt>
<trkpt lat="21.046062" lon="106.694016">
<ele>-5.775578</ele>
<time>2011-04-30T01:44:05Z</time>
<desc>lat.=21.046062, lon.=106.694016, Alt.=-5.775578m. Speed=49.680000m/h.</desc>
<speed>13.800000</speed>
</trkpt>
<trkpt lat="21.045963" lon="106.694710">
<ele>-7.681095</ele>
<time>2011-04-30T01:44:10Z</time>
<desc>lat.=21.045963, lon.=106.694710, Alt.=-7.681095m. Speed=50.616001m/h.</desc>
<speed>14.060000</speed>
</trkpt>
<trkpt lat="21.045876" lon="106.695313">
<ele>-9.909065</ele>
<time>2011-04-30T01:44:15Z</time>
<desc>lat.=21.045876, lon.=106.695313, Alt.=-9.909065m. Speed=43.632000m/h.</desc>
<speed>12.120000</speed>
</trkpt>
<trkpt lat="21.045792" lon="106.695885">
<ele>-10.917854</ele>
<time>2011-04-30T01:44:20Z</time>
<desc>lat.=21.045792, lon.=106.695885, Alt.=-10.917854m. Speed=41.507999m/h.</desc>
<speed>11.530000</speed>
</trkpt>
<trkpt lat="21.045706" lon="106.696442">
<ele>-9.934456</ele>
<time>2011-04-30T01:44:25Z</time>
<desc>lat.=21.045706, lon.=106.696442, Alt.=-9.934456m. Speed=40.824001m/h.</desc>
<speed>11.340000</speed>
</trkpt>
<trkpt lat="21.045612" lon="106.697067">
<ele>-8.314095</ele>
<time>2011-04-30T01:44:30Z</time>
<desc>lat.=21.045612, lon.=106.697067, Alt.=-8.314095m. Speed=49.104000m/h.</desc>
<speed>13.640000</speed>
</trkpt>
<trkpt lat="21.045509" lon="106.697800">
<ele>-8.584846</ele>
<time>2011-04-30T01:44:35Z</time>
<desc>lat.=21.045509, lon.=106.697800, Alt.=-8.584846m. Speed=58.571999m/h.</desc>
<speed>16.270000</speed>
</trkpt>
<trkpt lat="21.045370" lon="106.698608">
<ele>-7.157291</ele>
<time>2011-04-30T01:44:40Z</time>
<desc>lat.=21.045370, lon.=106.698608, Alt.=-7.157291m. Speed=61.452000m/h.</desc>
<speed>17.070000</speed>
</trkpt>
<trkpt lat="21.045301" lon="106.699455">
<ele>-7.291203</ele>
<time>2011-04-30T01:44:45Z</time>
<desc>lat.=21.045301, lon.=106.699455, Alt.=-7.291203m. Speed=64.835999m/h.</desc>
<speed>18.010000</speed>
</trkpt>
<trkpt lat="21.045181" lon="106.700249">
<ele>-6.843815</ele>
<time>2011-04-30T01:44:50Z</time>
<desc>lat.=21.045181, lon.=106.700249, Alt.=-6.843815m. Speed=56.304001m/h.</desc>
<speed>15.640000</speed>
</trkpt>
<trkpt lat="21.045059" lon="106.701050">
<ele>-5.211979</ele>
<time>2011-04-30T01:44:55Z</time>
<desc>lat.=21.045059, lon.=106.701050, Alt.=-5.211979m. Speed=60.948002m/h.</desc>
<speed>16.930001</speed>
</trkpt>
<trkpt lat="21.044960" lon="106.701920">
<ele>-5.143375</ele>
<time>2011-04-30T01:45:00Z</time>
<desc>lat.=21.044960, lon.=106.701920, Alt.=-5.143375m. Speed=70.704002m/h.</desc>
<speed>19.640001</speed>
</trkpt>
<trkpt lat="21.044825" lon="106.702736">
<ele>-5.150455</ele>
<time>2011-04-30T01:45:05Z</time>
<desc>lat.=21.044825, lon.=106.702736, Alt.=-5.150455m. Speed=51.804001m/h.</desc>
<speed>14.390000</speed>
</trkpt>
<trkpt lat="21.044727" lon="106.703407">
<ele>-4.075260</ele>
<time>2011-04-30T01:45:10Z</time>
<desc>lat.=21.044727, lon.=106.703407, Alt.=-4.075260m. Speed=52.956001m/h.</desc>
<speed>14.710000</speed>
</trkpt>
<trkpt lat="21.044651" lon="106.704071">
<ele>-2.413301</ele>
<time>2011-04-30T01:45:15Z</time>
<desc>lat.=21.044651, lon.=106.704071, Alt.=-2.413301m. Speed=48.096001m/h.</desc>
<speed>13.360000</speed>
</trkpt>
<trkpt lat="21.044558" lon="106.704788">
<ele>-2.612398</ele>
<time>2011-04-30T01:45:20Z</time>
<desc>lat.=21.044558, lon.=106.704788, Alt.=-2.612398m. Speed=58.860001m/h.</desc>
<speed>16.350000</speed>
</trkpt>
<trkpt lat="21.044434" lon="106.705650">
<ele>-3.044527</ele>
<time>2011-04-30T01:45:25Z</time>
<desc>lat.=21.044434, lon.=106.705650, Alt.=-3.044527m. Speed=67.968002m/h.</desc>
<speed>18.880001</speed>
</trkpt>
<trkpt lat="21.044224" lon="106.706627">
<ele>-3.251253</ele>
<time>2011-04-30T01:45:30Z</time>
<desc>lat.=21.044224, lon.=106.706627, Alt.=-3.251253m. Speed=75.311996m/h.</desc>
<speed>20.919999</speed>
</trkpt>
<trkpt lat="21.043957" lon="106.707642">
<ele>-5.248966</ele>
<time>2011-04-30T01:45:35Z</time>
<desc>lat.=21.043957, lon.=106.707642, Alt.=-5.248966m. Speed=79.559998m/h.</desc>
<speed>22.099999</speed>
</trkpt>
<trkpt lat="21.043701" lon="106.708649">
<ele>-6.966373</ele>
<time>2011-04-30T01:45:40Z</time>
<desc>lat.=21.043701, lon.=106.708649, Alt.=-6.966373m. Speed=73.835999m/h.</desc>
<speed>20.510000</speed>
</trkpt>
<trkpt lat="21.043411" lon="106.709602">
<ele>-8.183479</ele>
<time>2011-04-30T01:45:45Z</time>
<desc>lat.=21.043411, lon.=106.709602, Alt.=-8.183479m. Speed=70.019997m/h.</desc>
<speed>19.449999</speed>
</trkpt>
<trkpt lat="21.043219" lon="106.710388">
<ele>-6.090885</ele>
<time>2011-04-30T01:45:50Z</time>
<desc>lat.=21.043219, lon.=106.710388, Alt.=-6.090885m. Speed=49.464001m/h.</desc>
<speed>13.740000</speed>
</trkpt>
<trkpt lat="21.043083" lon="106.710861">
<ele>-5.158390</ele>
<time>2011-04-30T01:45:55Z</time>
<desc>lat.=21.043083, lon.=106.710861, Alt.=-5.158390m. Speed=32.652000m/h.</desc>
<speed>9.070000</speed>
</trkpt>
<trkpt lat="21.042955" lon="106.711372">
<ele>-4.677799</ele>
<time>2011-04-30T01:46:00Z</time>
<desc>lat.=21.042955, lon.=106.711372, Alt.=-4.677799m. Speed=41.616001m/h.</desc>
<speed>11.560000</speed>
</trkpt>
<trkpt lat="21.042831" lon="106.711945">
<ele>-4.351627</ele>
<time>2011-04-30T01:46:05Z</time>
<desc>lat.=21.042831, lon.=106.711945, Alt.=-4.351627m. Speed=45.900002m/h.</desc>
<speed>12.750000</speed>
</trkpt>
<trkpt lat="21.042673" lon="106.712616">
<ele>-3.494051</ele>
<time>2011-04-30T01:46:10Z</time>
<desc>lat.=21.042673, lon.=106.712616, Alt.=-3.494051m. Speed=51.264000m/h.</desc>
<speed>14.240000</speed>
</trkpt>
<trkpt lat="21.042557" lon="106.713219">
<ele>-4.063053</ele>
<time>2011-04-30T01:46:15Z</time>
<desc>lat.=21.042557, lon.=106.713219, Alt.=-4.063053m. Speed=36.792000m/h.</desc>
<speed>10.220000</speed>
</trkpt>
<trkpt lat="21.042484" lon="106.713547">
<ele>-3.805513</ele>
<time>2011-04-30T01:46:20Z</time>
<desc>lat.=21.042484, lon.=106.713547, Alt.=-3.805513m. Speed=13.032000m/h.</desc>
<speed>3.620000</speed>
</trkpt>
<trkpt lat="21.042452" lon="106.713699">
<ele>-5.310978</ele>
<time>2011-04-30T01:46:25Z</time>
<desc>lat.=21.042452, lon.=106.713699, Alt.=-5.310978m. Speed=13.320000m/h.</desc>
<speed>3.700000</speed>
</trkpt>
<trkpt lat="21.042360" lon="106.714035">
<ele>-6.846867</ele>
<time>2011-04-30T01:46:30Z</time>
<desc>lat.=21.042360, lon.=106.714035, Alt.=-6.846867m. Speed=25.704000m/h.</desc>
<speed>7.140000</speed>
</trkpt>
<trkpt lat="21.042263" lon="106.714478">
<ele>-7.978092</ele>
<time>2011-04-30T01:46:35Z</time>
<desc>lat.=21.042263, lon.=106.714478, Alt.=-7.978092m. Speed=37.944000m/h.</desc>
<speed>10.540000</speed>
</trkpt>
<trkpt lat="21.042166" lon="106.715050">
<ele>-8.915657</ele>
<time>2011-04-30T01:46:40Z</time>
<desc>lat.=21.042166, lon.=106.715050, Alt.=-8.915657m. Speed=43.992001m/h.</desc>
<speed>12.220000</speed>
</trkpt>
<trkpt lat="21.042049" lon="106.715729">
<ele>-9.483772</ele>
<time>2011-04-30T01:46:45Z</time>
<desc>lat.=21.042049, lon.=106.715729, Alt.=-9.483772m. Speed=52.344002m/h.</desc>
<speed>14.540000</speed>
</trkpt>
<trkpt lat="21.041920" lon="106.716461">
<ele>-11.359993</ele>
<time>2011-04-30T01:46:50Z</time>
<desc>lat.=21.041920, lon.=106.716461, Alt.=-11.359993m. Speed=53.604000m/h.</desc>
<speed>14.890000</speed>
</trkpt>
<trkpt lat="21.041809" lon="106.717148">
<ele>-12.997932</ele>
<time>2011-04-30T01:46:55Z</time>
<desc>lat.=21.041809, lon.=106.717148, Alt.=-12.997932m. Speed=50.759998m/h.</desc>
<speed>14.100000</speed>
</trkpt>
<trkpt lat="21.041698" lon="106.717728">
<ele>-13.749886</ele>
<time>2011-04-30T01:47:00Z</time>
<desc>lat.=21.041698, lon.=106.717728, Alt.=-13.749886m. Speed=39.924000m/h.</desc>
<speed>11.090000</speed>
</trkpt>
<trkpt lat="21.041609" lon="106.718201">
<ele>-13.961311</ele>
<time>2011-04-30T01:47:05Z</time>
<desc>lat.=21.041609, lon.=106.718201, Alt.=-13.961311m. Speed=35.568001m/h.</desc>
<speed>9.880000</speed>
</trkpt>
<trkpt lat="21.041485" lon="106.718750">
<ele>-14.100716</ele>
<time>2011-04-30T01:47:10Z</time>
<desc>lat.=21.041485, lon.=106.718750, Alt.=-14.100716m. Speed=42.911999m/h.</desc>
<speed>11.920000</speed>
</trkpt>
<trkpt lat="21.041370" lon="106.719414">
<ele>-15.073616</ele>
<time>2011-04-30T01:47:15Z</time>
<desc>lat.=21.041370, lon.=106.719414, Alt.=-15.073616m. Speed=54.251999m/h.</desc>
<speed>15.070000</speed>
</trkpt>
<trkpt lat="21.041267" lon="106.720146">
<ele>-15.476448</ele>
<time>2011-04-30T01:47:20Z</time>
<desc>lat.=21.041267, lon.=106.720146, Alt.=-15.476448m. Speed=52.883999m/h.</desc>
<speed>14.690000</speed>
</trkpt>
<trkpt lat="21.041124" lon="106.720749">
<ele>-15.737923</ele>
<time>2011-04-30T01:47:25Z</time>
<desc>lat.=21.041124, lon.=106.720749, Alt.=-15.737923m. Speed=41.543999m/h.</desc>
<speed>11.540000</speed>
</trkpt>
<trkpt lat="21.041004" lon="106.721245">
<ele>-16.229263</ele>
<time>2011-04-30T01:47:30Z</time>
<desc>lat.=21.041004, lon.=106.721245, Alt.=-16.229263m. Speed=32.652000m/h.</desc>
<speed>9.070000</speed>
</trkpt>
<trkpt lat="21.040882" lon="106.721687">
<ele>-15.327034</ele>
<time>2011-04-30T01:47:35Z</time>
<desc>lat.=21.040882, lon.=106.721687, Alt.=-15.327034m. Speed=34.344002m/h.</desc>
<speed>9.540000</speed>
</trkpt>
<trkpt lat="21.040817" lon="106.722137">
<ele>-14.697884</ele>
<time>2011-04-30T01:47:40Z</time>
<desc>lat.=21.040817, lon.=106.722137, Alt.=-14.697884m. Speed=36.000000m/h.</desc>
<speed>10.000000</speed>
</trkpt>
<trkpt lat="21.040695" lon="106.722702">
<ele>-15.016975</ele>
<time>2011-04-30T01:47:45Z</time>
<desc>lat.=21.040695, lon.=106.722702, Alt.=-15.016975m. Speed=44.675999m/h.</desc>
<speed>12.410000</speed>
</trkpt>
<trkpt lat="21.040525" lon="106.723320">
<ele>-15.394417</ele>
<time>2011-04-30T01:47:50Z</time>
<desc>lat.=21.040525, lon.=106.723320, Alt.=-15.394417m. Speed=46.368000m/h.</desc>
<speed>12.880000</speed>
</trkpt>
<trkpt lat="21.040382" lon="106.723923">
<ele>-15.632698</ele>
<time>2011-04-30T01:47:55Z</time>
<desc>lat.=21.040382, lon.=106.723923, Alt.=-15.632698m. Speed=47.304001m/h.</desc>
<speed>13.140000</speed>
</trkpt>
<trkpt lat="21.040215" lon="106.724548">
<ele>-17.052505</ele>
<time>2011-04-30T01:48:00Z</time>
<desc>lat.=21.040215, lon.=106.724548, Alt.=-17.052505m. Speed=41.976002m/h.</desc>
<speed>11.660000</speed>
</trkpt>
<trkpt lat="21.040077" lon="106.725060">
<ele>-17.316666</ele>
<time>2011-04-30T01:48:05Z</time>
<desc>lat.=21.040077, lon.=106.725060, Alt.=-17.316666m. Speed=35.675999m/h.</desc>
<speed>9.910000</speed>
</trkpt>
<trkpt lat="21.039938" lon="106.725555">
<ele>-16.860611</ele>
<time>2011-04-30T01:48:10Z</time>
<desc>lat.=21.039938, lon.=106.725555, Alt.=-16.860611m. Speed=39.779999m/h.</desc>
<speed>11.050000</speed>
</trkpt>
<trkpt lat="21.039825" lon="106.726013">
<ele>-15.811653</ele>
<time>2011-04-30T01:48:15Z</time>
<desc>lat.=21.039825, lon.=106.726013, Alt.=-15.811653m. Speed=31.356001m/h.</desc>
<speed>8.710000</speed>
</trkpt>
<trkpt lat="21.039724" lon="106.726425">
<ele>-15.502815</ele>
<time>2011-04-30T01:48:20Z</time>
<desc>lat.=21.039724, lon.=106.726425, Alt.=-15.502815m. Speed=29.160000m/h.</desc>
<speed>8.100000</speed>
</trkpt>
<trkpt lat="21.039612" lon="106.726814">
<ele>-14.678596</ele>
<time>2011-04-30T01:48:25Z</time>
<desc>lat.=21.039612, lon.=106.726814, Alt.=-14.678596m. Speed=28.799999m/h.</desc>
<speed>8.000000</speed>
</trkpt>
<trkpt lat="21.039486" lon="106.727325">
<ele>-13.565559</ele>
<time>2011-04-30T01:48:30Z</time>
<desc>lat.=21.039486, lon.=106.727325, Alt.=-13.565559m. Speed=37.188000m/h.</desc>
<speed>10.330000</speed>
</trkpt>
<trkpt lat="21.039358" lon="106.727791">
<ele>-12.593391</ele>
<time>2011-04-30T01:48:35Z</time>
<desc>lat.=21.039358, lon.=106.727791, Alt.=-12.593391m. Speed=33.660000m/h.</desc>
<speed>9.350000</speed>
</trkpt>
<trkpt lat="21.039169" lon="106.728317">
<ele>-11.518196</ele>
<time>2011-04-30T01:48:40Z</time>
<desc>lat.=21.039169, lon.=106.728317, Alt.=-11.518196m. Speed=41.759998m/h.</desc>
<speed>11.600000</speed>
</trkpt>
<trkpt lat="21.039032" lon="106.728836">
<ele>-10.254036</ele>
<time>2011-04-30T01:48:45Z</time>
<desc>lat.=21.039032, lon.=106.728836, Alt.=-10.254036m. Speed=39.132000m/h.</desc>
<speed>10.870000</speed>
</trkpt>
<trkpt lat="21.038912" lon="106.729385">
<ele>-7.779362</ele>
<time>2011-04-30T01:48:50Z</time>
<desc>lat.=21.038912, lon.=106.729385, Alt.=-7.779362m. Speed=40.284000m/h.</desc>
<speed>11.190000</speed>
</trkpt>
<trkpt lat="21.038765" lon="106.729889">
<ele>-5.943180</ele>
<time>2011-04-30T01:48:55Z</time>
<desc>lat.=21.038765, lon.=106.729889, Alt.=-5.943180m. Speed=38.015999m/h.</desc>
<speed>10.560000</speed>
</trkpt>
<trkpt lat="21.038612" lon="106.730423">
<ele>-5.059391</ele>
<time>2011-04-30T01:49:00Z</time>
<desc>lat.=21.038612, lon.=106.730423, Alt.=-5.059391m. Speed=40.104000m/h.</desc>
<speed>11.140000</speed>
</trkpt>
<trkpt lat="21.038464" lon="106.730949">
<ele>-6.038639</ele>
<time>2011-04-30T01:49:05Z</time>
<desc>lat.=21.038464, lon.=106.730949, Alt.=-6.038639m. Speed=31.716000m/h.</desc>
<speed>8.810000</speed>
</trkpt>
<trkpt lat="21.038363" lon="106.731293">
<ele>-3.596163</ele>
<time>2011-04-30T01:49:10Z</time>
<desc>lat.=21.038363, lon.=106.731293, Alt.=-3.596163m. Speed=25.667999m/h.</desc>
<speed>7.130000</speed>
</trkpt>
<trkpt lat="21.038267" lon="106.731728">
<ele>-3.465853</ele>
<time>2011-04-30T01:49:15Z</time>
<desc>lat.=21.038267, lon.=106.731728, Alt.=-3.465853m. Speed=32.903999m/h.</desc>
<speed>9.140000</speed>
</trkpt>
<trkpt lat="21.038164" lon="106.732254">
<ele>-5.665104</ele>
<time>2011-04-30T01:49:20Z</time>
<desc>lat.=21.038164, lon.=106.732254, Alt.=-5.665104m. Speed=34.236000m/h.</desc>
<speed>9.510000</speed>
</trkpt>
<trkpt lat="21.038059" lon="106.732712">
<ele>-6.565495</ele>
<time>2011-04-30T01:49:25Z</time>
<desc>lat.=21.038059, lon.=106.732712, Alt.=-6.565495m. Speed=34.127998m/h.</desc>
<speed>9.480000</speed>
</trkpt>
<trkpt lat="21.037943" lon="106.733208">
<ele>-7.979557</ele>
<time>2011-04-30T01:49:30Z</time>
<desc>lat.=21.037943, lon.=106.733208, Alt.=-7.979557m. Speed=42.444000m/h.</desc>
<speed>11.790000</speed>
</trkpt>
<trkpt lat="21.037796" lon="106.733803">
<ele>-7.815739</ele>
<time>2011-04-30T01:49:35Z</time>
<desc>lat.=21.037796, lon.=106.733803, Alt.=-7.815739m. Speed=44.568001m/h.</desc>
<speed>12.380000</speed>
</trkpt>
<trkpt lat="21.037653" lon="106.734367">
<ele>-8.833382</ele>
<time>2011-04-30T01:49:40Z</time>
<desc>lat.=21.037653, lon.=106.734367, Alt.=-8.833382m. Speed=40.860001m/h.</desc>
<speed>11.350000</speed>
</trkpt>
<trkpt lat="21.037525" lon="106.734894">
<ele>-9.567513</ele>
<time>2011-04-30T01:49:45Z</time>
<desc>lat.=21.037525, lon.=106.734894, Alt.=-9.567513m. Speed=38.844002m/h.</desc>
<speed>10.790000</speed>
</trkpt>
<trkpt lat="21.037401" lon="106.735382">
<ele>-10.786018</ele>
<time>2011-04-30T01:49:50Z</time>
<desc>lat.=21.037401, lon.=106.735382, Alt.=-10.786018m. Speed=38.304001m/h.</desc>
<speed>10.640000</speed>
</trkpt>
<trkpt lat="21.037266" lon="106.735878">
<ele>-11.960091</ele>
<time>2011-04-30T01:49:55Z</time>
<desc>lat.=21.037266, lon.=106.735878, Alt.=-11.960091m. Speed=36.972000m/h.</desc>
<speed>10.270000</speed>
</trkpt>
<trkpt lat="21.037092" lon="106.736382">
<ele>-12.825081</ele>
<time>2011-04-30T01:50:00Z</time>
<desc>lat.=21.037092, lon.=106.736382, Alt.=-12.825081m. Speed=40.175999m/h.</desc>
<speed>11.160000</speed>
</trkpt>
<trkpt lat="21.036789" lon="106.736801">
<ele>-13.568977</ele>
<time>2011-04-30T01:50:05Z</time>
<desc>lat.=21.036789, lon.=106.736801, Alt.=-13.568977m. Speed=33.624001m/h.</desc>
<speed>9.340000</speed>
</trkpt>
<trkpt lat="21.036516" lon="106.737099">
<ele>-15.139046</ele>
<time>2011-04-30T01:50:10Z</time>
<desc>lat.=21.036516, lon.=106.737099, Alt.=-15.139046m. Speed=25.992001m/h.</desc>
<speed>7.220000</speed>
</trkpt>
<trkpt lat="21.036312" lon="106.737289">
<ele>-15.940804</ele>
<time>2011-04-30T01:50:15Z</time>
<desc>lat.=21.036312, lon.=106.737289, Alt.=-15.940804m. Speed=19.368000m/h.</desc>
<speed>5.380000</speed>
</trkpt>
<trkpt lat="21.036146" lon="106.737518">
<ele>-16.122818</ele>
<time>2011-04-30T01:50:20Z</time>
<desc>lat.=21.036146, lon.=106.737518, Alt.=-16.122818m. Speed=19.080000m/h.</desc>
<speed>5.300000</speed>
</trkpt>
<trkpt lat="21.035992" lon="106.737793">
<ele>-16.221451</ele>
<time>2011-04-30T01:50:25Z</time>
<desc>lat.=21.035992, lon.=106.737793, Alt.=-16.221451m. Speed=24.228001m/h.</desc>
<speed>6.730000</speed>
</trkpt>
<trkpt lat="21.035801" lon="106.738106">
<ele>-16.943619</ele>
<time>2011-04-30T01:50:30Z</time>
<desc>lat.=21.035801, lon.=106.738106, Alt.=-16.943619m. Speed=30.348000m/h.</desc>
<speed>8.430000</speed>
</trkpt>
<trkpt lat="21.035614" lon="106.738426">
<ele>-16.033951</ele>
<time>2011-04-30T01:50:35Z</time>
<desc>lat.=21.035614, lon.=106.738426, Alt.=-16.033951m. Speed=24.660000m/h.</desc>
<speed>6.850000</speed>
</trkpt>
<trkpt lat="21.035608" lon="106.738525">
<ele>-12.550667</ele>
<time>2011-04-30T01:50:40Z</time>
<desc>lat.=21.035608, lon.=106.738525, Alt.=-12.550667m. Speed=0.360000m/h.</desc>
<speed>0.100000</speed>
</trkpt>
<trkpt lat="21.035595" lon="106.738541">
<ele>-12.094368</ele>
<time>2011-04-30T01:50:45Z</time>
<desc>lat.=21.035595, lon.=106.738541, Alt.=-12.094368m. Speed=0.324000m/h.</desc>
<speed>0.090000</speed>
</trkpt>
<trkpt lat="21.035587" lon="106.738594">
<ele>-10.682503</ele>
<time>2011-04-30T01:50:50Z</time>
<desc>lat.=21.035587, lon.=106.738594, Alt.=-10.682503m. Speed=10.872000m/h.</desc>
<speed>3.020000</speed>
</trkpt>
<trkpt lat="21.035545" lon="106.738808">
<ele>-5.773746</ele>
<time>2011-04-30T01:50:55Z</time>
<desc>lat.=21.035545, lon.=106.738808, Alt.=-5.773746m. Speed=14.580000m/h.</desc>
<speed>4.050000</speed>
</trkpt>
<trkpt lat="21.035519" lon="106.739075">
<ele>-0.242834</ele>
<time>2011-04-30T01:51:00Z</time>
<desc>lat.=21.035519, lon.=106.739075, Alt.=-0.242834m. Speed=19.584000m/h.</desc>
<speed>5.440000</speed>
</trkpt>
<trkpt lat="21.035473" lon="106.739365">
<ele>-0.008424</ele>
<time>2011-04-30T01:51:05Z</time>
<desc>lat.=21.035473, lon.=106.739365, Alt.=-0.008424m. Speed=15.948000m/h.</desc>
<speed>4.430000</speed>
</trkpt>
<trkpt lat="21.035477" lon="106.739761">
<ele>0.688591</ele>
<time>2011-04-30T01:51:10Z</time>
<desc>lat.=21.035477, lon.=106.739761, Alt.=0.688591m. Speed=30.563999m/h.</desc>
<speed>8.490000</speed>
</trkpt>
<trkpt lat="21.035450" lon="106.740257">
<ele>1.991960</ele>
<time>2011-04-30T01:51:15Z</time>
<desc>lat.=21.035450, lon.=106.740257, Alt.=1.991960m. Speed=28.188000m/h.</desc>
<speed>7.830000</speed>
</trkpt>
<trkpt lat="21.035431" lon="106.740723">
<ele>2.251497</ele>
<time>2011-04-30T01:51:20Z</time>
<desc>lat.=21.035431, lon.=106.740723, Alt.=2.251497m. Speed=28.908001m/h.</desc>
<speed>8.030000</speed>
</trkpt>
<trkpt lat="21.035421" lon="106.741158">
<ele>3.096529</ele>
<time>2011-04-30T01:51:25Z</time>
<desc>lat.=21.035421, lon.=106.741158, Alt.=3.096529m. Speed=33.480000m/h.</desc>
<speed>9.300000</speed>
</trkpt>
<trkpt lat="21.035458" lon="106.741669">
<ele>8.644173</ele>
<time>2011-04-30T01:51:30Z</time>
<desc>lat.=21.035458, lon.=106.741669, Alt.=8.644173m. Speed=33.984001m/h.</desc>
<speed>9.440000</speed>
</trkpt>
<trkpt lat="21.035461" lon="106.742172">
<ele>11.152473</ele>
<time>2011-04-30T01:51:35Z</time>
<desc>lat.=21.035461, lon.=106.742172, Alt.=11.152473m. Speed=33.444000m/h.</desc>
<speed>9.290000</speed>
</trkpt>
<trkpt lat="21.035439" lon="106.742683">
<ele>8.946175</ele>
<time>2011-04-30T01:51:40Z</time>
<desc>lat.=21.035439, lon.=106.742683, Alt.=8.946175m. Speed=31.068001m/h.</desc>
<speed>8.630000</speed>
</trkpt>
<trkpt lat="21.035414" lon="106.743118">
<ele>10.421516</ele>
<time>2011-04-30T01:51:45Z</time>
<desc>lat.=21.035414, lon.=106.743118, Alt.=10.421516m. Speed=31.176001m/h.</desc>
<speed>8.660000</speed>
</trkpt>
<trkpt lat="21.035387" lon="106.743561">
<ele>11.796028</ele>
<time>2011-04-30T01:51:50Z</time>
<desc>lat.=21.035387, lon.=106.743561, Alt.=11.796028m. Speed=31.212000m/h.</desc>
<speed>8.670000</speed>
</trkpt>
<trkpt lat="21.035362" lon="106.744026">
<ele>9.349007</ele>
<time>2011-04-30T01:51:55Z</time>
<desc>lat.=21.035362, lon.=106.744026, Alt.=9.349007m. Speed=32.004002m/h.</desc>
<speed>8.890000</speed>
</trkpt>
<trkpt lat="21.035336" lon="106.744438">
<ele>7.794987</ele>
<time>2011-04-30T01:52:00Z</time>
<desc>lat.=21.035336, lon.=106.744438, Alt.=7.794987m. Speed=29.375999m/h.</desc>
<speed>8.160000</speed>
</trkpt>
<trkpt lat="21.035286" lon="106.744881">
<ele>6.226627</ele>
<time>2011-04-30T01:52:05Z</time>
<desc>lat.=21.035286, lon.=106.744881, Alt.=6.226627m. Speed=34.487999m/h.</desc>
<speed>9.580000</speed>
</trkpt>
<trkpt lat="21.035261" lon="106.745369">
<ele>4.116398</ele>
<time>2011-04-30T01:52:10Z</time>
<desc>lat.=21.035261, lon.=106.745369, Alt.=4.116398m. Speed=35.928001m/h.</desc>
<speed>9.980000</speed>
</trkpt>
<trkpt lat="21.035206" lon="106.745857">
<ele>4.681095</ele>
<time>2011-04-30T01:52:15Z</time>
<desc>lat.=21.035206, lon.=106.745857, Alt.=4.681095m. Speed=34.091999m/h.</desc>
<speed>9.470000</speed>
</trkpt>
<trkpt lat="21.035166" lon="106.746277">
<ele>3.303804</ele>
<time>2011-04-30T01:52:20Z</time>
<desc>lat.=21.035166, lon.=106.746277, Alt.=3.303804m. Speed=28.368000m/h.</desc>
<speed>7.880000</speed>
</trkpt>
<trkpt lat="21.035112" lon="106.746597">
<ele>0.687905</ele>
<time>2011-04-30T01:52:25Z</time>
<desc>lat.=21.035112, lon.=106.746597, Alt.=0.687905m. Speed=20.375999m/h.</desc>
<speed>5.660000</speed>
</trkpt>
<trkpt lat="21.035065" lon="106.746880">
<ele>-0.279972</ele>
<time>2011-04-30T01:52:30Z</time>
<desc>lat.=21.035065, lon.=106.746880, Alt.=-0.279972m. Speed=19.007999m/h.</desc>
<speed>5.280000</speed>
</trkpt>
<trkpt lat="21.035048" lon="106.747147">
<ele>-1.539445</ele>
<time>2011-04-30T01:52:35Z</time>
<desc>lat.=21.035048, lon.=106.747147, Alt.=-1.539445m. Speed=18.252001m/h.</desc>
<speed>5.070000</speed>
</trkpt>
<trkpt lat="21.035038" lon="106.747375">
<ele>-0.652993</ele>
<time>2011-04-30T01:52:40Z</time>
<desc>lat.=21.035038, lon.=106.747375, Alt.=-0.652993m. Speed=13.500000m/h.</desc>
<speed>3.750000</speed>
</trkpt>
<trkpt lat="21.035006" lon="106.747597">
<ele>4.559025</ele>
<time>2011-04-30T01:52:45Z</time>
<desc>lat.=21.035006, lon.=106.747597, Alt.=4.559025m. Speed=13.356000m/h.</desc>
<speed>3.710000</speed>
</trkpt>
<trkpt lat="21.034981" lon="106.747749">
<ele>11.843880</ele>
<time>2011-04-30T01:52:50Z</time>
<desc>lat.=21.034981, lon.=106.747749, Alt.=11.843880m. Speed=10.152000m/h.</desc>
<speed>2.820000</speed>
</trkpt>
<trkpt lat="21.034967" lon="106.747948">
<ele>16.523209</ele>
<time>2011-04-30T01:52:55Z</time>
<desc>lat.=21.034967, lon.=106.747948, Alt.=16.523209m. Speed=16.200001m/h.</desc>
<speed>4.500000</speed>
</trkpt>
<trkpt lat="21.034918" lon="106.748192">
<ele>21.244400</ele>
<time>2011-04-30T01:53:00Z</time>
<desc>lat.=21.034918, lon.=106.748192, Alt.=21.244400m. Speed=11.376000m/h.</desc>
<speed>3.160000</speed>
</trkpt>
<trkpt lat="21.034916" lon="106.748314">
<ele>22.923111</ele>
<time>2011-04-30T01:53:05Z</time>
<desc>lat.=21.034916, lon.=106.748314, Alt.=22.923111m. Speed=4.104000m/h.</desc>
<speed>1.140000</speed>
</trkpt>
<trkpt lat="21.034904" lon="106.748413">
<ele>24.778580</ele>
<time>2011-04-30T01:53:10Z</time>
<desc>lat.=21.034904, lon.=106.748413, Alt.=24.778580m. Speed=9.972000m/h.</desc>
<speed>2.770000</speed>
</trkpt>
<trkpt lat="21.034866" lon="106.748672">
<ele>22.736099</ele>
<time>2011-04-30T01:53:15Z</time>
<desc>lat.=21.034866, lon.=106.748672, Alt.=22.736099m. Speed=17.028000m/h.</desc>
<speed>4.730000</speed>
</trkpt>
<trkpt lat="21.034838" lon="106.748909">
<ele>22.724380</ele>
<time>2011-04-30T01:53:20Z</time>
<desc>lat.=21.034838, lon.=106.748909, Alt.=22.724380m. Speed=18.360001m/h.</desc>
<speed>5.100000</speed>
</trkpt>
<trkpt lat="21.034782" lon="106.749214">
<ele>24.489517</ele>
<time>2011-04-30T01:53:25Z</time>
<desc>lat.=21.034782, lon.=106.749214, Alt.=24.489517m. Speed=22.176001m/h.</desc>
<speed>6.160000</speed>
</trkpt>
<trkpt lat="21.034719" lon="106.749596">
<ele>25.182877</ele>
<time>2011-04-30T01:53:30Z</time>
<desc>lat.=21.034719, lon.=106.749596, Alt.=25.182877m. Speed=26.927999m/h.</desc>
<speed>7.480000</speed>
</trkpt>
<trkpt lat="21.034649" lon="106.750008">
<ele>25.650650</ele>
<time>2011-04-30T01:53:35Z</time>
<desc>lat.=21.034649, lon.=106.750008, Alt.=25.650650m. Speed=30.816000m/h.</desc>
<speed>8.560000</speed>
</trkpt>
<trkpt lat="21.034555" lon="106.750359">
<ele>26.258560</ele>
<time>2011-04-30T01:53:40Z</time>
<desc>lat.=21.034555, lon.=106.750359, Alt.=26.258560m. Speed=22.176001m/h.</desc>
<speed>6.160000</speed>
</trkpt>
<trkpt lat="21.034470" lon="106.750717">
<ele>25.575455</ele>
<time>2011-04-30T01:53:45Z</time>
<desc>lat.=21.034470, lon.=106.750717, Alt.=25.575455m. Speed=22.608000m/h.</desc>
<speed>6.280000</speed>
</trkpt>
<trkpt lat="21.034433" lon="106.751022">
<ele>23.074478</ele>
<time>2011-04-30T01:53:50Z</time>
<desc>lat.=21.034433, lon.=106.751022, Alt.=23.074478m. Speed=12.168000m/h.</desc>
<speed>3.380000</speed>
</trkpt>
<trkpt lat="21.034409" lon="106.751152">
<ele>22.114517</ele>
<time>2011-04-30T01:53:55Z</time>
<desc>lat.=21.034409, lon.=106.751152, Alt.=22.114517m. Speed=5.976000m/h.</desc>
<speed>1.660000</speed>
</trkpt>
<trkpt lat="21.034449" lon="106.751251">
<ele>18.817154</ele>
<time>2011-04-30T01:54:00Z</time>
<desc>lat.=21.034449, lon.=106.751251, Alt.=18.817154m. Speed=1.548000m/h.</desc>
<speed>0.430000</speed>
</trkpt>
<trkpt lat="21.034452" lon="106.751274">
<ele>17.541763</ele>
<time>2011-04-30T01:54:05Z</time>
<desc>lat.=21.034452, lon.=106.751274, Alt.=17.541763m. Speed=0.288000m/h.</desc>
<speed>0.080000</speed>
</trkpt>
<trkpt lat="21.034454" lon="106.751297">
<ele>17.571060</ele>
<time>2011-04-30T01:54:10Z</time>
<desc>lat.=21.034454, lon.=106.751297, Alt.=17.571060m. Speed=2.736000m/h.</desc>
<speed>0.760000</speed>
</trkpt>
<trkpt lat="21.034470" lon="106.751404">
<ele>17.146744</ele>
<time>2011-04-30T01:54:15Z</time>
<desc>lat.=21.034470, lon.=106.751404, Alt.=17.146744m. Speed=13.248000m/h.</desc>
<speed>3.680000</speed>
</trkpt>
<trkpt lat="21.034458" lon="106.751678">
<ele>16.973892</ele>
<time>2011-04-30T01:54:20Z</time>
<desc>lat.=21.034458, lon.=106.751678, Alt.=16.973892m. Speed=24.768000m/h.</desc>
<speed>6.880000</speed>
</trkpt>
<trkpt lat="21.034401" lon="106.752220">
<ele>15.444954</ele>
<time>2011-04-30T01:54:25Z</time>
<desc>lat.=21.034401, lon.=106.752220, Alt.=15.444954m. Speed=34.632000m/h.</desc>
<speed>9.620000</speed>
</trkpt>
<trkpt lat="21.034332" lon="106.752731">
<ele>13.741341</ele>
<time>2011-04-30T01:54:30Z</time>
<desc>lat.=21.034332, lon.=106.752731, Alt.=13.741341m. Speed=33.480000m/h.</desc>
<speed>9.300000</speed>
</trkpt>
<trkpt lat="21.034269" lon="106.753105">
<ele>12.935677</ele>
<time>2011-04-30T01:54:35Z</time>
<desc>lat.=21.034269, lon.=106.753105, Alt.=12.935677m. Speed=18.035999m/h.</desc>
<speed>5.010000</speed>
</trkpt>
<trkpt lat="21.034262" lon="106.753258">
<ele>11.274544</ele>
<time>2011-04-30T01:54:40Z</time>
<desc>lat.=21.034262, lon.=106.753258, Alt.=11.274544m. Speed=3.420000m/h.</desc>
<speed>0.950000</speed>
</trkpt>
<trkpt lat="21.034256" lon="106.753304">
<ele>10.291878</ele>
<time>2011-04-30T01:54:45Z</time>
<desc>lat.=21.034256, lon.=106.753304, Alt.=10.291878m. Speed=2.124000m/h.</desc>
<speed>0.590000</speed>
</trkpt>
<trkpt lat="21.034275" lon="106.753433">
<ele>9.091927</ele>
<time>2011-04-30T01:54:50Z</time>
<desc>lat.=21.034275, lon.=106.753433, Alt.=9.091927m. Speed=14.472000m/h.</desc>
<speed>4.020000</speed>
</trkpt>
<trkpt lat="21.034294" lon="106.753746">
<ele>7.951725</ele>
<time>2011-04-30T01:54:55Z</time>
<desc>lat.=21.034294, lon.=106.753746, Alt.=7.951725m. Speed=27.000000m/h.</desc>
<speed>7.500000</speed>
</trkpt>
<trkpt lat="21.034256" lon="106.754257">
<ele>8.615608</ele>
<time>2011-04-30T01:55:00Z</time>
<desc>lat.=21.034256, lon.=106.754257, Alt.=8.615608m. Speed=41.759998m/h.</desc>
<speed>11.600000</speed>
</trkpt>
<trkpt lat="21.034199" lon="106.754883">
<ele>8.610237</ele>
<time>2011-04-30T01:55:05Z</time>
<desc>lat.=21.034199, lon.=106.754883, Alt.=8.610237m. Speed=44.352001m/h.</desc>
<speed>12.320000</speed>
</trkpt>
<trkpt lat="21.034153" lon="106.755569">
<ele>7.745548</ele>
<time>2011-04-30T01:55:10Z</time>
<desc>lat.=21.034153, lon.=106.755569, Alt.=7.745548m. Speed=51.624001m/h.</desc>
<speed>14.340000</speed>
</trkpt>
<trkpt lat="21.034061" lon="106.756294">
<ele>6.529362</ele>
<time>2011-04-30T01:55:15Z</time>
<desc>lat.=21.034061, lon.=106.756294, Alt.=6.529362m. Speed=53.964001m/h.</desc>
<speed>14.990000</speed>
</trkpt>
<trkpt lat="21.033962" lon="106.757080">
<ele>5.079044</ele>
<time>2011-04-30T01:55:20Z</time>
<desc>lat.=21.033962, lon.=106.757080, Alt.=5.079044m. Speed=61.560001m/h.</desc>
<speed>17.100000</speed>
</trkpt>
<trkpt lat="21.033875" lon="106.757896">
<ele>5.719669</ele>
<time>2011-04-30T01:55:25Z</time>
<desc>lat.=21.033875, lon.=106.757896, Alt.=5.719669m. Speed=55.908001m/h.</desc>
<speed>15.530000</speed>
</trkpt>
<trkpt lat="21.033806" lon="106.758636">
<ele>6.813297</ele>
<time>2011-04-30T01:55:30Z</time>
<desc>lat.=21.033806, lon.=106.758636, Alt.=6.813297m. Speed=49.716000m/h.</desc>
<speed>13.810000</speed>
</trkpt>
<trkpt lat="21.033718" lon="106.759224">
<ele>7.483707</ele>
<time>2011-04-30T01:55:35Z</time>
<desc>lat.=21.033718, lon.=106.759224, Alt.=7.483707m. Speed=39.023998m/h.</desc>
<speed>10.840000</speed>
</trkpt>
<trkpt lat="21.033646" lon="106.759750">
<ele>9.743782</ele>
<time>2011-04-30T01:55:40Z</time>
<desc>lat.=21.033646, lon.=106.759750, Alt.=9.743782m. Speed=35.639999m/h.</desc>
<speed>9.900000</speed>
</trkpt>
<trkpt lat="21.033598" lon="106.760185">
<ele>11.490120</ele>
<time>2011-04-30T01:55:45Z</time>
<desc>lat.=21.033598, lon.=106.760185, Alt.=11.490120m. Speed=25.667999m/h.</desc>
<speed>7.130000</speed>
</trkpt>
<trkpt lat="21.033560" lon="106.760590">
<ele>14.008430</ele>
<time>2011-04-30T01:55:50Z</time>
<desc>lat.=21.033560, lon.=106.760590, Alt.=14.008430m. Speed=22.139999m/h.</desc>
<speed>6.150000</speed>
</trkpt>
<trkpt lat="21.033457" lon="106.760895">
<ele>18.492935</ele>
<time>2011-04-30T01:55:55Z</time>
<desc>lat.=21.033457, lon.=106.760895, Alt.=18.492935m. Speed=22.643999m/h.</desc>
<speed>6.290000</speed>
</trkpt>
<trkpt lat="21.033390" lon="106.761314">
<ele>22.432877</ele>
<time>2011-04-30T01:56:00Z</time>
<desc>lat.=21.033390, lon.=106.761314, Alt.=22.432877m. Speed=26.100000m/h.</desc>
<speed>7.250000</speed>
</trkpt>
<trkpt lat="21.033354" lon="106.761734">
<ele>27.038345</ele>
<time>2011-04-30T01:56:05Z</time>
<desc>lat.=21.033354, lon.=106.761734, Alt.=27.038345m. Speed=25.236000m/h.</desc>
<speed>7.010000</speed>
</trkpt>
<trkpt lat="21.033342" lon="106.762131">
<ele>31.619400</ele>
<time>2011-04-30T01:56:10Z</time>
<desc>lat.=21.033342, lon.=106.762131, Alt.=31.619400m. Speed=27.035999m/h.</desc>
<speed>7.510000</speed>
</trkpt>
<trkpt lat="21.033356" lon="106.762627">
<ele>39.110870</ele>
<time>2011-04-30T01:56:15Z</time>
<desc>lat.=21.033356, lon.=106.762627, Alt.=39.110870m. Speed=33.984001m/h.</desc>
<speed>9.440000</speed>
</trkpt>
<trkpt lat="21.033375" lon="106.763115">
<ele>45.147980</ele>
<time>2011-04-30T01:56:20Z</time>
<desc>lat.=21.033375, lon.=106.763115, Alt.=45.147980m. Speed=30.636000m/h.</desc>
<speed>8.510000</speed>
</trkpt>
<trkpt lat="21.033432" lon="106.763611">
<ele>49.026886</ele>
<time>2011-04-30T01:56:25Z</time>
<desc>lat.=21.033432, lon.=106.763611, Alt.=49.026886m. Speed=28.296000m/h.</desc>
<speed>7.860000</speed>
</trkpt>
<trkpt lat="21.033491" lon="106.763931">
<ele>52.392120</ele>
<time>2011-04-30T01:56:30Z</time>
<desc>lat.=21.033491, lon.=106.763931, Alt.=52.392120m. Speed=12.996000m/h.</desc>
<speed>3.610000</speed>
</trkpt>
<trkpt lat="21.033556" lon="106.764122">
<ele>56.235870</ele>
<time>2011-04-30T01:56:35Z</time>
<desc>lat.=21.033556, lon.=106.764122, Alt.=56.235870m. Speed=10.512000m/h.</desc>
<speed>2.920000</speed>
</trkpt>
<trkpt lat="21.033604" lon="106.764282">
<ele>59.961456</ele>
<time>2011-04-30T01:56:40Z</time>
<desc>lat.=21.033604, lon.=106.764282, Alt.=59.961456m. Speed=4.824000m/h.</desc>
<speed>1.340000</speed>
</trkpt>
<trkpt lat="21.033648" lon="106.764420">
<ele>62.060089</ele>
<time>2011-04-30T01:56:45Z</time>
<desc>lat.=21.033648, lon.=106.764420, Alt.=62.060089m. Speed=3.960000m/h.</desc>
<speed>1.100000</speed>
</trkpt>
<trkpt lat="21.033680" lon="106.764496">
<ele>60.052277</ele>
<time>2011-04-30T01:56:50Z</time>
<desc>lat.=21.033680, lon.=106.764496, Alt.=60.052277m. Speed=5.652000m/h.</desc>
<speed>1.570000</speed>
</trkpt>
<trkpt lat="21.033724" lon="106.764717">
<ele>58.606964</ele>
<time>2011-04-30T01:56:55Z</time>
<desc>lat.=21.033724, lon.=106.764717, Alt.=58.606964m. Speed=19.080000m/h.</desc>
<speed>5.300000</speed>
</trkpt>
<trkpt lat="21.033819" lon="106.765114">
<ele>59.326691</ele>
<time>2011-04-30T01:57:00Z</time>
<desc>lat.=21.033819, lon.=106.765114, Alt.=59.326691m. Speed=33.048000m/h.</desc>
<speed>9.180000</speed>
</trkpt>
<trkpt lat="21.033901" lon="106.765648">
<ele>59.689972</ele>
<time>2011-04-30T01:57:05Z</time>
<desc>lat.=21.033901, lon.=106.765648, Alt.=59.689972m. Speed=37.259998m/h.</desc>
<speed>10.350000</speed>
</trkpt>
<trkpt lat="21.033981" lon="106.766106">
<ele>59.897980</ele>
<time>2011-04-30T01:57:10Z</time>
<desc>lat.=21.033981, lon.=106.766106, Alt.=59.897980m. Speed=31.896000m/h.</desc>
<speed>8.860000</speed>
</trkpt>
<trkpt lat="21.034075" lon="106.766548">
<ele>60.330597</ele>
<time>2011-04-30T01:57:15Z</time>
<desc>lat.=21.034075, lon.=106.766548, Alt.=60.330597m. Speed=32.580002m/h.</desc>
<speed>9.050001</speed>
</trkpt>
<trkpt lat="21.034147" lon="106.767006">
<ele>61.922394</ele>
<time>2011-04-30T01:57:20Z</time>
<desc>lat.=21.034147, lon.=106.767006, Alt.=61.922394m. Speed=31.500000m/h.</desc>
<speed>8.750000</speed>
</trkpt>
<trkpt lat="21.034204" lon="106.767426">
<ele>63.391144</ele>
<time>2011-04-30T01:57:25Z</time>
<desc>lat.=21.034204, lon.=106.767426, Alt.=63.391144m. Speed=26.496000m/h.</desc>
<speed>7.360000</speed>
</trkpt>
<trkpt lat="21.034283" lon="106.767815">
<ele>63.389191</ele>
<time>2011-04-30T01:57:30Z</time>
<desc>lat.=21.034283, lon.=106.767815, Alt.=63.389191m. Speed=24.552000m/h.</desc>
<speed>6.820000</speed>
</trkpt>
<trkpt lat="21.034349" lon="106.768204">
<ele>62.240753</ele>
<time>2011-04-30T01:57:35Z</time>
<desc>lat.=21.034349, lon.=106.768204, Alt.=62.240753m. Speed=24.264000m/h.</desc>
<speed>6.740000</speed>
</trkpt>
<trkpt lat="21.034370" lon="106.768570">
<ele>60.995636</ele>
<time>2011-04-30T01:57:40Z</time>
<desc>lat.=21.034370, lon.=106.768570, Alt.=60.995636m. Speed=9.936000m/h.</desc>
<speed>2.760000</speed>
</trkpt>
<trkpt lat="21.034418" lon="106.768753">
<ele>58.142120</ele>
<time>2011-04-30T01:57:45Z</time>
<desc>lat.=21.034418, lon.=106.768753, Alt.=58.142120m. Speed=2.520000m/h.</desc>
<speed>0.700000</speed>
</trkpt>
<trkpt lat="21.034452" lon="106.768852">
<ele>56.868683</ele>
<time>2011-04-30T01:57:50Z</time>
<desc>lat.=21.034452, lon.=106.768852, Alt.=56.868683m. Speed=10.008000m/h.</desc>
<speed>2.780000</speed>
</trkpt>
<trkpt lat="21.034506" lon="106.769012">
<ele>50.473175</ele>
<time>2011-04-30T01:57:55Z</time>
<desc>lat.=21.034506, lon.=106.769012, Alt.=50.473175m. Speed=2.376000m/h.</desc>
<speed>0.660000</speed>
</trkpt>
<trkpt lat="21.034512" lon="106.769073">
<ele>45.679230</ele>
<time>2011-04-30T01:58:00Z</time>
<desc>lat.=21.034512, lon.=106.769073, Alt.=45.679230m. Speed=1.764000m/h.</desc>
<speed>0.490000</speed>
</trkpt>
<trkpt lat="21.034487" lon="106.769096">
<ele>42.605011</ele>
<time>2011-04-30T01:58:05Z</time>
<desc>lat.=21.034487, lon.=106.769096, Alt.=42.605011m. Speed=1.224000m/h.</desc>
<speed>0.340000</speed>
</trkpt>
<trkpt lat="21.034475" lon="106.769173">
<ele>41.288605</ele>
<time>2011-04-30T01:58:10Z</time>
<desc>lat.=21.034475, lon.=106.769173, Alt.=41.288605m. Speed=3.456000m/h.</desc>
<speed>0.960000</speed>
</trkpt>
<trkpt lat="21.034454" lon="106.769272">
<ele>41.167511</ele>
<time>2011-04-30T01:58:15Z</time>
<desc>lat.=21.034454, lon.=106.769272, Alt.=41.167511m. Speed=9.288000m/h.</desc>
<speed>2.580000</speed>
</trkpt>
<trkpt lat="21.034473" lon="106.769447">
<ele>39.093292</ele>
<time>2011-04-30T01:58:20Z</time>
<desc>lat.=21.034473, lon.=106.769447, Alt.=39.093292m. Speed=11.988000m/h.</desc>
<speed>3.330000</speed>
</trkpt>
<trkpt lat="21.034464" lon="106.769691">
<ele>37.963409</ele>
<time>2011-04-30T01:58:25Z</time>
<desc>lat.=21.034464, lon.=106.769691, Alt.=37.963409m. Speed=13.968000m/h.</desc>
<speed>3.880000</speed>
</trkpt>
<trkpt lat="21.034445" lon="106.770004">
<ele>35.294464</ele>
<time>2011-04-30T01:58:30Z</time>
<desc>lat.=21.034445, lon.=106.770004, Alt.=35.294464m. Speed=23.076000m/h.</desc>
<speed>6.410000</speed>
</trkpt>
<trkpt lat="21.034437" lon="106.770363">
<ele>34.590363</ele>
<time>2011-04-30T01:58:35Z</time>
<desc>lat.=21.034437, lon.=106.770363, Alt.=34.590363m. Speed=25.848000m/h.</desc>
<speed>7.180000</speed>
</trkpt>
<trkpt lat="21.034346" lon="106.770821">
<ele>33.241730</ele>
<time>2011-04-30T01:58:40Z</time>
<desc>lat.=21.034346, lon.=106.770821, Alt.=33.241730m. Speed=30.996000m/h.</desc>
<speed>8.610000</speed>
</trkpt>
<trkpt lat="21.034323" lon="106.771317">
<ele>32.794464</ele>
<time>2011-04-30T01:58:45Z</time>
<desc>lat.=21.034323, lon.=106.771317, Alt.=32.794464m. Speed=25.704000m/h.</desc>
<speed>7.140000</speed>
</trkpt>
<trkpt lat="21.034332" lon="106.771584">
<ele>32.671417</ele>
<time>2011-04-30T01:58:50Z</time>
<desc>lat.=21.034332, lon.=106.771584, Alt.=32.671417m. Speed=12.528000m/h.</desc>
<speed>3.480000</speed>
</trkpt>
<trkpt lat="21.034332" lon="106.771919">
<ele>35.731964</ele>
<time>2011-04-30T01:58:55Z</time>
<desc>lat.=21.034332, lon.=106.771919, Alt.=35.731964m. Speed=28.296000m/h.</desc>
<speed>7.860000</speed>
</trkpt>
<trkpt lat="21.034315" lon="106.772507">
<ele>39.394073</ele>
<time>2011-04-30T01:59:00Z</time>
<desc>lat.=21.034315, lon.=106.772507, Alt.=39.394073m. Speed=39.167999m/h.</desc>
<speed>10.880000</speed>
</trkpt>
<trkpt lat="21.034332" lon="106.773087">
<ele>37.629425</ele>
<time>2011-04-30T01:59:05Z</time>
<desc>lat.=21.034332, lon.=106.773087, Alt.=37.629425m. Speed=34.956001m/h.</desc>
<speed>9.710000</speed>
</trkpt>
<trkpt lat="21.034330" lon="106.773476">
<ele>34.018097</ele>
<time>2011-04-30T01:59:10Z</time>
<desc>lat.=21.034330, lon.=106.773476, Alt.=34.018097m. Speed=25.379999m/h.</desc>
<speed>7.050000</speed>
</trkpt>
<trkpt lat="21.034298" lon="106.773659">
<ele>30.785904</ele>
<time>2011-04-30T01:59:15Z</time>
<desc>lat.=21.034298, lon.=106.773659, Alt.=30.785904m. Speed=3.960000m/h.</desc>
<speed>1.100000</speed>
</trkpt>
<trkpt lat="21.034304" lon="106.773804">
<ele>35.317902</ele>
<time>2011-04-30T01:59:20Z</time>
<desc>lat.=21.034304, lon.=106.773804, Alt.=35.317902m. Speed=4.896000m/h.</desc>
<speed>1.360000</speed>
</trkpt>
<trkpt lat="21.034311" lon="106.773895">
<ele>34.556183</ele>
<time>2011-04-30T01:59:25Z</time>
<desc>lat.=21.034311, lon.=106.773895, Alt.=34.556183m. Speed=7.632000m/h.</desc>
<speed>2.120000</speed>
</trkpt>
<trkpt lat="21.034281" lon="106.774162">
<ele>33.619659</ele>
<time>2011-04-30T01:59:30Z</time>
<desc>lat.=21.034281, lon.=106.774162, Alt.=33.619659m. Speed=20.304001m/h.</desc>
<speed>5.640000</speed>
</trkpt>
<trkpt lat="21.034246" lon="106.774452">
<ele>31.569595</ele>
<time>2011-04-30T01:59:35Z</time>
<desc>lat.=21.034246, lon.=106.774452, Alt.=31.569595m. Speed=20.195999m/h.</desc>
<speed>5.610000</speed>
</trkpt>
<trkpt lat="21.034271" lon="106.774826">
<ele>28.382584</ele>
<time>2011-04-30T01:59:40Z</time>
<desc>lat.=21.034271, lon.=106.774826, Alt.=28.382584m. Speed=22.032000m/h.</desc>
<speed>6.120000</speed>
</trkpt>
<trkpt lat="21.034233" lon="106.775124">
<ele>27.726334</ele>
<time>2011-04-30T01:59:45Z</time>
<desc>lat.=21.034233, lon.=106.775124, Alt.=27.726334m. Speed=17.316000m/h.</desc>
<speed>4.810000</speed>
</trkpt>
<trkpt lat="21.034168" lon="106.775383">
<ele>27.651138</ele>
<time>2011-04-30T01:59:50Z</time>
<desc>lat.=21.034168, lon.=106.775383, Alt.=27.651138m. Speed=16.164000m/h.</desc>
<speed>4.490000</speed>
</trkpt>
<trkpt lat="21.034105" lon="106.775665">
<ele>26.745377</ele>
<time>2011-04-30T01:59:55Z</time>
<desc>lat.=21.034105, lon.=106.775665, Alt.=26.745377m. Speed=12.420000m/h.</desc>
<speed>3.450000</speed>
</trkpt>
<trkpt lat="21.034006" lon="106.776047">
<ele>24.785904</ele>
<time>2011-04-30T02:00:00Z</time>
<desc>lat.=21.034006, lon.=106.776047, Alt.=24.785904m. Speed=23.400000m/h.</desc>
<speed>6.500000</speed>
</trkpt>
<trkpt lat="21.033901" lon="106.776421">
<ele>24.279068</ele>
<time>2011-04-30T02:00:05Z</time>
<desc>lat.=21.033901, lon.=106.776421, Alt.=24.279068m. Speed=19.799999m/h.</desc>
<speed>5.500000</speed>
</trkpt>
<trkpt lat="21.033882" lon="106.776688">
<ele>24.110611</ele>
<time>2011-04-30T02:00:10Z</time>
<desc>lat.=21.033882, lon.=106.776688, Alt.=24.110611m. Speed=11.304000m/h.</desc>
<speed>3.140000</speed>
</trkpt>
<trkpt lat="21.033821" lon="106.776993">
<ele>25.811783</ele>
<time>2011-04-30T02:00:15Z</time>
<desc>lat.=21.033821, lon.=106.776993, Alt.=25.811783m. Speed=24.768000m/h.</desc>
<speed>6.880000</speed>
</trkpt>
<trkpt lat="21.033754" lon="106.777489">
<ele>27.243912</ele>
<time>2011-04-30T02:00:20Z</time>
<desc>lat.=21.033754, lon.=106.777489, Alt.=27.243912m. Speed=31.716000m/h.</desc>
<speed>8.810000</speed>
</trkpt>
<trkpt lat="21.033810" lon="106.777977">
<ele>30.528091</ele>
<time>2011-04-30T02:00:25Z</time>
<desc>lat.=21.033810, lon.=106.777977, Alt.=30.528091m. Speed=28.728001m/h.</desc>
<speed>7.980000</speed>
</trkpt>
<trkpt lat="21.033922" lon="106.778305">
<ele>33.324738</ele>
<time>2011-04-30T02:00:30Z</time>
<desc>lat.=21.033922, lon.=106.778305, Alt.=33.324738m. Speed=20.087999m/h.</desc>
<speed>5.580000</speed>
</trkpt>
<trkpt lat="21.034088" lon="106.778587">
<ele>36.786652</ele>
<time>2011-04-30T02:00:35Z</time>
<desc>lat.=21.034088, lon.=106.778587, Alt.=36.786652m. Speed=14.796000m/h.</desc>
<speed>4.110000</speed>
</trkpt>
<trkpt lat="21.034145" lon="106.778763">
<ele>43.491730</ele>
<time>2011-04-30T02:00:40Z</time>
<desc>lat.=21.034145, lon.=106.778763, Alt.=43.491730m. Speed=10.764000m/h.</desc>
<speed>2.990000</speed>
</trkpt>
<trkpt lat="21.034267" lon="106.778969">
<ele>50.563019</ele>
<time>2011-04-30T02:00:45Z</time>
<desc>lat.=21.034267, lon.=106.778969, Alt.=50.563019m. Speed=14.004000m/h.</desc>
<speed>3.890000</speed>
</trkpt>
<trkpt lat="21.034416" lon="106.779243">
<ele>57.196808</ele>
<time>2011-04-30T02:00:50Z</time>
<desc>lat.=21.034416, lon.=106.779243, Alt.=57.196808m. Speed=20.844000m/h.</desc>
<speed>5.790000</speed>
</trkpt>
<trkpt lat="21.034582" lon="106.779549">
<ele>61.918488</ele>
<time>2011-04-30T02:00:55Z</time>
<desc>lat.=21.034582, lon.=106.779549, Alt.=61.918488m. Speed=21.636000m/h.</desc>
<speed>6.010000</speed>
</trkpt>
<trkpt lat="21.034716" lon="106.779869">
<ele>65.545959</ele>
<time>2011-04-30T02:01:00Z</time>
<desc>lat.=21.034716, lon.=106.779869, Alt.=65.545959m. Speed=22.752001m/h.</desc>
<speed>6.320000</speed>
</trkpt>
<trkpt lat="21.034891" lon="106.780289">
<ele>69.368225</ele>
<time>2011-04-30T02:01:05Z</time>
<desc>lat.=21.034891, lon.=106.780289, Alt.=69.368225m. Speed=30.851999m/h.</desc>
<speed>8.570000</speed>
</trkpt>
<trkpt lat="21.035137" lon="106.780724">
<ele>72.538147</ele>
<time>2011-04-30T02:01:10Z</time>
<desc>lat.=21.035137, lon.=106.780724, Alt.=72.538147m. Speed=35.279999m/h.</desc>
<speed>9.800000</speed>
</trkpt>
<trkpt lat="21.035334" lon="106.781143">
<ele>73.129944</ele>
<time>2011-04-30T02:01:15Z</time>
<desc>lat.=21.035334, lon.=106.781143, Alt.=73.129944m. Speed=28.440001m/h.</desc>
<speed>7.900000</speed>
</trkpt>
<trkpt lat="21.035496" lon="106.781494">
<ele>73.594788</ele>
<time>2011-04-30T02:01:20Z</time>
<desc>lat.=21.035496, lon.=106.781494, Alt.=73.594788m. Speed=18.468000m/h.</desc>
<speed>5.130000</speed>
</trkpt>
<trkpt lat="21.035635" lon="106.781693">
<ele>69.969788</ele>
<time>2011-04-30T02:01:25Z</time>
<desc>lat.=21.035635, lon.=106.781693, Alt.=69.969788m. Speed=15.120000m/h.</desc>
<speed>4.200000</speed>
</trkpt>
<trkpt lat="21.035778" lon="106.781990">
<ele>63.406769</ele>
<time>2011-04-30T02:01:30Z</time>
<desc>lat.=21.035778, lon.=106.781990, Alt.=63.406769m. Speed=18.396000m/h.</desc>
<speed>5.110000</speed>
</trkpt>
<trkpt lat="21.035908" lon="106.782333">
<ele>62.178253</ele>
<time>2011-04-30T02:01:35Z</time>
<desc>lat.=21.035908, lon.=106.782333, Alt.=62.178253m. Speed=24.156000m/h.</desc>
<speed>6.710000</speed>
</trkpt>
<trkpt lat="21.036022" lon="106.782646">
<ele>60.964386</ele>
<time>2011-04-30T02:01:40Z</time>
<desc>lat.=21.036022, lon.=106.782646, Alt.=60.964386m. Speed=16.632000m/h.</desc>
<speed>4.620000</speed>
</trkpt>
<trkpt lat="21.036125" lon="106.783043">
<ele>63.394073</ele>
<time>2011-04-30T02:01:45Z</time>
<desc>lat.=21.036125, lon.=106.783043, Alt.=63.394073m. Speed=30.312000m/h.</desc>
<speed>8.420000</speed>
</trkpt>
<trkpt lat="21.036058" lon="106.783524">
<ele>65.294006</ele>
<time>2011-04-30T02:01:50Z</time>
<desc>lat.=21.036058, lon.=106.783524, Alt.=65.294006m. Speed=33.444000m/h.</desc>
<speed>9.290000</speed>
</trkpt>
<trkpt lat="21.035934" lon="106.784019">
<ele>68.803772</ele>
<time>2011-04-30T02:01:55Z</time>
<desc>lat.=21.035934, lon.=106.784019, Alt.=68.803772m. Speed=33.840000m/h.</desc>
<speed>9.400000</speed>
</trkpt>
<trkpt lat="21.035706" lon="106.784431">
<ele>69.336975</ele>
<time>2011-04-30T02:02:00Z</time>
<desc>lat.=21.035706, lon.=106.784431, Alt.=69.336975m. Speed=29.412001m/h.</desc>
<speed>8.170000</speed>
</trkpt>
<trkpt lat="21.035519" lon="106.784813">
<ele>69.553772</ele>
<time>2011-04-30T02:02:05Z</time>
<desc>lat.=21.035519, lon.=106.784813, Alt.=69.553772m. Speed=28.872000m/h.</desc>
<speed>8.020000</speed>
</trkpt>
<trkpt lat="21.035309" lon="106.785202">
<ele>66.893616</ele>
<time>2011-04-30T02:02:10Z</time>
<desc>lat.=21.035309, lon.=106.785202, Alt.=66.893616m. Speed=26.532000m/h.</desc>
<speed>7.370000</speed>
</trkpt>
<trkpt lat="21.035122" lon="106.785522">
<ele>64.463928</ele>
<time>2011-04-30T02:02:15Z</time>
<desc>lat.=21.035122, lon.=106.785522, Alt.=64.463928m. Speed=27.180000m/h.</desc>
<speed>7.550000</speed>
</trkpt>
<trkpt lat="21.034962" lon="106.785896">
<ele>64.788147</ele>
<time>2011-04-30T02:02:20Z</time>
<desc>lat.=21.034962, lon.=106.785896, Alt.=64.788147m. Speed=26.568001m/h.</desc>
<speed>7.380000</speed>
</trkpt>
<trkpt lat="21.034946" lon="106.786232">
<ele>67.297913</ele>
<time>2011-04-30T02:02:25Z</time>
<desc>lat.=21.034946, lon.=106.786232, Alt.=67.297913m. Speed=18.792000m/h.</desc>
<speed>5.220000</speed>
</trkpt>
<trkpt lat="21.034904" lon="106.786530">
<ele>69.030334</ele>
<time>2011-04-30T02:02:30Z</time>
<desc>lat.=21.034904, lon.=106.786530, Alt.=69.030334m. Speed=19.980000m/h.</desc>
<speed>5.550000</speed>
</trkpt>
<trkpt lat="21.034842" lon="106.786774">
<ele>71.518616</ele>
<time>2011-04-30T02:02:35Z</time>
<desc>lat.=21.034842, lon.=106.786774, Alt.=71.518616m. Speed=13.536000m/h.</desc>
<speed>3.760000</speed>
</trkpt>
<trkpt lat="21.034782" lon="106.787071">
<ele>74.989319</ele>
<time>2011-04-30T02:02:40Z</time>
<desc>lat.=21.034782, lon.=106.787071, Alt.=74.989319m. Speed=20.232000m/h.</desc>
<speed>5.620000</speed>
</trkpt>
<trkpt lat="21.034601" lon="106.787468">
<ele>76.381897</ele>
<time>2011-04-30T02:02:45Z</time>
<desc>lat.=21.034601, lon.=106.787468, Alt.=76.381897m. Speed=30.996000m/h.</desc>
<speed>8.610000</speed>
</trkpt>
<trkpt lat="21.034309" lon="106.787895">
<ele>77.241272</ele>
<time>2011-04-30T02:02:50Z</time>
<desc>lat.=21.034309, lon.=106.787895, Alt.=77.241272m. Speed=34.667999m/h.</desc>
<speed>9.630000</speed>
</trkpt>
<trkpt lat="21.033966" lon="106.788261">
<ele>77.774475</ele>
<time>2011-04-30T02:02:55Z</time>
<desc>lat.=21.033966, lon.=106.788261, Alt.=77.774475m. Speed=35.532001m/h.</desc>
<speed>9.870000</speed>
</trkpt>
<trkpt lat="21.033548" lon="106.788673">
<ele>77.614319</ele>
<time>2011-04-30T02:03:00Z</time>
<desc>lat.=21.033548, lon.=106.788673, Alt.=77.614319m. Speed=42.840000m/h.</desc>
<speed>11.900000</speed>
</trkpt>
<trkpt lat="21.033077" lon="106.789146">
<ele>76.749084</ele>
<time>2011-04-30T02:03:05Z</time>
<desc>lat.=21.033077, lon.=106.789146, Alt.=76.749084m. Speed=45.504002m/h.</desc>
<speed>12.640000</speed>
</trkpt>
<trkpt lat="21.032667" lon="106.789536">
<ele>74.297913</ele>
<time>2011-04-30T02:03:10Z</time>
<desc>lat.=21.032667, lon.=106.789536, Alt.=74.297913m. Speed=34.344002m/h.</desc>
<speed>9.540000</speed>
</trkpt>
<trkpt lat="21.032417" lon="106.789742">
<ele>69.104553</ele>
<time>2011-04-30T02:03:15Z</time>
<desc>lat.=21.032417, lon.=106.789742, Alt.=69.104553m. Speed=10.800000m/h.</desc>
<speed>3.000000</speed>
</trkpt>
<trkpt lat="21.032213" lon="106.789818">
<ele>61.597198</ele>
<time>2011-04-30T02:03:20Z</time>
<desc>lat.=21.032213, lon.=106.789818, Alt.=61.597198m. Speed=8.208000m/h.</desc>
<speed>2.280000</speed>
</trkpt>
<trkpt lat="21.032106" lon="106.789970">
<ele>58.575714</ele>
<time>2011-04-30T02:03:25Z</time>
<desc>lat.=21.032106, lon.=106.789970, Alt.=58.575714m. Speed=12.528000m/h.</desc>
<speed>3.480000</speed>
</trkpt>
<trkpt lat="21.032022" lon="106.790215">
<ele>58.374542</ele>
<time>2011-04-30T02:03:30Z</time>
<desc>lat.=21.032022, lon.=106.790215, Alt.=58.374542m. Speed=16.740000m/h.</desc>
<speed>4.650000</speed>
</trkpt>
<trkpt lat="21.032013" lon="106.790405">
<ele>57.869659</ele>
<time>2011-04-30T02:03:35Z</time>
<desc>lat.=21.032013, lon.=106.790405, Alt.=57.869659m. Speed=6.552000m/h.</desc>
<speed>1.820000</speed>
</trkpt>
<trkpt lat="21.032009" lon="106.790489">
<ele>57.790558</ele>
<time>2011-04-30T02:03:40Z</time>
<desc>lat.=21.032009, lon.=106.790489, Alt.=57.790558m. Speed=5.112000m/h.</desc>
<speed>1.420000</speed>
</trkpt>
<trkpt lat="21.031994" lon="106.790634">
<ele>60.332550</ele>
<time>2011-04-30T02:03:45Z</time>
<desc>lat.=21.031994, lon.=106.790634, Alt.=60.332550m. Speed=11.880000m/h.</desc>
<speed>3.300000</speed>
</trkpt>
<trkpt lat="21.032007" lon="106.790787">
<ele>59.918488</ele>
<time>2011-04-30T02:03:50Z</time>
<desc>lat.=21.032007, lon.=106.790787, Alt.=59.918488m. Speed=8.676000m/h.</desc>
<speed>2.410000</speed>
</trkpt>
<trkpt lat="21.031958" lon="106.791039">
<ele>57.828644</ele>
<time>2011-04-30T02:03:55Z</time>
<desc>lat.=21.031958, lon.=106.791039, Alt.=57.828644m. Speed=19.584000m/h.</desc>
<speed>5.440000</speed>
</trkpt>
<trkpt lat="21.031801" lon="106.791428">
<ele>55.738800</ele>
<time>2011-04-30T02:04:00Z</time>
<desc>lat.=21.031801, lon.=106.791428, Alt.=55.738800m. Speed=31.104000m/h.</desc>
<speed>8.640000</speed>
</trkpt>
<trkpt lat="21.031698" lon="106.791840">
<ele>55.046417</ele>
<time>2011-04-30T02:04:05Z</time>
<desc>lat.=21.031698, lon.=106.791840, Alt.=55.046417m. Speed=32.723999m/h.</desc>
<speed>9.090000</speed>
</trkpt>
<trkpt lat="21.031584" lon="106.792351">
<ele>54.597198</ele>
<time>2011-04-30T02:04:10Z</time>
<desc>lat.=21.031584, lon.=106.792351, Alt.=54.597198m. Speed=34.200001m/h.</desc>
<speed>9.500000</speed>
</trkpt>
<trkpt lat="21.031475" lon="106.792831">
<ele>55.817902</ele>
<time>2011-04-30T02:04:15Z</time>
<desc>lat.=21.031475, lon.=106.792831, Alt.=55.817902m. Speed=31.716000m/h.</desc>
<speed>8.810000</speed>
</trkpt>
<trkpt lat="21.031397" lon="106.793259">
<ele>50.524933</ele>
<time>2011-04-30T02:04:20Z</time>
<desc>lat.=21.031397, lon.=106.793259, Alt.=50.524933m. Speed=20.340000m/h.</desc>
<speed>5.650000</speed>
</trkpt>
<trkpt lat="21.031260" lon="106.793648">
<ele>43.247589</ele>
<time>2011-04-30T02:04:25Z</time>
<desc>lat.=21.031260, lon.=106.793648, Alt.=43.247589m. Speed=25.020000m/h.</desc>
<speed>6.950000</speed>
</trkpt>
<trkpt lat="21.031099" lon="106.794060">
<ele>38.086456</ele>
<time>2011-04-30T02:04:30Z</time>
<desc>lat.=21.031099, lon.=106.794060, Alt.=38.086456m. Speed=31.860001m/h.</desc>
<speed>8.850000</speed>
</trkpt>
<trkpt lat="21.030939" lon="106.794540">
<ele>32.664581</ele>
<time>2011-04-30T02:04:35Z</time>
<desc>lat.=21.030939, lon.=106.794540, Alt.=32.664581m. Speed=34.992001m/h.</desc>
<speed>9.720000</speed>
</trkpt>
<trkpt lat="21.030748" lon="106.794968">
<ele>29.820572</ele>
<time>2011-04-30T02:04:40Z</time>
<desc>lat.=21.030748, lon.=106.794968, Alt.=29.820572m. Speed=31.104000m/h.</desc>
<speed>8.640000</speed>
</trkpt>
<trkpt lat="21.030582" lon="106.795303">
<ele>27.012466</ele>
<time>2011-04-30T02:04:45Z</time>
<desc>lat.=21.030582, lon.=106.795303, Alt.=27.012466m. Speed=19.872000m/h.</desc>
<speed>5.520000</speed>
</trkpt>
<trkpt lat="21.030481" lon="106.795486">
<ele>23.830826</ele>
<time>2011-04-30T02:04:50Z</time>
<desc>lat.=21.030481, lon.=106.795486, Alt.=23.830826m. Speed=12.708000m/h.</desc>
<speed>3.530000</speed>
</trkpt>
<trkpt lat="21.030384" lon="106.795685">
<ele>22.330826</ele>
<time>2011-04-30T02:04:55Z</time>
<desc>lat.=21.030384, lon.=106.795685, Alt.=22.330826m. Speed=17.063999m/h.</desc>
<speed>4.740000</speed>
</trkpt>
<trkpt lat="21.030249" lon="106.795982">
<ele>18.409927</ele>
<time>2011-04-30T02:05:00Z</time>
<desc>lat.=21.030249, lon.=106.795982, Alt.=18.409927m. Speed=21.455999m/h.</desc>
<speed>5.960000</speed>
</trkpt>
<trkpt lat="21.030077" lon="106.796310">
<ele>16.522232</ele>
<time>2011-04-30T02:05:05Z</time>
<desc>lat.=21.030077, lon.=106.796310, Alt.=16.522232m. Speed=36.863998m/h.</desc>
<speed>10.240000</speed>
</trkpt>
<trkpt lat="21.029844" lon="106.796829">
<ele>15.691780</ele>
<time>2011-04-30T02:05:10Z</time>
<desc>lat.=21.029844, lon.=106.796829, Alt.=15.691780m. Speed=44.784000m/h.</desc>
<speed>12.440000</speed>
</trkpt>
<trkpt lat="21.029585" lon="106.797401">
<ele>11.295296</ele>
<time>2011-04-30T02:05:15Z</time>
<desc>lat.=21.029585, lon.=106.797401, Alt.=11.295296m. Speed=45.467999m/h.</desc>
<speed>12.630000</speed>
</trkpt>
<trkpt lat="21.029310" lon="106.797966">
<ele>10.068245</ele>
<time>2011-04-30T02:05:20Z</time>
<desc>lat.=21.029310, lon.=106.797966, Alt.=10.068245m. Speed=48.276001m/h.</desc>
<speed>13.410000</speed>
</trkpt>
<trkpt lat="21.028996" lon="106.798561">
<ele>10.038460</ele>
<time>2011-04-30T02:05:25Z</time>
<desc>lat.=21.028996, lon.=106.798561, Alt.=10.038460m. Speed=48.779999m/h.</desc>
<speed>13.550000</speed>
</trkpt>
<trkpt lat="21.028717" lon="106.799156">
<ele>7.658390</ele>
<time>2011-04-30T02:05:30Z</time>
<desc>lat.=21.028717, lon.=106.799156, Alt.=7.658390m. Speed=44.424000m/h.</desc>
<speed>12.340000</speed>
</trkpt>
<trkpt lat="21.028452" lon="106.799660">
<ele>4.851017</ele>
<time>2011-04-30T02:05:35Z</time>
<desc>lat.=21.028452, lon.=106.799660, Alt.=4.851017m. Speed=36.071999m/h.</desc>
<speed>10.020000</speed>
</trkpt>
<trkpt lat="21.028297" lon="106.800011">
<ele>4.281071</ele>
<time>2011-04-30T02:05:40Z</time>
<desc>lat.=21.028297, lon.=106.800011, Alt.=4.281071m. Speed=23.796000m/h.</desc>
<speed>6.610000</speed>
</trkpt>
<trkpt lat="21.028185" lon="106.800240">
<ele>3.652864</ele>
<time>2011-04-30T02:05:45Z</time>
<desc>lat.=21.028185, lon.=106.800240, Alt.=3.652864m. Speed=12.780000m/h.</desc>
<speed>3.550000</speed>
</trkpt>
<trkpt lat="21.028126" lon="106.800377">
<ele>3.477327</ele>
<time>2011-04-30T02:05:50Z</time>
<desc>lat.=21.028126, lon.=106.800377, Alt.=3.477327m. Speed=14.076000m/h.</desc>
<speed>3.910000</speed>
</trkpt>
<trkpt lat="21.028006" lon="106.800591">
<ele>2.949373</ele>
<time>2011-04-30T02:05:55Z</time>
<desc>lat.=21.028006, lon.=106.800591, Alt.=2.949373m. Speed=20.879999m/h.</desc>
<speed>5.800000</speed>
</trkpt>
<trkpt lat="21.027889" lon="106.800827">
<ele>3.321138</ele>
<time>2011-04-30T02:06:00Z</time>
<desc>lat.=21.027889, lon.=106.800827, Alt.=3.321138m. Speed=21.167999m/h.</desc>
<speed>5.880000</speed>
</trkpt>
<trkpt lat="21.027697" lon="106.801178">
<ele>3.051424</ele>
<time>2011-04-30T02:06:05Z</time>
<desc>lat.=21.027697, lon.=106.801178, Alt.=3.051424m. Speed=36.108002m/h.</desc>
<speed>10.030000</speed>
</trkpt>
<trkpt lat="21.027473" lon="106.801643">
<ele>1.602067</ele>
<time>2011-04-30T02:06:10Z</time>
<desc>lat.=21.027473, lon.=106.801643, Alt.=1.602067m. Speed=39.924000m/h.</desc>
<speed>11.090000</speed>
</trkpt>
<trkpt lat="21.027193" lon="106.802185">
<ele>0.490338</ele>
<time>2011-04-30T02:06:15Z</time>
<desc>lat.=21.027193, lon.=106.802185, Alt.=0.490338m. Speed=46.619999m/h.</desc>
<speed>12.950000</speed>
</trkpt>
<trkpt lat="21.026907" lon="106.802795">
<ele>0.330960</ele>
<time>2011-04-30T02:06:20Z</time>
<desc>lat.=21.026907, lon.=106.802795, Alt.=0.330960m. Speed=46.259998m/h.</desc>
<speed>12.850000</speed>
</trkpt>
<trkpt lat="21.026632" lon="106.803322">
<ele>1.371171</ele>
<time>2011-04-30T02:06:25Z</time>
<desc>lat.=21.026632, lon.=106.803322, Alt.=1.371171m. Speed=45.756001m/h.</desc>
<speed>12.710000</speed>
</trkpt>
<trkpt lat="21.026329" lon="106.803879">
<ele>2.826265</ele>
<time>2011-04-30T02:06:30Z</time>
<desc>lat.=21.026329, lon.=106.803879, Alt.=2.826265m. Speed=49.860001m/h.</desc>
<speed>13.850000</speed>
</trkpt>
<trkpt lat="21.026016" lon="106.804466">
<ele>4.100040</ele>
<time>2011-04-30T02:06:35Z</time>
<desc>lat.=21.026016, lon.=106.804466, Alt.=4.100040m. Speed=51.048000m/h.</desc>
<speed>14.180000</speed>
</trkpt>
<trkpt lat="21.025728" lon="106.805023">
<ele>6.440495</ele>
<time>2011-04-30T02:06:40Z</time>
<desc>lat.=21.025728, lon.=106.805023, Alt.=6.440495m. Speed=46.764000m/h.</desc>
<speed>12.990000</speed>
</trkpt>
<trkpt lat="21.025480" lon="106.805527">
<ele>7.920841</ele>
<time>2011-04-30T02:06:45Z</time>
<desc>lat.=21.025480, lon.=106.805527, Alt.=7.920841m. Speed=38.520000m/h.</desc>
<speed>10.700000</speed>
</trkpt>
<trkpt lat="21.025249" lon="106.806030">
<ele>8.989876</ele>
<time>2011-04-30T02:06:50Z</time>
<desc>lat.=21.025249, lon.=106.806030, Alt.=8.989876m. Speed=44.712002m/h.</desc>
<speed>12.420001</speed>
</trkpt>
<trkpt lat="21.024946" lon="106.806602">
<ele>9.548470</ele>
<time>2011-04-30T02:06:55Z</time>
<desc>lat.=21.024946, lon.=106.806602, Alt.=9.548470m. Speed=41.868000m/h.</desc>
<speed>11.630000</speed>
</trkpt>
<trkpt lat="21.024725" lon="106.806953">
<ele>10.280891</ele>
<time>2011-04-30T02:07:00Z</time>
<desc>lat.=21.024725, lon.=106.806953, Alt.=10.280891m. Speed=17.424000m/h.</desc>
<speed>4.840000</speed>
</trkpt>
<trkpt lat="21.024675" lon="106.807022">
<ele>11.001839</ele>
<time>2011-04-30T02:07:05Z</time>
<desc>lat.=21.024675, lon.=106.807022, Alt.=11.001839m. Speed=0.900000m/h.</desc>
<speed>0.250000</speed>
</trkpt>
<trkpt lat="21.024670" lon="106.807022">
<ele>11.319221</ele>
<time>2011-04-30T02:07:10Z</time>
<desc>lat.=21.024670, lon.=106.807022, Alt.=11.319221m. Speed=0.648000m/h.</desc>
<speed>0.180000</speed>
</trkpt>
<trkpt lat="21.024668" lon="106.807014">
<ele>11.399055</ele>
<time>2011-04-30T02:07:15Z</time>
<desc>lat.=21.024668, lon.=106.807014, Alt.=11.399055m. Speed=0.216000m/h.</desc>
<speed>0.060000</speed>
</trkpt>
<trkpt lat="21.024668" lon="106.807007">
<ele>11.435188</ele>
<time>2011-04-30T02:07:20Z</time>
<desc>lat.=21.024668, lon.=106.807007, Alt.=11.435188m. Speed=0.792000m/h.</desc>
<speed>0.220000</speed>
</trkpt>
<trkpt lat="21.024668" lon="106.807007">
<ele>11.455452</ele>
<time>2011-04-30T02:07:25Z</time>
<desc>lat.=21.024668, lon.=106.807007, Alt.=11.455452m. Speed=0.612000m/h.</desc>
<speed>0.170000</speed>
</trkpt>
<trkpt lat="21.024660" lon="106.807007">
<ele>11.466927</ele>
<time>2011-04-30T02:07:30Z</time>
<desc>lat.=21.024660, lon.=106.807007, Alt.=11.466927m. Speed=0.792000m/h.</desc>
<speed>0.220000</speed>
</trkpt>
<trkpt lat="21.024614" lon="106.807083">
<ele>11.714241</ele>
<time>2011-04-30T02:07:35Z</time>
<desc>lat.=21.024614, lon.=106.807083, Alt.=11.714241m. Speed=11.448000m/h.</desc>
<speed>3.180000</speed>
</trkpt>
<trkpt lat="21.024498" lon="106.807312">
<ele>12.720345</ele>
<time>2011-04-30T02:07:40Z</time>
<desc>lat.=21.024498, lon.=106.807312, Alt.=12.720345m. Speed=20.483999m/h.</desc>
<speed>5.690000</speed>
</trkpt>
<trkpt lat="21.024361" lon="106.807648">
<ele>13.906868</ele>
<time>2011-04-30T02:07:45Z</time>
<desc>lat.=21.024361, lon.=106.807648, Alt.=13.906868m. Speed=30.959999m/h.</desc>
<speed>8.600000</speed>
</trkpt>
<trkpt lat="21.024132" lon="106.808090">
<ele>14.926155</ele>
<time>2011-04-30T02:07:50Z</time>
<desc>lat.=21.024132, lon.=106.808090, Alt.=14.926155m. Speed=35.855999m/h.</desc>
<speed>9.960000</speed>
</trkpt>
<trkpt lat="21.023891" lon="106.808586">
<ele>15.831429</ele>
<time>2011-04-30T02:07:55Z</time>
<desc>lat.=21.023891, lon.=106.808586, Alt.=15.831429m. Speed=38.484001m/h.</desc>
<speed>10.690000</speed>
</trkpt>
<trkpt lat="21.023647" lon="106.809074">
<ele>16.781509</ele>
<time>2011-04-30T02:08:00Z</time>
<desc>lat.=21.023647, lon.=106.809074, Alt.=16.781509m. Speed=39.672001m/h.</desc>
<speed>11.020000</speed>
</trkpt>
<trkpt lat="21.023357" lon="106.809486">
<ele>17.172623</ele>
<time>2011-04-30T02:08:05Z</time>
<desc>lat.=21.023357, lon.=106.809486, Alt.=17.172623m. Speed=32.256001m/h.</desc>
<speed>8.960000</speed>
</trkpt>
<trkpt lat="21.023087" lon="106.809814">
<ele>17.114517</ele>
<time>2011-04-30T02:08:10Z</time>
<desc>lat.=21.023087, lon.=106.809814, Alt.=17.114517m. Speed=24.912001m/h.</desc>
<speed>6.920000</speed>
</trkpt>
<trkpt lat="21.022839" lon="106.810120">
<ele>16.578873</ele>
<time>2011-04-30T02:08:15Z</time>
<desc>lat.=21.022839, lon.=106.810120, Alt.=16.578873m. Speed=30.888000m/h.</desc>
<speed>8.580000</speed>
</trkpt>
<trkpt lat="21.022518" lon="106.810509">
<ele>15.617317</ele>
<time>2011-04-30T02:08:20Z</time>
<desc>lat.=21.022518, lon.=106.810509, Alt.=15.617317m. Speed=37.764000m/h.</desc>
<speed>10.490000</speed>
</trkpt>
<trkpt lat="21.022192" lon="106.810928">
<ele>15.317268</ele>
<time>2011-04-30T02:08:25Z</time>
<desc>lat.=21.022192, lon.=106.810928, Alt.=15.317268m. Speed=40.896000m/h.</desc>
<speed>11.360000</speed>
</trkpt>
<trkpt lat="21.021875" lon="106.811302">
<ele>15.588753</ele>
<time>2011-04-30T02:08:30Z</time>
<desc>lat.=21.021875, lon.=106.811302, Alt.=15.588753m. Speed=37.223999m/h.</desc>
<speed>10.340000</speed>
</trkpt>
<trkpt lat="21.021561" lon="106.811646">
<ele>16.291275</ele>
<time>2011-04-30T02:08:35Z</time>
<desc>lat.=21.021561, lon.=106.811646, Alt.=16.291275m. Speed=29.520000m/h.</desc>
<speed>8.200000</speed>
</trkpt>
<trkpt lat="21.021355" lon="106.811928">
<ele>16.600357</ele>
<time>2011-04-30T02:08:40Z</time>
<desc>lat.=21.021355, lon.=106.811928, Alt.=16.600357m. Speed=23.868000m/h.</desc>
<speed>6.630000</speed>
</trkpt>
<trkpt lat="21.021091" lon="106.812172">
<ele>16.312759</ele>
<time>2011-04-30T02:08:45Z</time>
<desc>lat.=21.021091, lon.=106.812172, Alt.=16.312759m. Speed=28.188000m/h.</desc>
<speed>7.830000</speed>
</trkpt>
<trkpt lat="21.020800" lon="106.812492">
<ele>15.146858</ele>
<time>2011-04-30T02:08:50Z</time>
<desc>lat.=21.020800, lon.=106.812492, Alt.=15.146858m. Speed=29.448000m/h.</desc>
<speed>8.180000</speed>
</trkpt>
<trkpt lat="21.020565" lon="106.812744">
<ele>14.766731</ele>
<time>2011-04-30T02:08:55Z</time>
<desc>lat.=21.020565, lon.=106.812744, Alt.=14.766731m. Speed=21.816000m/h.</desc>
<speed>6.060000</speed>
</trkpt>
<trkpt lat="21.020409" lon="106.812912">
<ele>14.534065</ele>
<time>2011-04-30T02:09:00Z</time>
<desc>lat.=21.020409, lon.=106.812912, Alt.=14.534065m. Speed=18.576000m/h.</desc>
<speed>5.160000</speed>
</trkpt>
<trkpt lat="21.020248" lon="106.813141">
<ele>15.125862</ele>
<time>2011-04-30T02:09:05Z</time>
<desc>lat.=21.020248, lon.=106.813141, Alt.=15.125862m. Speed=15.732000m/h.</desc>
<speed>4.370000</speed>
</trkpt>
<trkpt lat="21.020081" lon="106.813385">
<ele>14.909309</ele>
<time>2011-04-30T02:09:10Z</time>
<desc>lat.=21.020081, lon.=106.813385, Alt.=14.909309m. Speed=25.020000m/h.</desc>
<speed>6.950000</speed>
</trkpt>
<trkpt lat="21.019897" lon="106.813744">
<ele>16.589615</ele>
<time>2011-04-30T02:09:15Z</time>
<desc>lat.=21.019897, lon.=106.813744, Alt.=16.589615m. Speed=36.827999m/h.</desc>
<speed>10.230000</speed>
</trkpt>
<trkpt lat="21.019613" lon="106.814293">
<ele>18.557877</ele>
<time>2011-04-30T02:09:20Z</time>
<desc>lat.=21.019613, lon.=106.814293, Alt.=18.557877m. Speed=46.080002m/h.</desc>
<speed>12.800001</speed>
</trkpt>
<trkpt lat="21.019320" lon="106.814873">
<ele>20.095474</ele>
<time>2011-04-30T02:09:25Z</time>
<desc>lat.=21.019320, lon.=106.814873, Alt.=20.095474m. Speed=49.967999m/h.</desc>
<speed>13.880000</speed>
</trkpt>
<trkpt lat="21.018965" lon="106.815552">
<ele>21.636978</ele>
<time>2011-04-30T02:09:30Z</time>
<desc>lat.=21.018965, lon.=106.815552, Alt.=21.636978m. Speed=56.987999m/h.</desc>
<speed>15.830000</speed>
</trkpt>
<trkpt lat="21.018620" lon="106.816254">
<ele>23.032974</ele>
<time>2011-04-30T02:09:35Z</time>
<desc>lat.=21.018620, lon.=106.816254, Alt.=23.032974m. Speed=51.155998m/h.</desc>
<speed>14.210000</speed>
</trkpt>
<trkpt lat="21.018320" lon="106.816887">
<ele>21.113541</ele>
<time>2011-04-30T02:09:40Z</time>
<desc>lat.=21.018320, lon.=106.816887, Alt.=21.113541m. Speed=48.132000m/h.</desc>
<speed>13.370000</speed>
</trkpt>
<trkpt lat="21.018015" lon="106.817482">
<ele>20.541275</ele>
<time>2011-04-30T02:09:45Z</time>
<desc>lat.=21.018015, lon.=106.817482, Alt.=20.541275m. Speed=48.060001m/h.</desc>
<speed>13.350000</speed>
</trkpt>
<trkpt lat="21.017735" lon="106.818092">
<ele>20.698990</ele>
<time>2011-04-30T02:09:50Z</time>
<desc>lat.=21.017735, lon.=106.818092, Alt.=20.698990m. Speed=49.428001m/h.</desc>
<speed>13.730000</speed>
</trkpt>
<trkpt lat="21.017464" lon="106.818695">
<ele>19.433365</ele>
<time>2011-04-30T02:09:55Z</time>
<desc>lat.=21.017464, lon.=106.818695, Alt.=19.433365m. Speed=49.175999m/h.</desc>
<speed>13.660000</speed>
</trkpt>
<trkpt lat="21.017218" lon="106.819313">
<ele>17.658463</ele>
<time>2011-04-30T02:10:00Z</time>
<desc>lat.=21.017218, lon.=106.819313, Alt.=17.658463m. Speed=47.124001m/h.</desc>
<speed>13.090000</speed>
</trkpt>
<trkpt lat="21.017000" lon="106.819855">
<ele>16.633072</ele>
<time>2011-04-30T02:10:05Z</time>
<desc>lat.=21.017000, lon.=106.819855, Alt.=16.633072m. Speed=38.268002m/h.</desc>
<speed>10.630000</speed>
</trkpt>
<trkpt lat="21.016819" lon="106.820328">
<ele>16.207291</ele>
<time>2011-04-30T02:10:10Z</time>
<desc>lat.=21.016819, lon.=106.820328, Alt.=16.207291m. Speed=38.844002m/h.</desc>
<speed>10.790000</speed>
</trkpt>
<trkpt lat="21.016638" lon="106.820839">
<ele>15.161995</ele>
<time>2011-04-30T02:10:15Z</time>
<desc>lat.=21.016638, lon.=106.820839, Alt.=15.161995m. Speed=38.627998m/h.</desc>
<speed>10.730000</speed>
</trkpt>
<trkpt lat="21.016434" lon="106.821312">
<ele>14.233528</ele>
<time>2011-04-30T02:10:20Z</time>
<desc>lat.=21.016434, lon.=106.821312, Alt.=14.233528m. Speed=36.360001m/h.</desc>
<speed>10.100000</speed>
</trkpt>
<trkpt lat="21.016272" lon="106.821785">
<ele>13.557503</ele>
<time>2011-04-30T02:10:25Z</time>
<desc>lat.=21.016272, lon.=106.821785, Alt.=13.557503m. Speed=34.560001m/h.</desc>
<speed>9.600000</speed>
</trkpt>
<trkpt lat="21.016113" lon="106.822227">
<ele>11.519417</ele>
<time>2011-04-30T02:10:30Z</time>
<desc>lat.=21.016113, lon.=106.822227, Alt.=11.519417m. Speed=33.119999m/h.</desc>
<speed>9.200000</speed>
</trkpt>
<trkpt lat="21.015972" lon="106.822716">
<ele>9.232552</ele>
<time>2011-04-30T02:10:35Z</time>
<desc>lat.=21.015972, lon.=106.822716, Alt.=9.232552m. Speed=36.431999m/h.</desc>
<speed>10.120000</speed>
</trkpt>
<trkpt lat="21.015839" lon="106.823196">
<ele>7.481022</ele>
<time>2011-04-30T02:10:40Z</time>
<desc>lat.=21.015839, lon.=106.823196, Alt.=7.481022m. Speed=38.268002m/h.</desc>
<speed>10.630000</speed>
</trkpt>
<trkpt lat="21.015684" lon="106.823677">
<ele>5.490177</ele>
<time>2011-04-30T02:10:45Z</time>
<desc>lat.=21.015684, lon.=106.823677, Alt.=5.490177m. Speed=34.883999m/h.</desc>
<speed>9.690000</speed>
</trkpt>
<trkpt lat="21.015543" lon="106.824219">
<ele>3.764193</ele>
<time>2011-04-30T02:10:50Z</time>
<desc>lat.=21.015543, lon.=106.824219, Alt.=3.764193m. Speed=38.952000m/h.</desc>
<speed>10.820000</speed>
</trkpt>
<trkpt lat="21.015398" lon="106.824738">
<ele>3.166597</ele>
<time>2011-04-30T02:10:55Z</time>
<desc>lat.=21.015398, lon.=106.824738, Alt.=3.166597m. Speed=38.844002m/h.</desc>
<speed>10.790000</speed>
</trkpt>
<trkpt lat="21.015255" lon="106.825287">
<ele>1.948350</ele>
<time>2011-04-30T02:11:00Z</time>
<desc>lat.=21.015255, lon.=106.825287, Alt.=1.948350m. Speed=42.264000m/h.</desc>
<speed>11.740000</speed>
</trkpt>
<trkpt lat="21.015116" lon="106.825867">
<ele>-0.896492</ele>
<time>2011-04-30T02:11:05Z</time>
<desc>lat.=21.015116, lon.=106.825867, Alt.=-0.896492m. Speed=39.924000m/h.</desc>
<speed>11.090000</speed>
</trkpt>
<trkpt lat="21.014957" lon="106.826416">
<ele>-1.504228</ele>
<time>2011-04-30T02:11:10Z</time>
<desc>lat.=21.014957, lon.=106.826416, Alt.=-1.504228m. Speed=43.776001m/h.</desc>
<speed>12.160000</speed>
</trkpt>
<trkpt lat="21.014774" lon="106.826996">
<ele>-1.774980</ele>
<time>2011-04-30T02:11:15Z</time>
<desc>lat.=21.014774, lon.=106.826996, Alt.=-1.774980m. Speed=39.636002m/h.</desc>
<speed>11.010000</speed>
</trkpt>
<trkpt lat="21.014647" lon="106.827568">
<ele>-3.049288</ele>
<time>2011-04-30T02:11:20Z</time>
<desc>lat.=21.014647, lon.=106.827568, Alt.=-3.049288m. Speed=43.632000m/h.</desc>
<speed>12.120000</speed>
</trkpt>
<trkpt lat="21.014503" lon="106.828064">
<ele>-3.945955</ele>
<time>2011-04-30T02:11:25Z</time>
<desc>lat.=21.014503, lon.=106.828064, Alt.=-3.945955m. Speed=29.664000m/h.</desc>
<speed>8.240000</speed>
</trkpt>
<trkpt lat="21.014336" lon="106.828506">
<ele>-1.809190</ele>
<time>2011-04-30T02:11:30Z</time>
<desc>lat.=21.014336, lon.=106.828506, Alt.=-1.809190m. Speed=30.672001m/h.</desc>
<speed>8.520000</speed>
</trkpt>
<trkpt lat="21.014231" lon="106.828781">
<ele>2.920992</ele>
<time>2011-04-30T02:11:35Z</time>
<desc>lat.=21.014231, lon.=106.828781, Alt.=2.920992m. Speed=12.024000m/h.</desc>
<speed>3.340000</speed>
</trkpt>
<trkpt lat="21.014189" lon="106.828842">
<ele>5.484440</ele>
<time>2011-04-30T02:11:40Z</time>
<desc>lat.=21.014189, lon.=106.828842, Alt.=5.484440m. Speed=4.284000m/h.</desc>
<speed>1.190000</speed>
</trkpt>
<trkpt lat="21.014124" lon="106.828987">
<ele>6.329533</ele>
<time>2011-04-30T02:11:45Z</time>
<desc>lat.=21.014124, lon.=106.828987, Alt.=6.329533m. Speed=12.636000m/h.</desc>
<speed>3.510000</speed>
</trkpt>
<trkpt lat="21.013983" lon="106.829163">
<ele>5.395695</ele>
<time>2011-04-30T02:11:50Z</time>
<desc>lat.=21.013983, lon.=106.829163, Alt.=5.395695m. Speed=15.732000m/h.</desc>
<speed>4.370000</speed>
</trkpt>
<trkpt lat="21.013807" lon="106.829384">
<ele>6.297306</ele>
<time>2011-04-30T02:11:55Z</time>
<desc>lat.=21.013807, lon.=106.829384, Alt.=6.297306m. Speed=19.368000m/h.</desc>
<speed>5.380000</speed>
</trkpt>
<trkpt lat="21.013561" lon="106.829636">
<ele>5.750431</ele>
<time>2011-04-30T02:12:00Z</time>
<desc>lat.=21.013561, lon.=106.829636, Alt.=5.750431m. Speed=27.468000m/h.</desc>
<speed>7.630000</speed>
</trkpt>
<trkpt lat="21.013292" lon="106.829918">
<ele>4.439518</ele>
<time>2011-04-30T02:12:05Z</time>
<desc>lat.=21.013292, lon.=106.829918, Alt.=4.439518m. Speed=27.180000m/h.</desc>
<speed>7.550000</speed>
</trkpt>
<trkpt lat="21.012978" lon="106.830223">
<ele>3.320772</ele>
<time>2011-04-30T02:12:10Z</time>
<desc>lat.=21.012978, lon.=106.830223, Alt.=3.320772m. Speed=33.804001m/h.</desc>
<speed>9.390000</speed>
</trkpt>
<trkpt lat="21.012594" lon="106.830612">
<ele>1.879075</ele>
<time>2011-04-30T02:12:15Z</time>
<desc>lat.=21.012594, lon.=106.830612, Alt.=1.879075m. Speed=40.068001m/h.</desc>
<speed>11.130000</speed>
</trkpt>
<trkpt lat="21.012213" lon="106.831062">
<ele>1.739823</ele>
<time>2011-04-30T02:12:20Z</time>
<desc>lat.=21.012213, lon.=106.831062, Alt.=1.739823m. Speed=46.728001m/h.</desc>
<speed>12.980000</speed>
</trkpt>
<trkpt lat="21.011961" lon="106.831688">
<ele>4.556583</ele>
<time>2011-04-30T02:12:25Z</time>
<desc>lat.=21.011961, lon.=106.831688, Alt.=4.556583m. Speed=56.051998m/h.</desc>
<speed>15.569999</speed>
</trkpt>
<trkpt lat="21.011753" lon="106.832443">
<ele>5.601383</ele>
<time>2011-04-30T02:12:30Z</time>
<desc>lat.=21.011753, lon.=106.832443, Alt.=5.601383m. Speed=55.007999m/h.</desc>
<speed>15.280000</speed>
</trkpt>
<trkpt lat="21.011526" lon="106.833138">
<ele>5.623112</ele>
<time>2011-04-30T02:12:35Z</time>
<desc>lat.=21.011526, lon.=106.833138, Alt.=5.623112m. Speed=53.352001m/h.</desc>
<speed>14.820000</speed>
</trkpt>
<trkpt lat="21.011242" lon="106.833801">
<ele>5.505924</ele>
<time>2011-04-30T02:12:40Z</time>
<desc>lat.=21.011242, lon.=106.833801, Alt.=5.505924m. Speed=50.903999m/h.</desc>
<speed>14.140000</speed>
</trkpt>
<trkpt lat="21.010824" lon="106.834297">
<ele>6.440372</ele>
<time>2011-04-30T02:12:45Z</time>
<desc>lat.=21.010824, lon.=106.834297, Alt.=6.440372m. Speed=42.695999m/h.</desc>
<speed>11.860000</speed>
</trkpt>
<trkpt lat="21.010435" lon="106.834610">
<ele>9.248665</ele>
<time>2011-04-30T02:12:50Z</time>
<desc>lat.=21.010435, lon.=106.834610, Alt.=9.248665m. Speed=35.172001m/h.</desc>
<speed>9.770000</speed>
</trkpt>
<trkpt lat="21.009991" lon="106.834869">
<ele>8.081429</ele>
<time>2011-04-30T02:12:55Z</time>
<desc>lat.=21.009991, lon.=106.834869, Alt.=8.081429m. Speed=44.532001m/h.</desc>
<speed>12.370000</speed>
</trkpt>
<trkpt lat="21.009533" lon="106.835182">
<ele>6.824894</ele>
<time>2011-04-30T02:13:00Z</time>
<desc>lat.=21.009533, lon.=106.835182, Alt.=6.824894m. Speed=38.340000m/h.</desc>
<speed>10.650000</speed>
</trkpt>
<trkpt lat="21.009108" lon="106.835419">
<ele>5.944523</ele>
<time>2011-04-30T02:13:05Z</time>
<desc>lat.=21.009108, lon.=106.835419, Alt.=5.944523m. Speed=38.375999m/h.</desc>
<speed>10.660000</speed>
</trkpt>
<trkpt lat="21.008661" lon="106.835709">
<ele>5.238956</ele>
<time>2011-04-30T02:13:10Z</time>
<desc>lat.=21.008661, lon.=106.835709, Alt.=5.238956m. Speed=41.868000m/h.</desc>
<speed>11.630000</speed>
</trkpt>
<trkpt lat="21.008232" lon="106.836052">
<ele>4.157536</ele>
<time>2011-04-30T02:13:15Z</time>
<desc>lat.=21.008232, lon.=106.836052, Alt.=4.157536m. Speed=38.844002m/h.</desc>
<speed>10.790000</speed>
</trkpt>
<trkpt lat="21.007898" lon="106.836487">
<ele>3.011080</ele>
<time>2011-04-30T02:13:20Z</time>
<desc>lat.=21.007898, lon.=106.836487, Alt.=3.011080m. Speed=39.383999m/h.</desc>
<speed>10.940000</speed>
</trkpt>
<trkpt lat="21.007669" lon="106.836922">
<ele>4.283634</ele>
<time>2011-04-30T02:13:25Z</time>
<desc>lat.=21.007669, lon.=106.836922, Alt.=4.283634m. Speed=33.804001m/h.</desc>
<speed>9.390000</speed>
</trkpt>
<trkpt lat="21.007526" lon="106.837364">
<ele>5.984074</ele>
<time>2011-04-30T02:13:30Z</time>
<desc>lat.=21.007526, lon.=106.837364, Alt.=5.984074m. Speed=33.875999m/h.</desc>
<speed>9.410000</speed>
</trkpt>
<trkpt lat="21.007416" lon="106.837860">
<ele>6.094547</ele>
<time>2011-04-30T02:13:35Z</time>
<desc>lat.=21.007416, lon.=106.837860, Alt.=6.094547m. Speed=37.296001m/h.</desc>
<speed>10.360000</speed>
</trkpt>
<trkpt lat="21.007278" lon="106.838402">
<ele>7.178532</ele>
<time>2011-04-30T02:13:40Z</time>
<desc>lat.=21.007278, lon.=106.838402, Alt.=7.178532m. Speed=42.624001m/h.</desc>
<speed>11.840000</speed>
</trkpt>
<trkpt lat="21.007130" lon="106.838921">
<ele>5.261784</ele>
<time>2011-04-30T02:13:45Z</time>
<desc>lat.=21.007130, lon.=106.838921, Alt.=5.261784m. Speed=36.936001m/h.</desc>
<speed>10.260000</speed>
</trkpt>
<trkpt lat="21.006943" lon="106.839424">
<ele>3.876741</ele>
<time>2011-04-30T02:13:50Z</time>
<desc>lat.=21.006943, lon.=106.839424, Alt.=3.876741m. Speed=37.296001m/h.</desc>
<speed>10.360000</speed>
</trkpt>
<trkpt lat="21.006760" lon="106.839943">
<ele>3.405855</ele>
<time>2011-04-30T02:13:55Z</time>
<desc>lat.=21.006760, lon.=106.839943, Alt.=3.405855m. Speed=38.556000m/h.</desc>
<speed>10.710000</speed>
</trkpt>
<trkpt lat="21.006599" lon="106.840424">
<ele>5.357609</ele>
<time>2011-04-30T02:14:00Z</time>
<desc>lat.=21.006599, lon.=106.840424, Alt.=5.357609m. Speed=38.807999m/h.</desc>
<speed>10.780000</speed>
</trkpt>
<trkpt lat="21.006495" lon="106.840927">
<ele>3.899569</ele>
<time>2011-04-30T02:14:05Z</time>
<desc>lat.=21.006495, lon.=106.840927, Alt.=3.899569m. Speed=35.675999m/h.</desc>
<speed>9.910000</speed>
</trkpt>
<trkpt lat="21.006420" lon="106.841377">
<ele>4.988956</ele>
<time>2011-04-30T02:14:10Z</time>
<desc>lat.=21.006420, lon.=106.841377, Alt.=4.988956m. Speed=32.256001m/h.</desc>
<speed>8.960000</speed>
</trkpt>
<trkpt lat="21.006376" lon="106.841858">
<ele>3.464937</ele>
<time>2011-04-30T02:14:15Z</time>
<desc>lat.=21.006376, lon.=106.841858, Alt.=3.464937m. Speed=35.172001m/h.</desc>
<speed>9.770000</speed>
</trkpt>
<trkpt lat="21.006294" lon="106.842369">
<ele>2.914888</ele>
<time>2011-04-30T02:14:20Z</time>
<desc>lat.=21.006294, lon.=106.842369, Alt.=2.914888m. Speed=40.391998m/h.</desc>
<speed>11.220000</speed>
</trkpt>
<trkpt lat="21.006176" lon="106.842903">
<ele>1.478471</ele>
<time>2011-04-30T02:14:25Z</time>
<desc>lat.=21.006176, lon.=106.842903, Alt.=1.478471m. Speed=39.563999m/h.</desc>
<speed>10.990000</speed>
</trkpt>
<trkpt lat="21.006065" lon="106.843399">
<ele>0.030955</ele>
<time>2011-04-30T02:14:30Z</time>
<desc>lat.=21.006065, lon.=106.843399, Alt.=0.030955m. Speed=37.188000m/h.</desc>
<speed>10.330000</speed>
</trkpt>
<trkpt lat="21.005955" lon="106.843864">
<ele>-3.119905</ele>
<time>2011-04-30T02:14:35Z</time>
<desc>lat.=21.005955, lon.=106.843864, Alt.=-3.119905m. Speed=37.764000m/h.</desc>
<speed>10.490000</speed>
</trkpt>
<trkpt lat="21.005852" lon="106.844337">
<ele>-5.615788</ele>
<time>2011-04-30T02:14:40Z</time>
<desc>lat.=21.005852, lon.=106.844337, Alt.=-5.615788m. Speed=32.580002m/h.</desc>
<speed>9.050001</speed>
</trkpt>
<trkpt lat="21.005760" lon="106.844749">
<ele>-7.006290</ele>
<time>2011-04-30T02:14:45Z</time>
<desc>lat.=21.005760, lon.=106.844749, Alt.=-7.006290m. Speed=29.988001m/h.</desc>
<speed>8.330000</speed>
</trkpt>
<trkpt lat="21.005684" lon="106.845100">
<ele>-7.044865</ele>
<time>2011-04-30T02:14:50Z</time>
<desc>lat.=21.005684, lon.=106.845100, Alt.=-7.044865m. Speed=25.379999m/h.</desc>
<speed>7.050000</speed>
</trkpt>
<trkpt lat="21.005650" lon="106.845459">
<ele>-5.205753</ele>
<time>2011-04-30T02:14:55Z</time>
<desc>lat.=21.005650, lon.=106.845459, Alt.=-5.205753m. Speed=22.752001m/h.</desc>
<speed>6.320000</speed>
</trkpt>
<trkpt lat="21.005545" lon="106.845871">
<ele>-6.374088</ele>
<time>2011-04-30T02:15:00Z</time>
<desc>lat.=21.005545, lon.=106.845871, Alt.=-6.374088m. Speed=29.412001m/h.</desc>
<speed>8.170000</speed>
</trkpt>
<trkpt lat="21.005451" lon="106.846268">
<ele>-6.115543</ele>
<time>2011-04-30T02:15:05Z</time>
<desc>lat.=21.005451, lon.=106.846268, Alt.=-6.115543m. Speed=25.416000m/h.</desc>
<speed>7.060000</speed>
</trkpt>
<trkpt lat="21.005367" lon="106.846535">
<ele>-2.733675</ele>
<time>2011-04-30T02:15:10Z</time>
<desc>lat.=21.005367, lon.=106.846535, Alt.=-2.733675m. Speed=15.624000m/h.</desc>
<speed>4.340000</speed>
</trkpt>
<trkpt lat="21.005291" lon="106.846779">
<ele>0.410008</ele>
<time>2011-04-30T02:15:15Z</time>
<desc>lat.=21.005291, lon.=106.846779, Alt.=0.410008m. Speed=23.112000m/h.</desc>
<speed>6.420000</speed>
</trkpt>
<trkpt lat="21.005192" lon="106.847122">
<ele>4.111027</ele>
<time>2011-04-30T02:15:20Z</time>
<desc>lat.=21.005192, lon.=106.847122, Alt.=4.111027m. Speed=26.136000m/h.</desc>
<speed>7.260000</speed>
</trkpt>
<trkpt lat="21.005117" lon="106.847527">
<ele>3.919954</ele>
<time>2011-04-30T02:15:25Z</time>
<desc>lat.=21.005117, lon.=106.847527, Alt.=3.919954m. Speed=27.468000m/h.</desc>
<speed>7.630000</speed>
</trkpt>
<trkpt lat="21.005011" lon="106.847939">
<ele>3.392427</ele>
<time>2011-04-30T02:15:30Z</time>
<desc>lat.=21.005011, lon.=106.847939, Alt.=3.392427m. Speed=27.827999m/h.</desc>
<speed>7.730000</speed>
</trkpt>
<trkpt lat="21.004921" lon="106.848312">
<ele>7.554264</ele>
<time>2011-04-30T02:15:35Z</time>
<desc>lat.=21.004921, lon.=106.848312, Alt.=7.554264m. Speed=26.747999m/h.</desc>
<speed>7.430000</speed>
</trkpt>
<trkpt lat="21.004852" lon="106.848763">
<ele>11.625862</ele>
<time>2011-04-30T02:15:40Z</time>
<desc>lat.=21.004852, lon.=106.848763, Alt.=11.625862m. Speed=29.016001m/h.</desc>
<speed>8.060000</speed>
</trkpt>
<trkpt lat="21.004759" lon="106.849258">
<ele>18.062759</ele>
<time>2011-04-30T02:15:45Z</time>
<desc>lat.=21.004759, lon.=106.849258, Alt.=18.062759m. Speed=28.728001m/h.</desc>
<speed>7.980000</speed>
</trkpt>
<trkpt lat="21.004662" lon="106.849640">
<ele>19.809830</ele>
<time>2011-04-30T02:15:50Z</time>
<desc>lat.=21.004662, lon.=106.849640, Alt.=19.809830m. Speed=29.232000m/h.</desc>
<speed>8.120000</speed>
</trkpt>
<trkpt lat="21.004580" lon="106.850029">
<ele>20.518814</ele>
<time>2011-04-30T02:15:55Z</time>
<desc>lat.=21.004580, lon.=106.850029, Alt.=20.518814m. Speed=24.587999m/h.</desc>
<speed>6.830000</speed>
</trkpt>
<trkpt lat="21.004501" lon="106.850380">
<ele>23.427505</ele>
<time>2011-04-30T02:16:00Z</time>
<desc>lat.=21.004501, lon.=106.850380, Alt.=23.427505m. Speed=24.695999m/h.</desc>
<speed>6.860000</speed>
</trkpt>
<trkpt lat="21.004427" lon="106.850784">
<ele>26.341080</ele>
<time>2011-04-30T02:16:05Z</time>
<desc>lat.=21.004427, lon.=106.850784, Alt.=26.341080m. Speed=25.812000m/h.</desc>
<speed>7.170000</speed>
</trkpt>
<trkpt lat="21.004377" lon="106.851128">
<ele>28.771744</ele>
<time>2011-04-30T02:16:10Z</time>
<desc>lat.=21.004377, lon.=106.851128, Alt.=28.771744m. Speed=20.124001m/h.</desc>
<speed>5.590000</speed>
</trkpt>
<trkpt lat="21.004314" lon="106.851471">
<ele>32.547394</ele>
<time>2011-04-30T02:16:15Z</time>
<desc>lat.=21.004314, lon.=106.851471, Alt.=32.547394m. Speed=19.980000m/h.</desc>
<speed>5.550000</speed>
</trkpt>
<trkpt lat="21.004276" lon="106.851761">
<ele>34.233917</ele>
<time>2011-04-30T02:16:20Z</time>
<desc>lat.=21.004276, lon.=106.851761, Alt.=34.233917m. Speed=20.808001m/h.</desc>
<speed>5.780000</speed>
</trkpt>
<trkpt lat="21.004204" lon="106.852005">
<ele>34.568878</ele>
<time>2011-04-30T02:16:25Z</time>
<desc>lat.=21.004204, lon.=106.852005, Alt.=34.568878m. Speed=16.344000m/h.</desc>
<speed>4.540000</speed>
</trkpt>
<trkpt lat="21.004152" lon="106.852234">
<ele>34.642120</ele>
<time>2011-04-30T02:16:30Z</time>
<desc>lat.=21.004152, lon.=106.852234, Alt.=34.642120m. Speed=14.256000m/h.</desc>
<speed>3.960000</speed>
</trkpt>
<trkpt lat="21.004148" lon="106.852364">
<ele>34.804230</ele>
<time>2011-04-30T02:16:35Z</time>
<desc>lat.=21.004148, lon.=106.852364, Alt.=34.804230m. Speed=4.968000m/h.</desc>
<speed>1.380000</speed>
</trkpt>
<trkpt lat="21.004118" lon="106.852463">
<ele>34.577667</ele>
<time>2011-04-30T02:16:40Z</time>
<desc>lat.=21.004118, lon.=106.852463, Alt.=34.577667m. Speed=2.232000m/h.</desc>
<speed>0.620000</speed>
</trkpt>
<trkpt lat="21.004103" lon="106.852493">
<ele>34.534698</ele>
<time>2011-04-30T02:16:45Z</time>
<desc>lat.=21.004103, lon.=106.852493, Alt.=34.534698m. Speed=2.592000m/h.</desc>
<speed>0.720000</speed>
</trkpt>
<trkpt lat="21.004110" lon="106.852509">
<ele>35.377472</ele>
<time>2011-04-30T02:16:50Z</time>
<desc>lat.=21.004110, lon.=106.852509, Alt.=35.377472m. Speed=0.504000m/h.</desc>
<speed>0.140000</speed>
</trkpt>
<trkpt lat="21.004108" lon="106.852509">
<ele>35.683136</ele>
<time>2011-04-30T02:16:55Z</time>
<desc>lat.=21.004108, lon.=106.852509, Alt.=35.683136m. Speed=0.468000m/h.</desc>
<speed>0.130000</speed>
</trkpt>
<trkpt lat="21.004116" lon="106.852524">
<ele>35.748566</ele>
<time>2011-04-30T02:17:00Z</time>
<desc>lat.=21.004116, lon.=106.852524, Alt.=35.748566m. Speed=1.044000m/h.</desc>
<speed>0.290000</speed>
</trkpt>
<trkpt lat="21.004126" lon="106.852539">
<ele>35.863800</ele>
<time>2011-04-30T02:17:05Z</time>
<desc>lat.=21.004126, lon.=106.852539, Alt.=35.863800m. Speed=1.188000m/h.</desc>
<speed>0.330000</speed>
</trkpt>
<trkpt lat="21.004133" lon="106.852547">
<ele>35.916534</ele>
<time>2011-04-30T02:17:10Z</time>
<desc>lat.=21.004133, lon.=106.852547, Alt.=35.916534m. Speed=0.756000m/h.</desc>
<speed>0.210000</speed>
</trkpt>
<trkpt lat="21.004133" lon="106.852562">
<ele>35.937042</ele>
<time>2011-04-30T02:17:15Z</time>
<desc>lat.=21.004133, lon.=106.852562, Alt.=35.937042m. Speed=1.080000m/h.</desc>
<speed>0.300000</speed>
</trkpt>
<trkpt lat="21.004126" lon="106.852562">
<ele>35.876495</ele>
<time>2011-04-30T02:17:20Z</time>
<desc>lat.=21.004126, lon.=106.852562, Alt.=35.876495m. Speed=1.404000m/h.</desc>
<speed>0.390000</speed>
</trkpt>
<trkpt lat="21.004116" lon="106.852562">
<ele>35.794464</ele>
<time>2011-04-30T02:17:25Z</time>
<desc>lat.=21.004116, lon.=106.852562, Alt.=35.794464m. Speed=0.468000m/h.</desc>
<speed>0.130000</speed>
</trkpt>
<trkpt lat="21.004116" lon="106.852570">
<ele>35.728058</ele>
<time>2011-04-30T02:17:30Z</time>
<desc>lat.=21.004116, lon.=106.852570, Alt.=35.728058m. Speed=1.008000m/h.</desc>
<speed>0.280000</speed>
</trkpt>
<trkpt lat="21.004129" lon="106.852585">
<ele>35.700714</ele>
<time>2011-04-30T02:17:35Z</time>
<desc>lat.=21.004129, lon.=106.852585, Alt.=35.700714m. Speed=1.872000m/h.</desc>
<speed>0.520000</speed>
</trkpt>
<trkpt lat="21.004139" lon="106.852600">
<ele>35.641144</ele>
<time>2011-04-30T02:17:40Z</time>
<desc>lat.=21.004139, lon.=106.852600, Alt.=35.641144m. Speed=0.828000m/h.</desc>
<speed>0.230000</speed>
</trkpt>
<trkpt lat="21.004143" lon="106.852608">
<ele>35.598175</ele>
<time>2011-04-30T02:17:45Z</time>
<desc>lat.=21.004143, lon.=106.852608, Alt.=35.598175m. Speed=0.864000m/h.</desc>
<speed>0.240000</speed>
</trkpt>
<trkpt lat="21.004152" lon="106.852615">
<ele>35.552277</ele>
<time>2011-04-30T02:17:50Z</time>
<desc>lat.=21.004152, lon.=106.852615, Alt.=35.552277m. Speed=1.944000m/h.</desc>
<speed>0.540000</speed>
</trkpt>
<trkpt lat="21.004175" lon="106.852638">
<ele>35.522980</ele>
<time>2011-04-30T02:17:55Z</time>
<desc>lat.=21.004175, lon.=106.852638, Alt.=35.522980m. Speed=2.016000m/h.</desc>
<speed>0.560000</speed>
</trkpt>
<trkpt lat="21.004181" lon="106.852654">
<ele>35.468292</ele>
<time>2011-04-30T02:18:00Z</time>
<desc>lat.=21.004181, lon.=106.852654, Alt.=35.468292m. Speed=0.432000m/h.</desc>
<speed>0.120000</speed>
</trkpt>
<trkpt lat="21.004169" lon="106.852661">
<ele>35.421417</ele>
<time>2011-04-30T02:18:05Z</time>
<desc>lat.=21.004169, lon.=106.852661, Alt.=35.421417m. Speed=1.548000m/h.</desc>
<speed>0.430000</speed>
</trkpt>
<trkpt lat="21.004150" lon="106.852669">
<ele>35.390167</ele>
<time>2011-04-30T02:18:10Z</time>
<desc>lat.=21.004150, lon.=106.852669, Alt.=35.390167m. Speed=0.720000m/h.</desc>
<speed>0.200000</speed>
</trkpt>
<trkpt lat="21.004133" lon="106.852676">
<ele>35.402863</ele>
<time>2011-04-30T02:18:15Z</time>
<desc>lat.=21.004133, lon.=106.852676, Alt.=35.402863m. Speed=5.112000m/h.</desc>
<speed>1.420000</speed>
</trkpt>
<trkpt lat="21.004107" lon="106.852905">
<ele>34.600128</ele>
<time>2011-04-30T02:18:20Z</time>
<desc>lat.=21.004107, lon.=106.852905, Alt.=34.600128m. Speed=16.128000m/h.</desc>
<speed>4.480000</speed>
</trkpt>
<trkpt lat="21.004066" lon="106.853134">
<ele>32.648956</ele>
<time>2011-04-30T02:18:25Z</time>
<desc>lat.=21.004066, lon.=106.853134, Alt.=32.648956m. Speed=16.200001m/h.</desc>
<speed>4.500000</speed>
</trkpt>
<trkpt lat="21.004028" lon="106.853432">
<ele>29.196548</ele>
<time>2011-04-30T02:18:30Z</time>
<desc>lat.=21.004028, lon.=106.853432, Alt.=29.196548m. Speed=22.068001m/h.</desc>
<speed>6.130000</speed>
</trkpt>
<trkpt lat="21.004015" lon="106.853683">
<ele>25.216080</ele>
<time>2011-04-30T02:18:35Z</time>
<desc>lat.=21.004015, lon.=106.853683, Alt.=25.216080m. Speed=15.912000m/h.</desc>
<speed>4.420000</speed>
</trkpt>
<trkpt lat="21.003933" lon="106.853874">
<ele>22.356705</ele>
<time>2011-04-30T02:18:40Z</time>
<desc>lat.=21.003933, lon.=106.853874, Alt.=22.356705m. Speed=18.000000m/h.</desc>
<speed>5.000000</speed>
</trkpt>
<trkpt lat="21.003986" lon="106.854111">
<ele>21.410904</ele>
<time>2011-04-30T02:18:45Z</time>
<desc>lat.=21.003986, lon.=106.854111, Alt.=21.410904m. Speed=18.288000m/h.</desc>
<speed>5.080000</speed>
</trkpt>
<trkpt lat="21.004129" lon="106.854309">
<ele>20.826431</ele>
<time>2011-04-30T02:18:50Z</time>
<desc>lat.=21.004129, lon.=106.854309, Alt.=20.826431m. Speed=23.940001m/h.</desc>
<speed>6.650000</speed>
</trkpt>
<trkpt lat="21.004313" lon="106.854645">
<ele>20.223892</ele>
<time>2011-04-30T02:18:55Z</time>
<desc>lat.=21.004313, lon.=106.854645, Alt.=20.223892m. Speed=29.340000m/h.</desc>
<speed>8.150000</speed>
</trkpt>
<trkpt lat="21.004560" lon="106.855019">
<ele>18.885513</ele>
<time>2011-04-30T02:19:00Z</time>
<desc>lat.=21.004560, lon.=106.855019, Alt.=18.885513m. Speed=37.764000m/h.</desc>
<speed>10.490000</speed>
</trkpt>
<trkpt lat="21.004837" lon="106.855431">
<ele>17.547134</ele>
<time>2011-04-30T02:19:05Z</time>
<desc>lat.=21.004837, lon.=106.855431, Alt.=17.547134m. Speed=37.584000m/h.</desc>
<speed>10.440000</speed>
</trkpt>
<trkpt lat="21.005138" lon="106.855896">
<ele>15.894417</ele>
<time>2011-04-30T02:19:10Z</time>
<desc>lat.=21.005138, lon.=106.855896, Alt.=15.894417m. Speed=43.812000m/h.</desc>
<speed>12.170000</speed>
</trkpt>
<trkpt lat="21.005432" lon="106.856346">
<ele>14.117317</ele>
<time>2011-04-30T02:19:15Z</time>
<desc>lat.=21.005432, lon.=106.856346, Alt.=14.117317m. Speed=29.483999m/h.</desc>
<speed>8.190000</speed>
</trkpt>
<trkpt lat="21.005579" lon="106.856613">
<ele>12.273323</ele>
<time>2011-04-30T02:19:20Z</time>
<desc>lat.=21.005579, lon.=106.856613, Alt.=12.273323m. Speed=20.232000m/h.</desc>
<speed>5.620000</speed>
</trkpt>
<trkpt lat="21.005810" lon="106.857018">
<ele>8.937141</ele>
<time>2011-04-30T02:19:25Z</time>
<desc>lat.=21.005810, lon.=106.857018, Alt.=8.937141m. Speed=33.228001m/h.</desc>
<speed>9.230000</speed>
</trkpt>
<trkpt lat="21.006092" lon="106.857430">
<ele>6.650822</ele>
<time>2011-04-30T02:19:30Z</time>
<desc>lat.=21.006092, lon.=106.857430, Alt.=6.650822m. Speed=34.523998m/h.</desc>
<speed>9.590000</speed>
</trkpt>
<trkpt lat="21.006340" lon="106.857803">
<ele>4.469425</ele>
<time>2011-04-30T02:19:35Z</time>
<desc>lat.=21.006340, lon.=106.857803, Alt.=4.469425m. Speed=25.632000m/h.</desc>
<speed>7.120000</speed>
</trkpt>
<trkpt lat="21.006527" lon="106.858070">
<ele>2.832369</ele>
<time>2011-04-30T02:19:40Z</time>
<desc>lat.=21.006527, lon.=106.858070, Alt.=2.832369m. Speed=22.356001m/h.</desc>
<speed>6.210000</speed>
</trkpt>
<trkpt lat="21.006716" lon="106.858383">
<ele>1.290116</ele>
<time>2011-04-30T02:19:45Z</time>
<desc>lat.=21.006716, lon.=106.858383, Alt.=1.290116m. Speed=27.072001m/h.</desc>
<speed>7.520000</speed>
</trkpt>
<trkpt lat="21.006929" lon="106.858711">
<ele>-1.260758</ele>
<time>2011-04-30T02:19:50Z</time>
<desc>lat.=21.006929, lon.=106.858711, Alt.=-1.260758m. Speed=31.068001m/h.</desc>
<speed>8.630000</speed>
</trkpt>
<trkpt lat="21.007204" lon="106.859131">
<ele>-4.008488</ele>
<time>2011-04-30T02:19:55Z</time>
<desc>lat.=21.007204, lon.=106.859131, Alt.=-4.008488m. Speed=36.900002m/h.</desc>
<speed>10.250000</speed>
</trkpt>
<trkpt lat="21.007500" lon="106.859535">
<ele>-6.896061</ele>
<time>2011-04-30T02:20:00Z</time>
<desc>lat.=21.007500, lon.=106.859535, Alt.=-6.896061m. Speed=33.119999m/h.</desc>
<speed>9.200000</speed>
</trkpt>
<trkpt lat="21.007755" lon="106.859894">
<ele>-9.832405</ele>
<time>2011-04-30T02:20:05Z</time>
<desc>lat.=21.007755, lon.=106.859894, Alt.=-9.832405m. Speed=30.888000m/h.</desc>
<speed>8.580000</speed>
</trkpt>
<trkpt lat="21.008022" lon="106.860283">
<ele>-11.023079</ele>
<time>2011-04-30T02:20:10Z</time>
<desc>lat.=21.008022, lon.=106.860283, Alt.=-11.023079m. Speed=34.523998m/h.</desc>
<speed>9.590000</speed>
</trkpt>
<trkpt lat="21.008249" lon="106.860588">
<ele>-12.326790</ele>
<time>2011-04-30T02:20:15Z</time>
<desc>lat.=21.008249, lon.=106.860588, Alt.=-12.326790m. Speed=19.620001m/h.</desc>
<speed>5.450000</speed>
</trkpt>
<trkpt lat="21.008373" lon="106.860786">
<ele>-14.976204</ele>
<time>2011-04-30T02:20:20Z</time>
<desc>lat.=21.008373, lon.=106.860786, Alt.=-14.976204m. Speed=19.440001m/h.</desc>
<speed>5.400000</speed>
</trkpt>
<trkpt lat="21.008636" lon="106.861160">
<ele>-16.010513</ele>
<time>2011-04-30T02:20:25Z</time>
<desc>lat.=21.008636, lon.=106.861160, Alt.=-16.010513m. Speed=36.827999m/h.</desc>
<speed>10.230000</speed>
</trkpt>
<trkpt lat="21.008957" lon="106.861626">
<ele>-15.558723</ele>
<time>2011-04-30T02:20:30Z</time>
<desc>lat.=21.008957, lon.=106.861626, Alt.=-15.558723m. Speed=41.292000m/h.</desc>
<speed>11.470000</speed>
</trkpt>
<trkpt lat="21.009279" lon="106.862106">
<ele>-15.207405</ele>
<time>2011-04-30T02:20:35Z</time>
<desc>lat.=21.009279, lon.=106.862106, Alt.=-15.207405m. Speed=47.844002m/h.</desc>
<speed>13.290000</speed>
</trkpt>
<trkpt lat="21.009649" lon="106.862610">
<ele>-13.783821</ele>
<time>2011-04-30T02:20:40Z</time>
<desc>lat.=21.009649, lon.=106.862610, Alt.=-13.783821m. Speed=46.403999m/h.</desc>
<speed>12.890000</speed>
</trkpt>
<trkpt lat="21.009983" lon="106.863113">
<ele>-13.463753</ele>
<time>2011-04-30T02:20:45Z</time>
<desc>lat.=21.009983, lon.=106.863113, Alt.=-13.463753m. Speed=41.976002m/h.</desc>
<speed>11.660000</speed>
</trkpt>
<trkpt lat="21.010229" lon="106.863556">
<ele>-11.691292</ele>
<time>2011-04-30T02:20:50Z</time>
<desc>lat.=21.010229, lon.=106.863556, Alt.=-11.691292m. Speed=33.768002m/h.</desc>
<speed>9.380000</speed>
</trkpt>
<trkpt lat="21.010426" lon="106.864021">
<ele>-11.140511</ele>
<time>2011-04-30T02:20:55Z</time>
<desc>lat.=21.010426, lon.=106.864021, Alt.=-11.140511m. Speed=35.028000m/h.</desc>
<speed>9.730000</speed>
</trkpt>
<trkpt lat="21.010616" lon="106.864479">
<ele>-10.307014</ele>
<time>2011-04-30T02:21:00Z</time>
<desc>lat.=21.010616, lon.=106.864479, Alt.=-10.307014m. Speed=35.243999m/h.</desc>
<speed>9.790000</speed>
</trkpt>
<trkpt lat="21.010782" lon="106.865021">
<ele>-9.699837</ele>
<time>2011-04-30T02:21:05Z</time>
<desc>lat.=21.010782, lon.=106.865021, Alt.=-9.699837m. Speed=35.136002m/h.</desc>
<speed>9.760000</speed>
</trkpt>
<trkpt lat="21.010857" lon="106.865562">
<ele>-8.969612</ele>
<time>2011-04-30T02:21:10Z</time>
<desc>lat.=21.010857, lon.=106.865562, Alt.=-8.969612m. Speed=36.180000m/h.</desc>
<speed>10.050000</speed>
</trkpt>
<trkpt lat="21.010813" lon="106.866066">
<ele>-8.643440</ele>
<time>2011-04-30T02:21:15Z</time>
<desc>lat.=21.010813, lon.=106.866066, Alt.=-8.643440m. Speed=36.756001m/h.</desc>
<speed>10.210000</speed>
</trkpt>
<trkpt lat="21.010717" lon="106.866570">
<ele>-7.859440</ele>
<time>2011-04-30T02:21:20Z</time>
<desc>lat.=21.010717, lon.=106.866570, Alt.=-7.859440m. Speed=33.048000m/h.</desc>
<speed>9.180000</speed>
</trkpt>
<trkpt lat="21.010605" lon="106.867043">
<ele>-6.367130</ele>
<time>2011-04-30T02:21:25Z</time>
<desc>lat.=21.010605, lon.=106.867043, Alt.=-6.367130m. Speed=37.223999m/h.</desc>
<speed>10.340000</speed>
</trkpt>
<trkpt lat="21.010498" lon="106.867638">
<ele>-6.204899</ele>
<time>2011-04-30T02:21:30Z</time>
<desc>lat.=21.010498, lon.=106.867638, Alt.=-6.204899m. Speed=40.680000m/h.</desc>
<speed>11.300000</speed>
</trkpt>
<trkpt lat="21.010349" lon="106.868263">
<ele>-6.595890</ele>
<time>2011-04-30T02:21:35Z</time>
<desc>lat.=21.010349, lon.=106.868263, Alt.=-6.595890m. Speed=43.812000m/h.</desc>
<speed>12.170000</speed>
</trkpt>
<trkpt lat="21.010216" lon="106.868958">
<ele>-5.895206</ele>
<time>2011-04-30T02:21:40Z</time>
<desc>lat.=21.010216, lon.=106.868958, Alt.=-5.895206m. Speed=50.796001m/h.</desc>
<speed>14.110000</speed>
</trkpt>
<trkpt lat="21.010069" lon="106.869690">
<ele>-3.919893</ele>
<time>2011-04-30T02:21:45Z</time>
<desc>lat.=21.010069, lon.=106.869690, Alt.=-3.919893m. Speed=51.875999m/h.</desc>
<speed>14.410000</speed>
</trkpt>
<trkpt lat="21.009882" lon="106.870361">
<ele>-2.485140</ele>
<time>2011-04-30T02:21:50Z</time>
<desc>lat.=21.009882, lon.=106.870361, Alt.=-2.485140m. Speed=46.439999m/h.</desc>
<speed>12.900000</speed>
</trkpt>
<trkpt lat="21.009726" lon="106.871109">
<ele>-1.994126</ele>
<time>2011-04-30T02:21:55Z</time>
<desc>lat.=21.009726, lon.=106.871109, Alt.=-1.994126m. Speed=52.487999m/h.</desc>
<speed>14.580000</speed>
</trkpt>
<trkpt lat="21.009613" lon="106.871819">
<ele>-1.410844</ele>
<time>2011-04-30T02:22:00Z</time>
<desc>lat.=21.009613, lon.=106.871819, Alt.=-1.410844m. Speed=50.147999m/h.</desc>
<speed>13.930000</speed>
</trkpt>
<trkpt lat="21.009481" lon="106.872498">
<ele>-1.240129</ele>
<time>2011-04-30T02:22:05Z</time>
<desc>lat.=21.009481, lon.=106.872498, Alt.=-1.240129m. Speed=49.248001m/h.</desc>
<speed>13.680000</speed>
</trkpt>
<trkpt lat="21.009296" lon="106.873199">
<ele>-0.756630</ele>
<time>2011-04-30T02:22:10Z</time>
<desc>lat.=21.009296, lon.=106.873199, Alt.=-0.756630m. Speed=52.416000m/h.</desc>
<speed>14.560000</speed>
</trkpt>
<trkpt lat="21.009069" lon="106.873894">
<ele>0.559029</ele>
<time>2011-04-30T02:22:15Z</time>
<desc>lat.=21.009069, lon.=106.873894, Alt.=0.559029m. Speed=55.403999m/h.</desc>
<speed>15.390000</speed>
</trkpt>
<trkpt lat="21.008814" lon="106.874611">
<ele>1.538865</ele>
<time>2011-04-30T02:22:20Z</time>
<desc>lat.=21.008814, lon.=106.874611, Alt.=1.538865m. Speed=55.512001m/h.</desc>
<speed>15.420000</speed>
</trkpt>
<trkpt lat="21.008547" lon="106.875366">
<ele>0.479618</ele>
<time>2011-04-30T02:22:25Z</time>
<desc>lat.=21.008547, lon.=106.875366, Alt.=0.479618m. Speed=56.916000m/h.</desc>
<speed>15.810000</speed>
</trkpt>
<trkpt lat="21.008266" lon="106.876053">
<ele>0.244959</ele>
<time>2011-04-30T02:22:30Z</time>
<desc>lat.=21.008266, lon.=106.876053, Alt.=0.244959m. Speed=53.028000m/h.</desc>
<speed>14.730000</speed>
</trkpt>
<trkpt lat="21.008011" lon="106.876709">
<ele>0.561211</ele>
<time>2011-04-30T02:22:35Z</time>
<desc>lat.=21.008011, lon.=106.876709, Alt.=0.561211m. Speed=56.448002m/h.</desc>
<speed>15.680001</speed>
</trkpt>
<trkpt lat="21.007702" lon="106.877426">
<ele>-0.320629</ele>
<time>2011-04-30T02:22:40Z</time>
<desc>lat.=21.007702, lon.=106.877426, Alt.=-0.320629m. Speed=55.584000m/h.</desc>
<speed>15.440000</speed>
</trkpt>
<trkpt lat="21.007296" lon="106.878029">
<ele>0.515297</ele>
<time>2011-04-30T02:22:45Z</time>
<desc>lat.=21.007296, lon.=106.878029, Alt.=0.515297m. Speed=52.380001m/h.</desc>
<speed>14.550000</speed>
</trkpt>
<trkpt lat="21.006907" lon="106.878517">
<ele>0.573800</ele>
<time>2011-04-30T02:22:50Z</time>
<desc>lat.=21.006907, lon.=106.878517, Alt.=0.573800m. Speed=48.456001m/h.</desc>
<speed>13.460000</speed>
</trkpt>
<trkpt lat="21.006474" lon="106.879044">
<ele>0.025124</ele>
<time>2011-04-30T02:22:55Z</time>
<desc>lat.=21.006474, lon.=106.879044, Alt.=0.025124m. Speed=55.223999m/h.</desc>
<speed>15.340000</speed>
</trkpt>
<trkpt lat="21.006065" lon="106.879677">
<ele>-1.113999</ele>
<time>2011-04-30T02:23:00Z</time>
<desc>lat.=21.006065, lon.=106.879677, Alt.=-1.113999m. Speed=55.152000m/h.</desc>
<speed>15.320000</speed>
</trkpt>
<trkpt lat="21.005739" lon="106.880280">
<ele>-2.115755</ele>
<time>2011-04-30T02:23:05Z</time>
<desc>lat.=21.005739, lon.=106.880280, Alt.=-2.115755m. Speed=47.916000m/h.</desc>
<speed>13.310000</speed>
</trkpt>
<trkpt lat="21.005495" lon="106.880867">
<ele>-2.433504</ele>
<time>2011-04-30T02:23:10Z</time>
<desc>lat.=21.005495, lon.=106.880867, Alt.=-2.433504m. Speed=47.304001m/h.</desc>
<speed>13.140000</speed>
</trkpt>
<trkpt lat="21.005285" lon="106.881508">
<ele>-2.569368</ele>
<time>2011-04-30T02:23:15Z</time>
<desc>lat.=21.005285, lon.=106.881508, Alt.=-2.569368m. Speed=47.807999m/h.</desc>
<speed>13.280000</speed>
</trkpt>
<trkpt lat="21.005098" lon="106.882149">
<ele>-3.483187</ele>
<time>2011-04-30T02:23:20Z</time>
<desc>lat.=21.005098, lon.=106.882149, Alt.=-3.483187m. Speed=45.720001m/h.</desc>
<speed>12.700000</speed>
</trkpt>
<trkpt lat="21.004929" lon="106.882706">
<ele>-3.308870</ele>
<time>2011-04-30T02:23:25Z</time>
<desc>lat.=21.004929, lon.=106.882706, Alt.=-3.308870m. Speed=40.608002m/h.</desc>
<speed>11.280000</speed>
</trkpt>
<trkpt lat="21.004704" lon="106.883232">
<ele>-2.853060</ele>
<time>2011-04-30T02:23:30Z</time>
<desc>lat.=21.004704, lon.=106.883232, Alt.=-2.853060m. Speed=40.320000m/h.</desc>
<speed>11.200000</speed>
</trkpt>
<trkpt lat="21.004347" lon="106.883705">
<ele>-2.796663</ele>
<time>2011-04-30T02:23:35Z</time>
<desc>lat.=21.004347, lon.=106.883705, Alt.=-2.796663m. Speed=50.004002m/h.</desc>
<speed>13.890000</speed>
</trkpt>
<trkpt lat="21.003815" lon="106.884178">
<ele>-1.491349</ele>
<time>2011-04-30T02:23:40Z</time>
<desc>lat.=21.003815, lon.=106.884178, Alt.=-1.491349m. Speed=56.375999m/h.</desc>
<speed>15.660000</speed>
</trkpt>
<trkpt lat="21.003166" lon="106.884583">
<ele>-2.201509</ele>
<time>2011-04-30T02:23:45Z</time>
<desc>lat.=21.003166, lon.=106.884583, Alt.=-2.201509m. Speed=57.276001m/h.</desc>
<speed>15.910000</speed>
</trkpt>
<trkpt lat="21.002542" lon="106.884949">
<ele>-3.592440</ele>
<time>2011-04-30T02:23:50Z</time>
<desc>lat.=21.002542, lon.=106.884949, Alt.=-3.592440m. Speed=56.520000m/h.</desc>
<speed>15.700000</speed>
</trkpt>
<trkpt lat="21.002024" lon="106.885223">
<ele>-3.058443</ele>
<time>2011-04-30T02:23:55Z</time>
<desc>lat.=21.002024, lon.=106.885223, Alt.=-3.058443m. Speed=37.692001m/h.</desc>
<speed>10.470000</speed>
</trkpt>
<trkpt lat="21.001686" lon="106.885391">
<ele>-2.335054</ele>
<time>2011-04-30T02:24:00Z</time>
<desc>lat.=21.001686, lon.=106.885391, Alt.=-2.335054m. Speed=23.760000m/h.</desc>
<speed>6.600000</speed>
</trkpt>
<trkpt lat="21.001448" lon="106.885498">
<ele>-0.661049</ele>
<time>2011-04-30T02:24:05Z</time>
<desc>lat.=21.001448, lon.=106.885498, Alt.=-0.661049m. Speed=13.608000m/h.</desc>
<speed>3.780000</speed>
</trkpt>
<trkpt lat="21.001329" lon="106.885567">
<ele>0.469677</ele>
<time>2011-04-30T02:24:10Z</time>
<desc>lat.=21.001329, lon.=106.885567, Alt.=0.469677m. Speed=8.172000m/h.</desc>
<speed>2.270000</speed>
</trkpt>
<trkpt lat="21.001200" lon="106.885605">
<ele>2.567293</ele>
<time>2011-04-30T02:24:15Z</time>
<desc>lat.=21.001200, lon.=106.885605, Alt.=2.567293m. Speed=11.412000m/h.</desc>
<speed>3.170000</speed>
</trkpt>
<trkpt lat="21.001041" lon="106.885643">
<ele>2.765352</ele>
<time>2011-04-30T02:24:20Z</time>
<desc>lat.=21.001041, lon.=106.885643, Alt.=2.765352m. Speed=12.024000m/h.</desc>
<speed>3.340000</speed>
</trkpt>
<trkpt lat="21.000889" lon="106.885666">
<ele>3.727999</ele>
<time>2011-04-30T02:24:25Z</time>
<desc>lat.=21.000889, lon.=106.885666, Alt.=3.727999m. Speed=10.836000m/h.</desc>
<speed>3.010000</speed>
</trkpt>
<trkpt lat="21.000727" lon="106.885689">
<ele>4.538883</ele>
<time>2011-04-30T02:24:30Z</time>
<desc>lat.=21.000727, lon.=106.885689, Alt.=4.538883m. Speed=13.572000m/h.</desc>
<speed>3.770000</speed>
</trkpt>
<trkpt lat="21.000465" lon="106.885712">
<ele>6.219913</ele>
<time>2011-04-30T02:24:35Z</time>
<desc>lat.=21.000465, lon.=106.885712, Alt.=6.219913m. Speed=23.832001m/h.</desc>
<speed>6.620000</speed>
</trkpt>
<trkpt lat="21.000134" lon="106.885857">
<ele>7.802677</ele>
<time>2011-04-30T02:24:40Z</time>
<desc>lat.=21.000134, lon.=106.885857, Alt.=7.802677m. Speed=32.652000m/h.</desc>
<speed>9.070000</speed>
</trkpt>
<trkpt lat="20.999781" lon="106.886200">
<ele>9.294807</ele>
<time>2011-04-30T02:24:45Z</time>
<desc>lat.=20.999781, lon.=106.886200, Alt.=9.294807m. Speed=34.776001m/h.</desc>
<speed>9.660000</speed>
</trkpt>
<trkpt lat="20.999578" lon="106.886520">
<ele>10.107796</ele>
<time>2011-04-30T02:24:50Z</time>
<desc>lat.=20.999578, lon.=106.886520, Alt.=10.107796m. Speed=24.875999m/h.</desc>
<speed>6.910000</speed>
</trkpt>
<trkpt lat="20.999359" lon="106.886871">
<ele>11.126839</ele>
<time>2011-04-30T02:24:55Z</time>
<desc>lat.=20.999359, lon.=106.886871, Alt.=11.126839m. Speed=31.968000m/h.</desc>
<speed>8.880000</speed>
</trkpt>
<trkpt lat="20.999142" lon="106.887192">
<ele>11.801399</ele>
<time>2011-04-30T02:25:00Z</time>
<desc>lat.=20.999142, lon.=106.887192, Alt.=11.801399m. Speed=29.700001m/h.</desc>
<speed>8.250000</speed>
</trkpt>
<trkpt lat="20.998842" lon="106.887642">
<ele>12.511116</ele>
<time>2011-04-30T02:25:05Z</time>
<desc>lat.=20.998842, lon.=106.887642, Alt.=12.511116m. Speed=41.580002m/h.</desc>
<speed>11.550001</speed>
</trkpt>
<trkpt lat="20.998444" lon="106.888161">
<ele>11.995003</ele>
<time>2011-04-30T02:25:10Z</time>
<desc>lat.=20.998444, lon.=106.888161, Alt.=11.995003m. Speed=49.175999m/h.</desc>
<speed>13.660000</speed>
</trkpt>
<trkpt lat="20.997995" lon="106.888763">
<ele>12.198128</ele>
<time>2011-04-30T02:25:15Z</time>
<desc>lat.=20.997995, lon.=106.888763, Alt.=12.198128m. Speed=58.716000m/h.</desc>
<speed>16.310000</speed>
</trkpt>
<trkpt lat="20.997509" lon="106.889450">
<ele>9.592659</ele>
<time>2011-04-30T02:25:20Z</time>
<desc>lat.=20.997509, lon.=106.889450, Alt.=9.592659m. Speed=56.916000m/h.</desc>
<speed>15.810000</speed>
</trkpt>
<trkpt lat="20.997084" lon="106.890106">
<ele>8.071419</ele>
<time>2011-04-30T02:25:25Z</time>
<desc>lat.=20.997084, lon.=106.890106, Alt.=8.071419m. Speed=58.175999m/h.</desc>
<speed>16.160000</speed>
</trkpt>
<trkpt lat="20.996628" lon="106.890709">
<ele>6.760197</ele>
<time>2011-04-30T02:25:30Z</time>
<desc>lat.=20.996628, lon.=106.890709, Alt.=6.760197m. Speed=52.307999m/h.</desc>
<speed>14.530000</speed>
</trkpt>
<trkpt lat="20.996222" lon="106.891235">
<ele>5.360905</ele>
<time>2011-04-30T02:25:35Z</time>
<desc>lat.=20.996222, lon.=106.891235, Alt.=5.360905m. Speed=47.700001m/h.</desc>
<speed>13.250000</speed>
</trkpt>
<trkpt lat="20.995882" lon="106.891693">
<ele>4.943180</ele>
<time>2011-04-30T02:25:40Z</time>
<desc>lat.=20.995882, lon.=106.891693, Alt.=4.943180m. Speed=40.967999m/h.</desc>
<speed>11.380000</speed>
</trkpt>
<trkpt lat="20.995552" lon="106.892120">
<ele>4.098454</ele>
<time>2011-04-30T02:25:45Z</time>
<desc>lat.=20.995552, lon.=106.892120, Alt.=4.098454m. Speed=42.012001m/h.</desc>
<speed>11.670000</speed>
</trkpt>
<trkpt lat="20.995207" lon="106.892624">
<ele>1.721635</ele>
<time>2011-04-30T02:25:50Z</time>
<desc>lat.=20.995207, lon.=106.892624, Alt.=1.721635m. Speed=47.987999m/h.</desc>
<speed>13.330000</speed>
</trkpt>
<trkpt lat="20.994884" lon="106.893120">
<ele>-0.343228</ele>
<time>2011-04-30T02:25:55Z</time>
<desc>lat.=20.994884, lon.=106.893120, Alt.=-0.343228m. Speed=41.976002m/h.</desc>
<speed>11.660000</speed>
</trkpt>
<trkpt lat="20.994526" lon="106.893593">
<ele>-1.883073</ele>
<time>2011-04-30T02:26:00Z</time>
<desc>lat.=20.994526, lon.=106.893593, Alt.=-1.883073m. Speed=47.916000m/h.</desc>
<speed>13.310000</speed>
</trkpt>
<trkpt lat="20.994106" lon="106.894127">
<ele>-3.519808</ele>
<time>2011-04-30T02:26:05Z</time>
<desc>lat.=20.994106, lon.=106.894127, Alt.=-3.519808m. Speed=54.180000m/h.</desc>
<speed>15.050000</speed>
</trkpt>
<trkpt lat="20.993685" lon="106.894676">
<ele>-4.516422</ele>
<time>2011-04-30T02:26:10Z</time>
<desc>lat.=20.993685, lon.=106.894676, Alt.=-4.516422m. Speed=47.627998m/h.</desc>
<speed>13.230000</speed>
</trkpt>
<trkpt lat="20.993338" lon="106.895119">
<ele>-5.315250</ele>
<time>2011-04-30T02:26:15Z</time>
<desc>lat.=20.993338, lon.=106.895119, Alt.=-5.315250m. Speed=39.456001m/h.</desc>
<speed>10.960000</speed>
</trkpt>
<trkpt lat="20.992994" lon="106.895561">
<ele>-6.107487</ele>
<time>2011-04-30T02:26:20Z</time>
<desc>lat.=20.992994, lon.=106.895561, Alt.=-6.107487m. Speed=44.604000m/h.</desc>
<speed>12.390000</speed>
</trkpt>
<trkpt lat="20.992617" lon="106.896042">
<ele>-7.245548</ele>
<time>2011-04-30T02:26:25Z</time>
<desc>lat.=20.992617, lon.=106.896042, Alt.=-7.245548m. Speed=47.627998m/h.</desc>
<speed>13.230000</speed>
</trkpt>
<trkpt lat="20.992170" lon="106.896507">
<ele>-8.071175</ele>
<time>2011-04-30T02:26:30Z</time>
<desc>lat.=20.992170, lon.=106.896507, Alt.=-8.071175m. Speed=51.840000m/h.</desc>
<speed>14.400000</speed>
</trkpt>
<trkpt lat="20.991644" lon="106.896988">
<ele>-9.053596</ele>
<time>2011-04-30T02:26:35Z</time>
<desc>lat.=20.991644, lon.=106.896988, Alt.=-9.053596m. Speed=56.375999m/h.</desc>
<speed>15.660000</speed>
</trkpt>
<trkpt lat="20.991102" lon="106.897514">
<ele>-9.376839</ele>
<time>2011-04-30T02:26:40Z</time>
<desc>lat.=20.991102, lon.=106.897514, Alt.=-9.376839m. Speed=54.396000m/h.</desc>
<speed>15.110000</speed>
</trkpt>
<trkpt lat="20.990705" lon="106.897957">
<ele>-10.335579</ele>
<time>2011-04-30T02:26:45Z</time>
<desc>lat.=20.990705, lon.=106.897957, Alt.=-10.335579m. Speed=42.444000m/h.</desc>
<speed>11.790000</speed>
</trkpt>
<trkpt lat="20.990404" lon="106.898338">
<ele>-11.663704</ele>
<time>2011-04-30T02:26:50Z</time>
<desc>lat.=20.990404, lon.=106.898338, Alt.=-11.663704m. Speed=37.080002m/h.</desc>
<speed>10.300001</speed>
</trkpt>
<trkpt lat="20.990107" lon="106.898811">
<ele>-13.882210</ele>
<time>2011-04-30T02:26:55Z</time>
<desc>lat.=20.990107, lon.=106.898811, Alt.=-13.882210m. Speed=43.596001m/h.</desc>
<speed>12.110000</speed>
</trkpt>
<trkpt lat="20.989782" lon="106.899361">
<ele>-14.945686</ele>
<time>2011-04-30T02:27:00Z</time>
<desc>lat.=20.989782, lon.=106.899361, Alt.=-14.945686m. Speed=50.939999m/h.</desc>
<speed>14.150000</speed>
</trkpt>
<trkpt lat="20.989397" lon="106.900024">
<ele>-16.186783</ele>
<time>2011-04-30T02:27:05Z</time>
<desc>lat.=20.989397, lon.=106.900024, Alt.=-16.186783m. Speed=58.535999m/h.</desc>
<speed>16.260000</speed>
</trkpt>
<trkpt lat="20.989012" lon="106.900696">
<ele>-17.102798</ele>
<time>2011-04-30T02:27:10Z</time>
<desc>lat.=20.989012, lon.=106.900696, Alt.=-17.102798m. Speed=59.688000m/h.</desc>
<speed>16.580000</speed>
</trkpt>
<trkpt lat="20.988613" lon="106.901344">
<ele>-17.980728</ele>
<time>2011-04-30T02:27:15Z</time>
<desc>lat.=20.988613, lon.=106.901344, Alt.=-17.980728m. Speed=54.000000m/h.</desc>
<speed>15.000000</speed>
</trkpt>
<trkpt lat="20.988207" lon="106.901871">
<ele>-18.511978</ele>
<time>2011-04-30T02:27:20Z</time>
<desc>lat.=20.988207, lon.=106.901871, Alt.=-18.511978m. Speed=45.216000m/h.</desc>
<speed>12.560000</speed>
</trkpt>
<trkpt lat="20.987816" lon="106.902290">
<ele>-19.502701</ele>
<time>2011-04-30T02:27:25Z</time>
<desc>lat.=20.987816, lon.=106.902290, Alt.=-19.502701m. Speed=44.279999m/h.</desc>
<speed>12.300000</speed>
</trkpt>
<trkpt lat="20.987392" lon="106.902672">
<ele>-20.267838</ele>
<time>2011-04-30T02:27:30Z</time>
<desc>lat.=20.987392, lon.=106.902672, Alt.=-20.267838m. Speed=45.576000m/h.</desc>
<speed>12.660000</speed>
</trkpt>
<trkpt lat="20.986961" lon="106.903084">
<ele>-20.677017</ele>
<time>2011-04-30T02:27:35Z</time>
<desc>lat.=20.986961, lon.=106.903084, Alt.=-20.677017m. Speed=41.436001m/h.</desc>
<speed>11.510000</speed>
</trkpt>
<trkpt lat="20.986574" lon="106.903419">
<ele>-20.348404</ele>
<time>2011-04-30T02:27:40Z</time>
<desc>lat.=20.986574, lon.=106.903419, Alt.=-20.348404m. Speed=37.619999m/h.</desc>
<speed>10.450000</speed>
</trkpt>
<trkpt lat="20.986216" lon="106.903801">
<ele>-20.678482</ele>
<time>2011-04-30T02:27:45Z</time>
<desc>lat.=20.986216, lon.=106.903801, Alt.=-20.678482m. Speed=39.852001m/h.</desc>
<speed>11.070000</speed>
</trkpt>
<trkpt lat="20.985867" lon="106.904114">
<ele>-20.151138</ele>
<time>2011-04-30T02:27:50Z</time>
<desc>lat.=20.985867, lon.=106.904114, Alt.=-20.151138m. Speed=28.836000m/h.</desc>
<speed>8.010000</speed>
</trkpt>
<trkpt lat="20.985571" lon="106.904366">
<ele>-18.743423</ele>
<time>2011-04-30T02:27:55Z</time>
<desc>lat.=20.985571, lon.=106.904366, Alt.=-18.743423m. Speed=26.856001m/h.</desc>
<speed>7.460000</speed>
</trkpt>
<trkpt lat="20.985310" lon="106.904617">
<ele>-17.274185</ele>
<time>2011-04-30T02:28:00Z</time>
<desc>lat.=20.985310, lon.=106.904617, Alt.=-17.274185m. Speed=27.972000m/h.</desc>
<speed>7.770000</speed>
</trkpt>
<trkpt lat="20.985029" lon="106.904961">
<ele>-16.149673</ele>
<time>2011-04-30T02:28:05Z</time>
<desc>lat.=20.985029, lon.=106.904961, Alt.=-16.149673m. Speed=38.195999m/h.</desc>
<speed>10.610000</speed>
</trkpt>
<trkpt lat="20.984768" lon="106.905373">
<ele>-15.803596</ele>
<time>2011-04-30T02:28:10Z</time>
<desc>lat.=20.984768, lon.=106.905373, Alt.=-15.803596m. Speed=34.236000m/h.</desc>
<speed>9.510000</speed>
</trkpt>
<trkpt lat="20.984562" lon="106.905731">
<ele>-15.716438</ele>
<time>2011-04-30T02:28:15Z</time>
<desc>lat.=20.984562, lon.=106.905731, Alt.=-15.716438m. Speed=27.143999m/h.</desc>
<speed>7.540000</speed>
</trkpt>
<trkpt lat="20.984402" lon="106.906082">
<ele>-15.388069</ele>
<time>2011-04-30T02:28:20Z</time>
<desc>lat.=20.984402, lon.=106.906082, Alt.=-15.388069m. Speed=27.360001m/h.</desc>
<speed>7.600000</speed>
</trkpt>
<trkpt lat="20.984232" lon="106.906456">
<ele>-14.039680</ele>
<time>2011-04-30T02:28:25Z</time>
<desc>lat.=20.984232, lon.=106.906456, Alt.=-14.039680m. Speed=30.420000m/h.</desc>
<speed>8.450000</speed>
</trkpt>
<trkpt lat="20.984098" lon="106.906891">
<ele>-12.152229</ele>
<time>2011-04-30T02:28:30Z</time>
<desc>lat.=20.984098, lon.=106.906891, Alt.=-12.152229m. Speed=35.099998m/h.</desc>
<speed>9.750000</speed>
</trkpt>
<trkpt lat="20.984007" lon="106.907356">
<ele>-11.017220</ele>
<time>2011-04-30T02:28:35Z</time>
<desc>lat.=20.984007, lon.=106.907356, Alt.=-11.017220m. Speed=35.784000m/h.</desc>
<speed>9.940000</speed>
</trkpt>
<trkpt lat="20.983891" lon="106.907928">
<ele>-10.811165</ele>
<time>2011-04-30T02:28:40Z</time>
<desc>lat.=20.983891, lon.=106.907928, Alt.=-10.811165m. Speed=36.000000m/h.</desc>
<speed>10.000000</speed>
</trkpt>
<trkpt lat="20.983843" lon="106.908409">
<ele>-11.088753</ele>
<time>2011-04-30T02:28:45Z</time>
<desc>lat.=20.983843, lon.=106.908409, Alt.=-11.088753m. Speed=30.384001m/h.</desc>
<speed>8.440000</speed>
</trkpt>
<trkpt lat="20.983810" lon="106.908875">
<ele>-11.342171</ele>
<time>2011-04-30T02:28:50Z</time>
<desc>lat.=20.983810, lon.=106.908875, Alt.=-11.342171m. Speed=37.007999m/h.</desc>
<speed>10.280000</speed>
</trkpt>
<trkpt lat="20.983812" lon="106.909470">
<ele>-10.830208</ele>
<time>2011-04-30T02:28:55Z</time>
<desc>lat.=20.983812, lon.=106.909470, Alt.=-10.830208m. Speed=44.316002m/h.</desc>
<speed>12.310001</speed>
</trkpt>
<trkpt lat="20.983858" lon="106.910110">
<ele>-11.194466</ele>
<time>2011-04-30T02:29:00Z</time>
<desc>lat.=20.983858, lon.=106.910110, Alt.=-11.194466m. Speed=50.147999m/h.</desc>
<speed>13.930000</speed>
</trkpt>
<trkpt lat="20.983917" lon="106.910858">
<ele>-11.454720</ele>
<time>2011-04-30T02:29:05Z</time>
<desc>lat.=20.983917, lon.=106.910858, Alt.=-11.454720m. Speed=56.807999m/h.</desc>
<speed>15.780000</speed>
</trkpt>
<trkpt lat="20.984026" lon="106.911697">
<ele>-12.040901</ele>
<time>2011-04-30T02:29:10Z</time>
<desc>lat.=20.984026, lon.=106.911697, Alt.=-12.040901m. Speed=61.956001m/h.</desc>
<speed>17.210000</speed>
</trkpt>
<trkpt lat="20.984106" lon="106.912521">
<ele>-11.249641</ele>
<time>2011-04-30T02:29:15Z</time>
<desc>lat.=20.984106, lon.=106.912521, Alt.=-11.249641m. Speed=63.540001m/h.</desc>
<speed>17.650000</speed>
</trkpt>
<trkpt lat="20.984081" lon="106.913322">
<ele>-10.797493</ele>
<time>2011-04-30T02:29:20Z</time>
<desc>lat.=20.984081, lon.=106.913322, Alt.=-10.797493m. Speed=54.144001m/h.</desc>
<speed>15.040000</speed>
</trkpt>
<trkpt lat="20.984034" lon="106.913994">
<ele>-10.786018</ele>
<time>2011-04-30T02:29:25Z</time>
<desc>lat.=20.984034, lon.=106.913994, Alt.=-10.786018m. Speed=51.264000m/h.</desc>
<speed>14.240000</speed>
</trkpt>
<trkpt lat="20.983906" lon="106.914680">
<ele>-11.402962</ele>
<time>2011-04-30T02:29:30Z</time>
<desc>lat.=20.983906, lon.=106.914680, Alt.=-11.402962m. Speed=51.228001m/h.</desc>
<speed>14.230000</speed>
</trkpt>
<trkpt lat="20.983662" lon="106.915283">
<ele>-11.912727</ele>
<time>2011-04-30T02:29:35Z</time>
<desc>lat.=20.983662, lon.=106.915283, Alt.=-11.912727m. Speed=49.391998m/h.</desc>
<speed>13.720000</speed>
</trkpt>
<trkpt lat="20.983360" lon="106.915894">
<ele>-12.653450</ele>
<time>2011-04-30T02:29:40Z</time>
<desc>lat.=20.983360, lon.=106.915894, Alt.=-12.653450m. Speed=50.507999m/h.</desc>
<speed>14.030000</speed>
</trkpt>
<trkpt lat="20.983011" lon="106.916496">
<ele>-12.740120</ele>
<time>2011-04-30T02:29:45Z</time>
<desc>lat.=20.983011, lon.=106.916496, Alt.=-12.740120m. Speed=51.228001m/h.</desc>
<speed>14.230000</speed>
</trkpt>
<trkpt lat="20.982615" lon="106.917007">
<ele>-13.664192</ele>
<time>2011-04-30T02:29:50Z</time>
<desc>lat.=20.982615, lon.=106.917007, Alt.=-13.664192m. Speed=48.743999m/h.</desc>
<speed>13.540000</speed>
</trkpt>
<trkpt lat="20.982233" lon="106.917427">
<ele>-14.359261</ele>
<time>2011-04-30T02:29:55Z</time>
<desc>lat.=20.982233, lon.=106.917427, Alt.=-14.359261m. Speed=41.436001m/h.</desc>
<speed>11.510000</speed>
</trkpt>
<trkpt lat="20.981842" lon="106.917870">
<ele>-14.574837</ele>
<time>2011-04-30T02:30:00Z</time>
<desc>lat.=20.981842, lon.=106.917870, Alt.=-14.574837m. Speed=43.416000m/h.</desc>
<speed>12.060000</speed>
</trkpt>
<trkpt lat="20.981482" lon="106.918289">
<ele>-14.199348</ele>
<time>2011-04-30T02:30:05Z</time>
<desc>lat.=20.981482, lon.=106.918289, Alt.=-14.199348m. Speed=42.768002m/h.</desc>
<speed>11.880000</speed>
</trkpt>
<trkpt lat="20.981127" lon="106.918716">
<ele>-13.650520</ele>
<time>2011-04-30T02:30:10Z</time>
<desc>lat.=20.981127, lon.=106.918716, Alt.=-13.650520m. Speed=44.712002m/h.</desc>
<speed>12.420001</speed>
</trkpt>
<trkpt lat="20.980742" lon="106.919205">
<ele>-14.638802</ele>
<time>2011-04-30T02:30:15Z</time>
<desc>lat.=20.980742, lon.=106.919205, Alt.=-14.638802m. Speed=45.108002m/h.</desc>
<speed>12.530000</speed>
</trkpt>
<trkpt lat="20.980356" lon="106.919716">
<ele>-13.912727</ele>
<time>2011-04-30T02:30:20Z</time>
<desc>lat.=20.980356, lon.=106.919716, Alt.=-13.912727m. Speed=44.604000m/h.</desc>
<speed>12.390000</speed>
</trkpt>
<trkpt lat="20.980070" lon="106.920174">
<ele>-14.463020</ele>
<time>2011-04-30T02:30:25Z</time>
<desc>lat.=20.980070, lon.=106.920174, Alt.=-14.463020m. Speed=37.692001m/h.</desc>
<speed>10.470000</speed>
</trkpt>
<trkpt lat="20.979820" lon="106.920616">
<ele>-15.124153</ele>
<time>2011-04-30T02:30:30Z</time>
<desc>lat.=20.979820, lon.=106.920616, Alt.=-15.124153m. Speed=38.304001m/h.</desc>
<speed>10.640000</speed>
</trkpt>
<trkpt lat="20.979563" lon="106.921104">
<ele>-16.527115</ele>
<time>2011-04-30T02:30:35Z</time>
<desc>lat.=20.979563, lon.=106.921104, Alt.=-16.527115m. Speed=43.883999m/h.</desc>
<speed>12.190000</speed>
</trkpt>
<trkpt lat="20.979315" lon="106.921593">
<ele>-18.328384</ele>
<time>2011-04-30T02:30:40Z</time>
<desc>lat.=20.979315, lon.=106.921593, Alt.=-18.328384m. Speed=38.952000m/h.</desc>
<speed>10.820000</speed>
</trkpt>
<trkpt lat="20.979103" lon="106.922020">
<ele>-19.261978</ele>
<time>2011-04-30T02:30:45Z</time>
<desc>lat.=20.979103, lon.=106.922020, Alt.=-19.261978m. Speed=29.052000m/h.</desc>
<speed>8.070000</speed>
</trkpt>
<trkpt lat="20.978926" lon="106.922340">
<ele>-19.491470</ele>
<time>2011-04-30T02:30:50Z</time>
<desc>lat.=20.978926, lon.=106.922340, Alt.=-19.491470m. Speed=24.336000m/h.</desc>
<speed>6.760000</speed>
</trkpt>
<trkpt lat="20.978802" lon="106.922539">
<ele>-20.012466</ele>
<time>2011-04-30T02:30:55Z</time>
<desc>lat.=20.978802, lon.=106.922539, Alt.=-20.012466m. Speed=15.696000m/h.</desc>
<speed>4.360000</speed>
</trkpt>
<trkpt lat="20.978655" lon="106.922813">
<ele>-20.626724</ele>
<time>2011-04-30T02:31:00Z</time>
<desc>lat.=20.978655, lon.=106.922813, Alt.=-20.626724m. Speed=28.224001m/h.</desc>
<speed>7.840000</speed>
</trkpt>
<trkpt lat="20.978447" lon="106.923233">
<ele>-21.222427</ele>
<time>2011-04-30T02:31:05Z</time>
<desc>lat.=20.978447, lon.=106.923233, Alt.=-21.222427m. Speed=36.000000m/h.</desc>
<speed>10.000000</speed>
</trkpt>
<trkpt lat="20.978210" lon="106.923706">
<ele>-22.223892</ele>
<time>2011-04-30T02:31:10Z</time>
<desc>lat.=20.978210, lon.=106.923706, Alt.=-22.223892m. Speed=38.015999m/h.</desc>
<speed>10.560000</speed>
</trkpt>
<trkpt lat="20.977943" lon="106.924156">
<ele>-20.675552</ele>
<time>2011-04-30T02:31:15Z</time>
<desc>lat.=20.977943, lon.=106.924156, Alt.=-20.675552m. Speed=37.043999m/h.</desc>
<speed>10.290000</speed>
</trkpt>
<trkpt lat="20.977661" lon="106.924606">
<ele>-20.511490</ele>
<time>2011-04-30T02:31:20Z</time>
<desc>lat.=20.977661, lon.=106.924606, Alt.=-20.511490m. Speed=40.824001m/h.</desc>
<speed>11.340000</speed>
</trkpt>
<trkpt lat="20.977331" lon="106.925064">
<ele>-20.922134</ele>
<time>2011-04-30T02:31:25Z</time>
<desc>lat.=20.977331, lon.=106.925064, Alt.=-20.922134m. Speed=37.584000m/h.</desc>
<speed>10.440000</speed>
</trkpt>
<trkpt lat="20.977009" lon="106.925430">
<ele>-20.062271</ele>
<time>2011-04-30T02:31:30Z</time>
<desc>lat.=20.977009, lon.=106.925430, Alt.=-20.062271m. Speed=33.731998m/h.</desc>
<speed>9.370000</speed>
</trkpt>
<trkpt lat="20.976652" lon="106.925789">
<ele>-19.740982</ele>
<time>2011-04-30T02:31:35Z</time>
<desc>lat.=20.976652, lon.=106.925789, Alt.=-19.740982m. Speed=40.212002m/h.</desc>
<speed>11.170001</speed>
</trkpt>
<trkpt lat="20.976192" lon="106.926186">
<ele>-15.782112</ele>
<time>2011-04-30T02:31:40Z</time>
<desc>lat.=20.976192, lon.=106.926186, Alt.=-15.782112m. Speed=44.891998m/h.</desc>
<speed>12.470000</speed>
</trkpt>
<trkpt lat="20.975697" lon="106.926537">
<ele>-14.512581</ele>
<time>2011-04-30T02:31:45Z</time>
<desc>lat.=20.975697, lon.=106.926537, Alt.=-14.512581m. Speed=45.647999m/h.</desc>
<speed>12.680000</speed>
</trkpt>
<trkpt lat="20.975286" lon="106.926849">
<ele>-15.175911</ele>
<time>2011-04-30T02:31:50Z</time>
<desc>lat.=20.975286, lon.=106.926849, Alt.=-15.175911m. Speed=36.324001m/h.</desc>
<speed>10.090000</speed>
</trkpt>
<trkpt lat="20.974924" lon="106.927132">
<ele>-14.805305</ele>
<time>2011-04-30T02:31:55Z</time>
<desc>lat.=20.974924, lon.=106.927132, Alt.=-14.805305m. Speed=32.976002m/h.</desc>
<speed>9.160000</speed>
</trkpt>
<trkpt lat="20.974602" lon="106.927422">
<ele>-11.496468</ele>
<time>2011-04-30T02:32:00Z</time>
<desc>lat.=20.974602, lon.=106.927422, Alt.=-11.496468m. Speed=28.620001m/h.</desc>
<speed>7.950000</speed>
</trkpt>
<trkpt lat="20.974295" lon="106.927673">
<ele>-10.677620</ele>
<time>2011-04-30T02:32:05Z</time>
<desc>lat.=20.974295, lon.=106.927673, Alt.=-10.677620m. Speed=33.192001m/h.</desc>
<speed>9.220000</speed>
</trkpt>
<trkpt lat="20.973902" lon="106.928047">
<ele>-5.298283</ele>
<time>2011-04-30T02:32:10Z</time>
<desc>lat.=20.973902, lon.=106.928047, Alt.=-5.298283m. Speed=44.459999m/h.</desc>
<speed>12.350000</speed>
</trkpt>
<trkpt lat="20.973444" lon="106.928551">
<ele>-4.812443</ele>
<time>2011-04-30T02:32:15Z</time>
<desc>lat.=20.973444, lon.=106.928551, Alt.=-4.812443m. Speed=57.023998m/h.</desc>
<speed>15.840000</speed>
</trkpt>
<trkpt lat="20.972919" lon="106.929176">
<ele>-6.168522</ele>
<time>2011-04-30T02:32:20Z</time>
<desc>lat.=20.972919, lon.=106.929176, Alt.=-6.168522m. Speed=65.267998m/h.</desc>
<speed>18.129999</speed>
</trkpt>
<trkpt lat="20.972389" lon="106.929863">
<ele>-5.719181</ele>
<time>2011-04-30T02:32:25Z</time>
<desc>lat.=20.972389, lon.=106.929863, Alt.=-5.719181m. Speed=64.584000m/h.</desc>
<speed>17.940000</speed>
</trkpt>
<trkpt lat="20.971916" lon="106.930458">
<ele>-4.829899</ele>
<time>2011-04-30T02:32:30Z</time>
<desc>lat.=20.971916, lon.=106.930458, Alt.=-4.829899m. Speed=50.543999m/h.</desc>
<speed>14.040000</speed>
</trkpt>
<trkpt lat="20.971521" lon="106.930984">
<ele>-4.553288</ele>
<time>2011-04-30T02:32:35Z</time>
<desc>lat.=20.971521, lon.=106.930984, Alt.=-4.553288m. Speed=48.888000m/h.</desc>
<speed>13.580000</speed>
</trkpt>
<trkpt lat="20.971142" lon="106.931480">
<ele>-4.500675</ele>
<time>2011-04-30T02:32:40Z</time>
<desc>lat.=20.971142, lon.=106.931480, Alt.=-4.500675m. Speed=47.880001m/h.</desc>
<speed>13.300000</speed>
</trkpt>
<trkpt lat="20.970762" lon="106.931999">
<ele>-5.157536</ele>
<time>2011-04-30T02:32:45Z</time>
<desc>lat.=20.970762, lon.=106.931999, Alt.=-5.157536m. Speed=52.919998m/h.</desc>
<speed>14.699999</speed>
</trkpt>
<trkpt lat="20.970308" lon="106.932632">
<ele>-5.864689</ele>
<time>2011-04-30T02:32:50Z</time>
<desc>lat.=20.970308, lon.=106.932632, Alt.=-5.864689m. Speed=56.700001m/h.</desc>
<speed>15.750000</speed>
</trkpt>
<trkpt lat="20.969866" lon="106.933205">
<ele>-6.363712</ele>
<time>2011-04-30T02:32:55Z</time>
<desc>lat.=20.969866, lon.=106.933205, Alt.=-6.363712m. Speed=48.636002m/h.</desc>
<speed>13.510000</speed>
</trkpt>
<trkpt lat="20.969475" lon="106.933716">
<ele>-3.656343</ele>
<time>2011-04-30T02:33:00Z</time>
<desc>lat.=20.969475, lon.=106.933716, Alt.=-3.656343m. Speed=47.664001m/h.</desc>
<speed>13.240000</speed>
</trkpt>
<trkpt lat="20.969078" lon="106.934242">
<ele>-1.555772</ele>
<time>2011-04-30T02:33:05Z</time>
<desc>lat.=20.969078, lon.=106.934242, Alt.=-1.555772m. Speed=48.888000m/h.</desc>
<speed>13.580000</speed>
</trkpt>
<trkpt lat="20.968658" lon="106.934769">
<ele>-0.410137</ele>
<time>2011-04-30T02:33:10Z</time>
<desc>lat.=20.968658, lon.=106.934769, Alt.=-0.410137m. Speed=51.840000m/h.</desc>
<speed>14.400000</speed>
</trkpt>
<trkpt lat="20.968208" lon="106.935356">
<ele>0.866936</ele>
<time>2011-04-30T02:33:15Z</time>
<desc>lat.=20.968208, lon.=106.935356, Alt.=0.866936m. Speed=60.551998m/h.</desc>
<speed>16.819999</speed>
</trkpt>
<trkpt lat="20.967741" lon="106.935974">
<ele>1.322740</ele>
<time>2011-04-30T02:33:20Z</time>
<desc>lat.=20.967741, lon.=106.935974, Alt.=1.322740m. Speed=59.436001m/h.</desc>
<speed>16.510000</speed>
</trkpt>
<trkpt lat="20.967274" lon="106.936562">
<ele>2.875399</ele>
<time>2011-04-30T02:33:25Z</time>
<desc>lat.=20.967274, lon.=106.936562, Alt.=2.875399m. Speed=52.632000m/h.</desc>
<speed>14.620000</speed>
</trkpt>
<trkpt lat="20.966850" lon="106.937111">
<ele>3.075655</ele>
<time>2011-04-30T02:33:30Z</time>
<desc>lat.=20.966850, lon.=106.937111, Alt.=3.075655m. Speed=50.976002m/h.</desc>
<speed>14.160000</speed>
</trkpt>
<trkpt lat="20.966463" lon="106.937622">
<ele>3.954439</ele>
<time>2011-04-30T02:33:35Z</time>
<desc>lat.=20.966463, lon.=106.937622, Alt.=3.954439m. Speed=45.827999m/h.</desc>
<speed>12.730000</speed>
</trkpt>
<trkpt lat="20.966200" lon="106.937973">
<ele>3.834810</ele>
<time>2011-04-30T02:33:40Z</time>
<desc>lat.=20.966200, lon.=106.937973, Alt.=3.834810m. Speed=21.204000m/h.</desc>
<speed>5.890000</speed>
</trkpt>
<trkpt lat="20.966080" lon="106.938156">
<ele>3.616121</ele>
<time>2011-04-30T02:33:45Z</time>
<desc>lat.=20.966080, lon.=106.938156, Alt.=3.616121m. Speed=13.284000m/h.</desc>
<speed>3.690000</speed>
</trkpt>
<trkpt lat="20.966024" lon="106.938217">
<ele>3.100496</ele>
<time>2011-04-30T02:33:50Z</time>
<desc>lat.=20.966024, lon.=106.938217, Alt.=3.100496m. Speed=5.148000m/h.</desc>
<speed>1.430000</speed>
</trkpt>
<trkpt lat="20.965981" lon="106.938271">
<ele>2.294771</ele>
<time>2011-04-30T02:33:55Z</time>
<desc>lat.=20.965981, lon.=106.938271, Alt.=2.294771m. Speed=7.632000m/h.</desc>
<speed>2.120000</speed>
</trkpt>
<trkpt lat="20.965899" lon="106.938370">
<ele>2.091951</ele>
<time>2011-04-30T02:34:00Z</time>
<desc>lat.=20.965899, lon.=106.938370, Alt.=2.091951m. Speed=10.296000m/h.</desc>
<speed>2.860000</speed>
</trkpt>
<trkpt lat="20.965828" lon="106.938469">
<ele>1.531266</ele>
<time>2011-04-30T02:34:05Z</time>
<desc>lat.=20.965828, lon.=106.938469, Alt.=1.531266m. Speed=9.216000m/h.</desc>
<speed>2.560000</speed>
</trkpt>
<trkpt lat="20.965738" lon="106.938545">
<ele>0.948784</ele>
<time>2011-04-30T02:34:10Z</time>
<desc>lat.=20.965738, lon.=106.938545, Alt.=0.948784m. Speed=9.000000m/h.</desc>
<speed>2.500000</speed>
</trkpt>
<trkpt lat="20.965660" lon="106.938652">
<ele>-0.118737</ele>
<time>2011-04-30T02:34:15Z</time>
<desc>lat.=20.965660, lon.=106.938652, Alt.=-0.118737m. Speed=11.340000m/h.</desc>
<speed>3.150000</speed>
</trkpt>
<trkpt lat="20.965570" lon="106.938736">
<ele>-1.402299</ele>
<time>2011-04-30T02:34:20Z</time>
<desc>lat.=20.965570, lon.=106.938736, Alt.=-1.402299m. Speed=7.308000m/h.</desc>
<speed>2.030000</speed>
</trkpt>
<trkpt lat="20.965555" lon="106.938812">
<ele>-2.130648</ele>
<time>2011-04-30T02:34:25Z</time>
<desc>lat.=20.965555, lon.=106.938812, Alt.=-2.130648m. Speed=5.256000m/h.</desc>
<speed>1.460000</speed>
</trkpt>
<trkpt lat="20.965504" lon="106.938889">
<ele>-2.375948</ele>
<time>2011-04-30T02:34:30Z</time>
<desc>lat.=20.965504, lon.=106.938889, Alt.=-2.375948m. Speed=6.192000m/h.</desc>
<speed>1.720000</speed>
</trkpt>
<trkpt lat="20.965485" lon="106.938950">
<ele>-3.357393</ele>
<time>2011-04-30T02:34:35Z</time>
<desc>lat.=20.965485, lon.=106.938950, Alt.=-3.357393m. Speed=3.348000m/h.</desc>
<speed>0.930000</speed>
</trkpt>
<trkpt lat="20.965462" lon="106.938988">
<ele>-2.833467</ele>
<time>2011-04-30T02:34:40Z</time>
<desc>lat.=20.965462, lon.=106.938988, Alt.=-2.833467m. Speed=1.656000m/h.</desc>
<speed>0.460000</speed>
</trkpt>
<trkpt lat="20.965427" lon="106.939026">
<ele>-2.165010</ele>
<time>2011-04-30T02:34:45Z</time>
<desc>lat.=20.965427, lon.=106.939026, Alt.=-2.165010m. Speed=2.772000m/h.</desc>
<speed>0.770000</speed>
</trkpt>
<trkpt lat="20.965422" lon="106.939041">
<ele>-2.420565</ele>
<time>2011-04-30T02:34:50Z</time>
<desc>lat.=20.965422, lon.=106.939041, Alt.=-2.420565m. Speed=1.440000m/h.</desc>
<speed>0.400000</speed>
</trkpt>
<trkpt lat="20.965431" lon="106.939049">
<ele>-2.609896</ele>
<time>2011-04-30T02:34:55Z</time>
<desc>lat.=20.965431, lon.=106.939049, Alt.=-2.609896m. Speed=3.528000m/h.</desc>
<speed>0.980000</speed>
</trkpt>
<trkpt lat="20.965330" lon="106.939171">
<ele>-2.766878</ele>
<time>2011-04-30T02:35:00Z</time>
<desc>lat.=20.965330, lon.=106.939171, Alt.=-2.766878m. Speed=12.060000m/h.</desc>
<speed>3.350000</speed>
</trkpt>
<trkpt lat="20.965212" lon="106.939301">
<ele>-1.000382</ele>
<time>2011-04-30T02:35:05Z</time>
<desc>lat.=20.965212, lon.=106.939301, Alt.=-1.000382m. Speed=8.496000m/h.</desc>
<speed>2.360000</speed>
</trkpt>
<trkpt lat="20.965107" lon="106.939415">
<ele>-1.185807</ele>
<time>2011-04-30T02:35:10Z</time>
<desc>lat.=20.965107, lon.=106.939415, Alt.=-1.185807m. Speed=10.332000m/h.</desc>
<speed>2.870000</speed>
</trkpt>
<trkpt lat="20.964966" lon="106.939575">
<ele>0.526009</ele>
<time>2011-04-30T02:35:15Z</time>
<desc>lat.=20.964966, lon.=106.939575, Alt.=0.526009m. Speed=16.271999m/h.</desc>
<speed>4.520000</speed>
</trkpt>
<trkpt lat="20.964863" lon="106.939743">
<ele>0.439282</ele>
<time>2011-04-30T02:35:20Z</time>
<desc>lat.=20.964863, lon.=106.939743, Alt.=0.439282m. Speed=13.428000m/h.</desc>
<speed>3.730000</speed>
</trkpt>
<trkpt lat="20.964785" lon="106.939888">
<ele>0.905007</ele>
<time>2011-04-30T02:35:25Z</time>
<desc>lat.=20.964785, lon.=106.939888, Alt.=0.905007m. Speed=10.908000m/h.</desc>
<speed>3.030000</speed>
</trkpt>
<trkpt lat="20.964695" lon="106.939987">
<ele>1.851548</ele>
<time>2011-04-30T02:35:30Z</time>
<desc>lat.=20.964695, lon.=106.939987, Alt.=1.851548m. Speed=7.128000m/h.</desc>
<speed>1.980000</speed>
</trkpt>
<trkpt lat="20.964638" lon="106.940086">
<ele>2.465487</ele>
<time>2011-04-30T02:35:35Z</time>
<desc>lat.=20.964638, lon.=106.940086, Alt.=2.465487m. Speed=7.128000m/h.</desc>
<speed>1.980000</speed>
</trkpt>
<trkpt lat="20.964573" lon="106.940216">
<ele>2.217134</ele>
<time>2011-04-30T02:35:40Z</time>
<desc>lat.=20.964573, lon.=106.940216, Alt.=2.217134m. Speed=8.964000m/h.</desc>
<speed>2.490000</speed>
</trkpt>
<trkpt lat="20.964542" lon="106.940277">
<ele>3.141939</ele>
<time>2011-04-30T02:35:45Z</time>
<desc>lat.=20.964542, lon.=106.940277, Alt.=3.141939m. Speed=1.872000m/h.</desc>
<speed>0.520000</speed>
</trkpt>
<trkpt lat="20.964533" lon="106.940300">
<ele>4.201115</ele>
<time>2011-04-30T02:35:50Z</time>
<desc>lat.=20.964533, lon.=106.940300, Alt.=4.201115m. Speed=1.512000m/h.</desc>
<speed>0.420000</speed>
</trkpt>
<trkpt lat="20.964521" lon="106.940315">
<ele>4.496037</ele>
<time>2011-04-30T02:35:55Z</time>
<desc>lat.=20.964521, lon.=106.940315, Alt.=4.496037m. Speed=0.936000m/h.</desc>
<speed>0.260000</speed>
</trkpt>
<trkpt lat="20.964521" lon="106.940323">
<ele>4.683903</ele>
<time>2011-04-30T02:36:00Z</time>
<desc>lat.=20.964521, lon.=106.940323, Alt.=4.683903m. Speed=0.576000m/h.</desc>
<speed>0.160000</speed>
</trkpt>
<trkpt lat="20.964499" lon="106.940392">
<ele>4.652897</ele>
<time>2011-04-30T02:36:05Z</time>
<desc>lat.=20.964499, lon.=106.940392, Alt.=4.652897m. Speed=9.360000m/h.</desc>
<speed>2.600000</speed>
</trkpt>
<trkpt lat="20.964424" lon="106.940575">
<ele>4.501896</ele>
<time>2011-04-30T02:36:10Z</time>
<desc>lat.=20.964424, lon.=106.940575, Alt.=4.501896m. Speed=17.136000m/h.</desc>
<speed>4.760000</speed>
</trkpt>
<trkpt lat="20.964355" lon="106.940811">
<ele>3.740511</ele>
<time>2011-04-30T02:36:15Z</time>
<desc>lat.=20.964355, lon.=106.940811, Alt.=3.740511m. Speed=20.483999m/h.</desc>
<speed>5.690000</speed>
</trkpt>
<trkpt lat="20.964266" lon="106.941055">
<ele>3.326509</ele>
<time>2011-04-30T02:36:20Z</time>
<desc>lat.=20.964266, lon.=106.941055, Alt.=3.326509m. Speed=17.028000m/h.</desc>
<speed>4.730000</speed>
</trkpt>
<trkpt lat="20.964211" lon="106.941261">
<ele>3.123751</ele>
<time>2011-04-30T02:36:25Z</time>
<desc>lat.=20.964211, lon.=106.941261, Alt.=3.123751m. Speed=13.032000m/h.</desc>
<speed>3.620000</speed>
</trkpt>
<trkpt lat="20.964161" lon="106.941452">
<ele>0.670876</ele>
<time>2011-04-30T02:36:30Z</time>
<desc>lat.=20.964161, lon.=106.941452, Alt.=0.670876m. Speed=11.232000m/h.</desc>
<speed>3.120000</speed>
</trkpt>
<trkpt lat="20.964149" lon="106.941620">
<ele>-1.014207</ele>
<time>2011-04-30T02:36:35Z</time>
<desc>lat.=20.964149, lon.=106.941620, Alt.=-1.014207m. Speed=13.284000m/h.</desc>
<speed>3.690000</speed>
</trkpt>
<trkpt lat="20.964058" lon="106.941910">
<ele>-1.797776</ele>
<time>2011-04-30T02:36:40Z</time>
<desc>lat.=20.964058, lon.=106.941910, Alt.=-1.797776m. Speed=25.236000m/h.</desc>
<speed>7.010000</speed>
</trkpt>
<trkpt lat="20.963894" lon="106.942345">
<ele>-1.436692</ele>
<time>2011-04-30T02:36:45Z</time>
<desc>lat.=20.963894, lon.=106.942345, Alt.=-1.436692m. Speed=35.855999m/h.</desc>
<speed>9.960000</speed>
</trkpt>
<trkpt lat="20.963707" lon="106.942810">
<ele>-2.468294</ele>
<time>2011-04-30T02:36:50Z</time>
<desc>lat.=20.963707, lon.=106.942810, Alt.=-2.468294m. Speed=38.916000m/h.</desc>
<speed>10.810000</speed>
</trkpt>
<trkpt lat="20.963425" lon="106.943321">
<ele>-3.260530</ele>
<time>2011-04-30T02:36:55Z</time>
<desc>lat.=20.963425, lon.=106.943321, Alt.=-3.260530m. Speed=44.712002m/h.</desc>
<speed>12.420001</speed>
</trkpt>
<trkpt lat="20.963058" lon="106.943817">
<ele>-2.066133</ele>
<time>2011-04-30T02:37:00Z</time>
<desc>lat.=20.963058, lon.=106.943817, Alt.=-2.066133m. Speed=43.740002m/h.</desc>
<speed>12.150000</speed>
</trkpt>
<trkpt lat="20.962671" lon="106.944252">
<ele>-2.241549</ele>
<time>2011-04-30T02:37:05Z</time>
<desc>lat.=20.962671, lon.=106.944252, Alt.=-2.241549m. Speed=44.063999m/h.</desc>
<speed>12.240000</speed>
</trkpt>
<trkpt lat="20.962275" lon="106.944695">
<ele>-2.411348</ele>
<time>2011-04-30T02:37:10Z</time>
<desc>lat.=20.962275, lon.=106.944695, Alt.=-2.411348m. Speed=43.523998m/h.</desc>
<speed>12.090000</speed>
</trkpt>
<trkpt lat="20.961887" lon="106.945091">
<ele>-1.625108</ele>
<time>2011-04-30T02:37:15Z</time>
<desc>lat.=20.961887, lon.=106.945091, Alt.=-1.625108m. Speed=37.043999m/h.</desc>
<speed>10.290000</speed>
</trkpt>
<trkpt lat="20.961592" lon="106.945404">
<ele>-1.934739</ele>
<time>2011-04-30T02:37:20Z</time>
<desc>lat.=20.961592, lon.=106.945404, Alt.=-1.934739m. Speed=21.851999m/h.</desc>
<speed>6.070000</speed>
</trkpt>
<trkpt lat="20.961391" lon="106.945587">
<ele>-2.039461</ele>
<time>2011-04-30T02:37:25Z</time>
<desc>lat.=20.961391, lon.=106.945587, Alt.=-2.039461m. Speed=17.639999m/h.</desc>
<speed>4.900000</speed>
</trkpt>
<trkpt lat="20.961123" lon="106.945831">
<ele>-4.050358</ele>
<time>2011-04-30T02:37:30Z</time>
<desc>lat.=20.961123, lon.=106.945831, Alt.=-4.050358m. Speed=34.848000m/h.</desc>
<speed>9.680000</speed>
</trkpt>
<trkpt lat="20.960743" lon="106.946121">
<ele>-3.948580</ele>
<time>2011-04-30T02:37:35Z</time>
<desc>lat.=20.960743, lon.=106.946121, Alt.=-3.948580m. Speed=35.279999m/h.</desc>
<speed>9.800000</speed>
</trkpt>
<trkpt lat="20.960291" lon="106.946365">
<ele>-2.551058</ele>
<time>2011-04-30T02:37:40Z</time>
<desc>lat.=20.960291, lon.=106.946365, Alt.=-2.551058m. Speed=39.636002m/h.</desc>
<speed>11.010000</speed>
</trkpt>
<trkpt lat="20.959860" lon="106.946587">
<ele>-2.479525</ele>
<time>2011-04-30T02:37:45Z</time>
<desc>lat.=20.959860, lon.=106.946587, Alt.=-2.479525m. Speed=35.208000m/h.</desc>
<speed>9.780000</speed>
</trkpt>
<trkpt lat="20.959484" lon="106.946800">
<ele>-2.225069</ele>
<time>2011-04-30T02:37:50Z</time>
<desc>lat.=20.959484, lon.=106.946800, Alt.=-2.225069m. Speed=31.860001m/h.</desc>
<speed>8.850000</speed>
</trkpt>
<trkpt lat="20.959146" lon="106.947067">
<ele>-4.104679</ele>
<time>2011-04-30T02:37:55Z</time>
<desc>lat.=20.959146, lon.=106.947067, Alt.=-4.104679m. Speed=32.580002m/h.</desc>
<speed>9.050001</speed>
</trkpt>
<trkpt lat="20.958824" lon="106.947334">
<ele>-5.317570</ele>
<time>2011-04-30T02:38:00Z</time>
<desc>lat.=20.958824, lon.=106.947334, Alt.=-5.317570m. Speed=34.703999m/h.</desc>
<speed>9.640000</speed>
</trkpt>
<trkpt lat="20.958481" lon="106.947670">
<ele>-5.935978</ele>
<time>2011-04-30T02:38:05Z</time>
<desc>lat.=20.958481, lon.=106.947670, Alt.=-5.935978m. Speed=32.832001m/h.</desc>
<speed>9.120000</speed>
</trkpt>
<trkpt lat="20.958263" lon="106.948029">
<ele>-5.476017</ele>
<time>2011-04-30T02:38:10Z</time>
<desc>lat.=20.958263, lon.=106.948029, Alt.=-5.476017m. Speed=33.192001m/h.</desc>
<speed>9.220000</speed>
</trkpt>
<trkpt lat="20.958052" lon="106.948441">
<ele>-4.189274</ele>
<time>2011-04-30T02:38:15Z</time>
<desc>lat.=20.958052, lon.=106.948441, Alt.=-4.189274m. Speed=36.612000m/h.</desc>
<speed>10.170000</speed>
</trkpt>
<trkpt lat="20.957912" lon="106.948891">
<ele>-4.111759</ele>
<time>2011-04-30T02:38:20Z</time>
<desc>lat.=20.957912, lon.=106.948891, Alt.=-4.111759m. Speed=35.784000m/h.</desc>
<speed>9.940000</speed>
</trkpt>
<trkpt lat="20.957859" lon="106.949417">
<ele>-5.420475</ele>
<time>2011-04-30T02:38:25Z</time>
<desc>lat.=20.957859, lon.=106.949417, Alt.=-5.420475m. Speed=34.091999m/h.</desc>
<speed>9.470000</speed>
</trkpt>
<trkpt lat="20.957846" lon="106.949814">
<ele>-6.906193</ele>
<time>2011-04-30T02:38:30Z</time>
<desc>lat.=20.957846, lon.=106.949814, Alt.=-6.906193m. Speed=27.288000m/h.</desc>
<speed>7.580000</speed>
</trkpt>
<trkpt lat="20.957844" lon="106.950188">
<ele>-7.523991</ele>
<time>2011-04-30T02:38:35Z</time>
<desc>lat.=20.957844, lon.=106.950188, Alt.=-7.523991m. Speed=28.656000m/h.</desc>
<speed>7.960000</speed>
</trkpt>
<trkpt lat="20.957850" lon="106.950638">
<ele>-8.645638</ele>
<time>2011-04-30T02:38:40Z</time>
<desc>lat.=20.957850, lon.=106.950638, Alt.=-8.645638m. Speed=36.504002m/h.</desc>
<speed>10.140000</speed>
</trkpt>
<trkpt lat="20.957827" lon="106.951195">
<ele>-7.543766</ele>
<time>2011-04-30T02:38:45Z</time>
<desc>lat.=20.957827, lon.=106.951195, Alt.=-7.543766m. Speed=42.299999m/h.</desc>
<speed>11.750000</speed>
</trkpt>
<trkpt lat="20.957794" lon="106.951759">
<ele>-8.427132</ele>
<time>2011-04-30T02:38:50Z</time>
<desc>lat.=20.957794, lon.=106.951759, Alt.=-8.427132m. Speed=40.751999m/h.</desc>
<speed>11.320000</speed>
</trkpt>
<trkpt lat="20.957712" lon="106.952332">
<ele>-10.200081</ele>
<time>2011-04-30T02:38:55Z</time>
<desc>lat.=20.957712, lon.=106.952332, Alt.=-10.200081m. Speed=41.256001m/h.</desc>
<speed>11.460000</speed>
</trkpt>
<trkpt lat="20.957619" lon="106.952843">
<ele>-10.103889</ele>
<time>2011-04-30T02:39:00Z</time>
<desc>lat.=20.957619, lon.=106.952843, Alt.=-10.103889m. Speed=38.664001m/h.</desc>
<speed>10.740000</speed>
</trkpt>
<trkpt lat="20.957533" lon="106.953346">
<ele>-11.550911</ele>
<time>2011-04-30T02:39:05Z</time>
<desc>lat.=20.957533, lon.=106.953346, Alt.=-11.550911m. Speed=39.060001m/h.</desc>
<speed>10.850000</speed>
</trkpt>
<trkpt lat="20.957403" lon="106.953888">
<ele>-11.533333</ele>
<time>2011-04-30T02:39:10Z</time>
<desc>lat.=20.957403, lon.=106.953888, Alt.=-11.533333m. Speed=43.632000m/h.</desc>
<speed>12.120000</speed>
</trkpt>
<trkpt lat="20.957270" lon="106.954552">
<ele>-11.837044</ele>
<time>2011-04-30T02:39:15Z</time>
<desc>lat.=20.957270, lon.=106.954552, Alt.=-11.837044m. Speed=50.580002m/h.</desc>
<speed>14.050001</speed>
</trkpt>
<trkpt lat="20.957115" lon="106.955208">
<ele>-11.374153</ele>
<time>2011-04-30T02:39:20Z</time>
<desc>lat.=20.957115, lon.=106.955208, Alt.=-11.374153m. Speed=48.348000m/h.</desc>
<speed>13.430000</speed>
</trkpt>
<trkpt lat="20.956991" lon="106.955841">
<ele>-11.684700</ele>
<time>2011-04-30T02:39:25Z</time>
<desc>lat.=20.956991, lon.=106.955841, Alt.=-11.684700m. Speed=48.492001m/h.</desc>
<speed>13.470000</speed>
</trkpt>
<trkpt lat="20.956850" lon="106.956505">
<ele>-12.102669</ele>
<time>2011-04-30T02:39:30Z</time>
<desc>lat.=20.956850, lon.=106.956505, Alt.=-12.102669m. Speed=48.023998m/h.</desc>
<speed>13.340000</speed>
</trkpt>
<trkpt lat="20.956724" lon="106.957115">
<ele>-13.013313</ele>
<time>2011-04-30T02:39:35Z</time>
<desc>lat.=20.956724, lon.=106.957115, Alt.=-13.013313m. Speed=46.764000m/h.</desc>
<speed>12.990000</speed>
</trkpt>
<trkpt lat="20.956606" lon="106.957733">
<ele>-14.364876</ele>
<time>2011-04-30T02:39:40Z</time>
<desc>lat.=20.956606, lon.=106.957733, Alt.=-14.364876m. Speed=47.015999m/h.</desc>
<speed>13.060000</speed>
</trkpt>
<trkpt lat="20.956467" lon="106.958397">
<ele>-14.544075</ele>
<time>2011-04-30T02:39:45Z</time>
<desc>lat.=20.956467, lon.=106.958397, Alt.=-14.544075m. Speed=52.740002m/h.</desc>
<speed>14.650000</speed>
</trkpt>
<trkpt lat="20.956343" lon="106.959076">
<ele>-15.524300</ele>
<time>2011-04-30T02:39:50Z</time>
<desc>lat.=20.956343, lon.=106.959076, Alt.=-15.524300m. Speed=47.484001m/h.</desc>
<speed>13.190000</speed>
</trkpt>
<trkpt lat="20.956324" lon="106.959763">
<ele>-17.336197</ele>
<time>2011-04-30T02:39:55Z</time>
<desc>lat.=20.956324, lon.=106.959763, Alt.=-17.336197m. Speed=50.147999m/h.</desc>
<speed>13.930000</speed>
</trkpt>
<trkpt lat="20.956438" lon="106.960411">
<ele>-18.987076</ele>
<time>2011-04-30T02:40:00Z</time>
<desc>lat.=20.956438, lon.=106.960411, Alt.=-18.987076m. Speed=47.375999m/h.</desc>
<speed>13.160000</speed>
</trkpt>
<trkpt lat="20.956621" lon="106.961060">
<ele>-20.510025</ele>
<time>2011-04-30T02:40:05Z</time>
<desc>lat.=20.956621, lon.=106.961060, Alt.=-20.510025m. Speed=47.340000m/h.</desc>
<speed>13.150000</speed>
</trkpt>
<trkpt lat="20.956736" lon="106.961617">
<ele>-21.819595</ele>
<time>2011-04-30T02:40:10Z</time>
<desc>lat.=20.956736, lon.=106.961617, Alt.=-21.819595m. Speed=32.652000m/h.</desc>
<speed>9.070000</speed>
</trkpt>
<trkpt lat="20.956831" lon="106.962074">
<ele>-22.994400</ele>
<time>2011-04-30T02:40:15Z</time>
<desc>lat.=20.956831, lon.=106.962074, Alt.=-22.994400m. Speed=31.896000m/h.</desc>
<speed>8.860000</speed>
</trkpt>
<trkpt lat="20.956892" lon="106.962570">
<ele>-24.595963</ele>
<time>2011-04-30T02:40:20Z</time>
<desc>lat.=20.956892, lon.=106.962570, Alt.=-24.595963m. Speed=40.355999m/h.</desc>
<speed>11.210000</speed>
</trkpt>
<trkpt lat="20.956903" lon="106.963181">
<ele>-22.913345</ele>
<time>2011-04-30T02:40:25Z</time>
<desc>lat.=20.956903, lon.=106.963181, Alt.=-22.913345m. Speed=42.875999m/h.</desc>
<speed>11.910000</speed>
</trkpt>
<trkpt lat="20.956850" lon="106.963753">
<ele>-21.011490</ele>
<time>2011-04-30T02:40:30Z</time>
<desc>lat.=20.956850, lon.=106.963753, Alt.=-21.011490m. Speed=43.271999m/h.</desc>
<speed>12.020000</speed>
</trkpt>
<trkpt lat="20.956766" lon="106.964302">
<ele>-19.428482</ele>
<time>2011-04-30T02:40:35Z</time>
<desc>lat.=20.956766, lon.=106.964302, Alt.=-19.428482m. Speed=39.528000m/h.</desc>
<speed>10.980000</speed>
</trkpt>
<trkpt lat="20.956654" lon="106.964851">
<ele>-19.700455</ele>
<time>2011-04-30T02:40:40Z</time>
<desc>lat.=20.956654, lon.=106.964851, Alt.=-19.700455m. Speed=45.000000m/h.</desc>
<speed>12.500000</speed>
</trkpt>
<trkpt lat="20.956476" lon="106.965500">
<ele>-19.148697</ele>
<time>2011-04-30T02:40:45Z</time>
<desc>lat.=20.956476, lon.=106.965500, Alt.=-19.148697m. Speed=52.452000m/h.</desc>
<speed>14.570000</speed>
</trkpt>
<trkpt lat="20.956287" lon="106.966133">
<ele>-17.399185</ele>
<time>2011-04-30T02:40:50Z</time>
<desc>lat.=20.956287, lon.=106.966133, Alt.=-17.399185m. Speed=50.939999m/h.</desc>
<speed>14.150000</speed>
</trkpt>
<trkpt lat="20.956078" lon="106.966866">
<ele>-14.507454</ele>
<time>2011-04-30T02:40:55Z</time>
<desc>lat.=20.956078, lon.=106.966866, Alt.=-14.507454m. Speed=56.088001m/h.</desc>
<speed>15.580000</speed>
</trkpt>
<trkpt lat="20.955864" lon="106.967606">
<ele>-11.824593</ele>
<time>2011-04-30T02:41:00Z</time>
<desc>lat.=20.955864, lon.=106.967606, Alt.=-11.824593m. Speed=54.071999m/h.</desc>
<speed>15.020000</speed>
</trkpt>
<trkpt lat="20.955664" lon="106.968346">
<ele>-11.376839</ele>
<time>2011-04-30T02:41:05Z</time>
<desc>lat.=20.955664, lon.=106.968346, Alt.=-11.376839m. Speed=59.400002m/h.</desc>
<speed>16.500000</speed>
</trkpt>
<trkpt lat="20.955465" lon="106.969131">
<ele>-9.745247</ele>
<time>2011-04-30T02:41:10Z</time>
<desc>lat.=20.955465, lon.=106.969131, Alt.=-9.745247m. Speed=54.180000m/h.</desc>
<speed>15.050000</speed>
</trkpt>
<trkpt lat="20.955252" lon="106.969757">
<ele>-6.749699</ele>
<time>2011-04-30T02:41:15Z</time>
<desc>lat.=20.955252, lon.=106.969757, Alt.=-6.749699m. Speed=48.096001m/h.</desc>
<speed>13.360000</speed>
</trkpt>
<trkpt lat="20.955088" lon="106.970268">
<ele>-6.077579</ele>
<time>2011-04-30T02:41:20Z</time>
<desc>lat.=20.955088, lon.=106.970268, Alt.=-6.077579m. Speed=41.939999m/h.</desc>
<speed>11.650000</speed>
</trkpt>
<trkpt lat="20.954956" lon="106.970871">
<ele>-6.775333</ele>
<time>2011-04-30T02:41:25Z</time>
<desc>lat.=20.954956, lon.=106.970871, Alt.=-6.775333m. Speed=48.852001m/h.</desc>
<speed>13.570000</speed>
</trkpt>
<trkpt lat="20.954844" lon="106.971481">
<ele>-6.498966</ele>
<time>2011-04-30T02:41:30Z</time>
<desc>lat.=20.954844, lon.=106.971481, Alt.=-6.498966m. Speed=45.360001m/h.</desc>
<speed>12.600000</speed>
</trkpt>
<trkpt lat="20.954845" lon="106.972130">
<ele>-5.801090</ele>
<time>2011-04-30T02:41:35Z</time>
<desc>lat.=20.954845, lon.=106.972130, Alt.=-5.801090m. Speed=47.160000m/h.</desc>
<speed>13.100000</speed>
</trkpt>
<trkpt lat="20.954918" lon="106.972763">
<ele>-6.487003</ele>
<time>2011-04-30T02:41:40Z</time>
<desc>lat.=20.954918, lon.=106.972763, Alt.=-6.487003m. Speed=45.576000m/h.</desc>
<speed>12.660000</speed>
</trkpt>
<trkpt lat="20.954985" lon="106.973396">
<ele>-7.450016</ele>
<time>2011-04-30T02:41:45Z</time>
<desc>lat.=20.954985, lon.=106.973396, Alt.=-7.450016m. Speed=44.352001m/h.</desc>
<speed>12.320000</speed>
</trkpt>
<trkpt lat="20.955067" lon="106.973976">
<ele>-6.197330</ele>
<time>2011-04-30T02:41:50Z</time>
<desc>lat.=20.955067, lon.=106.973976, Alt.=-6.197330m. Speed=45.612000m/h.</desc>
<speed>12.670000</speed>
</trkpt>
<trkpt lat="20.955185" lon="106.974663">
<ele>-6.824772</ele>
<time>2011-04-30T02:41:55Z</time>
<desc>lat.=20.955185, lon.=106.974663, Alt.=-6.824772m. Speed=51.695999m/h.</desc>
<speed>14.360000</speed>
</trkpt>
<trkpt lat="20.955269" lon="106.975365">
<ele>-7.536686</ele>
<time>2011-04-30T02:42:00Z</time>
<desc>lat.=20.955269, lon.=106.975365, Alt.=-7.536686m. Speed=51.048000m/h.</desc>
<speed>14.180000</speed>
</trkpt>
<trkpt lat="20.955309" lon="106.976021">
<ele>-9.497932</ele>
<time>2011-04-30T02:42:05Z</time>
<desc>lat.=20.955309, lon.=106.976021, Alt.=-9.497932m. Speed=47.771999m/h.</desc>
<speed>13.270000</speed>
</trkpt>
<trkpt lat="20.955343" lon="106.976669">
<ele>-10.662239</ele>
<time>2011-04-30T02:42:10Z</time>
<desc>lat.=20.955343, lon.=106.976669, Alt.=-10.662239m. Speed=46.728001m/h.</desc>
<speed>12.980000</speed>
</trkpt>
<trkpt lat="20.955366" lon="106.977264">
<ele>-12.017952</ele>
<time>2011-04-30T02:42:15Z</time>
<desc>lat.=20.955366, lon.=106.977264, Alt.=-12.017952m. Speed=42.515999m/h.</desc>
<speed>11.810000</speed>
</trkpt>
<trkpt lat="20.955397" lon="106.977844">
<ele>-13.438362</ele>
<time>2011-04-30T02:42:20Z</time>
<desc>lat.=20.955397, lon.=106.977844, Alt.=-13.438362m. Speed=38.340000m/h.</desc>
<speed>10.650000</speed>
</trkpt>
<trkpt lat="20.955399" lon="106.978325">
<ele>-15.731331</ele>
<time>2011-04-30T02:42:25Z</time>
<desc>lat.=20.955399, lon.=106.978325, Alt.=-15.731331m. Speed=37.403999m/h.</desc>
<speed>10.390000</speed>
</trkpt>
<trkpt lat="20.955339" lon="106.978783">
<ele>-15.056770</ele>
<time>2011-04-30T02:42:30Z</time>
<desc>lat.=20.955339, lon.=106.978783, Alt.=-15.056770m. Speed=30.528000m/h.</desc>
<speed>8.480000</speed>
</trkpt>
<trkpt lat="20.955280" lon="106.979164">
<ele>-16.431900</ele>
<time>2011-04-30T02:42:35Z</time>
<desc>lat.=20.955280, lon.=106.979164, Alt.=-16.431900m. Speed=31.212000m/h.</desc>
<speed>8.670000</speed>
</trkpt>
<trkpt lat="20.955223" lon="106.979576">
<ele>-15.419075</ele>
<time>2011-04-30T02:42:40Z</time>
<desc>lat.=20.955223, lon.=106.979576, Alt.=-15.419075m. Speed=28.115999m/h.</desc>
<speed>7.810000</speed>
</trkpt>
<trkpt lat="20.955162" lon="106.979958">
<ele>-14.080696</ele>
<time>2011-04-30T02:42:45Z</time>
<desc>lat.=20.955162, lon.=106.979958, Alt.=-14.080696m. Speed=32.112000m/h.</desc>
<speed>8.920000</speed>
</trkpt>
<trkpt lat="20.955114" lon="106.980392">
<ele>-17.127213</ele>
<time>2011-04-30T02:42:50Z</time>
<desc>lat.=20.955114, lon.=106.980392, Alt.=-17.127213m. Speed=31.680000m/h.</desc>
<speed>8.800000</speed>
</trkpt>
<trkpt lat="20.955025" lon="106.980797">
<ele>-18.158951</ele>
<time>2011-04-30T02:42:55Z</time>
<desc>lat.=20.955025, lon.=106.980797, Alt.=-18.158951m. Speed=32.436001m/h.</desc>
<speed>9.010000</speed>
</trkpt>
<trkpt lat="20.954935" lon="106.981209">
<ele>-18.358658</ele>
<time>2011-04-30T02:43:00Z</time>
<desc>lat.=20.954935, lon.=106.981209, Alt.=-18.358658m. Speed=30.167999m/h.</desc>
<speed>8.380000</speed>
</trkpt>
<trkpt lat="20.954908" lon="106.981613">
<ele>-17.520279</ele>
<time>2011-04-30T02:43:05Z</time>
<desc>lat.=20.954908, lon.=106.981613, Alt.=-17.520279m. Speed=28.656000m/h.</desc>
<speed>7.960000</speed>
</trkpt>
<trkpt lat="20.955078" lon="106.981987">
<ele>-17.138931</ele>
<time>2011-04-30T02:43:10Z</time>
<desc>lat.=20.955078, lon.=106.981987, Alt.=-17.138931m. Speed=31.284000m/h.</desc>
<speed>8.690000</speed>
</trkpt>
<trkpt lat="20.955345" lon="106.982323">
<ele>-14.292610</ele>
<time>2011-04-30T02:43:15Z</time>
<desc>lat.=20.955345, lon.=106.982323, Alt.=-14.292610m. Speed=32.507999m/h.</desc>
<speed>9.030000</speed>
</trkpt>
<trkpt lat="20.955601" lon="106.982719">
<ele>-12.515266</ele>
<time>2011-04-30T02:43:20Z</time>
<desc>lat.=20.955601, lon.=106.982719, Alt.=-12.515266m. Speed=37.835999m/h.</desc>
<speed>10.510000</speed>
</trkpt>
<trkpt lat="20.955841" lon="106.983170">
<ele>-11.807259</ele>
<time>2011-04-30T02:43:25Z</time>
<desc>lat.=20.955841, lon.=106.983170, Alt.=-11.807259m. Speed=38.520000m/h.</desc>
<speed>10.700000</speed>
</trkpt>
<trkpt lat="20.956097" lon="106.983604">
<ele>-10.624641</ele>
<time>2011-04-30T02:43:30Z</time>
<desc>lat.=20.956097, lon.=106.983604, Alt.=-10.624641m. Speed=35.459999m/h.</desc>
<speed>9.850000</speed>
</trkpt>
<trkpt lat="20.956385" lon="106.983986">
<ele>-5.223209</ele>
<time>2011-04-30T02:43:35Z</time>
<desc>lat.=20.956385, lon.=106.983986, Alt.=-5.223209m. Speed=37.980000m/h.</desc>
<speed>10.550000</speed>
</trkpt>
<trkpt lat="20.956713" lon="106.984344">
<ele>-1.750047</ele>
<time>2011-04-30T02:43:40Z</time>
<desc>lat.=20.956713, lon.=106.984344, Alt.=-1.750047m. Speed=37.368000m/h.</desc>
<speed>10.380000</speed>
</trkpt>
<trkpt lat="20.957104" lon="106.984741">
<ele>2.096468</ele>
<time>2011-04-30T02:43:45Z</time>
<desc>lat.=20.957104, lon.=106.984741, Alt.=2.096468m. Speed=42.084000m/h.</desc>
<speed>11.690000</speed>
</trkpt>
<trkpt lat="20.957476" lon="106.985130">
<ele>4.249821</ele>
<time>2011-04-30T02:43:50Z</time>
<desc>lat.=20.957476, lon.=106.985130, Alt.=4.249821m. Speed=34.812000m/h.</desc>
<speed>9.670000</speed>
</trkpt>
<trkpt lat="20.957808" lon="106.985527">
<ele>3.147310</ele>
<time>2011-04-30T02:43:55Z</time>
<desc>lat.=20.957808, lon.=106.985527, Alt.=3.147310m. Speed=43.020000m/h.</desc>
<speed>11.950000</speed>
</trkpt>
<trkpt lat="20.958200" lon="106.985992">
<ele>1.925858</ele>
<time>2011-04-30T02:44:00Z</time>
<desc>lat.=20.958200, lon.=106.985992, Alt.=1.925858m. Speed=45.396000m/h.</desc>
<speed>12.610000</speed>
</trkpt>
<trkpt lat="20.958555" lon="106.986420">
<ele>-0.432118</ele>
<time>2011-04-30T02:44:05Z</time>
<desc>lat.=20.958555, lon.=106.986420, Alt.=-0.432118m. Speed=38.807999m/h.</desc>
<speed>10.780000</speed>
</trkpt>
<trkpt lat="20.958864" lon="106.986855">
<ele>-1.508164</ele>
<time>2011-04-30T02:44:10Z</time>
<desc>lat.=20.958864, lon.=106.986855, Alt.=-1.508164m. Speed=38.088001m/h.</desc>
<speed>10.580000</speed>
</trkpt>
<trkpt lat="20.959141" lon="106.987267">
<ele>-1.311173</ele>
<time>2011-04-30T02:44:15Z</time>
<desc>lat.=20.959141, lon.=106.987267, Alt.=-1.311173m. Speed=33.660000m/h.</desc>
<speed>9.350000</speed>
</trkpt>
<trkpt lat="20.959398" lon="106.987640">
<ele>-3.000277</ele>
<time>2011-04-30T02:44:20Z</time>
<desc>lat.=20.959398, lon.=106.987640, Alt.=-3.000277m. Speed=27.936001m/h.</desc>
<speed>7.760000</speed>
</trkpt>
<trkpt lat="20.959608" lon="106.987968">
<ele>-5.036320</ele>
<time>2011-04-30T02:44:25Z</time>
<desc>lat.=20.959608, lon.=106.987968, Alt.=-5.036320m. Speed=27.648001m/h.</desc>
<speed>7.680000</speed>
</trkpt>
<trkpt lat="20.959785" lon="106.988205">
<ele>-5.307072</ele>
<time>2011-04-30T02:44:30Z</time>
<desc>lat.=20.959785, lon.=106.988205, Alt.=-5.307072m. Speed=22.896000m/h.</desc>
<speed>6.360000</speed>
</trkpt>
<trkpt lat="20.960022" lon="106.988564">
<ele>-7.135319</ele>
<time>2011-04-30T02:44:35Z</time>
<desc>lat.=20.960022, lon.=106.988564, Alt.=-7.135319m. Speed=36.396000m/h.</desc>
<speed>10.110000</speed>
</trkpt>
<trkpt lat="20.960337" lon="106.989059">
<ele>-7.896915</ele>
<time>2011-04-30T02:44:40Z</time>
<desc>lat.=20.960337, lon.=106.989059, Alt.=-7.896915m. Speed=43.164001m/h.</desc>
<speed>11.990000</speed>
</trkpt>
<trkpt lat="20.960705" lon="106.989502">
<ele>-8.458870</ele>
<time>2011-04-30T02:44:45Z</time>
<desc>lat.=20.960705, lon.=106.989502, Alt.=-8.458870m. Speed=45.216000m/h.</desc>
<speed>12.560000</speed>
</trkpt>
<trkpt lat="20.961149" lon="106.989975">
<ele>-9.086311</ele>
<time>2011-04-30T02:44:50Z</time>
<desc>lat.=20.961149, lon.=106.989975, Alt.=-9.086311m. Speed=52.596001m/h.</desc>
<speed>14.610000</speed>
</trkpt>
<trkpt lat="20.961723" lon="106.990486">
<ele>-7.321964</ele>
<time>2011-04-30T02:44:55Z</time>
<desc>lat.=20.961723, lon.=106.990486, Alt.=-7.321964m. Speed=60.012001m/h.</desc>
<speed>16.670000</speed>
</trkpt>
<trkpt lat="20.962368" lon="106.990936">
<ele>-8.524544</ele>
<time>2011-04-30T02:45:00Z</time>
<desc>lat.=20.962368, lon.=106.990936, Alt.=-8.524544m. Speed=60.624001m/h.</desc>
<speed>16.840000</speed>
</trkpt>
<trkpt lat="20.963087" lon="106.991310">
<ele>-13.344612</ele>
<time>2011-04-30T02:45:05Z</time>
<desc>lat.=20.963087, lon.=106.991310, Alt.=-13.344612m. Speed=62.784000m/h.</desc>
<speed>17.440000</speed>
</trkpt>
<trkpt lat="20.963844" lon="106.991623">
<ele>-15.634407</ele>
<time>2011-04-30T02:45:10Z</time>
<desc>lat.=20.963844, lon.=106.991623, Alt.=-15.634407m. Speed=63.863998m/h.</desc>
<speed>17.740000</speed>
</trkpt>
<trkpt lat="20.964607" lon="106.991867">
<ele>-15.609749</ele>
<time>2011-04-30T02:45:15Z</time>
<desc>lat.=20.964607, lon.=106.991867, Alt.=-15.609749m. Speed=64.260002m/h.</desc>
<speed>17.850001</speed>
</trkpt>
<trkpt lat="20.965372" lon="106.992126">
<ele>-15.252083</ele>
<time>2011-04-30T02:45:20Z</time>
<desc>lat.=20.965372, lon.=106.992126, Alt.=-15.252083m. Speed=58.680000m/h.</desc>
<speed>16.300000</speed>
</trkpt>
<trkpt lat="20.966055" lon="106.992409">
<ele>-15.221809</ele>
<time>2011-04-30T02:45:25Z</time>
<desc>lat.=20.966055, lon.=106.992409, Alt.=-15.221809m. Speed=56.448002m/h.</desc>
<speed>15.680001</speed>
</trkpt>
<trkpt lat="20.966677" lon="106.992851">
<ele>-15.035042</ele>
<time>2011-04-30T02:45:30Z</time>
<desc>lat.=20.966677, lon.=106.992851, Alt.=-15.035042m. Speed=59.939999m/h.</desc>
<speed>16.650000</speed>
</trkpt>
<trkpt lat="20.967173" lon="106.993477">
<ele>-14.760384</ele>
<time>2011-04-30T02:45:35Z</time>
<desc>lat.=20.967173, lon.=106.993477, Alt.=-14.760384m. Speed=60.119999m/h.</desc>
<speed>16.700000</speed>
</trkpt>
<trkpt lat="20.967535" lon="106.994232">
<ele>-14.939583</ele>
<time>2011-04-30T02:45:40Z</time>
<desc>lat.=20.967535, lon.=106.994232, Alt.=-14.939583m. Speed=60.588001m/h.</desc>
<speed>16.830000</speed>
</trkpt>
<trkpt lat="20.967905" lon="106.994919">
<ele>-15.077766</ele>
<time>2011-04-30T02:45:45Z</time>
<desc>lat.=20.967905, lon.=106.994919, Alt.=-15.077766m. Speed=59.652000m/h.</desc>
<speed>16.570000</speed>
</trkpt>
<trkpt lat="20.968449" lon="106.995468">
<ele>-14.714241</ele>
<time>2011-04-30T02:45:50Z</time>
<desc>lat.=20.968449, lon.=106.995468, Alt.=-14.714241m. Speed=55.043999m/h.</desc>
<speed>15.290000</speed>
</trkpt>
<trkpt lat="20.969097" lon="106.995667">
<ele>-14.375618</ele>
<time>2011-04-30T02:45:55Z</time>
<desc>lat.=20.969097, lon.=106.995667, Alt.=-14.375618m. Speed=53.495998m/h.</desc>
<speed>14.860000</speed>
</trkpt>
<trkpt lat="20.969818" lon="106.995697">
<ele>-14.668343</ele>
<time>2011-04-30T02:46:00Z</time>
<desc>lat.=20.969818, lon.=106.995697, Alt.=-14.668343m. Speed=56.411999m/h.</desc>
<speed>15.670000</speed>
</trkpt>
<trkpt lat="20.970535" lon="106.995865">
<ele>-15.447639</ele>
<time>2011-04-30T02:46:05Z</time>
<desc>lat.=20.970535, lon.=106.995865, Alt.=-15.447639m. Speed=56.124001m/h.</desc>
<speed>15.590000</speed>
</trkpt>
<trkpt lat="20.971033" lon="106.996330">
<ele>-16.034439</ele>
<time>2011-04-30T02:46:10Z</time>
<desc>lat.=20.971033, lon.=106.996330, Alt.=-16.034439m. Speed=51.875999m/h.</desc>
<speed>14.410000</speed>
</trkpt>
<trkpt lat="20.971270" lon="106.996994">
<ele>-17.222427</ele>
<time>2011-04-30T02:46:15Z</time>
<desc>lat.=20.971270, lon.=106.996994, Alt.=-17.222427m. Speed=52.523998m/h.</desc>
<speed>14.590000</speed>
</trkpt>
<trkpt lat="20.971369" lon="106.997658">
<ele>-16.406509</ele>
<time>2011-04-30T02:46:20Z</time>
<desc>lat.=20.971369, lon.=106.997658, Alt.=-16.406509m. Speed=52.307999m/h.</desc>
<speed>14.530000</speed>
</trkpt>
<trkpt lat="20.971436" lon="106.998489">
<ele>-16.650162</ele>
<time>2011-04-30T02:46:25Z</time>
<desc>lat.=20.971436, lon.=106.998489, Alt.=-16.650162m. Speed=61.452000m/h.</desc>
<speed>17.070000</speed>
</trkpt>
<trkpt lat="20.971529" lon="106.999405">
<ele>-16.990982</ele>
<time>2011-04-30T02:46:30Z</time>
<desc>lat.=20.971529, lon.=106.999405, Alt.=-16.990982m. Speed=63.972000m/h.</desc>
<speed>17.770000</speed>
</trkpt>
<trkpt lat="20.971590" lon="107.000282">
<ele>-14.902718</ele>
<time>2011-04-30T02:46:35Z</time>
<desc>lat.=20.971590, lon.=107.000282, Alt.=-14.902718m. Speed=60.984001m/h.</desc>
<speed>16.940000</speed>
</trkpt>
<trkpt lat="20.971661" lon="107.001068">
<ele>-14.246956</ele>
<time>2011-04-30T02:46:40Z</time>
<desc>lat.=20.971661, lon.=107.001068, Alt.=-14.246956m. Speed=58.391998m/h.</desc>
<speed>16.220000</speed>
</trkpt>
<trkpt lat="20.971754" lon="107.001839">
<ele>-13.398567</ele>
<time>2011-04-30T02:46:45Z</time>
<desc>lat.=20.971754, lon.=107.001839, Alt.=-13.398567m. Speed=57.672001m/h.</desc>
<speed>16.020000</speed>
</trkpt>
<trkpt lat="20.971830" lon="107.002625">
<ele>-13.566780</ele>
<time>2011-04-30T02:46:50Z</time>
<desc>lat.=20.971830, lon.=107.002625, Alt.=-13.566780m. Speed=60.588001m/h.</desc>
<speed>16.830000</speed>
</trkpt>
<trkpt lat="20.971918" lon="107.003464">
<ele>-15.034065</ele>
<time>2011-04-30T02:46:55Z</time>
<desc>lat.=20.971918, lon.=107.003464, Alt.=-15.034065m. Speed=64.367996m/h.</desc>
<speed>17.879999</speed>
</trkpt>
<trkpt lat="20.972017" lon="107.004341">
<ele>-15.332649</ele>
<time>2011-04-30T02:47:00Z</time>
<desc>lat.=20.972017, lon.=107.004341, Alt.=-15.332649m. Speed=66.132004m/h.</desc>
<speed>18.370001</speed>
</trkpt>
<trkpt lat="20.972120" lon="107.005219">
<ele>-16.122818</ele>
<time>2011-04-30T02:47:05Z</time>
<desc>lat.=20.972120, lon.=107.005219, Alt.=-16.122818m. Speed=66.059998m/h.</desc>
<speed>18.349999</speed>
</trkpt>
<trkpt lat="20.972208" lon="107.006126">
<ele>-12.867317</ele>
<time>2011-04-30T02:47:10Z</time>
<desc>lat.=20.972208, lon.=107.006126, Alt.=-12.867317m. Speed=65.844002m/h.</desc>
<speed>18.290000</speed>
</trkpt>
<trkpt lat="20.972260" lon="107.007027">
<ele>-14.237434</ele>
<time>2011-04-30T02:47:15Z</time>
<desc>lat.=20.972260, lon.=107.007027, Alt.=-14.237434m. Speed=67.391998m/h.</desc>
<speed>18.720000</speed>
</trkpt>
<trkpt lat="20.972160" lon="107.007896">
<ele>-15.236946</ele>
<time>2011-04-30T02:47:20Z</time>
<desc>lat.=20.972160, lon.=107.007896, Alt.=-15.236946m. Speed=67.356003m/h.</desc>
<speed>18.710001</speed>
</trkpt>
<trkpt lat="20.972044" lon="107.008797">
<ele>-16.365494</ele>
<time>2011-04-30T02:47:25Z</time>
<desc>lat.=20.972044, lon.=107.008797, Alt.=-16.365494m. Speed=67.463997m/h.</desc>
<speed>18.739999</speed>
</trkpt>
<trkpt lat="20.971863" lon="107.009682">
<ele>-16.980728</ele>
<time>2011-04-30T02:47:30Z</time>
<desc>lat.=20.971863, lon.=107.009682, Alt.=-16.980728m. Speed=65.304001m/h.</desc>
<speed>18.140000</speed>
</trkpt>
<trkpt lat="20.971704" lon="107.010460">
<ele>-17.482193</ele>
<time>2011-04-30T02:47:35Z</time>
<desc>lat.=20.971704, lon.=107.010460, Alt.=-17.482193m. Speed=48.708000m/h.</desc>
<speed>13.530000</speed>
</trkpt>
<trkpt lat="20.971556" lon="107.011070">
<ele>-16.831802</ele>
<time>2011-04-30T02:47:40Z</time>
<desc>lat.=20.971556, lon.=107.011070, Alt.=-16.831802m. Speed=47.375999m/h.</desc>
<speed>13.160000</speed>
</trkpt>
<trkpt lat="20.971476" lon="107.011719">
<ele>-17.307877</ele>
<time>2011-04-30T02:47:45Z</time>
<desc>lat.=20.971476, lon.=107.011719, Alt.=-17.307877m. Speed=47.015999m/h.</desc>
<speed>13.060000</speed>
</trkpt>
<trkpt lat="20.971523" lon="107.012375">
<ele>-20.385513</ele>
<time>2011-04-30T02:47:50Z</time>
<desc>lat.=20.971523, lon.=107.012375, Alt.=-20.385513m. Speed=47.051998m/h.</desc>
<speed>13.069999</speed>
</trkpt>
<trkpt lat="20.971666" lon="107.012978">
<ele>-21.377701</ele>
<time>2011-04-30T02:47:55Z</time>
<desc>lat.=20.971666, lon.=107.012978, Alt.=-21.377701m. Speed=45.936001m/h.</desc>
<speed>12.760000</speed>
</trkpt>
<trkpt lat="20.971869" lon="107.013496">
<ele>-19.395279</ele>
<time>2011-04-30T02:48:00Z</time>
<desc>lat.=20.971869, lon.=107.013496, Alt.=-19.395279m. Speed=38.195999m/h.</desc>
<speed>10.610000</speed>
</trkpt>
<trkpt lat="20.972065" lon="107.013885">
<ele>-18.341568</ele>
<time>2011-04-30T02:48:05Z</time>
<desc>lat.=20.972065, lon.=107.013885, Alt.=-18.341568m. Speed=30.059999m/h.</desc>
<speed>8.350000</speed>
</trkpt>
<trkpt lat="20.972181" lon="107.014145">
<ele>-18.191177</ele>
<time>2011-04-30T02:48:10Z</time>
<desc>lat.=20.972181, lon.=107.014145, Alt.=-18.191177m. Speed=20.736000m/h.</desc>
<speed>5.760000</speed>
</trkpt>
<trkpt lat="20.972229" lon="107.014336">
<ele>-15.979378</ele>
<time>2011-04-30T02:48:15Z</time>
<desc>lat.=20.972229, lon.=107.014336, Alt.=-15.979378m. Speed=7.092000m/h.</desc>
<speed>1.970000</speed>
</trkpt>
<trkpt lat="20.972267" lon="107.014442">
<ele>-13.462776</ele>
<time>2011-04-30T02:48:20Z</time>
<desc>lat.=20.972267, lon.=107.014442, Alt.=-13.462776m. Speed=7.884000m/h.</desc>
<speed>2.190000</speed>
</trkpt>
<trkpt lat="20.972305" lon="107.014519">
<ele>-12.972298</ele>
<time>2011-04-30T02:48:25Z</time>
<desc>lat.=20.972305, lon.=107.014519, Alt.=-12.972298m. Speed=1.476000m/h.</desc>
<speed>0.410000</speed>
</trkpt>
<trkpt lat="20.972315" lon="107.014534">
<ele>-13.835823</ele>
<time>2011-04-30T02:48:30Z</time>
<desc>lat.=20.972315, lon.=107.014534, Alt.=-13.835823m. Speed=0.432000m/h.</desc>
<speed>0.120000</speed>
</trkpt>
<trkpt lat="20.972319" lon="107.014534">
<ele>-13.841194</ele>
<time>2011-04-30T02:48:35Z</time>
<desc>lat.=20.972319, lon.=107.014534, Alt.=-13.841194m. Speed=0.540000m/h.</desc>
<speed>0.150000</speed>
</trkpt>
<trkpt lat="20.972324" lon="107.014542">
<ele>-13.809456</ele>
<time>2011-04-30T02:48:40Z</time>
<desc>lat.=20.972324, lon.=107.014542, Alt.=-13.809456m. Speed=0.432000m/h.</desc>
<speed>0.120000</speed>
</trkpt>
<trkpt lat="20.972324" lon="107.014542">
<ele>-13.786018</ele>
<time>2011-04-30T02:48:45Z</time>
<desc>lat.=20.972324, lon.=107.014542, Alt.=-13.786018m. Speed=0.432000m/h.</desc>
<speed>0.120000</speed>
</trkpt>
<trkpt lat="20.972330" lon="107.014557">
<ele>-13.734505</ele>
<time>2011-04-30T02:48:50Z</time>
<desc>lat.=20.972330, lon.=107.014557, Alt.=-13.734505m. Speed=1.116000m/h.</desc>
<speed>0.310000</speed>
</trkpt>
<trkpt lat="20.972334" lon="107.014557">
<ele>-13.714241</ele>
<time>2011-04-30T02:48:55Z</time>
<desc>lat.=20.972334, lon.=107.014557, Alt.=-13.714241m. Speed=0.216000m/h.</desc>
<speed>0.060000</speed>
</trkpt>
<trkpt lat="20.972332" lon="107.014557">
<ele>-13.627327</ele>
<time>2011-04-30T02:49:00Z</time>
<desc>lat.=20.972332, lon.=107.014557, Alt.=-13.627327m. Speed=0.288000m/h.</desc>
<speed>0.080000</speed>
</trkpt>
<trkpt lat="20.972332" lon="107.014557">
<ele>-13.552864</ele>
<time>2011-04-30T02:49:05Z</time>
<desc>lat.=20.972332, lon.=107.014557, Alt.=-13.552864m. Speed=0.072000m/h.</desc>
<speed>0.020000</speed>
</trkpt>
<trkpt lat="20.972336" lon="107.014557">
<ele>-13.486214</ele>
<time>2011-04-30T02:49:10Z</time>
<desc>lat.=20.972336, lon.=107.014557, Alt.=-13.486214m. Speed=0.360000m/h.</desc>
<speed>0.100000</speed>
</trkpt>
<trkpt lat="20.972340" lon="107.014557">
<ele>-13.433235</ele>
<time>2011-04-30T02:49:15Z</time>
<desc>lat.=20.972340, lon.=107.014557, Alt.=-13.433235m. Speed=0.792000m/h.</desc>
<speed>0.220000</speed>
</trkpt>
<trkpt lat="20.972345" lon="107.014565">
<ele>-13.415657</ele>
<time>2011-04-30T02:49:20Z</time>
<desc>lat.=20.972345, lon.=107.014565, Alt.=-13.415657m. Speed=0.612000m/h.</desc>
<speed>0.170000</speed>
</trkpt>
<trkpt lat="20.972345" lon="107.014565">
<ele>-13.417610</ele>
<time>2011-04-30T02:49:25Z</time>
<desc>lat.=20.972345, lon.=107.014565, Alt.=-13.417610m. Speed=0.720000m/h.</desc>
<speed>0.200000</speed>
</trkpt>
<trkpt lat="20.972374" lon="107.014641">
<ele>-13.038704</ele>
<time>2011-04-30T02:49:30Z</time>
<desc>lat.=20.972374, lon.=107.014641, Alt.=-13.038704m. Speed=13.896000m/h.</desc>
<speed>3.860000</speed>
</trkpt>
<trkpt lat="20.972466" lon="107.014832">
<ele>-13.541389</ele>
<time>2011-04-30T02:49:35Z</time>
<desc>lat.=20.972466, lon.=107.014832, Alt.=-13.541389m. Speed=17.747999m/h.</desc>
<speed>4.930000</speed>
</trkpt>
<trkpt lat="20.972559" lon="107.015022">
<ele>-13.907112</ele>
<time>2011-04-30T02:49:40Z</time>
<desc>lat.=20.972559, lon.=107.015022, Alt.=-13.907112m. Speed=14.508000m/h.</desc>
<speed>4.030000</speed>
</trkpt>
<trkpt lat="20.972637" lon="107.015152">
<ele>-10.803596</ele>
<time>2011-04-30T02:49:45Z</time>
<desc>lat.=20.972637, lon.=107.015152, Alt.=-10.803596m. Speed=9.396000m/h.</desc>
<speed>2.610000</speed>
</trkpt>
<trkpt lat="20.972662" lon="107.015198">
<ele>-7.560856</ele>
<time>2011-04-30T02:49:50Z</time>
<desc>lat.=20.972662, lon.=107.015198, Alt.=-7.560856m. Speed=4.032000m/h.</desc>
<speed>1.120000</speed>
</trkpt>
<trkpt lat="20.972715" lon="107.015305">
<ele>-6.413151</ele>
<time>2011-04-30T02:49:55Z</time>
<desc>lat.=20.972715, lon.=107.015305, Alt.=-6.413151m. Speed=12.240000m/h.</desc>
<speed>3.400000</speed>
</trkpt>
<trkpt lat="20.972809" lon="107.015511">
<ele>-6.172916</ele>
<time>2011-04-30T02:50:00Z</time>
<desc>lat.=20.972809, lon.=107.015511, Alt.=-6.172916m. Speed=17.316000m/h.</desc>
<speed>4.810000</speed>
</trkpt>
<trkpt lat="20.972898" lon="107.015785">
<ele>-5.250309</ele>
<time>2011-04-30T02:50:05Z</time>
<desc>lat.=20.972898, lon.=107.015785, Alt.=-5.250309m. Speed=25.596001m/h.</desc>
<speed>7.110000</speed>
</trkpt>
<trkpt lat="20.973051" lon="107.016129">
<ele>-6.651676</ele>
<time>2011-04-30T02:50:10Z</time>
<desc>lat.=20.973051, lon.=107.016129, Alt.=-6.651676m. Speed=25.667999m/h.</desc>
<speed>7.130000</speed>
</trkpt>
<trkpt lat="20.973257" lon="107.016518">
<ele>-5.081486</ele>
<time>2011-04-30T02:50:15Z</time>
<desc>lat.=20.973257, lon.=107.016518, Alt.=-5.081486m. Speed=39.203999m/h.</desc>
<speed>10.890000</speed>
</trkpt>
<trkpt lat="20.973499" lon="107.017052">
<ele>-7.690128</ele>
<time>2011-04-30T02:50:20Z</time>
<desc>lat.=20.973499, lon.=107.017052, Alt.=-7.690128m. Speed=43.667999m/h.</desc>
<speed>12.130000</speed>
</trkpt>
<trkpt lat="20.973772" lon="107.017639">
<ele>-7.834904</ele>
<time>2011-04-30T02:50:25Z</time>
<desc>lat.=20.973772, lon.=107.017639, Alt.=-7.834904m. Speed=51.660000m/h.</desc>
<speed>14.350000</speed>
</trkpt>
<trkpt lat="20.974064" lon="107.018318">
<ele>-6.063419</ele>
<time>2011-04-30T02:50:30Z</time>
<desc>lat.=20.974064, lon.=107.018318, Alt.=-6.063419m. Speed=56.124001m/h.</desc>
<speed>15.590000</speed>
</trkpt>
<trkpt lat="20.974367" lon="107.018974">
<ele>-6.239445</ele>
<time>2011-04-30T02:50:35Z</time>
<desc>lat.=20.974367, lon.=107.018974, Alt.=-6.239445m. Speed=54.827999m/h.</desc>
<speed>15.230000</speed>
</trkpt>
<trkpt lat="20.974648" lon="107.019615">
<ele>-4.537174</ele>
<time>2011-04-30T02:50:40Z</time>
<desc>lat.=20.974648, lon.=107.019615, Alt.=-4.537174m. Speed=51.480000m/h.</desc>
<speed>14.300000</speed>
</trkpt>
<trkpt lat="20.974913" lon="107.020241">
<ele>-3.733492</ele>
<time>2011-04-30T02:50:45Z</time>
<desc>lat.=20.974913, lon.=107.020241, Alt.=-3.733492m. Speed=50.832001m/h.</desc>
<speed>14.120000</speed>
</trkpt>
<trkpt lat="20.975204" lon="107.020859">
<ele>-3.297274</ele>
<time>2011-04-30T02:50:50Z</time>
<desc>lat.=20.975204, lon.=107.020859, Alt.=-3.297274m. Speed=50.472000m/h.</desc>
<speed>14.020000</speed>
</trkpt>
<trkpt lat="20.975479" lon="107.021469">
<ele>-3.651217</ele>
<time>2011-04-30T02:50:55Z</time>
<desc>lat.=20.975479, lon.=107.021469, Alt.=-3.651217m. Speed=49.680000m/h.</desc>
<speed>13.800000</speed>
</trkpt>
<trkpt lat="20.975739" lon="107.022057">
<ele>-1.897904</ele>
<time>2011-04-30T02:51:00Z</time>
<desc>lat.=20.975739, lon.=107.022057, Alt.=-1.897904m. Speed=45.180000m/h.</desc>
<speed>12.550000</speed>
</trkpt>
<trkpt lat="20.975935" lon="107.022552">
<ele>1.699204</ele>
<time>2011-04-30T02:51:05Z</time>
<desc>lat.=20.975935, lon.=107.022552, Alt.=1.699204m. Speed=31.572001m/h.</desc>
<speed>8.770000</speed>
</trkpt>
<trkpt lat="20.976019" lon="107.022797">
<ele>1.447587</ele>
<time>2011-04-30T02:51:10Z</time>
<desc>lat.=20.976019, lon.=107.022797, Alt.=1.447587m. Speed=6.048000m/h.</desc>
<speed>1.680000</speed>
</trkpt>
<trkpt lat="20.976028" lon="107.022827">
<ele>3.023043</ele>
<time>2011-04-30T02:51:15Z</time>
<desc>lat.=20.976028, lon.=107.022827, Alt.=3.023043m. Speed=4.860000m/h.</desc>
<speed>1.350000</speed>
</trkpt>
<trkpt lat="20.976097" lon="107.023041">
<ele>4.198795</ele>
<time>2011-04-30T02:51:20Z</time>
<desc>lat.=20.976097, lon.=107.023041, Alt.=4.198795m. Speed=21.816000m/h.</desc>
<speed>6.060000</speed>
</trkpt>
<trkpt lat="20.976206" lon="107.023453">
<ele>2.181063</ele>
<time>2011-04-30T02:51:25Z</time>
<desc>lat.=20.976206, lon.=107.023453, Alt.=2.181063m. Speed=33.768002m/h.</desc>
<speed>9.380000</speed>
</trkpt>
<trkpt lat="20.976183" lon="107.024002">
<ele>-0.073169</ele>
<time>2011-04-30T02:51:30Z</time>
<desc>lat.=20.976183, lon.=107.024002, Alt.=-0.073169m. Speed=42.119999m/h.</desc>
<speed>11.700000</speed>
</trkpt>
<trkpt lat="20.976044" lon="107.024612">
<ele>-0.313389</ele>
<time>2011-04-30T02:51:35Z</time>
<desc>lat.=20.976044, lon.=107.024612, Alt.=-0.313389m. Speed=48.852001m/h.</desc>
<speed>13.570000</speed>
</trkpt>
<trkpt lat="20.975840" lon="107.025215">
<ele>-0.031237</ele>
<time>2011-04-30T02:51:40Z</time>
<desc>lat.=20.975840, lon.=107.025215, Alt.=-0.031237m. Speed=47.700001m/h.</desc>
<speed>13.250000</speed>
</trkpt>
<trkpt lat="20.975657" lon="107.025864">
<ele>-0.196016</ele>
<time>2011-04-30T02:51:45Z</time>
<desc>lat.=20.975657, lon.=107.025864, Alt.=-0.196016m. Speed=49.571999m/h.</desc>
<speed>13.770000</speed>
</trkpt>
<trkpt lat="20.975428" lon="107.026443">
<ele>0.675759</ele>
<time>2011-04-30T02:51:50Z</time>
<desc>lat.=20.975428, lon.=107.026443, Alt.=0.675759m. Speed=41.436001m/h.</desc>
<speed>11.510000</speed>
</trkpt>
<trkpt lat="20.975140" lon="107.026947">
<ele>0.510506</ele>
<time>2011-04-30T02:51:55Z</time>
<desc>lat.=20.975140, lon.=107.026947, Alt.=0.510506m. Speed=46.728001m/h.</desc>
<speed>12.980000</speed>
</trkpt>
<trkpt lat="20.974693" lon="107.027412">
<ele>-0.320629</ele>
<time>2011-04-30T02:52:00Z</time>
<desc>lat.=20.974693, lon.=107.027412, Alt.=-0.320629m. Speed=48.779999m/h.</desc>
<speed>13.550000</speed>
</trkpt>
<trkpt lat="20.974150" lon="107.027824">
<ele>0.695595</ele>
<time>2011-04-30T02:52:05Z</time>
<desc>lat.=20.974150, lon.=107.027824, Alt.=0.695595m. Speed=50.507999m/h.</desc>
<speed>14.030000</speed>
</trkpt>
<trkpt lat="20.973629" lon="107.028252">
<ele>0.205801</ele>
<time>2011-04-30T02:52:10Z</time>
<desc>lat.=20.973629, lon.=107.028252, Alt.=0.205801m. Speed=52.919998m/h.</desc>
<speed>14.699999</speed>
</trkpt>
<trkpt lat="20.973120" lon="107.028740">
<ele>0.843377</ele>
<time>2011-04-30T02:52:15Z</time>
<desc>lat.=20.973120, lon.=107.028740, Alt.=0.843377m. Speed=53.891998m/h.</desc>
<speed>14.970000</speed>
</trkpt>
<trkpt lat="20.972666" lon="107.029312">
<ele>1.633866</ele>
<time>2011-04-30T02:52:20Z</time>
<desc>lat.=20.972666, lon.=107.029312, Alt.=1.633866m. Speed=56.088001m/h.</desc>
<speed>15.580000</speed>
</trkpt>
<trkpt lat="20.972223" lon="107.029915">
<ele>1.886064</ele>
<time>2011-04-30T02:52:25Z</time>
<desc>lat.=20.972223, lon.=107.029915, Alt.=1.886064m. Speed=58.860001m/h.</desc>
<speed>16.350000</speed>
</trkpt>
<trkpt lat="20.971756" lon="107.030533">
<ele>1.175523</ele>
<time>2011-04-30T02:52:30Z</time>
<desc>lat.=20.971756, lon.=107.030533, Alt.=1.175523m. Speed=58.608002m/h.</desc>
<speed>16.280000</speed>
</trkpt>
<trkpt lat="20.971302" lon="107.031151">
<ele>-2.084627</ele>
<time>2011-04-30T02:52:35Z</time>
<desc>lat.=20.971302, lon.=107.031151, Alt.=-2.084627m. Speed=58.068001m/h.</desc>
<speed>16.130000</speed>
</trkpt>
<trkpt lat="20.970877" lon="107.031807">
<ele>-4.818058</ele>
<time>2011-04-30T02:52:40Z</time>
<desc>lat.=20.970877, lon.=107.031807, Alt.=-4.818058m. Speed=59.832001m/h.</desc>
<speed>16.620000</speed>
</trkpt>
<trkpt lat="20.970556" lon="107.032555">
<ele>-5.540104</ele>
<time>2011-04-30T02:52:45Z</time>
<desc>lat.=20.970556, lon.=107.032555, Alt.=-5.540104m. Speed=61.667999m/h.</desc>
<speed>17.130000</speed>
</trkpt>
<trkpt lat="20.970453" lon="107.033310">
<ele>-3.283907</ele>
<time>2011-04-30T02:52:50Z</time>
<desc>lat.=20.970453, lon.=107.033310, Alt.=-3.283907m. Speed=52.992001m/h.</desc>
<speed>14.720000</speed>
</trkpt>
<trkpt lat="20.970541" lon="107.033974">
<ele>-3.150057</ele>
<time>2011-04-30T02:52:55Z</time>
<desc>lat.=20.970541, lon.=107.033974, Alt.=-3.150057m. Speed=50.147999m/h.</desc>
<speed>13.930000</speed>
</trkpt>
<trkpt lat="20.970623" lon="107.034622">
<ele>-2.299776</ele>
<time>2011-04-30T02:53:00Z</time>
<desc>lat.=20.970623, lon.=107.034622, Alt.=-2.299776m. Speed=49.032001m/h.</desc>
<speed>13.620000</speed>
</trkpt>
<trkpt lat="20.970610" lon="107.035294">
<ele>-1.679368</ele>
<time>2011-04-30T02:53:05Z</time>
<desc>lat.=20.970610, lon.=107.035294, Alt.=-1.679368m. Speed=50.832001m/h.</desc>
<speed>14.120000</speed>
</trkpt>
<trkpt lat="20.970560" lon="107.036018">
<ele>-2.650728</ele>
<time>2011-04-30T02:53:10Z</time>
<desc>lat.=20.970560, lon.=107.036018, Alt.=-2.650728m. Speed=54.431999m/h.</desc>
<speed>15.120000</speed>
</trkpt>
<trkpt lat="20.970507" lon="107.036804">
<ele>-3.909822</ele>
<time>2011-04-30T02:53:15Z</time>
<desc>lat.=20.970507, lon.=107.036804, Alt.=-3.909822m. Speed=55.259998m/h.</desc>
<speed>15.350000</speed>
</trkpt>
<trkpt lat="20.970480" lon="107.037521">
<ele>-7.075748</ele>
<time>2011-04-30T02:53:20Z</time>
<desc>lat.=20.970480, lon.=107.037521, Alt.=-7.075748m. Speed=50.976002m/h.</desc>
<speed>14.160000</speed>
</trkpt>
<trkpt lat="20.970549" lon="107.038261">
<ele>-9.517708</ele>
<time>2011-04-30T02:53:25Z</time>
<desc>lat.=20.970549, lon.=107.038261, Alt.=-9.517708m. Speed=54.108002m/h.</desc>
<speed>15.030000</speed>
</trkpt>
<trkpt lat="20.970629" lon="107.039032">
<ele>-10.895638</ele>
<time>2011-04-30T02:53:30Z</time>
<desc>lat.=20.970629, lon.=107.039032, Alt.=-10.895638m. Speed=57.924000m/h.</desc>
<speed>16.090000</speed>
</trkpt>
<trkpt lat="20.970688" lon="107.039810">
<ele>-12.562874</ele>
<time>2011-04-30T02:53:35Z</time>
<desc>lat.=20.970688, lon.=107.039810, Alt.=-12.562874m. Speed=56.952000m/h.</desc>
<speed>15.820000</speed>
</trkpt>
<trkpt lat="20.970770" lon="107.040634">
<ele>-12.591682</ele>
<time>2011-04-30T02:53:40Z</time>
<desc>lat.=20.970770, lon.=107.040634, Alt.=-12.591682m. Speed=61.307999m/h.</desc>
<speed>17.030000</speed>
</trkpt>
<trkpt lat="20.970858" lon="107.041458">
<ele>-13.901741</ele>
<time>2011-04-30T02:53:45Z</time>
<desc>lat.=20.970858, lon.=107.041458, Alt.=-13.901741m. Speed=63.216000m/h.</desc>
<speed>17.560000</speed>
</trkpt>
<trkpt lat="20.970943" lon="107.042274">
<ele>-15.013557</ele>
<time>2011-04-30T02:53:50Z</time>
<desc>lat.=20.970943, lon.=107.042274, Alt.=-15.013557m. Speed=60.444000m/h.</desc>
<speed>16.790000</speed>
</trkpt>
<trkpt lat="20.971018" lon="107.043053">
<ele>-15.378059</ele>
<time>2011-04-30T02:53:55Z</time>
<desc>lat.=20.971018, lon.=107.043053, Alt.=-15.378059m. Speed=55.944000m/h.</desc>
<speed>15.540000</speed>
</trkpt>
<trkpt lat="20.971100" lon="107.043808">
<ele>-16.758560</ele>
<time>2011-04-30T02:54:00Z</time>
<desc>lat.=20.971100, lon.=107.043808, Alt.=-16.758560m. Speed=52.307999m/h.</desc>
<speed>14.530000</speed>
</trkpt>
<trkpt lat="20.971167" lon="107.044411">
<ele>-18.282974</ele>
<time>2011-04-30T02:54:05Z</time>
<desc>lat.=20.971167, lon.=107.044411, Alt.=-18.282974m. Speed=40.860001m/h.</desc>
<speed>11.350000</speed>
</trkpt>
<trkpt lat="20.971201" lon="107.044960">
<ele>-18.045181</ele>
<time>2011-04-30T02:54:10Z</time>
<desc>lat.=20.971201, lon.=107.044960, Alt.=-18.045181m. Speed=44.028000m/h.</desc>
<speed>12.230000</speed>
</trkpt>
<trkpt lat="20.971216" lon="107.045525">
<ele>-15.214241</ele>
<time>2011-04-30T02:54:15Z</time>
<desc>lat.=20.971216, lon.=107.045525, Alt.=-15.214241m. Speed=41.688000m/h.</desc>
<speed>11.580000</speed>
</trkpt>
<trkpt lat="20.971245" lon="107.046059">
<ele>-14.652718</ele>
<time>2011-04-30T02:54:20Z</time>
<desc>lat.=20.971245, lon.=107.046059, Alt.=-14.652718m. Speed=42.084000m/h.</desc>
<speed>11.690000</speed>
</trkpt>
<trkpt lat="20.971197" lon="107.046638">
<ele>-11.045296</ele>
<time>2011-04-30T02:54:25Z</time>
<desc>lat.=20.971197, lon.=107.046638, Alt.=-11.045296m. Speed=40.428001m/h.</desc>
<speed>11.230000</speed>
</trkpt>
<trkpt lat="20.971104" lon="107.047020">
<ele>-12.074348</ele>
<time>2011-04-30T02:54:30Z</time>
<desc>lat.=20.971104, lon.=107.047020, Alt.=-12.074348m. Speed=14.148000m/h.</desc>
<speed>3.930000</speed>
</trkpt>
<trkpt lat="20.971054" lon="107.047134">
<ele>-8.707161</ele>
<time>2011-04-30T02:54:35Z</time>
<desc>lat.=20.971054, lon.=107.047134, Alt.=-8.707161m. Speed=14.580000m/h.</desc>
<speed>4.050000</speed>
</trkpt>
<trkpt lat="20.970949" lon="107.047363">
<ele>-9.449593</ele>
<time>2011-04-30T02:54:40Z</time>
<desc>lat.=20.970949, lon.=107.047363, Alt.=-9.449593m. Speed=18.000000m/h.</desc>
<speed>5.000000</speed>
</trkpt>
<trkpt lat="20.970871" lon="107.047546">
<ele>-8.891975</ele>
<time>2011-04-30T02:54:45Z</time>
<desc>lat.=20.970871, lon.=107.047546, Alt.=-8.891975m. Speed=10.872000m/h.</desc>
<speed>3.020000</speed>
</trkpt>
<trkpt lat="20.970844" lon="107.047646">
<ele>-9.019173</ele>
<time>2011-04-30T02:54:50Z</time>
<desc>lat.=20.970844, lon.=107.047646, Alt.=-9.019173m. Speed=2.088000m/h.</desc>
<speed>0.580000</speed>
</trkpt>
<trkpt lat="20.970861" lon="107.047661">
<ele>-8.314095</ele>
<time>2011-04-30T02:54:55Z</time>
<desc>lat.=20.970861, lon.=107.047661, Alt.=-8.314095m. Speed=2.448000m/h.</desc>
<speed>0.680000</speed>
</trkpt>
<trkpt lat="20.970856" lon="107.047676">
<ele>-7.465397</ele>
<time>2011-04-30T02:55:00Z</time>
<desc>lat.=20.970856, lon.=107.047676, Alt.=-7.465397m. Speed=3.708000m/h.</desc>
<speed>1.030000</speed>
</trkpt>
<trkpt lat="20.970848" lon="107.047844">
<ele>-7.729069</ele>
<time>2011-04-30T02:55:05Z</time>
<desc>lat.=20.970848, lon.=107.047844, Alt.=-7.729069m. Speed=18.252001m/h.</desc>
<speed>5.070000</speed>
</trkpt>
<trkpt lat="20.970774" lon="107.048187">
<ele>-8.668587</ele>
<time>2011-04-30T02:55:10Z</time>
<desc>lat.=20.970774, lon.=107.048187, Alt.=-8.668587m. Speed=27.684000m/h.</desc>
<speed>7.690000</speed>
</trkpt>
<trkpt lat="20.970636" lon="107.048615">
<ele>-4.904362</ele>
<time>2011-04-30T02:55:15Z</time>
<desc>lat.=20.970636, lon.=107.048615, Alt.=-4.904362m. Speed=37.259998m/h.</desc>
<speed>10.350000</speed>
</trkpt>
<trkpt lat="20.970398" lon="107.049164">
<ele>-3.314058</ele>
<time>2011-04-30T02:55:20Z</time>
<desc>lat.=20.970398, lon.=107.049164, Alt.=-3.314058m. Speed=42.444000m/h.</desc>
<speed>11.790000</speed>
</trkpt>
<trkpt lat="20.970032" lon="107.049728">
<ele>-6.718571</ele>
<time>2011-04-30T02:55:25Z</time>
<desc>lat.=20.970032, lon.=107.049728, Alt.=-6.718571m. Speed=50.400002m/h.</desc>
<speed>14.000000</speed>
</trkpt>
<trkpt lat="20.969601" lon="107.050323">
<ele>-4.887394</ele>
<time>2011-04-30T02:55:30Z</time>
<desc>lat.=20.969601, lon.=107.050323, Alt.=-4.887394m. Speed=58.355999m/h.</desc>
<speed>16.210000</speed>
</trkpt>
<trkpt lat="20.969025" lon="107.050926">
<ele>-3.927767</ele>
<time>2011-04-30T02:55:35Z</time>
<desc>lat.=20.969025, lon.=107.050926, Alt.=-3.927767m. Speed=66.671997m/h.</desc>
<speed>18.519999</speed>
</trkpt>
<trkpt lat="20.968376" lon="107.051521">
<ele>-3.042757</ele>
<time>2011-04-30T02:55:40Z</time>
<desc>lat.=20.968376, lon.=107.051521, Alt.=-3.042757m. Speed=65.484001m/h.</desc>
<speed>18.190000</speed>
</trkpt>
<trkpt lat="20.967710" lon="107.052124">
<ele>0.921471</ele>
<time>2011-04-30T02:55:45Z</time>
<desc>lat.=20.967710, lon.=107.052124, Alt.=0.921471m. Speed=68.183998m/h.</desc>
<speed>18.939999</speed>
</trkpt>
<trkpt lat="20.967165" lon="107.052818">
<ele>0.709252</ele>
<time>2011-04-30T02:55:50Z</time>
<desc>lat.=20.967165, lon.=107.052818, Alt.=0.709252m. Speed=67.643997m/h.</desc>
<speed>18.789999</speed>
</trkpt>
<trkpt lat="20.966627" lon="107.053520">
<ele>-0.484959</ele>
<time>2011-04-30T02:55:55Z</time>
<desc>lat.=20.966627, lon.=107.053520, Alt.=-0.484959m. Speed=68.220001m/h.</desc>
<speed>18.950000</speed>
</trkpt>
<trkpt lat="20.966110" lon="107.054214">
<ele>1.664323</ele>
<time>2011-04-30T02:56:00Z</time>
<desc>lat.=20.966110, lon.=107.054214, Alt.=1.664323m. Speed=66.311996m/h.</desc>
<speed>18.419999</speed>
</trkpt>
<trkpt lat="20.965635" lon="107.054924">
<ele>1.630265</ele>
<time>2011-04-30T02:56:05Z</time>
<desc>lat.=20.965635, lon.=107.054924, Alt.=1.630265m. Speed=66.419998m/h.</desc>
<speed>18.449999</speed>
</trkpt>
<trkpt lat="20.965139" lon="107.055603">
<ele>3.862459</ele>
<time>2011-04-30T02:56:10Z</time>
<desc>lat.=20.965139, lon.=107.055603, Alt.=3.862459m. Speed=62.855999m/h.</desc>
<speed>17.460000</speed>
</trkpt>
<trkpt lat="20.964649" lon="107.056244">
<ele>5.886539</ele>
<time>2011-04-30T02:56:15Z</time>
<desc>lat.=20.964649, lon.=107.056244, Alt.=5.886539m. Speed=60.768002m/h.</desc>
<speed>16.880000</speed>
</trkpt>
<trkpt lat="20.964197" lon="107.056870">
<ele>8.356331</ele>
<time>2011-04-30T02:56:20Z</time>
<desc>lat.=20.964197, lon.=107.056870, Alt.=8.356331m. Speed=58.032001m/h.</desc>
<speed>16.120000</speed>
</trkpt>
<trkpt lat="20.963816" lon="107.057465">
<ele>10.232307</ele>
<time>2011-04-30T02:56:25Z</time>
<desc>lat.=20.963816, lon.=107.057465, Alt.=10.232307m. Speed=47.195999m/h.</desc>
<speed>13.110000</speed>
</trkpt>
<trkpt lat="20.963541" lon="107.057869">
<ele>13.750130</ele>
<time>2011-04-30T02:56:30Z</time>
<desc>lat.=20.963541, lon.=107.057869, Alt.=13.750130m. Speed=26.964001m/h.</desc>
<speed>7.490000</speed>
</trkpt>
<trkpt lat="20.963432" lon="107.058044">
<ele>16.864517</ele>
<time>2011-04-30T02:56:35Z</time>
<desc>lat.=20.963432, lon.=107.058044, Alt.=16.864517m. Speed=4.932000m/h.</desc>
<speed>1.370000</speed>
</trkpt>
<trkpt lat="20.963411" lon="107.058060">
<ele>18.184341</ele>
<time>2011-04-30T02:56:40Z</time>
<desc>lat.=20.963411, lon.=107.058060, Alt.=18.184341m. Speed=0.900000m/h.</desc>
<speed>0.250000</speed>
</trkpt>
<trkpt lat="20.963408" lon="107.058052">
<ele>19.190689</ele>
<time>2011-04-30T02:56:45Z</time>
<desc>lat.=20.963408, lon.=107.058052, Alt.=19.190689m. Speed=3.420000m/h.</desc>
<speed>0.950000</speed>
</trkpt>
<trkpt lat="20.963400" lon="107.058044">
<ele>19.904556</ele>
<time>2011-04-30T02:56:50Z</time>
<desc>lat.=20.963400, lon.=107.058044, Alt.=19.904556m. Speed=1.044000m/h.</desc>
<speed>0.290000</speed>
</trkpt>
<trkpt lat="20.963394" lon="107.058037">
<ele>20.282486</ele>
<time>2011-04-30T02:56:55Z</time>
<desc>lat.=20.963394, lon.=107.058037, Alt.=20.282486m. Speed=1.044000m/h.</desc>
<speed>0.290000</speed>
</trkpt>
<trkpt lat="20.963392" lon="107.058029">
<ele>20.411392</ele>
<time>2011-04-30T02:57:00Z</time>
<desc>lat.=20.963392, lon.=107.058029, Alt.=20.411392m. Speed=0.108000m/h.</desc>
<speed>0.030000</speed>
</trkpt>
<trkpt lat="20.963392" lon="107.058029">
<ele>20.383072</ele>
<time>2011-04-30T02:57:05Z</time>
<desc>lat.=20.963392, lon.=107.058029, Alt.=20.383072m. Speed=0.180000m/h.</desc>
<speed>0.050000</speed>
</trkpt>
<trkpt lat="20.963390" lon="107.058029">
<ele>20.603775</ele>
<time>2011-04-30T02:57:10Z</time>
<desc>lat.=20.963390, lon.=107.058029, Alt.=20.603775m. Speed=0.072000m/h.</desc>
<speed>0.020000</speed>
</trkpt>
<trkpt lat="20.963364" lon="107.058029">
<ele>20.879166</ele>
<time>2011-04-30T02:57:15Z</time>
<desc>lat.=20.963364, lon.=107.058029, Alt.=20.879166m. Speed=4.932000m/h.</desc>
<speed>1.370000</speed>
</trkpt>
<trkpt lat="20.963308" lon="107.058052">
<ele>22.083755</ele>
<time>2011-04-30T02:57:20Z</time>
<desc>lat.=20.963308, lon.=107.058052, Alt.=22.083755m. Speed=4.140000m/h.</desc>
<speed>1.150000</speed>
</trkpt>
<trkpt lat="20.963295" lon="107.058060">
<ele>22.005630</ele>
<time>2011-04-30T02:57:25Z</time>
<desc>lat.=20.963295, lon.=107.058060, Alt.=22.005630m. Speed=0.900000m/h.</desc>
<speed>0.250000</speed>
</trkpt>
<trkpt lat="20.963299" lon="107.058060">
<ele>21.625259</ele>
<time>2011-04-30T02:57:30Z</time>
<desc>lat.=20.963299, lon.=107.058060, Alt.=21.625259m. Speed=0.180000m/h.</desc>
<speed>0.050000</speed>
</trkpt>
<trkpt lat="20.963297" lon="107.058060">
<ele>21.457291</ele>
<time>2011-04-30T02:57:35Z</time>
<desc>lat.=20.963297, lon.=107.058060, Alt.=21.457291m. Speed=2.988000m/h.</desc>
<speed>0.830000</speed>
</trkpt>
<trkpt lat="20.963301" lon="107.058090">
<ele>20.870865</ele>
<time>2011-04-30T02:57:40Z</time>
<desc>lat.=20.963301, lon.=107.058090, Alt.=20.870865m. Speed=2.196000m/h.</desc>
<speed>0.610000</speed>
</trkpt>
<trkpt lat="20.963299" lon="107.058105">
<ele>21.415298</ele>
<time>2011-04-30T02:57:45Z</time>
<desc>lat.=20.963299, lon.=107.058105, Alt.=21.415298m. Speed=0.072000m/h.</desc>
<speed>0.020000</speed>
</trkpt>
<trkpt lat="20.963295" lon="107.058105">
<ele>21.275650</ele>
<time>2011-04-30T02:57:50Z</time>
<desc>lat.=20.963295, lon.=107.058105, Alt.=21.275650m. Speed=0.144000m/h.</desc>
<speed>0.040000</speed>
</trkpt>
<trkpt lat="20.963295" lon="107.058113">
<ele>21.049088</ele>
<time>2011-04-30T02:57:55Z</time>
<desc>lat.=20.963295, lon.=107.058113, Alt.=21.049088m. Speed=0.072000m/h.</desc>
<speed>0.020000</speed>
</trkpt>
<trkpt lat="20.963295" lon="107.058113">
<ele>20.919205</ele>
<time>2011-04-30T02:58:00Z</time>
<desc>lat.=20.963295, lon.=107.058113, Alt.=20.919205m. Speed=0.036000m/h.</desc>
<speed>0.010000</speed>
</trkpt>
<trkpt lat="20.963295" lon="107.058105">
<ele>20.909927</ele>
<time>2011-04-30T02:58:05Z</time>
<desc>lat.=20.963295, lon.=107.058105, Alt.=20.909927m. Speed=0.036000m/h.</desc>
<speed>0.010000</speed>
</trkpt>
<trkpt lat="20.963293" lon="107.058105">
<ele>20.913834</ele>
<time>2011-04-30T02:58:10Z</time>
<desc>lat.=20.963293, lon.=107.058105, Alt.=20.913834m. Speed=0.252000m/h.</desc>
<speed>0.070000</speed>
</trkpt>
<trkpt lat="20.963293" lon="107.058105">
<ele>20.904556</ele>
<time>2011-04-30T02:58:15Z</time>
<desc>lat.=20.963293, lon.=107.058105, Alt.=20.904556m. Speed=0.324000m/h.</desc>
<speed>0.090000</speed>
</trkpt>
<trkpt lat="20.963289" lon="107.058113">
<ele>20.551041</ele>
<time>2011-04-30T02:58:20Z</time>
<desc>lat.=20.963289, lon.=107.058113, Alt.=20.551041m. Speed=0.216000m/h.</desc>
<speed>0.060000</speed>
</trkpt>
<trkpt lat="20.963289" lon="107.058113">
<ele>20.414810</ele>
<time>2011-04-30T02:58:25Z</time>
<desc>lat.=20.963289, lon.=107.058113, Alt.=20.414810m. Speed=0.000000m/h.</desc>
<speed>0.000000</speed>
</trkpt>
<trkpt lat="20.963289" lon="107.058113">
<ele>20.425552</ele>
<time>2011-04-30T02:58:30Z</time>
<desc>lat.=20.963289, lon.=107.058113, Alt.=20.425552m. Speed=0.540000m/h.</desc>
<speed>0.150000</speed>
</trkpt>
<trkpt lat="20.963284" lon="107.058098">
<ele>20.551529</ele>
<time>2011-04-30T02:58:35Z</time>
<desc>lat.=20.963284, lon.=107.058098, Alt.=20.551529m. Speed=0.324000m/h.</desc>
<speed>0.090000</speed>
</trkpt>
<trkpt lat="20.963280" lon="107.058098">
<ele>20.649185</ele>
<time>2011-04-30T02:58:40Z</time>
<desc>lat.=20.963280, lon.=107.058098, Alt.=20.649185m. Speed=0.396000m/h.</desc>
<speed>0.110000</speed>
</trkpt>
<trkpt lat="20.963280" lon="107.058090">
<ele>20.591568</ele>
<time>2011-04-30T02:58:45Z</time>
<desc>lat.=20.963280, lon.=107.058090, Alt.=20.591568m. Speed=0.540000m/h.</desc>
<speed>0.150000</speed>
</trkpt>
<trkpt lat="20.963278" lon="107.058090">
<ele>20.521255</ele>
<time>2011-04-30T02:58:50Z</time>
<desc>lat.=20.963278, lon.=107.058090, Alt.=20.521255m. Speed=0.252000m/h.</desc>
<speed>0.070000</speed>
</trkpt>
<trkpt lat="20.963278" lon="107.058098">
<ele>20.495377</ele>
<time>2011-04-30T02:58:55Z</time>
<desc>lat.=20.963278, lon.=107.058098, Alt.=20.495377m. Speed=2.160000m/h.</desc>
<speed>0.600000</speed>
</trkpt>
<trkpt lat="20.963270" lon="107.058121">
<ele>20.839127</ele>
<time>2011-04-30T02:59:00Z</time>
<desc>lat.=20.963270, lon.=107.058121, Alt.=20.839127m. Speed=3.636000m/h.</desc>
<speed>1.010000</speed>
</trkpt>
<trkpt lat="20.963274" lon="107.058128">
<ele>20.989517</ele>
<time>2011-04-30T02:59:05Z</time>
<desc>lat.=20.963274, lon.=107.058128, Alt.=20.989517m. Speed=0.144000m/h.</desc>
<speed>0.040000</speed>
</trkpt>
<trkpt lat="20.963274" lon="107.058128">
<ele>20.893814</ele>
<time>2011-04-30T02:59:10Z</time>
<desc>lat.=20.963274, lon.=107.058128, Alt.=20.893814m. Speed=0.180000m/h.</desc>
<speed>0.050000</speed>
</trkpt>
<trkpt lat="20.963276" lon="107.058128">
<ele>20.525650</ele>
<time>2011-04-30T02:59:15Z</time>
<desc>lat.=20.963276, lon.=107.058128, Alt.=20.525650m. Speed=3.456000m/h.</desc>
<speed>0.960000</speed>
</trkpt>
<trkpt lat="20.963266" lon="107.058136">
<ele>19.131119</ele>
<time>2011-04-30T02:59:20Z</time>
<desc>lat.=20.963266, lon.=107.058136, Alt.=19.131119m. Speed=0.576000m/h.</desc>
<speed>0.160000</speed>
</trkpt>
<trkpt lat="20.963268" lon="107.058136">
<ele>18.607681</ele>
<time>2011-04-30T02:59:25Z</time>
<desc>lat.=20.963268, lon.=107.058136, Alt.=18.607681m. Speed=0.072000m/h.</desc>
<speed>0.020000</speed>
</trkpt>
<trkpt lat="20.963268" lon="107.058136">
<ele>18.491959</ele>
<time>2011-04-30T02:59:30Z</time>
<desc>lat.=20.963268, lon.=107.058136, Alt.=18.491959m. Speed=0.000000m/h.</desc>
<speed>0.000000</speed>
</trkpt>
<trkpt lat="20.963268" lon="107.058136">
<ele>18.503677</ele>
<time>2011-04-30T02:59:35Z</time>
<desc>lat.=20.963268, lon.=107.058136, Alt.=18.503677m. Speed=0.000000m/h.</desc>
<speed>0.000000</speed>
</trkpt>
<trkpt lat="20.963268" lon="107.058144">
<ele>18.508560</ele>
<time>2011-04-30T02:59:40Z</time>
<desc>lat.=20.963268, lon.=107.058144, Alt.=18.508560m. Speed=0.252000m/h.</desc>
<speed>0.070000</speed>
</trkpt>
<trkpt lat="20.963268" lon="107.058136">
<ele>18.511490</ele>
<time>2011-04-30T02:59:45Z</time>
<desc>lat.=20.963268, lon.=107.058136, Alt.=18.511490m. Speed=0.036000m/h.</desc>
<speed>0.010000</speed>
</trkpt>
<trkpt lat="20.963268" lon="107.058136">
<ele>18.511490</ele>
<time>2011-04-30T02:59:50Z</time>
<desc>lat.=20.963268, lon.=107.058136, Alt.=18.511490m. Speed=0.000000m/h.</desc>
<speed>0.000000</speed>
</trkpt>
<trkpt lat="20.963268" lon="107.058136">
<ele>18.511490</ele>
<time>2011-04-30T02:59:55Z</time>
<desc>lat.=20.963268, lon.=107.058136, Alt.=18.511490m. Speed=0.000000m/h.</desc>
<speed>0.000000</speed>
</trkpt>
<trkpt lat="20.963268" lon="107.058144">
<ele>18.511978</ele>
<time>2011-04-30T03:00:00Z</time>
<desc>lat.=20.963268, lon.=107.058144, Alt.=18.511978m. Speed=0.072000m/h.</desc>
<speed>0.020000</speed>
</trkpt>
<trkpt lat="20.963268" lon="107.058144">
<ele>18.510025</ele>
<time>2011-04-30T03:00:05Z</time>
<desc>lat.=20.963268, lon.=107.058144, Alt.=18.510025m. Speed=0.144000m/h.</desc>
<speed>0.040000</speed>
</trkpt>
<trkpt lat="20.963268" lon="107.058144">
<ele>18.505630</ele>
<time>2011-04-30T03:00:10Z</time>
<desc>lat.=20.963268, lon.=107.058144, Alt.=18.505630m. Speed=0.144000m/h.</desc>
<speed>0.040000</speed>
</trkpt>
<trkpt lat="20.963268" lon="107.058144">
<ele>18.499283</ele>
<time>2011-04-30T03:00:15Z</time>
<desc>lat.=20.963268, lon.=107.058144, Alt.=18.499283m. Speed=0.144000m/h.</desc>
<speed>0.040000</speed>
</trkpt>
<trkpt lat="20.963268" lon="107.058151">
<ele>18.491959</ele>
<time>2011-04-30T03:00:20Z</time>
<desc>lat.=20.963268, lon.=107.058151, Alt.=18.491959m. Speed=0.216000m/h.</desc>
<speed>0.060000</speed>
</trkpt>
<trkpt lat="20.963268" lon="107.058151">
<ele>18.484634</ele>
<time>2011-04-30T03:00:25Z</time>
<desc>lat.=20.963268, lon.=107.058151, Alt.=18.484634m. Speed=0.252000m/h.</desc>
<speed>0.070000</speed>
</trkpt>
<trkpt lat="20.963268" lon="107.058159">
<ele>18.481216</ele>
<time>2011-04-30T03:00:30Z</time>
<desc>lat.=20.963268, lon.=107.058159, Alt.=18.481216m. Speed=0.216000m/h.</desc>
<speed>0.060000</speed>
</trkpt>
<trkpt lat="20.963268" lon="107.058159">
<ele>18.480240</ele>
<time>2011-04-30T03:00:35Z</time>
<desc>lat.=20.963268, lon.=107.058159, Alt.=18.480240m. Speed=0.108000m/h.</desc>
<speed>0.030000</speed>
</trkpt>
<trkpt lat="20.963270" lon="107.058159">
<ele>18.479752</ele>
<time>2011-04-30T03:00:40Z</time>
<desc>lat.=20.963270, lon.=107.058159, Alt.=18.479752m. Speed=0.288000m/h.</desc>
<speed>0.080000</speed>
</trkpt>
<trkpt lat="20.963272" lon="107.058151">
<ele>18.482681</ele>
<time>2011-04-30T03:00:45Z</time>
<desc>lat.=20.963272, lon.=107.058151, Alt.=18.482681m. Speed=0.144000m/h.</desc>
<speed>0.040000</speed>
</trkpt>
<trkpt lat="20.963274" lon="107.058151">
<ele>18.492935</ele>
<time>2011-04-30T03:00:50Z</time>
<desc>lat.=20.963274, lon.=107.058151, Alt.=18.492935m. Speed=0.216000m/h.</desc>
<speed>0.060000</speed>
</trkpt>
<trkpt lat="20.963276" lon="107.058151">
<ele>18.504654</ele>
<time>2011-04-30T03:00:55Z</time>
<desc>lat.=20.963276, lon.=107.058151, Alt.=18.504654m. Speed=0.000000m/h.</desc>
<speed>0.000000</speed>
</trkpt>
<trkpt lat="20.963276" lon="107.058151">
<ele>18.514908</ele>
<time>2011-04-30T03:01:00Z</time>
<desc>lat.=20.963276, lon.=107.058151, Alt.=18.514908m. Speed=0.072000m/h.</desc>
<speed>0.020000</speed>
</trkpt>
<trkpt lat="20.963274" lon="107.058151">
<ele>18.523697</ele>
<time>2011-04-30T03:01:05Z</time>
<desc>lat.=20.963274, lon.=107.058151, Alt.=18.523697m. Speed=0.180000m/h.</desc>
<speed>0.050000</speed>
</trkpt>
<trkpt lat="20.963274" lon="107.058151">
<ele>18.531509</ele>
<time>2011-04-30T03:01:10Z</time>
<desc>lat.=20.963274, lon.=107.058151, Alt.=18.531509m. Speed=0.036000m/h.</desc>
<speed>0.010000</speed>
</trkpt>
<trkpt lat="20.963272" lon="107.058151">
<ele>18.546646</ele>
<time>2011-04-30T03:01:15Z</time>
<desc>lat.=20.963272, lon.=107.058151, Alt.=18.546646m. Speed=0.000000m/h.</desc>
<speed>0.000000</speed>
</trkpt>
<trkpt lat="20.963272" lon="107.058151">
<ele>18.573502</ele>
<time>2011-04-30T03:01:20Z</time>
<desc>lat.=20.963272, lon.=107.058151, Alt.=18.573502m. Speed=0.072000m/h.</desc>
<speed>0.020000</speed>
</trkpt>
<trkpt lat="20.963274" lon="107.058151">
<ele>18.609634</ele>
<time>2011-04-30T03:01:25Z</time>
<desc>lat.=20.963274, lon.=107.058151, Alt.=18.609634m. Speed=0.180000m/h.</desc>
<speed>0.050000</speed>
</trkpt>
<trkpt lat="20.963278" lon="107.058159">
<ele>18.638443</ele>
<time>2011-04-30T03:01:30Z</time>
<desc>lat.=20.963278, lon.=107.058159, Alt.=18.638443m. Speed=0.288000m/h.</desc>
<speed>0.080000</speed>
</trkpt>
<trkpt lat="20.963280" lon="107.058159">
<ele>18.655533</ele>
<time>2011-04-30T03:01:35Z</time>
<desc>lat.=20.963280, lon.=107.058159, Alt.=18.655533m. Speed=0.252000m/h.</desc>
<speed>0.070000</speed>
</trkpt>
<trkpt lat="20.963282" lon="107.058159">
<ele>18.655533</ele>
<time>2011-04-30T03:01:40Z</time>
<desc>lat.=20.963282, lon.=107.058159, Alt.=18.655533m. Speed=0.252000m/h.</desc>
<speed>0.070000</speed>
</trkpt>
<trkpt lat="20.963282" lon="107.058167">
<ele>18.651627</ele>
<time>2011-04-30T03:01:45Z</time>
<desc>lat.=20.963282, lon.=107.058167, Alt.=18.651627m. Speed=0.216000m/h.</desc>
<speed>0.060000</speed>
</trkpt>
<trkpt lat="20.963280" lon="107.058167">
<ele>18.671158</ele>
<time>2011-04-30T03:01:50Z</time>
<desc>lat.=20.963280, lon.=107.058167, Alt.=18.671158m. Speed=0.288000m/h.</desc>
<speed>0.080000</speed>
</trkpt>
<trkpt lat="20.963276" lon="107.058159">
<ele>18.646255</ele>
<time>2011-04-30T03:01:55Z</time>
<desc>lat.=20.963276, lon.=107.058159, Alt.=18.646255m. Speed=0.324000m/h.</desc>
<speed>0.090000</speed>
</trkpt>
<trkpt lat="20.963274" lon="107.058159">
<ele>18.531998</ele>
<time>2011-04-30T03:02:00Z</time>
<desc>lat.=20.963274, lon.=107.058159, Alt.=18.531998m. Speed=0.108000m/h.</desc>
<speed>0.030000</speed>
</trkpt>
<trkpt lat="20.963274" lon="107.058159">
<ele>18.385025</ele>
<time>2011-04-30T03:02:05Z</time>
<desc>lat.=20.963274, lon.=107.058159, Alt.=18.385025m. Speed=0.000000m/h.</desc>
<speed>0.000000</speed>
</trkpt>
<trkpt lat="20.963274" lon="107.058159">
<ele>18.330826</ele>
<time>2011-04-30T03:02:10Z</time>
<desc>lat.=20.963274, lon.=107.058159, Alt.=18.330826m. Speed=0.000000m/h.</desc>
<speed>0.000000</speed>
</trkpt>
<trkpt lat="20.963274" lon="107.058159">
<ele>18.340103</ele>
<time>2011-04-30T03:02:15Z</time>
<desc>lat.=20.963274, lon.=107.058159, Alt.=18.340103m. Speed=0.000000m/h.</desc>
<speed>0.000000</speed>
</trkpt>
<trkpt lat="20.963274" lon="107.058159">
<ele>18.353775</ele>
<time>2011-04-30T03:02:20Z</time>
<desc>lat.=20.963274, lon.=107.058159, Alt.=18.353775m. Speed=0.000000m/h.</desc>
<speed>0.000000</speed>
</trkpt>
<trkpt lat="20.963274" lon="107.058159">
<ele>18.337173</ele>
<time>2011-04-30T03:02:25Z</time>
<desc>lat.=20.963274, lon.=107.058159, Alt.=18.337173m. Speed=0.000000m/h.</desc>
<speed>0.000000</speed>
</trkpt>
<trkpt lat="20.963274" lon="107.058159">
<ele>18.343521</ele>
<time>2011-04-30T03:02:30Z</time>
<desc>lat.=20.963274, lon.=107.058159, Alt.=18.343521m. Speed=0.252000m/h.</desc>
<speed>0.070000</speed>
</trkpt>
<trkpt lat="20.963274" lon="107.058159">
<ele>18.332779</ele>
<time>2011-04-30T03:02:35Z</time>
<desc>lat.=20.963274, lon.=107.058159, Alt.=18.332779m. Speed=0.072000m/h.</desc>
<speed>0.020000</speed>
</trkpt>
<trkpt lat="20.963274" lon="107.058159">
<ele>18.310806</ele>
<time>2011-04-30T03:02:40Z</time>
<desc>lat.=20.963274, lon.=107.058159, Alt.=18.310806m. Speed=0.036000m/h.</desc>
<speed>0.010000</speed>
</trkpt>
<trkpt lat="20.963274" lon="107.058159">
<ele>18.377213</ele>
<time>2011-04-30T03:02:45Z</time>
<desc>lat.=20.963274, lon.=107.058159, Alt.=18.377213m. Speed=1.260000m/h.</desc>
<speed>0.350000</speed>
</trkpt>
<trkpt lat="20.963268" lon="107.058151">
<ele>18.011002</ele>
<time>2011-04-30T03:02:50Z</time>
<desc>lat.=20.963268, lon.=107.058151, Alt.=18.011002m. Speed=1.008000m/h.</desc>
<speed>0.280000</speed>
</trkpt>
<trkpt lat="20.963270" lon="107.058151">
<ele>18.194595</ele>
<time>2011-04-30T03:02:55Z</time>
<desc>lat.=20.963270, lon.=107.058151, Alt.=18.194595m. Speed=0.612000m/h.</desc>
<speed>0.170000</speed>
</trkpt>
<trkpt lat="20.963278" lon="107.058136">
<ele>17.762955</ele>
<time>2011-04-30T03:03:00Z</time>
<desc>lat.=20.963278, lon.=107.058136, Alt.=17.762955m. Speed=0.504000m/h.</desc>
<speed>0.140000</speed>
</trkpt>
<trkpt lat="20.963282" lon="107.058136">
<ele>17.761978</ele>
<time>2011-04-30T03:03:05Z</time>
<desc>lat.=20.963282, lon.=107.058136, Alt.=17.761978m. Speed=1.404000m/h.</desc>
<speed>0.390000</speed>
</trkpt>
<trkpt lat="20.963270" lon="107.058167">
<ele>17.698013</ele>
<time>2011-04-30T03:03:10Z</time>
<desc>lat.=20.963270, lon.=107.058167, Alt.=17.698013m. Speed=1.728000m/h.</desc>
<speed>0.480000</speed>
</trkpt>
<trkpt lat="20.963243" lon="107.058205">
<ele>17.767349</ele>
<time>2011-04-30T03:03:15Z</time>
<desc>lat.=20.963243, lon.=107.058205, Alt.=17.767349m. Speed=3.240000m/h.</desc>
<speed>0.900000</speed>
</trkpt>
<trkpt lat="20.963213" lon="107.058235">
<ele>17.394791</ele>
<time>2011-04-30T03:03:20Z</time>
<desc>lat.=20.963213, lon.=107.058235, Alt.=17.394791m. Speed=1.548000m/h.</desc>
<speed>0.430000</speed>
</trkpt>
<trkpt lat="20.963209" lon="107.058243">
<ele>17.220963</ele>
<time>2011-04-30T03:03:25Z</time>
<desc>lat.=20.963209, lon.=107.058243, Alt.=17.220963m. Speed=0.252000m/h.</desc>
<speed>0.070000</speed>
</trkpt>
<trkpt lat="20.963207" lon="107.058243">
<ele>17.099380</ele>
<time>2011-04-30T03:03:30Z</time>
<desc>lat.=20.963207, lon.=107.058243, Alt.=17.099380m. Speed=0.072000m/h.</desc>
<speed>0.020000</speed>
</trkpt>
<trkpt lat="20.963203" lon="107.058243">
<ele>17.063248</ele>
<time>2011-04-30T03:03:35Z</time>
<desc>lat.=20.963203, lon.=107.058243, Alt.=17.063248m. Speed=0.288000m/h.</desc>
<speed>0.080000</speed>
</trkpt>
<trkpt lat="20.963200" lon="107.058243">
<ele>17.073990</ele>
<time>2011-04-30T03:03:40Z</time>
<desc>lat.=20.963200, lon.=107.058243, Alt.=17.073990m. Speed=0.324000m/h.</desc>
<speed>0.090000</speed>
</trkpt>
<trkpt lat="20.963200" lon="107.058235">
<ele>17.058365</ele>
<time>2011-04-30T03:03:45Z</time>
<desc>lat.=20.963200, lon.=107.058235, Alt.=17.058365m. Speed=0.324000m/h.</desc>
<speed>0.090000</speed>
</trkpt>
<trkpt lat="20.963200" lon="107.058235">
<ele>17.031509</ele>
<time>2011-04-30T03:03:50Z</time>
<desc>lat.=20.963200, lon.=107.058235, Alt.=17.031509m. Speed=0.216000m/h.</desc>
<speed>0.060000</speed>
</trkpt>
<trkpt lat="20.963198" lon="107.058235">
<ele>17.014420</ele>
<time>2011-04-30T03:03:55Z</time>
<desc>lat.=20.963198, lon.=107.058235, Alt.=17.014420m. Speed=1.152000m/h.</desc>
<speed>0.320000</speed>
</trkpt>
<trkpt lat="20.963184" lon="107.058220">
<ele>18.923599</ele>
<time>2011-04-30T03:04:00Z</time>
<desc>lat.=20.963184, lon.=107.058220, Alt.=18.923599m. Speed=0.360000m/h.</desc>
<speed>0.100000</speed>
</trkpt>
<trkpt lat="20.963184" lon="107.058220">
<ele>18.929459</ele>
<time>2011-04-30T03:04:05Z</time>
<desc>lat.=20.963184, lon.=107.058220, Alt.=18.929459m. Speed=0.072000m/h.</desc>
<speed>0.020000</speed>
</trkpt>
<trkpt lat="20.963184" lon="107.058220">
<ele>18.941177</ele>
<time>2011-04-30T03:04:10Z</time>
<desc>lat.=20.963184, lon.=107.058220, Alt.=18.941177m. Speed=0.108000m/h.</desc>
<speed>0.030000</speed>
</trkpt>
<trkpt lat="20.963184" lon="107.058220">
<ele>18.956802</ele>
<time>2011-04-30T03:04:15Z</time>
<desc>lat.=20.963184, lon.=107.058220, Alt.=18.956802m. Speed=0.216000m/h.</desc>
<speed>0.060000</speed>
</trkpt>
<trkpt lat="20.963182" lon="107.058220">
<ele>18.982193</ele>
<time>2011-04-30T03:04:20Z</time>
<desc>lat.=20.963182, lon.=107.058220, Alt.=18.982193m. Speed=0.576000m/h.</desc>
<speed>0.160000</speed>
</trkpt>
<trkpt lat="20.963186" lon="107.058220">
<ele>19.050552</ele>
<time>2011-04-30T03:04:25Z</time>
<desc>lat.=20.963186, lon.=107.058220, Alt.=19.050552m. Speed=0.072000m/h.</desc>
<speed>0.020000</speed>
</trkpt>
<trkpt lat="20.963186" lon="107.058220">
<ele>19.040787</ele>
<time>2011-04-30T03:04:30Z</time>
<desc>lat.=20.963186, lon.=107.058220, Alt.=19.040787m. Speed=0.252000m/h.</desc>
<speed>0.070000</speed>
</trkpt>
<trkpt lat="20.963184" lon="107.058220">
<ele>18.993423</ele>
<time>2011-04-30T03:04:35Z</time>
<desc>lat.=20.963184, lon.=107.058220, Alt.=18.993423m. Speed=0.108000m/h.</desc>
<speed>0.030000</speed>
</trkpt>
<trkpt lat="20.963184" lon="107.058220">
<ele>18.969498</ele>
<time>2011-04-30T03:04:40Z</time>
<desc>lat.=20.963184, lon.=107.058220, Alt.=18.969498m. Speed=0.432000m/h.</desc>
<speed>0.120000</speed>
</trkpt>
<trkpt lat="20.963186" lon="107.058220">
<ele>18.987564</ele>
<time>2011-04-30T03:04:45Z</time>
<desc>lat.=20.963186, lon.=107.058220, Alt.=18.987564m. Speed=0.108000m/h.</desc>
<speed>0.030000</speed>
</trkpt>
<trkpt lat="20.963186" lon="107.058220">
<ele>18.985123</ele>
<time>2011-04-30T03:04:50Z</time>
<desc>lat.=20.963186, lon.=107.058220, Alt.=18.985123m. Speed=0.000000m/h.</desc>
<speed>0.000000</speed>
</trkpt>
<trkpt lat="20.963188" lon="107.058228">
<ele>18.973404</ele>
<time>2011-04-30T03:04:55Z</time>
<desc>lat.=20.963188, lon.=107.058228, Alt.=18.973404m. Speed=0.288000m/h.</desc>
<speed>0.080000</speed>
</trkpt>
<trkpt lat="20.963188" lon="107.058220">
<ele>18.977798</ele>
<time>2011-04-30T03:05:00Z</time>
<desc>lat.=20.963188, lon.=107.058220, Alt.=18.977798m. Speed=0.072000m/h.</desc>
<speed>0.020000</speed>
</trkpt>
<trkpt lat="20.963188" lon="107.058220">
<ele>18.981705</ele>
<time>2011-04-30T03:05:05Z</time>
<desc>lat.=20.963188, lon.=107.058220, Alt.=18.981705m. Speed=0.000000m/h.</desc>
<speed>0.000000</speed>
</trkpt>
<trkpt lat="20.963188" lon="107.058220">
<ele>18.978775</ele>
<time>2011-04-30T03:05:10Z</time>
<desc>lat.=20.963188, lon.=107.058220, Alt.=18.978775m. Speed=0.036000m/h.</desc>
<speed>0.010000</speed>
</trkpt>
<trkpt lat="20.963188" lon="107.058220">
<ele>18.981216</ele>
<time>2011-04-30T03:05:15Z</time>
<desc>lat.=20.963188, lon.=107.058220, Alt.=18.981216m. Speed=0.000000m/h.</desc>
<speed>0.000000</speed>
</trkpt>
<trkpt lat="20.963188" lon="107.058220">
<ele>18.980728</ele>
<time>2011-04-30T03:05:20Z</time>
<desc>lat.=20.963188, lon.=107.058220, Alt.=18.980728m. Speed=0.072000m/h.</desc>
<speed>0.020000</speed>
</trkpt>
<trkpt lat="20.963188" lon="107.058220">
<ele>18.982681</ele>
<time>2011-04-30T03:05:25Z</time>
<desc>lat.=20.963188, lon.=107.058220, Alt.=18.982681m. Speed=0.144000m/h.</desc>
<speed>0.040000</speed>
</trkpt>
<trkpt lat="20.963188" lon="107.058220">
<ele>18.983170</ele>
<time>2011-04-30T03:05:30Z</time>
<desc>lat.=20.963188, lon.=107.058220, Alt.=18.983170m. Speed=0.000000m/h.</desc>
<speed>0.000000</speed>
</trkpt>
<trkpt lat="20.963188" lon="107.058220">
<ele>18.992447</ele>
<time>2011-04-30T03:05:35Z</time>
<desc>lat.=20.963188, lon.=107.058220, Alt.=18.992447m. Speed=0.036000m/h.</desc>
<speed>0.010000</speed>
</trkpt>
<trkpt lat="20.963188" lon="107.058220">
<ele>18.996841</ele>
<time>2011-04-30T03:05:40Z</time>
<desc>lat.=20.963188, lon.=107.058220, Alt.=18.996841m. Speed=0.432000m/h.</desc>
<speed>0.120000</speed>
</trkpt>
<trkpt lat="20.963188" lon="107.058220">
<ele>19.014908</ele>
<time>2011-04-30T03:05:45Z</time>
<desc>lat.=20.963188, lon.=107.058220, Alt.=19.014908m. Speed=0.036000m/h.</desc>
<speed>0.010000</speed>
</trkpt>
<trkpt lat="20.963188" lon="107.058220">
<ele>19.009048</ele>
<time>2011-04-30T03:05:50Z</time>
<desc>lat.=20.963188, lon.=107.058220, Alt.=19.009048m. Speed=0.036000m/h.</desc>
<speed>0.010000</speed>
</trkpt>
<trkpt lat="20.963188" lon="107.058220">
<ele>19.012955</ele>
<time>2011-04-30T03:05:55Z</time>
<desc>lat.=20.963188, lon.=107.058220, Alt.=19.012955m. Speed=0.108000m/h.</desc>
<speed>0.030000</speed>
</trkpt>
<trkpt lat="20.963188" lon="107.058220">
<ele>19.013931</ele>
<time>2011-04-30T03:06:00Z</time>
<desc>lat.=20.963188, lon.=107.058220, Alt.=19.013931m. Speed=0.000000m/h.</desc>
<speed>0.000000</speed>
</trkpt>
<trkpt lat="20.963188" lon="107.058220">
<ele>19.011978</ele>
<time>2011-04-30T03:06:05Z</time>
<desc>lat.=20.963188, lon.=107.058220, Alt.=19.011978m. Speed=0.144000m/h.</desc>
<speed>0.040000</speed>
</trkpt>
<trkpt lat="20.963188" lon="107.058220">
<ele>19.011002</ele>
<time>2011-04-30T03:06:10Z</time>
<desc>lat.=20.963188, lon.=107.058220, Alt.=19.011002m. Speed=0.072000m/h.</desc>
<speed>0.020000</speed>
</trkpt>
<trkpt lat="20.963186" lon="107.058220">
<ele>19.008560</ele>
<time>2011-04-30T03:06:15Z</time>
<desc>lat.=20.963186, lon.=107.058220, Alt.=19.008560m. Speed=0.216000m/h.</desc>
<speed>0.060000</speed>
</trkpt>
<trkpt lat="20.963190" lon="107.058228">
<ele>19.114029</ele>
<time>2011-04-30T03:06:20Z</time>
<desc>lat.=20.963190, lon.=107.058228, Alt.=19.114029m. Speed=1.296000m/h.</desc>
<speed>0.360000</speed>
</trkpt>
<trkpt lat="20.963182" lon="107.058250">
<ele>19.181900</ele>
<time>2011-04-30T03:06:25Z</time>
<desc>lat.=20.963182, lon.=107.058250, Alt.=19.181900m. Speed=0.576000m/h.</desc>
<speed>0.160000</speed>
</trkpt>
<trkpt lat="20.963181" lon="107.058258">
<ele>19.178482</ele>
<time>2011-04-30T03:06:30Z</time>
<desc>lat.=20.963181, lon.=107.058258, Alt.=19.178482m. Speed=0.252000m/h.</desc>
<speed>0.070000</speed>
</trkpt>
<trkpt lat="20.963188" lon="107.058266">
<ele>19.258560</ele>
<time>2011-04-30T03:06:35Z</time>
<desc>lat.=20.963188, lon.=107.058266, Alt.=19.258560m. Speed=0.216000m/h.</desc>
<speed>0.060000</speed>
</trkpt>
<trkpt lat="20.963190" lon="107.058258">
<ele>19.471451</ele>
<time>2011-04-30T03:06:40Z</time>
<desc>lat.=20.963190, lon.=107.058258, Alt.=19.471451m. Speed=0.576000m/h.</desc>
<speed>0.160000</speed>
</trkpt>
<trkpt lat="20.963203" lon="107.058258">
<ele>20.049088</ele>
<time>2011-04-30T03:06:45Z</time>
<desc>lat.=20.963203, lon.=107.058258, Alt.=20.049088m. Speed=0.324000m/h.</desc>
<speed>0.090000</speed>
</trkpt>
<trkpt lat="20.963200" lon="107.058266">
<ele>20.180923</ele>
<time>2011-04-30T03:06:50Z</time>
<desc>lat.=20.963200, lon.=107.058266, Alt.=20.180923m. Speed=0.108000m/h.</desc>
<speed>0.030000</speed>
</trkpt>
<trkpt lat="20.963196" lon="107.058266">
<ele>20.115005</ele>
<time>2011-04-30T03:06:55Z</time>
<desc>lat.=20.963196, lon.=107.058266, Alt.=20.115005m. Speed=0.612000m/h.</desc>
<speed>0.170000</speed>
</trkpt>
<trkpt lat="20.963198" lon="107.058266">
<ele>20.080338</ele>
<time>2011-04-30T03:07:00Z</time>
<desc>lat.=20.963198, lon.=107.058266, Alt.=20.080338m. Speed=0.792000m/h.</desc>
<speed>0.220000</speed>
</trkpt>
<trkpt lat="20.963200" lon="107.058258">
<ele>19.823990</ele>
<time>2011-04-30T03:07:05Z</time>
<desc>lat.=20.963200, lon.=107.058258, Alt.=19.823990m. Speed=0.612000m/h.</desc>
<speed>0.170000</speed>
</trkpt>
<trkpt lat="20.963192" lon="107.058243">
<ele>19.802505</ele>
<time>2011-04-30T03:07:10Z</time>
<desc>lat.=20.963192, lon.=107.058243, Alt.=19.802505m. Speed=2.016000m/h.</desc>
<speed>0.560000</speed>
</trkpt>
<trkpt lat="20.963182" lon="107.058228">
<ele>19.775162</ele>
<time>2011-04-30T03:07:15Z</time>
<desc>lat.=20.963182, lon.=107.058228, Alt.=19.775162m. Speed=0.576000m/h.</desc>
<speed>0.160000</speed>
</trkpt>
<trkpt lat="20.963181" lon="107.058228">
<ele>19.813736</ele>
<time>2011-04-30T03:07:20Z</time>
<desc>lat.=20.963181, lon.=107.058228, Alt.=19.813736m. Speed=0.252000m/h.</desc>
<speed>0.070000</speed>
</trkpt>
<trkpt lat="20.963184" lon="107.058235">
<ele>19.927994</ele>
<time>2011-04-30T03:07:25Z</time>
<desc>lat.=20.963184, lon.=107.058235, Alt.=19.927994m. Speed=1.116000m/h.</desc>
<speed>0.310000</speed>
</trkpt>
<trkpt lat="20.963171" lon="107.058250">
<ele>20.025162</ele>
<time>2011-04-30T03:07:30Z</time>
<desc>lat.=20.963171, lon.=107.058250, Alt.=20.025162m. Speed=1.332000m/h.</desc>
<speed>0.370000</speed>
</trkpt>
<trkpt lat="20.963175" lon="107.058266">
<ele>20.232681</ele>
<time>2011-04-30T03:07:35Z</time>
<desc>lat.=20.963175, lon.=107.058266, Alt.=20.232681m. Speed=0.756000m/h.</desc>
<speed>0.210000</speed>
</trkpt>
<trkpt lat="20.963179" lon="107.058266">
<ele>20.053970</ele>
<time>2011-04-30T03:07:40Z</time>
<desc>lat.=20.963179, lon.=107.058266, Alt.=20.053970m. Speed=0.072000m/h.</desc>
<speed>0.020000</speed>
</trkpt>
<trkpt lat="20.963181" lon="107.058266">
<ele>19.885025</ele>
<time>2011-04-30T03:07:45Z</time>
<desc>lat.=20.963181, lon.=107.058266, Alt.=19.885025m. Speed=0.144000m/h.</desc>
<speed>0.040000</speed>
</trkpt>
<trkpt lat="20.963181" lon="107.058266">
<ele>19.790787</ele>
<time>2011-04-30T03:07:50Z</time>
<desc>lat.=20.963181, lon.=107.058266, Alt.=19.790787m. Speed=0.072000m/h.</desc>
<speed>0.020000</speed>
</trkpt>
<trkpt lat="20.963179" lon="107.058266">
<ele>19.880142</ele>
<time>2011-04-30T03:07:55Z</time>
<desc>lat.=20.963179, lon.=107.058266, Alt.=19.880142m. Speed=0.144000m/h.</desc>
<speed>0.040000</speed>
</trkpt>
<trkpt lat="20.963209" lon="107.058205">
<ele>19.445084</ele>
<time>2011-04-30T03:08:00Z</time>
<desc>lat.=20.963209, lon.=107.058205, Alt.=19.445084m. Speed=5.940000m/h.</desc>
<speed>1.650000</speed>
</trkpt>
<trkpt lat="20.963251" lon="107.058151">
<ele>19.478775</ele>
<time>2011-04-30T03:08:05Z</time>
<desc>lat.=20.963251, lon.=107.058151, Alt.=19.478775m. Speed=5.148000m/h.</desc>
<speed>1.430000</speed>
</trkpt>
<trkpt lat="20.963276" lon="107.058090">
<ele>19.323502</ele>
<time>2011-04-30T03:08:10Z</time>
<desc>lat.=20.963276, lon.=107.058090, Alt.=19.323502m. Speed=3.924000m/h.</desc>
<speed>1.090000</speed>
</trkpt>
<trkpt lat="20.963284" lon="107.058067">
<ele>18.779556</ele>
<time>2011-04-30T03:08:15Z</time>
<desc>lat.=20.963284, lon.=107.058067, Alt.=18.779556m. Speed=0.576000m/h.</desc>
<speed>0.160000</speed>
</trkpt>
<trkpt lat="20.963305" lon="107.058060">
<ele>18.745377</ele>
<time>2011-04-30T03:08:20Z</time>
<desc>lat.=20.963305, lon.=107.058060, Alt.=18.745377m. Speed=4.320000m/h.</desc>
<speed>1.200000</speed>
</trkpt>
<trkpt lat="20.963377" lon="107.058083">
<ele>18.678482</ele>
<time>2011-04-30T03:08:25Z</time>
<desc>lat.=20.963377, lon.=107.058083, Alt.=18.678482m. Speed=4.824000m/h.</desc>
<speed>1.340000</speed>
</trkpt>
<trkpt lat="20.963373" lon="107.058167">
<ele>19.303970</ele>
<time>2011-04-30T03:08:30Z</time>
<desc>lat.=20.963373, lon.=107.058167, Alt.=19.303970m. Speed=4.392000m/h.</desc>
<speed>1.220000</speed>
</trkpt>
<trkpt lat="20.963396" lon="107.058220">
<ele>19.094498</ele>
<time>2011-04-30T03:08:35Z</time>
<desc>lat.=20.963396, lon.=107.058220, Alt.=19.094498m. Speed=5.292000m/h.</desc>
<speed>1.470000</speed>
</trkpt>
<trkpt lat="20.963387" lon="107.058304">
<ele>20.232681</ele>
<time>2011-04-30T03:08:40Z</time>
<desc>lat.=20.963387, lon.=107.058304, Alt.=20.232681m. Speed=5.076000m/h.</desc>
<speed>1.410000</speed>
</trkpt>
<trkpt lat="20.963385" lon="107.058327">
<ele>20.562271</ele>
<time>2011-04-30T03:08:45Z</time>
<desc>lat.=20.963385, lon.=107.058327, Alt.=20.562271m. Speed=1.080000m/h.</desc>
<speed>0.300000</speed>
</trkpt>
<trkpt lat="20.963352" lon="107.058395">
<ele>20.965103</ele>
<time>2011-04-30T03:08:50Z</time>
<desc>lat.=20.963352, lon.=107.058395, Alt.=20.965103m. Speed=6.588000m/h.</desc>
<speed>1.830000</speed>
</trkpt>
<trkpt lat="20.963350" lon="107.058449">
<ele>23.328873</ele>
<time>2011-04-30T03:08:55Z</time>
<desc>lat.=20.963350, lon.=107.058449, Alt.=23.328873m. Speed=3.420000m/h.</desc>
<speed>0.950000</speed>
</trkpt>
<trkpt lat="20.963354" lon="107.058479">
<ele>23.946060</ele>
<time>2011-04-30T03:09:00Z</time>
<desc>lat.=20.963354, lon.=107.058479, Alt.=23.946060m. Speed=0.684000m/h.</desc>
<speed>0.190000</speed>
</trkpt>
<trkpt lat="20.963346" lon="107.058479">
<ele>24.505142</ele>
<time>2011-04-30T03:09:05Z</time>
<desc>lat.=20.963346, lon.=107.058479, Alt.=24.505142m. Speed=0.684000m/h.</desc>
<speed>0.190000</speed>
</trkpt>
<trkpt lat="20.963388" lon="107.058487">
<ele>23.531998</ele>
<time>2011-04-30T03:09:10Z</time>
<desc>lat.=20.963388, lon.=107.058487, Alt.=23.531998m. Speed=4.428000m/h.</desc>
<speed>1.230000</speed>
</trkpt>
<trkpt lat="20.963451" lon="107.058502">
<ele>23.401138</ele>
<time>2011-04-30T03:09:15Z</time>
<desc>lat.=20.963451, lon.=107.058502, Alt.=23.401138m. Speed=4.068000m/h.</desc>
<speed>1.130000</speed>
</trkpt>
<trkpt lat="20.963491" lon="107.058525">
<ele>22.666275</ele>
<time>2011-04-30T03:09:20Z</time>
<desc>lat.=20.963491, lon.=107.058525, Alt.=22.666275m. Speed=3.168000m/h.</desc>
<speed>0.880000</speed>
</trkpt>
<trkpt lat="20.963522" lon="107.058563">
<ele>22.530533</ele>
<time>2011-04-30T03:09:25Z</time>
<desc>lat.=20.963522, lon.=107.058563, Alt.=22.530533m. Speed=3.816000m/h.</desc>
<speed>1.060000</speed>
</trkpt>
<trkpt lat="20.963531" lon="107.058624">
<ele>22.568130</ele>
<time>2011-04-30T03:09:30Z</time>
<desc>lat.=20.963531, lon.=107.058624, Alt.=22.568130m. Speed=5.112000m/h.</desc>
<speed>1.420000</speed>
</trkpt>
<trkpt lat="20.963560" lon="107.058708">
<ele>23.376724</ele>
<time>2011-04-30T03:09:35Z</time>
<desc>lat.=20.963560, lon.=107.058708, Alt.=23.376724m. Speed=5.256000m/h.</desc>
<speed>1.460000</speed>
</trkpt>
<trkpt lat="20.963562" lon="107.058792">
<ele>24.394791</ele>
<time>2011-04-30T03:09:40Z</time>
<desc>lat.=20.963562, lon.=107.058792, Alt.=24.394791m. Speed=5.364000m/h.</desc>
<speed>1.490000</speed>
</trkpt>
<trkpt lat="20.963524" lon="107.058846">
<ele>24.757095</ele>
<time>2011-04-30T03:09:45Z</time>
<desc>lat.=20.963524, lon.=107.058846, Alt.=24.757095m. Speed=5.364000m/h.</desc>
<speed>1.490000</speed>
</trkpt>
<trkpt lat="20.963493" lon="107.058876">
<ele>25.340591</ele>
<time>2011-04-30T03:09:50Z</time>
<desc>lat.=20.963493, lon.=107.058876, Alt.=25.340591m. Speed=1.800000m/h.</desc>
<speed>0.500000</speed>
</trkpt>
<trkpt lat="20.963453" lon="107.058907">
<ele>23.844986</ele>
<time>2011-04-30T03:09:55Z</time>
<desc>lat.=20.963453, lon.=107.058907, Alt.=23.844986m. Speed=4.104000m/h.</desc>
<speed>1.140000</speed>
</trkpt>
<trkpt lat="20.963396" lon="107.058952">
<ele>23.543228</ele>
<time>2011-04-30T03:10:00Z</time>
<desc>lat.=20.963396, lon.=107.058952, Alt.=23.543228m. Speed=6.552000m/h.</desc>
<speed>1.820000</speed>
</trkpt>
<trkpt lat="20.963348" lon="107.059006">
<ele>23.972427</ele>
<time>2011-04-30T03:10:05Z</time>
<desc>lat.=20.963348, lon.=107.059006, Alt.=23.972427m. Speed=5.400000m/h.</desc>
<speed>1.500000</speed>
</trkpt>
<trkpt lat="20.963297" lon="107.059067">
<ele>24.271255</ele>
<time>2011-04-30T03:10:10Z</time>
<desc>lat.=20.963297, lon.=107.059067, Alt.=24.271255m. Speed=5.220000m/h.</desc>
<speed>1.450000</speed>
</trkpt>
<trkpt lat="20.963255" lon="107.059135">
<ele>24.322037</ele>
<time>2011-04-30T03:10:15Z</time>
<desc>lat.=20.963255, lon.=107.059135, Alt.=24.322037m. Speed=4.500000m/h.</desc>
<speed>1.250000</speed>
</trkpt>
<trkpt lat="20.963209" lon="107.059181">
<ele>25.060318</ele>
<time>2011-04-30T03:10:20Z</time>
<desc>lat.=20.963209, lon.=107.059181, Alt.=25.060318m. Speed=4.464000m/h.</desc>
<speed>1.240000</speed>
</trkpt>
<trkpt lat="20.963181" lon="107.059227">
<ele>26.376724</ele>
<time>2011-04-30T03:10:25Z</time>
<desc>lat.=20.963181, lon.=107.059227, Alt.=26.376724m. Speed=5.472000m/h.</desc>
<speed>1.520000</speed>
</trkpt>
<trkpt lat="20.963156" lon="107.059288">
<ele>26.532974</ele>
<time>2011-04-30T03:10:30Z</time>
<desc>lat.=20.963156, lon.=107.059288, Alt.=26.532974m. Speed=3.564000m/h.</desc>
<speed>0.990000</speed>
</trkpt>
<trkpt lat="20.963112" lon="107.059311">
<ele>27.413345</ele>
<time>2011-04-30T03:10:35Z</time>
<desc>lat.=20.963112, lon.=107.059311, Alt.=27.413345m. Speed=4.284000m/h.</desc>
<speed>1.190000</speed>
</trkpt>
<trkpt lat="20.963081" lon="107.059395">
<ele>28.040787</ele>
<time>2011-04-30T03:10:40Z</time>
<desc>lat.=20.963081, lon.=107.059395, Alt.=28.040787m. Speed=6.228000m/h.</desc>
<speed>1.730000</speed>
</trkpt>
<trkpt lat="20.963055" lon="107.059486">
<ele>27.322037</ele>
<time>2011-04-30T03:10:45Z</time>
<desc>lat.=20.963055, lon.=107.059486, Alt.=27.322037m. Speed=5.328000m/h.</desc>
<speed>1.480000</speed>
</trkpt>
<trkpt lat="20.963018" lon="107.059555">
<ele>27.579849</ele>
<time>2011-04-30T03:10:50Z</time>
<desc>lat.=20.963018, lon.=107.059555, Alt.=27.579849m. Speed=5.184000m/h.</desc>
<speed>1.440000</speed>
</trkpt>
<trkpt lat="20.962984" lon="107.059624">
<ele>26.485611</ele>
<time>2011-04-30T03:10:55Z</time>
<desc>lat.=20.962984, lon.=107.059624, Alt.=26.485611m. Speed=4.500000m/h.</desc>
<speed>1.250000</speed>
</trkpt>
<trkpt lat="20.962965" lon="107.059685">
<ele>26.880142</ele>
<time>2011-04-30T03:11:00Z</time>
<desc>lat.=20.962965, lon.=107.059685, Alt.=26.880142m. Speed=5.796000m/h.</desc>
<speed>1.610000</speed>
</trkpt>
<trkpt lat="20.962950" lon="107.059746">
<ele>26.493912</ele>
<time>2011-04-30T03:11:05Z</time>
<desc>lat.=20.962950, lon.=107.059746, Alt.=26.493912m. Speed=4.392000m/h.</desc>
<speed>1.220000</speed>
</trkpt>
<trkpt lat="20.962950" lon="107.059807">
<ele>26.849380</ele>
<time>2011-04-30T03:11:10Z</time>
<desc>lat.=20.962950, lon.=107.059807, Alt.=26.849380m. Speed=3.708000m/h.</desc>
<speed>1.030000</speed>
</trkpt>
<trkpt lat="20.962919" lon="107.059875">
<ele>28.935318</ele>
<time>2011-04-30T03:11:15Z</time>
<desc>lat.=20.962919, lon.=107.059875, Alt.=28.935318m. Speed=6.588000m/h.</desc>
<speed>1.830000</speed>
</trkpt>
<trkpt lat="20.962917" lon="107.059944">
<ele>29.620377</ele>
<time>2011-04-30T03:11:20Z</time>
<desc>lat.=20.962917, lon.=107.059944, Alt.=29.620377m. Speed=5.904000m/h.</desc>
<speed>1.640000</speed>
</trkpt>
<trkpt lat="20.962910" lon="107.060028">
<ele>30.393326</ele>
<time>2011-04-30T03:11:25Z</time>
<desc>lat.=20.962910, lon.=107.060028, Alt.=30.393326m. Speed=5.220000m/h.</desc>
<speed>1.450000</speed>
</trkpt>
<trkpt lat="20.962919" lon="107.060081">
<ele>31.453384</ele>
<time>2011-04-30T03:11:30Z</time>
<desc>lat.=20.962919, lon.=107.060081, Alt.=31.453384m. Speed=3.852000m/h.</desc>
<speed>1.070000</speed>
</trkpt>
<trkpt lat="20.962940" lon="107.060150">
<ele>34.217316</ele>
<time>2011-04-30T03:11:35Z</time>
<desc>lat.=20.962940, lon.=107.060150, Alt.=34.217316m. Speed=5.652000m/h.</desc>
<speed>1.570000</speed>
</trkpt>
<trkpt lat="20.962952" lon="107.060219">
<ele>37.681183</ele>
<time>2011-04-30T03:11:40Z</time>
<desc>lat.=20.962952, lon.=107.060219, Alt.=37.681183m. Speed=5.004000m/h.</desc>
<speed>1.390000</speed>
</trkpt>
<trkpt lat="20.962976" lon="107.060287">
<ele>40.203644</ele>
<time>2011-04-30T03:11:45Z</time>
<desc>lat.=20.962976, lon.=107.060287, Alt.=40.203644m. Speed=4.068000m/h.</desc>
<speed>1.130000</speed>
</trkpt>
<trkpt lat="20.962996" lon="107.060364">
<ele>41.171417</ele>
<time>2011-04-30T03:11:50Z</time>
<desc>lat.=20.962996, lon.=107.060364, Alt.=41.171417m. Speed=4.284000m/h.</desc>
<speed>1.190000</speed>
</trkpt>
<trkpt lat="20.962986" lon="107.060455">
<ele>39.335480</ele>
<time>2011-04-30T03:11:55Z</time>
<desc>lat.=20.962986, lon.=107.060455, Alt.=39.335480m. Speed=5.112000m/h.</desc>
<speed>1.420000</speed>
</trkpt>
<trkpt lat="20.962969" lon="107.060501">
<ele>40.045441</ele>
<time>2011-04-30T03:12:00Z</time>
<desc>lat.=20.962969, lon.=107.060501, Alt.=40.045441m. Speed=4.464000m/h.</desc>
<speed>1.240000</speed>
</trkpt>
<trkpt lat="20.962898" lon="107.060547">
<ele>38.375519</ele>
<time>2011-04-30T03:12:05Z</time>
<desc>lat.=20.962898, lon.=107.060547, Alt.=38.375519m. Speed=5.616000m/h.</desc>
<speed>1.560000</speed>
</trkpt>
<trkpt lat="20.962833" lon="107.060570">
<ele>37.420441</ele>
<time>2011-04-30T03:12:10Z</time>
<desc>lat.=20.962833, lon.=107.060570, Alt.=37.420441m. Speed=5.040000m/h.</desc>
<speed>1.400000</speed>
</trkpt>
<trkpt lat="20.962786" lon="107.060577">
<ele>37.311066</ele>
<time>2011-04-30T03:12:15Z</time>
<desc>lat.=20.962786, lon.=107.060577, Alt.=37.311066m. Speed=4.716000m/h.</desc>
<speed>1.310000</speed>
</trkpt>
<trkpt lat="20.962734" lon="107.060593">
<ele>37.531769</ele>
<time>2011-04-30T03:12:20Z</time>
<desc>lat.=20.962734, lon.=107.060593, Alt.=37.531769m. Speed=4.104000m/h.</desc>
<speed>1.140000</speed>
</trkpt>
<trkpt lat="20.962671" lon="107.060623">
<ele>37.335480</ele>
<time>2011-04-30T03:12:25Z</time>
<desc>lat.=20.962671, lon.=107.060623, Alt.=37.335480m. Speed=4.752000m/h.</desc>
<speed>1.320000</speed>
</trkpt>
<trkpt lat="20.962616" lon="107.060654">
<ele>37.348175</ele>
<time>2011-04-30T03:12:30Z</time>
<desc>lat.=20.962616, lon.=107.060654, Alt.=37.348175m. Speed=5.112000m/h.</desc>
<speed>1.420000</speed>
</trkpt>
<trkpt lat="20.962564" lon="107.060669">
<ele>37.908722</ele>
<time>2011-04-30T03:12:35Z</time>
<desc>lat.=20.962564, lon.=107.060669, Alt.=37.908722m. Speed=3.636000m/h.</desc>
<speed>1.010000</speed>
</trkpt>
<trkpt lat="20.962521" lon="107.060669">
<ele>37.625519</ele>
<time>2011-04-30T03:12:40Z</time>
<desc>lat.=20.962521, lon.=107.060669, Alt.=37.625519m. Speed=2.268000m/h.</desc>
<speed>0.630000</speed>
</trkpt>
<trkpt lat="20.962492" lon="107.060669">
<ele>39.303253</ele>
<time>2011-04-30T03:12:45Z</time>
<desc>lat.=20.962492, lon.=107.060669, Alt.=39.303253m. Speed=2.412000m/h.</desc>
<speed>0.670000</speed>
</trkpt>
<trkpt lat="20.962450" lon="107.060661">
<ele>39.987823</ele>
<time>2011-04-30T03:12:50Z</time>
<desc>lat.=20.962450, lon.=107.060661, Alt.=39.987823m. Speed=2.340000m/h.</desc>
<speed>0.650000</speed>
</trkpt>
<trkpt lat="20.962418" lon="107.060654">
<ele>40.775909</ele>
<time>2011-04-30T03:12:55Z</time>
<desc>lat.=20.962418, lon.=107.060654, Alt.=40.775909m. Speed=3.456000m/h.</desc>
<speed>0.960000</speed>
</trkpt>
<trkpt lat="20.962343" lon="107.060646">
<ele>41.185089</ele>
<time>2011-04-30T03:13:00Z</time>
<desc>lat.=20.962343, lon.=107.060646, Alt.=41.185089m. Speed=4.140000m/h.</desc>
<speed>1.150000</speed>
</trkpt>
<trkpt lat="20.962202" lon="107.060684">
<ele>41.256378</ele>
<time>2011-04-30T03:13:05Z</time>
<desc>lat.=20.962202, lon.=107.060684, Alt.=41.256378m. Speed=4.608000m/h.</desc>
<speed>1.280000</speed>
</trkpt>
<trkpt lat="20.962099" lon="107.060692">
<ele>42.531769</ele>
<time>2011-04-30T03:13:10Z</time>
<desc>lat.=20.962099, lon.=107.060692, Alt.=42.531769m. Speed=6.336000m/h.</desc>
<speed>1.760000</speed>
</trkpt>
<trkpt lat="20.961973" lon="107.060600">
<ele>42.422394</ele>
<time>2011-04-30T03:13:15Z</time>
<desc>lat.=20.961973, lon.=107.060600, Alt.=42.422394m. Speed=5.688000m/h.</desc>
<speed>1.580000</speed>
</trkpt>
<trkpt lat="20.961924" lon="107.060600">
<ele>43.096222</ele>
<time>2011-04-30T03:13:20Z</time>
<desc>lat.=20.961924, lon.=107.060600, Alt.=43.096222m. Speed=3.960000m/h.</desc>
<speed>1.100000</speed>
</trkpt>
<trkpt lat="20.961887" lon="107.060631">
<ele>41.980011</ele>
<time>2011-04-30T03:13:25Z</time>
<desc>lat.=20.961887, lon.=107.060631, Alt.=41.980011m. Speed=4.176000m/h.</desc>
<speed>1.160000</speed>
</trkpt>
<trkpt lat="20.961817" lon="107.060577">
<ele>39.779816</ele>
<time>2011-04-30T03:13:30Z</time>
<desc>lat.=20.961817, lon.=107.060577, Alt.=39.779816m. Speed=5.364000m/h.</desc>
<speed>1.490000</speed>
</trkpt>
<trkpt lat="20.961754" lon="107.060570">
<ele>39.189972</ele>
<time>2011-04-30T03:13:35Z</time>
<desc>lat.=20.961754, lon.=107.060570, Alt.=39.189972m. Speed=6.012000m/h.</desc>
<speed>1.670000</speed>
</trkpt>
<trkpt lat="20.961689" lon="107.060570">
<ele>40.110870</ele>
<time>2011-04-30T03:13:40Z</time>
<desc>lat.=20.961689, lon.=107.060570, Alt.=40.110870m. Speed=4.680000m/h.</desc>
<speed>1.300000</speed>
</trkpt>
<trkpt lat="20.961643" lon="107.060608">
<ele>40.731964</ele>
<time>2011-04-30T03:13:45Z</time>
<desc>lat.=20.961643, lon.=107.060608, Alt.=40.731964m. Speed=5.256000m/h.</desc>
<speed>1.460000</speed>
</trkpt>
<trkpt lat="20.961573" lon="107.060638">
<ele>40.563019</ele>
<time>2011-04-30T03:13:50Z</time>
<desc>lat.=20.961573, lon.=107.060638, Alt.=40.563019m. Speed=4.428000m/h.</desc>
<speed>1.230000</speed>
</trkpt>
<trkpt lat="20.961483" lon="107.060661">
<ele>39.891144</ele>
<time>2011-04-30T03:13:55Z</time>
<desc>lat.=20.961483, lon.=107.060661, Alt.=39.891144m. Speed=5.004000m/h.</desc>
<speed>1.390000</speed>
</trkpt>
<trkpt lat="20.961439" lon="107.060677">
<ele>36.210480</ele>
<time>2011-04-30T03:14:00Z</time>
<desc>lat.=20.961439, lon.=107.060677, Alt.=36.210480m. Speed=5.292000m/h.</desc>
<speed>1.470000</speed>
</trkpt>
<trkpt lat="20.961380" lon="107.060646">
<ele>34.078644</ele>
<time>2011-04-30T03:14:05Z</time>
<desc>lat.=20.961380, lon.=107.060646, Alt.=34.078644m. Speed=4.716000m/h.</desc>
<speed>1.310000</speed>
</trkpt>
<trkpt lat="20.961351" lon="107.060593">
<ele>32.901886</ele>
<time>2011-04-30T03:14:10Z</time>
<desc>lat.=20.961351, lon.=107.060593, Alt.=32.901886m. Speed=5.472000m/h.</desc>
<speed>1.520000</speed>
</trkpt>
<trkpt lat="20.961311" lon="107.060532">
<ele>32.221222</ele>
<time>2011-04-30T03:14:15Z</time>
<desc>lat.=20.961311, lon.=107.060532, Alt.=32.221222m. Speed=6.408000m/h.</desc>
<speed>1.780000</speed>
</trkpt>
<trkpt lat="20.961281" lon="107.060455">
<ele>29.996353</ele>
<time>2011-04-30T03:14:20Z</time>
<desc>lat.=20.961281, lon.=107.060455, Alt.=29.996353m. Speed=5.148000m/h.</desc>
<speed>1.430000</speed>
</trkpt>
<trkpt lat="20.961266" lon="107.060402">
<ele>28.488541</ele>
<time>2011-04-30T03:14:25Z</time>
<desc>lat.=20.961266, lon.=107.060402, Alt.=28.488541m. Speed=3.600000m/h.</desc>
<speed>1.000000</speed>
</trkpt>
<trkpt lat="20.961243" lon="107.060364">
<ele>28.553482</ele>
<time>2011-04-30T03:14:30Z</time>
<desc>lat.=20.961243, lon.=107.060364, Alt.=28.553482m. Speed=4.392000m/h.</desc>
<speed>1.220000</speed>
</trkpt>
<trkpt lat="20.961193" lon="107.060326">
<ele>28.287369</ele>
<time>2011-04-30T03:14:35Z</time>
<desc>lat.=20.961193, lon.=107.060326, Alt.=28.287369m. Speed=4.356000m/h.</desc>
<speed>1.210000</speed>
</trkpt>
<trkpt lat="20.961138" lon="107.060303">
<ele>28.613541</ele>
<time>2011-04-30T03:14:40Z</time>
<desc>lat.=20.961138, lon.=107.060303, Alt.=28.613541m. Speed=4.140000m/h.</desc>
<speed>1.150000</speed>
</trkpt>
<trkpt lat="20.961096" lon="107.060310">
<ele>29.894791</ele>
<time>2011-04-30T03:14:45Z</time>
<desc>lat.=20.961096, lon.=107.060310, Alt.=29.894791m. Speed=4.140000m/h.</desc>
<speed>1.150000</speed>
</trkpt>
<trkpt lat="20.961040" lon="107.060303">
<ele>30.158951</ele>
<time>2011-04-30T03:14:50Z</time>
<desc>lat.=20.961040, lon.=107.060303, Alt.=30.158951m. Speed=3.996000m/h.</desc>
<speed>1.110000</speed>
</trkpt>
<trkpt lat="20.961000" lon="107.060287">
<ele>31.467056</ele>
<time>2011-04-30T03:14:55Z</time>
<desc>lat.=20.961000, lon.=107.060287, Alt.=31.467056m. Speed=0.792000m/h.</desc>
<speed>0.220000</speed>
</trkpt>
<trkpt lat="20.960993" lon="107.060287">
<ele>32.367706</ele>
<time>2011-04-30T03:15:00Z</time>
<desc>lat.=20.960993, lon.=107.060287, Alt.=32.367706m. Speed=0.468000m/h.</desc>
<speed>0.130000</speed>
</trkpt>
<trkpt lat="20.960987" lon="107.060280">
<ele>32.668488</ele>
<time>2011-04-30T03:15:05Z</time>
<desc>lat.=20.960987, lon.=107.060280, Alt.=32.668488m. Speed=0.180000m/h.</desc>
<speed>0.050000</speed>
</trkpt>
<trkpt lat="20.960987" lon="107.060280">
<ele>32.863800</ele>
<time>2011-04-30T03:15:10Z</time>
<desc>lat.=20.960987, lon.=107.060280, Alt.=32.863800m. Speed=0.288000m/h.</desc>
<speed>0.080000</speed>
</trkpt>
<trkpt lat="20.960991" lon="107.060280">
<ele>33.007355</ele>
<time>2011-04-30T03:15:15Z</time>
<desc>lat.=20.960991, lon.=107.060280, Alt.=33.007355m. Speed=0.504000m/h.</desc>
<speed>0.140000</speed>
</trkpt>
<trkpt lat="20.960991" lon="107.060280">
<ele>33.050323</ele>
<time>2011-04-30T03:15:20Z</time>
<desc>lat.=20.960991, lon.=107.060280, Alt.=33.050323m. Speed=0.036000m/h.</desc>
<speed>0.010000</speed>
</trkpt>
<trkpt lat="20.960993" lon="107.060280">
<ele>33.113800</ele>
<time>2011-04-30T03:15:25Z</time>
<desc>lat.=20.960993, lon.=107.060280, Alt.=33.113800m. Speed=0.108000m/h.</desc>
<speed>0.030000</speed>
</trkpt>
<trkpt lat="20.960993" lon="107.060280">
<ele>33.119659</ele>
<time>2011-04-30T03:15:30Z</time>
<desc>lat.=20.960993, lon.=107.060280, Alt.=33.119659m. Speed=0.216000m/h.</desc>
<speed>0.060000</speed>
</trkpt>
<trkpt lat="20.960993" lon="107.060280">
<ele>33.116730</ele>
<time>2011-04-30T03:15:35Z</time>
<desc>lat.=20.960993, lon.=107.060280, Alt.=33.116730m. Speed=0.000000m/h.</desc>
<speed>0.000000</speed>
</trkpt>
<trkpt lat="20.960989" lon="107.060280">
<ele>33.248566</ele>
<time>2011-04-30T03:15:40Z</time>
<desc>lat.=20.960989, lon.=107.060280, Alt.=33.248566m. Speed=0.072000m/h.</desc>
<speed>0.020000</speed>
</trkpt>
<trkpt lat="20.960991" lon="107.060287">
<ele>33.192902</ele>
<time>2011-04-30T03:15:45Z</time>
<desc>lat.=20.960991, lon.=107.060287, Alt.=33.192902m. Speed=0.036000m/h.</desc>
<speed>0.010000</speed>
</trkpt>
<trkpt lat="20.960997" lon="107.060287">
<ele>33.290558</ele>
<time>2011-04-30T03:15:50Z</time>
<desc>lat.=20.960997, lon.=107.060287, Alt.=33.290558m. Speed=0.036000m/h.</desc>
<speed>0.010000</speed>
</trkpt>
<trkpt lat="20.961000" lon="107.060287">
<ele>33.863800</ele>
<time>2011-04-30T03:15:55Z</time>
<desc>lat.=20.961000, lon.=107.060287, Alt.=33.863800m. Speed=0.072000m/h.</desc>
<speed>0.020000</speed>
</trkpt>
<trkpt lat="20.961012" lon="107.060249">
<ele>32.591339</ele>
<time>2011-04-30T03:16:00Z</time>
<desc>lat.=20.961012, lon.=107.060249, Alt.=32.591339m. Speed=0.216000m/h.</desc>
<speed>0.060000</speed>
</trkpt>
<trkpt lat="20.961018" lon="107.060242">
<ele>32.276886</ele>
<time>2011-04-30T03:16:05Z</time>
<desc>lat.=20.961018, lon.=107.060242, Alt.=32.276886m. Speed=0.036000m/h.</desc>
<speed>0.010000</speed>
</trkpt>
<trkpt lat="20.961031" lon="107.060234">
<ele>32.547394</ele>
<time>2011-04-30T03:16:10Z</time>
<desc>lat.=20.961031, lon.=107.060234, Alt.=32.547394m. Speed=0.036000m/h.</desc>
<speed>0.010000</speed>
</trkpt>
<trkpt lat="20.961033" lon="107.060234">
<ele>32.729034</ele>
<time>2011-04-30T03:16:15Z</time>
<desc>lat.=20.961033, lon.=107.060234, Alt.=32.729034m. Speed=0.036000m/h.</desc>
<speed>0.010000</speed>
</trkpt>
<trkpt lat="20.961029" lon="107.060226">
<ele>31.611099</ele>
<time>2011-04-30T03:16:20Z</time>
<desc>lat.=20.961029, lon.=107.060226, Alt.=31.611099m. Speed=0.000000m/h.</desc>
<speed>0.000000</speed>
</trkpt>
<trkpt lat="20.961029" lon="107.060226">
<ele>31.928970</ele>
<time>2011-04-30T03:16:25Z</time>
<desc>lat.=20.961029, lon.=107.060226, Alt.=31.928970m. Speed=0.036000m/h.</desc>
<speed>0.010000</speed>
</trkpt>
<trkpt lat="20.961029" lon="107.060226">
<ele>31.901627</ele>
<time>2011-04-30T03:16:30Z</time>
<desc>lat.=20.961029, lon.=107.060226, Alt.=31.901627m. Speed=0.108000m/h.</desc>
<speed>0.030000</speed>
</trkpt>
<trkpt lat="20.961029" lon="107.060226">
<ele>31.892838</ele>
<time>2011-04-30T03:16:35Z</time>
<desc>lat.=20.961029, lon.=107.060226, Alt.=31.892838m. Speed=0.036000m/h.</desc>
<speed>0.010000</speed>
</trkpt>
<trkpt lat="20.961008" lon="107.060226">
<ele>31.956802</ele>
<time>2011-04-30T03:16:40Z</time>
<desc>lat.=20.961008, lon.=107.060226, Alt.=31.956802m. Speed=1.620000m/h.</desc>
<speed>0.450000</speed>
</trkpt>
<trkpt lat="20.960964" lon="107.060242">
<ele>30.819107</ele>
<time>2011-04-30T03:16:45Z</time>
<desc>lat.=20.960964, lon.=107.060242, Alt.=30.819107m. Speed=2.988000m/h.</desc>
<speed>0.830000</speed>
</trkpt>
<trkpt lat="20.960934" lon="107.060287">
<ele>27.967056</ele>
<time>2011-04-30T03:16:50Z</time>
<desc>lat.=20.960934, lon.=107.060287, Alt.=27.967056m. Speed=3.528000m/h.</desc>
<speed>0.980000</speed>
</trkpt>
<trkpt lat="20.960894" lon="107.060341">
<ele>27.673111</ele>
<time>2011-04-30T03:16:55Z</time>
<desc>lat.=20.960894, lon.=107.060341, Alt.=27.673111m. Speed=3.420000m/h.</desc>
<speed>0.950000</speed>
</trkpt>
<trkpt lat="20.960831" lon="107.060364">
<ele>28.337173</ele>
<time>2011-04-30T03:17:00Z</time>
<desc>lat.=20.960831, lon.=107.060364, Alt.=28.337173m. Speed=2.340000m/h.</desc>
<speed>0.650000</speed>
</trkpt>
<trkpt lat="20.960829" lon="107.060440">
<ele>28.123306</ele>
<time>2011-04-30T03:17:05Z</time>
<desc>lat.=20.960829, lon.=107.060440, Alt.=28.123306m. Speed=3.852000m/h.</desc>
<speed>1.070000</speed>
</trkpt>
<trkpt lat="20.960878" lon="107.060532">
<ele>28.066666</ele>
<time>2011-04-30T03:17:10Z</time>
<desc>lat.=20.960878, lon.=107.060532, Alt.=28.066666m. Speed=2.376000m/h.</desc>
<speed>0.660000</speed>
</trkpt>
<trkpt lat="20.960913" lon="107.060600">
<ele>28.089615</ele>
<time>2011-04-30T03:17:15Z</time>
<desc>lat.=20.960913, lon.=107.060600, Alt.=28.089615m. Speed=5.256000m/h.</desc>
<speed>1.460000</speed>
</trkpt>
<trkpt lat="20.960917" lon="107.060692">
<ele>28.302994</ele>
<time>2011-04-30T03:17:20Z</time>
<desc>lat.=20.960917, lon.=107.060692, Alt.=28.302994m. Speed=3.420000m/h.</desc>
<speed>0.950000</speed>
</trkpt>
<trkpt lat="20.960918" lon="107.060760">
<ele>30.106216</ele>
<time>2011-04-30T03:17:25Z</time>
<desc>lat.=20.960918, lon.=107.060760, Alt.=30.106216m. Speed=4.932000m/h.</desc>
<speed>1.370000</speed>
</trkpt>
<trkpt lat="20.960876" lon="107.060829">
<ele>29.948502</ele>
<time>2011-04-30T03:17:30Z</time>
<desc>lat.=20.960876, lon.=107.060829, Alt.=29.948502m. Speed=4.752000m/h.</desc>
<speed>1.320000</speed>
</trkpt>
<trkpt lat="20.960865" lon="107.060890">
<ele>31.277115</ele>
<time>2011-04-30T03:17:35Z</time>
<desc>lat.=20.960865, lon.=107.060890, Alt.=31.277115m. Speed=4.248000m/h.</desc>
<speed>1.180000</speed>
</trkpt>
<trkpt lat="20.960867" lon="107.060936">
<ele>31.524673</ele>
<time>2011-04-30T03:17:40Z</time>
<desc>lat.=20.960867, lon.=107.060936, Alt.=31.524673m. Speed=1.584000m/h.</desc>
<speed>0.440000</speed>
</trkpt>
<trkpt lat="20.960804" lon="107.060989">
<ele>30.522720</ele>
<time>2011-04-30T03:17:45Z</time>
<desc>lat.=20.960804, lon.=107.060989, Alt.=30.522720m. Speed=5.724000m/h.</desc>
<speed>1.590000</speed>
</trkpt>
<trkpt lat="20.960718" lon="107.061043">
<ele>31.249771</ele>
<time>2011-04-30T03:17:50Z</time>
<desc>lat.=20.960718, lon.=107.061043, Alt.=31.249771m. Speed=4.824000m/h.</desc>
<speed>1.340000</speed>
</trkpt>
<trkpt lat="20.960680" lon="107.061089">
<ele>30.716080</ele>
<time>2011-04-30T03:17:55Z</time>
<desc>lat.=20.960680, lon.=107.061089, Alt.=30.716080m. Speed=5.220000m/h.</desc>
<speed>1.450000</speed>
</trkpt>
<trkpt lat="20.960651" lon="107.061119">
<ele>27.916275</ele>
<time>2011-04-30T03:18:00Z</time>
<desc>lat.=20.960651, lon.=107.061119, Alt.=27.916275m. Speed=3.384000m/h.</desc>
<speed>0.940000</speed>
</trkpt>
<trkpt lat="20.960627" lon="107.061172">
<ele>27.253189</ele>
<time>2011-04-30T03:18:05Z</time>
<desc>lat.=20.960627, lon.=107.061172, Alt.=27.253189m. Speed=3.132000m/h.</desc>
<speed>0.870000</speed>
</trkpt>
<trkpt lat="20.960617" lon="107.061241">
<ele>27.713150</ele>
<time>2011-04-30T03:18:10Z</time>
<desc>lat.=20.960617, lon.=107.061241, Alt.=27.713150m. Speed=5.004000m/h.</desc>
<speed>1.390000</speed>
</trkpt>
<trkpt lat="20.960613" lon="107.061310">
<ele>28.435806</ele>
<time>2011-04-30T03:18:15Z</time>
<desc>lat.=20.960613, lon.=107.061310, Alt.=28.435806m. Speed=4.536000m/h.</desc>
<speed>1.260000</speed>
</trkpt>
<trkpt lat="20.960602" lon="107.061378">
<ele>27.328384</ele>
<time>2011-04-30T03:18:20Z</time>
<desc>lat.=20.960602, lon.=107.061378, Alt.=27.328384m. Speed=2.628000m/h.</desc>
<speed>0.730000</speed>
</trkpt>
<trkpt lat="20.960579" lon="107.061478">
<ele>25.375259</ele>
<time>2011-04-30T03:18:25Z</time>
<desc>lat.=20.960579, lon.=107.061478, Alt.=25.375259m. Speed=5.004000m/h.</desc>
<speed>1.390000</speed>
</trkpt>
<trkpt lat="20.960573" lon="107.061562">
<ele>24.275162</ele>
<time>2011-04-30T03:18:30Z</time>
<desc>lat.=20.960573, lon.=107.061562, Alt.=24.275162m. Speed=5.508000m/h.</desc>
<speed>1.530000</speed>
</trkpt>
<trkpt lat="20.960581" lon="107.061653">
<ele>23.258560</ele>
<time>2011-04-30T03:18:35Z</time>
<desc>lat.=20.960581, lon.=107.061653, Alt.=23.258560m. Speed=4.572000m/h.</desc>
<speed>1.270000</speed>
</trkpt>
<trkpt lat="20.960606" lon="107.061714">
<ele>22.033951</ele>
<time>2011-04-30T03:18:40Z</time>
<desc>lat.=20.960606, lon.=107.061714, Alt.=22.033951m. Speed=3.420000m/h.</desc>
<speed>0.950000</speed>
</trkpt>
<trkpt lat="20.960625" lon="107.061752">
<ele>23.702896</ele>
<time>2011-04-30T03:18:45Z</time>
<desc>lat.=20.960625, lon.=107.061752, Alt.=23.702896m. Speed=2.484000m/h.</desc>
<speed>0.690000</speed>
</trkpt>
<trkpt lat="20.960661" lon="107.061790">
<ele>24.050064</ele>
<time>2011-04-30T03:18:50Z</time>
<desc>lat.=20.960661, lon.=107.061790, Alt.=24.050064m. Speed=3.384000m/h.</desc>
<speed>0.940000</speed>
</trkpt>
<trkpt lat="20.960703" lon="107.061859">
<ele>26.907974</ele>
<time>2011-04-30T03:18:55Z</time>
<desc>lat.=20.960703, lon.=107.061859, Alt.=26.907974m. Speed=4.284000m/h.</desc>
<speed>1.190000</speed>
</trkpt>
<trkpt lat="20.960724" lon="107.061928">
<ele>28.304947</ele>
<time>2011-04-30T03:19:00Z</time>
<desc>lat.=20.960724, lon.=107.061928, Alt.=28.304947m. Speed=3.204000m/h.</desc>
<speed>0.890000</speed>
</trkpt>
<trkpt lat="20.960741" lon="107.061996">
<ele>31.281021</ele>
<time>2011-04-30T03:19:05Z</time>
<desc>lat.=20.960741, lon.=107.061996, Alt.=31.281021m. Speed=2.412000m/h.</desc>
<speed>0.670000</speed>
</trkpt>
<trkpt lat="20.960764" lon="107.062012">
<ele>32.920441</ele>
<time>2011-04-30T03:19:10Z</time>
<desc>lat.=20.960764, lon.=107.062012, Alt.=32.920441m. Speed=4.428000m/h.</desc>
<speed>1.230000</speed>
</trkpt>
<trkpt lat="20.960768" lon="107.062057">
<ele>35.584503</ele>
<time>2011-04-30T03:19:15Z</time>
<desc>lat.=20.960768, lon.=107.062057, Alt.=35.584503m. Speed=2.520000m/h.</desc>
<speed>0.700000</speed>
</trkpt>
<trkpt lat="20.960798" lon="107.062057">
<ele>37.716339</ele>
<time>2011-04-30T03:19:20Z</time>
<desc>lat.=20.960798, lon.=107.062057, Alt.=37.716339m. Speed=2.052000m/h.</desc>
<speed>0.570000</speed>
</trkpt>
<trkpt lat="20.960819" lon="107.062073">
<ele>40.612823</ele>
<time>2011-04-30T03:19:25Z</time>
<desc>lat.=20.960819, lon.=107.062073, Alt.=40.612823m. Speed=2.160000m/h.</desc>
<speed>0.600000</speed>
</trkpt>
<trkpt lat="20.960863" lon="107.062149">
<ele>43.094269</ele>
<time>2011-04-30T03:19:30Z</time>
<desc>lat.=20.960863, lon.=107.062149, Alt.=43.094269m. Speed=2.196000m/h.</desc>
<speed>0.610000</speed>
</trkpt>
<trkpt lat="20.960848" lon="107.062202">
<ele>45.132355</ele>
<time>2011-04-30T03:19:35Z</time>
<desc>lat.=20.960848, lon.=107.062202, Alt.=45.132355m. Speed=2.844000m/h.</desc>
<speed>0.790000</speed>
</trkpt>
<trkpt lat="20.960884" lon="107.062279">
<ele>46.730988</ele>
<time>2011-04-30T03:19:40Z</time>
<desc>lat.=20.960884, lon.=107.062279, Alt.=46.730988m. Speed=3.672000m/h.</desc>
<speed>1.020000</speed>
</trkpt>
<trkpt lat="20.960928" lon="107.062363">
<ele>47.916534</ele>
<time>2011-04-30T03:19:45Z</time>
<desc>lat.=20.960928, lon.=107.062363, Alt.=47.916534m. Speed=3.744000m/h.</desc>
<speed>1.040000</speed>
</trkpt>
<trkpt lat="20.960924" lon="107.062439">
<ele>49.357941</ele>
<time>2011-04-30T03:19:50Z</time>
<desc>lat.=20.960924, lon.=107.062439, Alt.=49.357941m. Speed=2.700000m/h.</desc>
<speed>0.750000</speed>
</trkpt>
<trkpt lat="20.960951" lon="107.062561">
<ele>49.642120</ele>
<time>2011-04-30T03:19:55Z</time>
<desc>lat.=20.960951, lon.=107.062561, Alt.=49.642120m. Speed=3.384000m/h.</desc>
<speed>0.940000</speed>
</trkpt>
<trkpt lat="20.960976" lon="107.062660">
<ele>51.191925</ele>
<time>2011-04-30T03:20:00Z</time>
<desc>lat.=20.960976, lon.=107.062660, Alt.=51.191925m. Speed=3.852000m/h.</desc>
<speed>1.070000</speed>
</trkpt>
<trkpt lat="20.960976" lon="107.062714">
<ele>52.300323</ele>
<time>2011-04-30T03:20:05Z</time>
<desc>lat.=20.960976, lon.=107.062714, Alt.=52.300323m. Speed=5.652000m/h.</desc>
<speed>1.570000</speed>
</trkpt>
<trkpt lat="20.960981" lon="107.062782">
<ele>52.164581</ele>
<time>2011-04-30T03:20:10Z</time>
<desc>lat.=20.960981, lon.=107.062782, Alt.=52.164581m. Speed=5.508000m/h.</desc>
<speed>1.530000</speed>
</trkpt>
<trkpt lat="20.960972" lon="107.062820">
<ele>53.241730</ele>
<time>2011-04-30T03:20:15Z</time>
<desc>lat.=20.960972, lon.=107.062820, Alt.=53.241730m. Speed=4.284000m/h.</desc>
<speed>1.190000</speed>
</trkpt>
<trkpt lat="20.960926" lon="107.062904">
<ele>50.654816</ele>
<time>2011-04-30T03:20:20Z</time>
<desc>lat.=20.960926, lon.=107.062904, Alt.=50.654816m. Speed=4.860000m/h.</desc>
<speed>1.350000</speed>
</trkpt>
<trkpt lat="20.961016" lon="107.063011">
<ele>49.090363</ele>
<time>2011-04-30T03:20:25Z</time>
<desc>lat.=20.961016, lon.=107.063011, Alt.=49.090363m. Speed=4.320000m/h.</desc>
<speed>1.200000</speed>
</trkpt>
<trkpt lat="20.961065" lon="107.063110">
<ele>47.597198</ele>
<time>2011-04-30T03:20:30Z</time>
<desc>lat.=20.961065, lon.=107.063110, Alt.=47.597198m. Speed=4.572000m/h.</desc>
<speed>1.270000</speed>
</trkpt>
<trkpt lat="20.961023" lon="107.063210">
<ele>40.833527</ele>
<time>2011-04-30T03:20:35Z</time>
<desc>lat.=20.961023, lon.=107.063210, Alt.=40.833527m. Speed=4.536000m/h.</desc>
<speed>1.260000</speed>
</trkpt>
<trkpt lat="20.961004" lon="107.063293">
<ele>35.194855</ele>
<time>2011-04-30T03:20:40Z</time>
<desc>lat.=20.961004, lon.=107.063293, Alt.=35.194855m. Speed=3.960000m/h.</desc>
<speed>1.100000</speed>
</trkpt>
<trkpt lat="20.960962" lon="107.063370">
<ele>31.358170</ele>
<time>2011-04-30T03:20:45Z</time>
<desc>lat.=20.960962, lon.=107.063370, Alt.=31.358170m. Speed=4.464000m/h.</desc>
<speed>1.240000</speed>
</trkpt>
<trkpt lat="20.960903" lon="107.063423">
<ele>29.281998</ele>
<time>2011-04-30T03:20:50Z</time>
<desc>lat.=20.960903, lon.=107.063423, Alt.=29.281998m. Speed=3.312000m/h.</desc>
<speed>0.920000</speed>
</trkpt>
<trkpt lat="20.960842" lon="107.063469">
<ele>25.204849</ele>
<time>2011-04-30T03:20:55Z</time>
<desc>lat.=20.960842, lon.=107.063469, Alt.=25.204849m. Speed=2.484000m/h.</desc>
<speed>0.690000</speed>
</trkpt>
<trkpt lat="20.960752" lon="107.063507">
<ele>20.395767</ele>
<time>2011-04-30T03:21:00Z</time>
<desc>lat.=20.960752, lon.=107.063507, Alt.=20.395767m. Speed=2.700000m/h.</desc>
<speed>0.750000</speed>
</trkpt>
<trkpt lat="20.960686" lon="107.063545">
<ele>17.719009</ele>
<time>2011-04-30T03:21:05Z</time>
<desc>lat.=20.960686, lon.=107.063545, Alt.=17.719009m. Speed=2.052000m/h.</desc>
<speed>0.570000</speed>
</trkpt>
<trkpt lat="20.960630" lon="107.063560">
<ele>15.921272</ele>
<time>2011-04-30T03:21:10Z</time>
<desc>lat.=20.960630, lon.=107.063560, Alt.=15.921272m. Speed=3.456000m/h.</desc>
<speed>0.960000</speed>
</trkpt>
<trkpt lat="20.960567" lon="107.063538">
<ele>13.518929</ele>
<time>2011-04-30T03:21:15Z</time>
<desc>lat.=20.960567, lon.=107.063538, Alt.=13.518929m. Speed=4.716000m/h.</desc>
<speed>1.310000</speed>
</trkpt>
<trkpt lat="20.960503" lon="107.063492">
<ele>11.597786</ele>
<time>2011-04-30T03:21:20Z</time>
<desc>lat.=20.960503, lon.=107.063492, Alt.=11.597786m. Speed=4.716000m/h.</desc>
<speed>1.310000</speed>
</trkpt>
<trkpt lat="20.960461" lon="107.063454">
<ele>10.288704</ele>
<time>2011-04-30T03:21:25Z</time>
<desc>lat.=20.960461, lon.=107.063454, Alt.=10.288704m. Speed=4.824000m/h.</desc>
<speed>1.340000</speed>
</trkpt>
<trkpt lat="20.960428" lon="107.063423">
<ele>9.979378</ele>
<time>2011-04-30T03:21:30Z</time>
<desc>lat.=20.960428, lon.=107.063423, Alt.=9.979378m. Speed=4.356000m/h.</desc>
<speed>1.210000</speed>
</trkpt>
<trkpt lat="20.960421" lon="107.063354">
<ele>9.565071</ele>
<time>2011-04-30T03:21:35Z</time>
<desc>lat.=20.960421, lon.=107.063354, Alt.=9.565071m. Speed=4.356000m/h.</desc>
<speed>1.210000</speed>
</trkpt>
<trkpt lat="20.960394" lon="107.063278">
<ele>8.362190</ele>
<time>2011-04-30T03:21:40Z</time>
<desc>lat.=20.960394, lon.=107.063278, Alt.=8.362190m. Speed=4.644000m/h.</desc>
<speed>1.290000</speed>
</trkpt>
<trkpt lat="20.960392" lon="107.063217">
<ele>8.307991</ele>
<time>2011-04-30T03:21:45Z</time>
<desc>lat.=20.960392, lon.=107.063217, Alt.=8.307991m. Speed=7.272000m/h.</desc>
<speed>2.020000</speed>
</trkpt>
<trkpt lat="20.960409" lon="107.063179">
<ele>8.536995</ele>
<time>2011-04-30T03:21:50Z</time>
<desc>lat.=20.960409, lon.=107.063179, Alt.=8.536995m. Speed=3.636000m/h.</desc>
<speed>1.010000</speed>
</trkpt>
<trkpt lat="20.960392" lon="107.063118">
<ele>8.308723</ele>
<time>2011-04-30T03:21:55Z</time>
<desc>lat.=20.960392, lon.=107.063118, Alt.=8.308723m. Speed=3.492000m/h.</desc>
<speed>0.970000</speed>
</trkpt>
<trkpt lat="20.960379" lon="107.063026">
<ele>8.012093</ele>
<time>2011-04-30T03:22:00Z</time>
<desc>lat.=20.960379, lon.=107.063026, Alt.=8.012093m. Speed=2.304000m/h.</desc>
<speed>0.640000</speed>
</trkpt>
<trkpt lat="20.960373" lon="107.062988">
<ele>8.568489</ele>
<time>2011-04-30T03:22:05Z</time>
<desc>lat.=20.960373, lon.=107.062988, Alt.=8.568489m. Speed=0.684000m/h.</desc>
<speed>0.190000</speed>
</trkpt>
<trkpt lat="20.960354" lon="107.062927">
<ele>8.752083</ele>
<time>2011-04-30T03:22:10Z</time>
<desc>lat.=20.960354, lon.=107.062927, Alt.=8.752083m. Speed=4.788000m/h.</desc>
<speed>1.330000</speed>
</trkpt>
<trkpt lat="20.960310" lon="107.062874">
<ele>9.618782</ele>
<time>2011-04-30T03:22:15Z</time>
<desc>lat.=20.960310, lon.=107.062874, Alt.=9.618782m. Speed=2.592000m/h.</desc>
<speed>0.720000</speed>
</trkpt>
<trkpt lat="20.960257" lon="107.062843">
<ele>10.497200</ele>
<time>2011-04-30T03:22:20Z</time>
<desc>lat.=20.960257, lon.=107.062843, Alt.=10.497200m. Speed=5.220000m/h.</desc>
<speed>1.450000</speed>
</trkpt>
<trkpt lat="20.960188" lon="107.062775">
<ele>10.277962</ele>
<time>2011-04-30T03:22:25Z</time>
<desc>lat.=20.960188, lon.=107.062775, Alt.=10.277962m. Speed=5.544000m/h.</desc>
<speed>1.540000</speed>
</trkpt>
<trkpt lat="20.960163" lon="107.062706">
<ele>10.357796</ele>
<time>2011-04-30T03:22:30Z</time>
<desc>lat.=20.960163, lon.=107.062706, Alt.=10.357796m. Speed=5.364000m/h.</desc>
<speed>1.490000</speed>
</trkpt>
<trkpt lat="20.960161" lon="107.062645">
<ele>9.545296</ele>
<time>2011-04-30T03:22:35Z</time>
<desc>lat.=20.960161, lon.=107.062645, Alt.=9.545296m. Speed=5.040000m/h.</desc>
<speed>1.400000</speed>
</trkpt>
<trkpt lat="20.960155" lon="107.062576">
<ele>9.038948</ele>
<time>2011-04-30T03:22:40Z</time>
<desc>lat.=20.960155, lon.=107.062576, Alt.=9.038948m. Speed=4.860000m/h.</desc>
<speed>1.350000</speed>
</trkpt>
<trkpt lat="20.960159" lon="107.062523">
<ele>7.352238</ele>
<time>2011-04-30T03:22:45Z</time>
<desc>lat.=20.960159, lon.=107.062523, Alt.=7.352238m. Speed=4.752000m/h.</desc>
<speed>1.320000</speed>
</trkpt>
<trkpt lat="20.960123" lon="107.062462">
<ele>5.789249</ele>
<time>2011-04-30T03:22:50Z</time>
<desc>lat.=20.960123, lon.=107.062462, Alt.=5.789249m. Speed=5.184000m/h.</desc>
<speed>1.440000</speed>
</trkpt>
<trkpt lat="20.960114" lon="107.062408">
<ele>5.958317</ele>
<time>2011-04-30T03:22:55Z</time>
<desc>lat.=20.960114, lon.=107.062408, Alt.=5.958317m. Speed=6.048000m/h.</desc>
<speed>1.680000</speed>
</trkpt>
<trkpt lat="20.960106" lon="107.062332">
<ele>5.583195</ele>
<time>2011-04-30T03:23:00Z</time>
<desc>lat.=20.960106, lon.=107.062332, Alt.=5.583195m. Speed=5.220000m/h.</desc>
<speed>1.450000</speed>
</trkpt>
<trkpt lat="20.960098" lon="107.062271">
<ele>4.890568</ele>
<time>2011-04-30T03:23:05Z</time>
<desc>lat.=20.960098, lon.=107.062271, Alt.=4.890568m. Speed=4.968000m/h.</desc>
<speed>1.380000</speed>
</trkpt>
<trkpt lat="20.960098" lon="107.062210">
<ele>3.765718</ele>
<time>2011-04-30T03:23:10Z</time>
<desc>lat.=20.960098, lon.=107.062210, Alt.=3.765718m. Speed=4.608000m/h.</desc>
<speed>1.280000</speed>
</trkpt>
<trkpt lat="20.960077" lon="107.062149">
<ele>1.986131</ele>
<time>2011-04-30T03:23:15Z</time>
<desc>lat.=20.960077, lon.=107.062149, Alt.=1.986131m. Speed=4.860000m/h.</desc>
<speed>1.350000</speed>
</trkpt>
<trkpt lat="20.960066" lon="107.062080">
<ele>1.743119</ele>
<time>2011-04-30T03:23:20Z</time>
<desc>lat.=20.960066, lon.=107.062080, Alt.=1.743119m. Speed=4.716000m/h.</desc>
<speed>1.310000</speed>
</trkpt>
<trkpt lat="20.960045" lon="107.062012">
<ele>0.673363</ele>
<time>2011-04-30T03:23:25Z</time>
<desc>lat.=20.960045, lon.=107.062012, Alt.=0.673363m. Speed=4.716000m/h.</desc>
<speed>1.310000</speed>
</trkpt>
<trkpt lat="20.960043" lon="107.061943">
<ele>-0.310253</ele>
<time>2011-04-30T03:23:30Z</time>
<desc>lat.=20.960043, lon.=107.061943, Alt.=-0.310253m. Speed=4.788000m/h.</desc>
<speed>1.330000</speed>
</trkpt>
<trkpt lat="20.960032" lon="107.061882">
<ele>-0.984826</ele>
<time>2011-04-30T03:23:35Z</time>
<desc>lat.=20.960032, lon.=107.061882, Alt.=-0.984826m. Speed=4.572000m/h.</desc>
<speed>1.270000</speed>
</trkpt>
<trkpt lat="20.960014" lon="107.061813">
<ele>-0.761757</ele>
<time>2011-04-30T03:23:40Z</time>
<desc>lat.=20.960014, lon.=107.061813, Alt.=-0.761757m. Speed=4.608000m/h.</desc>
<speed>1.280000</speed>
</trkpt>
<trkpt lat="20.959997" lon="107.061768">
<ele>-1.178147</ele>
<time>2011-04-30T03:23:45Z</time>
<desc>lat.=20.959997, lon.=107.061768, Alt.=-1.178147m. Speed=2.592000m/h.</desc>
<speed>0.720000</speed>
</trkpt>
<trkpt lat="20.959988" lon="107.061714">
<ele>-0.745232</ele>
<time>2011-04-30T03:23:50Z</time>
<desc>lat.=20.959988, lon.=107.061714, Alt.=-0.745232m. Speed=5.904000m/h.</desc>
<speed>1.640000</speed>
</trkpt>
<trkpt lat="20.959953" lon="107.061668">
<ele>-1.123704</ele>
<time>2011-04-30T03:23:55Z</time>
<desc>lat.=20.959953, lon.=107.061668, Alt.=-1.123704m. Speed=4.392000m/h.</desc>
<speed>1.220000</speed>
</trkpt>
<trkpt lat="20.959904" lon="107.061668">
<ele>-0.729790</ele>
<time>2011-04-30T03:24:00Z</time>
<desc>lat.=20.959904, lon.=107.061668, Alt.=-0.729790m. Speed=3.600000m/h.</desc>
<speed>1.000000</speed>
</trkpt>
<trkpt lat="20.959858" lon="107.061668">
<ele>-0.512230</ele>
<time>2011-04-30T03:24:05Z</time>
<desc>lat.=20.959858, lon.=107.061668, Alt.=-0.512230m. Speed=0.972000m/h.</desc>
<speed>0.270000</speed>
</trkpt>
<trkpt lat="20.959806" lon="107.061676">
<ele>0.797005</ele>
<time>2011-04-30T03:24:10Z</time>
<desc>lat.=20.959806, lon.=107.061676, Alt.=0.797005m. Speed=4.680000m/h.</desc>
<speed>1.300000</speed>
</trkpt>
<trkpt lat="20.959770" lon="107.061707">
<ele>2.210421</ele>
<time>2011-04-30T03:24:15Z</time>
<desc>lat.=20.959770, lon.=107.061707, Alt.=2.210421m. Speed=3.780000m/h.</desc>
<speed>1.050000</speed>
</trkpt>
<trkpt lat="20.959707" lon="107.061691">
<ele>0.874093</ele>
<time>2011-04-30T03:24:20Z</time>
<desc>lat.=20.959707, lon.=107.061691, Alt.=0.874093m. Speed=4.896000m/h.</desc>
<speed>1.360000</speed>
</trkpt>
<trkpt lat="20.959675" lon="107.061646">
<ele>0.349980</ele>
<time>2011-04-30T03:24:25Z</time>
<desc>lat.=20.959675, lon.=107.061646, Alt.=0.349980m. Speed=4.032000m/h.</desc>
<speed>1.120000</speed>
</trkpt>
<trkpt lat="20.959652" lon="107.061592">
<ele>-0.257183</ele>
<time>2011-04-30T03:24:30Z</time>
<desc>lat.=20.959652, lon.=107.061592, Alt.=-0.257183m. Speed=3.600000m/h.</desc>
<speed>1.000000</speed>
</trkpt>
<trkpt lat="20.959633" lon="107.061546">
<ele>-0.796517</ele>
<time>2011-04-30T03:24:35Z</time>
<desc>lat.=20.959633, lon.=107.061546, Alt.=-0.796517m. Speed=4.464000m/h.</desc>
<speed>1.240000</speed>
</trkpt>
<trkpt lat="20.959616" lon="107.061493">
<ele>-1.075364</ele>
<time>2011-04-30T03:24:40Z</time>
<desc>lat.=20.959616, lon.=107.061493, Alt.=-1.075364m. Speed=4.680000m/h.</desc>
<speed>1.300000</speed>
</trkpt>
<trkpt lat="20.959597" lon="107.061440">
<ele>-1.874864</ele>
<time>2011-04-30T03:24:45Z</time>
<desc>lat.=20.959597, lon.=107.061440, Alt.=-1.874864m. Speed=2.016000m/h.</desc>
<speed>0.560000</speed>
</trkpt>
<trkpt lat="20.959583" lon="107.061432">
<ele>-1.021256</ele>
<time>2011-04-30T03:24:50Z</time>
<desc>lat.=20.959583, lon.=107.061432, Alt.=-1.021256m. Speed=0.144000m/h.</desc>
<speed>0.040000</speed>
</trkpt>
<trkpt lat="20.959579" lon="107.061440">
<ele>-1.029954</ele>
<time>2011-04-30T03:24:55Z</time>
<desc>lat.=20.959579, lon.=107.061440, Alt.=-1.029954m. Speed=0.828000m/h.</desc>
<speed>0.230000</speed>
</trkpt>
<trkpt lat="20.959576" lon="107.061440">
<ele>-1.017442</ele>
<time>2011-04-30T03:25:00Z</time>
<desc>lat.=20.959576, lon.=107.061440, Alt.=-1.017442m. Speed=0.432000m/h.</desc>
<speed>0.120000</speed>
</trkpt>
<trkpt lat="20.959572" lon="107.061440">
<ele>-1.019242</ele>
<time>2011-04-30T03:25:05Z</time>
<desc>lat.=20.959572, lon.=107.061440, Alt.=-1.019242m. Speed=0.036000m/h.</desc>
<speed>0.010000</speed>
</trkpt>
<trkpt lat="20.959574" lon="107.061440">
<ele>-1.035722</ele>
<time>2011-04-30T03:25:10Z</time>
<desc>lat.=20.959574, lon.=107.061440, Alt.=-1.035722m. Speed=1.044000m/h.</desc>
<speed>0.290000</speed>
</trkpt>
<trkpt lat="20.959578" lon="107.061440">
<ele>-1.078019</ele>
<time>2011-04-30T03:25:15Z</time>
<desc>lat.=20.959578, lon.=107.061440, Alt.=-1.078019m. Speed=1.296000m/h.</desc>
<speed>0.360000</speed>
</trkpt>
<trkpt lat="20.959587" lon="107.061455">
<ele>-1.269944</ele>
<time>2011-04-30T03:25:20Z</time>
<desc>lat.=20.959587, lon.=107.061455, Alt.=-1.269944m. Speed=0.648000m/h.</desc>
<speed>0.180000</speed>
</trkpt>
<trkpt lat="20.959589" lon="107.061455">
<ele>-1.273576</ele>
<time>2011-04-30T03:25:25Z</time>
<desc>lat.=20.959589, lon.=107.061455, Alt.=-1.273576m. Speed=0.288000m/h.</desc>
<speed>0.080000</speed>
</trkpt>
<trkpt lat="20.959585" lon="107.061455">
<ele>-1.344407</ele>
<time>2011-04-30T03:25:30Z</time>
<desc>lat.=20.959585, lon.=107.061455, Alt.=-1.344407m. Speed=0.360000m/h.</desc>
<speed>0.100000</speed>
</trkpt>
<trkpt lat="20.959579" lon="107.061447">
<ele>-1.307054</ele>
<time>2011-04-30T03:25:35Z</time>
<desc>lat.=20.959579, lon.=107.061447, Alt.=-1.307054m. Speed=2.232000m/h.</desc>
<speed>0.620000</speed>
</trkpt>
<trkpt lat="20.959618" lon="107.061409">
<ele>-1.496049</ele>
<time>2011-04-30T03:25:40Z</time>
<desc>lat.=20.959618, lon.=107.061409, Alt.=-1.496049m. Speed=3.348000m/h.</desc>
<speed>0.930000</speed>
</trkpt>
<trkpt lat="20.959623" lon="107.061363">
<ele>-1.333940</ele>
<time>2011-04-30T03:25:45Z</time>
<desc>lat.=20.959623, lon.=107.061363, Alt.=-1.333940m. Speed=3.204000m/h.</desc>
<speed>0.890000</speed>
</trkpt>
<trkpt lat="20.959604" lon="107.061325">
<ele>-1.443131</ele>
<time>2011-04-30T03:25:50Z</time>
<desc>lat.=20.959604, lon.=107.061325, Alt.=-1.443131m. Speed=4.068000m/h.</desc>
<speed>1.130000</speed>
</trkpt>
<trkpt lat="20.959547" lon="107.061310">
<ele>-1.817979</ele>
<time>2011-04-30T03:25:55Z</time>
<desc>lat.=20.959547, lon.=107.061310, Alt.=-1.817979m. Speed=3.960000m/h.</desc>
<speed>1.100000</speed>
</trkpt>
<trkpt lat="20.959513" lon="107.061287">
<ele>-2.442171</ele>
<time>2011-04-30T03:26:00Z</time>
<desc>lat.=20.959513, lon.=107.061287, Alt.=-2.442171m. Speed=3.348000m/h.</desc>
<speed>0.930000</speed>
</trkpt>
<trkpt lat="20.959496" lon="107.061234">
<ele>-3.592928</ele>
<time>2011-04-30T03:26:05Z</time>
<desc>lat.=20.959496, lon.=107.061234, Alt.=-3.592928m. Speed=4.140000m/h.</desc>
<speed>1.150000</speed>
</trkpt>
<trkpt lat="20.959465" lon="107.061180">
<ele>-3.073030</ele>
<time>2011-04-30T03:26:10Z</time>
<desc>lat.=20.959465, lon.=107.061180, Alt.=-3.073030m. Speed=4.176000m/h.</desc>
<speed>1.160000</speed>
</trkpt>
<trkpt lat="20.959452" lon="107.061134">
<ele>-2.572664</ele>
<time>2011-04-30T03:26:15Z</time>
<desc>lat.=20.959452, lon.=107.061134, Alt.=-2.572664m. Speed=2.664000m/h.</desc>
<speed>0.740000</speed>
</trkpt>
<trkpt lat="20.959431" lon="107.061089">
<ele>-2.743135</ele>
<time>2011-04-30T03:26:20Z</time>
<desc>lat.=20.959431, lon.=107.061089, Alt.=-2.743135m. Speed=4.212000m/h.</desc>
<speed>1.170000</speed>
</trkpt>
<trkpt lat="20.959402" lon="107.061050">
<ele>-3.367891</ele>
<time>2011-04-30T03:26:25Z</time>
<desc>lat.=20.959402, lon.=107.061050, Alt.=-3.367891m. Speed=3.708000m/h.</desc>
<speed>1.030000</speed>
</trkpt>
<trkpt lat="20.959383" lon="107.061012">
<ele>-3.049654</ele>
<time>2011-04-30T03:26:30Z</time>
<desc>lat.=20.959383, lon.=107.061012, Alt.=-3.049654m. Speed=4.104000m/h.</desc>
<speed>1.140000</speed>
</trkpt>
<trkpt lat="20.959349" lon="107.060966">
<ele>-3.555025</ele>
<time>2011-04-30T03:26:35Z</time>
<desc>lat.=20.959349, lon.=107.060966, Alt.=-3.555025m. Speed=3.780000m/h.</desc>
<speed>1.050000</speed>
</trkpt>
<trkpt lat="20.959322" lon="107.060928">
<ele>-3.387423</ele>
<time>2011-04-30T03:26:40Z</time>
<desc>lat.=20.959322, lon.=107.060928, Alt.=-3.387423m. Speed=3.600000m/h.</desc>
<speed>1.000000</speed>
</trkpt>
<trkpt lat="20.959301" lon="107.060890">
<ele>-3.347139</ele>
<time>2011-04-30T03:26:45Z</time>
<desc>lat.=20.959301, lon.=107.060890, Alt.=-3.347139m. Speed=3.348000m/h.</desc>
<speed>0.930000</speed>
</trkpt>
<trkpt lat="20.959274" lon="107.060844">
<ele>-3.486361</ele>
<time>2011-04-30T03:26:50Z</time>
<desc>lat.=20.959274, lon.=107.060844, Alt.=-3.486361m. Speed=3.996000m/h.</desc>
<speed>1.110000</speed>
</trkpt>
<trkpt lat="20.959236" lon="107.060806">
<ele>-3.647188</ele>
<time>2011-04-30T03:26:55Z</time>
<desc>lat.=20.959236, lon.=107.060806, Alt.=-3.647188m. Speed=3.564000m/h.</desc>
<speed>0.990000</speed>
</trkpt>
<trkpt lat="20.959213" lon="107.060768">
<ele>-3.319368</ele>
<time>2011-04-30T03:27:00Z</time>
<desc>lat.=20.959213, lon.=107.060768, Alt.=-3.319368m. Speed=2.196000m/h.</desc>
<speed>0.610000</speed>
</trkpt>
<trkpt lat="20.959209" lon="107.060776">
<ele>-3.322298</ele>
<time>2011-04-30T03:27:05Z</time>
<desc>lat.=20.959209, lon.=107.060776, Alt.=-3.322298m. Speed=0.324000m/h.</desc>
<speed>0.090000</speed>
</trkpt>
<trkpt lat="20.959215" lon="107.060776">
<ele>-3.139864</ele>
<time>2011-04-30T03:27:10Z</time>
<desc>lat.=20.959215, lon.=107.060776, Alt.=-3.139864m. Speed=0.720000m/h.</desc>
<speed>0.200000</speed>
</trkpt>
<trkpt lat="20.959223" lon="107.060799">
<ele>-3.046663</ele>
<time>2011-04-30T03:27:15Z</time>
<desc>lat.=20.959223, lon.=107.060799, Alt.=-3.046663m. Speed=1.476000m/h.</desc>
<speed>0.410000</speed>
</trkpt>
<trkpt lat="20.959225" lon="107.060799">
<ele>-2.940218</ele>
<time>2011-04-30T03:27:20Z</time>
<desc>lat.=20.959225, lon.=107.060799, Alt.=-2.940218m. Speed=0.108000m/h.</desc>
<speed>0.030000</speed>
</trkpt>
<trkpt lat="20.959230" lon="107.060799">
<ele>-2.834322</ele>
<time>2011-04-30T03:27:25Z</time>
<desc>lat.=20.959230, lon.=107.060799, Alt.=-2.834322m. Speed=0.252000m/h.</desc>
<speed>0.070000</speed>
</trkpt>
<trkpt lat="20.959230" lon="107.060799">
<ele>-2.867098</ele>
<time>2011-04-30T03:27:30Z</time>
<desc>lat.=20.959230, lon.=107.060799, Alt.=-2.867098m. Speed=0.180000m/h.</desc>
<speed>0.050000</speed>
</trkpt>
<trkpt lat="20.959230" lon="107.060806">
<ele>-2.890779</ele>
<time>2011-04-30T03:27:35Z</time>
<desc>lat.=20.959230, lon.=107.060806, Alt.=-2.890779m. Speed=0.036000m/h.</desc>
<speed>0.010000</speed>
</trkpt>
<trkpt lat="20.959229" lon="107.060799">
<ele>-2.723177</ele>
<time>2011-04-30T03:27:40Z</time>
<desc>lat.=20.959229, lon.=107.060799, Alt.=-2.723177m. Speed=0.000000m/h.</desc>
<speed>0.000000</speed>
</trkpt>
<trkpt lat="20.959234" lon="107.060799">
<ele>-2.845980</ele>
<time>2011-04-30T03:27:45Z</time>
<desc>lat.=20.959234, lon.=107.060799, Alt.=-2.845980m. Speed=0.072000m/h.</desc>
<speed>0.020000</speed>
</trkpt>
<trkpt lat="20.959234" lon="107.060799">
<ele>-2.851839</ele>
<time>2011-04-30T03:27:50Z</time>
<desc>lat.=20.959234, lon.=107.060799, Alt.=-2.851839m. Speed=0.036000m/h.</desc>
<speed>0.010000</speed>
</trkpt>
<trkpt lat="20.959234" lon="107.060799">
<ele>-2.848055</ele>
<time>2011-04-30T03:27:55Z</time>
<desc>lat.=20.959234, lon.=107.060799, Alt.=-2.848055m. Speed=4.104000m/h.</desc>
<speed>1.140000</speed>
</trkpt>
<trkpt lat="20.959198" lon="107.060745">
<ele>-3.098848</ele>
<time>2011-04-30T03:28:00Z</time>
<desc>lat.=20.959198, lon.=107.060745, Alt.=-3.098848m. Speed=3.924000m/h.</desc>
<speed>1.090000</speed>
</trkpt>
<trkpt lat="20.959185" lon="107.060684">
<ele>-3.475435</ele>
<time>2011-04-30T03:28:05Z</time>
<desc>lat.=20.959185, lon.=107.060684, Alt.=-3.475435m. Speed=4.140000m/h.</desc>
<speed>1.150000</speed>
</trkpt>
<trkpt lat="20.959150" lon="107.060646">
<ele>-3.609224</ele>
<time>2011-04-30T03:28:10Z</time>
<desc>lat.=20.959150, lon.=107.060646, Alt.=-3.609224m. Speed=4.500000m/h.</desc>
<speed>1.250000</speed>
</trkpt>
<trkpt lat="20.959103" lon="107.060631">
<ele>-3.396944</ele>
<time>2011-04-30T03:28:15Z</time>
<desc>lat.=20.959103, lon.=107.060631, Alt.=-3.396944m. Speed=4.320000m/h.</desc>
<speed>1.200000</speed>
</trkpt>
<trkpt lat="20.959053" lon="107.060631">
<ele>-3.949068</ele>
<time>2011-04-30T03:28:20Z</time>
<desc>lat.=20.959053, lon.=107.060631, Alt.=-3.949068m. Speed=2.196000m/h.</desc>
<speed>0.610000</speed>
</trkpt>
<trkpt lat="20.959009" lon="107.060593">
<ele>-2.729525</ele>
<time>2011-04-30T03:28:25Z</time>
<desc>lat.=20.959009, lon.=107.060593, Alt.=-2.729525m. Speed=4.032000m/h.</desc>
<speed>1.120000</speed>
</trkpt>
<trkpt lat="20.958998" lon="107.060570">
<ele>-3.036165</ele>
<time>2011-04-30T03:28:30Z</time>
<desc>lat.=20.958998, lon.=107.060570, Alt.=-3.036165m. Speed=3.060000m/h.</desc>
<speed>0.850000</speed>
</trkpt>
<trkpt lat="20.959023" lon="107.060547">
<ele>-2.855623</ele>
<time>2011-04-30T03:28:35Z</time>
<desc>lat.=20.959023, lon.=107.060547, Alt.=-2.855623m. Speed=3.132000m/h.</desc>
<speed>0.870000</speed>
</trkpt>
<trkpt lat="20.959055" lon="107.060509">
<ele>-2.733675</ele>
<time>2011-04-30T03:28:40Z</time>
<desc>lat.=20.959055, lon.=107.060509, Alt.=-2.733675m. Speed=4.032000m/h.</desc>
<speed>1.120000</speed>
</trkpt>
<trkpt lat="20.959064" lon="107.060448">
<ele>-2.893587</ele>
<time>2011-04-30T03:28:45Z</time>
<desc>lat.=20.959064, lon.=107.060448, Alt.=-2.893587m. Speed=4.464000m/h.</desc>
<speed>1.240000</speed>
</trkpt>
<trkpt lat="20.959038" lon="107.060387">
<ele>-2.591036</ele>
<time>2011-04-30T03:28:50Z</time>
<desc>lat.=20.959038, lon.=107.060387, Alt.=-2.591036m. Speed=4.788000m/h.</desc>
<speed>1.330000</speed>
</trkpt>
<trkpt lat="20.959000" lon="107.060333">
<ele>-2.123384</ele>
<time>2011-04-30T03:28:55Z</time>
<desc>lat.=20.959000, lon.=107.060333, Alt.=-2.123384m. Speed=3.168000m/h.</desc>
<speed>0.880000</speed>
</trkpt>
<trkpt lat="20.958986" lon="107.060318">
<ele>-2.440828</ele>
<time>2011-04-30T03:29:00Z</time>
<desc>lat.=20.958986, lon.=107.060318, Alt.=-2.440828m. Speed=3.420000m/h.</desc>
<speed>0.950000</speed>
</trkpt>
<trkpt lat="20.958927" lon="107.060280">
<ele>-2.077425</ele>
<time>2011-04-30T03:29:05Z</time>
<desc>lat.=20.958927, lon.=107.060280, Alt.=-2.077425m. Speed=4.896000m/h.</desc>
<speed>1.360000</speed>
</trkpt>
<trkpt lat="20.958887" lon="107.060242">
<ele>-1.914353</ele>
<time>2011-04-30T03:29:10Z</time>
<desc>lat.=20.958887, lon.=107.060242, Alt.=-1.914353m. Speed=4.644000m/h.</desc>
<speed>1.290000</speed>
</trkpt>
<trkpt lat="20.958849" lon="107.060196">
<ele>-1.765122</ele>
<time>2011-04-30T03:29:15Z</time>
<desc>lat.=20.958849, lon.=107.060196, Alt.=-1.765122m. Speed=4.752000m/h.</desc>
<speed>1.320000</speed>
</trkpt>
<trkpt lat="20.958817" lon="107.060150">
<ele>-1.479630</ele>
<time>2011-04-30T03:29:20Z</time>
<desc>lat.=20.958817, lon.=107.060150, Alt.=-1.479630m. Speed=4.572000m/h.</desc>
<speed>1.270000</speed>
</trkpt>
<trkpt lat="20.958775" lon="107.060097">
<ele>-1.451493</ele>
<time>2011-04-30T03:29:25Z</time>
<desc>lat.=20.958775, lon.=107.060097, Alt.=-1.451493m. Speed=5.112000m/h.</desc>
<speed>1.420000</speed>
</trkpt>
<trkpt lat="20.958763" lon="107.060043">
<ele>-0.741051</ele>
<time>2011-04-30T03:29:30Z</time>
<desc>lat.=20.958763, lon.=107.060043, Alt.=-0.741051m. Speed=4.176000m/h.</desc>
<speed>1.160000</speed>
</trkpt>
<trkpt lat="20.958748" lon="107.060005">
<ele>-0.417446</ele>
<time>2011-04-30T03:29:35Z</time>
<desc>lat.=20.958748, lon.=107.060005, Alt.=-0.417446m. Speed=3.420000m/h.</desc>
<speed>0.950000</speed>
</trkpt>
<trkpt lat="20.958742" lon="107.059967">
<ele>-0.087920</ele>
<time>2011-04-30T03:29:40Z</time>
<desc>lat.=20.958742, lon.=107.059967, Alt.=-0.087920m. Speed=4.536000m/h.</desc>
<speed>1.260000</speed>
</trkpt>
<trkpt lat="20.958731" lon="107.059929">
<ele>-0.648049</ele>
<time>2011-04-30T03:29:45Z</time>
<desc>lat.=20.958731, lon.=107.059929, Alt.=-0.648049m. Speed=2.340000m/h.</desc>
<speed>0.650000</speed>
</trkpt>
<trkpt lat="20.958683" lon="107.059921">
<ele>-0.521615</ele>
<time>2011-04-30T03:29:50Z</time>
<desc>lat.=20.958683, lon.=107.059921, Alt.=-0.521615m. Speed=2.664000m/h.</desc>
<speed>0.740000</speed>
</trkpt>
<trkpt lat="20.958662" lon="107.059906">
<ele>0.285015</ele>
<time>2011-04-30T03:29:55Z</time>
<desc>lat.=20.958662, lon.=107.059906, Alt.=0.285015m. Speed=0.504000m/h.</desc>
<speed>0.140000</speed>
</trkpt>
<trkpt lat="20.958658" lon="107.059906">
<ele>0.216433</ele>
<time>2011-04-30T03:30:00Z</time>
<desc>lat.=20.958658, lon.=107.059906, Alt.=0.216433m. Speed=0.072000m/h.</desc>
<speed>0.020000</speed>
</trkpt>
<trkpt lat="20.958654" lon="107.059898">
<ele>0.108148</ele>
<time>2011-04-30T03:30:05Z</time>
<desc>lat.=20.958654, lon.=107.059898, Alt.=0.108148m. Speed=0.792000m/h.</desc>
<speed>0.220000</speed>
</trkpt>
<trkpt lat="20.958649" lon="107.059898">
<ele>0.023953</ele>
<time>2011-04-30T03:30:10Z</time>
<desc>lat.=20.958649, lon.=107.059898, Alt.=0.023953m. Speed=0.216000m/h.</desc>
<speed>0.060000</speed>
</trkpt>
<trkpt lat="20.958649" lon="107.059898">
<ele>0.026733</ele>
<time>2011-04-30T03:30:15Z</time>
<desc>lat.=20.958649, lon.=107.059898, Alt.=0.026733m. Speed=0.036000m/h.</desc>
<speed>0.010000</speed>
</trkpt>
<trkpt lat="20.958649" lon="107.059898">
<ele>0.060462</ele>
<time>2011-04-30T03:30:20Z</time>
<desc>lat.=20.958649, lon.=107.059898, Alt.=0.060462m. Speed=0.180000m/h.</desc>
<speed>0.050000</speed>
</trkpt>
<trkpt lat="20.958649" lon="107.059898">
<ele>0.048785</ele>
<time>2011-04-30T03:30:25Z</time>
<desc>lat.=20.958649, lon.=107.059898, Alt.=0.048785m. Speed=0.108000m/h.</desc>
<speed>0.030000</speed>
</trkpt>
<trkpt lat="20.958649" lon="107.059898">
<ele>0.054584</ele>
<time>2011-04-30T03:30:30Z</time>
<desc>lat.=20.958649, lon.=107.059898, Alt.=0.054584m. Speed=0.036000m/h.</desc>
<speed>0.010000</speed>
</trkpt>
<trkpt lat="20.958649" lon="107.059898">
<ele>0.059648</ele>
<time>2011-04-30T03:30:35Z</time>
<desc>lat.=20.958649, lon.=107.059898, Alt.=0.059648m. Speed=0.036000m/h.</desc>
<speed>0.010000</speed>
</trkpt>
<trkpt lat="20.958649" lon="107.059898">
<ele>0.062966</ele>
<time>2011-04-30T03:30:40Z</time>
<desc>lat.=20.958649, lon.=107.059898, Alt.=0.062966m. Speed=0.000000m/h.</desc>
<speed>0.000000</speed>
</trkpt>
<trkpt lat="20.958647" lon="107.059898">
<ele>-0.014740</ele>
<time>2011-04-30T03:30:45Z</time>
<desc>lat.=20.958647, lon.=107.059898, Alt.=-0.014740m. Speed=0.000000m/h.</desc>
<speed>0.000000</speed>
</trkpt>
<trkpt lat="20.958628" lon="107.059860">
<ele>0.223589</ele>
<time>2011-04-30T03:30:50Z</time>
<desc>lat.=20.958628, lon.=107.059860, Alt.=0.223589m. Speed=4.068000m/h.</desc>
<speed>1.130000</speed>
</trkpt>
<trkpt lat="20.958612" lon="107.059807">
<ele>0.372540</ele>
<time>2011-04-30T03:30:55Z</time>
<desc>lat.=20.958612, lon.=107.059807, Alt.=0.372540m. Speed=4.932000m/h.</desc>
<speed>1.370000</speed>
</trkpt>
<trkpt lat="20.958580" lon="107.059731">
<ele>0.431011</ele>
<time>2011-04-30T03:31:00Z</time>
<desc>lat.=20.958580, lon.=107.059731, Alt.=0.431011m. Speed=5.220000m/h.</desc>
<speed>1.450000</speed>
</trkpt>
<trkpt lat="20.958553" lon="107.059692">
<ele>0.236178</ele>
<time>2011-04-30T03:31:05Z</time>
<desc>lat.=20.958553, lon.=107.059692, Alt.=0.236178m. Speed=1.296000m/h.</desc>
<speed>0.360000</speed>
</trkpt>
<trkpt lat="20.958511" lon="107.059647">
<ele>-0.054729</ele>
<time>2011-04-30T03:31:10Z</time>
<desc>lat.=20.958511, lon.=107.059647, Alt.=-0.054729m. Speed=5.220000m/h.</desc>
<speed>1.450000</speed>
</trkpt>
<trkpt lat="20.958467" lon="107.059601">
<ele>0.146464</ele>
<time>2011-04-30T03:31:15Z</time>
<desc>lat.=20.958467, lon.=107.059601, Alt.=0.146464m. Speed=5.292000m/h.</desc>
<speed>1.470000</speed>
</trkpt>
<trkpt lat="20.958408" lon="107.059563">
<ele>-0.135996</ele>
<time>2011-04-30T03:31:20Z</time>
<desc>lat.=20.958408, lon.=107.059563, Alt.=-0.135996m. Speed=5.508000m/h.</desc>
<speed>1.530000</speed>
</trkpt>
<trkpt lat="20.958351" lon="107.059525">
<ele>-1.088761</ele>
<time>2011-04-30T03:31:25Z</time>
<desc>lat.=20.958351, lon.=107.059525, Alt.=-1.088761m. Speed=5.436000m/h.</desc>
<speed>1.510000</speed>
</trkpt>
<trkpt lat="20.958302" lon="107.059471">
<ele>-2.433260</ele>
<time>2011-04-30T03:31:30Z</time>
<desc>lat.=20.958302, lon.=107.059471, Alt.=-2.433260m. Speed=3.240000m/h.</desc>
<speed>0.900000</speed>
</trkpt>
<trkpt lat="20.958269" lon="107.059448">
<ele>-2.117769</ele>
<time>2011-04-30T03:31:35Z</time>
<desc>lat.=20.958269, lon.=107.059448, Alt.=-2.117769m. Speed=2.556000m/h.</desc>
<speed>0.710000</speed>
</trkpt>
<trkpt lat="20.958223" lon="107.059387">
<ele>-2.413912</ele>
<time>2011-04-30T03:31:40Z</time>
<desc>lat.=20.958223, lon.=107.059387, Alt.=-2.413912m. Speed=6.480000m/h.</desc>
<speed>1.800000</speed>
</trkpt>
<trkpt lat="20.958172" lon="107.059326">
<ele>-2.536043</ele>
<time>2011-04-30T03:31:45Z</time>
<desc>lat.=20.958172, lon.=107.059326, Alt.=-2.536043m. Speed=5.688000m/h.</desc>
<speed>1.580000</speed>
</trkpt>
<trkpt lat="20.958118" lon="107.059265">
<ele>-2.917818</ele>
<time>2011-04-30T03:31:50Z</time>
<desc>lat.=20.958118, lon.=107.059265, Alt.=-2.917818m. Speed=5.976000m/h.</desc>
<speed>1.660000</speed>
</trkpt>
<trkpt lat="20.958075" lon="107.059204">
<ele>-3.206942</ele>
<time>2011-04-30T03:31:55Z</time>
<desc>lat.=20.958075, lon.=107.059204, Alt.=-3.206942m. Speed=5.256000m/h.</desc>
<speed>1.460000</speed>
</trkpt>
<trkpt lat="20.958015" lon="107.059166">
<ele>-3.011629</ele>
<time>2011-04-30T03:32:00Z</time>
<desc>lat.=20.958015, lon.=107.059166, Alt.=-3.011629m. Speed=5.832000m/h.</desc>
<speed>1.620000</speed>
</trkpt>
<trkpt lat="20.957947" lon="107.059135">
<ele>-2.526339</ele>
<time>2011-04-30T03:32:05Z</time>
<desc>lat.=20.957947, lon.=107.059135, Alt.=-2.526339m. Speed=5.652000m/h.</desc>
<speed>1.570000</speed>
</trkpt>
<trkpt lat="20.957891" lon="107.059120">
<ele>-2.140352</ele>
<time>2011-04-30T03:32:10Z</time>
<desc>lat.=20.957891, lon.=107.059120, Alt.=-2.140352m. Speed=1.656000m/h.</desc>
<speed>0.460000</speed>
</trkpt>
<trkpt lat="20.957874" lon="107.059120">
<ele>-2.131868</ele>
<time>2011-04-30T03:32:15Z</time>
<desc>lat.=20.957874, lon.=107.059120, Alt.=-2.131868m. Speed=0.612000m/h.</desc>
<speed>0.170000</speed>
</trkpt>
<trkpt lat="20.957867" lon="107.059105">
<ele>-1.806504</ele>
<time>2011-04-30T03:32:20Z</time>
<desc>lat.=20.957867, lon.=107.059105, Alt.=-1.806504m. Speed=2.016000m/h.</desc>
<speed>0.560000</speed>
</trkpt>
<trkpt lat="20.957855" lon="107.059059">
<ele>-1.649400</ele>
<time>2011-04-30T03:32:25Z</time>
<desc>lat.=20.957855, lon.=107.059059, Alt.=-1.649400m. Speed=5.148000m/h.</desc>
<speed>1.430000</speed>
</trkpt>
<trkpt lat="20.957830" lon="107.059013">
<ele>-1.907701</ele>
<time>2011-04-30T03:32:30Z</time>
<desc>lat.=20.957830, lon.=107.059013, Alt.=-1.907701m. Speed=3.564000m/h.</desc>
<speed>0.990000</speed>
</trkpt>
<trkpt lat="20.957798" lon="107.058968">
<ele>-2.259676</ele>
<time>2011-04-30T03:32:35Z</time>
<desc>lat.=20.957798, lon.=107.058968, Alt.=-2.259676m. Speed=4.212000m/h.</desc>
<speed>1.170000</speed>
</trkpt>
<trkpt lat="20.957787" lon="107.058914">
<ele>-2.284639</ele>
<time>2011-04-30T03:32:40Z</time>
<desc>lat.=20.957787, lon.=107.058914, Alt.=-2.284639m. Speed=3.924000m/h.</desc>
<speed>1.090000</speed>
</trkpt>
<trkpt lat="20.957758" lon="107.058876">
<ele>-2.774324</ele>
<time>2011-04-30T03:32:45Z</time>
<desc>lat.=20.957758, lon.=107.058876, Alt.=-2.774324m. Speed=3.852000m/h.</desc>
<speed>1.070000</speed>
</trkpt>
<trkpt lat="20.957726" lon="107.058838">
<ele>-2.454500</ele>
<time>2011-04-30T03:32:50Z</time>
<desc>lat.=20.957726, lon.=107.058838, Alt.=-2.454500m. Speed=3.348000m/h.</desc>
<speed>0.930000</speed>
</trkpt>
<trkpt lat="20.957695" lon="107.058792">
<ele>-2.050508</ele>
<time>2011-04-30T03:32:55Z</time>
<desc>lat.=20.957695, lon.=107.058792, Alt.=-2.050508m. Speed=3.060000m/h.</desc>
<speed>0.850000</speed>
</trkpt>
<trkpt lat="20.957668" lon="107.058754">
<ele>-1.719773</ele>
<time>2011-04-30T03:33:00Z</time>
<desc>lat.=20.957668, lon.=107.058754, Alt.=-1.719773m. Speed=5.436000m/h.</desc>
<speed>1.510000</speed>
</trkpt>
<trkpt lat="20.957624" lon="107.058723">
<ele>-1.885545</ele>
<time>2011-04-30T03:33:05Z</time>
<desc>lat.=20.957624, lon.=107.058723, Alt.=-1.885545m. Speed=4.104000m/h.</desc>
<speed>1.140000</speed>
</trkpt>
<trkpt lat="20.957575" lon="107.058701">
<ele>-1.895249</ele>
<time>2011-04-30T03:33:10Z</time>
<desc>lat.=20.957575, lon.=107.058701, Alt.=-1.895249m. Speed=0.144000m/h.</desc>
<speed>0.040000</speed>
</trkpt>
<trkpt lat="20.957558" lon="107.058678">
<ele>-1.498918</ele>
<time>2011-04-30T03:33:15Z</time>
<desc>lat.=20.957558, lon.=107.058678, Alt.=-1.498918m. Speed=5.328000m/h.</desc>
<speed>1.480000</speed>
</trkpt>
<trkpt lat="20.957518" lon="107.058624">
<ele>-2.000704</ele>
<time>2011-04-30T03:33:20Z</time>
<desc>lat.=20.957518, lon.=107.058624, Alt.=-2.000704m. Speed=4.788000m/h.</desc>
<speed>1.330000</speed>
</trkpt>
<trkpt lat="20.957485" lon="107.058586">
<ele>-2.194124</ele>
<time>2011-04-30T03:33:25Z</time>
<desc>lat.=20.957485, lon.=107.058586, Alt.=-2.194124m. Speed=3.564000m/h.</desc>
<speed>0.990000</speed>
</trkpt>
<trkpt lat="20.957453" lon="107.058548">
<ele>-2.264071</ele>
<time>2011-04-30T03:33:30Z</time>
<desc>lat.=20.957453, lon.=107.058548, Alt.=-2.264071m. Speed=3.600000m/h.</desc>
<speed>1.000000</speed>
</trkpt>
<trkpt lat="20.957428" lon="107.058502">
<ele>-2.466524</ele>
<time>2011-04-30T03:33:35Z</time>
<desc>lat.=20.957428, lon.=107.058502, Alt.=-2.466524m. Speed=4.248000m/h.</desc>
<speed>1.180000</speed>
</trkpt>
<trkpt lat="20.957396" lon="107.058464">
<ele>-2.869173</ele>
<time>2011-04-30T03:33:40Z</time>
<desc>lat.=20.957396, lon.=107.058464, Alt.=-2.869173m. Speed=3.852000m/h.</desc>
<speed>1.070000</speed>
</trkpt>
<trkpt lat="20.957352" lon="107.058434">
<ele>-2.067171</ele>
<time>2011-04-30T03:33:45Z</time>
<desc>lat.=20.957352, lon.=107.058434, Alt.=-2.067171m. Speed=2.988000m/h.</desc>
<speed>0.830000</speed>
</trkpt>
<trkpt lat="20.957344" lon="107.058388">
<ele>-1.967668</ele>
<time>2011-04-30T03:33:50Z</time>
<desc>lat.=20.957344, lon.=107.058388, Alt.=-1.967668m. Speed=3.456000m/h.</desc>
<speed>0.960000</speed>
</trkpt>
<trkpt lat="20.957319" lon="107.058350">
<ele>-1.650865</ele>
<time>2011-04-30T03:33:55Z</time>
<desc>lat.=20.957319, lon.=107.058350, Alt.=-1.650865m. Speed=2.412000m/h.</desc>
<speed>0.670000</speed>
</trkpt>
<trkpt lat="20.957310" lon="107.058327">
<ele>-1.772050</ele>
<time>2011-04-30T03:34:00Z</time>
<desc>lat.=20.957310, lon.=107.058327, Alt.=-1.772050m. Speed=1.044000m/h.</desc>
<speed>0.290000</speed>
</trkpt>
<trkpt lat="20.957296" lon="107.058296">
<ele>-1.486222</ele>
<time>2011-04-30T03:34:05Z</time>
<desc>lat.=20.957296, lon.=107.058296, Alt.=-1.486222m. Speed=2.808000m/h.</desc>
<speed>0.780000</speed>
</trkpt>
<trkpt lat="20.957258" lon="107.058250">
<ele>-1.839005</ele>
<time>2011-04-30T03:34:10Z</time>
<desc>lat.=20.957258, lon.=107.058250, Alt.=-1.839005m. Speed=3.996000m/h.</desc>
<speed>1.110000</speed>
</trkpt>
<trkpt lat="20.957220" lon="107.058205">
<ele>-1.855485</ele>
<time>2011-04-30T03:34:15Z</time>
<desc>lat.=20.957220, lon.=107.058205, Alt.=-1.855485m. Speed=4.572000m/h.</desc>
<speed>1.270000</speed>
</trkpt>
<trkpt lat="20.957180" lon="107.058159">
<ele>-2.410616</ele>
<time>2011-04-30T03:34:20Z</time>
<desc>lat.=20.957180, lon.=107.058159, Alt.=-2.410616m. Speed=3.816000m/h.</desc>
<speed>1.060000</speed>
</trkpt>
<trkpt lat="20.957148" lon="107.058121">
<ele>-2.937349</ele>
<time>2011-04-30T03:34:25Z</time>
<desc>lat.=20.957148, lon.=107.058121, Alt.=-2.937349m. Speed=3.564000m/h.</desc>
<speed>0.990000</speed>
</trkpt>
<trkpt lat="20.957127" lon="107.058075">
<ele>-3.523653</ele>
<time>2011-04-30T03:34:30Z</time>
<desc>lat.=20.957127, lon.=107.058075, Alt.=-3.523653m. Speed=4.032000m/h.</desc>
<speed>1.120000</speed>
</trkpt>
<trkpt lat="20.957096" lon="107.058022">
<ele>-3.606905</ele>
<time>2011-04-30T03:34:35Z</time>
<desc>lat.=20.957096, lon.=107.058022, Alt.=-3.606905m. Speed=4.068000m/h.</desc>
<speed>1.130000</speed>
</trkpt>
<trkpt lat="20.957067" lon="107.057968">
<ele>-3.635836</ele>
<time>2011-04-30T03:34:40Z</time>
<desc>lat.=20.957067, lon.=107.057968, Alt.=-3.635836m. Speed=4.356000m/h.</desc>
<speed>1.210000</speed>
</trkpt>
<trkpt lat="20.957058" lon="107.057922">
<ele>-3.618319</ele>
<time>2011-04-30T03:34:45Z</time>
<desc>lat.=20.957058, lon.=107.057922, Alt.=-3.618319m. Speed=3.852000m/h.</desc>
<speed>1.070000</speed>
</trkpt>
<trkpt lat="20.957035" lon="107.057877">
<ele>-3.497103</ele>
<time>2011-04-30T03:34:50Z</time>
<desc>lat.=20.957035, lon.=107.057877, Alt.=-3.497103m. Speed=3.960000m/h.</desc>
<speed>1.100000</speed>
</trkpt>
<trkpt lat="20.957016" lon="107.057823">
<ele>-3.388765</ele>
<time>2011-04-30T03:34:55Z</time>
<desc>lat.=20.957016, lon.=107.057823, Alt.=-3.388765m. Speed=4.068000m/h.</desc>
<speed>1.130000</speed>
</trkpt>
<trkpt lat="20.956987" lon="107.057777">
<ele>-3.862886</ele>
<time>2011-04-30T03:35:00Z</time>
<desc>lat.=20.956987, lon.=107.057777, Alt.=-3.862886m. Speed=3.456000m/h.</desc>
<speed>0.960000</speed>
</trkpt>
<trkpt lat="20.956964" lon="107.057747">
<ele>-3.881380</ele>
<time>2011-04-30T03:35:05Z</time>
<desc>lat.=20.956964, lon.=107.057747, Alt.=-3.881380m. Speed=3.456000m/h.</desc>
<speed>0.960000</speed>
</trkpt>
<trkpt lat="20.956955" lon="107.057701">
<ele>-3.399874</ele>
<time>2011-04-30T03:35:10Z</time>
<desc>lat.=20.956955, lon.=107.057701, Alt.=-3.399874m. Speed=3.708000m/h.</desc>
<speed>1.030000</speed>
</trkpt>
<trkpt lat="20.956932" lon="107.057671">
<ele>-3.513887</ele>
<time>2011-04-30T03:35:15Z</time>
<desc>lat.=20.956932, lon.=107.057671, Alt.=-3.513887m. Speed=3.168000m/h.</desc>
<speed>0.880000</speed>
</trkpt>
<trkpt lat="20.956928" lon="107.057632">
<ele>-3.814669</ele>
<time>2011-04-30T03:35:20Z</time>
<desc>lat.=20.956928, lon.=107.057632, Alt.=-3.814669m. Speed=3.168000m/h.</desc>
<speed>0.880000</speed>
</trkpt>
<trkpt lat="20.956911" lon="107.057587">
<ele>-4.262760</ele>
<time>2011-04-30T03:35:25Z</time>
<desc>lat.=20.956911, lon.=107.057587, Alt.=-4.262760m. Speed=3.312000m/h.</desc>
<speed>0.920000</speed>
</trkpt>
<trkpt lat="20.956898" lon="107.057541">
<ele>-3.770052</ele>
<time>2011-04-30T03:35:30Z</time>
<desc>lat.=20.956898, lon.=107.057541, Alt.=-3.770052m. Speed=3.636000m/h.</desc>
<speed>1.010000</speed>
</trkpt>
<trkpt lat="20.956896" lon="107.057495">
<ele>-3.352877</ele>
<time>2011-04-30T03:35:35Z</time>
<desc>lat.=20.956896, lon.=107.057495, Alt.=-3.352877m. Speed=3.852000m/h.</desc>
<speed>1.070000</speed>
</trkpt>
<trkpt lat="20.956865" lon="107.057465">
<ele>-2.486483</ele>
<time>2011-04-30T03:35:40Z</time>
<desc>lat.=20.956865, lon.=107.057465, Alt.=-2.486483m. Speed=3.384000m/h.</desc>
<speed>0.940000</speed>
</trkpt>
<trkpt lat="20.956858" lon="107.057419">
<ele>-1.517289</ele>
<time>2011-04-30T03:35:45Z</time>
<desc>lat.=20.956858, lon.=107.057419, Alt.=-1.517289m. Speed=3.996000m/h.</desc>
<speed>1.110000</speed>
</trkpt>
<trkpt lat="20.956829" lon="107.057365">
<ele>-0.455464</ele>
<time>2011-04-30T03:35:50Z</time>
<desc>lat.=20.956829, lon.=107.057365, Alt.=-0.455464m. Speed=3.888000m/h.</desc>
<speed>1.080000</speed>
</trkpt>
<trkpt lat="20.956816" lon="107.057327">
<ele>-1.294755</ele>
<time>2011-04-30T03:35:55Z</time>
<desc>lat.=20.956816, lon.=107.057327, Alt.=-1.294755m. Speed=3.636000m/h.</desc>
<speed>1.010000</speed>
</trkpt>
<trkpt lat="20.956797" lon="107.057281">
<ele>-0.922570</ele>
<time>2011-04-30T03:36:00Z</time>
<desc>lat.=20.956797, lon.=107.057281, Alt.=-0.922570m. Speed=3.996000m/h.</desc>
<speed>1.110000</speed>
</trkpt>
<trkpt lat="20.956781" lon="107.057243">
<ele>-1.567948</ele>
<time>2011-04-30T03:36:05Z</time>
<desc>lat.=20.956781, lon.=107.057243, Alt.=-1.567948m. Speed=3.672000m/h.</desc>
<speed>1.020000</speed>
</trkpt>
<trkpt lat="20.956774" lon="107.057213">
<ele>-1.643479</ele>
<time>2011-04-30T03:36:10Z</time>
<desc>lat.=20.956774, lon.=107.057213, Alt.=-1.643479m. Speed=3.672000m/h.</desc>
<speed>1.020000</speed>
</trkpt>
<trkpt lat="20.956758" lon="107.057182">
<ele>-1.849076</ele>
<time>2011-04-30T03:36:15Z</time>
<desc>lat.=20.956758, lon.=107.057182, Alt.=-1.849076m. Speed=3.024000m/h.</desc>
<speed>0.840000</speed>
</trkpt>
<trkpt lat="20.956728" lon="107.057091">
<ele>-1.746751</ele>
<time>2011-04-30T03:36:20Z</time>
<desc>lat.=20.956728, lon.=107.057091, Alt.=-1.746751m. Speed=6.156000m/h.</desc>
<speed>1.710000</speed>
</trkpt>
<trkpt lat="20.956715" lon="107.057030">
<ele>-1.525468</ele>
<time>2011-04-30T03:36:25Z</time>
<desc>lat.=20.956715, lon.=107.057030, Alt.=-1.525468m. Speed=4.068000m/h.</desc>
<speed>1.130000</speed>
</trkpt>
<trkpt lat="20.956701" lon="107.056969">
<ele>-1.089067</ele>
<time>2011-04-30T03:36:30Z</time>
<desc>lat.=20.956701, lon.=107.056969, Alt.=-1.089067m. Speed=4.320000m/h.</desc>
<speed>1.200000</speed>
</trkpt>
<trkpt lat="20.956694" lon="107.056915">
<ele>-0.462116</ele>
<time>2011-04-30T03:36:35Z</time>
<desc>lat.=20.956694, lon.=107.056915, Alt.=-0.462116m. Speed=3.348000m/h.</desc>
<speed>0.930000</speed>
</trkpt>
<trkpt lat="20.956675" lon="107.056870">
<ele>-0.896706</ele>
<time>2011-04-30T03:36:40Z</time>
<desc>lat.=20.956675, lon.=107.056870, Alt.=-0.896706m. Speed=4.140000m/h.</desc>
<speed>1.150000</speed>
</trkpt>
<trkpt lat="20.956646" lon="107.056808">
<ele>-0.893288</ele>
<time>2011-04-30T03:36:45Z</time>
<desc>lat.=20.956646, lon.=107.056808, Alt.=-0.893288m. Speed=4.716000m/h.</desc>
<speed>1.310000</speed>
</trkpt>
<trkpt lat="20.956642" lon="107.056747">
<ele>-0.479992</ele>
<time>2011-04-30T03:36:50Z</time>
<desc>lat.=20.956642, lon.=107.056747, Alt.=-0.479992m. Speed=4.248000m/h.</desc>
<speed>1.180000</speed>
</trkpt>
<trkpt lat="20.956623" lon="107.056694">
<ele>-0.344959</ele>
<time>2011-04-30T03:36:55Z</time>
<desc>lat.=20.956623, lon.=107.056694, Alt.=-0.344959m. Speed=4.320000m/h.</desc>
<speed>1.200000</speed>
</trkpt>
<trkpt lat="20.956614" lon="107.056633">
<ele>-0.190226</ele>
<time>2011-04-30T03:37:00Z</time>
<desc>lat.=20.956614, lon.=107.056633, Alt.=-0.190226m. Speed=4.176000m/h.</desc>
<speed>1.160000</speed>
</trkpt>
<trkpt lat="20.956598" lon="107.056580">
<ele>-0.440884</ele>
<time>2011-04-30T03:37:05Z</time>
<desc>lat.=20.956598, lon.=107.056580, Alt.=-0.440884m. Speed=4.248000m/h.</desc>
<speed>1.180000</speed>
</trkpt>
<trkpt lat="20.956585" lon="107.056526">
<ele>-0.029136</ele>
<time>2011-04-30T03:37:10Z</time>
<desc>lat.=20.956585, lon.=107.056526, Alt.=-0.029136m. Speed=4.572000m/h.</desc>
<speed>1.270000</speed>
</trkpt>
<trkpt lat="20.956573" lon="107.056473">
<ele>-0.332066</ele>
<time>2011-04-30T03:37:15Z</time>
<desc>lat.=20.956573, lon.=107.056473, Alt.=-0.332066m. Speed=4.608000m/h.</desc>
<speed>1.280000</speed>
</trkpt>
<trkpt lat="20.956566" lon="107.056419">
<ele>-1.116807</ele>
<time>2011-04-30T03:37:20Z</time>
<desc>lat.=20.956566, lon.=107.056419, Alt.=-1.116807m. Speed=3.384000m/h.</desc>
<speed>0.940000</speed>
</trkpt>
<trkpt lat="20.956549" lon="107.056366">
<ele>-2.238802</ele>
<time>2011-04-30T03:37:25Z</time>
<desc>lat.=20.956549, lon.=107.056366, Alt.=-2.238802m. Speed=4.608000m/h.</desc>
<speed>1.280000</speed>
</trkpt>
<trkpt lat="20.956530" lon="107.056305">
<ele>-2.942171</ele>
<time>2011-04-30T03:37:30Z</time>
<desc>lat.=20.956530, lon.=107.056305, Alt.=-2.942171m. Speed=4.176000m/h.</desc>
<speed>1.160000</speed>
</trkpt>
<trkpt lat="20.956512" lon="107.056252">
<ele>-3.150240</ele>
<time>2011-04-30T03:37:35Z</time>
<desc>lat.=20.956512, lon.=107.056252, Alt.=-3.150240m. Speed=4.356000m/h.</desc>
<speed>1.210000</speed>
</trkpt>
<trkpt lat="20.956495" lon="107.056190">
<ele>-3.484224</ele>
<time>2011-04-30T03:37:40Z</time>
<desc>lat.=20.956495, lon.=107.056190, Alt.=-3.484224m. Speed=4.572000m/h.</desc>
<speed>1.270000</speed>
</trkpt>
<trkpt lat="20.956490" lon="107.056122">
<ele>-4.039494</ele>
<time>2011-04-30T03:37:45Z</time>
<desc>lat.=20.956490, lon.=107.056122, Alt.=-4.039494m. Speed=4.464000m/h.</desc>
<speed>1.240000</speed>
</trkpt>
<trkpt lat="20.956497" lon="107.056068">
<ele>-3.355623</ele>
<time>2011-04-30T03:37:50Z</time>
<desc>lat.=20.956497, lon.=107.056068, Alt.=-3.355623m. Speed=4.104000m/h.</desc>
<speed>1.140000</speed>
</trkpt>
<trkpt lat="20.956493" lon="107.056007">
<ele>-3.863070</ele>
<time>2011-04-30T03:37:55Z</time>
<desc>lat.=20.956493, lon.=107.056007, Alt.=-3.863070m. Speed=3.708000m/h.</desc>
<speed>1.030000</speed>
</trkpt>
<trkpt lat="20.956474" lon="107.055962">
<ele>-4.035221</ele>
<time>2011-04-30T03:38:00Z</time>
<desc>lat.=20.956474, lon.=107.055962, Alt.=-4.035221m. Speed=2.052000m/h.</desc>
<speed>0.570000</speed>
</trkpt>
<trkpt lat="20.956440" lon="107.055923">
<ele>-4.570011</ele>
<time>2011-04-30T03:38:05Z</time>
<desc>lat.=20.956440, lon.=107.055923, Alt.=-4.570011m. Speed=3.276000m/h.</desc>
<speed>0.910000</speed>
</trkpt>
<trkpt lat="20.956429" lon="107.055893">
<ele>-4.028873</ele>
<time>2011-04-30T03:38:10Z</time>
<desc>lat.=20.956429, lon.=107.055893, Alt.=-4.028873m. Speed=1.836000m/h.</desc>
<speed>0.510000</speed>
</trkpt>
<trkpt lat="20.956427" lon="107.055893">
<ele>-3.414705</ele>
<time>2011-04-30T03:38:15Z</time>
<desc>lat.=20.956427, lon.=107.055893, Alt.=-3.414705m. Speed=0.000000m/h.</desc>
<speed>0.000000</speed>
</trkpt>
<trkpt lat="20.956432" lon="107.055885">
<ele>-3.024630</ele>
<time>2011-04-30T03:38:20Z</time>
<desc>lat.=20.956432, lon.=107.055885, Alt.=-3.024630m. Speed=3.096000m/h.</desc>
<speed>0.860000</speed>
</trkpt>
<trkpt lat="20.956444" lon="107.055847">
<ele>-2.740816</ele>
<time>2011-04-30T03:38:25Z</time>
<desc>lat.=20.956444, lon.=107.055847, Alt.=-2.740816m. Speed=2.988000m/h.</desc>
<speed>0.830000</speed>
</trkpt>
<trkpt lat="20.956427" lon="107.055832">
<ele>-2.492891</ele>
<time>2011-04-30T03:38:30Z</time>
<desc>lat.=20.956427, lon.=107.055832, Alt.=-2.492891m. Speed=0.828000m/h.</desc>
<speed>0.230000</speed>
</trkpt>
<trkpt lat="20.956419" lon="107.055832">
<ele>-2.378878</ele>
<time>2011-04-30T03:38:35Z</time>
<desc>lat.=20.956419, lon.=107.055832, Alt.=-2.378878m. Speed=2.916000m/h.</desc>
<speed>0.810000</speed>
</trkpt>
<trkpt lat="20.956408" lon="107.055840">
<ele>-2.769258</ele>
<time>2011-04-30T03:38:40Z</time>
<desc>lat.=20.956408, lon.=107.055840, Alt.=-2.769258m. Speed=0.180000m/h.</desc>
<speed>0.050000</speed>
</trkpt>
<trkpt lat="20.956408" lon="107.055840">
<ele>-2.737459</ele>
<time>2011-04-30T03:38:45Z</time>
<desc>lat.=20.956408, lon.=107.055840, Alt.=-2.737459m. Speed=0.432000m/h.</desc>
<speed>0.120000</speed>
</trkpt>
<trkpt lat="20.956408" lon="107.055840">
<ele>-2.805025</ele>
<time>2011-04-30T03:38:50Z</time>
<desc>lat.=20.956408, lon.=107.055840, Alt.=-2.805025m. Speed=0.828000m/h.</desc>
<speed>0.230000</speed>
</trkpt>
<trkpt lat="20.956411" lon="107.055840">
<ele>-3.207247</ele>
<time>2011-04-30T03:38:55Z</time>
<desc>lat.=20.956411, lon.=107.055840, Alt.=-3.207247m. Speed=0.684000m/h.</desc>
<speed>0.190000</speed>
</trkpt>
<trkpt lat="20.956411" lon="107.055832">
<ele>-3.385408</ele>
<time>2011-04-30T03:39:00Z</time>
<desc>lat.=20.956411, lon.=107.055832, Alt.=-3.385408m. Speed=1.224000m/h.</desc>
<speed>0.340000</speed>
</trkpt>
<trkpt lat="20.956398" lon="107.055832">
<ele>-3.696016</ele>
<time>2011-04-30T03:39:05Z</time>
<desc>lat.=20.956398, lon.=107.055832, Alt.=-3.696016m. Speed=1.764000m/h.</desc>
<speed>0.490000</speed>
</trkpt>
<trkpt lat="20.956385" lon="107.055824">
<ele>-3.599703</ele>
<time>2011-04-30T03:39:10Z</time>
<desc>lat.=20.956385, lon.=107.055824, Alt.=-3.599703m. Speed=1.152000m/h.</desc>
<speed>0.320000</speed>
</trkpt>
<trkpt lat="20.956396" lon="107.055794">
<ele>-3.227755</ele>
<time>2011-04-30T03:39:15Z</time>
<desc>lat.=20.956396, lon.=107.055794, Alt.=-3.227755m. Speed=0.540000m/h.</desc>
<speed>0.150000</speed>
</trkpt>
<trkpt lat="20.956394" lon="107.055794">
<ele>-3.150667</ele>
<time>2011-04-30T03:39:20Z</time>
<desc>lat.=20.956394, lon.=107.055794, Alt.=-3.150667m. Speed=2.124000m/h.</desc>
<speed>0.590000</speed>
</trkpt>
<trkpt lat="20.956377" lon="107.055771">
<ele>-2.850496</ele>
<time>2011-04-30T03:39:25Z</time>
<desc>lat.=20.956377, lon.=107.055771, Alt.=-2.850496m. Speed=0.756000m/h.</desc>
<speed>0.210000</speed>
</trkpt>
<trkpt lat="20.956379" lon="107.055771">
<ele>-2.624971</ele>
<time>2011-04-30T03:39:30Z</time>
<desc>lat.=20.956379, lon.=107.055771, Alt.=-2.624971m. Speed=0.936000m/h.</desc>
<speed>0.260000</speed>
</trkpt>
<trkpt lat="20.956406" lon="107.055801">
<ele>-2.692965</ele>
<time>2011-04-30T03:39:35Z</time>
<desc>lat.=20.956406, lon.=107.055801, Alt.=-2.692965m. Speed=3.240000m/h.</desc>
<speed>0.900000</speed>
</trkpt>
<trkpt lat="20.956417" lon="107.055817">
<ele>-2.440157</ele>
<time>2011-04-30T03:39:40Z</time>
<desc>lat.=20.956417, lon.=107.055817, Alt.=-2.440157m. Speed=1.116000m/h.</desc>
<speed>0.310000</speed>
</trkpt>
<trkpt lat="20.956425" lon="107.055817">
<ele>-3.114351</ele>
<time>2011-04-30T03:39:45Z</time>
<desc>lat.=20.956425, lon.=107.055817, Alt.=-3.114351m. Speed=0.288000m/h.</desc>
<speed>0.080000</speed>
</trkpt>
<trkpt lat="20.956423" lon="107.055817">
<ele>-3.386385</ele>
<time>2011-04-30T03:39:50Z</time>
<desc>lat.=20.956423, lon.=107.055817, Alt.=-3.386385m. Speed=1.836000m/h.</desc>
<speed>0.510000</speed>
</trkpt>
<trkpt lat="20.956402" lon="107.055801">
<ele>-2.591524</ele>
<time>2011-04-30T03:39:55Z</time>
<desc>lat.=20.956402, lon.=107.055801, Alt.=-2.591524m. Speed=0.648000m/h.</desc>
<speed>0.180000</speed>
</trkpt>
<trkpt lat="20.956409" lon="107.055801">
<ele>-2.294100</ele>
<time>2011-04-30T03:40:00Z</time>
<desc>lat.=20.956409, lon.=107.055801, Alt.=-2.294100m. Speed=0.756000m/h.</desc>
<speed>0.210000</speed>
</trkpt>
<trkpt lat="20.956402" lon="107.055824">
<ele>-2.578585</ele>
<time>2011-04-30T03:40:05Z</time>
<desc>lat.=20.956402, lon.=107.055824, Alt.=-2.578585m. Speed=1.440000m/h.</desc>
<speed>0.400000</speed>
</trkpt>
<trkpt lat="20.956406" lon="107.055832">
<ele>-2.330355</ele>
<time>2011-04-30T03:40:10Z</time>
<desc>lat.=20.956406, lon.=107.055832, Alt.=-2.330355m. Speed=0.684000m/h.</desc>
<speed>0.190000</speed>
</trkpt>
<trkpt lat="20.956398" lon="107.055832">
<ele>-1.980363</ele>
<time>2011-04-30T03:40:15Z</time>
<desc>lat.=20.956398, lon.=107.055832, Alt.=-1.980363m. Speed=0.324000m/h.</desc>
<speed>0.090000</speed>
</trkpt>
<trkpt lat="20.956396" lon="107.055832">
<ele>-1.759141</ele>
<time>2011-04-30T03:40:20Z</time>
<desc>lat.=20.956396, lon.=107.055832, Alt.=-1.759141m. Speed=0.612000m/h.</desc>
<speed>0.170000</speed>
</trkpt>
<trkpt lat="20.956398" lon="107.055817">
<ele>-1.588334</ele>
<time>2011-04-30T03:40:25Z</time>
<desc>lat.=20.956398, lon.=107.055817, Alt.=-1.588334m. Speed=0.252000m/h.</desc>
<speed>0.070000</speed>
</trkpt>
<trkpt lat="20.956385" lon="107.055809">
<ele>-1.783097</ele>
<time>2011-04-30T03:40:30Z</time>
<desc>lat.=20.956385, lon.=107.055809, Alt.=-1.783097m. Speed=0.936000m/h.</desc>
<speed>0.260000</speed>
</trkpt>
<trkpt lat="20.956379" lon="107.055817">
<ele>-1.522386</ele>
<time>2011-04-30T03:40:35Z</time>
<desc>lat.=20.956379, lon.=107.055817, Alt.=-1.522386m. Speed=0.252000m/h.</desc>
<speed>0.070000</speed>
</trkpt>
<trkpt lat="20.956385" lon="107.055817">
<ele>-1.352372</ele>
<time>2011-04-30T03:40:40Z</time>
<desc>lat.=20.956385, lon.=107.055817, Alt.=-1.352372m. Speed=0.396000m/h.</desc>
<speed>0.110000</speed>
</trkpt>
<trkpt lat="20.956388" lon="107.055809">
<ele>-0.811913</ele>
<time>2011-04-30T03:40:45Z</time>
<desc>lat.=20.956388, lon.=107.055809, Alt.=-0.811913m. Speed=2.844000m/h.</desc>
<speed>0.790000</speed>
</trkpt>
<trkpt lat="20.956398" lon="107.055763">
<ele>-1.852098</ele>
<time>2011-04-30T03:40:50Z</time>
<desc>lat.=20.956398, lon.=107.055763, Alt.=-1.852098m. Speed=3.564000m/h.</desc>
<speed>0.990000</speed>
</trkpt>
<trkpt lat="20.956394" lon="107.055710">
<ele>-2.604036</ele>
<time>2011-04-30T03:40:55Z</time>
<desc>lat.=20.956394, lon.=107.055710, Alt.=-2.604036m. Speed=4.068000m/h.</desc>
<speed>1.130000</speed>
</trkpt>
<trkpt lat="20.956387" lon="107.055656">
<ele>-3.392977</ele>
<time>2011-04-30T03:41:00Z</time>
<desc>lat.=20.956387, lon.=107.055656, Alt.=-3.392977m. Speed=4.284000m/h.</desc>
<speed>1.190000</speed>
</trkpt>
<trkpt lat="20.956377" lon="107.055595">
<ele>-3.002230</ele>
<time>2011-04-30T03:41:05Z</time>
<desc>lat.=20.956377, lon.=107.055595, Alt.=-3.002230m. Speed=4.536000m/h.</desc>
<speed>1.260000</speed>
</trkpt>
<trkpt lat="20.956358" lon="107.055534">
<ele>-1.906022</ele>
<time>2011-04-30T03:41:10Z</time>
<desc>lat.=20.956358, lon.=107.055534, Alt.=-1.906022m. Speed=4.248000m/h.</desc>
<speed>1.180000</speed>
</trkpt>
<trkpt lat="20.956350" lon="107.055489">
<ele>-2.155428</ele>
<time>2011-04-30T03:41:15Z</time>
<desc>lat.=20.956350, lon.=107.055489, Alt.=-2.155428m. Speed=5.004000m/h.</desc>
<speed>1.390000</speed>
</trkpt>
<trkpt lat="20.956339" lon="107.055435">
<ele>-1.128922</ele>
<time>2011-04-30T03:41:20Z</time>
<desc>lat.=20.956339, lon.=107.055435, Alt.=-1.128922m. Speed=4.284000m/h.</desc>
<speed>1.190000</speed>
</trkpt>
<trkpt lat="20.956345" lon="107.055397">
<ele>-1.246812</ele>
<time>2011-04-30T03:41:25Z</time>
<desc>lat.=20.956345, lon.=107.055397, Alt.=-1.246812m. Speed=4.320000m/h.</desc>
<speed>1.200000</speed>
</trkpt>
<trkpt lat="20.956347" lon="107.055336">
<ele>-1.146989</ele>
<time>2011-04-30T03:41:30Z</time>
<desc>lat.=20.956347, lon.=107.055336, Alt.=-1.146989m. Speed=4.212000m/h.</desc>
<speed>1.170000</speed>
</trkpt>
<trkpt lat="20.956322" lon="107.055275">
<ele>-1.541459</ele>
<time>2011-04-30T03:41:35Z</time>
<desc>lat.=20.956322, lon.=107.055275, Alt.=-1.541459m. Speed=4.644000m/h.</desc>
<speed>1.290000</speed>
</trkpt>
<trkpt lat="20.956312" lon="107.055222">
<ele>-1.742356</ele>
<time>2011-04-30T03:41:40Z</time>
<desc>lat.=20.956312, lon.=107.055222, Alt.=-1.742356m. Speed=4.248000m/h.</desc>
<speed>1.180000</speed>
</trkpt>
<trkpt lat="20.956284" lon="107.055168">
<ele>-2.547091</ele>
<time>2011-04-30T03:41:45Z</time>
<desc>lat.=20.956284, lon.=107.055168, Alt.=-2.547091m. Speed=3.744000m/h.</desc>
<speed>1.040000</speed>
</trkpt>
<trkpt lat="20.956278" lon="107.055107">
<ele>-1.818254</ele>
<time>2011-04-30T03:41:50Z</time>
<desc>lat.=20.956278, lon.=107.055107, Alt.=-1.818254m. Speed=4.068000m/h.</desc>
<speed>1.130000</speed>
</trkpt>
<trkpt lat="20.956259" lon="107.055061">
<ele>-2.387850</ele>
<time>2011-04-30T03:41:55Z</time>
<desc>lat.=20.956259, lon.=107.055061, Alt.=-2.387850m. Speed=4.068000m/h.</desc>
<speed>1.130000</speed>
</trkpt>
<trkpt lat="20.956253" lon="107.055008">
<ele>-2.281221</ele>
<time>2011-04-30T03:42:00Z</time>
<desc>lat.=20.956253, lon.=107.055008, Alt.=-2.281221m. Speed=3.924000m/h.</desc>
<speed>1.090000</speed>
</trkpt>
<trkpt lat="20.956242" lon="107.054955">
<ele>-2.241426</ele>
<time>2011-04-30T03:42:05Z</time>
<desc>lat.=20.956242, lon.=107.054955, Alt.=-2.241426m. Speed=3.924000m/h.</desc>
<speed>1.090000</speed>
</trkpt>
<trkpt lat="20.956226" lon="107.054901">
<ele>-2.297579</ele>
<time>2011-04-30T03:42:10Z</time>
<desc>lat.=20.956226, lon.=107.054901, Alt.=-2.297579m. Speed=4.284000m/h.</desc>
<speed>1.190000</speed>
</trkpt>
<trkpt lat="20.956209" lon="107.054848">
<ele>-0.392254</ele>
<time>2011-04-30T03:42:15Z</time>
<desc>lat.=20.956209, lon.=107.054848, Alt.=-0.392254m. Speed=6.588000m/h.</desc>
<speed>1.830000</speed>
</trkpt>
<trkpt lat="20.956202" lon="107.054787">
<ele>-0.151800</ele>
<time>2011-04-30T03:42:20Z</time>
<desc>lat.=20.956202, lon.=107.054787, Alt.=-0.151800m. Speed=3.888000m/h.</desc>
<speed>1.080000</speed>
</trkpt>
<trkpt lat="20.956182" lon="107.054733">
<ele>0.039387</ele>
<time>2011-04-30T03:42:25Z</time>
<desc>lat.=20.956182, lon.=107.054733, Alt.=0.039387m. Speed=5.292000m/h.</desc>
<speed>1.470000</speed>
</trkpt>
<trkpt lat="20.956167" lon="107.054665">
<ele>-0.481457</ele>
<time>2011-04-30T03:42:30Z</time>
<desc>lat.=20.956167, lon.=107.054665, Alt.=-0.481457m. Speed=3.816000m/h.</desc>
<speed>1.060000</speed>
</trkpt>
<trkpt lat="20.956169" lon="107.054611">
<ele>-0.165987</ele>
<time>2011-04-30T03:42:35Z</time>
<desc>lat.=20.956169, lon.=107.054611, Alt.=-0.165987m. Speed=4.428000m/h.</desc>
<speed>1.230000</speed>
</trkpt>
<trkpt lat="20.956163" lon="107.054565">
<ele>-0.598824</ele>
<time>2011-04-30T03:42:40Z</time>
<desc>lat.=20.956163, lon.=107.054565, Alt.=-0.598824m. Speed=5.004000m/h.</desc>
<speed>1.390000</speed>
</trkpt>
<trkpt lat="20.956158" lon="107.054512">
<ele>-0.412235</ele>
<time>2011-04-30T03:42:45Z</time>
<desc>lat.=20.956158, lon.=107.054512, Alt.=-0.412235m. Speed=4.464000m/h.</desc>
<speed>1.240000</speed>
</trkpt>
<trkpt lat="20.956161" lon="107.054466">
<ele>0.759789</ele>
<time>2011-04-30T03:42:50Z</time>
<desc>lat.=20.956161, lon.=107.054466, Alt.=0.759789m. Speed=3.888000m/h.</desc>
<speed>1.080000</speed>
</trkpt>
<trkpt lat="20.956152" lon="107.054405">
<ele>-0.125807</ele>
<time>2011-04-30T03:42:55Z</time>
<desc>lat.=20.956152, lon.=107.054405, Alt.=-0.125807m. Speed=4.644000m/h.</desc>
<speed>1.290000</speed>
</trkpt>
<trkpt lat="20.956152" lon="107.054352">
<ele>-0.130274</ele>
<time>2011-04-30T03:43:00Z</time>
<desc>lat.=20.956152, lon.=107.054352, Alt.=-0.130274m. Speed=3.384000m/h.</desc>
<speed>0.940000</speed>
</trkpt>
<trkpt lat="20.956146" lon="107.054291">
<ele>-0.053042</ele>
<time>2011-04-30T03:43:05Z</time>
<desc>lat.=20.956146, lon.=107.054291, Alt.=-0.053042m. Speed=4.248000m/h.</desc>
<speed>1.180000</speed>
</trkpt>
<trkpt lat="20.956135" lon="107.054230">
<ele>-0.470867</ele>
<time>2011-04-30T03:43:10Z</time>
<desc>lat.=20.956135, lon.=107.054230, Alt.=-0.470867m. Speed=4.284000m/h.</desc>
<speed>1.190000</speed>
</trkpt>
<trkpt lat="20.956137" lon="107.054169">
<ele>-0.468319</ele>
<time>2011-04-30T03:43:15Z</time>
<desc>lat.=20.956137, lon.=107.054169, Alt.=-0.468319m. Speed=3.996000m/h.</desc>
<speed>1.110000</speed>
</trkpt>
<trkpt lat="20.956135" lon="107.054115">
<ele>-0.018402</ele>
<time>2011-04-30T03:43:20Z</time>
<desc>lat.=20.956135, lon.=107.054115, Alt.=-0.018402m. Speed=3.240000m/h.</desc>
<speed>0.900000</speed>
</trkpt>
<trkpt lat="20.956137" lon="107.054062">
<ele>-3.384371</ele>
<time>2011-04-30T03:43:25Z</time>
<desc>lat.=20.956137, lon.=107.054062, Alt.=-3.384371m. Speed=4.608000m/h.</desc>
<speed>1.280000</speed>
</trkpt>
<trkpt lat="20.956139" lon="107.054008">
<ele>-2.575655</ele>
<time>2011-04-30T03:43:30Z</time>
<desc>lat.=20.956139, lon.=107.054008, Alt.=-2.575655m. Speed=4.644000m/h.</desc>
<speed>1.290000</speed>
</trkpt>
<trkpt lat="20.956137" lon="107.053947">
<ele>-2.341097</ele>
<time>2011-04-30T03:43:35Z</time>
<desc>lat.=20.956137, lon.=107.053947, Alt.=-2.341097m. Speed=4.248000m/h.</desc>
<speed>1.180000</speed>
</trkpt>
<trkpt lat="20.956127" lon="107.053894">
<ele>-2.502108</ele>
<time>2011-04-30T03:43:40Z</time>
<desc>lat.=20.956127, lon.=107.053894, Alt.=-2.502108m. Speed=4.356000m/h.</desc>
<speed>1.210000</speed>
</trkpt>
<trkpt lat="20.956118" lon="107.053841">
<ele>-2.528780</ele>
<time>2011-04-30T03:43:45Z</time>
<desc>lat.=20.956118, lon.=107.053841, Alt.=-2.528780m. Speed=3.780000m/h.</desc>
<speed>1.050000</speed>
</trkpt>
<trkpt lat="20.956118" lon="107.053787">
<ele>-2.633883</ele>
<time>2011-04-30T03:43:50Z</time>
<desc>lat.=20.956118, lon.=107.053787, Alt.=-2.633883m. Speed=4.032000m/h.</desc>
<speed>1.120000</speed>
</trkpt>
<trkpt lat="20.956127" lon="107.053734">
<ele>-2.378817</ele>
<time>2011-04-30T03:43:55Z</time>
<desc>lat.=20.956127, lon.=107.053734, Alt.=-2.378817m. Speed=4.284000m/h.</desc>
<speed>1.190000</speed>
</trkpt>
<trkpt lat="20.956125" lon="107.053673">
<ele>-2.391939</ele>
<time>2011-04-30T03:44:00Z</time>
<desc>lat.=20.956125, lon.=107.053673, Alt.=-2.391939m. Speed=4.212000m/h.</desc>
<speed>1.170000</speed>
</trkpt>
<trkpt lat="20.956121" lon="107.053619">
<ele>-2.202608</ele>
<time>2011-04-30T03:44:05Z</time>
<desc>lat.=20.956121, lon.=107.053619, Alt.=-2.202608m. Speed=3.924000m/h.</desc>
<speed>1.090000</speed>
</trkpt>
<trkpt lat="20.956125" lon="107.053566">
<ele>-2.005404</ele>
<time>2011-04-30T03:44:10Z</time>
<desc>lat.=20.956125, lon.=107.053566, Alt.=-2.005404m. Speed=4.320000m/h.</desc>
<speed>1.200000</speed>
</trkpt>
<trkpt lat="20.956135" lon="107.053505">
<ele>-2.010042</ele>
<time>2011-04-30T03:44:15Z</time>
<desc>lat.=20.956135, lon.=107.053505, Alt.=-2.010042m. Speed=4.248000m/h.</desc>
<speed>1.180000</speed>
</trkpt>
<trkpt lat="20.956146" lon="107.053444">
<ele>-2.008883</ele>
<time>2011-04-30T03:44:20Z</time>
<desc>lat.=20.956146, lon.=107.053444, Alt.=-2.008883m. Speed=3.924000m/h.</desc>
<speed>1.090000</speed>
</trkpt>
<trkpt lat="20.956150" lon="107.053383">
<ele>-2.333956</ele>
<time>2011-04-30T03:44:25Z</time>
<desc>lat.=20.956150, lon.=107.053383, Alt.=-2.333956m. Speed=4.248000m/h.</desc>
<speed>1.180000</speed>
</trkpt>
<trkpt lat="20.956154" lon="107.053322">
<ele>-2.531527</ele>
<time>2011-04-30T03:44:30Z</time>
<desc>lat.=20.956154, lon.=107.053322, Alt.=-2.531527m. Speed=4.464000m/h.</desc>
<speed>1.240000</speed>
</trkpt>
<trkpt lat="20.956160" lon="107.053268">
<ele>-1.860978</ele>
<time>2011-04-30T03:44:35Z</time>
<desc>lat.=20.956160, lon.=107.053268, Alt.=-1.860978m. Speed=3.780000m/h.</desc>
<speed>1.050000</speed>
</trkpt>
<trkpt lat="20.956163" lon="107.053207">
<ele>-0.950234</ele>
<time>2011-04-30T03:44:40Z</time>
<desc>lat.=20.956163, lon.=107.053207, Alt.=-0.950234m. Speed=3.528000m/h.</desc>
<speed>0.980000</speed>
</trkpt>
<trkpt lat="20.956154" lon="107.053146">
<ele>-0.055829</ele>
<time>2011-04-30T03:44:45Z</time>
<desc>lat.=20.956154, lon.=107.053146, Alt.=-0.055829m. Speed=4.392000m/h.</desc>
<speed>1.220000</speed>
</trkpt>
<trkpt lat="20.956163" lon="107.053108">
<ele>1.455369</ele>
<time>2011-04-30T03:44:50Z</time>
<desc>lat.=20.956163, lon.=107.053108, Alt.=1.455369m. Speed=3.528000m/h.</desc>
<speed>0.980000</speed>
</trkpt>
<trkpt lat="20.956173" lon="107.053055">
<ele>1.883164</ele>
<time>2011-04-30T03:44:55Z</time>
<desc>lat.=20.956173, lon.=107.053055, Alt.=1.883164m. Speed=4.104000m/h.</desc>
<speed>1.140000</speed>
</trkpt>
<trkpt lat="20.956173" lon="107.053001">
<ele>1.962296</ele>
<time>2011-04-30T03:45:00Z</time>
<desc>lat.=20.956173, lon.=107.053001, Alt.=1.962296m. Speed=4.320000m/h.</desc>
<speed>1.200000</speed>
</trkpt>
<trkpt lat="20.956184" lon="107.052948">
<ele>2.396212</ele>
<time>2011-04-30T03:45:05Z</time>
<desc>lat.=20.956184, lon.=107.052948, Alt.=2.396212m. Speed=4.428000m/h.</desc>
<speed>1.230000</speed>
</trkpt>
<trkpt lat="20.956196" lon="107.052895">
<ele>1.709245</ele>
<time>2011-04-30T03:45:10Z</time>
<desc>lat.=20.956196, lon.=107.052895, Alt.=1.709245m. Speed=3.960000m/h.</desc>
<speed>1.100000</speed>
</trkpt>
<trkpt lat="20.956207" lon="107.052841">
<ele>1.527604</ele>
<time>2011-04-30T03:45:15Z</time>
<desc>lat.=20.956207, lon.=107.052841, Alt.=1.527604m. Speed=4.140000m/h.</desc>
<speed>1.150000</speed>
</trkpt>
<trkpt lat="20.956217" lon="107.052788">
<ele>2.025423</ele>
<time>2011-04-30T03:45:20Z</time>
<desc>lat.=20.956217, lon.=107.052788, Alt.=2.025423m. Speed=4.572000m/h.</desc>
<speed>1.270000</speed>
</trkpt>
<trkpt lat="20.956242" lon="107.052734">
<ele>2.169222</ele>
<time>2011-04-30T03:45:25Z</time>
<desc>lat.=20.956242, lon.=107.052734, Alt.=2.169222m. Speed=4.176000m/h.</desc>
<speed>1.160000</speed>
</trkpt>
<trkpt lat="20.956251" lon="107.052689">
<ele>1.787522</ele>
<time>2011-04-30T03:45:30Z</time>
<desc>lat.=20.956251, lon.=107.052689, Alt.=1.787522m. Speed=3.204000m/h.</desc>
<speed>0.890000</speed>
</trkpt>
<trkpt lat="20.956249" lon="107.052628">
<ele>0.478665</ele>
<time>2011-04-30T03:45:35Z</time>
<desc>lat.=20.956249, lon.=107.052628, Alt.=0.478665m. Speed=3.852000m/h.</desc>
<speed>1.070000</speed>
</trkpt>
<trkpt lat="20.956259" lon="107.052574">
<ele>-0.161188</ele>
<time>2011-04-30T03:45:40Z</time>
<desc>lat.=20.956259, lon.=107.052574, Alt.=-0.161188m. Speed=4.572000m/h.</desc>
<speed>1.270000</speed>
</trkpt>
<trkpt lat="20.956264" lon="107.052521">
<ele>-1.023545</ele>
<time>2011-04-30T03:45:45Z</time>
<desc>lat.=20.956264, lon.=107.052521, Alt.=-1.023545m. Speed=4.032000m/h.</desc>
<speed>1.120000</speed>
</trkpt>
<trkpt lat="20.956274" lon="107.052460">
<ele>-2.748262</ele>
<time>2011-04-30T03:45:50Z</time>
<desc>lat.=20.956274, lon.=107.052460, Alt.=-2.748262m. Speed=3.276000m/h.</desc>
<speed>0.910000</speed>
</trkpt>
<trkpt lat="20.956270" lon="107.052399">
<ele>-3.657991</ele>
<time>2011-04-30T03:45:55Z</time>
<desc>lat.=20.956270, lon.=107.052399, Alt.=-3.657991m. Speed=4.140000m/h.</desc>
<speed>1.150000</speed>
</trkpt>
<trkpt lat="20.956266" lon="107.052345">
<ele>-4.665714</ele>
<time>2011-04-30T03:46:00Z</time>
<desc>lat.=20.956266, lon.=107.052345, Alt.=-4.665714m. Speed=4.176000m/h.</desc>
<speed>1.160000</speed>
</trkpt>
<trkpt lat="20.956274" lon="107.052284">
<ele>-5.710026</ele>
<time>2011-04-30T03:46:05Z</time>
<desc>lat.=20.956274, lon.=107.052284, Alt.=-5.710026m. Speed=4.356000m/h.</desc>
<speed>1.210000</speed>
</trkpt>
<trkpt lat="20.956272" lon="107.052223">
<ele>-5.705997</ele>
<time>2011-04-30T03:46:10Z</time>
<desc>lat.=20.956272, lon.=107.052223, Alt.=-5.705997m. Speed=3.852000m/h.</desc>
<speed>1.070000</speed>
</trkpt>
<trkpt lat="20.956289" lon="107.052170">
<ele>-6.733952</ele>
<time>2011-04-30T03:46:15Z</time>
<desc>lat.=20.956289, lon.=107.052170, Alt.=-6.733952m. Speed=4.140000m/h.</desc>
<speed>1.150000</speed>
</trkpt>
<trkpt lat="20.956303" lon="107.052124">
<ele>-6.564640</ele>
<time>2011-04-30T03:46:20Z</time>
<desc>lat.=20.956303, lon.=107.052124, Alt.=-6.564640m. Speed=4.896000m/h.</desc>
<speed>1.360000</speed>
</trkpt>
<trkpt lat="20.956318" lon="107.052071">
<ele>-6.609074</ele>
<time>2011-04-30T03:46:25Z</time>
<desc>lat.=20.956318, lon.=107.052071, Alt.=-6.609074m. Speed=4.032000m/h.</desc>
<speed>1.120000</speed>
</trkpt>
<trkpt lat="20.956306" lon="107.052025">
<ele>-6.826847</ele>
<time>2011-04-30T03:46:30Z</time>
<desc>lat.=20.956306, lon.=107.052025, Alt.=-6.826847m. Speed=4.248000m/h.</desc>
<speed>1.180000</speed>
</trkpt>
<trkpt lat="20.956308" lon="107.051994">
<ele>-6.812077</ele>
<time>2011-04-30T03:46:35Z</time>
<desc>lat.=20.956308, lon.=107.051994, Alt.=-6.812077m. Speed=5.148000m/h.</desc>
<speed>1.430000</speed>
</trkpt>
<trkpt lat="20.956324" lon="107.051918">
<ele>-9.139534</ele>
<time>2011-04-30T03:46:40Z</time>
<desc>lat.=20.956324, lon.=107.051918, Alt.=-9.139534m. Speed=6.048000m/h.</desc>
<speed>1.680000</speed>
</trkpt>
<trkpt lat="20.956339" lon="107.051834">
<ele>-8.738899</ele>
<time>2011-04-30T03:46:45Z</time>
<desc>lat.=20.956339, lon.=107.051834, Alt.=-8.738899m. Speed=4.896000m/h.</desc>
<speed>1.360000</speed>
</trkpt>
<trkpt lat="20.956343" lon="107.051773">
<ele>-8.677620</ele>
<time>2011-04-30T03:46:50Z</time>
<desc>lat.=20.956343, lon.=107.051773, Alt.=-8.677620m. Speed=4.896000m/h.</desc>
<speed>1.360000</speed>
</trkpt>
<trkpt lat="20.956348" lon="107.051720">
<ele>-8.595345</ele>
<time>2011-04-30T03:46:55Z</time>
<desc>lat.=20.956348, lon.=107.051720, Alt.=-8.595345m. Speed=4.752000m/h.</desc>
<speed>1.320000</speed>
</trkpt>
<trkpt lat="20.956356" lon="107.051651">
<ele>-9.005989</ele>
<time>2011-04-30T03:47:00Z</time>
<desc>lat.=20.956356, lon.=107.051651, Alt.=-9.005989m. Speed=4.716000m/h.</desc>
<speed>1.310000</speed>
</trkpt>
<trkpt lat="20.956367" lon="107.051598">
<ele>-9.014290</ele>
<time>2011-04-30T03:47:05Z</time>
<desc>lat.=20.956367, lon.=107.051598, Alt.=-9.014290m. Speed=0.720000m/h.</desc>
<speed>0.200000</speed>
</trkpt>
<trkpt lat="20.956387" lon="107.051559">
<ele>-8.613655</ele>
<time>2011-04-30T03:47:10Z</time>
<desc>lat.=20.956387, lon.=107.051559, Alt.=-8.613655m. Speed=1.260000m/h.</desc>
<speed>0.350000</speed>
</trkpt>
<trkpt lat="20.956385" lon="107.051498">
<ele>-8.326546</ele>
<time>2011-04-30T03:47:15Z</time>
<desc>lat.=20.956385, lon.=107.051498, Alt.=-8.326546m. Speed=4.716000m/h.</desc>
<speed>1.310000</speed>
</trkpt>
<trkpt lat="20.956402" lon="107.051422">
<ele>-9.089729</ele>
<time>2011-04-30T03:47:20Z</time>
<desc>lat.=20.956402, lon.=107.051422, Alt.=-9.089729m. Speed=3.852000m/h.</desc>
<speed>1.070000</speed>
</trkpt>
<trkpt lat="20.956411" lon="107.051361">
<ele>-9.479622</ele>
<time>2011-04-30T03:47:25Z</time>
<desc>lat.=20.956411, lon.=107.051361, Alt.=-9.479622m. Speed=4.104000m/h.</desc>
<speed>1.140000</speed>
</trkpt>
<trkpt lat="20.956404" lon="107.051300">
<ele>-9.292366</ele>
<time>2011-04-30T03:47:30Z</time>
<desc>lat.=20.956404, lon.=107.051300, Alt.=-9.292366m. Speed=3.780000m/h.</desc>
<speed>1.050000</speed>
</trkpt>
<trkpt lat="20.956421" lon="107.051247">
<ele>-9.766975</ele>
<time>2011-04-30T03:47:35Z</time>
<desc>lat.=20.956421, lon.=107.051247, Alt.=-9.766975m. Speed=4.356000m/h.</desc>
<speed>1.210000</speed>
</trkpt>
<trkpt lat="20.956409" lon="107.051193">
<ele>-8.635139</ele>
<time>2011-04-30T03:47:40Z</time>
<desc>lat.=20.956409, lon.=107.051193, Alt.=-8.635139m. Speed=4.788000m/h.</desc>
<speed>1.330000</speed>
</trkpt>
<trkpt lat="20.956400" lon="107.051147">
<ele>-8.370491</ele>
<time>2011-04-30T03:47:45Z</time>
<desc>lat.=20.956400, lon.=107.051147, Alt.=-8.370491m. Speed=2.160000m/h.</desc>
<speed>0.600000</speed>
</trkpt>
<trkpt lat="20.956406" lon="107.051086">
<ele>-8.497932</ele>
<time>2011-04-30T03:47:50Z</time>
<desc>lat.=20.956406, lon.=107.051086, Alt.=-8.497932m. Speed=2.700000m/h.</desc>
<speed>0.750000</speed>
</trkpt>
<trkpt lat="20.956406" lon="107.051033">
<ele>-8.410530</ele>
<time>2011-04-30T03:47:55Z</time>
<desc>lat.=20.956406, lon.=107.051033, Alt.=-8.410530m. Speed=3.276000m/h.</desc>
<speed>0.910000</speed>
</trkpt>
<trkpt lat="20.956415" lon="107.050972">
<ele>-8.167366</ele>
<time>2011-04-30T03:48:00Z</time>
<desc>lat.=20.956415, lon.=107.050972, Alt.=-8.167366m. Speed=4.680000m/h.</desc>
<speed>1.300000</speed>
</trkpt>
<trkpt lat="20.956434" lon="107.050896">
<ele>-8.579231</ele>
<time>2011-04-30T03:48:05Z</time>
<desc>lat.=20.956434, lon.=107.050896, Alt.=-8.579231m. Speed=3.600000m/h.</desc>
<speed>1.000000</speed>
</trkpt>
<trkpt lat="20.956442" lon="107.050850">
<ele>-7.720524</ele>
<time>2011-04-30T03:48:10Z</time>
<desc>lat.=20.956442, lon.=107.050850, Alt.=-7.720524m. Speed=3.996000m/h.</desc>
<speed>1.110000</speed>
</trkpt>
<trkpt lat="20.956455" lon="107.050797">
<ele>-6.316471</ele>
<time>2011-04-30T03:48:15Z</time>
<desc>lat.=20.956455, lon.=107.050797, Alt.=-6.316471m. Speed=4.356000m/h.</desc>
<speed>1.210000</speed>
</trkpt>
<trkpt lat="20.956467" lon="107.050743">
<ele>-5.195499</ele>
<time>2011-04-30T03:48:20Z</time>
<desc>lat.=20.956467, lon.=107.050743, Alt.=-5.195499m. Speed=4.572000m/h.</desc>
<speed>1.270000</speed>
</trkpt>
<trkpt lat="20.956467" lon="107.050697">
<ele>-3.683687</ele>
<time>2011-04-30T03:48:25Z</time>
<desc>lat.=20.956467, lon.=107.050697, Alt.=-3.683687m. Speed=4.032000m/h.</desc>
<speed>1.120000</speed>
</trkpt>
<trkpt lat="20.956484" lon="107.050636">
<ele>-3.265108</ele>
<time>2011-04-30T03:48:30Z</time>
<desc>lat.=20.956484, lon.=107.050636, Alt.=-3.265108m. Speed=3.996000m/h.</desc>
<speed>1.110000</speed>
</trkpt>
<trkpt lat="20.956493" lon="107.050583">
<ele>-1.675309</ele>
<time>2011-04-30T03:48:35Z</time>
<desc>lat.=20.956493, lon.=107.050583, Alt.=-1.675309m. Speed=3.996000m/h.</desc>
<speed>1.110000</speed>
</trkpt>
<trkpt lat="20.956499" lon="107.050529">
<ele>-0.696053</ele>
<time>2011-04-30T03:48:40Z</time>
<desc>lat.=20.956499, lon.=107.050529, Alt.=-0.696053m. Speed=3.996000m/h.</desc>
<speed>1.110000</speed>
</trkpt>
<trkpt lat="20.956501" lon="107.050468">
<ele>-0.859093</ele>
<time>2011-04-30T03:48:45Z</time>
<desc>lat.=20.956501, lon.=107.050468, Alt.=-0.859093m. Speed=3.852000m/h.</desc>
<speed>1.070000</speed>
</trkpt>
<trkpt lat="20.956482" lon="107.050430">
<ele>0.174650</ele>
<time>2011-04-30T03:48:50Z</time>
<desc>lat.=20.956482, lon.=107.050430, Alt.=0.174650m. Speed=3.420000m/h.</desc>
<speed>0.950000</speed>
</trkpt>
<trkpt lat="20.956467" lon="107.050385">
<ele>0.002756</ele>
<time>2011-04-30T03:48:55Z</time>
<desc>lat.=20.956467, lon.=107.050385, Alt.=0.002756m. Speed=3.492000m/h.</desc>
<speed>0.970000</speed>
</trkpt>
<trkpt lat="20.956467" lon="107.050331">
<ele>0.378918</ele>
<time>2011-04-30T03:49:00Z</time>
<desc>lat.=20.956467, lon.=107.050331, Alt.=0.378918m. Speed=3.960000m/h.</desc>
<speed>1.100000</speed>
</trkpt>
<trkpt lat="20.956455" lon="107.050285">
<ele>0.718194</ele>
<time>2011-04-30T03:49:05Z</time>
<desc>lat.=20.956455, lon.=107.050285, Alt.=0.718194m. Speed=4.212000m/h.</desc>
<speed>1.170000</speed>
</trkpt>
<trkpt lat="20.956444" lon="107.050247">
<ele>0.589577</ele>
<time>2011-04-30T03:49:10Z</time>
<desc>lat.=20.956444, lon.=107.050247, Alt.=0.589577m. Speed=3.636000m/h.</desc>
<speed>1.010000</speed>
</trkpt>
<trkpt lat="20.956446" lon="107.050194">
<ele>0.162058</ele>
<time>2011-04-30T03:49:15Z</time>
<desc>lat.=20.956446, lon.=107.050194, Alt.=0.162058m. Speed=1.116000m/h.</desc>
<speed>0.310000</speed>
</trkpt>
<trkpt lat="20.956446" lon="107.050179">
<ele>0.873559</ele>
<time>2011-04-30T03:49:20Z</time>
<desc>lat.=20.956446, lon.=107.050179, Alt.=0.873559m. Speed=0.396000m/h.</desc>
<speed>0.110000</speed>
</trkpt>
<trkpt lat="20.956419" lon="107.050148">
<ele>1.635240</ele>
<time>2011-04-30T03:49:25Z</time>
<desc>lat.=20.956419, lon.=107.050148, Alt.=1.635240m. Speed=0.000000m/h.</desc>
<speed>0.000000</speed>
</trkpt>
<trkpt lat="20.956417" lon="107.050140">
<ele>1.725602</ele>
<time>2011-04-30T03:49:30Z</time>
<desc>lat.=20.956417, lon.=107.050140, Alt.=1.725602m. Speed=0.072000m/h.</desc>
<speed>0.020000</speed>
</trkpt>
<trkpt lat="20.956417" lon="107.050140">
<ele>1.688432</ele>
<time>2011-04-30T03:49:35Z</time>
<desc>lat.=20.956417, lon.=107.050140, Alt.=1.688432m. Speed=0.288000m/h.</desc>
<speed>0.080000</speed>
</trkpt>
<trkpt lat="20.956417" lon="107.050148">
<ele>1.678788</ele>
<time>2011-04-30T03:49:40Z</time>
<desc>lat.=20.956417, lon.=107.050148, Alt.=1.678788m. Speed=0.648000m/h.</desc>
<speed>0.180000</speed>
</trkpt>
<trkpt lat="20.956417" lon="107.050140">
<ele>1.687974</ele>
<time>2011-04-30T03:49:45Z</time>
<desc>lat.=20.956417, lon.=107.050140, Alt.=1.687974m. Speed=0.540000m/h.</desc>
<speed>0.150000</speed>
</trkpt>
<trkpt lat="20.956415" lon="107.050140">
<ele>1.855393</ele>
<time>2011-04-30T03:49:50Z</time>
<desc>lat.=20.956415, lon.=107.050140, Alt.=1.855393m. Speed=1.692000m/h.</desc>
<speed>0.470000</speed>
</trkpt>
<trkpt lat="20.956385" lon="107.050125">
<ele>3.530550</ele>
<time>2011-04-30T03:49:55Z</time>
<desc>lat.=20.956385, lon.=107.050125, Alt.=3.530550m. Speed=0.540000m/h.</desc>
<speed>0.150000</speed>
</trkpt>
<trkpt lat="20.956377" lon="107.050117">
<ele>4.950993</ele>
<time>2011-04-30T03:50:00Z</time>
<desc>lat.=20.956377, lon.=107.050117, Alt.=4.950993m. Speed=0.324000m/h.</desc>
<speed>0.090000</speed>
</trkpt>
<trkpt lat="20.956367" lon="107.050110">
<ele>5.529118</ele>
<time>2011-04-30T03:50:05Z</time>
<desc>lat.=20.956367, lon.=107.050110, Alt.=5.529118m. Speed=0.432000m/h.</desc>
<speed>0.120000</speed>
</trkpt>
<trkpt lat="20.956341" lon="107.050110">
<ele>5.997379</ele>
<time>2011-04-30T03:50:10Z</time>
<desc>lat.=20.956341, lon.=107.050110, Alt.=5.997379m. Speed=1.368000m/h.</desc>
<speed>0.380000</speed>
</trkpt>
<trkpt lat="20.956324" lon="107.050110">
<ele>4.884586</ele>
<time>2011-04-30T03:50:15Z</time>
<desc>lat.=20.956324, lon.=107.050110, Alt.=4.884586m. Speed=0.216000m/h.</desc>
<speed>0.060000</speed>
</trkpt>
<trkpt lat="20.956320" lon="107.050110">
<ele>4.722355</ele>
<time>2011-04-30T03:50:20Z</time>
<desc>lat.=20.956320, lon.=107.050110, Alt.=4.722355m. Speed=0.216000m/h.</desc>
<speed>0.060000</speed>
</trkpt>
<trkpt lat="20.956318" lon="107.050110">
<ele>4.705753</ele>
<time>2011-04-30T03:50:25Z</time>
<desc>lat.=20.956318, lon.=107.050110, Alt.=4.705753m. Speed=0.108000m/h.</desc>
<speed>0.030000</speed>
</trkpt>
<trkpt lat="20.956318" lon="107.050110">
<ele>4.685368</ele>
<time>2011-04-30T03:50:30Z</time>
<desc>lat.=20.956318, lon.=107.050110, Alt.=4.685368m. Speed=0.000000m/h.</desc>
<speed>0.000000</speed>
</trkpt>
<trkpt lat="20.956318" lon="107.050110">
<ele>4.676212</ele>
<time>2011-04-30T03:50:35Z</time>
<desc>lat.=20.956318, lon.=107.050110, Alt.=4.676212m. Speed=0.072000m/h.</desc>
<speed>0.020000</speed>
</trkpt>
<trkpt lat="20.956318" lon="107.050110">
<ele>4.687077</ele>
<time>2011-04-30T03:50:40Z</time>
<desc>lat.=20.956318, lon.=107.050110, Alt.=4.687077m. Speed=0.000000m/h.</desc>
<speed>0.000000</speed>
</trkpt>
<trkpt lat="20.956318" lon="107.050110">
<ele>4.709415</ele>
<time>2011-04-30T03:50:45Z</time>
<desc>lat.=20.956318, lon.=107.050110, Alt.=4.709415m. Speed=0.036000m/h.</desc>
<speed>0.010000</speed>
</trkpt>
<trkpt lat="20.956318" lon="107.050110">
<ele>4.695255</ele>
<time>2011-04-30T03:50:50Z</time>
<desc>lat.=20.956318, lon.=107.050110, Alt.=4.695255m. Speed=0.000000m/h.</desc>
<speed>0.000000</speed>
</trkpt>
<trkpt lat="20.956318" lon="107.050110">
<ele>4.673161</ele>
<time>2011-04-30T03:50:55Z</time>
<desc>lat.=20.956318, lon.=107.050110, Alt.=4.673161m. Speed=0.036000m/h.</desc>
<speed>0.010000</speed>
</trkpt>
<trkpt lat="20.956318" lon="107.050110">
<ele>4.649113</ele>
<time>2011-04-30T03:51:00Z</time>
<desc>lat.=20.956318, lon.=107.050110, Alt.=4.649113m. Speed=0.360000m/h.</desc>
<speed>0.100000</speed>
</trkpt>
<trkpt lat="20.956318" lon="107.050110">
<ele>4.644840</ele>
<time>2011-04-30T03:51:05Z</time>
<desc>lat.=20.956318, lon.=107.050110, Alt.=4.644840m. Speed=0.036000m/h.</desc>
<speed>0.010000</speed>
</trkpt>
<trkpt lat="20.956318" lon="107.050110">
<ele>4.651188</ele>
<time>2011-04-30T03:51:10Z</time>
<desc>lat.=20.956318, lon.=107.050110, Alt.=4.651188m. Speed=0.072000m/h.</desc>
<speed>0.020000</speed>
</trkpt>
<trkpt lat="20.956318" lon="107.050110">
<ele>4.650455</ele>
<time>2011-04-30T03:51:15Z</time>
<desc>lat.=20.956318, lon.=107.050110, Alt.=4.650455m. Speed=0.036000m/h.</desc>
<speed>0.010000</speed>
</trkpt>
<trkpt lat="20.956318" lon="107.050110">
<ele>4.651554</ele>
<time>2011-04-30T03:51:20Z</time>
<desc>lat.=20.956318, lon.=107.050110, Alt.=4.651554m. Speed=0.000000m/h.</desc>
<speed>0.000000</speed>
</trkpt>
<trkpt lat="20.956318" lon="107.050110">
<ele>4.615543</ele>
<time>2011-04-30T03:51:25Z</time>
<desc>lat.=20.956318, lon.=107.050110, Alt.=4.615543m. Speed=0.036000m/h.</desc>
<speed>0.010000</speed>
</trkpt>
<trkpt lat="20.956318" lon="107.050110">
<ele>4.603458</ele>
<time>2011-04-30T03:51:30Z</time>
<desc>lat.=20.956318, lon.=107.050110, Alt.=4.603458m. Speed=0.000000m/h.</desc>
<speed>0.000000</speed>
</trkpt>
<trkpt lat="20.956318" lon="107.050110">
<ele>4.589542</ele>
<time>2011-04-30T03:51:35Z</time>
<desc>lat.=20.956318, lon.=107.050110, Alt.=4.589542m. Speed=0.036000m/h.</desc>
<speed>0.010000</speed>
</trkpt>
<trkpt lat="20.956318" lon="107.050110">
<ele>4.594913</ele>
<time>2011-04-30T03:51:40Z</time>
<desc>lat.=20.956318, lon.=107.050110, Alt.=4.594913m. Speed=0.756000m/h.</desc>
<speed>0.210000</speed>
</trkpt>
<trkpt lat="20.956320" lon="107.050095">
<ele>4.826969</ele>
<time>2011-04-30T03:51:45Z</time>
<desc>lat.=20.956320, lon.=107.050095, Alt.=4.826969m. Speed=1.188000m/h.</desc>
<speed>0.330000</speed>
</trkpt>
<trkpt lat="20.956324" lon="107.050064">
<ele>4.493717</ele>
<time>2011-04-30T03:51:50Z</time>
<desc>lat.=20.956324, lon.=107.050064, Alt.=4.493717m. Speed=0.540000m/h.</desc>
<speed>0.150000</speed>
</trkpt>
<trkpt lat="20.956318" lon="107.050064">
<ele>4.147648</ele>
<time>2011-04-30T03:51:55Z</time>
<desc>lat.=20.956318, lon.=107.050064, Alt.=4.147648m. Speed=0.180000m/h.</desc>
<speed>0.050000</speed>
</trkpt>
<trkpt lat="20.956316" lon="107.050072">
<ele>4.299870</ele>
<time>2011-04-30T03:52:00Z</time>
<desc>lat.=20.956316, lon.=107.050072, Alt.=4.299870m. Speed=0.216000m/h.</desc>
<speed>0.060000</speed>
</trkpt>
<trkpt lat="20.956318" lon="107.050072">
<ele>4.315250</ele>
<time>2011-04-30T03:52:05Z</time>
<desc>lat.=20.956318, lon.=107.050072, Alt.=4.315250m. Speed=0.072000m/h.</desc>
<speed>0.020000</speed>
</trkpt>
<trkpt lat="20.956318" lon="107.050072">
<ele>4.297184</ele>
<time>2011-04-30T03:52:10Z</time>
<desc>lat.=20.956318, lon.=107.050072, Alt.=4.297184m. Speed=0.036000m/h.</desc>
<speed>0.010000</speed>
</trkpt>
<trkpt lat="20.956318" lon="107.050072">
<ele>4.287540</ele>
<time>2011-04-30T03:52:15Z</time>
<desc>lat.=20.956318, lon.=107.050072, Alt.=4.287540m. Speed=0.036000m/h.</desc>
<speed>0.010000</speed>
</trkpt>
<trkpt lat="20.956318" lon="107.050072">
<ele>4.261417</ele>
<time>2011-04-30T03:52:20Z</time>
<desc>lat.=20.956318, lon.=107.050072, Alt.=4.261417m. Speed=0.324000m/h.</desc>
<speed>0.090000</speed>
</trkpt>
<trkpt lat="20.956318" lon="107.050072">
<ele>4.281193</ele>
<time>2011-04-30T03:52:25Z</time>
<desc>lat.=20.956318, lon.=107.050072, Alt.=4.281193m. Speed=0.216000m/h.</desc>
<speed>0.060000</speed>
</trkpt>
<trkpt lat="20.956320" lon="107.050064">
<ele>4.237370</ele>
<time>2011-04-30T03:52:30Z</time>
<desc>lat.=20.956320, lon.=107.050064, Alt.=4.237370m. Speed=0.288000m/h.</desc>
<speed>0.080000</speed>
</trkpt>
<trkpt lat="20.956335" lon="107.050056">
<ele>3.442720</ele>
<time>2011-04-30T03:52:35Z</time>
<desc>lat.=20.956335, lon.=107.050056, Alt.=3.442720m. Speed=2.880000m/h.</desc>
<speed>0.800000</speed>
</trkpt>
<trkpt lat="20.956396" lon="107.050041">
<ele>1.806993</ele>
<time>2011-04-30T03:52:40Z</time>
<desc>lat.=20.956396, lon.=107.050041, Alt.=1.806993m. Speed=4.896000m/h.</desc>
<speed>1.360000</speed>
</trkpt>
<trkpt lat="20.956459" lon="107.050041">
<ele>1.220628</ele>
<time>2011-04-30T03:52:45Z</time>
<desc>lat.=20.956459, lon.=107.050041, Alt.=1.220628m. Speed=4.428000m/h.</desc>
<speed>1.230000</speed>
</trkpt>
<trkpt lat="20.956516" lon="107.050041">
<ele>0.361355</ele>
<time>2011-04-30T03:52:50Z</time>
<desc>lat.=20.956516, lon.=107.050041, Alt.=0.361355m. Speed=4.500000m/h.</desc>
<speed>1.250000</speed>
</trkpt>
<trkpt lat="20.956572" lon="107.050049">
<ele>0.520592</ele>
<time>2011-04-30T03:52:55Z</time>
<desc>lat.=20.956572, lon.=107.050049, Alt.=0.520592m. Speed=4.536000m/h.</desc>
<speed>1.260000</speed>
</trkpt>
<trkpt lat="20.956633" lon="107.050049">
<ele>0.381520</ele>
<time>2011-04-30T03:53:00Z</time>
<desc>lat.=20.956633, lon.=107.050049, Alt.=0.381520m. Speed=4.896000m/h.</desc>
<speed>1.360000</speed>
</trkpt>
<trkpt lat="20.956684" lon="107.050034">
<ele>1.521928</ele>
<time>2011-04-30T03:53:05Z</time>
<desc>lat.=20.956684, lon.=107.050034, Alt.=1.521928m. Speed=4.752000m/h.</desc>
<speed>1.320000</speed>
</trkpt>
<trkpt lat="20.956724" lon="107.050011">
<ele>2.057711</ele>
<time>2011-04-30T03:53:10Z</time>
<desc>lat.=20.956724, lon.=107.050011, Alt.=2.057711m. Speed=3.132000m/h.</desc>
<speed>0.870000</speed>
</trkpt>
<trkpt lat="20.956760" lon="107.049980">
<ele>2.927156</ele>
<time>2011-04-30T03:53:15Z</time>
<desc>lat.=20.956760, lon.=107.049980, Alt.=2.927156m. Speed=4.320000m/h.</desc>
<speed>1.200000</speed>
</trkpt>
<trkpt lat="20.956774" lon="107.049934">
<ele>2.671663</ele>
<time>2011-04-30T03:53:20Z</time>
<desc>lat.=20.956774, lon.=107.049934, Alt.=2.671663m. Speed=2.304000m/h.</desc>
<speed>0.640000</speed>
</trkpt>
<trkpt lat="20.956806" lon="107.049957">
<ele>3.491426</ele>
<time>2011-04-30T03:53:25Z</time>
<desc>lat.=20.956806, lon.=107.049957, Alt.=3.491426m. Speed=4.140000m/h.</desc>
<speed>1.150000</speed>
</trkpt>
<trkpt lat="20.956884" lon="107.049973">
<ele>3.955721</ele>
<time>2011-04-30T03:53:30Z</time>
<desc>lat.=20.956884, lon.=107.049973, Alt.=3.955721m. Speed=3.276000m/h.</desc>
<speed>0.910000</speed>
</trkpt>
<trkpt lat="20.956928" lon="107.049995">
<ele>5.408024</ele>
<time>2011-04-30T03:53:35Z</time>
<desc>lat.=20.956928, lon.=107.049995, Alt.=5.408024m. Speed=3.492000m/h.</desc>
<speed>0.970000</speed>
</trkpt>
<trkpt lat="20.956961" lon="107.050018">
<ele>5.862980</ele>
<time>2011-04-30T03:53:40Z</time>
<desc>lat.=20.956961, lon.=107.050018, Alt.=5.862980m. Speed=0.900000m/h.</desc>
<speed>0.250000</speed>
</trkpt>
<trkpt lat="20.956974" lon="107.050056">
<ele>5.974552</ele>
<time>2011-04-30T03:53:45Z</time>
<desc>lat.=20.956974, lon.=107.050056, Alt.=5.974552m. Speed=0.972000m/h.</desc>
<speed>0.270000</speed>
</trkpt>
<trkpt lat="20.957005" lon="107.050087">
<ele>5.931705</ele>
<time>2011-04-30T03:53:50Z</time>
<desc>lat.=20.957005, lon.=107.050087, Alt.=5.931705m. Speed=2.088000m/h.</desc>
<speed>0.580000</speed>
</trkpt>
<trkpt lat="20.957064" lon="107.050179">
<ele>5.818302</ele>
<time>2011-04-30T03:53:55Z</time>
<desc>lat.=20.957064, lon.=107.050179, Alt.=5.818302m. Speed=3.564000m/h.</desc>
<speed>0.990000</speed>
</trkpt>
<trkpt lat="20.957121" lon="107.050201">
<ele>6.259953</ele>
<time>2011-04-30T03:54:00Z</time>
<desc>lat.=20.957121, lon.=107.050201, Alt.=6.259953m. Speed=2.952000m/h.</desc>
<speed>0.820000</speed>
</trkpt>
<trkpt lat="20.957146" lon="107.050232">
<ele>5.645451</ele>
<time>2011-04-30T03:54:05Z</time>
<desc>lat.=20.957146, lon.=107.050232, Alt.=5.645451m. Speed=1.944000m/h.</desc>
<speed>0.540000</speed>
</trkpt>
<trkpt lat="20.957153" lon="107.050232">
<ele>5.637394</ele>
<time>2011-04-30T03:54:10Z</time>
<desc>lat.=20.957153, lon.=107.050232, Alt.=5.637394m. Speed=0.144000m/h.</desc>
<speed>0.040000</speed>
</trkpt>
<trkpt lat="20.957151" lon="107.050240">
<ele>5.652775</ele>
<time>2011-04-30T03:54:15Z</time>
<desc>lat.=20.957151, lon.=107.050240, Alt.=5.652775m. Speed=0.108000m/h.</desc>
<speed>0.030000</speed>
</trkpt>
<trkpt lat="20.957150" lon="107.050240">
<ele>5.685368</ele>
<time>2011-04-30T03:54:20Z</time>
<desc>lat.=20.957150, lon.=107.050240, Alt.=5.685368m. Speed=0.720000m/h.</desc>
<speed>0.200000</speed>
</trkpt>
<trkpt lat="20.957130" lon="107.050285">
<ele>6.020084</ele>
<time>2011-04-30T03:54:25Z</time>
<desc>lat.=20.957130, lon.=107.050285, Alt.=6.020084m. Speed=1.800000m/h.</desc>
<speed>0.500000</speed>
</trkpt>
<trkpt lat="20.957111" lon="107.050323">
<ele>6.545475</ele>
<time>2011-04-30T03:54:30Z</time>
<desc>lat.=20.957111, lon.=107.050323, Alt.=6.545475m. Speed=2.052000m/h.</desc>
<speed>0.570000</speed>
</trkpt>
<trkpt lat="20.957098" lon="107.050369">
<ele>6.938175</ele>
<time>2011-04-30T03:54:35Z</time>
<desc>lat.=20.957098, lon.=107.050369, Alt.=6.938175m. Speed=2.052000m/h.</desc>
<speed>0.570000</speed>
</trkpt>
<trkpt lat="20.957085" lon="107.050400">
<ele>7.137516</ele>
<time>2011-04-30T03:54:40Z</time>
<desc>lat.=20.957085, lon.=107.050400, Alt.=7.137516m. Speed=1.836000m/h.</desc>
<speed>0.510000</speed>
</trkpt>
<trkpt lat="20.957081" lon="107.050453">
<ele>7.814152</ele>
<time>2011-04-30T03:54:45Z</time>
<desc>lat.=20.957081, lon.=107.050453, Alt.=7.814152m. Speed=3.240000m/h.</desc>
<speed>0.900000</speed>
</trkpt>
<trkpt lat="20.957102" lon="107.050415">
<ele>11.462044</ele>
<time>2011-04-30T03:54:50Z</time>
<desc>lat.=20.957102, lon.=107.050415, Alt.=11.462044m. Speed=2.916000m/h.</desc>
<speed>0.810000</speed>
</trkpt>
<trkpt lat="20.957134" lon="107.050407">
<ele>15.068977</ele>
<time>2011-04-30T03:54:55Z</time>
<desc>lat.=20.957134, lon.=107.050407, Alt.=15.068977m. Speed=2.736000m/h.</desc>
<speed>0.760000</speed>
</trkpt>
<trkpt lat="20.957153" lon="107.050415">
<ele>16.650162</ele>
<time>2011-04-30T03:55:00Z</time>
<desc>lat.=20.957153, lon.=107.050415, Alt.=16.650162m. Speed=0.936000m/h.</desc>
<speed>0.260000</speed>
</trkpt>
<trkpt lat="20.957167" lon="107.050407">
<ele>17.230240</ele>
<time>2011-04-30T03:55:05Z</time>
<desc>lat.=20.957167, lon.=107.050407, Alt.=17.230240m. Speed=0.972000m/h.</desc>
<speed>0.270000</speed>
</trkpt>
<trkpt lat="20.957180" lon="107.050423">
<ele>17.686295</ele>
<time>2011-04-30T03:55:10Z</time>
<desc>lat.=20.957180, lon.=107.050423, Alt.=17.686295m. Speed=1.404000m/h.</desc>
<speed>0.390000</speed>
</trkpt>
<trkpt lat="20.957201" lon="107.050453">
<ele>18.353287</ele>
<time>2011-04-30T03:55:15Z</time>
<desc>lat.=20.957201, lon.=107.050453, Alt.=18.353287m. Speed=1.656000m/h.</desc>
<speed>0.460000</speed>
</trkpt>
<trkpt lat="20.957203" lon="107.050461">
<ele>19.137955</ele>
<time>2011-04-30T03:55:20Z</time>
<desc>lat.=20.957203, lon.=107.050461, Alt.=19.137955m. Speed=1.188000m/h.</desc>
<speed>0.330000</speed>
</trkpt>
<trkpt lat="20.957195" lon="107.050461">
<ele>20.065201</ele>
<time>2011-04-30T03:55:25Z</time>
<desc>lat.=20.957195, lon.=107.050461, Alt.=20.065201m. Speed=0.648000m/h.</desc>
<speed>0.180000</speed>
</trkpt>
<trkpt lat="20.957195" lon="107.050468">
<ele>20.507584</ele>
<time>2011-04-30T03:55:30Z</time>
<desc>lat.=20.957195, lon.=107.050468, Alt.=20.507584m. Speed=0.432000m/h.</desc>
<speed>0.120000</speed>
</trkpt>
<trkpt lat="20.957195" lon="107.050476">
<ele>21.007095</ele>
<time>2011-04-30T03:55:35Z</time>
<desc>lat.=20.957195, lon.=107.050476, Alt.=21.007095m. Speed=0.252000m/h.</desc>
<speed>0.070000</speed>
</trkpt>
<trkpt lat="20.957195" lon="107.050476">
<ele>21.598892</ele>
<time>2011-04-30T03:55:40Z</time>
<desc>lat.=20.957195, lon.=107.050476, Alt.=21.598892m. Speed=0.396000m/h.</desc>
<speed>0.110000</speed>
</trkpt>
<trkpt lat="20.957214" lon="107.050476">
<ele>22.659439</ele>
<time>2011-04-30T03:55:45Z</time>
<desc>lat.=20.957214, lon.=107.050476, Alt.=22.659439m. Speed=2.232000m/h.</desc>
<speed>0.620000</speed>
</trkpt>
<trkpt lat="20.957241" lon="107.050468">
<ele>24.408463</ele>
<time>2011-04-30T03:55:50Z</time>
<desc>lat.=20.957241, lon.=107.050468, Alt.=24.408463m. Speed=1.440000m/h.</desc>
<speed>0.400000</speed>
</trkpt>
<trkpt lat="20.957254" lon="107.050484">
<ele>25.496841</ele>
<time>2011-04-30T03:55:55Z</time>
<desc>lat.=20.957254, lon.=107.050484, Alt.=25.496841m. Speed=1.332000m/h.</desc>
<speed>0.370000</speed>
</trkpt>
<trkpt lat="20.957237" lon="107.050507">
<ele>26.562759</ele>
<time>2011-04-30T03:56:00Z</time>
<desc>lat.=20.957237, lon.=107.050507, Alt.=26.562759m. Speed=1.260000m/h.</desc>
<speed>0.350000</speed>
</trkpt>
<trkpt lat="20.957233" lon="107.050491">
<ele>27.762466</ele>
<time>2011-04-30T03:56:05Z</time>
<desc>lat.=20.957233, lon.=107.050491, Alt.=27.762466m. Speed=0.720000m/h.</desc>
<speed>0.200000</speed>
</trkpt>
<trkpt lat="20.957232" lon="107.050499">
<ele>28.505142</ele>
<time>2011-04-30T03:56:10Z</time>
<desc>lat.=20.957232, lon.=107.050499, Alt.=28.505142m. Speed=0.504000m/h.</desc>
<speed>0.140000</speed>
</trkpt>
<trkpt lat="20.957226" lon="107.050507">
<ele>29.315201</ele>
<time>2011-04-30T03:56:15Z</time>
<desc>lat.=20.957226, lon.=107.050507, Alt.=29.315201m. Speed=0.648000m/h.</desc>
<speed>0.180000</speed>
</trkpt>
<trkpt lat="20.957241" lon="107.050514">
<ele>30.335709</ele>
<time>2011-04-30T03:56:20Z</time>
<desc>lat.=20.957241, lon.=107.050514, Alt.=30.335709m. Speed=3.060000m/h.</desc>
<speed>0.850000</speed>
</trkpt>
<trkpt lat="20.957253" lon="107.050560">
<ele>32.299347</ele>
<time>2011-04-30T03:56:25Z</time>
<desc>lat.=20.957253, lon.=107.050560, Alt.=32.299347m. Speed=2.016000m/h.</desc>
<speed>0.560000</speed>
</trkpt>
<trkpt lat="20.957289" lon="107.050552">
<ele>33.481964</ele>
<time>2011-04-30T03:56:30Z</time>
<desc>lat.=20.957289, lon.=107.050552, Alt.=33.481964m. Speed=1.332000m/h.</desc>
<speed>0.370000</speed>
</trkpt>
<trkpt lat="20.957312" lon="107.050568">
<ele>34.851105</ele>
<time>2011-04-30T03:56:35Z</time>
<desc>lat.=20.957312, lon.=107.050568, Alt.=34.851105m. Speed=1.224000m/h.</desc>
<speed>0.340000</speed>
</trkpt>
<trkpt lat="20.957350" lon="107.050575">
<ele>36.557159</ele>
<time>2011-04-30T03:56:40Z</time>
<desc>lat.=20.957350, lon.=107.050575, Alt.=36.557159m. Speed=1.080000m/h.</desc>
<speed>0.300000</speed>
</trkpt>
<trkpt lat="20.957352" lon="107.050583">
<ele>37.544464</ele>
<time>2011-04-30T03:56:45Z</time>
<desc>lat.=20.957352, lon.=107.050583, Alt.=37.544464m. Speed=0.504000m/h.</desc>
<speed>0.140000</speed>
</trkpt>
<trkpt lat="20.957355" lon="107.050583">
<ele>38.502472</ele>
<time>2011-04-30T03:56:50Z</time>
<desc>lat.=20.957355, lon.=107.050583, Alt.=38.502472m. Speed=1.260000m/h.</desc>
<speed>0.350000</speed>
</trkpt>
<trkpt lat="20.957386" lon="107.050575">
<ele>39.723175</ele>
<time>2011-04-30T03:56:55Z</time>
<desc>lat.=20.957386, lon.=107.050575, Alt.=39.723175m. Speed=1.296000m/h.</desc>
<speed>0.360000</speed>
</trkpt>
<trkpt lat="20.957399" lon="107.050560">
<ele>41.020050</ele>
<time>2011-04-30T03:57:00Z</time>
<desc>lat.=20.957399, lon.=107.050560, Alt.=41.020050m. Speed=1.260000m/h.</desc>
<speed>0.350000</speed>
</trkpt>
<trkpt lat="20.957417" lon="107.050545">
<ele>41.217316</ele>
<time>2011-04-30T03:57:05Z</time>
<desc>lat.=20.957417, lon.=107.050545, Alt.=41.217316m. Speed=1.188000m/h.</desc>
<speed>0.330000</speed>
</trkpt>
<trkpt lat="20.957418" lon="107.050560">
<ele>42.034698</ele>
<time>2011-04-30T03:57:10Z</time>
<desc>lat.=20.957418, lon.=107.050560, Alt.=42.034698m. Speed=0.432000m/h.</desc>
<speed>0.120000</speed>
</trkpt>
<trkpt lat="20.957426" lon="107.050560">
<ele>42.782745</ele>
<time>2011-04-30T03:57:15Z</time>
<desc>lat.=20.957426, lon.=107.050560, Alt.=42.782745m. Speed=0.648000m/h.</desc>
<speed>0.180000</speed>
</trkpt>
<trkpt lat="20.957434" lon="107.050552">
<ele>43.527863</ele>
<time>2011-04-30T03:57:20Z</time>
<desc>lat.=20.957434, lon.=107.050552, Alt.=43.527863m. Speed=0.576000m/h.</desc>
<speed>0.160000</speed>
</trkpt>
<trkpt lat="20.957439" lon="107.050552">
<ele>44.271027</ele>
<time>2011-04-30T03:57:25Z</time>
<desc>lat.=20.957439, lon.=107.050552, Alt.=44.271027m. Speed=0.864000m/h.</desc>
<speed>0.240000</speed>
</trkpt>
<trkpt lat="20.957449" lon="107.050552">
<ele>45.043488</ele>
<time>2011-04-30T03:57:30Z</time>
<desc>lat.=20.957449, lon.=107.050552, Alt.=45.043488m. Speed=0.540000m/h.</desc>
<speed>0.150000</speed>
</trkpt>
<trkpt lat="20.957458" lon="107.050545">
<ele>45.883331</ele>
<time>2011-04-30T03:57:35Z</time>
<desc>lat.=20.957458, lon.=107.050545, Alt.=45.883331m. Speed=0.936000m/h.</desc>
<speed>0.260000</speed>
</trkpt>
<trkpt lat="20.957489" lon="107.050545">
<ele>47.117706</ele>
<time>2011-04-30T03:57:40Z</time>
<desc>lat.=20.957489, lon.=107.050545, Alt.=47.117706m. Speed=1.080000m/h.</desc>
<speed>0.300000</speed>
</trkpt>
<trkpt lat="20.957533" lon="107.050529">
<ele>48.585480</ele>
<time>2011-04-30T03:57:45Z</time>
<desc>lat.=20.957533, lon.=107.050529, Alt.=48.585480m. Speed=0.792000m/h.</desc>
<speed>0.220000</speed>
</trkpt>
<trkpt lat="20.957542" lon="107.050529">
<ele>50.034698</ele>
<time>2011-04-30T03:57:50Z</time>
<desc>lat.=20.957542, lon.=107.050529, Alt.=50.034698m. Speed=0.612000m/h.</desc>
<speed>0.170000</speed>
</trkpt>
<trkpt lat="20.957561" lon="107.050514">
<ele>51.417511</ele>
<time>2011-04-30T03:57:55Z</time>
<desc>lat.=20.957561, lon.=107.050514, Alt.=51.417511m. Speed=1.080000m/h.</desc>
<speed>0.300000</speed>
</trkpt>
<trkpt lat="20.957560" lon="107.050499">
<ele>52.058136</ele>
<time>2011-04-30T03:58:00Z</time>
<desc>lat.=20.957560, lon.=107.050499, Alt.=52.058136m. Speed=1.368000m/h.</desc>
<speed>0.380000</speed>
</trkpt>
<trkpt lat="20.957539" lon="107.050499">
<ele>52.391144</ele>
<time>2011-04-30T03:58:05Z</time>
<desc>lat.=20.957539, lon.=107.050499, Alt.=52.391144m. Speed=2.736000m/h.</desc>
<speed>0.760000</speed>
</trkpt>
<trkpt lat="20.957525" lon="107.050468">
<ele>52.267120</ele>
<time>2011-04-30T03:58:10Z</time>
<desc>lat.=20.957525, lon.=107.050468, Alt.=52.267120m. Speed=1.980000m/h.</desc>
<speed>0.550000</speed>
</trkpt>
<trkpt lat="20.957516" lon="107.050476">
<ele>51.807159</ele>
<time>2011-04-30T03:58:15Z</time>
<desc>lat.=20.957516, lon.=107.050476, Alt.=51.807159m. Speed=0.684000m/h.</desc>
<speed>0.190000</speed>
</trkpt>
<trkpt lat="20.957520" lon="107.050491">
<ele>52.227081</ele>
<time>2011-04-30T03:58:20Z</time>
<desc>lat.=20.957520, lon.=107.050491, Alt.=52.227081m. Speed=0.648000m/h.</desc>
<speed>0.180000</speed>
</trkpt>
<trkpt lat="20.957520" lon="107.050491">
<ele>52.923370</ele>
<time>2011-04-30T03:58:25Z</time>
<desc>lat.=20.957520, lon.=107.050491, Alt.=52.923370m. Speed=0.720000m/h.</desc>
<speed>0.200000</speed>
</trkpt>
<trkpt lat="20.957521" lon="107.050491">
<ele>53.625519</ele>
<time>2011-04-30T03:58:30Z</time>
<desc>lat.=20.957521, lon.=107.050491, Alt.=53.625519m. Speed=0.396000m/h.</desc>
<speed>0.110000</speed>
</trkpt>
<trkpt lat="20.957520" lon="107.050491">
<ele>54.490753</ele>
<time>2011-04-30T03:58:35Z</time>
<desc>lat.=20.957520, lon.=107.050491, Alt.=54.490753m. Speed=0.540000m/h.</desc>
<speed>0.150000</speed>
</trkpt>
<trkpt lat="20.957485" lon="107.050476">
<ele>55.233917</ele>
<time>2011-04-30T03:58:40Z</time>
<desc>lat.=20.957485, lon.=107.050476, Alt.=55.233917m. Speed=1.584000m/h.</desc>
<speed>0.440000</speed>
</trkpt>
<trkpt lat="20.957453" lon="107.050446">
<ele>55.516144</ele>
<time>2011-04-30T03:58:45Z</time>
<desc>lat.=20.957453, lon.=107.050446, Alt.=55.516144m. Speed=1.728000m/h.</desc>
<speed>0.480000</speed>
</trkpt>
<trkpt lat="20.957376" lon="107.050461">
<ele>55.871613</ele>
<time>2011-04-30T03:58:50Z</time>
<desc>lat.=20.957376, lon.=107.050461, Alt.=55.871613m. Speed=1.512000m/h.</desc>
<speed>0.420000</speed>
</trkpt>
<trkpt lat="20.957338" lon="107.050468">
<ele>56.480011</ele>
<time>2011-04-30T03:58:55Z</time>
<desc>lat.=20.957338, lon.=107.050468, Alt.=56.480011m. Speed=1.548000m/h.</desc>
<speed>0.430000</speed>
</trkpt>
<trkpt lat="20.957323" lon="107.050468">
<ele>56.686066</ele>
<time>2011-04-30T03:59:00Z</time>
<desc>lat.=20.957323, lon.=107.050468, Alt.=56.686066m. Speed=1.476000m/h.</desc>
<speed>0.410000</speed>
</trkpt>
<trkpt lat="20.957310" lon="107.050468">
<ele>57.227081</ele>
<time>2011-04-30T03:59:05Z</time>
<desc>lat.=20.957310, lon.=107.050468, Alt.=57.227081m. Speed=1.404000m/h.</desc>
<speed>0.390000</speed>
</trkpt>
<trkpt lat="20.957397" lon="107.050804">
<ele>52.041534</ele>
<time>2011-04-30T03:59:47Z</time>
<desc>lat.=20.957397, lon.=107.050804, Alt.=52.041534m. Speed=0.180000m/h.</desc>
<speed>0.050000</speed>
</trkpt>
<trkpt lat="20.957390" lon="107.050804">
<ele>52.042511</ele>
<time>2011-04-30T03:59:52Z</time>
<desc>lat.=20.957390, lon.=107.050804, Alt.=52.042511m. Speed=0.324000m/h.</desc>
<speed>0.090000</speed>
</trkpt>
<trkpt lat="20.957386" lon="107.050804">
<ele>52.044464</ele>
<time>2011-04-30T03:59:57Z</time>
<desc>lat.=20.957386, lon.=107.050804, Alt.=52.044464m. Speed=0.468000m/h.</desc>
<speed>0.130000</speed>
</trkpt>
<trkpt lat="20.957329" lon="107.050476">
<ele>53.613800</ele>
<time>2011-04-30T04:00:19Z</time>
<desc>lat.=20.957329, lon.=107.050476, Alt.=53.613800m. Speed=0.324000m/h.</desc>
<speed>0.090000</speed>
</trkpt>
<trkpt lat="20.957327" lon="107.050430">
<ele>69.842834</ele>
<time>2011-04-30T04:00:24Z</time>
<desc>lat.=20.957327, lon.=107.050430, Alt.=69.842834m. Speed=0.540000m/h.</desc>
<speed>0.150000</speed>
</trkpt>
<trkpt lat="20.957321" lon="107.050423">
<ele>69.294006</ele>
<time>2011-04-30T04:00:29Z</time>
<desc>lat.=20.957321, lon.=107.050423, Alt.=69.294006m. Speed=0.936000m/h.</desc>
<speed>0.260000</speed>
</trkpt>
<trkpt lat="20.957317" lon="107.050415">
<ele>69.049866</ele>
<time>2011-04-30T04:00:34Z</time>
<desc>lat.=20.957317, lon.=107.050415, Alt.=69.049866m. Speed=0.684000m/h.</desc>
<speed>0.190000</speed>
</trkpt>
<trkpt lat="20.957319" lon="107.050400">
<ele>68.938538</ele>
<time>2011-04-30T04:00:39Z</time>
<desc>lat.=20.957319, lon.=107.050400, Alt.=68.938538m. Speed=0.900000m/h.</desc>
<speed>0.250000</speed>
</trkpt>
<trkpt lat="20.957352" lon="107.050346">
<ele>66.133850</ele>
<time>2011-04-30T04:00:44Z</time>
<desc>lat.=20.957352, lon.=107.050346, Alt.=66.133850m. Speed=1.800000m/h.</desc>
<speed>0.500000</speed>
</trkpt>
<trkpt lat="20.957369" lon="107.050339">
<ele>64.711975</ele>
<time>2011-04-30T04:00:49Z</time>
<desc>lat.=20.957369, lon.=107.050339, Alt.=64.711975m. Speed=1.116000m/h.</desc>
<speed>0.310000</speed>
</trkpt>
<trkpt lat="20.957388" lon="107.050339">
<ele>63.418488</ele>
<time>2011-04-30T04:00:54Z</time>
<desc>lat.=20.957388, lon.=107.050339, Alt.=63.418488m. Speed=0.684000m/h.</desc>
<speed>0.190000</speed>
</trkpt>
<trkpt lat="20.957394" lon="107.050339">
<ele>63.393097</ele>
<time>2011-04-30T04:00:59Z</time>
<desc>lat.=20.957394, lon.=107.050339, Alt.=63.393097m. Speed=0.324000m/h.</desc>
<speed>0.090000</speed>
</trkpt>
<trkpt lat="20.957396" lon="107.050339">
<ele>63.382355</ele>
<time>2011-04-30T04:01:04Z</time>
<desc>lat.=20.957396, lon.=107.050339, Alt.=63.382355m. Speed=0.360000m/h.</desc>
<speed>0.100000</speed>
</trkpt>
<trkpt lat="20.957392" lon="107.050346">
<ele>63.364777</ele>
<time>2011-04-30T04:01:09Z</time>
<desc>lat.=20.957392, lon.=107.050346, Alt.=63.364777m. Speed=0.720000m/h.</desc>
<speed>0.200000</speed>
</trkpt>
<trkpt lat="20.957390" lon="107.050362">
<ele>63.327667</ele>
<time>2011-04-30T04:01:14Z</time>
<desc>lat.=20.957390, lon.=107.050362, Alt.=63.327667m. Speed=0.936000m/h.</desc>
<speed>0.260000</speed>
</trkpt>
<trkpt lat="20.957384" lon="107.050392">
<ele>62.306183</ele>
<time>2011-04-30T04:01:19Z</time>
<desc>lat.=20.957384, lon.=107.050392, Alt.=62.306183m. Speed=1.080000m/h.</desc>
<speed>0.300000</speed>
</trkpt>
<trkpt lat="20.957397" lon="107.050415">
<ele>60.609894</ele>
<time>2011-04-30T04:01:24Z</time>
<desc>lat.=20.957397, lon.=107.050415, Alt.=60.609894m. Speed=1.008000m/h.</desc>
<speed>0.280000</speed>
</trkpt>
<trkpt lat="20.957417" lon="107.050407">
<ele>60.012238</ele>
<time>2011-04-30T04:01:29Z</time>
<desc>lat.=20.957417, lon.=107.050407, Alt.=60.012238m. Speed=0.792000m/h.</desc>
<speed>0.220000</speed>
</trkpt>
<trkpt lat="20.957418" lon="107.050415">
<ele>59.919464</ele>
<time>2011-04-30T04:01:34Z</time>
<desc>lat.=20.957418, lon.=107.050415, Alt.=59.919464m. Speed=0.576000m/h.</desc>
<speed>0.160000</speed>
</trkpt>
<trkpt lat="20.957420" lon="107.050423">
<ele>59.822784</ele>
<time>2011-04-30T04:01:39Z</time>
<desc>lat.=20.957420, lon.=107.050423, Alt.=59.822784m. Speed=0.864000m/h.</desc>
<speed>0.240000</speed>
</trkpt>
<trkpt lat="20.957415" lon="107.050446">
<ele>59.354034</ele>
<time>2011-04-30T04:01:44Z</time>
<desc>lat.=20.957415, lon.=107.050446, Alt.=59.354034m. Speed=0.972000m/h.</desc>
<speed>0.270000</speed>
</trkpt>
<trkpt lat="20.957392" lon="107.050499">
<ele>58.565948</ele>
<time>2011-04-30T04:01:49Z</time>
<desc>lat.=20.957392, lon.=107.050499, Alt.=58.565948m. Speed=1.440000m/h.</desc>
<speed>0.400000</speed>
</trkpt>
<trkpt lat="20.957363" lon="107.050522">
<ele>57.990753</ele>
<time>2011-04-30T04:01:54Z</time>
<desc>lat.=20.957363, lon.=107.050522, Alt.=57.990753m. Speed=1.908000m/h.</desc>
<speed>0.530000</speed>
</trkpt>
<trkpt lat="20.957396" lon="107.050529">
<ele>57.365753</ele>
<time>2011-04-30T04:01:59Z</time>
<desc>lat.=20.957396, lon.=107.050529, Alt.=57.365753m. Speed=1.332000m/h.</desc>
<speed>0.370000</speed>
</trkpt>
<trkpt lat="20.957441" lon="107.050560">
<ele>56.730011</ele>
<time>2011-04-30T04:02:04Z</time>
<desc>lat.=20.957441, lon.=107.050560, Alt.=56.730011m. Speed=1.872000m/h.</desc>
<speed>0.520000</speed>
</trkpt>
<trkpt lat="20.957451" lon="107.050568">
<ele>56.241730</ele>
<time>2011-04-30T04:02:09Z</time>
<desc>lat.=20.957451, lon.=107.050568, Alt.=56.241730m. Speed=1.332000m/h.</desc>
<speed>0.370000</speed>
</trkpt>
<trkpt lat="20.957487" lon="107.050568">
<ele>55.830597</ele>
<time>2011-04-30T04:02:14Z</time>
<desc>lat.=20.957487, lon.=107.050568, Alt.=55.830597m. Speed=1.008000m/h.</desc>
<speed>0.280000</speed>
</trkpt>
<trkpt lat="20.957520" lon="107.050598">
<ele>55.174347</ele>
<time>2011-04-30T04:02:19Z</time>
<desc>lat.=20.957520, lon.=107.050598, Alt.=55.174347m. Speed=1.368000m/h.</desc>
<speed>0.380000</speed>
</trkpt>
<trkpt lat="20.957531" lon="107.050629">
<ele>54.767120</ele>
<time>2011-04-30T04:02:24Z</time>
<desc>lat.=20.957531, lon.=107.050629, Alt.=54.767120m. Speed=1.404000m/h.</desc>
<speed>0.390000</speed>
</trkpt>
<trkpt lat="20.957539" lon="107.050636">
<ele>54.451691</ele>
<time>2011-04-30T04:02:29Z</time>
<desc>lat.=20.957539, lon.=107.050636, Alt.=54.451691m. Speed=1.296000m/h.</desc>
<speed>0.360000</speed>
</trkpt>
<trkpt lat="20.957546" lon="107.050652">
<ele>54.195831</ele>
<time>2011-04-30T04:02:34Z</time>
<desc>lat.=20.957546, lon.=107.050652, Alt.=54.195831m. Speed=1.404000m/h.</desc>
<speed>0.390000</speed>
</trkpt>
<trkpt lat="20.957529" lon="107.050613">
<ele>53.997589</ele>
<time>2011-04-30T04:02:39Z</time>
<desc>lat.=20.957529, lon.=107.050613, Alt.=53.997589m. Speed=1.044000m/h.</desc>
<speed>0.290000</speed>
</trkpt>
<trkpt lat="20.957508" lon="107.050468">
<ele>53.639191</ele>
<time>2011-04-30T04:02:44Z</time>
<desc>lat.=20.957508, lon.=107.050468, Alt.=53.639191m. Speed=1.224000m/h.</desc>
<speed>0.340000</speed>
</trkpt>
<trkpt lat="20.957523" lon="107.050446">
<ele>53.376495</ele>
<time>2011-04-30T04:02:49Z</time>
<desc>lat.=20.957523, lon.=107.050446, Alt.=53.376495m. Speed=1.332000m/h.</desc>
<speed>0.370000</speed>
</trkpt>
<trkpt lat="20.957541" lon="107.050385">
<ele>53.048370</ele>
<time>2011-04-30T04:02:54Z</time>
<desc>lat.=20.957541, lon.=107.050385, Alt.=53.048370m. Speed=1.656000m/h.</desc>
<speed>0.460000</speed>
</trkpt>
<trkpt lat="20.957573" lon="107.050339">
<ele>52.141144</ele>
<time>2011-04-30T04:02:59Z</time>
<desc>lat.=20.957573, lon.=107.050339, Alt.=52.141144m. Speed=1.728000m/h.</desc>
<speed>0.480000</speed>
</trkpt>
<trkpt lat="20.957584" lon="107.050323">
<ele>51.416534</ele>
<time>2011-04-30T04:03:04Z</time>
<desc>lat.=20.957584, lon.=107.050323, Alt.=51.416534m. Speed=1.944000m/h.</desc>
<speed>0.540000</speed>
</trkpt>
<trkpt lat="20.957579" lon="107.050354">
<ele>51.098175</ele>
<time>2011-04-30T04:03:09Z</time>
<desc>lat.=20.957579, lon.=107.050354, Alt.=51.098175m. Speed=1.404000m/h.</desc>
<speed>0.390000</speed>
</trkpt>
<trkpt lat="20.957537" lon="107.050323">
<ele>50.668488</ele>
<time>2011-04-30T04:03:14Z</time>
<desc>lat.=20.957537, lon.=107.050323, Alt.=50.668488m. Speed=0.792000m/h.</desc>
<speed>0.220000</speed>
</trkpt>
<trkpt lat="20.957495" lon="107.050339">
<ele>50.821808</ele>
<time>2011-04-30T04:03:19Z</time>
<desc>lat.=20.957495, lon.=107.050339, Alt.=50.821808m. Speed=1.908000m/h.</desc>
<speed>0.530000</speed>
</trkpt>
<trkpt lat="20.957464" lon="107.050392">
<ele>50.921417</ele>
<time>2011-04-30T04:03:24Z</time>
<desc>lat.=20.957464, lon.=107.050392, Alt.=50.921417m. Speed=2.556000m/h.</desc>
<speed>0.710000</speed>
</trkpt>
<trkpt lat="20.957466" lon="107.050407">
<ele>50.631378</ele>
<time>2011-04-30T04:03:29Z</time>
<desc>lat.=20.957466, lon.=107.050407, Alt.=50.631378m. Speed=1.260000m/h.</desc>
<speed>0.350000</speed>
</trkpt>
<trkpt lat="20.957460" lon="107.050400">
<ele>50.262238</ele>
<time>2011-04-30T04:03:34Z</time>
<desc>lat.=20.957460, lon.=107.050400, Alt.=50.262238m. Speed=1.152000m/h.</desc>
<speed>0.320000</speed>
</trkpt>
<trkpt lat="20.957462" lon="107.050392">
<ele>50.135284</ele>
<time>2011-04-30T04:03:39Z</time>
<desc>lat.=20.957462, lon.=107.050392, Alt.=50.135284m. Speed=0.936000m/h.</desc>
<speed>0.260000</speed>
</trkpt>
<trkpt lat="20.957449" lon="107.050392">
<ele>50.097198</ele>
<time>2011-04-30T04:03:44Z</time>
<desc>lat.=20.957449, lon.=107.050392, Alt.=50.097198m. Speed=0.684000m/h.</desc>
<speed>0.190000</speed>
</trkpt>
<trkpt lat="20.957443" lon="107.050392">
<ele>50.151886</ele>
<time>2011-04-30T04:03:49Z</time>
<desc>lat.=20.957443, lon.=107.050392, Alt.=50.151886m. Speed=0.252000m/h.</desc>
<speed>0.070000</speed>
</trkpt>
<trkpt lat="20.957439" lon="107.050400">
<ele>50.204620</ele>
<time>2011-04-30T04:03:54Z</time>
<desc>lat.=20.957439, lon.=107.050400, Alt.=50.204620m. Speed=0.432000m/h.</desc>
<speed>0.120000</speed>
</trkpt>
<trkpt lat="20.957439" lon="107.050407">
<ele>50.258331</ele>
<time>2011-04-30T04:03:59Z</time>
<desc>lat.=20.957439, lon.=107.050407, Alt.=50.258331m. Speed=0.720000m/h.</desc>
<speed>0.200000</speed>
</trkpt>
<trkpt lat="20.957441" lon="107.050415">
<ele>50.313995</ele>
<time>2011-04-30T04:04:04Z</time>
<desc>lat.=20.957441, lon.=107.050415, Alt.=50.313995m. Speed=0.900000m/h.</desc>
<speed>0.250000</speed>
</trkpt>
<trkpt lat="20.957428" lon="107.050453">
<ele>50.373566</ele>
<time>2011-04-30T04:04:09Z</time>
<desc>lat.=20.957428, lon.=107.050453, Alt.=50.373566m. Speed=1.440000m/h.</desc>
<speed>0.400000</speed>
</trkpt>
<trkpt lat="20.957397" lon="107.050522">
<ele>50.411652</ele>
<time>2011-04-30T04:04:14Z</time>
<desc>lat.=20.957397, lon.=107.050522, Alt.=50.411652m. Speed=1.836000m/h.</desc>
<speed>0.510000</speed>
</trkpt>
<trkpt lat="20.957376" lon="107.050537">
<ele>50.295441</ele>
<time>2011-04-30T04:04:19Z</time>
<desc>lat.=20.957376, lon.=107.050537, Alt.=50.295441m. Speed=1.440000m/h.</desc>
<speed>0.400000</speed>
</trkpt>
<trkpt lat="20.957331" lon="107.050537">
<ele>49.923370</ele>
<time>2011-04-30T04:04:24Z</time>
<desc>lat.=20.957331, lon.=107.050537, Alt.=49.923370m. Speed=1.296000m/h.</desc>
<speed>0.360000</speed>
</trkpt>
<trkpt lat="20.957306" lon="107.050522">
<ele>49.478058</ele>
<time>2011-04-30T04:04:29Z</time>
<desc>lat.=20.957306, lon.=107.050522, Alt.=49.478058m. Speed=1.152000m/h.</desc>
<speed>0.320000</speed>
</trkpt>
<trkpt lat="20.957312" lon="107.050507">
<ele>49.145050</ele>
<time>2011-04-30T04:04:34Z</time>
<desc>lat.=20.957312, lon.=107.050507, Alt.=49.145050m. Speed=0.828000m/h.</desc>
<speed>0.230000</speed>
</trkpt>
<trkpt lat="20.957283" lon="107.050522">
<ele>49.164581</ele>
<time>2011-04-30T04:04:39Z</time>
<desc>lat.=20.957283, lon.=107.050522, Alt.=49.164581m. Speed=1.368000m/h.</desc>
<speed>0.380000</speed>
</trkpt>
<trkpt lat="20.957264" lon="107.050507">
<ele>49.049347</ele>
<time>2011-04-30T04:04:44Z</time>
<desc>lat.=20.957264, lon.=107.050507, Alt.=49.049347m. Speed=1.080000m/h.</desc>
<speed>0.300000</speed>
</trkpt>
<trkpt lat="20.957237" lon="107.050514">
<ele>48.701691</ele>
<time>2011-04-30T04:04:49Z</time>
<desc>lat.=20.957237, lon.=107.050514, Alt.=48.701691m. Speed=1.080000m/h.</desc>
<speed>0.300000</speed>
</trkpt>
<trkpt lat="20.957211" lon="107.050514">
<ele>48.737823</ele>
<time>2011-04-30T04:04:54Z</time>
<desc>lat.=20.957211, lon.=107.050514, Alt.=48.737823m. Speed=1.440000m/h.</desc>
<speed>0.400000</speed>
</trkpt>
<trkpt lat="20.957184" lon="107.050529">
<ele>48.611847</ele>
<time>2011-04-30T04:04:59Z</time>
<desc>lat.=20.957184, lon.=107.050529, Alt.=48.611847m. Speed=1.512000m/h.</desc>
<speed>0.420000</speed>
</trkpt>
<trkpt lat="20.957157" lon="107.050552">
<ele>48.545441</ele>
<time>2011-04-30T04:05:04Z</time>
<desc>lat.=20.957157, lon.=107.050552, Alt.=48.545441m. Speed=1.836000m/h.</desc>
<speed>0.510000</speed>
</trkpt>
<trkpt lat="20.957066" lon="107.050568">
<ele>48.489777</ele>
<time>2011-04-30T04:05:09Z</time>
<desc>lat.=20.957066, lon.=107.050568, Alt.=48.489777m. Speed=3.636000m/h.</desc>
<speed>1.010000</speed>
</trkpt>
<trkpt lat="20.957399" lon="107.050285">
<ele>54.332550</ele>
<time>2011-04-30T04:05:47Z</time>
<desc>lat.=20.957399, lon.=107.050285, Alt.=54.332550m. Speed=0.936000m/h.</desc>
<speed>0.260000</speed>
</trkpt>
<trkpt lat="20.957438" lon="107.050323">
<ele>65.315491</ele>
<time>2011-04-30T04:05:52Z</time>
<desc>lat.=20.957438, lon.=107.050323, Alt.=65.315491m. Speed=0.936000m/h.</desc>
<speed>0.260000</speed>
</trkpt>
<trkpt lat="20.957432" lon="107.050308">
<ele>48.163605</ele>
<time>2011-04-30T04:05:57Z</time>
<desc>lat.=20.957432, lon.=107.050308, Alt.=48.163605m. Speed=0.252000m/h.</desc>
<speed>0.070000</speed>
</trkpt>
<trkpt lat="20.957447" lon="107.050301">
<ele>45.709503</ele>
<time>2011-04-30T04:06:02Z</time>
<desc>lat.=20.957447, lon.=107.050301, Alt.=45.709503m. Speed=0.324000m/h.</desc>
<speed>0.090000</speed>
</trkpt>
<trkpt lat="20.957447" lon="107.050323">
<ele>42.811066</ele>
<time>2011-04-30T04:06:07Z</time>
<desc>lat.=20.957447, lon.=107.050323, Alt.=42.811066m. Speed=0.612000m/h.</desc>
<speed>0.170000</speed>
</trkpt>
<trkpt lat="20.957458" lon="107.050308">
<ele>42.907745</ele>
<time>2011-04-30T04:06:12Z</time>
<desc>lat.=20.957458, lon.=107.050308, Alt.=42.907745m. Speed=0.540000m/h.</desc>
<speed>0.150000</speed>
</trkpt>
<trkpt lat="20.957449" lon="107.050323">
<ele>43.500519</ele>
<time>2011-04-30T04:06:17Z</time>
<desc>lat.=20.957449, lon.=107.050323, Alt.=43.500519m. Speed=0.468000m/h.</desc>
<speed>0.130000</speed>
</trkpt>
<trkpt lat="20.957443" lon="107.050354">
<ele>44.087433</ele>
<time>2011-04-30T04:06:22Z</time>
<desc>lat.=20.957443, lon.=107.050354, Alt.=44.087433m. Speed=0.684000m/h.</desc>
<speed>0.190000</speed>
</trkpt>
<trkpt lat="20.957441" lon="107.050354">
<ele>44.894073</ele>
<time>2011-04-30T04:06:27Z</time>
<desc>lat.=20.957441, lon.=107.050354, Alt.=44.894073m. Speed=0.216000m/h.</desc>
<speed>0.060000</speed>
</trkpt>
<trkpt lat="20.957466" lon="107.050346">
<ele>45.502472</ele>
<time>2011-04-30T04:06:32Z</time>
<desc>lat.=20.957466, lon.=107.050346, Alt.=45.502472m. Speed=0.540000m/h.</desc>
<speed>0.150000</speed>
</trkpt>
<trkpt lat="20.957470" lon="107.050346">
<ele>45.758331</ele>
<time>2011-04-30T04:06:37Z</time>
<desc>lat.=20.957470, lon.=107.050346, Alt.=45.758331m. Speed=0.396000m/h.</desc>
<speed>0.110000</speed>
</trkpt>
<trkpt lat="20.957478" lon="107.050339">
<ele>45.813995</ele>
<time>2011-04-30T04:06:42Z</time>
<desc>lat.=20.957478, lon.=107.050339, Alt.=45.813995m. Speed=0.648000m/h.</desc>
<speed>0.180000</speed>
</trkpt>
<trkpt lat="20.957481" lon="107.050339">
<ele>45.884308</ele>
<time>2011-04-30T04:06:47Z</time>
<desc>lat.=20.957481, lon.=107.050339, Alt.=45.884308m. Speed=0.576000m/h.</desc>
<speed>0.160000</speed>
</trkpt>
<trkpt lat="20.957479" lon="107.050331">
<ele>45.952667</ele>
<time>2011-04-30T04:06:52Z</time>
<desc>lat.=20.957479, lon.=107.050331, Alt.=45.952667m. Speed=0.504000m/h.</desc>
<speed>0.140000</speed>
</trkpt>
<trkpt lat="20.957478" lon="107.050323">
<ele>46.029816</ele>
<time>2011-04-30T04:06:57Z</time>
<desc>lat.=20.957478, lon.=107.050323, Alt.=46.029816m. Speed=0.108000m/h.</desc>
<speed>0.030000</speed>
</trkpt>
<trkpt lat="20.957476" lon="107.050323">
<ele>46.115753</ele>
<time>2011-04-30T04:07:02Z</time>
<desc>lat.=20.957476, lon.=107.050323, Alt.=46.115753m. Speed=0.324000m/h.</desc>
<speed>0.090000</speed>
</trkpt>
<trkpt lat="20.957472" lon="107.050323">
<ele>46.202667</ele>
<time>2011-04-30T04:07:07Z</time>
<desc>lat.=20.957472, lon.=107.050323, Alt.=46.202667m. Speed=0.540000m/h.</desc>
<speed>0.150000</speed>
</trkpt>
<trkpt lat="20.957460" lon="107.050323">
<ele>46.289581</ele>
<time>2011-04-30T04:07:12Z</time>
<desc>lat.=20.957460, lon.=107.050323, Alt.=46.289581m. Speed=0.684000m/h.</desc>
<speed>0.190000</speed>
</trkpt>
<trkpt lat="20.957449" lon="107.050331">
<ele>46.243683</ele>
<time>2011-04-30T04:07:17Z</time>
<desc>lat.=20.957449, lon.=107.050331, Alt.=46.243683m. Speed=0.612000m/h.</desc>
<speed>0.170000</speed>
</trkpt>
<trkpt lat="20.957430" lon="107.050354">
<ele>46.263214</ele>
<time>2011-04-30T04:07:22Z</time>
<desc>lat.=20.957430, lon.=107.050354, Alt.=46.263214m. Speed=0.684000m/h.</desc>
<speed>0.190000</speed>
</trkpt>
<trkpt lat="20.957420" lon="107.050346">
<ele>46.207550</ele>
<time>2011-04-30T04:07:27Z</time>
<desc>lat.=20.957420, lon.=107.050346, Alt.=46.207550m. Speed=1.044000m/h.</desc>
<speed>0.290000</speed>
</trkpt>
<trkpt lat="20.957430" lon="107.050323">
<ele>45.887238</ele>
<time>2011-04-30T04:07:32Z</time>
<desc>lat.=20.957430, lon.=107.050323, Alt.=45.887238m. Speed=1.080000m/h.</desc>
<speed>0.300000</speed>
</trkpt>
<trkpt lat="20.957415" lon="107.050316">
<ele>45.731964</ele>
<time>2011-04-30T04:07:37Z</time>
<desc>lat.=20.957415, lon.=107.050316, Alt.=45.731964m. Speed=1.080000m/h.</desc>
<speed>0.300000</speed>
</trkpt>
<trkpt lat="20.957445" lon="107.050301">
<ele>45.871613</ele>
<time>2011-04-30T04:07:42Z</time>
<desc>lat.=20.957445, lon.=107.050301, Alt.=45.871613m. Speed=0.684000m/h.</desc>
<speed>0.190000</speed>
</trkpt>
<trkpt lat="20.957464" lon="107.050301">
<ele>45.946808</ele>
<time>2011-04-30T04:07:47Z</time>
<desc>lat.=20.957464, lon.=107.050301, Alt.=45.946808m. Speed=0.252000m/h.</desc>
<speed>0.070000</speed>
</trkpt>
<trkpt lat="20.957457" lon="107.050308">
<ele>45.847198</ele>
<time>2011-04-30T04:07:52Z</time>
<desc>lat.=20.957457, lon.=107.050308, Alt.=45.847198m. Speed=0.144000m/h.</desc>
<speed>0.040000</speed>
</trkpt>
<trkpt lat="20.957485" lon="107.050308">
<ele>45.883331</ele>
<time>2011-04-30T04:07:57Z</time>
<desc>lat.=20.957485, lon.=107.050308, Alt.=45.883331m. Speed=0.612000m/h.</desc>
<speed>0.170000</speed>
</trkpt>
<trkpt lat="20.957497" lon="107.050316">
<ele>45.687042</ele>
<time>2011-04-30T04:08:02Z</time>
<desc>lat.=20.957497, lon.=107.050316, Alt.=45.687042m. Speed=1.980000m/h.</desc>
<speed>0.550000</speed>
</trkpt>
<trkpt lat="20.957508" lon="107.050316">
<ele>45.472198</ele>
<time>2011-04-30T04:08:07Z</time>
<desc>lat.=20.957508, lon.=107.050316, Alt.=45.472198m. Speed=1.260000m/h.</desc>
<speed>0.350000</speed>
</trkpt>
<trkpt lat="20.957495" lon="107.050385">
<ele>45.801300</ele>
<time>2011-04-30T04:08:12Z</time>
<desc>lat.=20.957495, lon.=107.050385, Alt.=45.801300m. Speed=1.404000m/h.</desc>
<speed>0.390000</speed>
</trkpt>
<trkpt lat="20.957495" lon="107.050430">
<ele>45.607941</ele>
<time>2011-04-30T04:08:17Z</time>
<desc>lat.=20.957495, lon.=107.050430, Alt.=45.607941m. Speed=1.620000m/h.</desc>
<speed>0.450000</speed>
</trkpt>
<trkpt lat="20.957502" lon="107.050430">
<ele>45.567902</ele>
<time>2011-04-30T04:08:22Z</time>
<desc>lat.=20.957502, lon.=107.050430, Alt.=45.567902m. Speed=0.648000m/h.</desc>
<speed>0.180000</speed>
</trkpt>
<trkpt lat="20.957495" lon="107.050438">
<ele>45.773956</ele>
<time>2011-04-30T04:08:27Z</time>
<desc>lat.=20.957495, lon.=107.050438, Alt.=45.773956m. Speed=0.936000m/h.</desc>
<speed>0.260000</speed>
</trkpt>
<trkpt lat="20.957502" lon="107.050407">
<ele>45.863800</ele>
<time>2011-04-30T04:08:32Z</time>
<desc>lat.=20.957502, lon.=107.050407, Alt.=45.863800m. Speed=0.432000m/h.</desc>
<speed>0.120000</speed>
</trkpt>
<trkpt lat="20.957504" lon="107.050400">
<ele>45.969269</ele>
<time>2011-04-30T04:08:37Z</time>
<desc>lat.=20.957504, lon.=107.050400, Alt.=45.969269m. Speed=0.360000m/h.</desc>
<speed>0.100000</speed>
</trkpt>
<trkpt lat="20.957489" lon="107.050392">
<ele>45.988800</ele>
<time>2011-04-30T04:08:42Z</time>
<desc>lat.=20.957489, lon.=107.050392, Alt.=45.988800m. Speed=0.252000m/h.</desc>
<speed>0.070000</speed>
</trkpt>
<trkpt lat="20.957443" lon="107.050438">
<ele>45.963409</ele>
<time>2011-04-30T04:08:47Z</time>
<desc>lat.=20.957443, lon.=107.050438, Alt.=45.963409m. Speed=0.540000m/h.</desc>
<speed>0.150000</speed>
</trkpt>
<trkpt lat="20.957401" lon="107.050453">
<ele>45.779816</ele>
<time>2011-04-30T04:08:52Z</time>
<desc>lat.=20.957401, lon.=107.050453, Alt.=45.779816m. Speed=1.152000m/h.</desc>
<speed>0.320000</speed>
</trkpt>
<trkpt lat="20.957411" lon="107.050415">
<ele>45.371613</ele>
<time>2011-04-30T04:08:57Z</time>
<desc>lat.=20.957411, lon.=107.050415, Alt.=45.371613m. Speed=1.008000m/h.</desc>
<speed>0.280000</speed>
</trkpt>
<trkpt lat="20.957428" lon="107.050369">
<ele>44.975128</ele>
<time>2011-04-30T04:09:02Z</time>
<desc>lat.=20.957428, lon.=107.050369, Alt.=44.975128m. Speed=0.540000m/h.</desc>
<speed>0.150000</speed>
</trkpt>
<trkpt lat="20.957439" lon="107.050323">
<ele>44.549347</ele>
<time>2011-04-30T04:09:07Z</time>
<desc>lat.=20.957439, lon.=107.050323, Alt.=44.549347m. Speed=0.756000m/h.</desc>
<speed>0.210000</speed>
</trkpt>
<trkpt lat="20.957428" lon="107.050308">
<ele>44.813019</ele>
<time>2011-04-30T04:09:12Z</time>
<desc>lat.=20.957428, lon.=107.050308, Alt.=44.813019m. Speed=0.936000m/h.</desc>
<speed>0.260000</speed>
</trkpt>
<trkpt lat="20.957422" lon="107.050278">
<ele>44.962433</ele>
<time>2011-04-30T04:09:17Z</time>
<desc>lat.=20.957422, lon.=107.050278, Alt.=44.962433m. Speed=1.404000m/h.</desc>
<speed>0.390000</speed>
</trkpt>
<trkpt lat="20.957420" lon="107.050285">
<ele>44.867706</ele>
<time>2011-04-30T04:09:22Z</time>
<desc>lat.=20.957420, lon.=107.050285, Alt.=44.867706m. Speed=0.828000m/h.</desc>
<speed>0.230000</speed>
</trkpt>
<trkpt lat="20.957420" lon="107.050278">
<ele>44.897003</ele>
<time>2011-04-30T04:09:27Z</time>
<desc>lat.=20.957420, lon.=107.050278, Alt.=44.897003m. Speed=0.576000m/h.</desc>
<speed>0.160000</speed>
</trkpt>
<trkpt lat="20.957424" lon="107.050270">
<ele>44.925323</ele>
<time>2011-04-30T04:09:32Z</time>
<desc>lat.=20.957424, lon.=107.050270, Alt.=44.925323m. Speed=0.648000m/h.</desc>
<speed>0.180000</speed>
</trkpt>
<trkpt lat="20.957428" lon="107.050262">
<ele>44.953644</ele>
<time>2011-04-30T04:09:37Z</time>
<desc>lat.=20.957428, lon.=107.050262, Alt.=44.953644m. Speed=0.540000m/h.</desc>
<speed>0.150000</speed>
</trkpt>
<trkpt lat="20.957436" lon="107.050255">
<ele>44.971222</ele>
<time>2011-04-30T04:09:42Z</time>
<desc>lat.=20.957436, lon.=107.050255, Alt.=44.971222m. Speed=0.576000m/h.</desc>
<speed>0.160000</speed>
</trkpt>
<trkpt lat="20.957441" lon="107.050255">
<ele>44.983917</ele>
<time>2011-04-30T04:09:47Z</time>
<desc>lat.=20.957441, lon.=107.050255, Alt.=44.983917m. Speed=0.468000m/h.</desc>
<speed>0.130000</speed>
</trkpt>
<trkpt lat="20.957441" lon="107.050278">
<ele>44.932159</ele>
<time>2011-04-30T04:09:52Z</time>
<desc>lat.=20.957441, lon.=107.050278, Alt.=44.932159m. Speed=0.828000m/h.</desc>
<speed>0.230000</speed>
</trkpt>
<trkpt lat="20.957428" lon="107.050339">
<ele>44.530792</ele>
<time>2011-04-30T04:09:57Z</time>
<desc>lat.=20.957428, lon.=107.050339, Alt.=44.530792m. Speed=1.584000m/h.</desc>
<speed>0.440000</speed>
</trkpt>
<trkpt lat="20.957415" lon="107.050385">
<ele>44.182159</ele>
<time>2011-04-30T04:10:02Z</time>
<desc>lat.=20.957415, lon.=107.050385, Alt.=44.182159m. Speed=1.836000m/h.</desc>
<speed>0.510000</speed>
</trkpt>
<trkpt lat="20.957384" lon="107.050438">
<ele>44.076691</ele>
<time>2011-04-30T04:10:07Z</time>
<desc>lat.=20.957384, lon.=107.050438, Alt.=44.076691m. Speed=2.196000m/h.</desc>
<speed>0.610000</speed>
</trkpt>
<trkpt lat="20.957367" lon="107.050461">
<ele>44.326691</ele>
<time>2011-04-30T04:10:12Z</time>
<desc>lat.=20.957367, lon.=107.050461, Alt.=44.326691m. Speed=3.384000m/h.</desc>
<speed>0.940000</speed>
</trkpt>
<trkpt lat="20.957411" lon="107.050476">
<ele>44.337433</ele>
<time>2011-04-30T04:10:17Z</time>
<desc>lat.=20.957411, lon.=107.050476, Alt.=44.337433m. Speed=2.808000m/h.</desc>
<speed>0.780000</speed>
</trkpt>
<trkpt lat="20.957380" lon="107.050461">
<ele>44.613800</ele>
<time>2011-04-30T04:10:22Z</time>
<desc>lat.=20.957380, lon.=107.050461, Alt.=44.613800m. Speed=0.396000m/h.</desc>
<speed>0.110000</speed>
</trkpt>
<trkpt lat="20.957405" lon="107.050484">
<ele>44.238800</ele>
<time>2011-04-30T04:10:27Z</time>
<desc>lat.=20.957405, lon.=107.050484, Alt.=44.238800m. Speed=1.116000m/h.</desc>
<speed>0.310000</speed>
</trkpt>
<trkpt lat="20.957422" lon="107.050461">
<ele>44.235870</ele>
<time>2011-04-30T04:10:32Z</time>
<desc>lat.=20.957422, lon.=107.050461, Alt.=44.235870m. Speed=0.648000m/h.</desc>
<speed>0.180000</speed>
</trkpt>
<trkpt lat="20.957401" lon="107.050446">
<ele>44.298370</ele>
<time>2011-04-30T04:10:37Z</time>
<desc>lat.=20.957401, lon.=107.050446, Alt.=44.298370m. Speed=1.116000m/h.</desc>
<speed>0.310000</speed>
</trkpt>
<trkpt lat="20.957428" lon="107.050362">
<ele>44.135284</ele>
<time>2011-04-30T04:10:42Z</time>
<desc>lat.=20.957428, lon.=107.050362, Alt.=44.135284m. Speed=1.908000m/h.</desc>
<speed>0.530000</speed>
</trkpt>
<trkpt lat="20.957458" lon="107.050316">
<ele>44.063019</ele>
<time>2011-04-30T04:10:47Z</time>
<desc>lat.=20.957458, lon.=107.050316, Alt.=44.063019m. Speed=2.088000m/h.</desc>
<speed>0.580000</speed>
</trkpt>
<trkpt lat="20.957474" lon="107.050308">
<ele>43.888214</ele>
<time>2011-04-30T04:10:52Z</time>
<desc>lat.=20.957474, lon.=107.050308, Alt.=43.888214m. Speed=1.728000m/h.</desc>
<speed>0.480000</speed>
</trkpt>
<trkpt lat="20.957489" lon="107.050255">
<ele>43.774933</ele>
<time>2011-04-30T04:10:57Z</time>
<desc>lat.=20.957489, lon.=107.050255, Alt.=43.774933m. Speed=2.052000m/h.</desc>
<speed>0.570000</speed>
</trkpt>
<trkpt lat="20.957441" lon="107.050262">
<ele>43.851105</ele>
<time>2011-04-30T04:11:02Z</time>
<desc>lat.=20.957441, lon.=107.050262, Alt.=43.851105m. Speed=1.620000m/h.</desc>
<speed>0.450000</speed>
</trkpt>
<trkpt lat="20.957394" lon="107.050217">
<ele>43.918488</ele>
<time>2011-04-30T04:11:07Z</time>
<desc>lat.=20.957394, lon.=107.050217, Alt.=43.918488m. Speed=2.376000m/h.</desc>
<speed>0.660000</speed>
</trkpt>
<trkpt lat="20.957396" lon="107.050186">
<ele>44.246613</ele>
<time>2011-04-30T04:11:12Z</time>
<desc>lat.=20.957396, lon.=107.050186, Alt.=44.246613m. Speed=1.296000m/h.</desc>
<speed>0.360000</speed>
</trkpt>
<trkpt lat="20.957380" lon="107.050171">
<ele>44.277863</ele>
<time>2011-04-30T04:11:17Z</time>
<desc>lat.=20.957380, lon.=107.050171, Alt.=44.277863m. Speed=1.044000m/h.</desc>
<speed>0.290000</speed>
</trkpt>
<trkpt lat="20.957346" lon="107.050217">
<ele>44.363800</ele>
<time>2011-04-30T04:11:22Z</time>
<desc>lat.=20.957346, lon.=107.050217, Alt.=44.363800m. Speed=0.360000m/h.</desc>
<speed>0.100000</speed>
</trkpt>
<trkpt lat="20.957348" lon="107.050217">
<ele>44.468292</ele>
<time>2011-04-30T04:11:27Z</time>
<desc>lat.=20.957348, lon.=107.050217, Alt.=44.468292m. Speed=0.792000m/h.</desc>
<speed>0.220000</speed>
</trkpt>
<trkpt lat="20.957413" lon="107.050262">
<ele>45.002472</ele>
<time>2011-04-30T04:11:32Z</time>
<desc>lat.=20.957413, lon.=107.050262, Alt.=45.002472m. Speed=1.908000m/h.</desc>
<speed>0.530000</speed>
</trkpt>
<trkpt lat="20.957418" lon="107.050316">
<ele>45.397003</ele>
<time>2011-04-30T04:11:37Z</time>
<desc>lat.=20.957418, lon.=107.050316, Alt.=45.397003m. Speed=1.836000m/h.</desc>
<speed>0.510000</speed>
</trkpt>
<trkpt lat="20.957457" lon="107.050331">
<ele>45.522003</ele>
<time>2011-04-30T04:11:42Z</time>
<desc>lat.=20.957457, lon.=107.050331, Alt.=45.522003m. Speed=1.440000m/h.</desc>
<speed>0.400000</speed>
</trkpt>
<trkpt lat="20.957502" lon="107.050308">
<ele>45.642120</ele>
<time>2011-04-30T04:11:47Z</time>
<desc>lat.=20.957502, lon.=107.050308, Alt.=45.642120m. Speed=1.440000m/h.</desc>
<speed>0.400000</speed>
</trkpt>
<trkpt lat="20.957523" lon="107.050308">
<ele>45.490753</ele>
<time>2011-04-30T04:11:52Z</time>
<desc>lat.=20.957523, lon.=107.050308, Alt.=45.490753m. Speed=1.116000m/h.</desc>
<speed>0.310000</speed>
</trkpt>
<trkpt lat="20.957531" lon="107.050316">
<ele>45.441925</ele>
<time>2011-04-30T04:11:57Z</time>
<desc>lat.=20.957531, lon.=107.050316, Alt.=45.441925m. Speed=0.972000m/h.</desc>
<speed>0.270000</speed>
</trkpt>
<trkpt lat="20.957535" lon="107.050331">
<ele>45.495636</ele>
<time>2011-04-30T04:12:02Z</time>
<desc>lat.=20.957535, lon.=107.050331, Alt.=45.495636m. Speed=1.080000m/h.</desc>
<speed>0.300000</speed>
</trkpt>
<trkpt lat="20.957521" lon="107.050339">
<ele>45.504425</ele>
<time>2011-04-30T04:12:07Z</time>
<desc>lat.=20.957521, lon.=107.050339, Alt.=45.504425m. Speed=0.180000m/h.</desc>
<speed>0.050000</speed>
</trkpt>
<trkpt lat="20.957525" lon="107.050346">
<ele>45.594269</ele>
<time>2011-04-30T04:12:12Z</time>
<desc>lat.=20.957525, lon.=107.050346, Alt.=45.594269m. Speed=0.504000m/h.</desc>
<speed>0.140000</speed>
</trkpt>
<trkpt lat="20.957529" lon="107.050346">
<ele>45.681183</ele>
<time>2011-04-30T04:12:17Z</time>
<desc>lat.=20.957529, lon.=107.050346, Alt.=45.681183m. Speed=0.504000m/h.</desc>
<speed>0.140000</speed>
</trkpt>
<trkpt lat="20.957535" lon="107.050354">
<ele>45.748566</ele>
<time>2011-04-30T04:12:22Z</time>
<desc>lat.=20.957535, lon.=107.050354, Alt.=45.748566m. Speed=0.936000m/h.</desc>
<speed>0.260000</speed>
</trkpt>
<trkpt lat="20.957542" lon="107.050415">
<ele>45.489777</ele>
<time>2011-04-30T04:12:27Z</time>
<desc>lat.=20.957542, lon.=107.050415, Alt.=45.489777m. Speed=2.016000m/h.</desc>
<speed>0.560000</speed>
</trkpt>
<trkpt lat="20.957552" lon="107.050453">
<ele>45.335480</ele>
<time>2011-04-30T04:12:32Z</time>
<desc>lat.=20.957552, lon.=107.050453, Alt.=45.335480m. Speed=1.404000m/h.</desc>
<speed>0.390000</speed>
</trkpt>
<trkpt lat="20.957550" lon="107.050453">
<ele>45.247589</ele>
<time>2011-04-30T04:12:37Z</time>
<desc>lat.=20.957550, lon.=107.050453, Alt.=45.247589m. Speed=0.684000m/h.</desc>
<speed>0.190000</speed>
</trkpt>
<trkpt lat="20.957554" lon="107.050453">
<ele>45.302277</ele>
<time>2011-04-30T04:12:42Z</time>
<desc>lat.=20.957554, lon.=107.050453, Alt.=45.302277m. Speed=0.864000m/h.</desc>
<speed>0.240000</speed>
</trkpt>
<trkpt lat="20.957556" lon="107.050430">
<ele>45.508331</ele>
<time>2011-04-30T04:12:47Z</time>
<desc>lat.=20.957556, lon.=107.050430, Alt.=45.508331m. Speed=1.296000m/h.</desc>
<speed>0.360000</speed>
</trkpt>
<trkpt lat="20.957542" lon="107.050407">
<ele>45.651886</ele>
<time>2011-04-30T04:12:52Z</time>
<desc>lat.=20.957542, lon.=107.050407, Alt.=45.651886m. Speed=1.188000m/h.</desc>
<speed>0.330000</speed>
</trkpt>
<trkpt lat="20.957535" lon="107.050392">
<ele>45.895050</ele>
<time>2011-04-30T04:12:57Z</time>
<desc>lat.=20.957535, lon.=107.050392, Alt.=45.895050m. Speed=0.972000m/h.</desc>
<speed>0.270000</speed>
</trkpt>
<trkpt lat="20.957542" lon="107.050385">
<ele>46.242706</ele>
<time>2011-04-30T04:13:02Z</time>
<desc>lat.=20.957542, lon.=107.050385, Alt.=46.242706m. Speed=1.152000m/h.</desc>
<speed>0.320000</speed>
</trkpt>
<trkpt lat="20.957546" lon="107.050377">
<ele>46.312042</ele>
<time>2011-04-30T04:13:07Z</time>
<desc>lat.=20.957546, lon.=107.050377, Alt.=46.312042m. Speed=0.972000m/h.</desc>
<speed>0.270000</speed>
</trkpt>
<trkpt lat="20.957560" lon="107.050331">
<ele>46.317902</ele>
<time>2011-04-30T04:13:12Z</time>
<desc>lat.=20.957560, lon.=107.050331, Alt.=46.317902m. Speed=1.692000m/h.</desc>
<speed>0.470000</speed>
</trkpt>
<trkpt lat="20.957550" lon="107.050301">
<ele>46.472198</ele>
<time>2011-04-30T04:13:17Z</time>
<desc>lat.=20.957550, lon.=107.050301, Alt.=46.472198m. Speed=1.836000m/h.</desc>
<speed>0.510000</speed>
</trkpt>
<trkpt lat="20.957516" lon="107.050262">
<ele>46.743683</ele>
<time>2011-04-30T04:13:22Z</time>
<desc>lat.=20.957516, lon.=107.050262, Alt.=46.743683m. Speed=2.232000m/h.</desc>
<speed>0.620000</speed>
</trkpt>
<trkpt lat="20.957491" lon="107.050217">
<ele>46.993683</ele>
<time>2011-04-30T04:13:27Z</time>
<desc>lat.=20.957491, lon.=107.050217, Alt.=46.993683m. Speed=2.880000m/h.</desc>
<speed>0.800000</speed>
</trkpt>
<trkpt lat="20.957466" lon="107.050194">
<ele>47.303253</ele>
<time>2011-04-30T04:13:32Z</time>
<desc>lat.=20.957466, lon.=107.050194, Alt.=47.303253m. Speed=2.340000m/h.</desc>
<speed>0.650000</speed>
</trkpt>
<trkpt lat="20.957453" lon="107.050194">
<ele>47.522980</ele>
<time>2011-04-30T04:13:37Z</time>
<desc>lat.=20.957453, lon.=107.050194, Alt.=47.522980m. Speed=0.792000m/h.</desc>
<speed>0.220000</speed>
</trkpt>
<trkpt lat="20.957476" lon="107.050186">
<ele>47.857941</ele>
<time>2011-04-30T04:13:42Z</time>
<desc>lat.=20.957476, lon.=107.050186, Alt.=47.857941m. Speed=1.152000m/h.</desc>
<speed>0.320000</speed>
</trkpt>
<trkpt lat="20.957428" lon="107.050179">
<ele>48.455597</ele>
<time>2011-04-30T04:13:47Z</time>
<desc>lat.=20.957428, lon.=107.050179, Alt.=48.455597m. Speed=0.252000m/h.</desc>
<speed>0.070000</speed>
</trkpt>
<trkpt lat="20.957420" lon="107.050171">
<ele>48.799347</ele>
<time>2011-04-30T04:13:52Z</time>
<desc>lat.=20.957420, lon.=107.050171, Alt.=48.799347m. Speed=0.828000m/h.</desc>
<speed>0.230000</speed>
</trkpt>
<trkpt lat="20.957409" lon="107.050163">
<ele>49.029816</ele>
<time>2011-04-30T04:13:57Z</time>
<desc>lat.=20.957409, lon.=107.050163, Alt.=49.029816m. Speed=1.008000m/h.</desc>
<speed>0.280000</speed>
</trkpt>
<trkpt lat="20.957384" lon="107.050186">
<ele>49.386261</ele>
<time>2011-04-30T04:14:02Z</time>
<desc>lat.=20.957384, lon.=107.050186, Alt.=49.386261m. Speed=1.188000m/h.</desc>
<speed>0.330000</speed>
</trkpt>
<trkpt lat="20.957405" lon="107.050224">
<ele>50.056183</ele>
<time>2011-04-30T04:14:07Z</time>
<desc>lat.=20.957405, lon.=107.050224, Alt.=50.056183m. Speed=0.576000m/h.</desc>
<speed>0.160000</speed>
</trkpt>
<trkpt lat="20.957405" lon="107.050247">
<ele>50.485870</ele>
<time>2011-04-30T04:14:12Z</time>
<desc>lat.=20.957405, lon.=107.050247, Alt.=50.485870m. Speed=1.188000m/h.</desc>
<speed>0.330000</speed>
</trkpt>
<trkpt lat="20.957411" lon="107.050240">
<ele>51.098175</ele>
<time>2011-04-30T04:14:17Z</time>
<desc>lat.=20.957411, lon.=107.050240, Alt.=51.098175m. Speed=0.576000m/h.</desc>
<speed>0.160000</speed>
</trkpt>
<trkpt lat="20.957415" lon="107.050247">
<ele>51.513214</ele>
<time>2011-04-30T04:14:22Z</time>
<desc>lat.=20.957415, lon.=107.050247, Alt.=51.513214m. Speed=0.288000m/h.</desc>
<speed>0.080000</speed>
</trkpt>
<trkpt lat="20.957415" lon="107.050247">
<ele>51.938995</ele>
<time>2011-04-30T04:14:27Z</time>
<desc>lat.=20.957415, lon.=107.050247, Alt.=51.938995m. Speed=0.900000m/h.</desc>
<speed>0.250000</speed>
</trkpt>
<trkpt lat="20.957428" lon="107.050247">
<ele>52.857941</ele>
<time>2011-04-30T04:14:32Z</time>
<desc>lat.=20.957428, lon.=107.050247, Alt.=52.857941m. Speed=0.864000m/h.</desc>
<speed>0.240000</speed>
</trkpt>
<trkpt lat="20.957436" lon="107.050240">
<ele>53.440948</ele>
<time>2011-04-30T04:14:37Z</time>
<desc>lat.=20.957436, lon.=107.050240, Alt.=53.440948m. Speed=0.972000m/h.</desc>
<speed>0.270000</speed>
</trkpt>
<trkpt lat="20.957436" lon="107.050224">
<ele>54.002472</ele>
<time>2011-04-30T04:14:42Z</time>
<desc>lat.=20.957436, lon.=107.050224, Alt.=54.002472m. Speed=0.936000m/h.</desc>
<speed>0.260000</speed>
</trkpt>
<trkpt lat="20.957432" lon="107.050232">
<ele>54.531769</ele>
<time>2011-04-30T04:14:47Z</time>
<desc>lat.=20.957432, lon.=107.050232, Alt.=54.531769m. Speed=0.504000m/h.</desc>
<speed>0.140000</speed>
</trkpt>
<trkpt lat="20.957436" lon="107.050224">
<ele>55.022980</ele>
<time>2011-04-30T04:14:52Z</time>
<desc>lat.=20.957436, lon.=107.050224, Alt.=55.022980m. Speed=0.432000m/h.</desc>
<speed>0.120000</speed>
</trkpt>
<trkpt lat="20.957445" lon="107.050217">
<ele>55.457550</ele>
<time>2011-04-30T04:14:57Z</time>
<desc>lat.=20.957445, lon.=107.050217, Alt.=55.457550m. Speed=0.504000m/h.</desc>
<speed>0.140000</speed>
</trkpt>
<trkpt lat="20.957445" lon="107.050201">
<ele>55.879425</ele>
<time>2011-04-30T04:15:02Z</time>
<desc>lat.=20.957445, lon.=107.050201, Alt.=55.879425m. Speed=0.720000m/h.</desc>
<speed>0.200000</speed>
</trkpt>
<trkpt lat="20.957447" lon="107.050247">
<ele>55.975128</ele>
<time>2011-04-30T04:15:07Z</time>
<desc>lat.=20.957447, lon.=107.050247, Alt.=55.975128m. Speed=1.044000m/h.</desc>
<speed>0.290000</speed>
</trkpt>
<trkpt lat="20.957472" lon="107.050278">
<ele>55.006378</ele>
<time>2011-04-30T04:15:12Z</time>
<desc>lat.=20.957472, lon.=107.050278, Alt.=55.006378m. Speed=1.296000m/h.</desc>
<speed>0.360000</speed>
</trkpt>
<trkpt lat="20.957466" lon="107.050285">
<ele>54.659698</ele>
<time>2011-04-30T04:15:17Z</time>
<desc>lat.=20.957466, lon.=107.050285, Alt.=54.659698m. Speed=0.324000m/h.</desc>
<speed>0.090000</speed>
</trkpt>
<trkpt lat="20.957458" lon="107.050270">
<ele>54.520050</ele>
<time>2011-04-30T04:15:22Z</time>
<desc>lat.=20.957458, lon.=107.050270, Alt.=54.520050m. Speed=0.756000m/h.</desc>
<speed>0.210000</speed>
</trkpt>
<trkpt lat="20.957458" lon="107.050262">
<ele>54.497589</ele>
<time>2011-04-30T04:15:27Z</time>
<desc>lat.=20.957458, lon.=107.050262, Alt.=54.497589m. Speed=0.324000m/h.</desc>
<speed>0.090000</speed>
</trkpt>
<trkpt lat="20.957453" lon="107.050270">
<ele>54.323761</ele>
<time>2011-04-30T04:15:32Z</time>
<desc>lat.=20.957453, lon.=107.050270, Alt.=54.323761m. Speed=0.396000m/h.</desc>
<speed>0.110000</speed>
</trkpt>
<trkpt lat="20.957462" lon="107.050308">
<ele>54.058136</ele>
<time>2011-04-30T04:15:37Z</time>
<desc>lat.=20.957462, lon.=107.050308, Alt.=54.058136m. Speed=1.116000m/h.</desc>
<speed>0.310000</speed>
</trkpt>
<trkpt lat="20.957455" lon="107.050339">
<ele>53.736847</ele>
<time>2011-04-30T04:15:42Z</time>
<desc>lat.=20.957455, lon.=107.050339, Alt.=53.736847m. Speed=1.260000m/h.</desc>
<speed>0.350000</speed>
</trkpt>
<trkpt lat="20.957462" lon="107.050346">
<ele>53.395050</ele>
<time>2011-04-30T04:15:47Z</time>
<desc>lat.=20.957462, lon.=107.050346, Alt.=53.395050m. Speed=1.224000m/h.</desc>
<speed>0.340000</speed>
</trkpt>
<trkpt lat="20.957441" lon="107.050278">
<ele>53.259308</ele>
<time>2011-04-30T04:15:52Z</time>
<desc>lat.=20.957441, lon.=107.050278, Alt.=53.259308m. Speed=0.360000m/h.</desc>
<speed>0.100000</speed>
</trkpt>
<trkpt lat="20.957420" lon="107.050369">
<ele>52.084503</ele>
<time>2011-04-30T04:15:57Z</time>
<desc>lat.=20.957420, lon.=107.050369, Alt.=52.084503m. Speed=0.864000m/h.</desc>
<speed>0.240000</speed>
</trkpt>
<trkpt lat="20.957415" lon="107.050392">
<ele>51.597198</ele>
<time>2011-04-30T04:16:02Z</time>
<desc>lat.=20.957415, lon.=107.050392, Alt.=51.597198m. Speed=1.008000m/h.</desc>
<speed>0.280000</speed>
</trkpt>
<trkpt lat="20.957386" lon="107.050423">
<ele>51.119659</ele>
<time>2011-04-30T04:16:07Z</time>
<desc>lat.=20.957386, lon.=107.050423, Alt.=51.119659m. Speed=1.332000m/h.</desc>
<speed>0.370000</speed>
</trkpt>
<trkpt lat="20.957355" lon="107.050430">
<ele>51.371613</ele>
<time>2011-04-30T04:16:12Z</time>
<desc>lat.=20.957355, lon.=107.050430, Alt.=51.371613m. Speed=1.548000m/h.</desc>
<speed>0.430000</speed>
</trkpt>
<trkpt lat="20.957346" lon="107.050423">
<ele>52.077667</ele>
<time>2011-04-30T04:16:17Z</time>
<desc>lat.=20.957346, lon.=107.050423, Alt.=52.077667m. Speed=1.008000m/h.</desc>
<speed>0.280000</speed>
</trkpt>
<trkpt lat="20.957359" lon="107.050415">
<ele>52.465363</ele>
<time>2011-04-30T04:16:22Z</time>
<desc>lat.=20.957359, lon.=107.050415, Alt.=52.465363m. Speed=0.756000m/h.</desc>
<speed>0.210000</speed>
</trkpt>
<trkpt lat="20.957363" lon="107.050407">
<ele>52.498566</ele>
<time>2011-04-30T04:16:27Z</time>
<desc>lat.=20.957363, lon.=107.050407, Alt.=52.498566m. Speed=0.756000m/h.</desc>
<speed>0.210000</speed>
</trkpt>
<trkpt lat="20.957361" lon="107.050392">
<ele>52.555206</ele>
<time>2011-04-30T04:16:32Z</time>
<desc>lat.=20.957361, lon.=107.050392, Alt.=52.555206m. Speed=1.044000m/h.</desc>
<speed>0.290000</speed>
</trkpt>
<trkpt lat="20.957350" lon="107.050369">
<ele>52.538605</ele>
<time>2011-04-30T04:16:37Z</time>
<desc>lat.=20.957350, lon.=107.050369, Alt.=52.538605m. Speed=1.224000m/h.</desc>
<speed>0.340000</speed>
</trkpt>
<trkpt lat="20.957308" lon="107.050400">
<ele>51.270050</ele>
<time>2011-04-30T04:16:42Z</time>
<desc>lat.=20.957308, lon.=107.050400, Alt.=51.270050m. Speed=1.224000m/h.</desc>
<speed>0.340000</speed>
</trkpt>
<trkpt lat="20.957336" lon="107.050339">
<ele>48.702667</ele>
<time>2011-04-30T04:16:47Z</time>
<desc>lat.=20.957336, lon.=107.050339, Alt.=48.702667m. Speed=0.720000m/h.</desc>
<speed>0.200000</speed>
</trkpt>
<trkpt lat="20.957335" lon="107.050308">
<ele>44.545441</ele>
<time>2011-04-30T04:16:52Z</time>
<desc>lat.=20.957335, lon.=107.050308, Alt.=44.545441m. Speed=0.720000m/h.</desc>
<speed>0.200000</speed>
</trkpt>
<trkpt lat="20.957333" lon="107.050377">
<ele>43.401886</ele>
<time>2011-04-30T04:16:57Z</time>
<desc>lat.=20.957333, lon.=107.050377, Alt.=43.401886m. Speed=0.396000m/h.</desc>
<speed>0.110000</speed>
</trkpt>
<trkpt lat="20.957365" lon="107.050407">
<ele>43.291534</ele>
<time>2011-04-30T04:17:02Z</time>
<desc>lat.=20.957365, lon.=107.050407, Alt.=43.291534m. Speed=1.296000m/h.</desc>
<speed>0.360000</speed>
</trkpt>
<trkpt lat="20.957392" lon="107.050377">
<ele>42.093292</ele>
<time>2011-04-30T04:17:07Z</time>
<desc>lat.=20.957392, lon.=107.050377, Alt.=42.093292m. Speed=0.540000m/h.</desc>
<speed>0.150000</speed>
</trkpt>
<trkpt lat="20.957384" lon="107.050369">
<ele>41.686066</ele>
<time>2011-04-30T04:17:12Z</time>
<desc>lat.=20.957384, lon.=107.050369, Alt.=41.686066m. Speed=0.432000m/h.</desc>
<speed>0.120000</speed>
</trkpt>
<trkpt lat="20.957407" lon="107.050346">
<ele>41.534698</ele>
<time>2011-04-30T04:17:17Z</time>
<desc>lat.=20.957407, lon.=107.050346, Alt.=41.534698m. Speed=0.396000m/h.</desc>
<speed>0.110000</speed>
</trkpt>
<trkpt lat="20.957481" lon="107.050270">
<ele>40.701691</ele>
<time>2011-04-30T04:17:22Z</time>
<desc>lat.=20.957481, lon.=107.050270, Alt.=40.701691m. Speed=1.764000m/h.</desc>
<speed>0.490000</speed>
</trkpt>
<trkpt lat="20.957499" lon="107.050285">
<ele>40.814972</ele>
<time>2011-04-30T04:17:27Z</time>
<desc>lat.=20.957499, lon.=107.050285, Alt.=40.814972m. Speed=0.936000m/h.</desc>
<speed>0.260000</speed>
</trkpt>
<trkpt lat="20.957491" lon="107.050270">
<ele>41.566925</ele>
<time>2011-04-30T04:17:32Z</time>
<desc>lat.=20.957491, lon.=107.050270, Alt.=41.566925m. Speed=0.576000m/h.</desc>
<speed>0.160000</speed>
</trkpt>
<trkpt lat="20.957491" lon="107.050270">
<ele>41.899933</ele>
<time>2011-04-30T04:17:37Z</time>
<desc>lat.=20.957491, lon.=107.050270, Alt.=41.899933m. Speed=0.612000m/h.</desc>
<speed>0.170000</speed>
</trkpt>
<trkpt lat="20.957487" lon="107.050278">
<ele>42.310089</ele>
<time>2011-04-30T04:17:42Z</time>
<desc>lat.=20.957487, lon.=107.050278, Alt.=42.310089m. Speed=0.792000m/h.</desc>
<speed>0.220000</speed>
</trkpt>
<trkpt lat="20.957458" lon="107.050323">
<ele>43.487823</ele>
<time>2011-04-30T04:17:47Z</time>
<desc>lat.=20.957458, lon.=107.050323, Alt.=43.487823m. Speed=0.972000m/h.</desc>
<speed>0.270000</speed>
</trkpt>
<trkpt lat="20.957453" lon="107.050339">
<ele>43.969269</ele>
<time>2011-04-30T04:17:52Z</time>
<desc>lat.=20.957453, lon.=107.050339, Alt.=43.969269m. Speed=1.116000m/h.</desc>
<speed>0.310000</speed>
</trkpt>
<trkpt lat="20.957430" lon="107.050346">
<ele>43.867706</ele>
<time>2011-04-30T04:17:57Z</time>
<desc>lat.=20.957430, lon.=107.050346, Alt.=43.867706m. Speed=2.592000m/h.</desc>
<speed>0.720000</speed>
</trkpt>
<trkpt lat="20.957396" lon="107.050316">
<ele>43.880402</ele>
<time>2011-04-30T04:18:02Z</time>
<desc>lat.=20.957396, lon.=107.050316, Alt.=43.880402m. Speed=3.132000m/h.</desc>
<speed>0.870000</speed>
</trkpt>
<trkpt lat="20.957220" lon="107.050476">
<ele>43.047394</ele>
<time>2011-04-30T04:18:56Z</time>
<desc>lat.=20.957220, lon.=107.050476, Alt.=43.047394m. Speed=0.180000m/h.</desc>
<speed>0.050000</speed>
</trkpt>
<trkpt lat="20.957163" lon="107.050529">
<ele>43.060089</ele>
<time>2011-04-30T04:19:01Z</time>
<desc>lat.=20.957163, lon.=107.050529, Alt.=43.060089m. Speed=1.224000m/h.</desc>
<speed>0.340000</speed>
</trkpt>
<trkpt lat="20.957176" lon="107.050545">
<ele>43.042511</ele>
<time>2011-04-30T04:19:06Z</time>
<desc>lat.=20.957176, lon.=107.050545, Alt.=43.042511m. Speed=1.188000m/h.</desc>
<speed>0.330000</speed>
</trkpt>
<trkpt lat="20.957235" lon="107.050438">
<ele>43.990753</ele>
<time>2011-04-30T04:19:11Z</time>
<desc>lat.=20.957235, lon.=107.050438, Alt.=43.990753m. Speed=0.648000m/h.</desc>
<speed>0.180000</speed>
</trkpt>
<trkpt lat="20.957289" lon="107.050415">
<ele>46.469269</ele>
<time>2011-04-30T04:19:16Z</time>
<desc>lat.=20.957289, lon.=107.050415, Alt.=46.469269m. Speed=0.504000m/h.</desc>
<speed>0.140000</speed>
</trkpt>
<trkpt lat="20.957321" lon="107.050377">
<ele>47.815948</ele>
<time>2011-04-30T04:19:21Z</time>
<desc>lat.=20.957321, lon.=107.050377, Alt.=47.815948m. Speed=0.468000m/h.</desc>
<speed>0.130000</speed>
</trkpt>
<trkpt lat="20.957293" lon="107.050407">
<ele>48.779816</ele>
<time>2011-04-30T04:19:26Z</time>
<desc>lat.=20.957293, lon.=107.050407, Alt.=48.779816m. Speed=0.324000m/h.</desc>
<speed>0.090000</speed>
</trkpt>
<trkpt lat="20.957245" lon="107.050446">
<ele>50.027863</ele>
<time>2011-04-30T04:19:31Z</time>
<desc>lat.=20.957245, lon.=107.050446, Alt.=50.027863m. Speed=0.936000m/h.</desc>
<speed>0.260000</speed>
</trkpt>
<trkpt lat="20.957224" lon="107.050468">
<ele>50.789581</ele>
<time>2011-04-30T04:19:36Z</time>
<desc>lat.=20.957224, lon.=107.050468, Alt.=50.789581m. Speed=1.296000m/h.</desc>
<speed>0.360000</speed>
</trkpt>
<trkpt lat="20.957209" lon="107.050484">
<ele>51.514191</ele>
<time>2011-04-30T04:19:41Z</time>
<desc>lat.=20.957209, lon.=107.050484, Alt.=51.514191m. Speed=1.224000m/h.</desc>
<speed>0.340000</speed>
</trkpt>
<trkpt lat="20.957224" lon="107.050491">
<ele>51.453644</ele>
<time>2011-04-30T04:19:46Z</time>
<desc>lat.=20.957224, lon.=107.050491, Alt.=51.453644m. Speed=0.576000m/h.</desc>
<speed>0.160000</speed>
</trkpt>
<trkpt lat="20.957226" lon="107.050484">
<ele>52.174347</ele>
<time>2011-04-30T04:19:51Z</time>
<desc>lat.=20.957226, lon.=107.050484, Alt.=52.174347m. Speed=0.324000m/h.</desc>
<speed>0.090000</speed>
</trkpt>
<trkpt lat="20.957228" lon="107.050491">
<ele>52.421417</ele>
<time>2011-04-30T04:19:56Z</time>
<desc>lat.=20.957228, lon.=107.050491, Alt.=52.421417m. Speed=0.684000m/h.</desc>
<speed>0.190000</speed>
</trkpt>
<trkpt lat="20.957241" lon="107.050484">
<ele>51.588409</ele>
<time>2011-04-30T04:20:01Z</time>
<desc>lat.=20.957241, lon.=107.050484, Alt.=51.588409m. Speed=0.144000m/h.</desc>
<speed>0.040000</speed>
</trkpt>
<trkpt lat="20.957239" lon="107.050484">
<ele>51.326691</ele>
<time>2011-04-30T04:20:06Z</time>
<desc>lat.=20.957239, lon.=107.050484, Alt.=51.326691m. Speed=0.108000m/h.</desc>
<speed>0.030000</speed>
</trkpt>
<trkpt lat="20.957239" lon="107.050484">
<ele>51.607941</ele>
<time>2011-04-30T04:20:11Z</time>
<desc>lat.=20.957239, lon.=107.050484, Alt.=51.607941m. Speed=1.188000m/h.</desc>
<speed>0.330000</speed>
</trkpt>
<trkpt lat="20.957266" lon="107.050461">
<ele>51.126495</ele>
<time>2011-04-30T04:20:16Z</time>
<desc>lat.=20.957266, lon.=107.050461, Alt.=51.126495m. Speed=0.216000m/h.</desc>
<speed>0.060000</speed>
</trkpt>
<trkpt lat="20.957272" lon="107.050461">
<ele>51.403839</ele>
<time>2011-04-30T04:20:21Z</time>
<desc>lat.=20.957272, lon.=107.050461, Alt.=51.403839m. Speed=0.792000m/h.</desc>
<speed>0.220000</speed>
</trkpt>
<trkpt lat="20.957273" lon="107.050461">
<ele>51.597198</ele>
<time>2011-04-30T04:20:26Z</time>
<desc>lat.=20.957273, lon.=107.050461, Alt.=51.597198m. Speed=0.324000m/h.</desc>
<speed>0.090000</speed>
</trkpt>
<trkpt lat="20.957272" lon="107.050453">
<ele>51.752472</ele>
<time>2011-04-30T04:20:31Z</time>
<desc>lat.=20.957272, lon.=107.050453, Alt.=51.752472m. Speed=0.180000m/h.</desc>
<speed>0.050000</speed>
</trkpt>
<trkpt lat="20.957272" lon="107.050461">
<ele>51.831573</ele>
<time>2011-04-30T04:20:36Z</time>
<desc>lat.=20.957272, lon.=107.050461, Alt.=51.831573m. Speed=0.036000m/h.</desc>
<speed>0.010000</speed>
</trkpt>
<trkpt lat="20.957272" lon="107.050461">
<ele>51.847198</ele>
<time>2011-04-30T04:20:41Z</time>
<desc>lat.=20.957272, lon.=107.050461, Alt.=51.847198m. Speed=0.324000m/h.</desc>
<speed>0.090000</speed>
</trkpt>
<trkpt lat="20.957272" lon="107.050461">
<ele>51.857941</ele>
<time>2011-04-30T04:20:46Z</time>
<desc>lat.=20.957272, lon.=107.050461, Alt.=51.857941m. Speed=0.144000m/h.</desc>
<speed>0.040000</speed>
</trkpt>
<trkpt lat="20.957266" lon="107.050461">
<ele>51.838409</ele>
<time>2011-04-30T04:20:51Z</time>
<desc>lat.=20.957266, lon.=107.050461, Alt.=51.838409m. Speed=0.216000m/h.</desc>
<speed>0.060000</speed>
</trkpt>
<trkpt lat="20.957273" lon="107.050446">
<ele>51.771027</ele>
<time>2011-04-30T04:20:56Z</time>
<desc>lat.=20.957273, lon.=107.050446, Alt.=51.771027m. Speed=0.216000m/h.</desc>
<speed>0.060000</speed>
</trkpt>
<trkpt lat="20.957272" lon="107.050453">
<ele>51.756378</ele>
<time>2011-04-30T04:21:01Z</time>
<desc>lat.=20.957272, lon.=107.050453, Alt.=51.756378m. Speed=0.324000m/h.</desc>
<speed>0.090000</speed>
</trkpt>
<trkpt lat="20.957272" lon="107.050453">
<ele>51.741730</ele>
<time>2011-04-30T04:21:06Z</time>
<desc>lat.=20.957272, lon.=107.050453, Alt.=51.741730m. Speed=0.072000m/h.</desc>
<speed>0.020000</speed>
</trkpt>
<trkpt lat="20.957272" lon="107.050453">
<ele>51.745636</ele>
<time>2011-04-30T04:21:11Z</time>
<desc>lat.=20.957272, lon.=107.050453, Alt.=51.745636m. Speed=0.324000m/h.</desc>
<speed>0.090000</speed>
</trkpt>
<trkpt lat="20.957285" lon="107.050438">
<ele>51.584503</ele>
<time>2011-04-30T04:21:16Z</time>
<desc>lat.=20.957285, lon.=107.050438, Alt.=51.584503m. Speed=0.000000m/h.</desc>
<speed>0.000000</speed>
</trkpt>
<trkpt lat="20.957291" lon="107.050438">
<ele>51.405792</ele>
<time>2011-04-30T04:21:21Z</time>
<desc>lat.=20.957291, lon.=107.050438, Alt.=51.405792m. Speed=1.368000m/h.</desc>
<speed>0.380000</speed>
</trkpt>
<trkpt lat="20.957319" lon="107.050453">
<ele>51.365753</ele>
<time>2011-04-30T04:21:26Z</time>
<desc>lat.=20.957319, lon.=107.050453, Alt.=51.365753m. Speed=0.900000m/h.</desc>
<speed>0.250000</speed>
</trkpt>
<trkpt lat="20.957357" lon="107.050400">
<ele>48.602081</ele>
<time>2011-04-30T04:21:31Z</time>
<desc>lat.=20.957357, lon.=107.050400, Alt.=48.602081m. Speed=0.360000m/h.</desc>
<speed>0.100000</speed>
</trkpt>
<trkpt lat="20.957361" lon="107.050385">
<ele>49.689972</ele>
<time>2011-04-30T04:21:36Z</time>
<desc>lat.=20.957361, lon.=107.050385, Alt.=49.689972m. Speed=1.044000m/h.</desc>
<speed>0.290000</speed>
</trkpt>
<trkpt lat="20.957390" lon="107.050369">
<ele>46.443878</ele>
<time>2011-04-30T04:21:41Z</time>
<desc>lat.=20.957390, lon.=107.050369, Alt.=46.443878m. Speed=0.324000m/h.</desc>
<speed>0.090000</speed>
</trkpt>
<trkpt lat="20.957392" lon="107.050369">
<ele>46.486847</ele>
<time>2011-04-30T04:21:46Z</time>
<desc>lat.=20.957392, lon.=107.050369, Alt.=46.486847m. Speed=0.216000m/h.</desc>
<speed>0.060000</speed>
</trkpt>
<trkpt lat="20.957392" lon="107.050369">
<ele>46.449738</ele>
<time>2011-04-30T04:21:51Z</time>
<desc>lat.=20.957392, lon.=107.050369, Alt.=46.449738m. Speed=0.072000m/h.</desc>
<speed>0.020000</speed>
</trkpt>
<trkpt lat="20.957392" lon="107.050369">
<ele>46.402863</ele>
<time>2011-04-30T04:21:56Z</time>
<desc>lat.=20.957392, lon.=107.050369, Alt.=46.402863m. Speed=0.324000m/h.</desc>
<speed>0.090000</speed>
</trkpt>
<trkpt lat="20.957394" lon="107.050369">
<ele>46.380402</ele>
<time>2011-04-30T04:22:01Z</time>
<desc>lat.=20.957394, lon.=107.050369, Alt.=46.380402m. Speed=0.108000m/h.</desc>
<speed>0.030000</speed>
</trkpt>
<trkpt lat="20.957396" lon="107.050362">
<ele>46.281769</ele>
<time>2011-04-30T04:22:06Z</time>
<desc>lat.=20.957396, lon.=107.050362, Alt.=46.281769m. Speed=0.108000m/h.</desc>
<speed>0.030000</speed>
</trkpt>
<trkpt lat="20.957396" lon="107.050362">
<ele>46.209503</ele>
<time>2011-04-30T04:22:11Z</time>
<desc>lat.=20.957396, lon.=107.050362, Alt.=46.209503m. Speed=0.504000m/h.</desc>
<speed>0.140000</speed>
</trkpt>
<trkpt lat="20.957396" lon="107.050362">
<ele>46.166534</ele>
<time>2011-04-30T04:22:16Z</time>
<desc>lat.=20.957396, lon.=107.050362, Alt.=46.166534m. Speed=0.000000m/h.</desc>
<speed>0.000000</speed>
</trkpt>
<trkpt lat="20.957396" lon="107.050362">
<ele>46.158722</ele>
<time>2011-04-30T04:22:21Z</time>
<desc>lat.=20.957396, lon.=107.050362, Alt.=46.158722m. Speed=0.072000m/h.</desc>
<speed>0.020000</speed>
</trkpt>
<trkpt lat="20.957396" lon="107.050362">
<ele>46.158722</ele>
<time>2011-04-30T04:22:26Z</time>
<desc>lat.=20.957396, lon.=107.050362, Alt.=46.158722m. Speed=0.000000m/h.</desc>
<speed>0.000000</speed>
</trkpt>
<trkpt lat="20.957396" lon="107.050362">
<ele>46.153839</ele>
<time>2011-04-30T04:22:31Z</time>
<desc>lat.=20.957396, lon.=107.050362, Alt.=46.153839m. Speed=0.036000m/h.</desc>
<speed>0.010000</speed>
</trkpt>
<trkpt lat="20.957396" lon="107.050362">
<ele>46.156769</ele>
<time>2011-04-30T04:22:36Z</time>
<desc>lat.=20.957396, lon.=107.050362, Alt.=46.156769m. Speed=0.000000m/h.</desc>
<speed>0.000000</speed>
</trkpt>
<trkpt lat="20.957396" lon="107.050362">
<ele>46.154816</ele>
<time>2011-04-30T04:22:41Z</time>
<desc>lat.=20.957396, lon.=107.050362, Alt.=46.154816m. Speed=0.072000m/h.</desc>
<speed>0.020000</speed>
</trkpt>
<trkpt lat="20.957396" lon="107.050362">
<ele>46.126495</ele>
<time>2011-04-30T04:22:46Z</time>
<desc>lat.=20.957396, lon.=107.050362, Alt.=46.126495m. Speed=0.324000m/h.</desc>
<speed>0.090000</speed>
</trkpt>
<trkpt lat="20.957399" lon="107.050354">
<ele>46.042511</ele>
<time>2011-04-30T04:22:51Z</time>
<desc>lat.=20.957399, lon.=107.050354, Alt.=46.042511m. Speed=0.360000m/h.</desc>
<speed>0.100000</speed>
</trkpt>
<trkpt lat="20.957401" lon="107.050354">
<ele>45.915558</ele>
<time>2011-04-30T04:22:56Z</time>
<desc>lat.=20.957401, lon.=107.050354, Alt.=45.915558m. Speed=0.288000m/h.</desc>
<speed>0.080000</speed>
</trkpt>
<trkpt lat="20.957403" lon="107.050346">
<ele>45.768097</ele>
<time>2011-04-30T04:23:01Z</time>
<desc>lat.=20.957403, lon.=107.050346, Alt.=45.768097m. Speed=0.432000m/h.</desc>
<speed>0.120000</speed>
</trkpt>
<trkpt lat="20.957405" lon="107.050346">
<ele>45.575714</ele>
<time>2011-04-30T04:23:06Z</time>
<desc>lat.=20.957405, lon.=107.050346, Alt.=45.575714m. Speed=0.396000m/h.</desc>
<speed>0.110000</speed>
</trkpt>
<trkpt lat="20.957407" lon="107.050339">
<ele>45.330597</ele>
<time>2011-04-30T04:23:11Z</time>
<desc>lat.=20.957407, lon.=107.050339, Alt.=45.330597m. Speed=0.324000m/h.</desc>
<speed>0.090000</speed>
</trkpt>
<trkpt lat="20.957411" lon="107.050331">
<ele>45.039581</ele>
<time>2011-04-30T04:23:16Z</time>
<desc>lat.=20.957411, lon.=107.050331, Alt.=45.039581m. Speed=0.396000m/h.</desc>
<speed>0.110000</speed>
</trkpt>
<trkpt lat="20.957405" lon="107.050323">
<ele>44.843292</ele>
<time>2011-04-30T04:23:21Z</time>
<desc>lat.=20.957405, lon.=107.050323, Alt.=44.843292m. Speed=1.296000m/h.</desc>
<speed>0.360000</speed>
</trkpt>
<trkpt lat="20.957390" lon="107.050331">
<ele>44.872589</ele>
<time>2011-04-30T04:23:26Z</time>
<desc>lat.=20.957390, lon.=107.050331, Alt.=44.872589m. Speed=1.188000m/h.</desc>
<speed>0.330000</speed>
</trkpt>
<trkpt lat="20.957380" lon="107.050346">
<ele>44.765167</ele>
<time>2011-04-30T04:23:31Z</time>
<desc>lat.=20.957380, lon.=107.050346, Alt.=44.765167m. Speed=1.152000m/h.</desc>
<speed>0.320000</speed>
</trkpt>
<trkpt lat="20.957371" lon="107.050392">
<ele>44.768097</ele>
<time>2011-04-30T04:23:36Z</time>
<desc>lat.=20.957371, lon.=107.050392, Alt.=44.768097m. Speed=1.692000m/h.</desc>
<speed>0.470000</speed>
</trkpt>
<trkpt lat="20.957352" lon="107.050423">
<ele>44.649933</ele>
<time>2011-04-30T04:23:41Z</time>
<desc>lat.=20.957352, lon.=107.050423, Alt.=44.649933m. Speed=1.800000m/h.</desc>
<speed>0.500000</speed>
</trkpt>
<trkpt lat="20.957302" lon="107.050468">
<ele>44.394073</ele>
<time>2011-04-30T04:23:46Z</time>
<desc>lat.=20.957302, lon.=107.050468, Alt.=44.394073m. Speed=2.268000m/h.</desc>
<speed>0.630000</speed>
</trkpt>
<trkpt lat="20.957270" lon="107.050491">
<ele>44.177277</ele>
<time>2011-04-30T04:23:51Z</time>
<desc>lat.=20.957270, lon.=107.050491, Alt.=44.177277m. Speed=1.980000m/h.</desc>
<speed>0.550000</speed>
</trkpt>
<trkpt lat="20.957247" lon="107.050507">
<ele>44.035675</ele>
<time>2011-04-30T04:23:56Z</time>
<desc>lat.=20.957247, lon.=107.050507, Alt.=44.035675m. Speed=1.620000m/h.</desc>
<speed>0.450000</speed>
</trkpt>
<trkpt lat="20.957241" lon="107.050522">
<ele>43.835480</ele>
<time>2011-04-30T04:24:01Z</time>
<desc>lat.=20.957241, lon.=107.050522, Alt.=43.835480m. Speed=1.476000m/h.</desc>
<speed>0.410000</speed>
</trkpt>
<trkpt lat="20.957235" lon="107.050560">
<ele>43.565948</ele>
<time>2011-04-30T04:24:06Z</time>
<desc>lat.=20.957235, lon.=107.050560, Alt.=43.565948m. Speed=1.476000m/h.</desc>
<speed>0.410000</speed>
</trkpt>
<trkpt lat="20.957256" lon="107.050560">
<ele>43.266144</ele>
<time>2011-04-30T04:24:11Z</time>
<desc>lat.=20.957256, lon.=107.050560, Alt.=43.266144m. Speed=0.828000m/h.</desc>
<speed>0.230000</speed>
</trkpt>
<trkpt lat="20.957264" lon="107.050545">
<ele>43.122589</ele>
<time>2011-04-30T04:24:16Z</time>
<desc>lat.=20.957264, lon.=107.050545, Alt.=43.122589m. Speed=0.288000m/h.</desc>
<speed>0.080000</speed>
</trkpt>
<trkpt lat="20.957262" lon="107.050537">
<ele>43.022980</ele>
<time>2011-04-30T04:24:21Z</time>
<desc>lat.=20.957262, lon.=107.050537, Alt.=43.022980m. Speed=0.612000m/h.</desc>
<speed>0.170000</speed>
</trkpt>
<trkpt lat="20.957264" lon="107.050529">
<ele>42.919464</ele>
<time>2011-04-30T04:24:26Z</time>
<desc>lat.=20.957264, lon.=107.050529, Alt.=42.919464m. Speed=0.684000m/h.</desc>
<speed>0.190000</speed>
</trkpt>
<trkpt lat="20.957268" lon="107.050522">
<ele>42.814972</ele>
<time>2011-04-30T04:24:31Z</time>
<desc>lat.=20.957268, lon.=107.050522, Alt.=42.814972m. Speed=0.540000m/h.</desc>
<speed>0.150000</speed>
</trkpt>
<trkpt lat="20.957273" lon="107.050522">
<ele>42.709503</ele>
<time>2011-04-30T04:24:36Z</time>
<desc>lat.=20.957273, lon.=107.050522, Alt.=42.709503m. Speed=0.720000m/h.</desc>
<speed>0.200000</speed>
</trkpt>
<trkpt lat="20.957281" lon="107.050522">
<ele>42.606964</ele>
<time>2011-04-30T04:24:41Z</time>
<desc>lat.=20.957281, lon.=107.050522, Alt.=42.606964m. Speed=0.648000m/h.</desc>
<speed>0.180000</speed>
</trkpt>
<trkpt lat="20.957287" lon="107.050552">
<ele>42.454620</ele>
<time>2011-04-30T04:24:46Z</time>
<desc>lat.=20.957287, lon.=107.050552, Alt.=42.454620m. Speed=1.368000m/h.</desc>
<speed>0.380000</speed>
</trkpt>
<trkpt lat="20.957283" lon="107.050568">
<ele>42.433136</ele>
<time>2011-04-30T04:24:51Z</time>
<desc>lat.=20.957283, lon.=107.050568, Alt.=42.433136m. Speed=1.080000m/h.</desc>
<speed>0.300000</speed>
</trkpt>
<trkpt lat="20.957285" lon="107.050575">
<ele>42.411652</ele>
<time>2011-04-30T04:24:56Z</time>
<desc>lat.=20.957285, lon.=107.050575, Alt.=42.411652m. Speed=1.116000m/h.</desc>
<speed>0.310000</speed>
</trkpt>
<trkpt lat="20.957241" lon="107.050522">
<ele>43.221222</ele>
<time>2011-04-30T04:25:01Z</time>
<desc>lat.=20.957241, lon.=107.050522, Alt.=43.221222m. Speed=0.540000m/h.</desc>
<speed>0.150000</speed>
</trkpt>
<trkpt lat="20.957237" lon="107.050522">
<ele>43.152863</ele>
<time>2011-04-30T04:25:06Z</time>
<desc>lat.=20.957237, lon.=107.050522, Alt.=43.152863m. Speed=0.648000m/h.</desc>
<speed>0.180000</speed>
</trkpt>
<trkpt lat="20.957232" lon="107.050529">
<ele>43.074738</ele>
<time>2011-04-30T04:25:11Z</time>
<desc>lat.=20.957232, lon.=107.050529, Alt.=43.074738m. Speed=0.252000m/h.</desc>
<speed>0.070000</speed>
</trkpt>
<trkpt lat="20.957232" lon="107.050529">
<ele>43.000519</ele>
<time>2011-04-30T04:25:16Z</time>
<desc>lat.=20.957232, lon.=107.050529, Alt.=43.000519m. Speed=0.144000m/h.</desc>
<speed>0.040000</speed>
</trkpt>
<trkpt lat="20.957232" lon="107.050522">
<ele>42.927277</ele>
<time>2011-04-30T04:25:21Z</time>
<desc>lat.=20.957232, lon.=107.050522, Alt.=42.927277m. Speed=0.108000m/h.</desc>
<speed>0.030000</speed>
</trkpt>
<trkpt lat="20.957233" lon="107.050522">
<ele>42.854034</ele>
<time>2011-04-30T04:25:26Z</time>
<desc>lat.=20.957233, lon.=107.050522, Alt.=42.854034m. Speed=0.540000m/h.</desc>
<speed>0.150000</speed>
</trkpt>
<trkpt lat="20.957241" lon="107.050522">
<ele>42.785675</ele>
<time>2011-04-30T04:25:31Z</time>
<desc>lat.=20.957241, lon.=107.050522, Alt.=42.785675m. Speed=0.612000m/h.</desc>
<speed>0.170000</speed>
</trkpt>
<trkpt lat="20.957245" lon="107.050522">
<ele>42.718292</ele>
<time>2011-04-30T04:25:36Z</time>
<desc>lat.=20.957245, lon.=107.050522, Alt.=42.718292m. Speed=0.252000m/h.</desc>
<speed>0.070000</speed>
</trkpt>
<trkpt lat="20.957243" lon="107.050522">
<ele>42.651886</ele>
<time>2011-04-30T04:25:41Z</time>
<desc>lat.=20.957243, lon.=107.050522, Alt.=42.651886m. Speed=0.252000m/h.</desc>
<speed>0.070000</speed>
</trkpt>
<trkpt lat="20.957241" lon="107.050522">
<ele>42.609894</ele>
<time>2011-04-30T04:25:46Z</time>
<desc>lat.=20.957241, lon.=107.050522, Alt.=42.609894m. Speed=0.036000m/h.</desc>
<speed>0.010000</speed>
</trkpt>
<trkpt lat="20.957237" lon="107.050522">
<ele>42.592316</ele>
<time>2011-04-30T04:25:51Z</time>
<desc>lat.=20.957237, lon.=107.050522, Alt.=42.592316m. Speed=0.360000m/h.</desc>
<speed>0.100000</speed>
</trkpt>
<trkpt lat="20.957243" lon="107.050499">
<ele>43.079620</ele>
<time>2011-04-30T04:25:56Z</time>
<desc>lat.=20.957243, lon.=107.050499, Alt.=43.079620m. Speed=2.772000m/h.</desc>
<speed>0.770000</speed>
</trkpt>
<trkpt lat="20.957245" lon="107.050484">
<ele>43.591339</ele>
<time>2011-04-30T04:26:01Z</time>
<desc>lat.=20.957245, lon.=107.050484, Alt.=43.591339m. Speed=0.648000m/h.</desc>
<speed>0.180000</speed>
</trkpt>
<trkpt lat="20.957233" lon="107.050491">
<ele>43.749542</ele>
<time>2011-04-30T04:26:06Z</time>
<desc>lat.=20.957233, lon.=107.050491, Alt.=43.749542m. Speed=0.792000m/h.</desc>
<speed>0.220000</speed>
</trkpt>
<trkpt lat="20.957260" lon="107.050476">
<ele>43.802277</ele>
<time>2011-04-30T04:26:11Z</time>
<desc>lat.=20.957260, lon.=107.050476, Alt.=43.802277m. Speed=1.800000m/h.</desc>
<speed>0.500000</speed>
</trkpt>
<trkpt lat="20.957296" lon="107.050491">
<ele>43.782745</ele>
<time>2011-04-30T04:26:16Z</time>
<desc>lat.=20.957296, lon.=107.050491, Alt.=43.782745m. Speed=1.044000m/h.</desc>
<speed>0.290000</speed>
</trkpt>
<trkpt lat="20.957314" lon="107.050537">
<ele>43.669464</ele>
<time>2011-04-30T04:26:21Z</time>
<desc>lat.=20.957314, lon.=107.050537, Alt.=43.669464m. Speed=4.536000m/h.</desc>
<speed>1.260000</speed>
</trkpt>
<trkpt lat="20.957304" lon="107.050468">
<ele>43.729034</ele>
<time>2011-04-30T04:26:26Z</time>
<desc>lat.=20.957304, lon.=107.050468, Alt.=43.729034m. Speed=2.448000m/h.</desc>
<speed>0.680000</speed>
</trkpt>
<trkpt lat="20.957369" lon="107.050385">
<ele>43.187042</ele>
<time>2011-04-30T04:26:31Z</time>
<desc>lat.=20.957369, lon.=107.050385, Alt.=43.187042m. Speed=0.936000m/h.</desc>
<speed>0.260000</speed>
</trkpt>
<trkpt lat="20.957367" lon="107.050392">
<ele>43.138214</ele>
<time>2011-04-30T04:26:36Z</time>
<desc>lat.=20.957367, lon.=107.050392, Alt.=43.138214m. Speed=1.044000m/h.</desc>
<speed>0.290000</speed>
</trkpt>
<trkpt lat="20.957409" lon="107.050392">
<ele>42.397003</ele>
<time>2011-04-30T04:26:41Z</time>
<desc>lat.=20.957409, lon.=107.050392, Alt.=42.397003m. Speed=1.656000m/h.</desc>
<speed>0.460000</speed>
</trkpt>
<trkpt lat="20.957417" lon="107.050346">
<ele>40.772003</ele>
<time>2011-04-30T04:26:46Z</time>
<desc>lat.=20.957417, lon.=107.050346, Alt.=40.772003m. Speed=3.276000m/h.</desc>
<speed>0.910000</speed>
</trkpt>
<trkpt lat="20.957397" lon="107.050346">
<ele>40.107941</ele>
<time>2011-04-30T04:26:51Z</time>
<desc>lat.=20.957397, lon.=107.050346, Alt.=40.107941m. Speed=2.592000m/h.</desc>
<speed>0.720000</speed>
</trkpt>
<trkpt lat="20.957376" lon="107.050323">
<ele>40.357941</ele>
<time>2011-04-30T04:26:56Z</time>
<desc>lat.=20.957376, lon.=107.050323, Alt.=40.357941m. Speed=3.852000m/h.</desc>
<speed>1.070000</speed>
</trkpt>
<trkpt lat="20.957350" lon="107.050301">
<ele>40.492706</ele>
<time>2011-04-30T04:27:01Z</time>
<desc>lat.=20.957350, lon.=107.050301, Alt.=40.492706m. Speed=3.348000m/h.</desc>
<speed>0.930000</speed>
</trkpt>
<trkpt lat="20.957315" lon="107.050285">
<ele>40.723175</ele>
<time>2011-04-30T04:27:06Z</time>
<desc>lat.=20.957315, lon.=107.050285, Alt.=40.723175m. Speed=3.528000m/h.</desc>
<speed>0.980000</speed>
</trkpt>
<trkpt lat="20.957289" lon="107.050285">
<ele>40.987823</ele>
<time>2011-04-30T04:27:11Z</time>
<desc>lat.=20.957289, lon.=107.050285, Alt.=40.987823m. Speed=0.756000m/h.</desc>
<speed>0.210000</speed>
</trkpt>
<trkpt lat="20.957275" lon="107.050285">
<ele>38.003448</ele>
<time>2011-04-30T04:27:16Z</time>
<desc>lat.=20.957275, lon.=107.050285, Alt.=38.003448m. Speed=0.936000m/h.</desc>
<speed>0.260000</speed>
</trkpt>
<trkpt lat="20.957258" lon="107.050270">
<ele>37.375519</ele>
<time>2011-04-30T04:27:21Z</time>
<desc>lat.=20.957258, lon.=107.050270, Alt.=37.375519m. Speed=0.432000m/h.</desc>
<speed>0.120000</speed>
</trkpt>
<trkpt lat="20.957256" lon="107.050270">
<ele>37.554230</ele>
<time>2011-04-30T04:27:26Z</time>
<desc>lat.=20.957256, lon.=107.050270, Alt.=37.554230m. Speed=0.252000m/h.</desc>
<speed>0.070000</speed>
</trkpt>
<trkpt lat="20.957254" lon="107.050270">
<ele>37.581573</ele>
<time>2011-04-30T04:27:31Z</time>
<desc>lat.=20.957254, lon.=107.050270, Alt.=37.581573m. Speed=1.188000m/h.</desc>
<speed>0.330000</speed>
</trkpt>
<trkpt lat="20.957247" lon="107.050247">
<ele>35.665558</ele>
<time>2011-04-30T04:27:36Z</time>
<desc>lat.=20.957247, lon.=107.050247, Alt.=35.665558m. Speed=0.216000m/h.</desc>
<speed>0.060000</speed>
</trkpt>
<trkpt lat="20.957247" lon="107.050247">
<ele>35.574738</ele>
<time>2011-04-30T04:27:41Z</time>
<desc>lat.=20.957247, lon.=107.050247, Alt.=35.574738m. Speed=0.108000m/h.</desc>
<speed>0.030000</speed>
</trkpt>
<trkpt lat="20.957249" lon="107.050247">
<ele>35.497589</ele>
<time>2011-04-30T04:27:46Z</time>
<desc>lat.=20.957249, lon.=107.050247, Alt.=35.497589m. Speed=0.036000m/h.</desc>
<speed>0.010000</speed>
</trkpt>
<trkpt lat="20.957249" lon="107.050247">
<ele>35.469269</ele>
<time>2011-04-30T04:27:51Z</time>
<desc>lat.=20.957249, lon.=107.050247, Alt.=35.469269m. Speed=0.108000m/h.</desc>
<speed>0.030000</speed>
</trkpt>
<trkpt lat="20.957249" lon="107.050247">
<ele>35.418488</ele>
<time>2011-04-30T04:27:56Z</time>
<desc>lat.=20.957249, lon.=107.050247, Alt.=35.418488m. Speed=0.108000m/h.</desc>
<speed>0.030000</speed>
</trkpt>
<trkpt lat="20.957249" lon="107.050247">
<ele>35.389191</ele>
<time>2011-04-30T04:28:01Z</time>
<desc>lat.=20.957249, lon.=107.050247, Alt.=35.389191m. Speed=0.180000m/h.</desc>
<speed>0.050000</speed>
</trkpt>
<trkpt lat="20.957247" lon="107.050247">
<ele>35.358917</ele>
<time>2011-04-30T04:28:06Z</time>
<desc>lat.=20.957247, lon.=107.050247, Alt.=35.358917m. Speed=0.468000m/h.</desc>
<speed>0.130000</speed>
</trkpt>
<trkpt lat="20.957222" lon="107.050209">
<ele>34.748566</ele>
<time>2011-04-30T04:28:11Z</time>
<desc>lat.=20.957222, lon.=107.050209, Alt.=34.748566m. Speed=0.288000m/h.</desc>
<speed>0.080000</speed>
</trkpt>
<trkpt lat="20.957216" lon="107.050186">
<ele>34.243683</ele>
<time>2011-04-30T04:28:16Z</time>
<desc>lat.=20.957216, lon.=107.050186, Alt.=34.243683m. Speed=0.828000m/h.</desc>
<speed>0.230000</speed>
</trkpt>
<trkpt lat="20.957191" lon="107.050148">
<ele>35.982941</ele>
<time>2011-04-30T04:28:21Z</time>
<desc>lat.=20.957191, lon.=107.050148, Alt.=35.982941m. Speed=0.324000m/h.</desc>
<speed>0.090000</speed>
</trkpt>
<trkpt lat="20.957184" lon="107.050156">
<ele>36.634308</ele>
<time>2011-04-30T04:28:26Z</time>
<desc>lat.=20.957184, lon.=107.050156, Alt.=36.634308m. Speed=0.792000m/h.</desc>
<speed>0.220000</speed>
</trkpt>
<trkpt lat="20.957174" lon="107.050163">
<ele>37.022003</ele>
<time>2011-04-30T04:28:31Z</time>
<desc>lat.=20.957174, lon.=107.050163, Alt.=37.022003m. Speed=0.936000m/h.</desc>
<speed>0.260000</speed>
</trkpt>
<trkpt lat="20.957153" lon="107.050156">
<ele>37.156769</ele>
<time>2011-04-30T04:28:36Z</time>
<desc>lat.=20.957153, lon.=107.050156, Alt.=37.156769m. Speed=1.764000m/h.</desc>
<speed>0.490000</speed>
</trkpt>
<trkpt lat="20.957134" lon="107.050140">
<ele>37.247589</ele>
<time>2011-04-30T04:28:41Z</time>
<desc>lat.=20.957134, lon.=107.050140, Alt.=37.247589m. Speed=1.620000m/h.</desc>
<speed>0.450000</speed>
</trkpt>
<trkpt lat="20.957098" lon="107.050156">
<ele>37.343292</ele>
<time>2011-04-30T04:28:46Z</time>
<desc>lat.=20.957098, lon.=107.050156, Alt.=37.343292m. Speed=1.908000m/h.</desc>
<speed>0.530000</speed>
</trkpt>
<trkpt lat="20.957064" lon="107.050171">
<ele>37.441925</ele>
<time>2011-04-30T04:28:51Z</time>
<desc>lat.=20.957064, lon.=107.050171, Alt.=37.441925m. Speed=2.088000m/h.</desc>
<speed>0.580000</speed>
</trkpt>
<trkpt lat="20.957050" lon="107.050201">
<ele>37.329620</ele>
<time>2011-04-30T04:28:56Z</time>
<desc>lat.=20.957050, lon.=107.050201, Alt.=37.329620m. Speed=2.304000m/h.</desc>
<speed>0.640000</speed>
</trkpt>
<trkpt lat="20.957026" lon="107.050232">
<ele>37.271027</ele>
<time>2011-04-30T04:29:01Z</time>
<desc>lat.=20.957026, lon.=107.050232, Alt.=37.271027m. Speed=2.880000m/h.</desc>
<speed>0.800000</speed>
</trkpt>
<trkpt lat="20.956999" lon="107.050255">
<ele>37.324738</ele>
<time>2011-04-30T04:29:06Z</time>
<desc>lat.=20.956999, lon.=107.050255, Alt.=37.324738m. Speed=1.980000m/h.</desc>
<speed>0.550000</speed>
</trkpt>
<trkpt lat="20.956972" lon="107.050255">
<ele>37.313995</ele>
<time>2011-04-30T04:29:11Z</time>
<desc>lat.=20.956972, lon.=107.050255, Alt.=37.313995m. Speed=1.908000m/h.</desc>
<speed>0.530000</speed>
</trkpt>
<trkpt lat="20.956964" lon="107.050232">
<ele>37.285675</ele>
<time>2011-04-30T04:29:16Z</time>
<desc>lat.=20.956964, lon.=107.050232, Alt.=37.285675m. Speed=1.296000m/h.</desc>
<speed>0.360000</speed>
</trkpt>
<trkpt lat="20.956964" lon="107.050217">
<ele>37.246613</ele>
<time>2011-04-30T04:29:21Z</time>
<desc>lat.=20.956964, lon.=107.050217, Alt.=37.246613m. Speed=0.684000m/h.</desc>
<speed>0.190000</speed>
</trkpt>
<trkpt lat="20.956964" lon="107.050217">
<ele>37.255402</ele>
<time>2011-04-30T04:29:26Z</time>
<desc>lat.=20.956964, lon.=107.050217, Alt.=37.255402m. Speed=0.828000m/h.</desc>
<speed>0.230000</speed>
</trkpt>
<trkpt lat="20.956989" lon="107.050186">
<ele>37.251495</ele>
<time>2011-04-30T04:29:31Z</time>
<desc>lat.=20.956989, lon.=107.050186, Alt.=37.251495m. Speed=1.440000m/h.</desc>
<speed>0.400000</speed>
</trkpt>
<trkpt lat="20.957056" lon="107.050102">
<ele>37.203644</ele>
<time>2011-04-30T04:29:36Z</time>
<desc>lat.=20.957056, lon.=107.050102, Alt.=37.203644m. Speed=2.340000m/h.</desc>
<speed>0.650000</speed>
</trkpt>
<trkpt lat="20.957094" lon="107.050056">
<ele>37.170441</ele>
<time>2011-04-30T04:29:41Z</time>
<desc>lat.=20.957094, lon.=107.050056, Alt.=37.170441m. Speed=2.556000m/h.</desc>
<speed>0.710000</speed>
</trkpt>
<trkpt lat="20.957117" lon="107.050041">
<ele>37.171417</ele>
<time>2011-04-30T04:29:46Z</time>
<desc>lat.=20.957117, lon.=107.050041, Alt.=37.171417m. Speed=2.196000m/h.</desc>
<speed>0.610000</speed>
</trkpt>
<trkpt lat="20.957117" lon="107.050018">
<ele>37.172394</ele>
<time>2011-04-30T04:29:51Z</time>
<desc>lat.=20.957117, lon.=107.050018, Alt.=37.172394m. Speed=1.836000m/h.</desc>
<speed>0.510000</speed>
</trkpt>
<trkpt lat="20.957113" lon="107.050049">
<ele>37.167511</ele>
<time>2011-04-30T04:29:56Z</time>
<desc>lat.=20.957113, lon.=107.050049, Alt.=37.167511m. Speed=1.224000m/h.</desc>
<speed>0.340000</speed>
</trkpt>
<trkpt lat="20.957132" lon="107.050041">
<ele>37.134308</ele>
<time>2011-04-30T04:30:01Z</time>
<desc>lat.=20.957132, lon.=107.050041, Alt.=37.134308m. Speed=1.800000m/h.</desc>
<speed>0.500000</speed>
</trkpt>
<trkpt lat="20.957111" lon="107.050270">
<ele>36.813995</ele>
<time>2011-04-30T04:30:14Z</time>
<desc>lat.=20.957111, lon.=107.050270, Alt.=36.813995m. Speed=0.756000m/h.</desc>
<speed>0.210000</speed>
</trkpt>
<trkpt lat="20.957109" lon="107.050316">
<ele>36.753448</ele>
<time>2011-04-30T04:30:19Z</time>
<desc>lat.=20.957109, lon.=107.050316, Alt.=36.753448m. Speed=0.972000m/h.</desc>
<speed>0.270000</speed>
</trkpt>
<trkpt lat="20.957100" lon="107.050316">
<ele>36.716339</ele>
<time>2011-04-30T04:30:24Z</time>
<desc>lat.=20.957100, lon.=107.050316, Alt.=36.716339m. Speed=0.900000m/h.</desc>
<speed>0.250000</speed>
</trkpt>
<trkpt lat="20.957102" lon="107.050308">
<ele>36.715363</ele>
<time>2011-04-30T04:30:29Z</time>
<desc>lat.=20.957102, lon.=107.050308, Alt.=36.715363m. Speed=0.864000m/h.</desc>
<speed>0.240000</speed>
</trkpt>
<trkpt lat="20.957100" lon="107.050293">
<ele>36.712433</ele>
<time>2011-04-30T04:30:34Z</time>
<desc>lat.=20.957100, lon.=107.050293, Alt.=36.712433m. Speed=0.504000m/h.</desc>
<speed>0.140000</speed>
</trkpt>
<trkpt lat="20.957094" lon="107.050293">
<ele>36.707550</ele>
<time>2011-04-30T04:30:39Z</time>
<desc>lat.=20.957094, lon.=107.050293, Alt.=36.707550m. Speed=0.504000m/h.</desc>
<speed>0.140000</speed>
</trkpt>
<trkpt lat="20.957088" lon="107.050285">
<ele>36.693878</ele>
<time>2011-04-30T04:30:44Z</time>
<desc>lat.=20.957088, lon.=107.050285, Alt.=36.693878m. Speed=0.972000m/h.</desc>
<speed>0.270000</speed>
</trkpt>
<trkpt lat="20.957064" lon="107.050224">
<ele>35.834503</ele>
<time>2011-04-30T04:30:49Z</time>
<desc>lat.=20.957064, lon.=107.050224, Alt.=35.834503m. Speed=1.332000m/h.</desc>
<speed>0.370000</speed>
</trkpt>
<trkpt lat="20.957056" lon="107.050156">
<ele>35.223175</ele>
<time>2011-04-30T04:30:54Z</time>
<desc>lat.=20.957056, lon.=107.050156, Alt.=35.223175m. Speed=1.692000m/h.</desc>
<speed>0.470000</speed>
</trkpt>
<trkpt lat="20.957067" lon="107.050110">
<ele>34.766144</ele>
<time>2011-04-30T04:30:59Z</time>
<desc>lat.=20.957067, lon.=107.050110, Alt.=34.766144m. Speed=1.728000m/h.</desc>
<speed>0.480000</speed>
</trkpt>
<trkpt lat="20.957085" lon="107.050056">
<ele>34.183136</ele>
<time>2011-04-30T04:31:04Z</time>
<desc>lat.=20.957085, lon.=107.050056, Alt.=34.183136m. Speed=1.800000m/h.</desc>
<speed>0.500000</speed>
</trkpt>
<trkpt lat="20.957104" lon="107.049973">
<ele>33.342316</ele>
<time>2011-04-30T04:31:09Z</time>
<desc>lat.=20.957104, lon.=107.049973, Alt.=33.342316m. Speed=2.304000m/h.</desc>
<speed>0.640000</speed>
</trkpt>
<trkpt lat="20.957096" lon="107.049889">
<ele>32.572784</ele>
<time>2011-04-30T04:31:14Z</time>
<desc>lat.=20.957096, lon.=107.049889, Alt.=32.572784m. Speed=2.736000m/h.</desc>
<speed>0.760000</speed>
</trkpt>
<trkpt lat="20.957088" lon="107.049858">
<ele>32.137238</ele>
<time>2011-04-30T04:31:19Z</time>
<desc>lat.=20.957088, lon.=107.049858, Alt.=32.137238m. Speed=2.196000m/h.</desc>
<speed>0.610000</speed>
</trkpt>
<trkpt lat="20.957073" lon="107.049850">
<ele>31.699478</ele>
<time>2011-04-30T04:31:24Z</time>
<desc>lat.=20.957073, lon.=107.049850, Alt.=31.699478m. Speed=1.548000m/h.</desc>
<speed>0.430000</speed>
</trkpt>
<trkpt lat="20.956722" lon="107.050003">
<ele>38.263214</ele>
<time>2011-04-30T04:34:06Z</time>
<desc>lat.=20.956722, lon.=107.050003, Alt.=38.263214m. Speed=0.468000m/h.</desc>
<speed>0.130000</speed>
</trkpt>
<trkpt lat="20.956745" lon="107.050049">
<ele>37.120636</ele>
<time>2011-04-30T04:34:11Z</time>
<desc>lat.=20.956745, lon.=107.050049, Alt.=37.120636m. Speed=1.836000m/h.</desc>
<speed>0.510000</speed>
</trkpt>
<trkpt lat="20.956778" lon="107.050102">
<ele>37.016144</ele>
<time>2011-04-30T04:34:16Z</time>
<desc>lat.=20.956778, lon.=107.050102, Alt.=37.016144m. Speed=0.936000m/h.</desc>
<speed>0.260000</speed>
</trkpt>
<trkpt lat="20.956772" lon="107.050125">
<ele>36.715363</ele>
<time>2011-04-30T04:34:21Z</time>
<desc>lat.=20.956772, lon.=107.050125, Alt.=36.715363m. Speed=0.936000m/h.</desc>
<speed>0.260000</speed>
</trkpt>
<trkpt lat="20.956764" lon="107.050163">
<ele>36.804230</ele>
<time>2011-04-30T04:34:26Z</time>
<desc>lat.=20.956764, lon.=107.050163, Alt.=36.804230m. Speed=1.476000m/h.</desc>
<speed>0.410000</speed>
</trkpt>
<trkpt lat="20.956736" lon="107.050255">
<ele>36.898956</ele>
<time>2011-04-30T04:34:31Z</time>
<desc>lat.=20.956736, lon.=107.050255, Alt.=36.898956m. Speed=1.800000m/h.</desc>
<speed>0.500000</speed>
</trkpt>
<trkpt lat="20.956715" lon="107.050339">
<ele>36.953644</ele>
<time>2011-04-30T04:34:36Z</time>
<desc>lat.=20.956715, lon.=107.050339, Alt.=36.953644m. Speed=2.304000m/h.</desc>
<speed>0.640000</speed>
</trkpt>
<trkpt lat="20.956713" lon="107.050407">
<ele>36.994659</ele>
<time>2011-04-30T04:34:41Z</time>
<desc>lat.=20.956713, lon.=107.050407, Alt.=36.994659m. Speed=2.952000m/h.</desc>
<speed>0.820000</speed>
</trkpt>
<trkpt lat="20.957964" lon="107.049736">
<ele>24.267349</ele>
<time>2011-04-30T04:49:36Z</time>
<desc>lat.=20.957964, lon.=107.049736, Alt.=24.267349m. Speed=2.988000m/h.</desc>
<speed>0.830000</speed>
</trkpt>
<trkpt lat="20.957367" lon="107.050323">
<ele>32.926300</ele>
<time>2011-04-30T05:01:29Z</time>
<desc>lat.=20.957367, lon.=107.050323, Alt.=32.926300m. Speed=4.824000m/h.</desc>
<speed>1.340000</speed>
</trkpt>
<trkpt lat="20.957445" lon="107.050446">
<ele>35.450714</ele>
<time>2011-04-30T05:01:34Z</time>
<desc>lat.=20.957445, lon.=107.050446, Alt.=35.450714m. Speed=4.464000m/h.</desc>
<speed>1.240000</speed>
</trkpt>
<trkpt lat="20.957458" lon="107.050621">
<ele>35.980011</ele>
<time>2011-04-30T05:01:39Z</time>
<desc>lat.=20.957458, lon.=107.050621, Alt.=35.980011m. Speed=5.328000m/h.</desc>
<speed>1.480000</speed>
</trkpt>
<trkpt lat="20.957426" lon="107.050728">
<ele>36.286652</ele>
<time>2011-04-30T05:01:44Z</time>
<desc>lat.=20.957426, lon.=107.050728, Alt.=36.286652m. Speed=5.292000m/h.</desc>
<speed>1.470000</speed>
</trkpt>
<trkpt lat="20.957380" lon="107.050781">
<ele>36.441925</ele>
<time>2011-04-30T05:01:49Z</time>
<desc>lat.=20.957380, lon.=107.050781, Alt.=36.441925m. Speed=4.716000m/h.</desc>
<speed>1.310000</speed>
</trkpt>
<trkpt lat="20.957357" lon="107.050804">
<ele>36.528839</ele>
<time>2011-04-30T05:01:54Z</time>
<desc>lat.=20.957357, lon.=107.050804, Alt.=36.528839m. Speed=3.852000m/h.</desc>
<speed>1.070000</speed>
</trkpt>
<trkpt lat="20.957354" lon="107.050835">
<ele>36.618683</ele>
<time>2011-04-30T05:01:59Z</time>
<desc>lat.=20.957354, lon.=107.050835, Alt.=36.618683m. Speed=3.384000m/h.</desc>
<speed>0.940000</speed>
</trkpt>
<trkpt lat="20.957394" lon="107.050888">
<ele>36.699738</ele>
<time>2011-04-30T05:02:04Z</time>
<desc>lat.=20.957394, lon.=107.050888, Alt.=36.699738m. Speed=4.140000m/h.</desc>
<speed>1.150000</speed>
</trkpt>
<trkpt lat="20.957438" lon="107.050850">
<ele>36.761261</ele>
<time>2011-04-30T05:02:09Z</time>
<desc>lat.=20.957438, lon.=107.050850, Alt.=36.761261m. Speed=3.276000m/h.</desc>
<speed>0.910000</speed>
</trkpt>
<trkpt lat="20.957443" lon="107.050873">
<ele>36.822784</ele>
<time>2011-04-30T05:02:14Z</time>
<desc>lat.=20.957443, lon.=107.050873, Alt.=36.822784m. Speed=2.916000m/h.</desc>
<speed>0.810000</speed>
</trkpt>
<trkpt lat="20.957386" lon="107.050873">
<ele>36.904816</ele>
<time>2011-04-30T05:02:19Z</time>
<desc>lat.=20.957386, lon.=107.050873, Alt.=36.904816m. Speed=2.628000m/h.</desc>
<speed>0.730000</speed>
</trkpt>
<trkpt lat="20.957394" lon="107.050713">
<ele>38.271027</ele>
<time>2011-04-30T05:02:24Z</time>
<desc>lat.=20.957394, lon.=107.050713, Alt.=38.271027m. Speed=1.368000m/h.</desc>
<speed>0.380000</speed>
</trkpt>
<trkpt lat="20.957468" lon="107.049858">
<ele>35.457550</ele>
<time>2011-04-30T05:02:29Z</time>
<desc>lat.=20.957468, lon.=107.049858, Alt.=35.457550m. Speed=6.624000m/h.</desc>
<speed>1.840000</speed>
</trkpt>
<trkpt lat="20.957506" lon="107.049530">
<ele>34.439972</ele>
<time>2011-04-30T05:02:34Z</time>
<desc>lat.=20.957506, lon.=107.049530, Alt.=34.439972m. Speed=5.724000m/h.</desc>
<speed>1.590000</speed>
</trkpt>
<trkpt lat="20.957541" lon="107.049553">
<ele>33.737823</ele>
<time>2011-04-30T05:02:39Z</time>
<desc>lat.=20.957541, lon.=107.049553, Alt.=33.737823m. Speed=13.032000m/h.</desc>
<speed>3.620000</speed>
</trkpt>
<trkpt lat="20.957613" lon="107.049583">
<ele>33.175323</ele>
<time>2011-04-30T05:02:44Z</time>
<desc>lat.=20.957613, lon.=107.049583, Alt.=33.175323m. Speed=4.464000m/h.</desc>
<speed>1.240000</speed>
</trkpt>
<trkpt lat="20.957508" lon="107.049675">
<ele>33.368683</ele>
<time>2011-04-30T05:02:49Z</time>
<desc>lat.=20.957508, lon.=107.049675, Alt.=33.368683m. Speed=6.732000m/h.</desc>
<speed>1.870000</speed>
</trkpt>
<trkpt lat="20.957359" lon="107.050041">
<ele>34.517120</ele>
<time>2011-04-30T05:02:54Z</time>
<desc>lat.=20.957359, lon.=107.050041, Alt.=34.517120m. Speed=16.740000m/h.</desc>
<speed>4.650000</speed>
</trkpt>
<trkpt lat="20.957260" lon="107.050423">
<ele>36.361847</ele>
<time>2011-04-30T05:02:59Z</time>
<desc>lat.=20.957260, lon.=107.050423, Alt.=36.361847m. Speed=21.420000m/h.</desc>
<speed>5.950000</speed>
</trkpt>
<trkpt lat="20.957266" lon="107.050369">
<ele>38.029816</ele>
<time>2011-04-30T05:03:04Z</time>
<desc>lat.=20.957266, lon.=107.050369, Alt.=38.029816m. Speed=11.196000m/h.</desc>
<speed>3.110000</speed>
</trkpt>
<trkpt lat="20.957308" lon="107.050186">
<ele>41.456573</ele>
<time>2011-04-30T05:03:09Z</time>
<desc>lat.=20.957308, lon.=107.050186, Alt.=41.456573m. Speed=4.536000m/h.</desc>
<speed>1.260000</speed>
</trkpt>
<trkpt lat="20.957420" lon="107.049812">
<ele>42.778839</ele>
<time>2011-04-30T05:03:14Z</time>
<desc>lat.=20.957420, lon.=107.049812, Alt.=42.778839m. Speed=11.772000m/h.</desc>
<speed>3.270000</speed>
</trkpt>
<trkpt lat="20.957527" lon="107.049408">
<ele>44.101105</ele>
<time>2011-04-30T05:03:19Z</time>
<desc>lat.=20.957527, lon.=107.049408, Alt.=44.101105m. Speed=17.676001m/h.</desc>
<speed>4.910000</speed>
</trkpt>
<trkpt lat="20.957705" lon="107.048874">
<ele>45.407745</ele>
<time>2011-04-30T05:03:24Z</time>
<desc>lat.=20.957705, lon.=107.048874, Alt.=45.407745m. Speed=23.976000m/h.</desc>
<speed>6.660000</speed>
</trkpt>
<trkpt lat="20.957941" lon="107.048233">
<ele>46.550323</ele>
<time>2011-04-30T05:03:29Z</time>
<desc>lat.=20.957941, lon.=107.048233, Alt.=46.550323m. Speed=31.139999m/h.</desc>
<speed>8.650000</speed>
</trkpt>
<trkpt lat="20.958218" lon="107.047600">
<ele>47.718292</ele>
<time>2011-04-30T05:03:34Z</time>
<desc>lat.=20.958218, lon.=107.047600, Alt.=47.718292m. Speed=39.276001m/h.</desc>
<speed>10.910000</speed>
</trkpt>
<trkpt lat="20.958368" lon="107.046806">
<ele>48.909698</ele>
<time>2011-04-30T05:03:39Z</time>
<desc>lat.=20.958368, lon.=107.046806, Alt.=48.909698m. Speed=45.720001m/h.</desc>
<speed>12.700000</speed>
</trkpt>
<trkpt lat="20.958593" lon="107.046013">
<ele>50.129425</ele>
<time>2011-04-30T05:03:44Z</time>
<desc>lat.=20.958593, lon.=107.046013, Alt.=50.129425m. Speed=48.060001m/h.</desc>
<speed>13.350000</speed>
</trkpt>
<trkpt lat="20.958826" lon="107.045174">
<ele>51.401886</ele>
<time>2011-04-30T05:03:49Z</time>
<desc>lat.=20.958826, lon.=107.045174, Alt.=51.401886m. Speed=53.208000m/h.</desc>
<speed>14.780000</speed>
</trkpt>
<trkpt lat="20.959093" lon="107.044304">
<ele>52.686066</ele>
<time>2011-04-30T05:03:54Z</time>
<desc>lat.=20.959093, lon.=107.044304, Alt.=52.686066m. Speed=57.636002m/h.</desc>
<speed>16.010000</speed>
</trkpt>
<trkpt lat="20.957157" lon="107.049927">
<ele>34.983917</ele>
<time>2011-04-30T05:04:55Z</time>
<desc>lat.=20.957157, lon.=107.049927, Alt.=34.983917m. Speed=1.728000m/h.</desc>
<speed>0.480000</speed>
</trkpt>
<trkpt lat="20.957144" lon="107.050049">
<ele>35.329620</ele>
<time>2011-04-30T05:05:00Z</time>
<desc>lat.=20.957144, lon.=107.050049, Alt.=35.329620m. Speed=0.648000m/h.</desc>
<speed>0.180000</speed>
</trkpt>
<trkpt lat="20.957136" lon="107.050056">
<ele>34.096222</ele>
<time>2011-04-30T05:05:05Z</time>
<desc>lat.=20.957136, lon.=107.050056, Alt.=34.096222m. Speed=0.504000m/h.</desc>
<speed>0.140000</speed>
</trkpt>
<trkpt lat="20.957136" lon="107.050056">
<ele>33.851105</ele>
<time>2011-04-30T05:05:10Z</time>
<desc>lat.=20.957136, lon.=107.050056, Alt.=33.851105m. Speed=0.072000m/h.</desc>
<speed>0.020000</speed>
</trkpt>
<trkpt lat="20.957142" lon="107.050056">
<ele>33.663605</ele>
<time>2011-04-30T05:05:15Z</time>
<desc>lat.=20.957142, lon.=107.050056, Alt.=33.663605m. Speed=0.504000m/h.</desc>
<speed>0.140000</speed>
</trkpt>
<trkpt lat="20.957146" lon="107.050049">
<ele>33.494659</ele>
<time>2011-04-30T05:05:20Z</time>
<desc>lat.=20.957146, lon.=107.050049, Alt.=33.494659m. Speed=0.180000m/h.</desc>
<speed>0.050000</speed>
</trkpt>
<trkpt lat="20.957146" lon="107.050026">
<ele>33.377472</ele>
<time>2011-04-30T05:05:25Z</time>
<desc>lat.=20.957146, lon.=107.050026, Alt.=33.377472m. Speed=1.980000m/h.</desc>
<speed>0.550000</speed>
</trkpt>
<trkpt lat="20.957142" lon="107.050003">
<ele>33.250519</ele>
<time>2011-04-30T05:05:30Z</time>
<desc>lat.=20.957142, lon.=107.050003, Alt.=33.250519m. Speed=0.432000m/h.</desc>
<speed>0.120000</speed>
</trkpt>
<trkpt lat="20.957144" lon="107.050003">
<ele>33.218292</ele>
<time>2011-04-30T05:05:35Z</time>
<desc>lat.=20.957144, lon.=107.050003, Alt.=33.218292m. Speed=1.800000m/h.</desc>
<speed>0.500000</speed>
</trkpt>
<trkpt lat="20.957115" lon="107.049995">
<ele>33.511261</ele>
<time>2011-04-30T05:05:40Z</time>
<desc>lat.=20.957115, lon.=107.049995, Alt.=33.511261m. Speed=2.808000m/h.</desc>
<speed>0.780000</speed>
</trkpt>
<trkpt lat="20.957090" lon="107.049980">
<ele>33.899933</ele>
<time>2011-04-30T05:05:45Z</time>
<desc>lat.=20.957090, lon.=107.049980, Alt.=33.899933m. Speed=3.528000m/h.</desc>
<speed>0.980000</speed>
</trkpt>
<trkpt lat="20.957048" lon="107.049988">
<ele>31.919693</ele>
<time>2011-04-30T05:05:50Z</time>
<desc>lat.=20.957048, lon.=107.049988, Alt.=31.919693m. Speed=1.044000m/h.</desc>
<speed>0.290000</speed>
</trkpt>
<trkpt lat="20.956964" lon="107.049965">
<ele>29.776138</ele>
<time>2011-04-30T05:05:55Z</time>
<desc>lat.=20.956964, lon.=107.049965, Alt.=29.776138m. Speed=4.068000m/h.</desc>
<speed>1.130000</speed>
</trkpt>
<trkpt lat="20.956902" lon="107.049957">
<ele>30.273697</ele>
<time>2011-04-30T05:06:00Z</time>
<desc>lat.=20.956902, lon.=107.049957, Alt.=30.273697m. Speed=3.852000m/h.</desc>
<speed>1.070000</speed>
</trkpt>
<trkpt lat="20.956850" lon="107.049957">
<ele>33.606964</ele>
<time>2011-04-30T05:06:05Z</time>
<desc>lat.=20.956850, lon.=107.049957, Alt.=33.606964m. Speed=2.124000m/h.</desc>
<speed>0.590000</speed>
</trkpt>
<trkpt lat="20.956810" lon="107.049988">
<ele>31.700943</ele>
<time>2011-04-30T05:06:10Z</time>
<desc>lat.=20.956810, lon.=107.049988, Alt.=31.700943m. Speed=3.528000m/h.</desc>
<speed>0.980000</speed>
</trkpt>
<trkpt lat="20.956770" lon="107.049957">
<ele>38.247589</ele>
<time>2011-04-30T05:06:15Z</time>
<desc>lat.=20.956770, lon.=107.049957, Alt.=38.247589m. Speed=2.844000m/h.</desc>
<speed>0.790000</speed>
</trkpt>
<trkpt lat="20.956718" lon="107.049950">
<ele>42.119659</ele>
<time>2011-04-30T05:06:20Z</time>
<desc>lat.=20.956718, lon.=107.049950, Alt.=42.119659m. Speed=2.772000m/h.</desc>
<speed>0.770000</speed>
</trkpt>
<trkpt lat="20.956665" lon="107.049973">
<ele>42.279816</ele>
<time>2011-04-30T05:06:25Z</time>
<desc>lat.=20.956665, lon.=107.049973, Alt.=42.279816m. Speed=4.608000m/h.</desc>
<speed>1.280000</speed>
</trkpt>
<trkpt lat="20.956646" lon="107.050064">
<ele>41.363800</ele>
<time>2011-04-30T05:06:30Z</time>
<desc>lat.=20.956646, lon.=107.050064, Alt.=41.363800m. Speed=3.672000m/h.</desc>
<speed>1.020000</speed>
</trkpt>
<trkpt lat="20.956610" lon="107.050117">
<ele>36.754425</ele>
<time>2011-04-30T05:06:35Z</time>
<desc>lat.=20.956610, lon.=107.050117, Alt.=36.754425m. Speed=3.924000m/h.</desc>
<speed>1.090000</speed>
</trkpt>
<trkpt lat="20.956566" lon="107.050133">
<ele>33.666534</ele>
<time>2011-04-30T05:06:40Z</time>
<desc>lat.=20.956566, lon.=107.050133, Alt.=33.666534m. Speed=3.384000m/h.</desc>
<speed>0.940000</speed>
</trkpt>
<trkpt lat="20.956537" lon="107.050140">
<ele>32.328644</ele>
<time>2011-04-30T05:06:45Z</time>
<desc>lat.=20.956537, lon.=107.050140, Alt.=32.328644m. Speed=0.684000m/h.</desc>
<speed>0.190000</speed>
</trkpt>
<trkpt lat="20.956524" lon="107.050140">
<ele>31.607193</ele>
<time>2011-04-30T05:06:50Z</time>
<desc>lat.=20.956524, lon.=107.050140, Alt.=31.607193m. Speed=0.252000m/h.</desc>
<speed>0.070000</speed>
</trkpt>
<trkpt lat="20.956522" lon="107.050140">
<ele>31.627213</ele>
<time>2011-04-30T05:06:55Z</time>
<desc>lat.=20.956522, lon.=107.050140, Alt.=31.627213m. Speed=0.144000m/h.</desc>
<speed>0.040000</speed>
</trkpt>
<trkpt lat="20.956469" lon="107.050156">
<ele>29.122818</ele>
<time>2011-04-30T05:07:00Z</time>
<desc>lat.=20.956469, lon.=107.050156, Alt.=29.122818m. Speed=5.760000m/h.</desc>
<speed>1.600000</speed>
</trkpt>
<trkpt lat="20.956392" lon="107.050179">
<ele>26.636978</ele>
<time>2011-04-30T05:07:05Z</time>
<desc>lat.=20.956392, lon.=107.050179, Alt.=26.636978m. Speed=2.232000m/h.</desc>
<speed>0.620000</speed>
</trkpt>
<trkpt lat="20.956364" lon="107.050217">
<ele>26.613052</ele>
<time>2011-04-30T05:07:10Z</time>
<desc>lat.=20.956364, lon.=107.050217, Alt.=26.613052m. Speed=4.068000m/h.</desc>
<speed>1.130000</speed>
</trkpt>
<trkpt lat="20.956331" lon="107.050255">
<ele>27.252213</ele>
<time>2011-04-30T05:07:15Z</time>
<desc>lat.=20.956331, lon.=107.050255, Alt.=27.252213m. Speed=3.528000m/h.</desc>
<speed>0.980000</speed>
</trkpt>
<trkpt lat="20.956282" lon="107.050262">
<ele>24.775162</ele>
<time>2011-04-30T05:07:20Z</time>
<desc>lat.=20.956282, lon.=107.050262, Alt.=24.775162m. Speed=2.808000m/h.</desc>
<speed>0.780000</speed>
</trkpt>
<trkpt lat="20.956244" lon="107.050240">
<ele>24.353287</ele>
<time>2011-04-30T05:07:25Z</time>
<desc>lat.=20.956244, lon.=107.050240, Alt.=24.353287m. Speed=3.060000m/h.</desc>
<speed>0.850000</speed>
</trkpt>
<trkpt lat="20.956196" lon="107.050224">
<ele>23.568130</ele>
<time>2011-04-30T05:07:30Z</time>
<desc>lat.=20.956196, lon.=107.050224, Alt.=23.568130m. Speed=3.564000m/h.</desc>
<speed>0.990000</speed>
</trkpt>
<trkpt lat="20.956179" lon="107.050209">
<ele>21.807877</ele>
<time>2011-04-30T05:07:35Z</time>
<desc>lat.=20.956179, lon.=107.050209, Alt.=21.807877m. Speed=1.368000m/h.</desc>
<speed>0.380000</speed>
</trkpt>
<trkpt lat="20.956167" lon="107.050209">
<ele>22.075455</ele>
<time>2011-04-30T05:07:40Z</time>
<desc>lat.=20.956167, lon.=107.050209, Alt.=22.075455m. Speed=2.160000m/h.</desc>
<speed>0.600000</speed>
</trkpt>
<trkpt lat="20.956173" lon="107.050201">
<ele>22.244400</ele>
<time>2011-04-30T05:07:45Z</time>
<desc>lat.=20.956173, lon.=107.050201, Alt.=22.244400m. Speed=0.000000m/h.</desc>
<speed>0.000000</speed>
</trkpt>
<trkpt lat="20.956165" lon="107.050194">
<ele>21.535416</ele>
<time>2011-04-30T05:07:50Z</time>
<desc>lat.=20.956165, lon.=107.050194, Alt.=21.535416m. Speed=0.900000m/h.</desc>
<speed>0.250000</speed>
</trkpt>
<trkpt lat="20.956144" lon="107.050179">
<ele>21.153091</ele>
<time>2011-04-30T05:07:55Z</time>
<desc>lat.=20.956144, lon.=107.050179, Alt.=21.153091m. Speed=0.504000m/h.</desc>
<speed>0.140000</speed>
</trkpt>
<trkpt lat="20.956123" lon="107.050163">
<ele>20.635513</ele>
<time>2011-04-30T05:08:00Z</time>
<desc>lat.=20.956123, lon.=107.050163, Alt.=20.635513m. Speed=0.432000m/h.</desc>
<speed>0.120000</speed>
</trkpt>
<trkpt lat="20.956108" lon="107.050148">
<ele>20.651138</ele>
<time>2011-04-30T05:08:05Z</time>
<desc>lat.=20.956108, lon.=107.050148, Alt.=20.651138m. Speed=0.360000m/h.</desc>
<speed>0.100000</speed>
</trkpt>
<trkpt lat="20.956087" lon="107.050125">
<ele>18.625748</ele>
<time>2011-04-30T05:08:10Z</time>
<desc>lat.=20.956087, lon.=107.050125, Alt.=18.625748m. Speed=1.404000m/h.</desc>
<speed>0.390000</speed>
</trkpt>
<trkpt lat="20.956093" lon="107.050110">
<ele>18.597916</ele>
<time>2011-04-30T05:08:15Z</time>
<desc>lat.=20.956093, lon.=107.050110, Alt.=18.597916m. Speed=1.872000m/h.</desc>
<speed>0.520000</speed>
</trkpt>
<trkpt lat="20.956085" lon="107.050072">
<ele>16.097916</ele>
<time>2011-04-30T05:08:20Z</time>
<desc>lat.=20.956085, lon.=107.050072, Alt.=16.097916m. Speed=3.528000m/h.</desc>
<speed>0.980000</speed>
</trkpt>
<trkpt lat="20.956072" lon="107.050026">
<ele>14.714241</ele>
<time>2011-04-30T05:08:25Z</time>
<desc>lat.=20.956072, lon.=107.050026, Alt.=14.714241m. Speed=3.780000m/h.</desc>
<speed>1.050000</speed>
</trkpt>
<trkpt lat="20.956060" lon="107.049995">
<ele>14.229866</ele>
<time>2011-04-30T05:08:30Z</time>
<desc>lat.=20.956060, lon.=107.049995, Alt.=14.229866m. Speed=2.124000m/h.</desc>
<speed>0.590000</speed>
</trkpt>
<trkpt lat="20.956057" lon="107.049995">
<ele>13.534554</ele>
<time>2011-04-30T05:08:35Z</time>
<desc>lat.=20.956057, lon.=107.049995, Alt.=13.534554m. Speed=0.828000m/h.</desc>
<speed>0.230000</speed>
</trkpt>
<trkpt lat="20.956055" lon="107.049980">
<ele>14.189339</ele>
<time>2011-04-30T05:08:40Z</time>
<desc>lat.=20.956055, lon.=107.049980, Alt.=14.189339m. Speed=3.528000m/h.</desc>
<speed>0.980000</speed>
</trkpt>
<trkpt lat="20.956051" lon="107.049942">
<ele>14.962044</ele>
<time>2011-04-30T05:08:45Z</time>
<desc>lat.=20.956051, lon.=107.049942, Alt.=14.962044m. Speed=3.564000m/h.</desc>
<speed>0.990000</speed>
</trkpt>
<trkpt lat="20.956024" lon="107.049911">
<ele>16.193619</ele>
<time>2011-04-30T05:08:50Z</time>
<desc>lat.=20.956024, lon.=107.049911, Alt.=16.193619m. Speed=2.268000m/h.</desc>
<speed>0.630000</speed>
</trkpt>
<trkpt lat="20.955999" lon="107.049873">
<ele>15.800179</ele>
<time>2011-04-30T05:08:55Z</time>
<desc>lat.=20.955999, lon.=107.049873, Alt.=15.800179m. Speed=2.628000m/h.</desc>
<speed>0.730000</speed>
</trkpt>
<trkpt lat="20.955978" lon="107.049835">
<ele>15.026009</ele>
<time>2011-04-30T05:09:00Z</time>
<desc>lat.=20.955978, lon.=107.049835, Alt.=15.026009m. Speed=2.808000m/h.</desc>
<speed>0.780000</speed>
</trkpt>
<trkpt lat="20.955976" lon="107.049782">
<ele>13.609993</ele>
<time>2011-04-30T05:09:05Z</time>
<desc>lat.=20.955976, lon.=107.049782, Alt.=13.609993m. Speed=3.492000m/h.</desc>
<speed>0.970000</speed>
</trkpt>
<trkpt lat="20.955967" lon="107.049736">
<ele>12.949837</ele>
<time>2011-04-30T05:09:10Z</time>
<desc>lat.=20.955967, lon.=107.049736, Alt.=12.949837m. Speed=4.536000m/h.</desc>
<speed>1.260000</speed>
</trkpt>
<trkpt lat="20.955942" lon="107.049698">
<ele>12.890999</ele>
<time>2011-04-30T05:09:15Z</time>
<desc>lat.=20.955942, lon.=107.049698, Alt.=12.890999m. Speed=3.672000m/h.</desc>
<speed>1.020000</speed>
</trkpt>
<trkpt lat="20.955904" lon="107.049713">
<ele>15.748909</ele>
<time>2011-04-30T05:09:20Z</time>
<desc>lat.=20.955904, lon.=107.049713, Alt.=15.748909m. Speed=3.528000m/h.</desc>
<speed>0.980000</speed>
</trkpt>
<trkpt lat="20.955872" lon="107.049713">
<ele>17.307388</ele>
<time>2011-04-30T05:09:25Z</time>
<desc>lat.=20.955872, lon.=107.049713, Alt.=17.307388m. Speed=1.512000m/h.</desc>
<speed>0.420000</speed>
</trkpt>
<trkpt lat="20.955845" lon="107.049683">
<ele>17.834732</ele>
<time>2011-04-30T05:09:30Z</time>
<desc>lat.=20.955845, lon.=107.049683, Alt.=17.834732m. Speed=2.196000m/h.</desc>
<speed>0.610000</speed>
</trkpt>
<trkpt lat="20.955835" lon="107.049675">
<ele>17.356705</ele>
<time>2011-04-30T05:09:35Z</time>
<desc>lat.=20.955835, lon.=107.049675, Alt.=17.356705m. Speed=0.144000m/h.</desc>
<speed>0.040000</speed>
</trkpt>
<trkpt lat="20.955841" lon="107.049667">
<ele>16.601822</ele>
<time>2011-04-30T05:09:40Z</time>
<desc>lat.=20.955841, lon.=107.049667, Alt.=16.601822m. Speed=0.216000m/h.</desc>
<speed>0.060000</speed>
</trkpt>
<trkpt lat="20.955833" lon="107.049667">
<ele>16.167740</ele>
<time>2011-04-30T05:09:45Z</time>
<desc>lat.=20.955833, lon.=107.049667, Alt.=16.167740m. Speed=0.756000m/h.</desc>
<speed>0.210000</speed>
</trkpt>
<trkpt lat="20.955820" lon="107.049660">
<ele>14.809212</ele>
<time>2011-04-30T05:09:50Z</time>
<desc>lat.=20.955820, lon.=107.049660, Alt.=14.809212m. Speed=0.252000m/h.</desc>
<speed>0.070000</speed>
</trkpt>
<trkpt lat="20.955828" lon="107.049652">
<ele>14.143929</ele>
<time>2011-04-30T05:09:55Z</time>
<desc>lat.=20.955828, lon.=107.049652, Alt.=14.143929m. Speed=0.468000m/h.</desc>
<speed>0.130000</speed>
</trkpt>
<trkpt lat="20.955832" lon="107.049652">
<ele>13.826302</ele>
<time>2011-04-30T05:10:00Z</time>
<desc>lat.=20.955832, lon.=107.049652, Alt.=13.826302m. Speed=0.000000m/h.</desc>
<speed>0.000000</speed>
</trkpt>
<trkpt lat="20.955832" lon="107.049652">
<ele>13.893196</ele>
<time>2011-04-30T05:10:05Z</time>
<desc>lat.=20.955832, lon.=107.049652, Alt.=13.893196m. Speed=1.008000m/h.</desc>
<speed>0.280000</speed>
</trkpt>
<trkpt lat="20.955816" lon="107.049629">
<ele>12.550667</ele>
<time>2011-04-30T05:10:10Z</time>
<desc>lat.=20.955816, lon.=107.049629, Alt.=12.550667m. Speed=1.908000m/h.</desc>
<speed>0.530000</speed>
</trkpt>
<trkpt lat="20.955795" lon="107.049591">
<ele>10.749397</ele>
<time>2011-04-30T05:10:15Z</time>
<desc>lat.=20.955795, lon.=107.049591, Alt.=10.749397m. Speed=1.584000m/h.</desc>
<speed>0.440000</speed>
</trkpt>
<trkpt lat="20.955782" lon="107.049591">
<ele>10.521614</ele>
<time>2011-04-30T05:10:20Z</time>
<desc>lat.=20.955782, lon.=107.049591, Alt.=10.521614m. Speed=0.144000m/h.</desc>
<speed>0.040000</speed>
</trkpt>
<trkpt lat="20.955776" lon="107.049583">
<ele>10.046028</ele>
<time>2011-04-30T05:10:25Z</time>
<desc>lat.=20.955776, lon.=107.049583, Alt.=10.046028m. Speed=0.072000m/h.</desc>
<speed>0.020000</speed>
</trkpt>
<trkpt lat="20.955778" lon="107.049583">
<ele>10.181526</ele>
<time>2011-04-30T05:10:30Z</time>
<desc>lat.=20.955778, lon.=107.049583, Alt.=10.181526m. Speed=0.108000m/h.</desc>
<speed>0.030000</speed>
</trkpt>
<trkpt lat="20.955778" lon="107.049583">
<ele>10.182014</ele>
<time>2011-04-30T05:10:35Z</time>
<desc>lat.=20.955778, lon.=107.049583, Alt.=10.182014m. Speed=0.180000m/h.</desc>
<speed>0.050000</speed>
</trkpt>
<trkpt lat="20.955770" lon="107.049599">
<ele>9.615852</ele>
<time>2011-04-30T05:10:40Z</time>
<desc>lat.=20.955770, lon.=107.049599, Alt.=9.615852m. Speed=3.348000m/h.</desc>
<speed>0.930000</speed>
</trkpt>
<trkpt lat="20.955767" lon="107.049644">
<ele>10.135384</ele>
<time>2011-04-30T05:10:45Z</time>
<desc>lat.=20.955767, lon.=107.049644, Alt.=10.135384m. Speed=2.772000m/h.</desc>
<speed>0.770000</speed>
</trkpt>
<trkpt lat="20.955782" lon="107.049637">
<ele>8.746468</ele>
<time>2011-04-30T05:10:50Z</time>
<desc>lat.=20.955782, lon.=107.049637, Alt.=8.746468m. Speed=0.576000m/h.</desc>
<speed>0.160000</speed>
</trkpt>
<trkpt lat="20.955782" lon="107.049637">
<ele>8.842415</ele>
<time>2011-04-30T05:10:55Z</time>
<desc>lat.=20.955782, lon.=107.049637, Alt.=8.842415m. Speed=0.792000m/h.</desc>
<speed>0.220000</speed>
</trkpt>
<trkpt lat="20.955778" lon="107.049629">
<ele>8.922005</ele>
<time>2011-04-30T05:11:00Z</time>
<desc>lat.=20.955778, lon.=107.049629, Alt.=8.922005m. Speed=0.648000m/h.</desc>
<speed>0.180000</speed>
</trkpt>
<trkpt lat="20.955778" lon="107.049637">
<ele>8.671516</ele>
<time>2011-04-30T05:11:05Z</time>
<desc>lat.=20.955778, lon.=107.049637, Alt.=8.671516m. Speed=2.016000m/h.</desc>
<speed>0.560000</speed>
</trkpt>
<trkpt lat="20.955759" lon="107.049606">
<ele>8.848763</ele>
<time>2011-04-30T05:11:10Z</time>
<desc>lat.=20.955759, lon.=107.049606, Alt.=8.848763m. Speed=4.212000m/h.</desc>
<speed>1.170000</speed>
</trkpt>
<trkpt lat="20.955711" lon="107.049599">
<ele>9.074837</ele>
<time>2011-04-30T05:11:15Z</time>
<desc>lat.=20.955711, lon.=107.049599, Alt.=9.074837m. Speed=3.456000m/h.</desc>
<speed>0.960000</speed>
</trkpt>
<trkpt lat="20.955671" lon="107.049599">
<ele>9.930794</ele>
<time>2011-04-30T05:11:20Z</time>
<desc>lat.=20.955671, lon.=107.049599, Alt.=9.930794m. Speed=4.176000m/h.</desc>
<speed>1.160000</speed>
</trkpt>
<trkpt lat="20.955618" lon="107.049614">
<ele>9.215950</ele>
<time>2011-04-30T05:11:25Z</time>
<desc>lat.=20.955618, lon.=107.049614, Alt.=9.215950m. Speed=4.248000m/h.</desc>
<speed>1.180000</speed>
</trkpt>
<trkpt lat="20.955576" lon="107.049622">
<ele>10.080452</ele>
<time>2011-04-30T05:11:30Z</time>
<desc>lat.=20.955576, lon.=107.049622, Alt.=10.080452m. Speed=3.276000m/h.</desc>
<speed>0.910000</speed>
</trkpt>
<trkpt lat="20.955544" lon="107.049637">
<ele>10.686165</ele>
<time>2011-04-30T05:11:35Z</time>
<desc>lat.=20.955544, lon.=107.049637, Alt.=10.686165m. Speed=3.204000m/h.</desc>
<speed>0.890000</speed>
</trkpt>
<trkpt lat="20.955500" lon="107.049622">
<ele>9.835823</ele>
<time>2011-04-30T05:11:40Z</time>
<desc>lat.=20.955500, lon.=107.049622, Alt.=9.835823m. Speed=4.284000m/h.</desc>
<speed>1.190000</speed>
</trkpt>
<trkpt lat="20.955488" lon="107.049568">
<ele>8.722542</ele>
<time>2011-04-30T05:11:45Z</time>
<desc>lat.=20.955488, lon.=107.049568, Alt.=8.722542m. Speed=2.592000m/h.</desc>
<speed>0.720000</speed>
</trkpt>
<trkpt lat="20.955473" lon="107.049530">
<ele>7.376774</ele>
<time>2011-04-30T05:11:50Z</time>
<desc>lat.=20.955473, lon.=107.049530, Alt.=7.376774m. Speed=2.592000m/h.</desc>
<speed>0.720000</speed>
</trkpt>
<trkpt lat="20.955462" lon="107.049492">
<ele>6.485783</ele>
<time>2011-04-30T05:11:55Z</time>
<desc>lat.=20.955462, lon.=107.049492, Alt.=6.485783m. Speed=3.312000m/h.</desc>
<speed>0.920000</speed>
</trkpt>
<trkpt lat="20.955448" lon="107.049454">
<ele>7.200993</ele>
<time>2011-04-30T05:12:00Z</time>
<desc>lat.=20.955448, lon.=107.049454, Alt.=7.200993m. Speed=2.736000m/h.</desc>
<speed>0.760000</speed>
</trkpt>
<trkpt lat="20.955423" lon="107.049408">
<ele>5.891911</ele>
<time>2011-04-30T05:12:05Z</time>
<desc>lat.=20.955423, lon.=107.049408, Alt.=5.891911m. Speed=3.276000m/h.</desc>
<speed>0.910000</speed>
</trkpt>
<trkpt lat="20.955400" lon="107.049355">
<ele>3.730562</ele>
<time>2011-04-30T05:12:10Z</time>
<desc>lat.=20.955400, lon.=107.049355, Alt.=3.730562m. Speed=2.664000m/h.</desc>
<speed>0.740000</speed>
</trkpt>
<trkpt lat="20.955397" lon="107.049324">
<ele>3.543001</ele>
<time>2011-04-30T05:12:15Z</time>
<desc>lat.=20.955397, lon.=107.049324, Alt.=3.543001m. Speed=2.520000m/h.</desc>
<speed>0.700000</speed>
</trkpt>
<trkpt lat="20.955395" lon="107.049294">
<ele>3.647738</ele>
<time>2011-04-30T05:12:20Z</time>
<desc>lat.=20.955395, lon.=107.049294, Alt.=3.647738m. Speed=2.592000m/h.</desc>
<speed>0.720000</speed>
</trkpt>
<trkpt lat="20.955397" lon="107.049286">
<ele>4.376530</ele>
<time>2011-04-30T05:12:25Z</time>
<desc>lat.=20.955397, lon.=107.049286, Alt.=4.376530m. Speed=0.936000m/h.</desc>
<speed>0.260000</speed>
</trkpt>
<trkpt lat="20.955385" lon="107.049271">
<ele>4.348209</ele>
<time>2011-04-30T05:12:30Z</time>
<desc>lat.=20.955385, lon.=107.049271, Alt.=4.348209m. Speed=1.764000m/h.</desc>
<speed>0.490000</speed>
</trkpt>
<trkpt lat="20.955370" lon="107.049240">
<ele>3.419710</ele>
<time>2011-04-30T05:12:35Z</time>
<desc>lat.=20.955370, lon.=107.049240, Alt.=3.419710m. Speed=2.304000m/h.</desc>
<speed>0.640000</speed>
</trkpt>
<trkpt lat="20.955364" lon="107.049225">
<ele>2.797152</ele>
<time>2011-04-30T05:12:40Z</time>
<desc>lat.=20.955364, lon.=107.049225, Alt.=2.797152m. Speed=0.072000m/h.</desc>
<speed>0.020000</speed>
</trkpt>
<trkpt lat="20.955364" lon="107.049225">
<ele>2.945711</ele>
<time>2011-04-30T05:12:45Z</time>
<desc>lat.=20.955364, lon.=107.049225, Alt.=2.945711m. Speed=0.036000m/h.</desc>
<speed>0.010000</speed>
</trkpt>
<trkpt lat="20.955366" lon="107.049225">
<ele>2.924044</ele>
<time>2011-04-30T05:12:50Z</time>
<desc>lat.=20.955366, lon.=107.049225, Alt.=2.924044m. Speed=0.756000m/h.</desc>
<speed>0.210000</speed>
</trkpt>
<trkpt lat="20.955351" lon="107.049232">
<ele>4.633488</ele>
<time>2011-04-30T05:12:55Z</time>
<desc>lat.=20.955351, lon.=107.049232, Alt.=4.633488m. Speed=2.880000m/h.</desc>
<speed>0.800000</speed>
</trkpt>
<trkpt lat="20.955320" lon="107.049248">
<ele>6.366276</ele>
<time>2011-04-30T05:13:00Z</time>
<desc>lat.=20.955320, lon.=107.049248, Alt.=6.366276m. Speed=2.988000m/h.</desc>
<speed>0.830000</speed>
</trkpt>
<trkpt lat="20.955275" lon="107.049263">
<ele>8.258186</ele>
<time>2011-04-30T05:13:05Z</time>
<desc>lat.=20.955275, lon.=107.049263, Alt.=8.258186m. Speed=3.924000m/h.</desc>
<speed>1.090000</speed>
</trkpt>
<trkpt lat="20.955246" lon="107.049294">
<ele>10.280647</ele>
<time>2011-04-30T05:13:10Z</time>
<desc>lat.=20.955246, lon.=107.049294, Alt.=10.280647m. Speed=2.916000m/h.</desc>
<speed>0.810000</speed>
</trkpt>
<trkpt lat="20.955200" lon="107.049316">
<ele>11.040901</ele>
<time>2011-04-30T05:13:15Z</time>
<desc>lat.=20.955200, lon.=107.049316, Alt.=11.040901m. Speed=2.952000m/h.</desc>
<speed>0.820000</speed>
</trkpt>
<trkpt lat="20.955156" lon="107.049309">
<ele>14.364632</ele>
<time>2011-04-30T05:13:20Z</time>
<desc>lat.=20.955156, lon.=107.049309, Alt.=14.364632m. Speed=2.700000m/h.</desc>
<speed>0.750000</speed>
</trkpt>
<trkpt lat="20.955109" lon="107.049316">
<ele>14.998421</ele>
<time>2011-04-30T05:13:25Z</time>
<desc>lat.=20.955109, lon.=107.049316, Alt.=14.998421m. Speed=2.304000m/h.</desc>
<speed>0.640000</speed>
</trkpt>
<trkpt lat="20.955059" lon="107.049324">
<ele>14.396126</ele>
<time>2011-04-30T05:13:30Z</time>
<desc>lat.=20.955059, lon.=107.049324, Alt.=14.396126m. Speed=4.248000m/h.</desc>
<speed>1.180000</speed>
</trkpt>
<trkpt lat="20.955023" lon="107.049339">
<ele>14.556526</ele>
<time>2011-04-30T05:13:35Z</time>
<desc>lat.=20.955023, lon.=107.049339, Alt.=14.556526m. Speed=3.024000m/h.</desc>
<speed>0.840000</speed>
</trkpt>
<trkpt lat="20.954964" lon="107.049332">
<ele>12.772591</ele>
<time>2011-04-30T05:13:40Z</time>
<desc>lat.=20.954964, lon.=107.049332, Alt.=12.772591m. Speed=3.456000m/h.</desc>
<speed>0.960000</speed>
</trkpt>
<trkpt lat="20.954945" lon="107.049301">
<ele>11.750862</ele>
<time>2011-04-30T05:13:45Z</time>
<desc>lat.=20.954945, lon.=107.049301, Alt.=11.750862m. Speed=3.960000m/h.</desc>
<speed>1.100000</speed>
</trkpt>
<trkpt lat="20.954918" lon="107.049232">
<ele>8.409309</ele>
<time>2011-04-30T05:13:50Z</time>
<desc>lat.=20.954918, lon.=107.049232, Alt.=8.409309m. Speed=4.824000m/h.</desc>
<speed>1.340000</speed>
</trkpt>
<trkpt lat="20.954924" lon="107.049179">
<ele>6.378361</ele>
<time>2011-04-30T05:13:55Z</time>
<desc>lat.=20.954924, lon.=107.049179, Alt.=6.378361m. Speed=3.636000m/h.</desc>
<speed>1.010000</speed>
</trkpt>
<trkpt lat="20.954920" lon="107.049141">
<ele>5.602238</ele>
<time>2011-04-30T05:14:00Z</time>
<desc>lat.=20.954920, lon.=107.049141, Alt.=5.602238m. Speed=2.448000m/h.</desc>
<speed>0.680000</speed>
</trkpt>
<trkpt lat="20.954908" lon="107.049103">
<ele>5.300968</ele>
<time>2011-04-30T05:14:05Z</time>
<desc>lat.=20.954908, lon.=107.049103, Alt.=5.300968m. Speed=3.024000m/h.</desc>
<speed>0.840000</speed>
</trkpt>
<trkpt lat="20.954891" lon="107.049080">
<ele>5.394962</ele>
<time>2011-04-30T05:14:10Z</time>
<desc>lat.=20.954891, lon.=107.049080, Alt.=5.394962m. Speed=3.024000m/h.</desc>
<speed>0.840000</speed>
</trkpt>
<trkpt lat="20.954878" lon="107.049034">
<ele>5.254581</ele>
<time>2011-04-30T05:14:15Z</time>
<desc>lat.=20.954878, lon.=107.049034, Alt.=5.254581m. Speed=3.744000m/h.</desc>
<speed>1.040000</speed>
</trkpt>
<trkpt lat="20.954874" lon="107.048981">
<ele>4.674015</ele>
<time>2011-04-30T05:14:20Z</time>
<desc>lat.=20.954874, lon.=107.048981, Alt.=4.674015m. Speed=3.564000m/h.</desc>
<speed>0.990000</speed>
</trkpt>
<trkpt lat="20.954884" lon="107.048927">
<ele>3.532015</ele>
<time>2011-04-30T05:14:25Z</time>
<desc>lat.=20.954884, lon.=107.048927, Alt.=3.532015m. Speed=3.960000m/h.</desc>
<speed>1.100000</speed>
</trkpt>
<trkpt lat="20.954878" lon="107.048866">
<ele>2.183992</ele>
<time>2011-04-30T05:14:30Z</time>
<desc>lat.=20.954878, lon.=107.048866, Alt.=2.183992m. Speed=4.860000m/h.</desc>
<speed>1.350000</speed>
</trkpt>
<trkpt lat="20.954868" lon="107.048820">
<ele>2.579134</ele>
<time>2011-04-30T05:14:35Z</time>
<desc>lat.=20.954868, lon.=107.048820, Alt.=2.579134m. Speed=1.980000m/h.</desc>
<speed>0.550000</speed>
</trkpt>
<trkpt lat="20.954859" lon="107.048798">
<ele>3.742464</ele>
<time>2011-04-30T05:14:40Z</time>
<desc>lat.=20.954859, lon.=107.048798, Alt.=3.742464m. Speed=3.636000m/h.</desc>
<speed>1.010000</speed>
</trkpt>
<trkpt lat="20.954838" lon="107.048752">
<ele>4.774723</ele>
<time>2011-04-30T05:14:45Z</time>
<desc>lat.=20.954838, lon.=107.048752, Alt.=4.774723m. Speed=3.996000m/h.</desc>
<speed>1.110000</speed>
</trkpt>
<trkpt lat="20.954817" lon="107.048698">
<ele>5.347233</ele>
<time>2011-04-30T05:14:50Z</time>
<desc>lat.=20.954817, lon.=107.048698, Alt.=5.347233m. Speed=4.248000m/h.</desc>
<speed>1.180000</speed>
</trkpt>
<trkpt lat="20.954792" lon="107.048668">
<ele>7.024113</ele>
<time>2011-04-30T05:14:55Z</time>
<desc>lat.=20.954792, lon.=107.048668, Alt.=7.024113m. Speed=3.456000m/h.</desc>
<speed>0.960000</speed>
</trkpt>
<trkpt lat="20.954775" lon="107.048622">
<ele>7.952946</ele>
<time>2011-04-30T05:15:00Z</time>
<desc>lat.=20.954775, lon.=107.048622, Alt.=7.952946m. Speed=3.168000m/h.</desc>
<speed>0.880000</speed>
</trkpt>
<trkpt lat="20.954762" lon="107.048576">
<ele>8.514534</ele>
<time>2011-04-30T05:15:05Z</time>
<desc>lat.=20.954762, lon.=107.048576, Alt.=8.514534m. Speed=1.044000m/h.</desc>
<speed>0.290000</speed>
</trkpt>
<trkpt lat="20.954731" lon="107.048546">
<ele>5.716373</ele>
<time>2011-04-30T05:15:10Z</time>
<desc>lat.=20.954731, lon.=107.048546, Alt.=5.716373m. Speed=2.268000m/h.</desc>
<speed>0.630000</speed>
</trkpt>
<trkpt lat="20.954706" lon="107.048523">
<ele>4.060001</ele>
<time>2011-04-30T05:15:15Z</time>
<desc>lat.=20.954706, lon.=107.048523, Alt.=4.060001m. Speed=1.800000m/h.</desc>
<speed>0.500000</speed>
</trkpt>
<trkpt lat="20.954693" lon="107.048500">
<ele>2.723970</ele>
<time>2011-04-30T05:15:20Z</time>
<desc>lat.=20.954693, lon.=107.048500, Alt.=2.723970m. Speed=3.096000m/h.</desc>
<speed>0.860000</speed>
</trkpt>
<trkpt lat="20.954676" lon="107.048454">
<ele>2.235079</ele>
<time>2011-04-30T05:15:25Z</time>
<desc>lat.=20.954676, lon.=107.048454, Alt.=2.235079m. Speed=2.016000m/h.</desc>
<speed>0.560000</speed>
</trkpt>
<trkpt lat="20.954660" lon="107.048431">
<ele>1.565965</ele>
<time>2011-04-30T05:15:30Z</time>
<desc>lat.=20.954660, lon.=107.048431, Alt.=1.565965m. Speed=0.936000m/h.</desc>
<speed>0.260000</speed>
</trkpt>
<trkpt lat="20.954655" lon="107.048431">
<ele>1.341660</ele>
<time>2011-04-30T05:15:35Z</time>
<desc>lat.=20.954655, lon.=107.048431, Alt.=1.341660m. Speed=0.180000m/h.</desc>
<speed>0.050000</speed>
</trkpt>
<trkpt lat="20.954655" lon="107.048431">
<ele>1.373521</ele>
<time>2011-04-30T05:15:40Z</time>
<desc>lat.=20.954655, lon.=107.048431, Alt.=1.373521m. Speed=0.900000m/h.</desc>
<speed>0.250000</speed>
</trkpt>
<trkpt lat="20.954662" lon="107.048454">
<ele>1.216233</ele>
<time>2011-04-30T05:15:45Z</time>
<desc>lat.=20.954662, lon.=107.048454, Alt.=1.216233m. Speed=2.700000m/h.</desc>
<speed>0.750000</speed>
</trkpt>
<trkpt lat="20.954666" lon="107.048485">
<ele>1.876817</ele>
<time>2011-04-30T05:15:50Z</time>
<desc>lat.=20.954666, lon.=107.048485, Alt.=1.876817m. Speed=3.240000m/h.</desc>
<speed>0.900000</speed>
</trkpt>
<trkpt lat="20.954670" lon="107.048492">
<ele>1.713700</ele>
<time>2011-04-30T05:15:55Z</time>
<desc>lat.=20.954670, lon.=107.048492, Alt.=1.713700m. Speed=0.648000m/h.</desc>
<speed>0.180000</speed>
</trkpt>
<trkpt lat="20.954670" lon="107.048492">
<ele>1.832200</ele>
<time>2011-04-30T05:16:00Z</time>
<desc>lat.=20.954670, lon.=107.048492, Alt.=1.832200m. Speed=0.108000m/h.</desc>
<speed>0.030000</speed>
</trkpt>
<trkpt lat="20.954666" lon="107.048470">
<ele>1.430100</ele>
<time>2011-04-30T05:16:05Z</time>
<desc>lat.=20.954666, lon.=107.048470, Alt.=1.430100m. Speed=3.564000m/h.</desc>
<speed>0.990000</speed>
</trkpt>
<trkpt lat="20.954649" lon="107.048431">
<ele>2.139254</ele>
<time>2011-04-30T05:16:10Z</time>
<desc>lat.=20.954649, lon.=107.048431, Alt.=2.139254m. Speed=2.664000m/h.</desc>
<speed>0.740000</speed>
</trkpt>
<trkpt lat="20.954657" lon="107.048416">
<ele>1.410783</ele>
<time>2011-04-30T05:16:15Z</time>
<desc>lat.=20.954657, lon.=107.048416, Alt.=1.410783m. Speed=0.216000m/h.</desc>
<speed>0.060000</speed>
</trkpt>
<trkpt lat="20.954655" lon="107.048409">
<ele>0.870217</ele>
<time>2011-04-30T05:16:20Z</time>
<desc>lat.=20.954655, lon.=107.048409, Alt.=0.870217m. Speed=0.036000m/h.</desc>
<speed>0.010000</speed>
</trkpt>
<trkpt lat="20.954653" lon="107.048409">
<ele>1.050157</ele>
<time>2011-04-30T05:16:25Z</time>
<desc>lat.=20.954653, lon.=107.048409, Alt.=1.050157m. Speed=0.180000m/h.</desc>
<speed>0.050000</speed>
</trkpt>
<trkpt lat="20.954653" lon="107.048409">
<ele>1.163316</ele>
<time>2011-04-30T05:16:30Z</time>
<desc>lat.=20.954653, lon.=107.048409, Alt.=1.163316m. Speed=0.180000m/h.</desc>
<speed>0.050000</speed>
</trkpt>
<trkpt lat="20.954653" lon="107.048409">
<ele>1.137132</ele>
<time>2011-04-30T05:16:35Z</time>
<desc>lat.=20.954653, lon.=107.048409, Alt.=1.137132m. Speed=0.072000m/h.</desc>
<speed>0.020000</speed>
</trkpt>
<trkpt lat="20.954653" lon="107.048409">
<ele>1.132585</ele>
<time>2011-04-30T05:16:40Z</time>
<desc>lat.=20.954653, lon.=107.048409, Alt.=1.132585m. Speed=0.000000m/h.</desc>
<speed>0.000000</speed>
</trkpt>
<trkpt lat="20.954653" lon="107.048409">
<ele>1.108872</ele>
<time>2011-04-30T05:16:45Z</time>
<desc>lat.=20.954653, lon.=107.048409, Alt.=1.108872m. Speed=0.036000m/h.</desc>
<speed>0.010000</speed>
</trkpt>
<trkpt lat="20.954653" lon="107.048409">
<ele>1.090653</ele>
<time>2011-04-30T05:16:50Z</time>
<desc>lat.=20.954653, lon.=107.048409, Alt.=1.090653m. Speed=0.036000m/h.</desc>
<speed>0.010000</speed>
</trkpt>
<trkpt lat="20.954653" lon="107.048409">
<ele>1.073625</ele>
<time>2011-04-30T05:16:55Z</time>
<desc>lat.=20.954653, lon.=107.048409, Alt.=1.073625m. Speed=0.000000m/h.</desc>
<speed>0.000000</speed>
</trkpt>
<trkpt lat="20.954653" lon="107.048409">
<ele>1.059037</ele>
<time>2011-04-30T05:17:00Z</time>
<desc>lat.=20.954653, lon.=107.048409, Alt.=1.059037m. Speed=0.000000m/h.</desc>
<speed>0.000000</speed>
</trkpt>
<trkpt lat="20.954653" lon="107.048409">
<ele>1.044663</ele>
<time>2011-04-30T05:17:05Z</time>
<desc>lat.=20.954653, lon.=107.048409, Alt.=1.044663m. Speed=0.288000m/h.</desc>
<speed>0.080000</speed>
</trkpt>
<trkpt lat="20.954647" lon="107.048409">
<ele>1.070695</ele>
<time>2011-04-30T05:17:10Z</time>
<desc>lat.=20.954647, lon.=107.048409, Alt.=1.070695m. Speed=1.656000m/h.</desc>
<speed>0.460000</speed>
</trkpt>
<trkpt lat="20.954659" lon="107.048416">
<ele>1.750901</ele>
<time>2011-04-30T05:17:15Z</time>
<desc>lat.=20.954659, lon.=107.048416, Alt.=1.750901m. Speed=0.180000m/h.</desc>
<speed>0.050000</speed>
</trkpt>
<trkpt lat="20.954660" lon="107.048424">
<ele>2.074312</ele>
<time>2011-04-30T05:17:20Z</time>
<desc>lat.=20.954660, lon.=107.048424, Alt.=2.074312m. Speed=0.072000m/h.</desc>
<speed>0.020000</speed>
</trkpt>
<trkpt lat="20.954662" lon="107.048424">
<ele>2.230440</ele>
<time>2011-04-30T05:17:25Z</time>
<desc>lat.=20.954662, lon.=107.048424, Alt.=2.230440m. Speed=0.036000m/h.</desc>
<speed>0.010000</speed>
</trkpt>
<trkpt lat="20.954662" lon="107.048424">
<ele>2.241121</ele>
<time>2011-04-30T05:17:30Z</time>
<desc>lat.=20.954662, lon.=107.048424, Alt.=2.241121m. Speed=0.036000m/h.</desc>
<speed>0.010000</speed>
</trkpt>
<trkpt lat="20.954662" lon="107.048424">
<ele>2.233553</ele>
<time>2011-04-30T05:17:35Z</time>
<desc>lat.=20.954662, lon.=107.048424, Alt.=2.233553m. Speed=0.468000m/h.</desc>
<speed>0.130000</speed>
</trkpt>
<trkpt lat="20.954653" lon="107.048401">
<ele>2.341036</ele>
<time>2011-04-30T05:17:40Z</time>
<desc>lat.=20.954653, lon.=107.048401, Alt.=2.341036m. Speed=1.872000m/h.</desc>
<speed>0.520000</speed>
</trkpt>
<trkpt lat="20.954649" lon="107.048370">
<ele>4.232731</ele>
<time>2011-04-30T05:17:45Z</time>
<desc>lat.=20.954649, lon.=107.048370, Alt.=4.232731m. Speed=1.836000m/h.</desc>
<speed>0.510000</speed>
</trkpt>
<trkpt lat="20.954639" lon="107.048355">
<ele>4.881901</ele>
<time>2011-04-30T05:17:50Z</time>
<desc>lat.=20.954639, lon.=107.048355, Alt.=4.881901m. Speed=1.728000m/h.</desc>
<speed>0.480000</speed>
</trkpt>
<trkpt lat="20.954617" lon="107.048317">
<ele>3.795015</ele>
<time>2011-04-30T05:17:55Z</time>
<desc>lat.=20.954617, lon.=107.048317, Alt.=3.795015m. Speed=1.908000m/h.</desc>
<speed>0.530000</speed>
</trkpt>
<trkpt lat="20.954601" lon="107.048286">
<ele>4.310123</ele>
<time>2011-04-30T05:18:00Z</time>
<desc>lat.=20.954601, lon.=107.048286, Alt.=4.310123m. Speed=3.060000m/h.</desc>
<speed>0.850000</speed>
</trkpt>
<trkpt lat="20.954584" lon="107.048248">
<ele>3.316805</ele>
<time>2011-04-30T05:18:05Z</time>
<desc>lat.=20.954584, lon.=107.048248, Alt.=3.316805m. Speed=2.412000m/h.</desc>
<speed>0.670000</speed>
</trkpt>
<trkpt lat="20.954559" lon="107.048225">
<ele>2.693819</ele>
<time>2011-04-30T05:18:10Z</time>
<desc>lat.=20.954559, lon.=107.048225, Alt.=2.693819m. Speed=2.484000m/h.</desc>
<speed>0.690000</speed>
</trkpt>
<trkpt lat="20.954535" lon="107.048187">
<ele>0.897454</ele>
<time>2011-04-30T05:18:15Z</time>
<desc>lat.=20.954535, lon.=107.048187, Alt.=0.897454m. Speed=0.792000m/h.</desc>
<speed>0.220000</speed>
</trkpt>
<trkpt lat="20.954540" lon="107.048172">
<ele>0.302731</ele>
<time>2011-04-30T05:18:20Z</time>
<desc>lat.=20.954540, lon.=107.048172, Alt.=0.302731m. Speed=2.772000m/h.</desc>
<speed>0.770000</speed>
</trkpt>
<trkpt lat="20.954514" lon="107.048134">
<ele>0.782555</ele>
<time>2011-04-30T05:18:25Z</time>
<desc>lat.=20.954514, lon.=107.048134, Alt.=0.782555m. Speed=2.772000m/h.</desc>
<speed>0.770000</speed>
</trkpt>
<trkpt lat="20.954500" lon="107.048111">
<ele>1.242570</ele>
<time>2011-04-30T05:18:30Z</time>
<desc>lat.=20.954500, lon.=107.048111, Alt.=1.242570m. Speed=0.864000m/h.</desc>
<speed>0.240000</speed>
</trkpt>
<trkpt lat="20.954510" lon="107.048111">
<ele>1.915605</ele>
<time>2011-04-30T05:18:35Z</time>
<desc>lat.=20.954510, lon.=107.048111, Alt.=1.915605m. Speed=0.180000m/h.</desc>
<speed>0.050000</speed>
</trkpt>
<trkpt lat="20.954512" lon="107.048119">
<ele>2.432222</ele>
<time>2011-04-30T05:18:40Z</time>
<desc>lat.=20.954512, lon.=107.048119, Alt.=2.432222m. Speed=0.144000m/h.</desc>
<speed>0.040000</speed>
</trkpt>
<trkpt lat="20.954514" lon="107.048119">
<ele>3.023287</ele>
<time>2011-04-30T05:18:45Z</time>
<desc>lat.=20.954514, lon.=107.048119, Alt.=3.023287m. Speed=0.288000m/h.</desc>
<speed>0.080000</speed>
</trkpt>
<trkpt lat="20.954514" lon="107.048119">
<ele>3.541780</ele>
<time>2011-04-30T05:18:50Z</time>
<desc>lat.=20.954514, lon.=107.048119, Alt.=3.541780m. Speed=0.036000m/h.</desc>
<speed>0.010000</speed>
</trkpt>
<trkpt lat="20.954514" lon="107.048119">
<ele>3.942781</ele>
<time>2011-04-30T05:18:55Z</time>
<desc>lat.=20.954514, lon.=107.048119, Alt.=3.942781m. Speed=0.072000m/h.</desc>
<speed>0.020000</speed>
</trkpt>
<trkpt lat="20.954515" lon="107.048119">
<ele>4.426334</ele>
<time>2011-04-30T05:19:00Z</time>
<desc>lat.=20.954515, lon.=107.048119, Alt.=4.426334m. Speed=0.144000m/h.</desc>
<speed>0.040000</speed>
</trkpt>
<trkpt lat="20.954517" lon="107.048119">
<ele>5.025700</ele>
<time>2011-04-30T05:19:05Z</time>
<desc>lat.=20.954517, lon.=107.048119, Alt.=5.025700m. Speed=0.216000m/h.</desc>
<speed>0.060000</speed>
</trkpt>
<trkpt lat="20.954517" lon="107.048126">
<ele>5.397404</ele>
<time>2011-04-30T05:19:10Z</time>
<desc>lat.=20.954517, lon.=107.048126, Alt.=5.397404m. Speed=0.432000m/h.</desc>
<speed>0.120000</speed>
</trkpt>
<trkpt lat="20.954523" lon="107.048126">
<ele>5.658268</ele>
<time>2011-04-30T05:19:15Z</time>
<desc>lat.=20.954523, lon.=107.048126, Alt.=5.658268m. Speed=0.324000m/h.</desc>
<speed>0.090000</speed>
</trkpt>
<trkpt lat="20.954527" lon="107.048126">
<ele>5.858219</ele>
<time>2011-04-30T05:19:20Z</time>
<desc>lat.=20.954527, lon.=107.048126, Alt.=5.858219m. Speed=0.216000m/h.</desc>
<speed>0.060000</speed>
</trkpt>
<trkpt lat="20.954527" lon="107.048119">
<ele>6.029484</ele>
<time>2011-04-30T05:19:25Z</time>
<desc>lat.=20.954527, lon.=107.048119, Alt.=6.029484m. Speed=0.288000m/h.</desc>
<speed>0.080000</speed>
</trkpt>
<trkpt lat="20.954523" lon="107.048111">
<ele>6.061222</ele>
<time>2011-04-30T05:19:30Z</time>
<desc>lat.=20.954523, lon.=107.048111, Alt.=6.061222m. Speed=1.296000m/h.</desc>
<speed>0.360000</speed>
</trkpt>
<trkpt lat="20.954512" lon="107.048103">
<ele>6.168034</ele>
<time>2011-04-30T05:19:35Z</time>
<desc>lat.=20.954512, lon.=107.048103, Alt.=6.168034m. Speed=0.108000m/h.</desc>
<speed>0.030000</speed>
</trkpt>
<trkpt lat="20.954512" lon="107.048103">
<ele>6.870426</ele>
<time>2011-04-30T05:19:40Z</time>
<desc>lat.=20.954512, lon.=107.048103, Alt.=6.870426m. Speed=1.692000m/h.</desc>
<speed>0.470000</speed>
</trkpt>
<trkpt lat="20.954491" lon="107.048065">
<ele>7.609684</ele>
<time>2011-04-30T05:19:45Z</time>
<desc>lat.=20.954491, lon.=107.048065, Alt.=7.609684m. Speed=3.744000m/h.</desc>
<speed>1.040000</speed>
</trkpt>
<trkpt lat="20.954451" lon="107.048035">
<ele>7.913517</ele>
<time>2011-04-30T05:19:50Z</time>
<desc>lat.=20.954451, lon.=107.048035, Alt.=7.913517m. Speed=3.852000m/h.</desc>
<speed>1.070000</speed>
</trkpt>
<trkpt lat="20.954418" lon="107.047981">
<ele>8.343147</ele>
<time>2011-04-30T05:19:55Z</time>
<desc>lat.=20.954418, lon.=107.047981, Alt.=8.343147m. Speed=3.636000m/h.</desc>
<speed>1.010000</speed>
</trkpt>
<trkpt lat="20.954390" lon="107.047928">
<ele>7.998112</ele>
<time>2011-04-30T05:20:00Z</time>
<desc>lat.=20.954390, lon.=107.047928, Alt.=7.998112m. Speed=3.420000m/h.</desc>
<speed>0.950000</speed>
</trkpt>
<trkpt lat="20.954361" lon="107.047882">
<ele>7.540958</ele>
<time>2011-04-30T05:20:05Z</time>
<desc>lat.=20.954361, lon.=107.047882, Alt.=7.540958m. Speed=2.628000m/h.</desc>
<speed>0.730000</speed>
</trkpt>
<trkpt lat="20.954319" lon="107.047882">
<ele>7.846500</ele>
<time>2011-04-30T05:20:10Z</time>
<desc>lat.=20.954319, lon.=107.047882, Alt.=7.846500m. Speed=4.356000m/h.</desc>
<speed>1.210000</speed>
</trkpt>
<trkpt lat="20.954264" lon="107.047882">
<ele>8.616096</ele>
<time>2011-04-30T05:20:15Z</time>
<desc>lat.=20.954264, lon.=107.047882, Alt.=8.616096m. Speed=4.536000m/h.</desc>
<speed>1.260000</speed>
</trkpt>
<trkpt lat="20.954212" lon="107.047897">
<ele>8.822151</ele>
<time>2011-04-30T05:20:20Z</time>
<desc>lat.=20.954212, lon.=107.047897, Alt.=8.822151m. Speed=4.608000m/h.</desc>
<speed>1.280000</speed>
</trkpt>
<trkpt lat="20.954161" lon="107.047928">
<ele>9.235237</ele>
<time>2011-04-30T05:20:25Z</time>
<desc>lat.=20.954161, lon.=107.047928, Alt.=9.235237m. Speed=4.932000m/h.</desc>
<speed>1.370000</speed>
</trkpt>
<trkpt lat="20.954102" lon="107.047958">
<ele>8.990608</ele>
<time>2011-04-30T05:20:30Z</time>
<desc>lat.=20.954102, lon.=107.047958, Alt.=8.990608m. Speed=4.788000m/h.</desc>
<speed>1.330000</speed>
</trkpt>
<trkpt lat="20.954048" lon="107.047989">
<ele>9.577766</ele>
<time>2011-04-30T05:20:35Z</time>
<desc>lat.=20.954048, lon.=107.047989, Alt.=9.577766m. Speed=5.148000m/h.</desc>
<speed>1.430000</speed>
</trkpt>
<trkpt lat="20.953995" lon="107.048012">
<ele>9.923958</ele>
<time>2011-04-30T05:20:40Z</time>
<desc>lat.=20.953995, lon.=107.048012, Alt.=9.923958m. Speed=4.356000m/h.</desc>
<speed>1.210000</speed>
</trkpt>
<trkpt lat="20.953945" lon="107.048042">
<ele>9.937386</ele>
<time>2011-04-30T05:20:45Z</time>
<desc>lat.=20.953945, lon.=107.048042, Alt.=9.937386m. Speed=4.068000m/h.</desc>
<speed>1.130000</speed>
</trkpt>
<trkpt lat="20.953890" lon="107.048065">
<ele>9.510139</ele>
<time>2011-04-30T05:20:50Z</time>
<desc>lat.=20.953890, lon.=107.048065, Alt.=9.510139m. Speed=3.852000m/h.</desc>
<speed>1.070000</speed>
</trkpt>
<trkpt lat="20.953836" lon="107.048088">
<ele>8.561897</ele>
<time>2011-04-30T05:20:55Z</time>
<desc>lat.=20.953836, lon.=107.048088, Alt.=8.561897m. Speed=4.536000m/h.</desc>
<speed>1.260000</speed>
</trkpt>
<trkpt lat="20.953785" lon="107.048119">
<ele>7.438175</ele>
<time>2011-04-30T05:21:00Z</time>
<desc>lat.=20.953785, lon.=107.048119, Alt.=7.438175m. Speed=4.680000m/h.</desc>
<speed>1.300000</speed>
</trkpt>
<trkpt lat="20.953730" lon="107.048149">
<ele>6.220890</ele>
<time>2011-04-30T05:21:05Z</time>
<desc>lat.=20.953730, lon.=107.048149, Alt.=6.220890m. Speed=4.536000m/h.</desc>
<speed>1.260000</speed>
</trkpt>
<trkpt lat="20.953676" lon="107.048180">
<ele>5.326359</ele>
<time>2011-04-30T05:21:10Z</time>
<desc>lat.=20.953676, lon.=107.048180, Alt.=5.326359m. Speed=4.896000m/h.</desc>
<speed>1.360000</speed>
</trkpt>
<trkpt lat="20.953625" lon="107.048203">
<ele>5.309391</ele>
<time>2011-04-30T05:21:15Z</time>
<desc>lat.=20.953625, lon.=107.048203, Alt.=5.309391m. Speed=4.896000m/h.</desc>
<speed>1.360000</speed>
</trkpt>
<trkpt lat="20.953573" lon="107.048225">
<ele>5.280094</ele>
<time>2011-04-30T05:21:20Z</time>
<desc>lat.=20.953573, lon.=107.048225, Alt.=5.280094m. Speed=4.284000m/h.</desc>
<speed>1.190000</speed>
</trkpt>
<trkpt lat="20.953520" lon="107.048256">
<ele>4.971989</ele>
<time>2011-04-30T05:21:25Z</time>
<desc>lat.=20.953520, lon.=107.048256, Alt.=4.971989m. Speed=4.284000m/h.</desc>
<speed>1.190000</speed>
</trkpt>
<trkpt lat="20.953459" lon="107.048286">
<ele>4.317204</ele>
<time>2011-04-30T05:21:30Z</time>
<desc>lat.=20.953459, lon.=107.048286, Alt.=4.317204m. Speed=4.428000m/h.</desc>
<speed>1.230000</speed>
</trkpt>
<trkpt lat="20.953405" lon="107.048317">
<ele>4.091740</ele>
<time>2011-04-30T05:21:35Z</time>
<desc>lat.=20.953405, lon.=107.048317, Alt.=4.091740m. Speed=4.104000m/h.</desc>
<speed>1.140000</speed>
</trkpt>
<trkpt lat="20.953358" lon="107.048347">
<ele>3.892427</ele>
<time>2011-04-30T05:21:40Z</time>
<desc>lat.=20.953358, lon.=107.048347, Alt.=3.892427m. Speed=3.816000m/h.</desc>
<speed>1.060000</speed>
</trkpt>
<trkpt lat="20.953314" lon="107.048370">
<ele>3.686983</ele>
<time>2011-04-30T05:21:45Z</time>
<desc>lat.=20.953314, lon.=107.048370, Alt.=3.686983m. Speed=4.608000m/h.</desc>
<speed>1.280000</speed>
</trkpt>
<trkpt lat="20.953262" lon="107.048401">
<ele>3.690950</ele>
<time>2011-04-30T05:21:50Z</time>
<desc>lat.=20.953262, lon.=107.048401, Alt.=3.690950m. Speed=4.464000m/h.</desc>
<speed>1.240000</speed>
</trkpt>
<trkpt lat="20.953211" lon="107.048431">
<ele>3.579988</ele>
<time>2011-04-30T05:21:55Z</time>
<desc>lat.=20.953211, lon.=107.048431, Alt.=3.579988m. Speed=4.752000m/h.</desc>
<speed>1.320000</speed>
</trkpt>
<trkpt lat="20.953165" lon="107.048454">
<ele>3.746126</ele>
<time>2011-04-30T05:22:00Z</time>
<desc>lat.=20.953165, lon.=107.048454, Alt.=3.746126m. Speed=4.104000m/h.</desc>
<speed>1.140000</speed>
</trkpt>
<trkpt lat="20.953117" lon="107.048485">
<ele>4.015690</ele>
<time>2011-04-30T05:22:05Z</time>
<desc>lat.=20.953117, lon.=107.048485, Alt.=4.015690m. Speed=4.392000m/h.</desc>
<speed>1.220000</speed>
</trkpt>
<trkpt lat="20.953068" lon="107.048508">
<ele>4.125065</ele>
<time>2011-04-30T05:22:10Z</time>
<desc>lat.=20.953068, lon.=107.048508, Alt.=4.125065m. Speed=4.356000m/h.</desc>
<speed>1.210000</speed>
</trkpt>
<trkpt lat="20.953018" lon="107.048538">
<ele>3.475679</ele>
<time>2011-04-30T05:22:15Z</time>
<desc>lat.=20.953018, lon.=107.048538, Alt.=3.475679m. Speed=4.500000m/h.</desc>
<speed>1.250000</speed>
</trkpt>
<trkpt lat="20.952967" lon="107.048576">
<ele>3.381868</ele>
<time>2011-04-30T05:22:20Z</time>
<desc>lat.=20.952967, lon.=107.048576, Alt.=3.381868m. Speed=4.608000m/h.</desc>
<speed>1.280000</speed>
</trkpt>
<trkpt lat="20.952915" lon="107.048599">
<ele>3.108614</ele>
<time>2011-04-30T05:22:25Z</time>
<desc>lat.=20.952915, lon.=107.048599, Alt.=3.108614m. Speed=4.356000m/h.</desc>
<speed>1.210000</speed>
</trkpt>
<trkpt lat="20.952864" lon="107.048630">
<ele>2.647738</ele>
<time>2011-04-30T05:22:30Z</time>
<desc>lat.=20.952864, lon.=107.048630, Alt.=2.647738m. Speed=4.644000m/h.</desc>
<speed>1.290000</speed>
</trkpt>
<trkpt lat="20.952810" lon="107.048660">
<ele>2.476900</ele>
<time>2011-04-30T05:22:35Z</time>
<desc>lat.=20.952810, lon.=107.048660, Alt.=2.476900m. Speed=4.392000m/h.</desc>
<speed>1.220000</speed>
</trkpt>
<trkpt lat="20.952757" lon="107.048698">
<ele>2.330904</ele>
<time>2011-04-30T05:22:40Z</time>
<desc>lat.=20.952757, lon.=107.048698, Alt.=2.330904m. Speed=4.968000m/h.</desc>
<speed>1.380000</speed>
</trkpt>
<trkpt lat="20.952713" lon="107.048729">
<ele>1.886949</ele>
<time>2011-04-30T05:22:45Z</time>
<desc>lat.=20.952713, lon.=107.048729, Alt.=1.886949m. Speed=4.392000m/h.</desc>
<speed>1.220000</speed>
</trkpt>
<trkpt lat="20.952671" lon="107.048744">
<ele>1.257493</ele>
<time>2011-04-30T05:22:50Z</time>
<desc>lat.=20.952671, lon.=107.048744, Alt.=1.257493m. Speed=3.708000m/h.</desc>
<speed>1.030000</speed>
</trkpt>
<trkpt lat="20.952635" lon="107.048767">
<ele>0.924492</ele>
<time>2011-04-30T05:22:55Z</time>
<desc>lat.=20.952635, lon.=107.048767, Alt.=0.924492m. Speed=3.060000m/h.</desc>
<speed>0.850000</speed>
</trkpt>
<trkpt lat="20.952600" lon="107.048790">
<ele>0.911858</ele>
<time>2011-04-30T05:23:00Z</time>
<desc>lat.=20.952600, lon.=107.048790, Alt.=0.911858m. Speed=1.656000m/h.</desc>
<speed>0.460000</speed>
</trkpt>
<trkpt lat="20.952604" lon="107.048805">
<ele>0.318386</ele>
<time>2011-04-30T05:23:05Z</time>
<desc>lat.=20.952604, lon.=107.048805, Alt.=0.318386m. Speed=0.684000m/h.</desc>
<speed>0.190000</speed>
</trkpt>
<trkpt lat="20.952620" lon="107.048798">
<ele>0.180323</ele>
<time>2011-04-30T05:23:10Z</time>
<desc>lat.=20.952620, lon.=107.048798, Alt.=0.180323m. Speed=0.072000m/h.</desc>
<speed>0.020000</speed>
</trkpt>
<trkpt lat="20.952620" lon="107.048798">
<ele>0.214850</ele>
<time>2011-04-30T05:23:15Z</time>
<desc>lat.=20.952620, lon.=107.048798, Alt.=0.214850m. Speed=0.180000m/h.</desc>
<speed>0.050000</speed>
</trkpt>
<trkpt lat="20.952621" lon="107.048798">
<ele>0.219561</ele>
<time>2011-04-30T05:23:20Z</time>
<desc>lat.=20.952621, lon.=107.048798, Alt.=0.219561m. Speed=0.000000m/h.</desc>
<speed>0.000000</speed>
</trkpt>
<trkpt lat="20.952621" lon="107.048798">
<ele>0.211950</ele>
<time>2011-04-30T05:23:25Z</time>
<desc>lat.=20.952621, lon.=107.048798, Alt.=0.211950m. Speed=0.036000m/h.</desc>
<speed>0.010000</speed>
</trkpt>
<trkpt lat="20.952621" lon="107.048798">
<ele>0.206789</ele>
<time>2011-04-30T05:23:30Z</time>
<desc>lat.=20.952621, lon.=107.048798, Alt.=0.206789m. Speed=0.000000m/h.</desc>
<speed>0.000000</speed>
</trkpt>
<trkpt lat="20.952621" lon="107.048798">
<ele>0.197710</ele>
<time>2011-04-30T05:23:35Z</time>
<desc>lat.=20.952621, lon.=107.048798, Alt.=0.197710m. Speed=0.072000m/h.</desc>
<speed>0.020000</speed>
</trkpt>
<trkpt lat="20.952621" lon="107.048798">
<ele>0.186384</ele>
<time>2011-04-30T05:23:40Z</time>
<desc>lat.=20.952621, lon.=107.048798, Alt.=0.186384m. Speed=0.072000m/h.</desc>
<speed>0.020000</speed>
</trkpt>
<trkpt lat="20.952621" lon="107.048798">
<ele>0.157854</ele>
<time>2011-04-30T05:23:45Z</time>
<desc>lat.=20.952621, lon.=107.048798, Alt.=0.157854m. Speed=0.000000m/h.</desc>
<speed>0.000000</speed>
</trkpt>
<trkpt lat="20.952621" lon="107.048798">
<ele>0.148676</ele>
<time>2011-04-30T05:23:50Z</time>
<desc>lat.=20.952621, lon.=107.048798, Alt.=0.148676m. Speed=0.036000m/h.</desc>
<speed>0.010000</speed>
</trkpt>
<trkpt lat="20.952621" lon="107.048798">
<ele>0.140539</ele>
<time>2011-04-30T05:23:55Z</time>
<desc>lat.=20.952621, lon.=107.048798, Alt.=0.140539m. Speed=0.000000m/h.</desc>
<speed>0.000000</speed>
</trkpt>
<trkpt lat="20.952621" lon="107.048798">
<ele>0.129870</ele>
<time>2011-04-30T05:24:00Z</time>
<desc>lat.=20.952621, lon.=107.048798, Alt.=0.129870m. Speed=0.000000m/h.</desc>
<speed>0.000000</speed>
</trkpt>
<trkpt lat="20.952621" lon="107.048798">
<ele>0.128222</ele>
<time>2011-04-30T05:24:05Z</time>
<desc>lat.=20.952621, lon.=107.048798, Alt.=0.128222m. Speed=0.180000m/h.</desc>
<speed>0.050000</speed>
</trkpt>
<trkpt lat="20.952621" lon="107.048798">
<ele>0.124522</ele>
<time>2011-04-30T05:24:10Z</time>
<desc>lat.=20.952621, lon.=107.048798, Alt.=0.124522m. Speed=0.072000m/h.</desc>
<speed>0.020000</speed>
</trkpt>
<trkpt lat="20.952621" lon="107.048798">
<ele>0.128985</ele>
<time>2011-04-30T05:24:15Z</time>
<desc>lat.=20.952621, lon.=107.048798, Alt.=0.128985m. Speed=1.836000m/h.</desc>
<speed>0.510000</speed>
</trkpt>
<trkpt lat="20.952662" lon="107.048759">
<ele>-0.698693</ele>
<time>2011-04-30T05:24:20Z</time>
<desc>lat.=20.952662, lon.=107.048759, Alt.=-0.698693m. Speed=3.168000m/h.</desc>
<speed>0.880000</speed>
</trkpt>
<trkpt lat="20.952702" lon="107.048737">
<ele>-1.568223</ele>
<time>2011-04-30T05:24:25Z</time>
<desc>lat.=20.952702, lon.=107.048737, Alt.=-1.568223m. Speed=1.980000m/h.</desc>
<speed>0.550000</speed>
</trkpt>
<trkpt lat="20.952738" lon="107.048706">
<ele>-2.431185</ele>
<time>2011-04-30T05:24:30Z</time>
<desc>lat.=20.952738, lon.=107.048706, Alt.=-2.431185m. Speed=5.724000m/h.</desc>
<speed>1.590000</speed>
</trkpt>
<trkpt lat="20.952772" lon="107.048676">
<ele>-3.075106</ele>
<time>2011-04-30T05:24:35Z</time>
<desc>lat.=20.952772, lon.=107.048676, Alt.=-3.075106m. Speed=1.872000m/h.</desc>
<speed>0.520000</speed>
</trkpt>
<trkpt lat="20.952820" lon="107.048637">
<ele>-3.295321</ele>
<time>2011-04-30T05:24:40Z</time>
<desc>lat.=20.952820, lon.=107.048637, Alt.=-3.295321m. Speed=5.724000m/h.</desc>
<speed>1.590000</speed>
</trkpt>
<trkpt lat="20.952885" lon="107.048607">
<ele>-3.726168</ele>
<time>2011-04-30T05:24:45Z</time>
<desc>lat.=20.952885, lon.=107.048607, Alt.=-3.726168m. Speed=5.688000m/h.</desc>
<speed>1.580000</speed>
</trkpt>
<trkpt lat="20.952948" lon="107.048576">
<ele>-3.709322</ele>
<time>2011-04-30T05:24:50Z</time>
<desc>lat.=20.952948, lon.=107.048576, Alt.=-3.709322m. Speed=4.788000m/h.</desc>
<speed>1.330000</speed>
</trkpt>
<trkpt lat="20.953001" lon="107.048546">
<ele>-3.855684</ele>
<time>2011-04-30T05:24:55Z</time>
<desc>lat.=20.953001, lon.=107.048546, Alt.=-3.855684m. Speed=4.644000m/h.</desc>
<speed>1.290000</speed>
</trkpt>
<trkpt lat="20.953037" lon="107.048523">
<ele>-4.266178</ele>
<time>2011-04-30T05:25:00Z</time>
<desc>lat.=20.953037, lon.=107.048523, Alt.=-4.266178m. Speed=0.396000m/h.</desc>
<speed>0.110000</speed>
</trkpt>
<trkpt lat="20.953060" lon="107.048515">
<ele>-4.037296</ele>
<time>2011-04-30T05:25:05Z</time>
<desc>lat.=20.953060, lon.=107.048515, Alt.=-4.037296m. Speed=1.584000m/h.</desc>
<speed>0.440000</speed>
</trkpt>
<trkpt lat="20.953066" lon="107.048515">
<ele>-4.406315</ele>
<time>2011-04-30T05:25:10Z</time>
<desc>lat.=20.953066, lon.=107.048515, Alt.=-4.406315m. Speed=0.180000m/h.</desc>
<speed>0.050000</speed>
</trkpt>
<trkpt lat="20.953068" lon="107.048508">
<ele>-4.371769</ele>
<time>2011-04-30T05:25:15Z</time>
<desc>lat.=20.953068, lon.=107.048508, Alt.=-4.371769m. Speed=0.072000m/h.</desc>
<speed>0.020000</speed>
</trkpt>
<trkpt lat="20.953068" lon="107.048515">
<ele>-4.372868</ele>
<time>2011-04-30T05:25:20Z</time>
<desc>lat.=20.953068, lon.=107.048515, Alt.=-4.372868m. Speed=0.072000m/h.</desc>
<speed>0.020000</speed>
</trkpt>
<trkpt lat="20.953068" lon="107.048515">
<ele>-4.372013</ele>
<time>2011-04-30T05:25:25Z</time>
<desc>lat.=20.953068, lon.=107.048515, Alt.=-4.372013m. Speed=0.036000m/h.</desc>
<speed>0.010000</speed>
</trkpt>
<trkpt lat="20.953068" lon="107.048515">
<ele>-4.371525</ele>
<time>2011-04-30T05:25:30Z</time>
<desc>lat.=20.953068, lon.=107.048515, Alt.=-4.371525m. Speed=0.036000m/h.</desc>
<speed>0.010000</speed>
</trkpt>
<trkpt lat="20.953068" lon="107.048515">
<ele>-4.386051</ele>
<time>2011-04-30T05:25:35Z</time>
<desc>lat.=20.953068, lon.=107.048515, Alt.=-4.386051m. Speed=0.036000m/h.</desc>
<speed>0.010000</speed>
</trkpt>
<trkpt lat="20.953068" lon="107.048515">
<ele>-4.395817</ele>
<time>2011-04-30T05:25:40Z</time>
<desc>lat.=20.953068, lon.=107.048515, Alt.=-4.395817m. Speed=0.036000m/h.</desc>
<speed>0.010000</speed>
</trkpt>
<trkpt lat="20.953068" lon="107.048515">
<ele>-4.402897</ele>
<time>2011-04-30T05:25:45Z</time>
<desc>lat.=20.953068, lon.=107.048515, Alt.=-4.402897m. Speed=0.000000m/h.</desc>
<speed>0.000000</speed>
</trkpt>
<trkpt lat="20.953068" lon="107.048515">
<ele>-4.397648</ele>
<time>2011-04-30T05:25:50Z</time>
<desc>lat.=20.953068, lon.=107.048515, Alt.=-4.397648m. Speed=0.036000m/h.</desc>
<speed>0.010000</speed>
</trkpt>
<trkpt lat="20.953068" lon="107.048515">
<ele>-4.396061</ele>
<time>2011-04-30T05:25:55Z</time>
<desc>lat.=20.953068, lon.=107.048515, Alt.=-4.396061m. Speed=0.036000m/h.</desc>
<speed>0.010000</speed>
</trkpt>
<trkpt lat="20.953068" lon="107.048515">
<ele>-4.399723</ele>
<time>2011-04-30T05:26:00Z</time>
<desc>lat.=20.953068, lon.=107.048515, Alt.=-4.399723m. Speed=0.036000m/h.</desc>
<speed>0.010000</speed>
</trkpt>
<trkpt lat="20.953068" lon="107.048515">
<ele>-4.398136</ele>
<time>2011-04-30T05:26:05Z</time>
<desc>lat.=20.953068, lon.=107.048515, Alt.=-4.398136m. Speed=0.000000m/h.</desc>
<speed>0.000000</speed>
</trkpt>
<trkpt lat="20.953068" lon="107.048515">
<ele>-4.404606</ele>
<time>2011-04-30T05:26:10Z</time>
<desc>lat.=20.953068, lon.=107.048515, Alt.=-4.404606m. Speed=0.000000m/h.</desc>
<speed>0.000000</speed>
</trkpt>
<trkpt lat="20.953068" lon="107.048515">
<ele>-4.414249</ele>
<time>2011-04-30T05:26:15Z</time>
<desc>lat.=20.953068, lon.=107.048515, Alt.=-4.414249m. Speed=0.936000m/h.</desc>
<speed>0.260000</speed>
</trkpt>
<trkpt lat="20.953161" lon="107.048462">
<ele>-3.606478</ele>
<time>2011-04-30T05:26:20Z</time>
<desc>lat.=20.953161, lon.=107.048462, Alt.=-3.606478m. Speed=10.692000m/h.</desc>
<speed>2.970000</speed>
</trkpt>
<trkpt lat="20.953299" lon="107.048370">
<ele>-4.334660</ele>
<time>2011-04-30T05:26:25Z</time>
<desc>lat.=20.953299, lon.=107.048370, Alt.=-4.334660m. Speed=13.068000m/h.</desc>
<speed>3.630000</speed>
</trkpt>
<trkpt lat="20.953436" lon="107.048294">
<ele>-4.127262</ele>
<time>2011-04-30T05:26:30Z</time>
<desc>lat.=20.953436, lon.=107.048294, Alt.=-4.127262m. Speed=10.764000m/h.</desc>
<speed>2.990000</speed>
</trkpt>
<trkpt lat="20.953562" lon="107.048218">
<ele>-3.965609</ele>
<time>2011-04-30T05:26:35Z</time>
<desc>lat.=20.953562, lon.=107.048218, Alt.=-3.965609m. Speed=12.888000m/h.</desc>
<speed>3.580000</speed>
</trkpt>
<trkpt lat="20.953707" lon="107.048119">
<ele>-5.030827</ele>
<time>2011-04-30T05:26:40Z</time>
<desc>lat.=20.953707, lon.=107.048119, Alt.=-5.030827m. Speed=13.428000m/h.</desc>
<speed>3.730000</speed>
</trkpt>
<trkpt lat="20.953869" lon="107.048042">
<ele>-5.213078</ele>
<time>2011-04-30T05:26:45Z</time>
<desc>lat.=20.953869, lon.=107.048042, Alt.=-5.213078m. Speed=13.356000m/h.</desc>
<speed>3.710000</speed>
</trkpt>
<trkpt lat="20.953979" lon="107.047966">
<ele>-6.113956</ele>
<time>2011-04-30T05:26:50Z</time>
<desc>lat.=20.953979, lon.=107.047966, Alt.=-6.113956m. Speed=6.444000m/h.</desc>
<speed>1.790000</speed>
</trkpt>
<trkpt lat="20.954048" lon="107.047935">
<ele>-5.947208</ele>
<time>2011-04-30T05:26:55Z</time>
<desc>lat.=20.954048, lon.=107.047935, Alt.=-5.947208m. Speed=4.572000m/h.</desc>
<speed>1.270000</speed>
</trkpt>
<trkpt lat="20.954062" lon="107.047920">
<ele>-5.924747</ele>
<time>2011-04-30T05:27:00Z</time>
<desc>lat.=20.954062, lon.=107.047920, Alt.=-5.924747m. Speed=0.684000m/h.</desc>
<speed>0.190000</speed>
</trkpt>
<trkpt lat="20.954058" lon="107.047920">
<ele>-5.940128</ele>
<time>2011-04-30T05:27:05Z</time>
<desc>lat.=20.954058, lon.=107.047920, Alt.=-5.940128m. Speed=0.720000m/h.</desc>
<speed>0.200000</speed>
</trkpt>
<trkpt lat="20.954048" lon="107.047920">
<ele>-5.922306</ele>
<time>2011-04-30T05:27:10Z</time>
<desc>lat.=20.954048, lon.=107.047920, Alt.=-5.922306m. Speed=0.360000m/h.</desc>
<speed>0.100000</speed>
</trkpt>
<trkpt lat="20.954044" lon="107.047920">
<ele>-5.906193</ele>
<time>2011-04-30T05:27:15Z</time>
<desc>lat.=20.954044, lon.=107.047920, Alt.=-5.906193m. Speed=0.144000m/h.</desc>
<speed>0.040000</speed>
</trkpt>
<trkpt lat="20.954042" lon="107.047920">
<ele>-5.864079</ele>
<time>2011-04-30T05:27:20Z</time>
<desc>lat.=20.954042, lon.=107.047920, Alt.=-5.864079m. Speed=0.864000m/h.</desc>
<speed>0.240000</speed>
</trkpt>
<trkpt lat="20.954044" lon="107.047920">
<ele>-5.862003</ele>
<time>2011-04-30T05:27:25Z</time>
<desc>lat.=20.954044, lon.=107.047920, Alt.=-5.862003m. Speed=0.540000m/h.</desc>
<speed>0.150000</speed>
</trkpt>
<trkpt lat="20.954042" lon="107.047920">
<ele>-5.814640</ele>
<time>2011-04-30T05:27:30Z</time>
<desc>lat.=20.954042, lon.=107.047920, Alt.=-5.814640m. Speed=0.288000m/h.</desc>
<speed>0.080000</speed>
</trkpt>
<trkpt lat="20.954042" lon="107.047920">
<ele>-5.793888</ele>
<time>2011-04-30T05:27:35Z</time>
<desc>lat.=20.954042, lon.=107.047920, Alt.=-5.793888m. Speed=0.324000m/h.</desc>
<speed>0.090000</speed>
</trkpt>
<trkpt lat="20.954042" lon="107.047920">
<ele>-5.833195</ele>
<time>2011-04-30T05:27:40Z</time>
<desc>lat.=20.954042, lon.=107.047920, Alt.=-5.833195m. Speed=0.144000m/h.</desc>
<speed>0.040000</speed>
</trkpt>
<trkpt lat="20.954042" lon="107.047920">
<ele>-5.871525</ele>
<time>2011-04-30T05:27:45Z</time>
<desc>lat.=20.954042, lon.=107.047920, Alt.=-5.871525m. Speed=0.180000m/h.</desc>
<speed>0.050000</speed>
</trkpt>
<trkpt lat="20.954042" lon="107.047920">
<ele>-5.864201</ele>
<time>2011-04-30T05:27:50Z</time>
<desc>lat.=20.954042, lon.=107.047920, Alt.=-5.864201m. Speed=0.000000m/h.</desc>
<speed>0.000000</speed>
</trkpt>
<trkpt lat="20.954042" lon="107.047920">
<ele>-5.862614</ele>
<time>2011-04-30T05:27:55Z</time>
<desc>lat.=20.954042, lon.=107.047920, Alt.=-5.862614m. Speed=0.324000m/h.</desc>
<speed>0.090000</speed>
</trkpt>
<trkpt lat="20.954042" lon="107.047920">
<ele>-5.852482</ele>
<time>2011-04-30T05:28:00Z</time>
<desc>lat.=20.954042, lon.=107.047920, Alt.=-5.852482m. Speed=0.072000m/h.</desc>
<speed>0.020000</speed>
</trkpt>
<trkpt lat="20.954042" lon="107.047920">
<ele>-5.838322</ele>
<time>2011-04-30T05:28:05Z</time>
<desc>lat.=20.954042, lon.=107.047920, Alt.=-5.838322m. Speed=0.072000m/h.</desc>
<speed>0.020000</speed>
</trkpt>
<trkpt lat="20.954042" lon="107.047920">
<ele>-5.822086</ele>
<time>2011-04-30T05:28:10Z</time>
<desc>lat.=20.954042, lon.=107.047920, Alt.=-5.822086m. Speed=0.180000m/h.</desc>
<speed>0.050000</speed>
</trkpt>
<trkpt lat="20.954042" lon="107.047920">
<ele>-5.838200</ele>
<time>2011-04-30T05:28:15Z</time>
<desc>lat.=20.954042, lon.=107.047920, Alt.=-5.838200m. Speed=0.396000m/h.</desc>
<speed>0.110000</speed>
</trkpt>
<trkpt lat="20.954042" lon="107.047920">
<ele>-5.807804</ele>
<time>2011-04-30T05:28:20Z</time>
<desc>lat.=20.954042, lon.=107.047920, Alt.=-5.807804m. Speed=0.036000m/h.</desc>
<speed>0.010000</speed>
</trkpt>
<trkpt lat="20.954042" lon="107.047920">
<ele>-5.841984</ele>
<time>2011-04-30T05:28:25Z</time>
<desc>lat.=20.954042, lon.=107.047920, Alt.=-5.841984m. Speed=0.432000m/h.</desc>
<speed>0.120000</speed>
</trkpt>
<trkpt lat="20.954042" lon="107.047920">
<ele>-5.864201</ele>
<time>2011-04-30T05:28:30Z</time>
<desc>lat.=20.954042, lon.=107.047920, Alt.=-5.864201m. Speed=0.036000m/h.</desc>
<speed>0.010000</speed>
</trkpt>
<trkpt lat="20.954042" lon="107.047928">
<ele>-5.854313</ele>
<time>2011-04-30T05:28:35Z</time>
<desc>lat.=20.954042, lon.=107.047928, Alt.=-5.854313m. Speed=0.396000m/h.</desc>
<speed>0.110000</speed>
</trkpt>
<trkpt lat="20.954041" lon="107.047920">
<ele>-5.805119</ele>
<time>2011-04-30T05:28:40Z</time>
<desc>lat.=20.954041, lon.=107.047920, Alt.=-5.805119m. Speed=0.612000m/h.</desc>
<speed>0.170000</speed>
</trkpt>
<trkpt lat="20.954042" lon="107.047943">
<ele>-5.469791</ele>
<time>2011-04-30T05:28:45Z</time>
<desc>lat.=20.954042, lon.=107.047943, Alt.=-5.469791m. Speed=1.728000m/h.</desc>
<speed>0.480000</speed>
</trkpt>
<trkpt lat="20.954010" lon="107.047974">
<ele>-4.730045</ele>
<time>2011-04-30T05:28:50Z</time>
<desc>lat.=20.954010, lon.=107.047974, Alt.=-4.730045m. Speed=2.916000m/h.</desc>
<speed>0.810000</speed>
</trkpt>
<trkpt lat="20.953978" lon="107.047989">
<ele>-3.480257</ele>
<time>2011-04-30T05:28:55Z</time>
<desc>lat.=20.953978, lon.=107.047989, Alt.=-3.480257m. Speed=3.816000m/h.</desc>
<speed>1.060000</speed>
</trkpt>
<trkpt lat="20.953934" lon="107.048027">
<ele>-2.421480</ele>
<time>2011-04-30T05:29:00Z</time>
<desc>lat.=20.953934, lon.=107.048027, Alt.=-2.421480m. Speed=4.032000m/h.</desc>
<speed>1.120000</speed>
</trkpt>
<trkpt lat="20.953897" lon="107.048050">
<ele>-1.416673</ele>
<time>2011-04-30T05:29:05Z</time>
<desc>lat.=20.953897, lon.=107.048050, Alt.=-1.416673m. Speed=3.096000m/h.</desc>
<speed>0.860000</speed>
</trkpt>
<trkpt lat="20.953842" lon="107.048073">
<ele>-1.798936</ele>
<time>2011-04-30T05:29:10Z</time>
<desc>lat.=20.953842, lon.=107.048073, Alt.=-1.798936m. Speed=1.008000m/h.</desc>
<speed>0.280000</speed>
</trkpt>
<trkpt lat="20.953781" lon="107.048111">
<ele>-0.152372</ele>
<time>2011-04-30T05:29:15Z</time>
<desc>lat.=20.953781, lon.=107.048111, Alt.=-0.152372m. Speed=4.140000m/h.</desc>
<speed>1.150000</speed>
</trkpt>
<trkpt lat="20.953726" lon="107.048141">
<ele>2.441317</ele>
<time>2011-04-30T05:29:20Z</time>
<desc>lat.=20.953726, lon.=107.048141, Alt.=2.441317m. Speed=4.680000m/h.</desc>
<speed>1.300000</speed>
</trkpt>
<trkpt lat="20.953669" lon="107.048172">
<ele>4.649357</ele>
<time>2011-04-30T05:29:25Z</time>
<desc>lat.=20.953669, lon.=107.048172, Alt.=4.649357m. Speed=4.248000m/h.</desc>
<speed>1.180000</speed>
</trkpt>
<trkpt lat="20.953608" lon="107.048195">
<ele>6.410221</ele>
<time>2011-04-30T05:29:30Z</time>
<desc>lat.=20.953608, lon.=107.048195, Alt.=6.410221m. Speed=3.924000m/h.</desc>
<speed>1.090000</speed>
</trkpt>
<trkpt lat="20.953550" lon="107.048225">
<ele>6.908390</ele>
<time>2011-04-30T05:29:35Z</time>
<desc>lat.=20.953550, lon.=107.048225, Alt.=6.908390m. Speed=4.644000m/h.</desc>
<speed>1.290000</speed>
</trkpt>
<trkpt lat="20.953482" lon="107.048279">
<ele>6.411198</ele>
<time>2011-04-30T05:29:40Z</time>
<desc>lat.=20.953482, lon.=107.048279, Alt.=6.411198m. Speed=4.392000m/h.</desc>
<speed>1.220000</speed>
</trkpt>
<trkpt lat="20.953434" lon="107.048309">
<ele>6.407291</ele>
<time>2011-04-30T05:29:45Z</time>
<desc>lat.=20.953434, lon.=107.048309, Alt.=6.407291m. Speed=3.384000m/h.</desc>
<speed>0.940000</speed>
</trkpt>
<trkpt lat="20.953386" lon="107.048332">
<ele>6.060978</ele>
<time>2011-04-30T05:29:50Z</time>
<desc>lat.=20.953386, lon.=107.048332, Alt.=6.060978m. Speed=2.736000m/h.</desc>
<speed>0.760000</speed>
</trkpt>
<trkpt lat="20.953331" lon="107.048370">
<ele>6.594303</ele>
<time>2011-04-30T05:29:55Z</time>
<desc>lat.=20.953331, lon.=107.048370, Alt.=6.594303m. Speed=3.996000m/h.</desc>
<speed>1.110000</speed>
</trkpt>
<trkpt lat="20.953272" lon="107.048386">
<ele>6.301456</ele>
<time>2011-04-30T05:30:00Z</time>
<desc>lat.=20.953272, lon.=107.048386, Alt.=6.301456m. Speed=4.248000m/h.</desc>
<speed>1.180000</speed>
</trkpt>
<trkpt lat="20.953230" lon="107.048409">
<ele>5.562931</ele>
<time>2011-04-30T05:30:05Z</time>
<desc>lat.=20.953230, lon.=107.048409, Alt.=5.562931m. Speed=3.168000m/h.</desc>
<speed>0.880000</speed>
</trkpt>
<trkpt lat="20.953180" lon="107.048439">
<ele>5.892643</ele>
<time>2011-04-30T05:30:10Z</time>
<desc>lat.=20.953180, lon.=107.048439, Alt.=5.892643m. Speed=4.104000m/h.</desc>
<speed>1.140000</speed>
</trkpt>
<trkpt lat="20.953136" lon="107.048470">
<ele>7.796207</ele>
<time>2011-04-30T05:30:15Z</time>
<desc>lat.=20.953136, lon.=107.048470, Alt.=7.796207m. Speed=3.240000m/h.</desc>
<speed>0.900000</speed>
</trkpt>
<trkpt lat="20.953115" lon="107.048470">
<ele>5.903873</ele>
<time>2011-04-30T05:30:20Z</time>
<desc>lat.=20.953115, lon.=107.048470, Alt.=5.903873m. Speed=0.324000m/h.</desc>
<speed>0.090000</speed>
</trkpt>
<trkpt lat="20.953114" lon="107.048470">
<ele>5.378361</ele>
<time>2011-04-30T05:30:25Z</time>
<desc>lat.=20.953114, lon.=107.048470, Alt.=5.378361m. Speed=0.180000m/h.</desc>
<speed>0.050000</speed>
</trkpt>
<trkpt lat="20.953114" lon="107.048470">
<ele>5.362736</ele>
<time>2011-04-30T05:30:30Z</time>
<desc>lat.=20.953114, lon.=107.048470, Alt.=5.362736m. Speed=0.180000m/h.</desc>
<speed>0.050000</speed>
</trkpt>
<trkpt lat="20.953114" lon="107.048470">
<ele>5.336491</ele>
<time>2011-04-30T05:30:35Z</time>
<desc>lat.=20.953114, lon.=107.048470, Alt.=5.336491m. Speed=0.108000m/h.</desc>
<speed>0.030000</speed>
</trkpt>
<trkpt lat="20.953114" lon="107.048470">
<ele>5.311100</ele>
<time>2011-04-30T05:30:40Z</time>
<desc>lat.=20.953114, lon.=107.048470, Alt.=5.311100m. Speed=0.108000m/h.</desc>
<speed>0.030000</speed>
</trkpt>
<trkpt lat="20.953114" lon="107.048470">
<ele>5.294865</ele>
<time>2011-04-30T05:30:45Z</time>
<desc>lat.=20.953114, lon.=107.048470, Alt.=5.294865m. Speed=0.072000m/h.</desc>
<speed>0.020000</speed>
</trkpt>
<trkpt lat="20.953114" lon="107.048470">
<ele>5.282291</ele>
<time>2011-04-30T05:30:50Z</time>
<desc>lat.=20.953114, lon.=107.048470, Alt.=5.282291m. Speed=0.216000m/h.</desc>
<speed>0.060000</speed>
</trkpt>
<trkpt lat="20.953121" lon="107.048462">
<ele>5.227604</ele>
<time>2011-04-30T05:30:55Z</time>
<desc>lat.=20.953121, lon.=107.048462, Alt.=5.227604m. Speed=3.492000m/h.</desc>
<speed>0.970000</speed>
</trkpt>
<trkpt lat="20.953175" lon="107.048424">
<ele>3.217501</ele>
<time>2011-04-30T05:31:00Z</time>
<desc>lat.=20.953175, lon.=107.048424, Alt.=3.217501m. Speed=3.744000m/h.</desc>
<speed>1.040000</speed>
</trkpt>
<trkpt lat="20.953230" lon="107.048393">
<ele>2.620516</ele>
<time>2011-04-30T05:31:05Z</time>
<desc>lat.=20.953230, lon.=107.048393, Alt.=2.620516m. Speed=4.860000m/h.</desc>
<speed>1.350000</speed>
</trkpt>
<trkpt lat="20.953279" lon="107.048363">
<ele>1.815660</ele>
<time>2011-04-30T05:31:10Z</time>
<desc>lat.=20.953279, lon.=107.048363, Alt.=1.815660m. Speed=4.644000m/h.</desc>
<speed>1.290000</speed>
</trkpt>
<trkpt lat="20.953329" lon="107.048340">
<ele>0.733803</ele>
<time>2011-04-30T05:31:15Z</time>
<desc>lat.=20.953329, lon.=107.048340, Alt.=0.733803m. Speed=3.924000m/h.</desc>
<speed>1.090000</speed>
</trkpt>
<trkpt lat="20.953384" lon="107.048309">
<ele>0.047651</ele>
<time>2011-04-30T05:31:20Z</time>
<desc>lat.=20.953384, lon.=107.048309, Alt.=0.047651m. Speed=4.248000m/h.</desc>
<speed>1.180000</speed>
</trkpt>
<trkpt lat="20.953440" lon="107.048279">
<ele>-0.831017</ele>
<time>2011-04-30T05:31:25Z</time>
<desc>lat.=20.953440, lon.=107.048279, Alt.=-0.831017m. Speed=3.852000m/h.</desc>
<speed>1.070000</speed>
</trkpt>
<trkpt lat="20.953480" lon="107.048256">
<ele>0.097072</ele>
<time>2011-04-30T05:31:30Z</time>
<desc>lat.=20.953480, lon.=107.048256, Alt.=0.097072m. Speed=4.392000m/h.</desc>
<speed>1.220000</speed>
</trkpt>
<trkpt lat="20.953537" lon="107.048241">
<ele>-0.474194</ele>
<time>2011-04-30T05:31:35Z</time>
<desc>lat.=20.953537, lon.=107.048241, Alt.=-0.474194m. Speed=4.464000m/h.</desc>
<speed>1.240000</speed>
</trkpt>
<trkpt lat="20.953588" lon="107.048210">
<ele>-1.124742</ele>
<time>2011-04-30T05:31:40Z</time>
<desc>lat.=20.953588, lon.=107.048210, Alt.=-1.124742m. Speed=4.572000m/h.</desc>
<speed>1.270000</speed>
</trkpt>
<trkpt lat="20.953627" lon="107.048180">
<ele>-1.271379</ele>
<time>2011-04-30T05:31:45Z</time>
<desc>lat.=20.953627, lon.=107.048180, Alt.=-1.271379m. Speed=3.888000m/h.</desc>
<speed>1.080000</speed>
</trkpt>
<trkpt lat="20.953676" lon="107.048157">
<ele>-1.615708</ele>
<time>2011-04-30T05:31:50Z</time>
<desc>lat.=20.953676, lon.=107.048157, Alt.=-1.615708m. Speed=4.212000m/h.</desc>
<speed>1.170000</speed>
</trkpt>
<trkpt lat="20.953728" lon="107.048119">
<ele>-1.958817</ele>
<time>2011-04-30T05:31:55Z</time>
<desc>lat.=20.953728, lon.=107.048119, Alt.=-1.958817m. Speed=4.176000m/h.</desc>
<speed>1.160000</speed>
</trkpt>
<trkpt lat="20.953773" lon="107.048088">
<ele>-1.625596</ele>
<time>2011-04-30T05:32:00Z</time>
<desc>lat.=20.953773, lon.=107.048088, Alt.=-1.625596m. Speed=4.608000m/h.</desc>
<speed>1.280000</speed>
</trkpt>
<trkpt lat="20.953817" lon="107.048073">
<ele>-1.407029</ele>
<time>2011-04-30T05:32:05Z</time>
<desc>lat.=20.953817, lon.=107.048073, Alt.=-1.407029m. Speed=4.068000m/h.</desc>
<speed>1.130000</speed>
</trkpt>
<trkpt lat="20.953850" lon="107.048050">
<ele>-2.259371</ele>
<time>2011-04-30T05:32:10Z</time>
<desc>lat.=20.953850, lon.=107.048050, Alt.=-2.259371m. Speed=1.548000m/h.</desc>
<speed>0.430000</speed>
</trkpt>
<trkpt lat="20.953875" lon="107.048027">
<ele>-2.391573</ele>
<time>2011-04-30T05:32:15Z</time>
<desc>lat.=20.953875, lon.=107.048027, Alt.=-2.391573m. Speed=3.564000m/h.</desc>
<speed>0.990000</speed>
</trkpt>
<trkpt lat="20.953918" lon="107.047997">
<ele>-2.338411</ele>
<time>2011-04-30T05:32:20Z</time>
<desc>lat.=20.953918, lon.=107.047997, Alt.=-2.338411m. Speed=4.284000m/h.</desc>
<speed>1.190000</speed>
</trkpt>
<trkpt lat="20.953970" lon="107.047974">
<ele>-1.420793</ele>
<time>2011-04-30T05:32:25Z</time>
<desc>lat.=20.953970, lon.=107.047974, Alt.=-1.420793m. Speed=5.112000m/h.</desc>
<speed>1.420000</speed>
</trkpt>
<trkpt lat="20.954025" lon="107.047943">
<ele>-0.509926</ele>
<time>2011-04-30T05:32:30Z</time>
<desc>lat.=20.954025, lon.=107.047943, Alt.=-0.509926m. Speed=4.680000m/h.</desc>
<speed>1.300000</speed>
</trkpt>
<trkpt lat="20.954075" lon="107.047905">
<ele>-0.593651</ele>
<time>2011-04-30T05:32:35Z</time>
<desc>lat.=20.954075, lon.=107.047905, Alt.=-0.593651m. Speed=2.844000m/h.</desc>
<speed>0.790000</speed>
</trkpt>
<trkpt lat="20.954103" lon="107.047890">
<ele>-0.344738</ele>
<time>2011-04-30T05:32:40Z</time>
<desc>lat.=20.954103, lon.=107.047890, Alt.=-0.344738m. Speed=1.512000m/h.</desc>
<speed>0.420000</speed>
</trkpt>
<trkpt lat="20.954142" lon="107.047874">
<ele>-1.471330</ele>
<time>2011-04-30T05:32:45Z</time>
<desc>lat.=20.954142, lon.=107.047874, Alt.=-1.471330m. Speed=3.276000m/h.</desc>
<speed>0.910000</speed>
</trkpt>
<trkpt lat="20.954185" lon="107.047844">
<ele>-1.890458</ele>
<time>2011-04-30T05:32:50Z</time>
<desc>lat.=20.954185, lon.=107.047844, Alt.=-1.890458m. Speed=3.600000m/h.</desc>
<speed>1.000000</speed>
</trkpt>
<trkpt lat="20.954208" lon="107.047836">
<ele>-1.670091</ele>
<time>2011-04-30T05:32:55Z</time>
<desc>lat.=20.954208, lon.=107.047836, Alt.=-1.670091m. Speed=1.440000m/h.</desc>
<speed>0.400000</speed>
</trkpt>
<trkpt lat="20.954239" lon="107.047836">
<ele>-2.397188</ele>
<time>2011-04-30T05:33:00Z</time>
<desc>lat.=20.954239, lon.=107.047836, Alt.=-2.397188m. Speed=1.800000m/h.</desc>
<speed>0.500000</speed>
</trkpt>
<trkpt lat="20.954264" lon="107.047821">
<ele>-2.664522</ele>
<time>2011-04-30T05:33:05Z</time>
<desc>lat.=20.954264, lon.=107.047821, Alt.=-2.664522m. Speed=0.504000m/h.</desc>
<speed>0.140000</speed>
</trkpt>
<trkpt lat="20.954283" lon="107.047821">
<ele>-1.572801</ele>
<time>2011-04-30T05:33:10Z</time>
<desc>lat.=20.954283, lon.=107.047821, Alt.=-1.572801m. Speed=3.888000m/h.</desc>
<speed>1.080000</speed>
</trkpt>
<trkpt lat="20.954290" lon="107.047798">
<ele>-0.725884</ele>
<time>2011-04-30T05:33:15Z</time>
<desc>lat.=20.954290, lon.=107.047798, Alt.=-0.725884m. Speed=0.324000m/h.</desc>
<speed>0.090000</speed>
</trkpt>
<trkpt lat="20.954287" lon="107.047791">
<ele>-0.382176</ele>
<time>2011-04-30T05:33:20Z</time>
<desc>lat.=20.954287, lon.=107.047791, Alt.=-0.382176m. Speed=2.700000m/h.</desc>
<speed>0.750000</speed>
</trkpt>
<trkpt lat="20.954290" lon="107.047745">
<ele>0.736428</ele>
<time>2011-04-30T05:33:25Z</time>
<desc>lat.=20.954290, lon.=107.047745, Alt.=0.736428m. Speed=4.356000m/h.</desc>
<speed>1.210000</speed>
</trkpt>
<trkpt lat="20.954277" lon="107.047714">
<ele>1.699876</ele>
<time>2011-04-30T05:33:30Z</time>
<desc>lat.=20.954277, lon.=107.047714, Alt.=1.699876m. Speed=2.412000m/h.</desc>
<speed>0.670000</speed>
</trkpt>
<trkpt lat="20.954250" lon="107.047691">
<ele>1.043168</ele>
<time>2011-04-30T05:33:35Z</time>
<desc>lat.=20.954250, lon.=107.047691, Alt.=1.043168m. Speed=0.612000m/h.</desc>
<speed>0.170000</speed>
</trkpt>
<trkpt lat="20.954241" lon="107.047691">
<ele>1.309068</ele>
<time>2011-04-30T05:33:40Z</time>
<desc>lat.=20.954241, lon.=107.047691, Alt.=1.309068m. Speed=0.216000m/h.</desc>
<speed>0.060000</speed>
</trkpt>
<trkpt lat="20.954239" lon="107.047691">
<ele>1.541398</ele>
<time>2011-04-30T05:33:45Z</time>
<desc>lat.=20.954239, lon.=107.047691, Alt.=1.541398m. Speed=1.512000m/h.</desc>
<speed>0.420000</speed>
</trkpt>
<trkpt lat="20.954237" lon="107.047714">
<ele>1.674150</ele>
<time>2011-04-30T05:33:50Z</time>
<desc>lat.=20.954237, lon.=107.047714, Alt.=1.674150m. Speed=3.312000m/h.</desc>
<speed>0.920000</speed>
</trkpt>
<trkpt lat="20.954237" lon="107.047714">
<ele>0.094108</ele>
<time>2011-04-30T05:33:55Z</time>
<desc>lat.=20.954237, lon.=107.047714, Alt.=0.094108m. Speed=0.252000m/h.</desc>
<speed>0.070000</speed>
</trkpt>
<trkpt lat="20.954235" lon="107.047714">
<ele>0.020037</ele>
<time>2011-04-30T05:34:00Z</time>
<desc>lat.=20.954235, lon.=107.047714, Alt.=0.020037m. Speed=0.072000m/h.</desc>
<speed>0.020000</speed>
</trkpt>
<trkpt lat="20.954233" lon="107.047714">
<ele>-0.003816</ele>
<time>2011-04-30T05:34:05Z</time>
<desc>lat.=20.954233, lon.=107.047714, Alt.=-0.003816m. Speed=0.252000m/h.</desc>
<speed>0.070000</speed>
</trkpt>
<trkpt lat="20.954226" lon="107.047699">
<ele>-0.113359</ele>
<time>2011-04-30T05:34:10Z</time>
<desc>lat.=20.954226, lon.=107.047699, Alt.=-0.113359m. Speed=2.700000m/h.</desc>
<speed>0.750000</speed>
</trkpt>
<trkpt lat="20.954227" lon="107.047676">
<ele>1.154069</ele>
<time>2011-04-30T05:34:15Z</time>
<desc>lat.=20.954227, lon.=107.047676, Alt.=1.154069m. Speed=3.348000m/h.</desc>
<speed>0.930000</speed>
</trkpt>
<trkpt lat="20.954254" lon="107.047676">
<ele>0.625679</ele>
<time>2011-04-30T05:34:20Z</time>
<desc>lat.=20.954254, lon.=107.047676, Alt.=0.625679m. Speed=2.736000m/h.</desc>
<speed>0.760000</speed>
</trkpt>
<trkpt lat="20.954277" lon="107.047691">
<ele>0.171194</ele>
<time>2011-04-30T05:34:25Z</time>
<desc>lat.=20.954277, lon.=107.047691, Alt.=0.171194m. Speed=1.908000m/h.</desc>
<speed>0.530000</speed>
</trkpt>
<trkpt lat="20.954258" lon="107.047699">
<ele>-0.077457</ele>
<time>2011-04-30T05:34:30Z</time>
<desc>lat.=20.954258, lon.=107.047699, Alt.=-0.077457m. Speed=0.756000m/h.</desc>
<speed>0.210000</speed>
</trkpt>
<trkpt lat="20.954248" lon="107.047707">
<ele>-0.174349</ele>
<time>2011-04-30T05:34:35Z</time>
<desc>lat.=20.954248, lon.=107.047707, Alt.=-0.174349m. Speed=0.432000m/h.</desc>
<speed>0.120000</speed>
</trkpt>
<trkpt lat="20.954245" lon="107.047714">
<ele>-0.209322</ele>
<time>2011-04-30T05:34:40Z</time>
<desc>lat.=20.954245, lon.=107.047714, Alt.=-0.209322m. Speed=0.936000m/h.</desc>
<speed>0.260000</speed>
</trkpt>
<trkpt lat="20.954231" lon="107.047714">
<ele>-0.234797</ele>
<time>2011-04-30T05:34:45Z</time>
<desc>lat.=20.954231, lon.=107.047714, Alt.=-0.234797m. Speed=1.008000m/h.</desc>
<speed>0.280000</speed>
</trkpt>
<trkpt lat="20.954241" lon="107.047707">
<ele>-0.290783</ele>
<time>2011-04-30T05:34:50Z</time>
<desc>lat.=20.954241, lon.=107.047707, Alt.=-0.290783m. Speed=0.036000m/h.</desc>
<speed>0.010000</speed>
</trkpt>
<trkpt lat="20.954237" lon="107.047707">
<ele>-0.278988</ele>
<time>2011-04-30T05:34:55Z</time>
<desc>lat.=20.954237, lon.=107.047707, Alt.=-0.278988m. Speed=0.360000m/h.</desc>
<speed>0.100000</speed>
</trkpt>
<trkpt lat="20.954233" lon="107.047699">
<ele>-0.270283</ele>
<time>2011-04-30T05:35:00Z</time>
<desc>lat.=20.954233, lon.=107.047699, Alt.=-0.270283m. Speed=0.540000m/h.</desc>
<speed>0.150000</speed>
</trkpt>
<trkpt lat="20.954229" lon="107.047691">
<ele>-0.266186</ele>
<time>2011-04-30T05:35:05Z</time>
<desc>lat.=20.954229, lon.=107.047691, Alt.=-0.266186m. Speed=0.504000m/h.</desc>
<speed>0.140000</speed>
</trkpt>
<trkpt lat="20.954226" lon="107.047691">
<ele>-0.272785</ele>
<time>2011-04-30T05:35:10Z</time>
<desc>lat.=20.954226, lon.=107.047691, Alt.=-0.272785m. Speed=0.396000m/h.</desc>
<speed>0.110000</speed>
</trkpt>
<trkpt lat="20.954222" lon="107.047691">
<ele>-0.280010</ele>
<time>2011-04-30T05:35:15Z</time>
<desc>lat.=20.954222, lon.=107.047691, Alt.=-0.280010m. Speed=0.324000m/h.</desc>
<speed>0.090000</speed>
</trkpt>
<trkpt lat="20.954224" lon="107.047691">
<ele>-0.282757</ele>
<time>2011-04-30T05:35:20Z</time>
<desc>lat.=20.954224, lon.=107.047691, Alt.=-0.282757m. Speed=1.512000m/h.</desc>
<speed>0.420000</speed>
</trkpt>
<trkpt lat="20.954256" lon="107.047684">
<ele>0.184580</ele>
<time>2011-04-30T05:35:25Z</time>
<desc>lat.=20.954256, lon.=107.047684, Alt.=0.184580m. Speed=1.584000m/h.</desc>
<speed>0.440000</speed>
</trkpt>
<trkpt lat="20.954275" lon="107.047661">
<ele>1.436418</ele>
<time>2011-04-30T05:35:30Z</time>
<desc>lat.=20.954275, lon.=107.047661, Alt.=1.436418m. Speed=1.008000m/h.</desc>
<speed>0.280000</speed>
</trkpt>
<trkpt lat="20.954269" lon="107.047668">
<ele>1.519608</ele>
<time>2011-04-30T05:35:35Z</time>
<desc>lat.=20.954269, lon.=107.047668, Alt.=1.519608m. Speed=2.484000m/h.</desc>
<speed>0.690000</speed>
</trkpt>
<trkpt lat="20.954275" lon="107.047707">
<ele>3.071383</ele>
<time>2011-04-30T05:35:40Z</time>
<desc>lat.=20.954275, lon.=107.047707, Alt.=3.071383m. Speed=0.972000m/h.</desc>
<speed>0.270000</speed>
</trkpt>
<trkpt lat="20.954306" lon="107.047676">
<ele>3.596285</ele>
<time>2011-04-30T05:35:45Z</time>
<desc>lat.=20.954306, lon.=107.047676, Alt.=3.596285m. Speed=2.592000m/h.</desc>
<speed>0.720000</speed>
</trkpt>
<trkpt lat="20.954355" lon="107.047691">
<ele>2.904024</ele>
<time>2011-04-30T05:35:50Z</time>
<desc>lat.=20.954355, lon.=107.047691, Alt.=2.904024m. Speed=2.052000m/h.</desc>
<speed>0.570000</speed>
</trkpt>
<trkpt lat="20.954456" lon="107.047691">
<ele>0.897225</ele>
<time>2011-04-30T05:35:55Z</time>
<desc>lat.=20.954456, lon.=107.047691, Alt.=0.897225m. Speed=2.628000m/h.</desc>
<speed>0.730000</speed>
</trkpt>
<trkpt lat="20.954502" lon="107.047638">
<ele>2.773348</ele>
<time>2011-04-30T05:36:00Z</time>
<desc>lat.=20.954502, lon.=107.047638, Alt.=2.773348m. Speed=3.060000m/h.</desc>
<speed>0.850000</speed>
</trkpt>
<trkpt lat="20.954542" lon="107.047615">
<ele>3.711946</ele>
<time>2011-04-30T05:36:05Z</time>
<desc>lat.=20.954542, lon.=107.047615, Alt.=3.711946m. Speed=4.176000m/h.</desc>
<speed>1.160000</speed>
</trkpt>
<trkpt lat="20.954588" lon="107.047600">
<ele>4.225040</ele>
<time>2011-04-30T05:36:10Z</time>
<desc>lat.=20.954588, lon.=107.047600, Alt.=4.225040m. Speed=3.888000m/h.</desc>
<speed>1.080000</speed>
</trkpt>
<trkpt lat="20.954626" lon="107.047592">
<ele>4.343693</ele>
<time>2011-04-30T05:36:15Z</time>
<desc>lat.=20.954626, lon.=107.047592, Alt.=4.343693m. Speed=3.456000m/h.</desc>
<speed>0.960000</speed>
</trkpt>
<trkpt lat="20.954668" lon="107.047577">
<ele>4.137394</ele>
<time>2011-04-30T05:36:20Z</time>
<desc>lat.=20.954668, lon.=107.047577, Alt.=4.137394m. Speed=4.140000m/h.</desc>
<speed>1.150000</speed>
</trkpt>
<trkpt lat="20.954702" lon="107.047615">
<ele>4.338078</ele>
<time>2011-04-30T05:36:25Z</time>
<desc>lat.=20.954702, lon.=107.047615, Alt.=4.338078m. Speed=3.744000m/h.</desc>
<speed>1.040000</speed>
</trkpt>
<trkpt lat="20.954756" lon="107.047661">
<ele>5.569279</ele>
<time>2011-04-30T05:36:30Z</time>
<desc>lat.=20.954756, lon.=107.047661, Alt.=5.569279m. Speed=5.004000m/h.</desc>
<speed>1.390000</speed>
</trkpt>
<trkpt lat="20.954798" lon="107.047707">
<ele>6.745182</ele>
<time>2011-04-30T05:36:35Z</time>
<desc>lat.=20.954798, lon.=107.047707, Alt.=6.745182m. Speed=3.924000m/h.</desc>
<speed>1.090000</speed>
</trkpt>
<trkpt lat="20.954842" lon="107.047745">
<ele>9.228401</ele>
<time>2011-04-30T05:36:40Z</time>
<desc>lat.=20.954842, lon.=107.047745, Alt.=9.228401m. Speed=4.464000m/h.</desc>
<speed>1.240000</speed>
</trkpt>
<trkpt lat="20.954859" lon="107.047806">
<ele>10.354134</ele>
<time>2011-04-30T05:36:45Z</time>
<desc>lat.=20.954859, lon.=107.047806, Alt.=10.354134m. Speed=3.600000m/h.</desc>
<speed>1.000000</speed>
</trkpt>
<trkpt lat="20.954861" lon="107.047867">
<ele>9.592415</ele>
<time>2011-04-30T05:36:50Z</time>
<desc>lat.=20.954861, lon.=107.047867, Alt.=9.592415m. Speed=4.320000m/h.</desc>
<speed>1.200000</speed>
</trkpt>
<trkpt lat="20.954868" lon="107.047905">
<ele>8.176155</ele>
<time>2011-04-30T05:36:55Z</time>
<desc>lat.=20.954868, lon.=107.047905, Alt.=8.176155m. Speed=0.684000m/h.</desc>
<speed>0.190000</speed>
</trkpt>
<trkpt lat="20.954891" lon="107.047905">
<ele>7.327091</ele>
<time>2011-04-30T05:37:00Z</time>
<desc>lat.=20.954891, lon.=107.047905, Alt.=7.327091m. Speed=0.324000m/h.</desc>
<speed>0.090000</speed>
</trkpt>
<trkpt lat="20.954893" lon="107.047905">
<ele>6.973454</ele>
<time>2011-04-30T05:37:05Z</time>
<desc>lat.=20.954893, lon.=107.047905, Alt.=6.973454m. Speed=1.008000m/h.</desc>
<speed>0.280000</speed>
</trkpt>
<trkpt lat="20.954891" lon="107.047905">
<ele>6.438908</ele>
<time>2011-04-30T05:37:10Z</time>
<desc>lat.=20.954891, lon.=107.047905, Alt.=6.438908m. Speed=0.180000m/h.</desc>
<speed>0.050000</speed>
</trkpt>
<trkpt lat="20.954891" lon="107.047905">
<ele>6.277897</ele>
<time>2011-04-30T05:37:15Z</time>
<desc>lat.=20.954891, lon.=107.047905, Alt.=6.277897m. Speed=0.324000m/h.</desc>
<speed>0.090000</speed>
</trkpt>
<trkpt lat="20.954891" lon="107.047905">
<ele>6.239323</ele>
<time>2011-04-30T05:37:20Z</time>
<desc>lat.=20.954891, lon.=107.047905, Alt.=6.239323m. Speed=0.396000m/h.</desc>
<speed>0.110000</speed>
</trkpt>
<trkpt lat="20.954887" lon="107.047905">
<ele>6.273014</ele>
<time>2011-04-30T05:37:25Z</time>
<desc>lat.=20.954887, lon.=107.047905, Alt.=6.273014m. Speed=0.216000m/h.</desc>
<speed>0.060000</speed>
</trkpt>
<trkpt lat="20.954887" lon="107.047905">
<ele>6.298405</ele>
<time>2011-04-30T05:37:30Z</time>
<desc>lat.=20.954887, lon.=107.047905, Alt.=6.298405m. Speed=0.000000m/h.</desc>
<speed>0.000000</speed>
</trkpt>
<trkpt lat="20.954893" lon="107.047905">
<ele>6.711613</ele>
<time>2011-04-30T05:37:35Z</time>
<desc>lat.=20.954893, lon.=107.047905, Alt.=6.711613m. Speed=4.104000m/h.</desc>
<speed>1.140000</speed>
</trkpt>
<trkpt lat="20.954897" lon="107.047958">
<ele>8.133430</ele>
<time>2011-04-30T05:37:40Z</time>
<desc>lat.=20.954897, lon.=107.047958, Alt.=8.133430m. Speed=4.752000m/h.</desc>
<speed>1.320000</speed>
</trkpt>
<trkpt lat="20.954908" lon="107.048004">
<ele>9.298958</ele>
<time>2011-04-30T05:37:45Z</time>
<desc>lat.=20.954908, lon.=107.048004, Alt.=9.298958m. Speed=4.320000m/h.</desc>
<speed>1.200000</speed>
</trkpt>
<trkpt lat="20.954941" lon="107.048035">
<ele>10.881233</ele>
<time>2011-04-30T05:37:50Z</time>
<desc>lat.=20.954941, lon.=107.048035, Alt.=10.881233m. Speed=3.024000m/h.</desc>
<speed>0.840000</speed>
</trkpt>
<trkpt lat="20.954985" lon="107.048073">
<ele>12.492317</ele>
<time>2011-04-30T05:37:55Z</time>
<desc>lat.=20.954985, lon.=107.048073, Alt.=12.492317m. Speed=4.860000m/h.</desc>
<speed>1.350000</speed>
</trkpt>
<trkpt lat="20.955019" lon="107.048119">
<ele>14.103401</ele>
<time>2011-04-30T05:38:00Z</time>
<desc>lat.=20.955019, lon.=107.048119, Alt.=14.103401m. Speed=3.348000m/h.</desc>
<speed>0.930000</speed>
</trkpt>
<trkpt lat="20.955030" lon="107.048157">
<ele>15.790657</ele>
<time>2011-04-30T05:38:05Z</time>
<desc>lat.=20.955030, lon.=107.048157, Alt.=15.790657m. Speed=3.168000m/h.</desc>
<speed>0.880000</speed>
</trkpt>
<trkpt lat="20.955048" lon="107.048203">
<ele>16.573013</ele>
<time>2011-04-30T05:38:10Z</time>
<desc>lat.=20.955048, lon.=107.048203, Alt.=16.573013m. Speed=3.384000m/h.</desc>
<speed>0.940000</speed>
</trkpt>
<trkpt lat="20.955065" lon="107.048248">
<ele>17.987564</ele>
<time>2011-04-30T05:38:15Z</time>
<desc>lat.=20.955065, lon.=107.048248, Alt.=17.987564m. Speed=5.328000m/h.</desc>
<speed>1.480000</speed>
</trkpt>
<trkpt lat="20.955065" lon="107.048309">
<ele>16.930923</ele>
<time>2011-04-30T05:38:20Z</time>
<desc>lat.=20.955065, lon.=107.048309, Alt.=16.930923m. Speed=4.824000m/h.</desc>
<speed>1.340000</speed>
</trkpt>
<trkpt lat="20.955061" lon="107.048370">
<ele>16.014908</ele>
<time>2011-04-30T05:38:25Z</time>
<desc>lat.=20.955061, lon.=107.048370, Alt.=16.014908m. Speed=3.528000m/h.</desc>
<speed>0.980000</speed>
</trkpt>
<trkpt lat="20.955078" lon="107.048424">
<ele>14.742073</ele>
<time>2011-04-30T05:38:30Z</time>
<desc>lat.=20.955078, lon.=107.048424, Alt.=14.742073m. Speed=4.212000m/h.</desc>
<speed>1.170000</speed>
</trkpt>
<trkpt lat="20.955111" lon="107.048477">
<ele>14.273079</ele>
<time>2011-04-30T05:38:35Z</time>
<desc>lat.=20.955111, lon.=107.048477, Alt.=14.273079m. Speed=4.104000m/h.</desc>
<speed>1.140000</speed>
</trkpt>
<trkpt lat="20.955137" lon="107.048546">
<ele>14.948860</ele>
<time>2011-04-30T05:38:40Z</time>
<desc>lat.=20.955137, lon.=107.048546, Alt.=14.948860m. Speed=4.932000m/h.</desc>
<speed>1.370000</speed>
</trkpt>
<trkpt lat="20.955177" lon="107.048592">
<ele>14.378792</ele>
<time>2011-04-30T05:38:45Z</time>
<desc>lat.=20.955177, lon.=107.048592, Alt.=14.378792m. Speed=3.240000m/h.</desc>
<speed>0.900000</speed>
</trkpt>
<trkpt lat="20.955200" lon="107.048653">
<ele>13.557991</ele>
<time>2011-04-30T05:38:50Z</time>
<desc>lat.=20.955200, lon.=107.048653, Alt.=13.557991m. Speed=4.500000m/h.</desc>
<speed>1.250000</speed>
</trkpt>
<trkpt lat="20.955225" lon="107.048706">
<ele>12.638313</ele>
<time>2011-04-30T05:38:55Z</time>
<desc>lat.=20.955225, lon.=107.048706, Alt.=12.638313m. Speed=3.456000m/h.</desc>
<speed>0.960000</speed>
</trkpt>
<trkpt lat="20.955265" lon="107.048737">
<ele>10.579720</ele>
<time>2011-04-30T05:39:00Z</time>
<desc>lat.=20.955265, lon.=107.048737, Alt.=10.579720m. Speed=0.792000m/h.</desc>
<speed>0.220000</speed>
</trkpt>
<trkpt lat="20.955250" lon="107.048775">
<ele>10.349495</ele>
<time>2011-04-30T05:39:05Z</time>
<desc>lat.=20.955250, lon.=107.048775, Alt.=10.349495m. Speed=2.484000m/h.</desc>
<speed>0.690000</speed>
</trkpt>
<trkpt lat="20.955267" lon="107.048752">
<ele>10.197884</ele>
<time>2011-04-30T05:39:10Z</time>
<desc>lat.=20.955267, lon.=107.048752, Alt.=10.197884m. Speed=1.440000m/h.</desc>
<speed>0.400000</speed>
</trkpt>
<trkpt lat="20.955263" lon="107.048714">
<ele>9.691292</ele>
<time>2011-04-30T05:39:15Z</time>
<desc>lat.=20.955263, lon.=107.048714, Alt.=9.691292m. Speed=1.116000m/h.</desc>
<speed>0.310000</speed>
</trkpt>
<trkpt lat="20.955229" lon="107.048752">
<ele>8.970589</ele>
<time>2011-04-30T05:39:20Z</time>
<desc>lat.=20.955229, lon.=107.048752, Alt.=8.970589m. Speed=1.908000m/h.</desc>
<speed>0.530000</speed>
</trkpt>
<trkpt lat="20.955177" lon="107.048737">
<ele>8.255013</ele>
<time>2011-04-30T05:39:25Z</time>
<desc>lat.=20.955177, lon.=107.048737, Alt.=8.255013m. Speed=1.296000m/h.</desc>
<speed>0.360000</speed>
</trkpt>
<trkpt lat="20.955109" lon="107.048653">
<ele>7.130436</ele>
<time>2011-04-30T05:39:30Z</time>
<desc>lat.=20.955109, lon.=107.048653, Alt.=7.130436m. Speed=0.288000m/h.</desc>
<speed>0.080000</speed>
</trkpt>
<trkpt lat="20.955086" lon="107.048691">
<ele>5.785343</ele>
<time>2011-04-30T05:39:35Z</time>
<desc>lat.=20.955086, lon.=107.048691, Alt.=5.785343m. Speed=0.540000m/h.</desc>
<speed>0.150000</speed>
</trkpt>
<trkpt lat="20.955090" lon="107.048775">
<ele>5.020817</ele>
<time>2011-04-30T05:39:40Z</time>
<desc>lat.=20.955090, lon.=107.048775, Alt.=5.020817m. Speed=2.304000m/h.</desc>
<speed>0.640000</speed>
</trkpt>
<trkpt lat="20.955099" lon="107.048759">
<ele>4.952946</ele>
<time>2011-04-30T05:39:45Z</time>
<desc>lat.=20.955099, lon.=107.048759, Alt.=4.952946m. Speed=1.332000m/h.</desc>
<speed>0.370000</speed>
</trkpt>
<trkpt lat="20.955097" lon="107.048706">
<ele>4.414005</ele>
<time>2011-04-30T05:39:50Z</time>
<desc>lat.=20.955097, lon.=107.048706, Alt.=4.414005m. Speed=1.224000m/h.</desc>
<speed>0.340000</speed>
</trkpt>
<trkpt lat="20.955099" lon="107.048698">
<ele>4.041691</ele>
<time>2011-04-30T05:39:55Z</time>
<desc>lat.=20.955099, lon.=107.048698, Alt.=4.041691m. Speed=0.108000m/h.</desc>
<speed>0.030000</speed>
</trkpt>
<trkpt lat="20.955099" lon="107.048698">
<ele>4.016788</ele>
<time>2011-04-30T05:40:00Z</time>
<desc>lat.=20.955099, lon.=107.048698, Alt.=4.016788m. Speed=0.504000m/h.</desc>
<speed>0.140000</speed>
</trkpt>
<trkpt lat="20.955095" lon="107.048691">
<ele>3.998323</ele>
<time>2011-04-30T05:40:05Z</time>
<desc>lat.=20.955095, lon.=107.048691, Alt.=3.998323m. Speed=0.648000m/h.</desc>
<speed>0.180000</speed>
</trkpt>
<trkpt lat="20.955099" lon="107.048683">
<ele>3.999483</ele>
<time>2011-04-30T05:40:10Z</time>
<desc>lat.=20.955099, lon.=107.048683, Alt.=3.999483m. Speed=0.036000m/h.</desc>
<speed>0.010000</speed>
</trkpt>
<trkpt lat="20.955097" lon="107.048691">
<ele>3.992769</ele>
<time>2011-04-30T05:40:15Z</time>
<desc>lat.=20.955097, lon.=107.048691, Alt.=3.992769m. Speed=0.504000m/h.</desc>
<speed>0.140000</speed>
</trkpt>
<trkpt lat="20.955095" lon="107.048691">
<ele>3.988131</ele>
<time>2011-04-30T05:40:20Z</time>
<desc>lat.=20.955095, lon.=107.048691, Alt.=3.988131m. Speed=0.108000m/h.</desc>
<speed>0.030000</speed>
</trkpt>
<trkpt lat="20.955091" lon="107.048691">
<ele>3.977144</ele>
<time>2011-04-30T05:40:25Z</time>
<desc>lat.=20.955091, lon.=107.048691, Alt.=3.977144m. Speed=0.252000m/h.</desc>
<speed>0.070000</speed>
</trkpt>
<trkpt lat="20.955095" lon="107.048683">
<ele>3.953768</ele>
<time>2011-04-30T05:40:30Z</time>
<desc>lat.=20.955095, lon.=107.048683, Alt.=3.953768m. Speed=0.756000m/h.</desc>
<speed>0.210000</speed>
</trkpt>
<trkpt lat="20.955118" lon="107.048683">
<ele>3.763155</ele>
<time>2011-04-30T05:40:35Z</time>
<desc>lat.=20.955118, lon.=107.048683, Alt.=3.763155m. Speed=0.684000m/h.</desc>
<speed>0.190000</speed>
</trkpt>
<trkpt lat="20.955141" lon="107.048653">
<ele>2.873568</ele>
<time>2011-04-30T05:40:40Z</time>
<desc>lat.=20.955141, lon.=107.048653, Alt.=2.873568m. Speed=0.828000m/h.</desc>
<speed>0.230000</speed>
</trkpt>
<trkpt lat="20.955145" lon="107.048653">
<ele>2.849276</ele>
<time>2011-04-30T05:40:45Z</time>
<desc>lat.=20.955145, lon.=107.048653, Alt.=2.849276m. Speed=0.648000m/h.</desc>
<speed>0.180000</speed>
</trkpt>
<trkpt lat="20.955145" lon="107.048645">
<ele>2.826204</ele>
<time>2011-04-30T05:40:50Z</time>
<desc>lat.=20.955145, lon.=107.048645, Alt.=2.826204m. Speed=0.036000m/h.</desc>
<speed>0.010000</speed>
</trkpt>
<trkpt lat="20.955151" lon="107.048630">
<ele>2.219759</ele>
<time>2011-04-30T05:40:55Z</time>
<desc>lat.=20.955151, lon.=107.048630, Alt.=2.219759m. Speed=1.224000m/h.</desc>
<speed>0.340000</speed>
</trkpt>
<trkpt lat="20.955164" lon="107.048607">
<ele>1.735765</ele>
<time>2011-04-30T05:41:00Z</time>
<desc>lat.=20.955164, lon.=107.048607, Alt.=1.735765m. Speed=1.440000m/h.</desc>
<speed>0.400000</speed>
</trkpt>
<trkpt lat="20.955162" lon="107.048630">
<ele>1.399949</ele>
<time>2011-04-30T05:41:05Z</time>
<desc>lat.=20.955162, lon.=107.048630, Alt.=1.399949m. Speed=0.144000m/h.</desc>
<speed>0.040000</speed>
</trkpt>
<trkpt lat="20.955164" lon="107.048622">
<ele>1.386155</ele>
<time>2011-04-30T05:41:10Z</time>
<desc>lat.=20.955164, lon.=107.048622, Alt.=1.386155m. Speed=0.792000m/h.</desc>
<speed>0.220000</speed>
</trkpt>
<trkpt lat="20.955166" lon="107.048615">
<ele>1.366227</ele>
<time>2011-04-30T05:41:15Z</time>
<desc>lat.=20.955166, lon.=107.048615, Alt.=1.366227m. Speed=0.396000m/h.</desc>
<speed>0.110000</speed>
</trkpt>
<trkpt lat="20.955162" lon="107.048622">
<ele>1.356004</ele>
<time>2011-04-30T05:41:20Z</time>
<desc>lat.=20.955162, lon.=107.048622, Alt.=1.356004m. Speed=1.080000m/h.</desc>
<speed>0.300000</speed>
</trkpt>
<trkpt lat="20.955145" lon="107.048668">
<ele>1.427995</ele>
<time>2011-04-30T05:41:25Z</time>
<desc>lat.=20.955145, lon.=107.048668, Alt.=1.427995m. Speed=1.368000m/h.</desc>
<speed>0.380000</speed>
</trkpt>
<trkpt lat="20.955135" lon="107.048706">
<ele>1.261552</ele>
<time>2011-04-30T05:41:30Z</time>
<desc>lat.=20.955135, lon.=107.048706, Alt.=1.261552m. Speed=1.224000m/h.</desc>
<speed>0.340000</speed>
</trkpt>
<trkpt lat="20.955082" lon="107.048782">
<ele>0.973534</ele>
<time>2011-04-30T05:41:35Z</time>
<desc>lat.=20.955082, lon.=107.048782, Alt.=0.973534m. Speed=2.016000m/h.</desc>
<speed>0.560000</speed>
</trkpt>
<trkpt lat="20.955076" lon="107.048813">
<ele>0.793496</ele>
<time>2011-04-30T05:41:40Z</time>
<desc>lat.=20.955076, lon.=107.048813, Alt.=0.793496m. Speed=1.764000m/h.</desc>
<speed>0.490000</speed>
</trkpt>
<trkpt lat="20.955097" lon="107.048805">
<ele>0.164049</ele>
<time>2011-04-30T05:41:45Z</time>
<desc>lat.=20.955097, lon.=107.048805, Alt.=0.164049m. Speed=1.044000m/h.</desc>
<speed>0.290000</speed>
</trkpt>
<trkpt lat="20.955124" lon="107.048813">
<ele>-0.331173</ele>
<time>2011-04-30T05:41:50Z</time>
<desc>lat.=20.955124, lon.=107.048813, Alt.=-0.331173m. Speed=0.756000m/h.</desc>
<speed>0.210000</speed>
</trkpt>
<trkpt lat="20.955137" lon="107.048820">
<ele>-1.043687</ele>
<time>2011-04-30T05:41:55Z</time>
<desc>lat.=20.955137, lon.=107.048820, Alt.=-1.043687m. Speed=0.756000m/h.</desc>
<speed>0.210000</speed>
</trkpt>
<trkpt lat="20.955135" lon="107.048820">
<ele>-1.054490</ele>
<time>2011-04-30T05:42:00Z</time>
<desc>lat.=20.955135, lon.=107.048820, Alt.=-1.054490m. Speed=0.072000m/h.</desc>
<speed>0.020000</speed>
</trkpt>
<trkpt lat="20.955133" lon="107.048820">
<ele>-1.056169</ele>
<time>2011-04-30T05:42:05Z</time>
<desc>lat.=20.955133, lon.=107.048820, Alt.=-1.056169m. Speed=0.864000m/h.</desc>
<speed>0.240000</speed>
</trkpt>
<trkpt lat="20.955109" lon="107.048775">
<ele>-0.951546</ele>
<time>2011-04-30T05:42:10Z</time>
<desc>lat.=20.955109, lon.=107.048775, Alt.=-0.951546m. Speed=0.576000m/h.</desc>
<speed>0.160000</speed>
</trkpt>
<trkpt lat="20.955099" lon="107.048767">
<ele>-0.992775</ele>
<time>2011-04-30T05:42:15Z</time>
<desc>lat.=20.955099, lon.=107.048767, Alt.=-0.992775m. Speed=0.324000m/h.</desc>
<speed>0.090000</speed>
</trkpt>
<trkpt lat="20.955107" lon="107.048759">
<ele>-1.000352</ele>
<time>2011-04-30T05:42:20Z</time>
<desc>lat.=20.955107, lon.=107.048759, Alt.=-1.000352m. Speed=1.116000m/h.</desc>
<speed>0.310000</speed>
</trkpt>
<trkpt lat="20.955091" lon="107.048714">
<ele>-1.253190</ele>
<time>2011-04-30T05:42:25Z</time>
<desc>lat.=20.955091, lon.=107.048714, Alt.=-1.253190m. Speed=0.612000m/h.</desc>
<speed>0.170000</speed>
</trkpt>
<trkpt lat="20.955086" lon="107.048683">
<ele>-1.568223</ele>
<time>2011-04-30T05:42:30Z</time>
<desc>lat.=20.955086, lon.=107.048683, Alt.=-1.568223m. Speed=0.792000m/h.</desc>
<speed>0.220000</speed>
</trkpt>
<trkpt lat="20.955112" lon="107.048622">
<ele>-2.279696</ele>
<time>2011-04-30T05:42:35Z</time>
<desc>lat.=20.955112, lon.=107.048622, Alt.=-2.279696m. Speed=1.908000m/h.</desc>
<speed>0.530000</speed>
</trkpt>
<trkpt lat="20.955122" lon="107.048615">
<ele>-4.103336</ele>
<time>2011-04-30T05:42:40Z</time>
<desc>lat.=20.955122, lon.=107.048615, Alt.=-4.103336m. Speed=0.216000m/h.</desc>
<speed>0.060000</speed>
</trkpt>
<trkpt lat="20.955130" lon="107.048599">
<ele>-4.309147</ele>
<time>2011-04-30T05:42:45Z</time>
<desc>lat.=20.955130, lon.=107.048599, Alt.=-4.309147m. Speed=0.540000m/h.</desc>
<speed>0.150000</speed>
</trkpt>
<trkpt lat="20.955158" lon="107.048599">
<ele>-4.786808</ele>
<time>2011-04-30T05:42:50Z</time>
<desc>lat.=20.955158, lon.=107.048599, Alt.=-4.786808m. Speed=0.504000m/h.</desc>
<speed>0.140000</speed>
</trkpt>
<trkpt lat="20.955185" lon="107.048599">
<ele>-5.861637</ele>
<time>2011-04-30T05:42:55Z</time>
<desc>lat.=20.955185, lon.=107.048599, Alt.=-5.861637m. Speed=0.648000m/h.</desc>
<speed>0.180000</speed>
</trkpt>
<trkpt lat="20.955200" lon="107.048592">
<ele>-6.502506</ele>
<time>2011-04-30T05:43:00Z</time>
<desc>lat.=20.955200, lon.=107.048592, Alt.=-6.502506m. Speed=1.080000m/h.</desc>
<speed>0.300000</speed>
</trkpt>
<trkpt lat="20.955214" lon="107.048599">
<ele>-7.893864</ele>
<time>2011-04-30T05:43:05Z</time>
<desc>lat.=20.955214, lon.=107.048599, Alt.=-7.893864m. Speed=0.288000m/h.</desc>
<speed>0.080000</speed>
</trkpt>
<trkpt lat="20.955204" lon="107.048592">
<ele>-8.126595</ele>
<time>2011-04-30T05:43:10Z</time>
<desc>lat.=20.955204, lon.=107.048592, Alt.=-8.126595m. Speed=0.180000m/h.</desc>
<speed>0.050000</speed>
</trkpt>
<trkpt lat="20.955196" lon="107.048599">
<ele>-8.426399</ele>
<time>2011-04-30T05:43:15Z</time>
<desc>lat.=20.955196, lon.=107.048599, Alt.=-8.426399m. Speed=0.900000m/h.</desc>
<speed>0.250000</speed>
</trkpt>
<trkpt lat="20.955206" lon="107.048599">
<ele>-8.423225</ele>
<time>2011-04-30T05:43:20Z</time>
<desc>lat.=20.955206, lon.=107.048599, Alt.=-8.423225m. Speed=0.360000m/h.</desc>
<speed>0.100000</speed>
</trkpt>
<trkpt lat="20.955206" lon="107.048599">
<ele>-8.420784</ele>
<time>2011-04-30T05:43:25Z</time>
<desc>lat.=20.955206, lon.=107.048599, Alt.=-8.420784m. Speed=0.288000m/h.</desc>
<speed>0.080000</speed>
</trkpt>
<trkpt lat="20.955200" lon="107.048607">
<ele>-8.382210</ele>
<time>2011-04-30T05:43:30Z</time>
<desc>lat.=20.955200, lon.=107.048607, Alt.=-8.382210m. Speed=1.080000m/h.</desc>
<speed>0.300000</speed>
</trkpt>
<trkpt lat="20.955175" lon="107.048630">
<ele>-7.771183</ele>
<time>2011-04-30T05:43:35Z</time>
<desc>lat.=20.955175, lon.=107.048630, Alt.=-7.771183m. Speed=1.296000m/h.</desc>
<speed>0.360000</speed>
</trkpt>
<trkpt lat="20.955149" lon="107.048683">
<ele>-7.622990</ele>
<time>2011-04-30T05:43:40Z</time>
<desc>lat.=20.955149, lon.=107.048683, Alt.=-7.622990m. Speed=1.656000m/h.</desc>
<speed>0.460000</speed>
</trkpt>
<trkpt lat="20.955149" lon="107.048729">
<ele>-7.794865</ele>
<time>2011-04-30T05:43:45Z</time>
<desc>lat.=20.955149, lon.=107.048729, Alt.=-7.794865m. Speed=1.836000m/h.</desc>
<speed>0.510000</speed>
</trkpt>
<trkpt lat="20.955137" lon="107.048790">
<ele>-7.075016</ele>
<time>2011-04-30T05:43:50Z</time>
<desc>lat.=20.955137, lon.=107.048790, Alt.=-7.075016m. Speed=1.692000m/h.</desc>
<speed>0.470000</speed>
</trkpt>
<trkpt lat="20.955122" lon="107.048851">
<ele>-7.241154</ele>
<time>2011-04-30T05:43:55Z</time>
<desc>lat.=20.955122, lon.=107.048851, Alt.=-7.241154m. Speed=1.944000m/h.</desc>
<speed>0.540000</speed>
</trkpt>
<trkpt lat="20.955133" lon="107.048820">
<ele>-7.349308</ele>
<time>2011-04-30T05:44:00Z</time>
<desc>lat.=20.955133, lon.=107.048820, Alt.=-7.349308m. Speed=0.396000m/h.</desc>
<speed>0.110000</speed>
</trkpt>
<trkpt lat="20.955141" lon="107.048820">
<ele>-7.359074</ele>
<time>2011-04-30T05:44:05Z</time>
<desc>lat.=20.955141, lon.=107.048820, Alt.=-7.359074m. Speed=0.612000m/h.</desc>
<speed>0.170000</speed>
</trkpt>
<trkpt lat="20.955135" lon="107.048843">
<ele>-7.220646</ele>
<time>2011-04-30T05:44:10Z</time>
<desc>lat.=20.955135, lon.=107.048843, Alt.=-7.220646m. Speed=0.324000m/h.</desc>
<speed>0.090000</speed>
</trkpt>
<trkpt lat="20.955147" lon="107.048851">
<ele>-7.237736</ele>
<time>2011-04-30T05:44:15Z</time>
<desc>lat.=20.955147, lon.=107.048851, Alt.=-7.237736m. Speed=0.432000m/h.</desc>
<speed>0.120000</speed>
</trkpt>
<trkpt lat="20.955141" lon="107.048859">
<ele>-7.199650</ele>
<time>2011-04-30T05:44:20Z</time>
<desc>lat.=20.955141, lon.=107.048859, Alt.=-7.199650m. Speed=0.180000m/h.</desc>
<speed>0.050000</speed>
</trkpt>
<trkpt lat="20.955137" lon="107.048866">
<ele>-7.194767</ele>
<time>2011-04-30T05:44:25Z</time>
<desc>lat.=20.955137, lon.=107.048866, Alt.=-7.194767m. Speed=0.864000m/h.</desc>
<speed>0.240000</speed>
</trkpt>
<trkpt lat="20.955133" lon="107.048874">
<ele>-7.186222</ele>
<time>2011-04-30T05:44:30Z</time>
<desc>lat.=20.955133, lon.=107.048874, Alt.=-7.186222m. Speed=0.936000m/h.</desc>
<speed>0.260000</speed>
</trkpt>
<trkpt lat="20.955202" lon="107.048843">
<ele>-5.574528</ele>
<time>2011-04-30T05:44:35Z</time>
<desc>lat.=20.955202, lon.=107.048843, Alt.=-5.574528m. Speed=1.620000m/h.</desc>
<speed>0.450000</speed>
</trkpt>
<trkpt lat="20.955278" lon="107.048843">
<ele>1.473283</ele>
<time>2011-04-30T05:44:40Z</time>
<desc>lat.=20.955278, lon.=107.048843, Alt.=1.473283m. Speed=1.188000m/h.</desc>
<speed>0.330000</speed>
</trkpt>
<trkpt lat="20.955317" lon="107.048805">
<ele>4.620182</ele>
<time>2011-04-30T05:44:45Z</time>
<desc>lat.=20.955317, lon.=107.048805, Alt.=4.620182m. Speed=2.376000m/h.</desc>
<speed>0.660000</speed>
</trkpt>
<trkpt lat="20.955328" lon="107.048782">
<ele>4.554264</ele>
<time>2011-04-30T05:44:50Z</time>
<desc>lat.=20.955328, lon.=107.048782, Alt.=4.554264m. Speed=2.484000m/h.</desc>
<speed>0.690000</speed>
</trkpt>
<trkpt lat="20.955353" lon="107.048752">
<ele>5.258732</ele>
<time>2011-04-30T05:44:55Z</time>
<desc>lat.=20.955353, lon.=107.048752, Alt.=5.258732m. Speed=2.736000m/h.</desc>
<speed>0.760000</speed>
</trkpt>
<trkpt lat="20.955359" lon="107.048729">
<ele>5.416447</ele>
<time>2011-04-30T05:45:00Z</time>
<desc>lat.=20.955359, lon.=107.048729, Alt.=5.416447m. Speed=0.216000m/h.</desc>
<speed>0.060000</speed>
</trkpt>
<trkpt lat="20.955345" lon="107.048721">
<ele>5.375065</ele>
<time>2011-04-30T05:45:05Z</time>
<desc>lat.=20.955345, lon.=107.048721, Alt.=5.375065m. Speed=0.324000m/h.</desc>
<speed>0.090000</speed>
</trkpt>
<trkpt lat="20.955343" lon="107.048714">
<ele>4.699528</ele>
<time>2011-04-30T05:45:10Z</time>
<desc>lat.=20.955343, lon.=107.048714, Alt.=4.699528m. Speed=0.540000m/h.</desc>
<speed>0.150000</speed>
</trkpt>
<trkpt lat="20.955355" lon="107.048714">
<ele>3.468050</ele>
<time>2011-04-30T05:45:15Z</time>
<desc>lat.=20.955355, lon.=107.048714, Alt.=3.468050m. Speed=2.124000m/h.</desc>
<speed>0.590000</speed>
</trkpt>
<trkpt lat="20.955381" lon="107.048714">
<ele>1.734117</ele>
<time>2011-04-30T05:45:20Z</time>
<desc>lat.=20.955381, lon.=107.048714, Alt.=1.734117m. Speed=1.008000m/h.</desc>
<speed>0.280000</speed>
</trkpt>
<trkpt lat="20.955395" lon="107.048714">
<ele>0.071590</ele>
<time>2011-04-30T05:45:25Z</time>
<desc>lat.=20.955395, lon.=107.048714, Alt.=0.071590m. Speed=1.260000m/h.</desc>
<speed>0.350000</speed>
</trkpt>
<trkpt lat="20.955400" lon="107.048691">
<ele>-0.159243</ele>
<time>2011-04-30T05:45:30Z</time>
<desc>lat.=20.955400, lon.=107.048691, Alt.=-0.159243m. Speed=1.548000m/h.</desc>
<speed>0.430000</speed>
</trkpt>
<trkpt lat="20.955404" lon="107.048683">
<ele>-0.251866</ele>
<time>2011-04-30T05:45:35Z</time>
<desc>lat.=20.955404, lon.=107.048683, Alt.=-0.251866m. Speed=0.576000m/h.</desc>
<speed>0.160000</speed>
</trkpt>
<trkpt lat="20.955414" lon="107.048691">
<ele>-0.226587</ele>
<time>2011-04-30T05:45:40Z</time>
<desc>lat.=20.955414, lon.=107.048691, Alt.=-0.226587m. Speed=0.468000m/h.</desc>
<speed>0.130000</speed>
</trkpt>
<trkpt lat="20.955414" lon="107.048698">
<ele>-0.275250</ele>
<time>2011-04-30T05:45:45Z</time>
<desc>lat.=20.955414, lon.=107.048698, Alt.=-0.275250m. Speed=0.756000m/h.</desc>
<speed>0.210000</speed>
</trkpt>
<trkpt lat="20.955427" lon="107.048721">
<ele>-0.342495</ele>
<time>2011-04-30T05:45:50Z</time>
<desc>lat.=20.955427, lon.=107.048721, Alt.=-0.342495m. Speed=1.836000m/h.</desc>
<speed>0.510000</speed>
</trkpt>
<trkpt lat="20.955433" lon="107.048744">
<ele>-0.448841</ele>
<time>2011-04-30T05:45:55Z</time>
<desc>lat.=20.955433, lon.=107.048744, Alt.=-0.448841m. Speed=0.972000m/h.</desc>
<speed>0.270000</speed>
</trkpt>
<trkpt lat="20.955442" lon="107.048752">
<ele>-0.482083</ele>
<time>2011-04-30T05:46:00Z</time>
<desc>lat.=20.955442, lon.=107.048752, Alt.=-0.482083m. Speed=0.252000m/h.</desc>
<speed>0.070000</speed>
</trkpt>
<trkpt lat="20.955441" lon="107.048752">
<ele>-0.496838</ele>
<time>2011-04-30T05:46:05Z</time>
<desc>lat.=20.955441, lon.=107.048752, Alt.=-0.496838m. Speed=0.360000m/h.</desc>
<speed>0.100000</speed>
</trkpt>
<trkpt lat="20.955492" lon="107.048782">
<ele>-0.563622</ele>
<time>2011-04-30T05:46:10Z</time>
<desc>lat.=20.955492, lon.=107.048782, Alt.=-0.563622m. Speed=5.688000m/h.</desc>
<speed>1.580000</speed>
</trkpt>
<trkpt lat="20.955671" lon="107.048973">
<ele>-0.812722</ele>
<time>2011-04-30T05:46:15Z</time>
<desc>lat.=20.955671, lon.=107.048973, Alt.=-0.812722m. Speed=28.584000m/h.</desc>
<speed>7.940000</speed>
</trkpt>
<trkpt lat="20.955935" lon="107.049248">
<ele>-1.043900</ele>
<time>2011-04-30T05:46:20Z</time>
<desc>lat.=20.955935, lon.=107.049248, Alt.=-1.043900m. Speed=25.812000m/h.</desc>
<speed>7.170000</speed>
</trkpt>
<trkpt lat="20.956160" lon="107.049545">
<ele>-1.223008</ele>
<time>2011-04-30T05:46:25Z</time>
<desc>lat.=20.956160, lon.=107.049545, Alt.=-1.223008m. Speed=29.916000m/h.</desc>
<speed>8.310000</speed>
</trkpt>
<trkpt lat="20.956324" lon="107.050026">
<ele>-1.188951</ele>
<time>2011-04-30T05:46:30Z</time>
<desc>lat.=20.956324, lon.=107.050026, Alt.=-1.188951m. Speed=36.467999m/h.</desc>
<speed>10.130000</speed>
</trkpt>
<trkpt lat="20.956400" lon="107.050613">
<ele>-1.638932</ele>
<time>2011-04-30T05:46:35Z</time>
<desc>lat.=20.956400, lon.=107.050613, Alt.=-1.638932m. Speed=46.043999m/h.</desc>
<speed>12.790000</speed>
</trkpt>
<trkpt lat="20.956394" lon="107.051331">
<ele>-2.164827</ele>
<time>2011-04-30T05:46:40Z</time>
<desc>lat.=20.956394, lon.=107.051331, Alt.=-2.164827m. Speed=55.403999m/h.</desc>
<speed>15.390000</speed>
</trkpt>
<trkpt lat="20.956318" lon="107.052124">
<ele>-2.374300</ele>
<time>2011-04-30T05:46:45Z</time>
<desc>lat.=20.956318, lon.=107.052124, Alt.=-2.374300m. Speed=59.436001m/h.</desc>
<speed>16.510000</speed>
</trkpt>
<trkpt lat="20.956247" lon="107.052994">
<ele>-2.321016</ele>
<time>2011-04-30T05:46:50Z</time>
<desc>lat.=20.956247, lon.=107.052994, Alt.=-2.321016m. Speed=65.556000m/h.</desc>
<speed>18.210000</speed>
</trkpt>
<trkpt lat="20.956137" lon="107.053871">
<ele>-2.531038</ele>
<time>2011-04-30T05:46:55Z</time>
<desc>lat.=20.956137, lon.=107.053871, Alt.=-2.531038m. Speed=65.592003m/h.</desc>
<speed>18.220001</speed>
</trkpt>
<trkpt lat="20.956177" lon="107.054649">
<ele>-2.825533</ele>
<time>2011-04-30T05:47:00Z</time>
<desc>lat.=20.956177, lon.=107.054649, Alt.=-2.825533m. Speed=58.212002m/h.</desc>
<speed>16.170001</speed>
</trkpt>
<trkpt lat="20.956350" lon="107.055405">
<ele>-3.918184</ele>
<time>2011-04-30T05:47:05Z</time>
<desc>lat.=20.956350, lon.=107.055405, Alt.=-3.918184m. Speed=54.936001m/h.</desc>
<speed>15.260000</speed>
</trkpt>
<trkpt lat="20.956537" lon="107.056023">
<ele>-4.268131</ele>
<time>2011-04-30T05:47:10Z</time>
<desc>lat.=20.956537, lon.=107.056023, Alt.=-4.268131m. Speed=38.015999m/h.</desc>
<speed>10.560000</speed>
</trkpt>
<trkpt lat="20.956570" lon="107.056274">
<ele>-3.959566</ele>
<time>2011-04-30T05:47:15Z</time>
<desc>lat.=20.956570, lon.=107.056274, Alt.=-3.959566m. Speed=15.372000m/h.</desc>
<speed>4.270000</speed>
</trkpt>
<trkpt lat="20.956631" lon="107.056519">
<ele>-3.973360</ele>
<time>2011-04-30T05:47:20Z</time>
<desc>lat.=20.956631, lon.=107.056519, Alt.=-3.973360m. Speed=27.792000m/h.</desc>
<speed>7.720000</speed>
</trkpt>
<trkpt lat="20.956713" lon="107.056900">
<ele>-4.341496</ele>
<time>2011-04-30T05:47:25Z</time>
<desc>lat.=20.956713, lon.=107.056900, Alt.=-4.341496m. Speed=29.879999m/h.</desc>
<speed>8.300000</speed>
</trkpt>
<trkpt lat="20.956800" lon="107.057243">
<ele>-4.755070</ele>
<time>2011-04-30T05:47:30Z</time>
<desc>lat.=20.956800, lon.=107.057243, Alt.=-4.755070m. Speed=23.580000m/h.</desc>
<speed>6.550000</speed>
</trkpt>
<trkpt lat="20.956858" lon="107.057487">
<ele>-5.431339</ele>
<time>2011-04-30T05:47:35Z</time>
<desc>lat.=20.956858, lon.=107.057487, Alt.=-5.431339m. Speed=14.004000m/h.</desc>
<speed>3.890000</speed>
</trkpt>
<trkpt lat="20.956907" lon="107.057503">
<ele>-8.996712</ele>
<time>2011-04-30T05:47:40Z</time>
<desc>lat.=20.956907, lon.=107.057503, Alt.=-8.996712m. Speed=0.252000m/h.</desc>
<speed>0.070000</speed>
</trkpt>
<trkpt lat="20.956903" lon="107.057495">
<ele>-9.246712</ele>
<time>2011-04-30T05:47:45Z</time>
<desc>lat.=20.956903, lon.=107.057495, Alt.=-9.246712m. Speed=1.548000m/h.</desc>
<speed>0.430000</speed>
</trkpt>
<trkpt lat="20.956902" lon="107.057480">
<ele>-9.088509</ele>
<time>2011-04-30T05:47:50Z</time>
<desc>lat.=20.956902, lon.=107.057480, Alt.=-9.088509m. Speed=3.744000m/h.</desc>
<speed>1.040000</speed>
</trkpt>
<trkpt lat="20.956905" lon="107.057526">
<ele>-7.525211</ele>
<time>2011-04-30T05:47:55Z</time>
<desc>lat.=20.956905, lon.=107.057526, Alt.=-7.525211m. Speed=5.544000m/h.</desc>
<speed>1.540000</speed>
</trkpt>
<trkpt lat="20.956911" lon="107.057579">
<ele>-7.182560</ele>
<time>2011-04-30T05:48:00Z</time>
<desc>lat.=20.956911, lon.=107.057579, Alt.=-7.182560m. Speed=4.680000m/h.</desc>
<speed>1.300000</speed>
</trkpt>
<trkpt lat="20.956900" lon="107.057648">
<ele>-6.536320</ele>
<time>2011-04-30T05:48:05Z</time>
<desc>lat.=20.956900, lon.=107.057648, Alt.=-6.536320m. Speed=5.148000m/h.</desc>
<speed>1.430000</speed>
</trkpt>
<trkpt lat="20.956911" lon="107.057701">
<ele>-6.607609</ele>
<time>2011-04-30T05:48:10Z</time>
<desc>lat.=20.956911, lon.=107.057701, Alt.=-6.607609m. Speed=3.708000m/h.</desc>
<speed>1.030000</speed>
</trkpt>
<trkpt lat="20.956909" lon="107.057755">
<ele>-4.823917</ele>
<time>2011-04-30T05:48:15Z</time>
<desc>lat.=20.956909, lon.=107.057755, Alt.=-4.823917m. Speed=3.420000m/h.</desc>
<speed>0.950000</speed>
</trkpt>
<trkpt lat="20.956903" lon="107.057770">
<ele>-4.687443</ele>
<time>2011-04-30T05:48:20Z</time>
<desc>lat.=20.956903, lon.=107.057770, Alt.=-4.687443m. Speed=0.144000m/h.</desc>
<speed>0.040000</speed>
</trkpt>
<trkpt lat="20.956903" lon="107.057770">
<ele>-4.552555</ele>
<time>2011-04-30T05:48:25Z</time>
<desc>lat.=20.956903, lon.=107.057770, Alt.=-4.552555m. Speed=0.324000m/h.</desc>
<speed>0.090000</speed>
</trkpt>
<trkpt lat="20.956903" lon="107.057770">
<ele>-4.537296</ele>
<time>2011-04-30T05:48:30Z</time>
<desc>lat.=20.956903, lon.=107.057770, Alt.=-4.537296m. Speed=0.108000m/h.</desc>
<speed>0.030000</speed>
</trkpt>
<trkpt lat="20.956903" lon="107.057770">
<ele>-4.543278</ele>
<time>2011-04-30T05:48:35Z</time>
<desc>lat.=20.956903, lon.=107.057770, Alt.=-4.543278m. Speed=0.036000m/h.</desc>
<speed>0.010000</speed>
</trkpt>
<trkpt lat="20.956903" lon="107.057770">
<ele>-4.554752</ele>
<time>2011-04-30T05:48:40Z</time>
<desc>lat.=20.956903, lon.=107.057770, Alt.=-4.554752m. Speed=0.000000m/h.</desc>
<speed>0.000000</speed>
</trkpt>
<trkpt lat="20.956903" lon="107.057770">
<ele>-4.572330</ele>
<time>2011-04-30T05:48:45Z</time>
<desc>lat.=20.956903, lon.=107.057770, Alt.=-4.572330m. Speed=0.036000m/h.</desc>
<speed>0.010000</speed>
</trkpt>
<trkpt lat="20.956903" lon="107.057770">
<ele>-4.553410</ele>
<time>2011-04-30T05:48:50Z</time>
<desc>lat.=20.956903, lon.=107.057770, Alt.=-4.553410m. Speed=0.000000m/h.</desc>
<speed>0.000000</speed>
</trkpt>
<trkpt lat="20.956903" lon="107.057770">
<ele>-4.555241</ele>
<time>2011-04-30T05:48:55Z</time>
<desc>lat.=20.956903, lon.=107.057770, Alt.=-4.555241m. Speed=0.000000m/h.</desc>
<speed>0.000000</speed>
</trkpt>
<trkpt lat="20.956903" lon="107.057770">
<ele>-4.528873</ele>
<time>2011-04-30T05:49:00Z</time>
<desc>lat.=20.956903, lon.=107.057770, Alt.=-4.528873m. Speed=0.180000m/h.</desc>
<speed>0.050000</speed>
</trkpt>
<trkpt lat="20.956903" lon="107.057770">
<ele>-4.516788</ele>
<time>2011-04-30T05:49:05Z</time>
<desc>lat.=20.956903, lon.=107.057770, Alt.=-4.516788m. Speed=0.000000m/h.</desc>
<speed>0.000000</speed>
</trkpt>
<trkpt lat="20.956903" lon="107.057770">
<ele>-4.509342</ele>
<time>2011-04-30T05:49:10Z</time>
<desc>lat.=20.956903, lon.=107.057770, Alt.=-4.509342m. Speed=0.000000m/h.</desc>
<speed>0.000000</speed>
</trkpt>
<trkpt lat="20.956903" lon="107.057770">
<ele>-4.489933</ele>
<time>2011-04-30T05:49:15Z</time>
<desc>lat.=20.956903, lon.=107.057770, Alt.=-4.489933m. Speed=0.180000m/h.</desc>
<speed>0.050000</speed>
</trkpt>
<trkpt lat="20.956903" lon="107.057770">
<ele>-4.487614</ele>
<time>2011-04-30T05:49:20Z</time>
<desc>lat.=20.956903, lon.=107.057770, Alt.=-4.487614m. Speed=0.180000m/h.</desc>
<speed>0.050000</speed>
</trkpt>
<trkpt lat="20.956903" lon="107.057770">
<ele>-4.478458</ele>
<time>2011-04-30T05:49:25Z</time>
<desc>lat.=20.956903, lon.=107.057770, Alt.=-4.478458m. Speed=0.072000m/h.</desc>
<speed>0.020000</speed>
</trkpt>
<trkpt lat="20.956903" lon="107.057770">
<ele>-4.453190</ele>
<time>2011-04-30T05:49:30Z</time>
<desc>lat.=20.956903, lon.=107.057770, Alt.=-4.453190m. Speed=0.288000m/h.</desc>
<speed>0.080000</speed>
</trkpt>
<trkpt lat="20.956903" lon="107.057770">
<ele>-4.457951</ele>
<time>2011-04-30T05:49:35Z</time>
<desc>lat.=20.956903, lon.=107.057770, Alt.=-4.457951m. Speed=0.396000m/h.</desc>
<speed>0.110000</speed>
</trkpt>
<trkpt lat="20.956903" lon="107.057770">
<ele>-4.456242</ele>
<time>2011-04-30T05:49:40Z</time>
<desc>lat.=20.956903, lon.=107.057770, Alt.=-4.456242m. Speed=0.000000m/h.</desc>
<speed>0.000000</speed>
</trkpt>
<trkpt lat="20.956903" lon="107.057770">
<ele>-4.452091</ele>
<time>2011-04-30T05:49:45Z</time>
<desc>lat.=20.956903, lon.=107.057770, Alt.=-4.452091m. Speed=0.360000m/h.</desc>
<speed>0.100000</speed>
</trkpt>
<trkpt lat="20.956903" lon="107.057770">
<ele>-4.453190</ele>
<time>2011-04-30T05:49:50Z</time>
<desc>lat.=20.956903, lon.=107.057770, Alt.=-4.453190m. Speed=0.000000m/h.</desc>
<speed>0.000000</speed>
</trkpt>
<trkpt lat="20.956903" lon="107.057770">
<ele>-4.472599</ele>
<time>2011-04-30T05:49:55Z</time>
<desc>lat.=20.956903, lon.=107.057770, Alt.=-4.472599m. Speed=0.036000m/h.</desc>
<speed>0.010000</speed>
</trkpt>
<trkpt lat="20.956903" lon="107.057770">
<ele>-4.488468</ele>
<time>2011-04-30T05:50:00Z</time>
<desc>lat.=20.956903, lon.=107.057770, Alt.=-4.488468m. Speed=0.072000m/h.</desc>
<speed>0.020000</speed>
</trkpt>
<trkpt lat="20.956903" lon="107.057770">
<ele>-4.487125</ele>
<time>2011-04-30T05:50:05Z</time>
<desc>lat.=20.956903, lon.=107.057770, Alt.=-4.487125m. Speed=0.036000m/h.</desc>
<speed>0.010000</speed>
</trkpt>
<trkpt lat="20.956903" lon="107.057770">
<ele>-4.491398</ele>
<time>2011-04-30T05:50:10Z</time>
<desc>lat.=20.956903, lon.=107.057770, Alt.=-4.491398m. Speed=0.108000m/h.</desc>
<speed>0.030000</speed>
</trkpt>
<trkpt lat="20.956905" lon="107.057770">
<ele>-4.495670</ele>
<time>2011-04-30T05:50:15Z</time>
<desc>lat.=20.956905, lon.=107.057770, Alt.=-4.495670m. Speed=0.108000m/h.</desc>
<speed>0.030000</speed>
</trkpt>
<trkpt lat="20.956905" lon="107.057770">
<ele>-4.515202</ele>
<time>2011-04-30T05:50:20Z</time>
<desc>lat.=20.956905, lon.=107.057770, Alt.=-4.515202m. Speed=0.036000m/h.</desc>
<speed>0.010000</speed>
</trkpt>
<trkpt lat="20.956905" lon="107.057770">
<ele>-4.525089</ele>
<time>2011-04-30T05:50:25Z</time>
<desc>lat.=20.956905, lon.=107.057770, Alt.=-4.525089m. Speed=0.000000m/h.</desc>
<speed>0.000000</speed>
</trkpt>
<trkpt lat="20.956905" lon="107.057770">
<ele>-4.523136</ele>
<time>2011-04-30T05:50:30Z</time>
<desc>lat.=20.956905, lon.=107.057770, Alt.=-4.523136m. Speed=0.036000m/h.</desc>
<speed>0.010000</speed>
</trkpt>
<trkpt lat="20.956905" lon="107.057770">
<ele>-4.522526</ele>
<time>2011-04-30T05:50:35Z</time>
<desc>lat.=20.956905, lon.=107.057770, Alt.=-4.522526m. Speed=0.036000m/h.</desc>
<speed>0.010000</speed>
</trkpt>
<trkpt lat="20.956905" lon="107.057770">
<ele>-4.521549</ele>
<time>2011-04-30T05:50:40Z</time>
<desc>lat.=20.956905, lon.=107.057770, Alt.=-4.521549m. Speed=0.072000m/h.</desc>
<speed>0.020000</speed>
</trkpt>
<trkpt lat="20.956905" lon="107.057770">
<ele>-4.527164</ele>
<time>2011-04-30T05:50:45Z</time>
<desc>lat.=20.956905, lon.=107.057770, Alt.=-4.527164m. Speed=0.360000m/h.</desc>
<speed>0.100000</speed>
</trkpt>
<trkpt lat="20.956905" lon="107.057770">
<ele>-4.530338</ele>
<time>2011-04-30T05:50:50Z</time>
<desc>lat.=20.956905, lon.=107.057770, Alt.=-4.530338m. Speed=0.180000m/h.</desc>
<speed>0.050000</speed>
</trkpt>
<trkpt lat="20.956903" lon="107.057770">
<ele>-4.520817</ele>
<time>2011-04-30T05:50:55Z</time>
<desc>lat.=20.956903, lon.=107.057770, Alt.=-4.520817m. Speed=0.252000m/h.</desc>
<speed>0.070000</speed>
</trkpt>
<trkpt lat="20.956903" lon="107.057777">
<ele>-4.263859</ele>
<time>2011-04-30T05:51:00Z</time>
<desc>lat.=20.956903, lon.=107.057777, Alt.=-4.263859m. Speed=1.440000m/h.</desc>
<speed>0.400000</speed>
</trkpt>
<trkpt lat="20.956894" lon="107.057785">
<ele>-3.821993</ele>
<time>2011-04-30T05:51:05Z</time>
<desc>lat.=20.956894, lon.=107.057785, Alt.=-3.821993m. Speed=1.260000m/h.</desc>
<speed>0.350000</speed>
</trkpt>
<trkpt lat="20.956894" lon="107.057800">
<ele>-3.668062</ele>
<time>2011-04-30T05:51:10Z</time>
<desc>lat.=20.956894, lon.=107.057800, Alt.=-3.668062m. Speed=0.900000m/h.</desc>
<speed>0.250000</speed>
</trkpt>
<trkpt lat="20.956896" lon="107.057808">
<ele>-3.583956</ele>
<time>2011-04-30T05:51:15Z</time>
<desc>lat.=20.956896, lon.=107.057808, Alt.=-3.583956m. Speed=0.396000m/h.</desc>
<speed>0.110000</speed>
</trkpt>
<trkpt lat="20.956900" lon="107.057808">
<ele>-3.501680</ele>
<time>2011-04-30T05:51:20Z</time>
<desc>lat.=20.956900, lon.=107.057808, Alt.=-3.501680m. Speed=0.540000m/h.</desc>
<speed>0.150000</speed>
</trkpt>
<trkpt lat="20.956903" lon="107.057800">
<ele>-3.470003</ele>
<time>2011-04-30T05:51:25Z</time>
<desc>lat.=20.956903, lon.=107.057800, Alt.=-3.470003m. Speed=0.288000m/h.</desc>
<speed>0.080000</speed>
</trkpt>
<trkpt lat="20.956886" lon="107.057808">
<ele>-3.456453</ele>
<time>2011-04-30T05:51:30Z</time>
<desc>lat.=20.956886, lon.=107.057808, Alt.=-3.456453m. Speed=1.800000m/h.</desc>
<speed>0.500000</speed>
</trkpt>
<trkpt lat="20.956821" lon="107.057846">
<ele>-3.544649</ele>
<time>2011-04-30T05:51:35Z</time>
<desc>lat.=20.956821, lon.=107.057846, Alt.=-3.544649m. Speed=2.844000m/h.</desc>
<speed>0.790000</speed>
</trkpt>
<trkpt lat="20.956808" lon="107.057869">
<ele>-3.582674</ele>
<time>2011-04-30T05:51:40Z</time>
<desc>lat.=20.956808, lon.=107.057869, Alt.=-3.582674m. Speed=2.124000m/h.</desc>
<speed>0.590000</speed>
</trkpt>
<trkpt lat="20.956816" lon="107.057915">
<ele>-3.615877</ele>
<time>2011-04-30T05:51:45Z</time>
<desc>lat.=20.956816, lon.=107.057915, Alt.=-3.615877m. Speed=2.016000m/h.</desc>
<speed>0.560000</speed>
</trkpt>
<trkpt lat="20.956839" lon="107.057953">
<ele>-3.647066</ele>
<time>2011-04-30T05:51:50Z</time>
<desc>lat.=20.956839, lon.=107.057953, Alt.=-3.647066m. Speed=1.764000m/h.</desc>
<speed>0.490000</speed>
</trkpt>
<trkpt lat="20.956810" lon="107.057976">
<ele>-3.650972</ele>
<time>2011-04-30T05:51:55Z</time>
<desc>lat.=20.956810, lon.=107.057976, Alt.=-3.650972m. Speed=2.160000m/h.</desc>
<speed>0.600000</speed>
</trkpt>
<trkpt lat="20.956810" lon="107.057953">
<ele>-3.635836</ele>
<time>2011-04-30T05:52:00Z</time>
<desc>lat.=20.956810, lon.=107.057953, Alt.=-3.635836m. Speed=1.080000m/h.</desc>
<speed>0.300000</speed>
</trkpt>
<trkpt lat="20.956833" lon="107.057983">
<ele>-4.497135</ele>
<time>2011-04-30T05:52:05Z</time>
<desc>lat.=20.956833, lon.=107.057983, Alt.=-4.497135m. Speed=1.656000m/h.</desc>
<speed>0.460000</speed>
</trkpt>
<trkpt lat="20.956867" lon="107.058006">
<ele>-5.525455</ele>
<time>2011-04-30T05:52:10Z</time>
<desc>lat.=20.956867, lon.=107.058006, Alt.=-5.525455m. Speed=1.512000m/h.</desc>
<speed>0.420000</speed>
</trkpt>
<trkpt lat="20.956879" lon="107.058022">
<ele>-5.882145</ele>
<time>2011-04-30T05:52:15Z</time>
<desc>lat.=20.956879, lon.=107.058022, Alt.=-5.882145m. Speed=1.296000m/h.</desc>
<speed>0.360000</speed>
</trkpt>
<trkpt lat="20.956863" lon="107.058037">
<ele>-5.948429</ele>
<time>2011-04-30T05:52:20Z</time>
<desc>lat.=20.956863, lon.=107.058037, Alt.=-5.948429m. Speed=1.296000m/h.</desc>
<speed>0.360000</speed>
</trkpt>
<trkpt lat="20.956869" lon="107.058014">
<ele>-5.942814</ele>
<time>2011-04-30T05:52:25Z</time>
<desc>lat.=20.956869, lon.=107.058014, Alt.=-5.942814m. Speed=0.468000m/h.</desc>
<speed>0.130000</speed>
</trkpt>
<trkpt lat="20.956867" lon="107.058014">
<ele>-5.978336</ele>
<time>2011-04-30T05:52:30Z</time>
<desc>lat.=20.956867, lon.=107.058014, Alt.=-5.978336m. Speed=0.360000m/h.</desc>
<speed>0.100000</speed>
</trkpt>
<trkpt lat="20.956867" lon="107.058022">
<ele>-5.991764</ele>
<time>2011-04-30T05:52:35Z</time>
<desc>lat.=20.956867, lon.=107.058022, Alt.=-5.991764m. Speed=0.288000m/h.</desc>
<speed>0.080000</speed>
</trkpt>
<trkpt lat="20.956905" lon="107.057983">
<ele>-5.945744</ele>
<time>2011-04-30T05:52:40Z</time>
<desc>lat.=20.956905, lon.=107.057983, Alt.=-5.945744m. Speed=2.268000m/h.</desc>
<speed>0.630000</speed>
</trkpt>
<trkpt lat="20.956945" lon="107.057961">
<ele>-5.925358</ele>
<time>2011-04-30T05:52:45Z</time>
<desc>lat.=20.956945, lon.=107.057961, Alt.=-5.925358m. Speed=2.268000m/h.</desc>
<speed>0.630000</speed>
</trkpt>
<trkpt lat="20.956932" lon="107.057884">
<ele>-5.931950</ele>
<time>2011-04-30T05:52:50Z</time>
<desc>lat.=20.956932, lon.=107.057884, Alt.=-5.931950m. Speed=2.196000m/h.</desc>
<speed>0.610000</speed>
</trkpt>
<trkpt lat="20.956903" lon="107.057861">
<ele>-5.925602</ele>
<time>2011-04-30T05:52:55Z</time>
<desc>lat.=20.956903, lon.=107.057861, Alt.=-5.925602m. Speed=1.584000m/h.</desc>
<speed>0.440000</speed>
</trkpt>
<trkpt lat="20.956844" lon="107.057846">
<ele>-5.947941</ele>
<time>2011-04-30T05:53:00Z</time>
<desc>lat.=20.956844, lon.=107.057846, Alt.=-5.947941m. Speed=1.548000m/h.</desc>
<speed>0.430000</speed>
</trkpt>
<trkpt lat="20.956829" lon="107.057838">
<ele>-5.963200</ele>
<time>2011-04-30T05:53:05Z</time>
<desc>lat.=20.956829, lon.=107.057838, Alt.=-5.963200m. Speed=0.936000m/h.</desc>
<speed>0.260000</speed>
</trkpt>
<trkpt lat="20.956829" lon="107.057808">
<ele>-5.996159</ele>
<time>2011-04-30T05:53:10Z</time>
<desc>lat.=20.956829, lon.=107.057808, Alt.=-5.996159m. Speed=0.648000m/h.</desc>
<speed>0.180000</speed>
</trkpt>
<trkpt lat="20.956827" lon="107.057800">
<ele>-6.000187</ele>
<time>2011-04-30T05:53:15Z</time>
<desc>lat.=20.956827, lon.=107.057800, Alt.=-6.000187m. Speed=0.180000m/h.</desc>
<speed>0.050000</speed>
</trkpt>
<trkpt lat="20.956835" lon="107.057793">
<ele>-6.002872</ele>
<time>2011-04-30T05:53:20Z</time>
<desc>lat.=20.956835, lon.=107.057793, Alt.=-6.002872m. Speed=1.188000m/h.</desc>
<speed>0.330000</speed>
</trkpt>
<trkpt lat="20.956823" lon="107.057770">
<ele>-6.033634</ele>
<time>2011-04-30T05:53:25Z</time>
<desc>lat.=20.956823, lon.=107.057770, Alt.=-6.033634m. Speed=1.296000m/h.</desc>
<speed>0.360000</speed>
</trkpt>
<trkpt lat="20.956831" lon="107.057770">
<ele>-6.074650</ele>
<time>2011-04-30T05:53:30Z</time>
<desc>lat.=20.956831, lon.=107.057770, Alt.=-6.074650m. Speed=0.648000m/h.</desc>
<speed>0.180000</speed>
</trkpt>
<trkpt lat="20.956839" lon="107.057793">
<ele>-6.091373</ele>
<time>2011-04-30T05:53:35Z</time>
<desc>lat.=20.956839, lon.=107.057793, Alt.=-6.091373m. Speed=0.288000m/h.</desc>
<speed>0.080000</speed>
</trkpt>
<trkpt lat="20.956839" lon="107.057800">
<ele>-6.097477</ele>
<time>2011-04-30T05:53:40Z</time>
<desc>lat.=20.956839, lon.=107.057800, Alt.=-6.097477m. Speed=0.936000m/h.</desc>
<speed>0.260000</speed>
</trkpt>
<trkpt lat="20.956852" lon="107.057831">
<ele>-6.128483</ele>
<time>2011-04-30T05:53:45Z</time>
<desc>lat.=20.956852, lon.=107.057831, Alt.=-6.128483m. Speed=2.304000m/h.</desc>
<speed>0.640000</speed>
</trkpt>
<trkpt lat="20.956863" lon="107.057846">
<ele>-6.164127</ele>
<time>2011-04-30T05:53:50Z</time>
<desc>lat.=20.956863, lon.=107.057846, Alt.=-6.164127m. Speed=1.116000m/h.</desc>
<speed>0.310000</speed>
</trkpt>
<trkpt lat="20.956886" lon="107.057816">
<ele>-6.192692</ele>
<time>2011-04-30T05:53:55Z</time>
<desc>lat.=20.956886, lon.=107.057816, Alt.=-6.192692m. Speed=0.360000m/h.</desc>
<speed>0.100000</speed>
</trkpt>
<trkpt lat="20.956892" lon="107.057816">
<ele>-6.181339</ele>
<time>2011-04-30T05:54:00Z</time>
<desc>lat.=20.956892, lon.=107.057816, Alt.=-6.181339m. Speed=0.324000m/h.</desc>
<speed>0.090000</speed>
</trkpt>
<trkpt lat="20.956894" lon="107.057816">
<ele>-6.172916</ele>
<time>2011-04-30T05:54:05Z</time>
<desc>lat.=20.956894, lon.=107.057816, Alt.=-6.172916m. Speed=0.396000m/h.</desc>
<speed>0.110000</speed>
</trkpt>
<trkpt lat="20.956905" lon="107.057777">
<ele>-6.130192</ele>
<time>2011-04-30T05:54:10Z</time>
<desc>lat.=20.956905, lon.=107.057777, Alt.=-6.130192m. Speed=1.944000m/h.</desc>
<speed>0.540000</speed>
</trkpt>
<trkpt lat="20.956871" lon="107.057800">
<ele>-6.155460</ele>
<time>2011-04-30T05:54:15Z</time>
<desc>lat.=20.956871, lon.=107.057800, Alt.=-6.155460m. Speed=1.404000m/h.</desc>
<speed>0.390000</speed>
</trkpt>
<trkpt lat="20.956867" lon="107.057869">
<ele>-6.121281</ele>
<time>2011-04-30T05:54:20Z</time>
<desc>lat.=20.956867, lon.=107.057869, Alt.=-6.121281m. Speed=1.368000m/h.</desc>
<speed>0.380000</speed>
</trkpt>
<trkpt lat="20.956844" lon="107.057938">
<ele>-6.067326</ele>
<time>2011-04-30T05:54:25Z</time>
<desc>lat.=20.956844, lon.=107.057938, Alt.=-6.067326m. Speed=2.592000m/h.</desc>
<speed>0.720000</speed>
</trkpt>
<trkpt lat="20.956854" lon="107.057976">
<ele>-6.007633</ele>
<time>2011-04-30T05:54:30Z</time>
<desc>lat.=20.956854, lon.=107.057976, Alt.=-6.007633m. Speed=1.692000m/h.</desc>
<speed>0.470000</speed>
</trkpt>
<trkpt lat="20.956835" lon="107.058037">
<ele>-5.931950</ele>
<time>2011-04-30T05:54:35Z</time>
<desc>lat.=20.956835, lon.=107.058037, Alt.=-5.931950m. Speed=2.520000m/h.</desc>
<speed>0.700000</speed>
</trkpt>
<trkpt lat="20.956820" lon="107.058083">
<ele>-5.877018</ele>
<time>2011-04-30T05:54:40Z</time>
<desc>lat.=20.956820, lon.=107.058083, Alt.=-5.877018m. Speed=2.124000m/h.</desc>
<speed>0.590000</speed>
</trkpt>
<trkpt lat="20.956816" lon="107.058090">
<ele>-5.705997</ele>
<time>2011-04-30T05:54:45Z</time>
<desc>lat.=20.956816, lon.=107.058090, Alt.=-5.705997m. Speed=1.656000m/h.</desc>
<speed>0.460000</speed>
</trkpt>
<trkpt lat="20.956869" lon="107.058022">
<ele>-5.481876</ele>
<time>2011-04-30T05:54:50Z</time>
<desc>lat.=20.956869, lon.=107.058022, Alt.=-5.481876m. Speed=0.288000m/h.</desc>
<speed>0.080000</speed>
</trkpt>
<trkpt lat="20.956882" lon="107.058022">
<ele>-5.424870</ele>
<time>2011-04-30T05:54:55Z</time>
<desc>lat.=20.956882, lon.=107.058022, Alt.=-5.424870m. Speed=1.476000m/h.</desc>
<speed>0.410000</speed>
</trkpt>
<trkpt lat="20.956926" lon="107.057976">
<ele>-5.259220</ele>
<time>2011-04-30T05:55:00Z</time>
<desc>lat.=20.956926, lon.=107.057976, Alt.=-5.259220m. Speed=1.656000m/h.</desc>
<speed>0.460000</speed>
</trkpt>
<trkpt lat="20.956944" lon="107.057976">
<ele>-5.107121</ele>
<time>2011-04-30T05:55:05Z</time>
<desc>lat.=20.956944, lon.=107.057976, Alt.=-5.107121m. Speed=1.260000m/h.</desc>
<speed>0.350000</speed>
</trkpt>
<trkpt lat="20.956938" lon="107.057953">
<ele>-5.057194</ele>
<time>2011-04-30T05:55:10Z</time>
<desc>lat.=20.956938, lon.=107.057953, Alt.=-5.057194m. Speed=0.612000m/h.</desc>
<speed>0.170000</speed>
</trkpt>
<trkpt lat="20.956936" lon="107.057961">
<ele>-5.013981</ele>
<time>2011-04-30T05:55:15Z</time>
<desc>lat.=20.956936, lon.=107.057961, Alt.=-5.013981m. Speed=1.296000m/h.</desc>
<speed>0.360000</speed>
</trkpt>
<trkpt lat="20.956911" lon="107.057953">
<ele>-4.867985</ele>
<time>2011-04-30T05:55:20Z</time>
<desc>lat.=20.956911, lon.=107.057953, Alt.=-4.867985m. Speed=0.792000m/h.</desc>
<speed>0.220000</speed>
</trkpt>
<trkpt lat="20.956909" lon="107.057938">
<ele>-4.836246</ele>
<time>2011-04-30T05:55:25Z</time>
<desc>lat.=20.956909, lon.=107.057938, Alt.=-4.836246m. Speed=0.396000m/h.</desc>
<speed>0.110000</speed>
</trkpt>
<trkpt lat="20.956917" lon="107.057930">
<ele>-4.829777</ele>
<time>2011-04-30T05:55:30Z</time>
<desc>lat.=20.956917, lon.=107.057930, Alt.=-4.829777m. Speed=0.648000m/h.</desc>
<speed>0.180000</speed>
</trkpt>
<trkpt lat="20.956917" lon="107.057922">
<ele>-4.832340</ele>
<time>2011-04-30T05:55:35Z</time>
<desc>lat.=20.956917, lon.=107.057922, Alt.=-4.832340m. Speed=0.216000m/h.</desc>
<speed>0.060000</speed>
</trkpt>
<trkpt lat="20.956921" lon="107.057938">
<ele>-4.797306</ele>
<time>2011-04-30T05:55:40Z</time>
<desc>lat.=20.956921, lon.=107.057938, Alt.=-4.797306m. Speed=1.512000m/h.</desc>
<speed>0.420000</speed>
</trkpt>
<trkpt lat="20.956930" lon="107.057938">
<ele>-4.681339</ele>
<time>2011-04-30T05:55:45Z</time>
<desc>lat.=20.956930, lon.=107.057938, Alt.=-4.681339m. Speed=0.936000m/h.</desc>
<speed>0.260000</speed>
</trkpt>
<trkpt lat="20.956913" lon="107.057938">
<ele>-4.594547</ele>
<time>2011-04-30T05:55:50Z</time>
<desc>lat.=20.956913, lon.=107.057938, Alt.=-4.594547m. Speed=0.756000m/h.</desc>
<speed>0.210000</speed>
</trkpt>
<trkpt lat="20.956913" lon="107.057938">
<ele>-4.593693</ele>
<time>2011-04-30T05:55:55Z</time>
<desc>lat.=20.956913, lon.=107.057938, Alt.=-4.593693m. Speed=0.720000m/h.</desc>
<speed>0.200000</speed>
</trkpt>
<trkpt lat="20.956890" lon="107.057892">
<ele>-4.682194</ele>
<time>2011-04-30T05:56:00Z</time>
<desc>lat.=20.956890, lon.=107.057892, Alt.=-4.682194m. Speed=1.656000m/h.</desc>
<speed>0.460000</speed>
</trkpt>
<trkpt lat="20.956877" lon="107.057854">
<ele>-4.894840</ele>
<time>2011-04-30T05:56:05Z</time>
<desc>lat.=20.956877, lon.=107.057854, Alt.=-4.894840m. Speed=1.512000m/h.</desc>
<speed>0.420000</speed>
</trkpt>
<trkpt lat="20.956839" lon="107.057838">
<ele>-5.210880</ele>
<time>2011-04-30T05:56:10Z</time>
<desc>lat.=20.956839, lon.=107.057838, Alt.=-5.210880m. Speed=1.728000m/h.</desc>
<speed>0.480000</speed>
</trkpt>
<trkpt lat="20.956856" lon="107.057816">
<ele>-5.268497</ele>
<time>2011-04-30T05:56:15Z</time>
<desc>lat.=20.956856, lon.=107.057816, Alt.=-5.268497m. Speed=0.504000m/h.</desc>
<speed>0.140000</speed>
</trkpt>
<trkpt lat="20.956869" lon="107.057785">
<ele>-5.235416</ele>
<time>2011-04-30T05:56:20Z</time>
<desc>lat.=20.956869, lon.=107.057785, Alt.=-5.235416m. Speed=1.404000m/h.</desc>
<speed>0.390000</speed>
</trkpt>
<trkpt lat="20.956892" lon="107.057808">
<ele>-4.645939</ele>
<time>2011-04-30T05:56:25Z</time>
<desc>lat.=20.956892, lon.=107.057808, Alt.=-4.645939m. Speed=0.504000m/h.</desc>
<speed>0.140000</speed>
</trkpt>
<trkpt lat="20.956915" lon="107.057823">
<ele>-4.332584</ele>
<time>2011-04-30T05:56:30Z</time>
<desc>lat.=20.956915, lon.=107.057823, Alt.=-4.332584m. Speed=0.864000m/h.</desc>
<speed>0.240000</speed>
</trkpt>
<trkpt lat="20.956921" lon="107.057838">
<ele>-4.008610</ele>
<time>2011-04-30T05:56:35Z</time>
<desc>lat.=20.956921, lon.=107.057838, Alt.=-4.008610m. Speed=0.756000m/h.</desc>
<speed>0.210000</speed>
</trkpt>
<trkpt lat="20.956926" lon="107.057846">
<ele>-3.800692</ele>
<time>2011-04-30T05:56:40Z</time>
<desc>lat.=20.956926, lon.=107.057846, Alt.=-3.800692m. Speed=0.756000m/h.</desc>
<speed>0.210000</speed>
</trkpt>
<trkpt lat="20.956900" lon="107.057877">
<ele>-3.529207</ele>
<time>2011-04-30T05:56:45Z</time>
<desc>lat.=20.956900, lon.=107.057877, Alt.=-3.529207m. Speed=1.152000m/h.</desc>
<speed>0.320000</speed>
</trkpt>
<trkpt lat="20.956896" lon="107.057915">
<ele>-3.508211</ele>
<time>2011-04-30T05:56:50Z</time>
<desc>lat.=20.956896, lon.=107.057915, Alt.=-3.508211m. Speed=1.368000m/h.</desc>
<speed>0.380000</speed>
</trkpt>
<trkpt lat="20.956886" lon="107.057945">
<ele>-3.593477</ele>
<time>2011-04-30T05:56:55Z</time>
<desc>lat.=20.956886, lon.=107.057945, Alt.=-3.593477m. Speed=1.440000m/h.</desc>
<speed>0.400000</speed>
</trkpt>
<trkpt lat="20.956869" lon="107.057938">
<ele>-3.497713</ele>
<time>2011-04-30T05:57:00Z</time>
<desc>lat.=20.956869, lon.=107.057938, Alt.=-3.497713m. Speed=0.828000m/h.</desc>
<speed>0.230000</speed>
</trkpt>
<trkpt lat="20.956861" lon="107.057922">
<ele>-3.384310</ele>
<time>2011-04-30T05:57:05Z</time>
<desc>lat.=20.956861, lon.=107.057922, Alt.=-3.384310m. Speed=0.828000m/h.</desc>
<speed>0.230000</speed>
</trkpt>
<trkpt lat="20.956833" lon="107.057907">
<ele>-3.378450</ele>
<time>2011-04-30T05:57:10Z</time>
<desc>lat.=20.956833, lon.=107.057907, Alt.=-3.378450m. Speed=1.908000m/h.</desc>
<speed>0.530000</speed>
</trkpt>
<trkpt lat="20.956799" lon="107.057915">
<ele>-3.352938</ele>
<time>2011-04-30T05:57:15Z</time>
<desc>lat.=20.956799, lon.=107.057915, Alt.=-3.352938m. Speed=2.052000m/h.</desc>
<speed>0.570000</speed>
</trkpt>
<trkpt lat="20.956779" lon="107.057846">
<ele>-3.248751</ele>
<time>2011-04-30T05:57:20Z</time>
<desc>lat.=20.956779, lon.=107.057846, Alt.=-3.248751m. Speed=2.772000m/h.</desc>
<speed>0.770000</speed>
</trkpt>
<trkpt lat="20.956785" lon="107.057823">
<ele>-3.185579</ele>
<time>2011-04-30T05:57:25Z</time>
<desc>lat.=20.956785, lon.=107.057823, Alt.=-3.185579m. Speed=1.044000m/h.</desc>
<speed>0.290000</speed>
</trkpt>
<trkpt lat="20.956779" lon="107.057800">
<ele>-3.108309</ele>
<time>2011-04-30T05:57:30Z</time>
<desc>lat.=20.956779, lon.=107.057800, Alt.=-3.108309m. Speed=1.692000m/h.</desc>
<speed>0.470000</speed>
</trkpt>
<trkpt lat="20.956787" lon="107.057755">
<ele>-3.078829</ele>
<time>2011-04-30T05:57:35Z</time>
<desc>lat.=20.956787, lon.=107.057755, Alt.=-3.078829m. Speed=2.304000m/h.</desc>
<speed>0.640000</speed>
</trkpt>
<trkpt lat="20.956839" lon="107.057747">
<ele>-3.095613</ele>
<time>2011-04-30T05:57:40Z</time>
<desc>lat.=20.956839, lon.=107.057747, Alt.=-3.095613m. Speed=2.016000m/h.</desc>
<speed>0.560000</speed>
</trkpt>
<trkpt lat="20.956886" lon="107.057747">
<ele>-3.186800</ele>
<time>2011-04-30T05:57:45Z</time>
<desc>lat.=20.956886, lon.=107.057747, Alt.=-3.186800m. Speed=2.124000m/h.</desc>
<speed>0.590000</speed>
</trkpt>
<trkpt lat="20.956835" lon="107.057793">
<ele>-3.381014</ele>
<time>2011-04-30T05:57:50Z</time>
<desc>lat.=20.956835, lon.=107.057793, Alt.=-3.381014m. Speed=0.864000m/h.</desc>
<speed>0.240000</speed>
</trkpt>
<trkpt lat="20.956835" lon="107.057800">
<ele>-3.720003</ele>
<time>2011-04-30T05:57:55Z</time>
<desc>lat.=20.956835, lon.=107.057800, Alt.=-3.720003m. Speed=1.980000m/h.</desc>
<speed>0.550000</speed>
</trkpt>
<trkpt lat="20.956873" lon="107.057785">
<ele>-3.664461</ele>
<time>2011-04-30T05:58:00Z</time>
<desc>lat.=20.956873, lon.=107.057785, Alt.=-3.664461m. Speed=1.980000m/h.</desc>
<speed>0.550000</speed>
</trkpt>
<trkpt lat="20.956879" lon="107.057793">
<ele>-3.650301</ele>
<time>2011-04-30T05:58:05Z</time>
<desc>lat.=20.956879, lon.=107.057793, Alt.=-3.650301m. Speed=1.152000m/h.</desc>
<speed>0.320000</speed>
</trkpt>
<trkpt lat="20.956886" lon="107.057777">
<ele>-3.649385</ele>
<time>2011-04-30T05:58:10Z</time>
<desc>lat.=20.956886, lon.=107.057777, Alt.=-3.649385m. Speed=0.936000m/h.</desc>
<speed>0.260000</speed>
</trkpt>
<trkpt lat="20.956890" lon="107.057777">
<ele>-3.637484</ele>
<time>2011-04-30T05:58:15Z</time>
<desc>lat.=20.956890, lon.=107.057777, Alt.=-3.637484m. Speed=0.396000m/h.</desc>
<speed>0.110000</speed>
</trkpt>
<trkpt lat="20.956879" lon="107.057831">
<ele>-3.420748</ele>
<time>2011-04-30T05:58:20Z</time>
<desc>lat.=20.956879, lon.=107.057831, Alt.=-3.420748m. Speed=4.680000m/h.</desc>
<speed>1.300000</speed>
</trkpt>
<trkpt lat="20.956888" lon="107.057884">
<ele>-2.555758</ele>
<time>2011-04-30T05:58:25Z</time>
<desc>lat.=20.956888, lon.=107.057884, Alt.=-2.555758m. Speed=3.708000m/h.</desc>
<speed>1.030000</speed>
</trkpt>
<trkpt lat="20.956896" lon="107.057846">
<ele>-1.958085</ele>
<time>2011-04-30T05:58:30Z</time>
<desc>lat.=20.956896, lon.=107.057846, Alt.=-1.958085m. Speed=0.864000m/h.</desc>
<speed>0.240000</speed>
</trkpt>
<trkpt lat="20.956861" lon="107.057861">
<ele>-1.747148</ele>
<time>2011-04-30T05:58:35Z</time>
<desc>lat.=20.956861, lon.=107.057861, Alt.=-1.747148m. Speed=0.648000m/h.</desc>
<speed>0.180000</speed>
</trkpt>
<trkpt lat="20.956823" lon="107.057884">
<ele>-1.014115</ele>
<time>2011-04-30T05:58:40Z</time>
<desc>lat.=20.956823, lon.=107.057884, Alt.=-1.014115m. Speed=1.296000m/h.</desc>
<speed>0.360000</speed>
</trkpt>
<trkpt lat="20.956825" lon="107.057861">
<ele>-0.878212</ele>
<time>2011-04-30T05:58:45Z</time>
<desc>lat.=20.956825, lon.=107.057861, Alt.=-0.878212m. Speed=0.180000m/h.</desc>
<speed>0.050000</speed>
</trkpt>
<trkpt lat="20.956839" lon="107.057854">
<ele>-0.827477</ele>
<time>2011-04-30T05:58:50Z</time>
<desc>lat.=20.956839, lon.=107.057854, Alt.=-0.827477m. Speed=1.152000m/h.</desc>
<speed>0.320000</speed>
</trkpt>
<trkpt lat="20.956856" lon="107.057861">
<ele>-1.394181</ele>
<time>2011-04-30T05:58:55Z</time>
<desc>lat.=20.956856, lon.=107.057861, Alt.=-1.394181m. Speed=0.324000m/h.</desc>
<speed>0.090000</speed>
</trkpt>
<trkpt lat="20.956844" lon="107.057869">
<ele>-1.188127</ele>
<time>2011-04-30T05:59:00Z</time>
<desc>lat.=20.956844, lon.=107.057869, Alt.=-1.188127m. Speed=0.972000m/h.</desc>
<speed>0.270000</speed>
</trkpt>
<trkpt lat="20.956842" lon="107.057892">
<ele>-0.897255</ele>
<time>2011-04-30T05:59:05Z</time>
<desc>lat.=20.956842, lon.=107.057892, Alt.=-0.897255m. Speed=0.108000m/h.</desc>
<speed>0.030000</speed>
</trkpt>
<trkpt lat="20.956841" lon="107.057892">
<ele>-0.892220</ele>
<time>2011-04-30T05:59:10Z</time>
<desc>lat.=20.956841, lon.=107.057892, Alt.=-0.892220m. Speed=0.432000m/h.</desc>
<speed>0.120000</speed>
</trkpt>
<trkpt lat="20.956831" lon="107.057884">
<ele>-0.915642</ele>
<time>2011-04-30T05:59:15Z</time>
<desc>lat.=20.956831, lon.=107.057884, Alt.=-0.915642m. Speed=1.260000m/h.</desc>
<speed>0.350000</speed>
</trkpt>
<trkpt lat="20.956818" lon="107.057838">
<ele>-0.952675</ele>
<time>2011-04-30T05:59:20Z</time>
<desc>lat.=20.956818, lon.=107.057838, Alt.=-0.952675m. Speed=2.340000m/h.</desc>
<speed>0.650000</speed>
</trkpt>
<trkpt lat="20.956823" lon="107.057861">
<ele>-1.075212</ele>
<time>2011-04-30T05:59:25Z</time>
<desc>lat.=20.956823, lon.=107.057861, Alt.=-1.075212m. Speed=0.288000m/h.</desc>
<speed>0.080000</speed>
</trkpt>
<trkpt lat="20.956802" lon="107.057846">
<ele>-1.173509</ele>
<time>2011-04-30T05:59:30Z</time>
<desc>lat.=20.956802, lon.=107.057846, Alt.=-1.173509m. Speed=1.728000m/h.</desc>
<speed>0.480000</speed>
</trkpt>
<trkpt lat="20.956835" lon="107.057877">
<ele>-0.463726</ele>
<time>2011-04-30T05:59:35Z</time>
<desc>lat.=20.956835, lon.=107.057877, Alt.=-0.463726m. Speed=0.252000m/h.</desc>
<speed>0.070000</speed>
</trkpt>
<trkpt lat="20.956898" lon="107.057831">
<ele>-0.215994</ele>
<time>2011-04-30T05:59:40Z</time>
<desc>lat.=20.956898, lon.=107.057831, Alt.=-0.215994m. Speed=1.800000m/h.</desc>
<speed>0.500000</speed>
</trkpt>
<trkpt lat="20.956930" lon="107.057869">
<ele>1.289140</ele>
<time>2011-04-30T05:59:45Z</time>
<desc>lat.=20.956930, lon.=107.057869, Alt.=1.289140m. Speed=1.152000m/h.</desc>
<speed>0.320000</speed>
</trkpt>
<trkpt lat="20.956953" lon="107.057907">
<ele>2.601107</ele>
<time>2011-04-30T05:59:50Z</time>
<desc>lat.=20.956953, lon.=107.057907, Alt.=2.601107m. Speed=1.116000m/h.</desc>
<speed>0.310000</speed>
</trkpt>
<trkpt lat="20.956982" lon="107.057953">
<ele>3.356050</ele>
<time>2011-04-30T05:59:55Z</time>
<desc>lat.=20.956982, lon.=107.057953, Alt.=3.356050m. Speed=3.708000m/h.</desc>
<speed>1.030000</speed>
</trkpt>
<trkpt lat="20.957005" lon="107.057976">
<ele>3.980501</ele>
<time>2011-04-30T06:00:00Z</time>
<desc>lat.=20.957005, lon.=107.057976, Alt.=3.980501m. Speed=1.548000m/h.</desc>
<speed>0.430000</speed>
</trkpt>
<trkpt lat="20.957035" lon="107.057976">
<ele>4.960392</ele>
<time>2011-04-30T06:00:05Z</time>
<desc>lat.=20.957035, lon.=107.057976, Alt.=4.960392m. Speed=1.476000m/h.</desc>
<speed>0.410000</speed>
</trkpt>
<trkpt lat="20.957037" lon="107.057968">
<ele>5.826847</ele>
<time>2011-04-30T06:00:10Z</time>
<desc>lat.=20.957037, lon.=107.057968, Alt.=5.826847m. Speed=1.800000m/h.</desc>
<speed>0.500000</speed>
</trkpt>
<trkpt lat="20.957006" lon="107.057961">
<ele>6.628971</ele>
<time>2011-04-30T06:00:15Z</time>
<desc>lat.=20.957006, lon.=107.057961, Alt.=6.628971m. Speed=0.324000m/h.</desc>
<speed>0.090000</speed>
</trkpt>
<trkpt lat="20.956951" lon="107.057953">
<ele>7.464176</ele>
<time>2011-04-30T06:00:20Z</time>
<desc>lat.=20.956951, lon.=107.057953, Alt.=7.464176m. Speed=1.584000m/h.</desc>
<speed>0.440000</speed>
</trkpt>
<trkpt lat="20.956898" lon="107.057892">
<ele>8.096077</ele>
<time>2011-04-30T06:00:25Z</time>
<desc>lat.=20.956898, lon.=107.057892, Alt.=8.096077m. Speed=2.088000m/h.</desc>
<speed>0.580000</speed>
</trkpt>
<trkpt lat="20.956898" lon="107.057915">
<ele>8.488411</ele>
<time>2011-04-30T06:00:30Z</time>
<desc>lat.=20.956898, lon.=107.057915, Alt.=8.488411m. Speed=0.504000m/h.</desc>
<speed>0.140000</speed>
</trkpt>
<trkpt lat="20.956907" lon="107.057915">
<ele>8.491829</ele>
<time>2011-04-30T06:00:35Z</time>
<desc>lat.=20.956907, lon.=107.057915, Alt.=8.491829m. Speed=0.252000m/h.</desc>
<speed>0.070000</speed>
</trkpt>
<trkpt lat="20.956907" lon="107.057899">
<ele>8.730843</ele>
<time>2011-04-30T06:00:40Z</time>
<desc>lat.=20.956907, lon.=107.057899, Alt.=8.730843m. Speed=2.376000m/h.</desc>
<speed>0.660000</speed>
</trkpt>
<trkpt lat="20.956919" lon="107.057892">
<ele>9.589241</ele>
<time>2011-04-30T06:00:45Z</time>
<desc>lat.=20.956919, lon.=107.057892, Alt.=9.589241m. Speed=0.504000m/h.</desc>
<speed>0.140000</speed>
</trkpt>
<trkpt lat="20.956944" lon="107.057892">
<ele>10.483284</ele>
<time>2011-04-30T06:00:50Z</time>
<desc>lat.=20.956944, lon.=107.057892, Alt.=10.483284m. Speed=1.872000m/h.</desc>
<speed>0.520000</speed>
</trkpt>
<trkpt lat="20.956942" lon="107.057846">
<ele>10.927620</ele>
<time>2011-04-30T06:00:55Z</time>
<desc>lat.=20.956942, lon.=107.057846, Alt.=10.927620m. Speed=2.628000m/h.</desc>
<speed>0.730000</speed>
</trkpt>
<trkpt lat="20.956989" lon="107.057846">
<ele>11.458626</ele>
<time>2011-04-30T06:01:00Z</time>
<desc>lat.=20.956989, lon.=107.057846, Alt.=11.458626m. Speed=2.520000m/h.</desc>
<speed>0.700000</speed>
</trkpt>
<trkpt lat="20.957039" lon="107.057808">
<ele>12.267952</ele>
<time>2011-04-30T06:01:05Z</time>
<desc>lat.=20.957039, lon.=107.057808, Alt.=12.267952m. Speed=3.492000m/h.</desc>
<speed>0.970000</speed>
</trkpt>
<trkpt lat="20.957045" lon="107.057800">
<ele>12.407600</ele>
<time>2011-04-30T06:01:10Z</time>
<desc>lat.=20.957045, lon.=107.057800, Alt.=12.407600m. Speed=1.080000m/h.</desc>
<speed>0.300000</speed>
</trkpt>
<trkpt lat="20.957033" lon="107.057831">
<ele>12.595589</ele>
<time>2011-04-30T06:01:15Z</time>
<desc>lat.=20.957033, lon.=107.057831, Alt.=12.595589m. Speed=1.764000m/h.</desc>
<speed>0.490000</speed>
</trkpt>
<trkpt lat="20.956999" lon="107.057846">
<ele>13.190559</ele>
<time>2011-04-30T06:01:20Z</time>
<desc>lat.=20.956999, lon.=107.057846, Alt.=13.190559m. Speed=0.684000m/h.</desc>
<speed>0.190000</speed>
</trkpt>
<trkpt lat="20.956966" lon="107.057907">
<ele>13.520149</ele>
<time>2011-04-30T06:01:25Z</time>
<desc>lat.=20.956966, lon.=107.057907, Alt.=13.520149m. Speed=1.548000m/h.</desc>
<speed>0.430000</speed>
</trkpt>
<trkpt lat="20.956909" lon="107.057915">
<ele>11.508919</ele>
<time>2011-04-30T06:01:30Z</time>
<desc>lat.=20.956909, lon.=107.057915, Alt.=11.508919m. Speed=1.836000m/h.</desc>
<speed>0.510000</speed>
</trkpt>
<trkpt lat="20.956852" lon="107.057892">
<ele>9.650032</ele>
<time>2011-04-30T06:01:35Z</time>
<desc>lat.=20.956852, lon.=107.057892, Alt.=9.650032m. Speed=2.556000m/h.</desc>
<speed>0.710000</speed>
</trkpt>
<trkpt lat="20.956854" lon="107.057892">
<ele>9.147591</ele>
<time>2011-04-30T06:01:40Z</time>
<desc>lat.=20.956854, lon.=107.057892, Alt.=9.147591m. Speed=0.180000m/h.</desc>
<speed>0.050000</speed>
</trkpt>
<trkpt lat="20.956848" lon="107.057838">
<ele>9.025032</ele>
<time>2011-04-30T06:01:45Z</time>
<desc>lat.=20.956848, lon.=107.057838, Alt.=9.025032m. Speed=2.484000m/h.</desc>
<speed>0.690000</speed>
</trkpt>
<trkpt lat="20.956841" lon="107.057793">
<ele>9.005257</ele>
<time>2011-04-30T06:01:50Z</time>
<desc>lat.=20.956841, lon.=107.057793, Alt.=9.005257m. Speed=2.484000m/h.</desc>
<speed>0.690000</speed>
</trkpt>
<trkpt lat="20.956818" lon="107.057785">
<ele>8.987190</ele>
<time>2011-04-30T06:01:55Z</time>
<desc>lat.=20.956818, lon.=107.057785, Alt.=8.987190m. Speed=1.764000m/h.</desc>
<speed>0.490000</speed>
</trkpt>
<trkpt lat="20.956791" lon="107.057793">
<ele>8.994270</ele>
<time>2011-04-30T06:02:00Z</time>
<desc>lat.=20.956791, lon.=107.057793, Alt.=8.994270m. Speed=1.116000m/h.</desc>
<speed>0.310000</speed>
</trkpt>
<trkpt lat="20.956776" lon="107.057770">
<ele>9.251350</ele>
<time>2011-04-30T06:02:05Z</time>
<desc>lat.=20.956776, lon.=107.057770, Alt.=9.251350m. Speed=1.692000m/h.</desc>
<speed>0.470000</speed>
</trkpt>
<trkpt lat="20.956789" lon="107.057770">
<ele>9.833870</ele>
<time>2011-04-30T06:02:10Z</time>
<desc>lat.=20.956789, lon.=107.057770, Alt.=9.833870m. Speed=1.332000m/h.</desc>
<speed>0.370000</speed>
</trkpt>
<trkpt lat="20.956781" lon="107.057724">
<ele>10.403938</ele>
<time>2011-04-30T06:02:15Z</time>
<desc>lat.=20.956781, lon.=107.057724, Alt.=10.403938m. Speed=2.448000m/h.</desc>
<speed>0.680000</speed>
</trkpt>
<trkpt lat="20.956835" lon="107.057716">
<ele>10.613899</ele>
<time>2011-04-30T06:02:20Z</time>
<desc>lat.=20.956835, lon.=107.057716, Alt.=10.613899m. Speed=1.872000m/h.</desc>
<speed>0.520000</speed>
</trkpt>
<trkpt lat="20.956837" lon="107.057716">
<ele>11.114876</ele>
<time>2011-04-30T06:02:25Z</time>
<desc>lat.=20.956837, lon.=107.057716, Alt.=11.114876m. Speed=1.152000m/h.</desc>
<speed>0.320000</speed>
</trkpt>
<trkpt lat="20.956852" lon="107.057716">
<ele>11.432259</ele>
<time>2011-04-30T06:02:30Z</time>
<desc>lat.=20.956852, lon.=107.057716, Alt.=11.432259m. Speed=1.620000m/h.</desc>
<speed>0.450000</speed>
</trkpt>
<trkpt lat="20.956848" lon="107.057739">
<ele>11.840950</ele>
<time>2011-04-30T06:02:35Z</time>
<desc>lat.=20.956848, lon.=107.057739, Alt.=11.840950m. Speed=0.432000m/h.</desc>
<speed>0.120000</speed>
</trkpt>
<trkpt lat="20.956837" lon="107.057762">
<ele>12.094368</ele>
<time>2011-04-30T06:02:40Z</time>
<desc>lat.=20.956837, lon.=107.057762, Alt.=12.094368m. Speed=2.268000m/h.</desc>
<speed>0.630000</speed>
</trkpt>
<trkpt lat="20.956863" lon="107.057800">
<ele>12.933235</ele>
<time>2011-04-30T06:02:45Z</time>
<desc>lat.=20.956863, lon.=107.057800, Alt.=12.933235m. Speed=1.764000m/h.</desc>
<speed>0.490000</speed>
</trkpt>
<trkpt lat="20.956886" lon="107.057770">
<ele>13.390999</ele>
<time>2011-04-30T06:02:50Z</time>
<desc>lat.=20.956886, lon.=107.057770, Alt.=13.390999m. Speed=1.584000m/h.</desc>
<speed>0.440000</speed>
</trkpt>
<trkpt lat="20.956858" lon="107.057808">
<ele>13.527229</ele>
<time>2011-04-30T06:02:55Z</time>
<desc>lat.=20.956858, lon.=107.057808, Alt.=13.527229m. Speed=0.972000m/h.</desc>
<speed>0.270000</speed>
</trkpt>
<trkpt lat="20.956894" lon="107.057892">
<ele>13.404427</ele>
<time>2011-04-30T06:03:00Z</time>
<desc>lat.=20.956894, lon.=107.057892, Alt.=13.404427m. Speed=6.552000m/h.</desc>
<speed>1.820000</speed>
</trkpt>
<trkpt lat="20.956873" lon="107.057968">
<ele>13.285042</ele>
<time>2011-04-30T06:03:05Z</time>
<desc>lat.=20.956873, lon.=107.057968, Alt.=13.285042m. Speed=5.760000m/h.</desc>
<speed>1.600000</speed>
</trkpt>
<trkpt lat="20.956886" lon="107.057991">
<ele>13.122932</ele>
<time>2011-04-30T06:03:10Z</time>
<desc>lat.=20.956886, lon.=107.057991, Alt.=13.122932m. Speed=5.220000m/h.</desc>
<speed>1.450000</speed>
</trkpt>
<trkpt lat="20.956972" lon="107.057892">
<ele>13.011116</ele>
<time>2011-04-30T06:03:15Z</time>
<desc>lat.=20.956972, lon.=107.057892, Alt.=13.011116m. Speed=5.904000m/h.</desc>
<speed>1.640000</speed>
</trkpt>
<trkpt lat="20.956938" lon="107.057922">
<ele>13.033333</ele>
<time>2011-04-30T06:03:20Z</time>
<desc>lat.=20.956938, lon.=107.057922, Alt.=13.033333m. Speed=3.564000m/h.</desc>
<speed>0.990000</speed>
</trkpt>
<trkpt lat="20.956783" lon="107.057899">
<ele>13.125862</ele>
<time>2011-04-30T06:03:25Z</time>
<desc>lat.=20.956783, lon.=107.057899, Alt.=13.125862m. Speed=12.132000m/h.</desc>
<speed>3.370000</speed>
</trkpt>
<trkpt lat="20.956652" lon="107.057922">
<ele>13.687141</ele>
<time>2011-04-30T06:03:30Z</time>
<desc>lat.=20.956652, lon.=107.057922, Alt.=13.687141m. Speed=5.976000m/h.</desc>
<speed>1.660000</speed>
</trkpt>
<trkpt lat="20.956602" lon="107.057953">
<ele>13.957893</ele>
<time>2011-04-30T06:03:35Z</time>
<desc>lat.=20.956602, lon.=107.057953, Alt.=13.957893m. Speed=9.072000m/h.</desc>
<speed>2.520000</speed>
</trkpt>
<trkpt lat="20.956612" lon="107.058075">
<ele>10.305305</ele>
<time>2011-04-30T06:03:40Z</time>
<desc>lat.=20.956612, lon.=107.058075, Alt.=10.305305m. Speed=5.580000m/h.</desc>
<speed>1.550000</speed>
</trkpt>
<trkpt lat="20.956656" lon="107.058121">
<ele>8.962288</ele>
<time>2011-04-30T06:03:45Z</time>
<desc>lat.=20.956656, lon.=107.058121, Alt.=8.962288m. Speed=1.620000m/h.</desc>
<speed>0.450000</speed>
</trkpt>
<trkpt lat="20.956730" lon="107.058060">
<ele>9.404427</ele>
<time>2011-04-30T06:03:50Z</time>
<desc>lat.=20.956730, lon.=107.058060, Alt.=9.404427m. Speed=2.448000m/h.</desc>
<speed>0.680000</speed>
</trkpt>
<trkpt lat="20.956783" lon="107.058037">
<ele>10.637581</ele>
<time>2011-04-30T06:03:55Z</time>
<desc>lat.=20.956783, lon.=107.058037, Alt.=10.637581m. Speed=0.900000m/h.</desc>
<speed>0.250000</speed>
</trkpt>
<trkpt lat="20.956802" lon="107.058014">
<ele>9.068489</ele>
<time>2011-04-30T06:04:00Z</time>
<desc>lat.=20.956802, lon.=107.058014, Alt.=9.068489m. Speed=3.096000m/h.</desc>
<speed>0.860000</speed>
</trkpt>
<trkpt lat="20.956800" lon="107.058014">
<ele>8.199593</ele>
<time>2011-04-30T06:04:05Z</time>
<desc>lat.=20.956800, lon.=107.058014, Alt.=8.199593m. Speed=1.476000m/h.</desc>
<speed>0.410000</speed>
</trkpt>
<trkpt lat="20.956810" lon="107.058006">
<ele>8.570442</ele>
<time>2011-04-30T06:04:10Z</time>
<desc>lat.=20.956810, lon.=107.058006, Alt.=8.570442m. Speed=0.936000m/h.</desc>
<speed>0.260000</speed>
</trkpt>
<trkpt lat="20.956856" lon="107.058044">
<ele>7.829044</ele>
<time>2011-04-30T06:04:15Z</time>
<desc>lat.=20.956856, lon.=107.058044, Alt.=7.829044m. Speed=9.108000m/h.</desc>
<speed>2.530000</speed>
</trkpt>
<trkpt lat="20.956858" lon="107.058067">
<ele>8.414436</ele>
<time>2011-04-30T06:04:20Z</time>
<desc>lat.=20.956858, lon.=107.058067, Alt.=8.414436m. Speed=3.240000m/h.</desc>
<speed>0.900000</speed>
</trkpt>
<trkpt lat="20.956848" lon="107.057961">
<ele>9.685432</ele>
<time>2011-04-30T06:04:25Z</time>
<desc>lat.=20.956848, lon.=107.057961, Alt.=9.685432m. Speed=6.912000m/h.</desc>
<speed>1.920000</speed>
</trkpt>
<trkpt lat="20.956785" lon="107.057785">
<ele>13.284798</ele>
<time>2011-04-30T06:04:30Z</time>
<desc>lat.=20.956785, lon.=107.057785, Alt.=13.284798m. Speed=13.536000m/h.</desc>
<speed>3.760000</speed>
</trkpt>
<trkpt lat="20.956787" lon="107.057770">
<ele>15.383430</ele>
<time>2011-04-30T06:04:35Z</time>
<desc>lat.=20.956787, lon.=107.057770, Alt.=15.383430m. Speed=0.756000m/h.</desc>
<speed>0.210000</speed>
</trkpt>
<trkpt lat="20.956762" lon="107.057701">
<ele>16.739029</ele>
<time>2011-04-30T06:04:40Z</time>
<desc>lat.=20.956762, lon.=107.057701, Alt.=16.739029m. Speed=3.096000m/h.</desc>
<speed>0.860000</speed>
</trkpt>
<trkpt lat="20.956745" lon="107.057678">
<ele>17.261002</ele>
<time>2011-04-30T06:04:45Z</time>
<desc>lat.=20.956745, lon.=107.057678, Alt.=17.261002m. Speed=1.908000m/h.</desc>
<speed>0.530000</speed>
</trkpt>
<trkpt lat="20.956768" lon="107.057755">
<ele>18.042740</ele>
<time>2011-04-30T06:04:50Z</time>
<desc>lat.=20.956768, lon.=107.057755, Alt.=18.042740m. Speed=2.412000m/h.</desc>
<speed>0.670000</speed>
</trkpt>
<trkpt lat="20.956718" lon="107.057877">
<ele>18.274185</ele>
<time>2011-04-30T06:04:55Z</time>
<desc>lat.=20.956718, lon.=107.057877, Alt.=18.274185m. Speed=4.896000m/h.</desc>
<speed>1.360000</speed>
</trkpt>
<trkpt lat="20.956730" lon="107.057938">
<ele>19.022232</ele>
<time>2011-04-30T06:05:00Z</time>
<desc>lat.=20.956730, lon.=107.057938, Alt.=19.022232m. Speed=3.672000m/h.</desc>
<speed>1.020000</speed>
</trkpt>
<trkpt lat="20.956722" lon="107.057968">
<ele>19.641861</ele>
<time>2011-04-30T06:05:05Z</time>
<desc>lat.=20.956722, lon.=107.057968, Alt.=19.641861m. Speed=2.988000m/h.</desc>
<speed>0.830000</speed>
</trkpt>
<trkpt lat="20.956703" lon="107.057983">
<ele>19.507584</ele>
<time>2011-04-30T06:05:10Z</time>
<desc>lat.=20.956703, lon.=107.057983, Alt.=19.507584m. Speed=2.988000m/h.</desc>
<speed>0.830000</speed>
</trkpt>
<trkpt lat="20.956696" lon="107.058006">
<ele>18.683365</ele>
<time>2011-04-30T06:05:15Z</time>
<desc>lat.=20.956696, lon.=107.058006, Alt.=18.683365m. Speed=4.932000m/h.</desc>
<speed>1.370000</speed>
</trkpt>
<trkpt lat="20.956707" lon="107.057991">
<ele>17.815689</ele>
<time>2011-04-30T06:05:20Z</time>
<desc>lat.=20.956707, lon.=107.057991, Alt.=17.815689m. Speed=2.664000m/h.</desc>
<speed>0.740000</speed>
</trkpt>
<trkpt lat="20.956726" lon="107.058022">
<ele>16.745377</ele>
<time>2011-04-30T06:05:25Z</time>
<desc>lat.=20.956726, lon.=107.058022, Alt.=16.745377m. Speed=2.016000m/h.</desc>
<speed>0.560000</speed>
</trkpt>
<trkpt lat="20.956711" lon="107.057991">
<ele>15.088753</ele>
<time>2011-04-30T06:05:30Z</time>
<desc>lat.=20.956711, lon.=107.057991, Alt.=15.088753m. Speed=1.908000m/h.</desc>
<speed>0.530000</speed>
</trkpt>
<trkpt lat="20.956715" lon="107.058006">
<ele>13.217659</ele>
<time>2011-04-30T06:05:35Z</time>
<desc>lat.=20.956715, lon.=107.058006, Alt.=13.217659m. Speed=2.052000m/h.</desc>
<speed>0.570000</speed>
</trkpt>
<trkpt lat="20.956730" lon="107.057999">
<ele>12.465218</ele>
<time>2011-04-30T06:05:40Z</time>
<desc>lat.=20.956730, lon.=107.057999, Alt.=12.465218m. Speed=0.396000m/h.</desc>
<speed>0.110000</speed>
</trkpt>
<trkpt lat="20.956730" lon="107.057983">
<ele>12.109261</ele>
<time>2011-04-30T06:05:45Z</time>
<desc>lat.=20.956730, lon.=107.057983, Alt.=12.109261m. Speed=3.276000m/h.</desc>
<speed>0.910000</speed>
</trkpt>
<trkpt lat="20.956738" lon="107.057968">
<ele>12.453987</ele>
<time>2011-04-30T06:05:50Z</time>
<desc>lat.=20.956738, lon.=107.057968, Alt.=12.453987m. Speed=1.872000m/h.</desc>
<speed>0.520000</speed>
</trkpt>
<trkpt lat="20.956787" lon="107.057976">
<ele>12.603157</ele>
<time>2011-04-30T06:05:55Z</time>
<desc>lat.=20.956787, lon.=107.057976, Alt.=12.603157m. Speed=3.024000m/h.</desc>
<speed>0.840000</speed>
</trkpt>
<trkpt lat="20.956795" lon="107.057983">
<ele>11.797005</ele>
<time>2011-04-30T06:06:00Z</time>
<desc>lat.=20.956795, lon.=107.057983, Alt.=11.797005m. Speed=1.692000m/h.</desc>
<speed>0.470000</speed>
</trkpt>
<trkpt lat="20.956808" lon="107.057999">
<ele>8.536018</ele>
<time>2011-04-30T06:06:05Z</time>
<desc>lat.=20.956808, lon.=107.057999, Alt.=8.536018m. Speed=0.936000m/h.</desc>
<speed>0.260000</speed>
</trkpt>
<trkpt lat="20.956789" lon="107.057976">
<ele>7.294132</ele>
<time>2011-04-30T06:06:10Z</time>
<desc>lat.=20.956789, lon.=107.057976, Alt.=7.294132m. Speed=1.368000m/h.</desc>
<speed>0.380000</speed>
</trkpt>
<trkpt lat="20.956778" lon="107.057961">
<ele>6.876163</ele>
<time>2011-04-30T06:06:15Z</time>
<desc>lat.=20.956778, lon.=107.057961, Alt.=6.876163m. Speed=3.492000m/h.</desc>
<speed>0.970000</speed>
</trkpt>
<trkpt lat="20.956799" lon="107.057945">
<ele>7.443302</ele>
<time>2011-04-30T06:06:20Z</time>
<desc>lat.=20.956799, lon.=107.057945, Alt.=7.443302m. Speed=1.080000m/h.</desc>
<speed>0.300000</speed>
</trkpt>
<trkpt lat="20.956797" lon="107.058037">
<ele>7.505436</ele>
<time>2011-04-30T06:06:25Z</time>
<desc>lat.=20.956797, lon.=107.058037, Alt.=7.505436m. Speed=8.640000m/h.</desc>
<speed>2.400000</speed>
</trkpt>
<trkpt lat="20.956753" lon="107.058044">
<ele>7.550602</ele>
<time>2011-04-30T06:06:30Z</time>
<desc>lat.=20.956753, lon.=107.058044, Alt.=7.550602m. Speed=4.392000m/h.</desc>
<speed>1.220000</speed>
</trkpt>
<trkpt lat="20.956741" lon="107.058052">
<ele>8.718391</ele>
<time>2011-04-30T06:06:35Z</time>
<desc>lat.=20.956741, lon.=107.058052, Alt.=8.718391m. Speed=5.616000m/h.</desc>
<speed>1.560000</speed>
</trkpt>
<trkpt lat="20.956757" lon="107.058075">
<ele>8.413216</ele>
<time>2011-04-30T06:06:40Z</time>
<desc>lat.=20.956757, lon.=107.058075, Alt.=8.413216m. Speed=5.544000m/h.</desc>
<speed>1.540000</speed>
</trkpt>
<trkpt lat="20.956787" lon="107.058052">
<ele>7.913761</ele>
<time>2011-04-30T06:06:45Z</time>
<desc>lat.=20.956787, lon.=107.058052, Alt.=7.913761m. Speed=4.140000m/h.</desc>
<speed>1.150000</speed>
</trkpt>
<trkpt lat="20.956736" lon="107.058075">
<ele>7.209538</ele>
<time>2011-04-30T06:06:50Z</time>
<desc>lat.=20.956736, lon.=107.058075, Alt.=7.209538m. Speed=6.984000m/h.</desc>
<speed>1.940000</speed>
</trkpt>
<trkpt lat="20.956671" lon="107.058098">
<ele>6.507999</ele>
<time>2011-04-30T06:06:55Z</time>
<desc>lat.=20.956671, lon.=107.058098, Alt.=6.507999m. Speed=2.952000m/h.</desc>
<speed>0.820000</speed>
</trkpt>
<trkpt lat="20.956732" lon="107.058121">
<ele>6.564030</ele>
<time>2011-04-30T06:07:00Z</time>
<desc>lat.=20.956732, lon.=107.058121, Alt.=6.564030m. Speed=12.456000m/h.</desc>
<speed>3.460000</speed>
</trkpt>
<trkpt lat="20.956749" lon="107.058098">
<ele>7.099186</ele>
<time>2011-04-30T06:07:05Z</time>
<desc>lat.=20.956749, lon.=107.058098, Alt.=7.099186m. Speed=7.236000m/h.</desc>
<speed>2.010000</speed>
</trkpt>
<trkpt lat="20.956730" lon="107.058029">
<ele>7.156193</ele>
<time>2011-04-30T06:07:10Z</time>
<desc>lat.=20.956730, lon.=107.058029, Alt.=7.156193m. Speed=5.760000m/h.</desc>
<speed>1.600000</speed>
</trkpt>
<trkpt lat="20.956686" lon="107.058029">
<ele>7.478703</ele>
<time>2011-04-30T06:07:15Z</time>
<desc>lat.=20.956686, lon.=107.058029, Alt.=7.478703m. Speed=2.448000m/h.</desc>
<speed>0.680000</speed>
</trkpt>
<trkpt lat="20.956667" lon="107.057968">
<ele>6.959538</ele>
<time>2011-04-30T06:07:20Z</time>
<desc>lat.=20.956667, lon.=107.057968, Alt.=6.959538m. Speed=4.896000m/h.</desc>
<speed>1.360000</speed>
</trkpt>
<trkpt lat="20.956661" lon="107.057945">
<ele>6.730656</ele>
<time>2011-04-30T06:07:25Z</time>
<desc>lat.=20.956661, lon.=107.057945, Alt.=6.730656m. Speed=1.908000m/h.</desc>
<speed>0.530000</speed>
</trkpt>
<trkpt lat="20.956678" lon="107.057945">
<ele>2.961336</ele>
<time>2011-04-30T06:07:30Z</time>
<desc>lat.=20.956678, lon.=107.057945, Alt.=2.961336m. Speed=1.944000m/h.</desc>
<speed>0.540000</speed>
</trkpt>
<trkpt lat="20.956669" lon="107.057945">
<ele>0.668633</ele>
<time>2011-04-30T06:07:35Z</time>
<desc>lat.=20.956669, lon.=107.057945, Alt.=0.668633m. Speed=1.296000m/h.</desc>
<speed>0.360000</speed>
</trkpt>
<trkpt lat="20.956633" lon="107.057961">
<ele>1.434159</ele>
<time>2011-04-30T06:07:40Z</time>
<desc>lat.=20.956633, lon.=107.057961, Alt.=1.434159m. Speed=1.836000m/h.</desc>
<speed>0.510000</speed>
</trkpt>
<trkpt lat="20.956589" lon="107.057961">
<ele>-0.183668</ele>
<time>2011-04-30T06:07:45Z</time>
<desc>lat.=20.956589, lon.=107.057961, Alt.=-0.183668m. Speed=3.096000m/h.</desc>
<speed>0.860000</speed>
</trkpt>
<trkpt lat="20.956491" lon="107.057945">
<ele>-5.001530</ele>
<time>2011-04-30T06:07:50Z</time>
<desc>lat.=20.956491, lon.=107.057945, Alt.=-5.001530m. Speed=0.900000m/h.</desc>
<speed>0.250000</speed>
</trkpt>
<trkpt lat="20.956491" lon="107.057930">
<ele>-8.489876</ele>
<time>2011-04-30T06:07:55Z</time>
<desc>lat.=20.956491, lon.=107.057930, Alt.=-8.489876m. Speed=2.448000m/h.</desc>
<speed>0.680000</speed>
</trkpt>
<trkpt lat="20.956430" lon="107.057945">
<ele>-11.977180</ele>
<time>2011-04-30T06:08:00Z</time>
<desc>lat.=20.956430, lon.=107.057945, Alt.=-11.977180m. Speed=3.168000m/h.</desc>
<speed>0.880000</speed>
</trkpt>
<trkpt lat="20.956408" lon="107.057983">
<ele>-13.273079</ele>
<time>2011-04-30T06:08:05Z</time>
<desc>lat.=20.956408, lon.=107.057983, Alt.=-13.273079m. Speed=2.736000m/h.</desc>
<speed>0.760000</speed>
</trkpt>
<trkpt lat="20.956404" lon="107.057976">
<ele>-13.609261</ele>
<time>2011-04-30T06:08:10Z</time>
<desc>lat.=20.956404, lon.=107.057976, Alt.=-13.609261m. Speed=0.864000m/h.</desc>
<speed>0.240000</speed>
</trkpt>
<trkpt lat="20.956400" lon="107.057961">
<ele>-13.598030</ele>
<time>2011-04-30T06:08:15Z</time>
<desc>lat.=20.956400, lon.=107.057961, Alt.=-13.598030m. Speed=1.440000m/h.</desc>
<speed>0.400000</speed>
</trkpt>
<trkpt lat="20.956379" lon="107.057961">
<ele>-13.900032</ele>
<time>2011-04-30T06:08:20Z</time>
<desc>lat.=20.956379, lon.=107.057961, Alt.=-13.900032m. Speed=1.512000m/h.</desc>
<speed>0.420000</speed>
</trkpt>
<trkpt lat="20.956345" lon="107.057968">
<ele>-12.927376</ele>
<time>2011-04-30T06:08:25Z</time>
<desc>lat.=20.956345, lon.=107.057968, Alt.=-12.927376m. Speed=2.628000m/h.</desc>
<speed>0.730000</speed>
</trkpt>
<trkpt lat="20.956352" lon="107.057945">
<ele>-13.163460</ele>
<time>2011-04-30T06:08:30Z</time>
<desc>lat.=20.956352, lon.=107.057945, Alt.=-13.163460m. Speed=1.260000m/h.</desc>
<speed>0.350000</speed>
</trkpt>
<trkpt lat="20.956347" lon="107.057892">
<ele>-13.989876</ele>
<time>2011-04-30T06:08:35Z</time>
<desc>lat.=20.956347, lon.=107.057892, Alt.=-13.989876m. Speed=4.068000m/h.</desc>
<speed>1.130000</speed>
</trkpt>
<trkpt lat="20.956291" lon="107.057846">
<ele>-13.893196</ele>
<time>2011-04-30T06:08:40Z</time>
<desc>lat.=20.956291, lon.=107.057846, Alt.=-13.893196m. Speed=5.184000m/h.</desc>
<speed>1.440000</speed>
</trkpt>
<trkpt lat="20.956205" lon="107.057800">
<ele>-13.858528</ele>
<time>2011-04-30T06:08:45Z</time>
<desc>lat.=20.956205, lon.=107.057800, Alt.=-13.858528m. Speed=7.668000m/h.</desc>
<speed>2.130000</speed>
</trkpt>
<trkpt lat="20.956125" lon="107.057701">
<ele>-14.183968</ele>
<time>2011-04-30T06:08:50Z</time>
<desc>lat.=20.956125, lon.=107.057701, Alt.=-14.183968m. Speed=6.300000m/h.</desc>
<speed>1.750000</speed>
</trkpt>
<trkpt lat="20.956106" lon="107.057709">
<ele>-13.395638</ele>
<time>2011-04-30T06:08:55Z</time>
<desc>lat.=20.956106, lon.=107.057709, Alt.=-13.395638m. Speed=5.040000m/h.</desc>
<speed>1.400000</speed>
</trkpt>
<trkpt lat="20.956036" lon="107.057610">
<ele>-12.748421</ele>
<time>2011-04-30T06:09:00Z</time>
<desc>lat.=20.956036, lon.=107.057610, Alt.=-12.748421m. Speed=7.740000m/h.</desc>
<speed>2.150000</speed>
</trkpt>
<trkpt lat="20.955957" lon="107.057480">
<ele>-7.564152</ele>
<time>2011-04-30T06:09:05Z</time>
<desc>lat.=20.955957, lon.=107.057480, Alt.=-7.564152m. Speed=6.048000m/h.</desc>
<speed>1.680000</speed>
</trkpt>
<trkpt lat="20.955898" lon="107.057343">
<ele>-5.341251</ele>
<time>2011-04-30T06:09:10Z</time>
<desc>lat.=20.955898, lon.=107.057343, Alt.=-5.341251m. Speed=7.560000m/h.</desc>
<speed>2.100000</speed>
</trkpt>
<trkpt lat="20.955839" lon="107.057236">
<ele>-4.252384</ele>
<time>2011-04-30T06:09:15Z</time>
<desc>lat.=20.955839, lon.=107.057236, Alt.=-4.252384m. Speed=7.020000m/h.</desc>
<speed>1.950000</speed>
</trkpt>
<trkpt lat="20.955778" lon="107.057159">
<ele>-2.839510</ele>
<time>2011-04-30T06:09:20Z</time>
<desc>lat.=20.955778, lon.=107.057159, Alt.=-2.839510m. Speed=7.524000m/h.</desc>
<speed>2.090000</speed>
</trkpt>
<trkpt lat="20.955719" lon="107.057098">
<ele>-1.855851</ele>
<time>2011-04-30T06:09:25Z</time>
<desc>lat.=20.955719, lon.=107.057098, Alt.=-1.855851m. Speed=6.876000m/h.</desc>
<speed>1.910000</speed>
</trkpt>
<trkpt lat="20.955650" lon="107.057045">
<ele>-1.656175</ele>
<time>2011-04-30T06:09:30Z</time>
<desc>lat.=20.955650, lon.=107.057045, Alt.=-1.656175m. Speed=7.884000m/h.</desc>
<speed>2.190000</speed>
</trkpt>
<trkpt lat="20.955584" lon="107.056984">
<ele>-2.392733</ele>
<time>2011-04-30T06:09:35Z</time>
<desc>lat.=20.955584, lon.=107.056984, Alt.=-2.392733m. Speed=7.668000m/h.</desc>
<speed>2.130000</speed>
</trkpt>
<trkpt lat="20.955509" lon="107.056915">
<ele>-3.217806</ele>
<time>2011-04-30T06:09:40Z</time>
<desc>lat.=20.955509, lon.=107.056915, Alt.=-3.217806m. Speed=7.992000m/h.</desc>
<speed>2.220000</speed>
</trkpt>
<trkpt lat="20.955425" lon="107.056870">
<ele>-3.417513</ele>
<time>2011-04-30T06:09:45Z</time>
<desc>lat.=20.955425, lon.=107.056870, Alt.=-3.417513m. Speed=8.100000m/h.</desc>
<speed>2.250000</speed>
</trkpt>
<trkpt lat="20.955336" lon="107.056816">
<ele>-3.183138</ele>
<time>2011-04-30T06:09:50Z</time>
<desc>lat.=20.955336, lon.=107.056816, Alt.=-3.183138m. Speed=8.388000m/h.</desc>
<speed>2.330000</speed>
</trkpt>
<trkpt lat="20.955244" lon="107.056770">
<ele>-3.044344</ele>
<time>2011-04-30T06:09:55Z</time>
<desc>lat.=20.955244, lon.=107.056770, Alt.=-3.044344m. Speed=8.316000m/h.</desc>
<speed>2.310000</speed>
</trkpt>
<trkpt lat="20.955154" lon="107.056732">
<ele>-3.077364</ele>
<time>2011-04-30T06:10:00Z</time>
<desc>lat.=20.955154, lon.=107.056732, Alt.=-3.077364m. Speed=8.172000m/h.</desc>
<speed>2.270000</speed>
</trkpt>
<trkpt lat="20.955055" lon="107.056709">
<ele>-3.152376</ele>
<time>2011-04-30T06:10:05Z</time>
<desc>lat.=20.955055, lon.=107.056709, Alt.=-3.152376m. Speed=8.244000m/h.</desc>
<speed>2.290000</speed>
</trkpt>
<trkpt lat="20.954964" lon="107.056664">
<ele>-3.359957</ele>
<time>2011-04-30T06:10:10Z</time>
<desc>lat.=20.954964, lon.=107.056664, Alt.=-3.359957m. Speed=8.280000m/h.</desc>
<speed>2.300000</speed>
</trkpt>
<trkpt lat="20.954872" lon="107.056602">
<ele>-3.388216</ele>
<time>2011-04-30T06:10:15Z</time>
<desc>lat.=20.954872, lon.=107.056602, Alt.=-3.388216m. Speed=8.208000m/h.</desc>
<speed>2.280000</speed>
</trkpt>
<trkpt lat="20.954784" lon="107.056534">
<ele>-3.662630</ele>
<time>2011-04-30T06:10:20Z</time>
<desc>lat.=20.954784, lon.=107.056534, Alt.=-3.662630m. Speed=7.812000m/h.</desc>
<speed>2.170000</speed>
</trkpt>
<trkpt lat="20.954699" lon="107.056458">
<ele>-4.158024</ele>
<time>2011-04-30T06:10:25Z</time>
<desc>lat.=20.954699, lon.=107.056458, Alt.=-4.158024m. Speed=8.244000m/h.</desc>
<speed>2.290000</speed>
</trkpt>
<trkpt lat="20.954624" lon="107.056412">
<ele>-4.182926</ele>
<time>2011-04-30T06:10:30Z</time>
<desc>lat.=20.954624, lon.=107.056412, Alt.=-4.182926m. Speed=7.920000m/h.</desc>
<speed>2.200000</speed>
</trkpt>
<trkpt lat="20.954546" lon="107.056343">
<ele>-4.464909</ele>
<time>2011-04-30T06:10:35Z</time>
<desc>lat.=20.954546, lon.=107.056343, Alt.=-4.464909m. Speed=8.028000m/h.</desc>
<speed>2.230000</speed>
</trkpt>
<trkpt lat="20.954458" lon="107.056267">
<ele>-6.782047</ele>
<time>2011-04-30T06:10:40Z</time>
<desc>lat.=20.954458, lon.=107.056267, Alt.=-6.782047m. Speed=7.992000m/h.</desc>
<speed>2.220000</speed>
</trkpt>
<trkpt lat="20.954376" lon="107.056183">
<ele>-7.339787</ele>
<time>2011-04-30T06:10:45Z</time>
<desc>lat.=20.954376, lon.=107.056183, Alt.=-7.339787m. Speed=8.316000m/h.</desc>
<speed>2.310000</speed>
</trkpt>
<trkpt lat="20.954294" lon="107.056107">
<ele>-9.253059</ele>
<time>2011-04-30T06:10:50Z</time>
<desc>lat.=20.954294, lon.=107.056107, Alt.=-9.253059m. Speed=8.280000m/h.</desc>
<speed>2.300000</speed>
</trkpt>
<trkpt lat="20.954210" lon="107.056030">
<ele>-10.453987</ele>
<time>2011-04-30T06:10:55Z</time>
<desc>lat.=20.954210, lon.=107.056030, Alt.=-10.453987m. Speed=8.316000m/h.</desc>
<speed>2.310000</speed>
</trkpt>
<trkpt lat="20.954138" lon="107.055992">
<ele>-10.555061</ele>
<time>2011-04-30T06:11:00Z</time>
<desc>lat.=20.954138, lon.=107.055992, Alt.=-10.555061m. Speed=7.884000m/h.</desc>
<speed>2.190000</speed>
</trkpt>
<trkpt lat="20.954062" lon="107.055916">
<ele>-10.841682</ele>
<time>2011-04-30T06:11:05Z</time>
<desc>lat.=20.954062, lon.=107.055916, Alt.=-10.841682m. Speed=8.100000m/h.</desc>
<speed>2.250000</speed>
</trkpt>
<trkpt lat="20.953995" lon="107.055824">
<ele>-9.076302</ele>
<time>2011-04-30T06:11:10Z</time>
<desc>lat.=20.953995, lon.=107.055824, Alt.=-9.076302m. Speed=7.812000m/h.</desc>
<speed>2.170000</speed>
</trkpt>
<trkpt lat="20.953924" lon="107.055733">
<ele>-6.972599</ele>
<time>2011-04-30T06:11:15Z</time>
<desc>lat.=20.953924, lon.=107.055733, Alt.=-6.972599m. Speed=7.992000m/h.</desc>
<speed>2.220000</speed>
</trkpt>
<trkpt lat="20.953850" lon="107.055664">
<ele>-6.656681</ele>
<time>2011-04-30T06:11:20Z</time>
<desc>lat.=20.953850, lon.=107.055664, Alt.=-6.656681m. Speed=7.992000m/h.</desc>
<speed>2.220000</speed>
</trkpt>
<trkpt lat="20.953779" lon="107.055573">
<ele>-5.086735</ele>
<time>2011-04-30T06:11:25Z</time>
<desc>lat.=20.953779, lon.=107.055573, Alt.=-5.086735m. Speed=7.884000m/h.</desc>
<speed>2.190000</speed>
</trkpt>
<trkpt lat="20.953711" lon="107.055496">
<ele>-3.826876</ele>
<time>2011-04-30T06:11:30Z</time>
<desc>lat.=20.953711, lon.=107.055496, Alt.=-3.826876m. Speed=8.100000m/h.</desc>
<speed>2.250000</speed>
</trkpt>
<trkpt lat="20.953634" lon="107.055428">
<ele>-3.643526</ele>
<time>2011-04-30T06:11:35Z</time>
<desc>lat.=20.953634, lon.=107.055428, Alt.=-3.643526m. Speed=7.776000m/h.</desc>
<speed>2.160000</speed>
</trkpt>
<trkpt lat="20.953556" lon="107.055374">
<ele>-3.359529</ele>
<time>2011-04-30T06:11:40Z</time>
<desc>lat.=20.953556, lon.=107.055374, Alt.=-3.359529m. Speed=8.028000m/h.</desc>
<speed>2.230000</speed>
</trkpt>
<trkpt lat="20.953474" lon="107.055321">
<ele>-3.530733</ele>
<time>2011-04-30T06:11:45Z</time>
<desc>lat.=20.953474, lon.=107.055321, Alt.=-3.530733m. Speed=7.956000m/h.</desc>
<speed>2.210000</speed>
</trkpt>
<trkpt lat="20.953390" lon="107.055260">
<ele>-3.215914</ele>
<time>2011-04-30T06:11:50Z</time>
<desc>lat.=20.953390, lon.=107.055260, Alt.=-3.215914m. Speed=7.992000m/h.</desc>
<speed>2.220000</speed>
</trkpt>
<trkpt lat="20.953310" lon="107.055199">
<ele>-3.820955</ele>
<time>2011-04-30T06:11:55Z</time>
<desc>lat.=20.953310, lon.=107.055199, Alt.=-3.820955m. Speed=8.064000m/h.</desc>
<speed>2.240000</speed>
</trkpt>
<trkpt lat="20.953226" lon="107.055130">
<ele>-4.054264</ele>
<time>2011-04-30T06:12:00Z</time>
<desc>lat.=20.953226, lon.=107.055130, Alt.=-4.054264m. Speed=8.136000m/h.</desc>
<speed>2.260000</speed>
</trkpt>
<trkpt lat="20.953148" lon="107.055069">
<ele>-4.888859</ele>
<time>2011-04-30T06:12:05Z</time>
<desc>lat.=20.953148, lon.=107.055069, Alt.=-4.888859m. Speed=8.100000m/h.</desc>
<speed>2.250000</speed>
</trkpt>
<trkpt lat="20.953066" lon="107.055000">
<ele>-5.419376</ele>
<time>2011-04-30T06:12:10Z</time>
<desc>lat.=20.953066, lon.=107.055000, Alt.=-5.419376m. Speed=8.100000m/h.</desc>
<speed>2.250000</speed>
</trkpt>
<trkpt lat="20.952986" lon="107.054932">
<ele>-6.671696</ele>
<time>2011-04-30T06:12:15Z</time>
<desc>lat.=20.952986, lon.=107.054932, Alt.=-6.671696m. Speed=8.064000m/h.</desc>
<speed>2.240000</speed>
</trkpt>
<trkpt lat="20.952902" lon="107.054863">
<ele>-7.299381</ele>
<time>2011-04-30T06:12:20Z</time>
<desc>lat.=20.952902, lon.=107.054863, Alt.=-7.299381m. Speed=8.100000m/h.</desc>
<speed>2.250000</speed>
</trkpt>
<trkpt lat="20.952824" lon="107.054787">
<ele>-7.799503</ele>
<time>2011-04-30T06:12:25Z</time>
<desc>lat.=20.952824, lon.=107.054787, Alt.=-7.799503m. Speed=8.460000m/h.</desc>
<speed>2.350000</speed>
</trkpt>
<trkpt lat="20.952744" lon="107.054710">
<ele>-9.158577</ele>
<time>2011-04-30T06:12:30Z</time>
<desc>lat.=20.952744, lon.=107.054710, Alt.=-9.158577m. Speed=8.064000m/h.</desc>
<speed>2.240000</speed>
</trkpt>
<trkpt lat="20.952669" lon="107.054642">
<ele>-8.778206</ele>
<time>2011-04-30T06:12:35Z</time>
<desc>lat.=20.952669, lon.=107.054642, Alt.=-8.778206m. Speed=7.884000m/h.</desc>
<speed>2.190000</speed>
</trkpt>
<trkpt lat="20.952597" lon="107.054581">
<ele>-6.745914</ele>
<time>2011-04-30T06:12:40Z</time>
<desc>lat.=20.952597, lon.=107.054581, Alt.=-6.745914m. Speed=7.920000m/h.</desc>
<speed>2.200000</speed>
</trkpt>
<trkpt lat="20.952520" lon="107.054520">
<ele>-6.056828</ele>
<time>2011-04-30T06:12:45Z</time>
<desc>lat.=20.952520, lon.=107.054520, Alt.=-6.056828m. Speed=7.632000m/h.</desc>
<speed>2.120000</speed>
</trkpt>
<trkpt lat="20.952446" lon="107.054443">
<ele>-4.306583</ele>
<time>2011-04-30T06:12:50Z</time>
<desc>lat.=20.952446, lon.=107.054443, Alt.=-4.306583m. Speed=7.596000m/h.</desc>
<speed>2.110000</speed>
</trkpt>
<trkpt lat="20.952372" lon="107.054359">
<ele>-4.059269</ele>
<time>2011-04-30T06:12:55Z</time>
<desc>lat.=20.952372, lon.=107.054359, Alt.=-4.059269m. Speed=8.856000m/h.</desc>
<speed>2.460000</speed>
</trkpt>
<trkpt lat="20.952297" lon="107.054291">
<ele>-4.533512</ele>
<time>2011-04-30T06:13:00Z</time>
<desc>lat.=20.952297, lon.=107.054291, Alt.=-4.533512m. Speed=7.956000m/h.</desc>
<speed>2.210000</speed>
</trkpt>
<trkpt lat="20.952225" lon="107.054214">
<ele>-4.966984</ele>
<time>2011-04-30T06:13:05Z</time>
<desc>lat.=20.952225, lon.=107.054214, Alt.=-4.966984m. Speed=7.776000m/h.</desc>
<speed>2.160000</speed>
</trkpt>
<trkpt lat="20.952145" lon="107.054146">
<ele>-6.099918</ele>
<time>2011-04-30T06:13:10Z</time>
<desc>lat.=20.952145, lon.=107.054146, Alt.=-6.099918m. Speed=7.884000m/h.</desc>
<speed>2.190000</speed>
</trkpt>
<trkpt lat="20.952066" lon="107.054070">
<ele>-6.331120</ele>
<time>2011-04-30T06:13:15Z</time>
<desc>lat.=20.952066, lon.=107.054070, Alt.=-6.331120m. Speed=7.848000m/h.</desc>
<speed>2.180000</speed>
</trkpt>
<trkpt lat="20.951982" lon="107.054031">
<ele>-5.601994</ele>
<time>2011-04-30T06:13:20Z</time>
<desc>lat.=20.951982, lon.=107.054031, Alt.=-5.601994m. Speed=7.956000m/h.</desc>
<speed>2.210000</speed>
</trkpt>
<trkpt lat="20.951899" lon="107.053978">
<ele>-5.453312</ele>
<time>2011-04-30T06:13:25Z</time>
<desc>lat.=20.951899, lon.=107.053978, Alt.=-5.453312m. Speed=7.956000m/h.</desc>
<speed>2.210000</speed>
</trkpt>
<trkpt lat="20.951809" lon="107.053932">
<ele>-5.501530</ele>
<time>2011-04-30T06:13:30Z</time>
<desc>lat.=20.951809, lon.=107.053932, Alt.=-5.501530m. Speed=7.776000m/h.</desc>
<speed>2.160000</speed>
</trkpt>
<trkpt lat="20.951719" lon="107.053871">
<ele>-6.070011</ele>
<time>2011-04-30T06:13:35Z</time>
<desc>lat.=20.951719, lon.=107.053871, Alt.=-6.070011m. Speed=8.136000m/h.</desc>
<speed>2.260000</speed>
</trkpt>
<trkpt lat="20.951633" lon="107.053802">
<ele>-7.678654</ele>
<time>2011-04-30T06:13:40Z</time>
<desc>lat.=20.951633, lon.=107.053802, Alt.=-7.678654m. Speed=7.452000m/h.</desc>
<speed>2.070000</speed>
</trkpt>
<trkpt lat="20.951559" lon="107.053741">
<ele>-7.512638</ele>
<time>2011-04-30T06:13:45Z</time>
<desc>lat.=20.951559, lon.=107.053741, Alt.=-7.512638m. Speed=7.596000m/h.</desc>
<speed>2.110000</speed>
</trkpt>
<trkpt lat="20.951479" lon="107.053680">
<ele>-7.369205</ele>
<time>2011-04-30T06:13:50Z</time>
<desc>lat.=20.951479, lon.=107.053680, Alt.=-7.369205m. Speed=8.244000m/h.</desc>
<speed>2.290000</speed>
</trkpt>
<trkpt lat="20.951405" lon="107.053612">
<ele>-7.252628</ele>
<time>2011-04-30T06:13:55Z</time>
<desc>lat.=20.951405, lon.=107.053612, Alt.=-7.252628m. Speed=7.776000m/h.</desc>
<speed>2.160000</speed>
</trkpt>
<trkpt lat="20.951336" lon="107.053566">
<ele>-6.102848</ele>
<time>2011-04-30T06:14:00Z</time>
<desc>lat.=20.951336, lon.=107.053566, Alt.=-6.102848m. Speed=7.920000m/h.</desc>
<speed>2.200000</speed>
</trkpt>
<trkpt lat="20.951254" lon="107.053497">
<ele>-5.170597</ele>
<time>2011-04-30T06:14:05Z</time>
<desc>lat.=20.951254, lon.=107.053497, Alt.=-5.170597m. Speed=7.668000m/h.</desc>
<speed>2.130000</speed>
</trkpt>
<trkpt lat="20.951172" lon="107.053413">
<ele>-4.560978</ele>
<time>2011-04-30T06:14:10Z</time>
<desc>lat.=20.951172, lon.=107.053413, Alt.=-4.560978m. Speed=8.136000m/h.</desc>
<speed>2.260000</speed>
</trkpt>
<trkpt lat="20.951094" lon="107.053337">
<ele>-5.323307</ele>
<time>2011-04-30T06:14:15Z</time>
<desc>lat.=20.951094, lon.=107.053337, Alt.=-5.323307m. Speed=7.740000m/h.</desc>
<speed>2.150000</speed>
</trkpt>
<trkpt lat="20.951012" lon="107.053253">
<ele>-6.137028</ele>
<time>2011-04-30T06:14:20Z</time>
<desc>lat.=20.951012, lon.=107.053253, Alt.=-6.137028m. Speed=8.100000m/h.</desc>
<speed>2.250000</speed>
</trkpt>
<trkpt lat="20.950933" lon="107.053192">
<ele>-5.916447</ele>
<time>2011-04-30T06:14:25Z</time>
<desc>lat.=20.950933, lon.=107.053192, Alt.=-5.916447m. Speed=7.812000m/h.</desc>
<speed>2.170000</speed>
</trkpt>
<trkpt lat="20.950861" lon="107.053131">
<ele>-5.535343</ele>
<time>2011-04-30T06:14:30Z</time>
<desc>lat.=20.950861, lon.=107.053131, Alt.=-5.535343m. Speed=7.704000m/h.</desc>
<speed>2.140000</speed>
</trkpt>
<trkpt lat="20.950781" lon="107.053062">
<ele>-5.950016</ele>
<time>2011-04-30T06:14:35Z</time>
<desc>lat.=20.950781, lon.=107.053062, Alt.=-5.950016m. Speed=7.884000m/h.</desc>
<speed>2.190000</speed>
</trkpt>
<trkpt lat="20.950703" lon="107.052994">
<ele>-5.677921</ele>
<time>2011-04-30T06:14:40Z</time>
<desc>lat.=20.950703, lon.=107.052994, Alt.=-5.677921m. Speed=8.064000m/h.</desc>
<speed>2.240000</speed>
</trkpt>
<trkpt lat="20.950621" lon="107.052917">
<ele>-5.600895</ele>
<time>2011-04-30T06:14:45Z</time>
<desc>lat.=20.950621, lon.=107.052917, Alt.=-5.600895m. Speed=8.208000m/h.</desc>
<speed>2.280000</speed>
</trkpt>
<trkpt lat="20.950539" lon="107.052849">
<ele>-6.117374</ele>
<time>2011-04-30T06:14:50Z</time>
<desc>lat.=20.950539, lon.=107.052849, Alt.=-6.117374m. Speed=8.316000m/h.</desc>
<speed>2.310000</speed>
</trkpt>
<trkpt lat="20.950457" lon="107.052780">
<ele>-6.382999</ele>
<time>2011-04-30T06:14:55Z</time>
<desc>lat.=20.950457, lon.=107.052780, Alt.=-6.382999m. Speed=8.424000m/h.</desc>
<speed>2.340000</speed>
</trkpt>
<trkpt lat="20.950380" lon="107.052719">
<ele>-5.510197</ele>
<time>2011-04-30T06:15:00Z</time>
<desc>lat.=20.950380, lon.=107.052719, Alt.=-5.510197m. Speed=8.316000m/h.</desc>
<speed>2.310000</speed>
</trkpt>
<trkpt lat="20.950302" lon="107.052650">
<ele>-5.378239</ele>
<time>2011-04-30T06:15:05Z</time>
<desc>lat.=20.950302, lon.=107.052650, Alt.=-5.378239m. Speed=8.460000m/h.</desc>
<speed>2.350000</speed>
</trkpt>
<trkpt lat="20.950218" lon="107.052574">
<ele>-5.465885</ele>
<time>2011-04-30T06:15:10Z</time>
<desc>lat.=20.950218, lon.=107.052574, Alt.=-5.465885m. Speed=8.460000m/h.</desc>
<speed>2.350000</speed>
</trkpt>
<trkpt lat="20.950138" lon="107.052513">
<ele>-5.169621</ele>
<time>2011-04-30T06:15:15Z</time>
<desc>lat.=20.950138, lon.=107.052513, Alt.=-5.169621m. Speed=8.532000m/h.</desc>
<speed>2.370000</speed>
</trkpt>
<trkpt lat="20.950054" lon="107.052437">
<ele>-5.320011</ele>
<time>2011-04-30T06:15:20Z</time>
<desc>lat.=20.950054, lon.=107.052437, Alt.=-5.320011m. Speed=8.712000m/h.</desc>
<speed>2.420000</speed>
</trkpt>
<trkpt lat="20.949970" lon="107.052361">
<ele>-5.199894</ele>
<time>2011-04-30T06:15:25Z</time>
<desc>lat.=20.949970, lon.=107.052361, Alt.=-5.199894m. Speed=8.388000m/h.</desc>
<speed>2.330000</speed>
</trkpt>
<trkpt lat="20.949888" lon="107.052299">
<ele>-4.751774</ele>
<time>2011-04-30T06:15:30Z</time>
<desc>lat.=20.949888, lon.=107.052299, Alt.=-4.751774m. Speed=8.532000m/h.</desc>
<speed>2.370000</speed>
</trkpt>
<trkpt lat="20.949806" lon="107.052238">
<ele>-4.948429</ele>
<time>2011-04-30T06:15:35Z</time>
<desc>lat.=20.949806, lon.=107.052238, Alt.=-4.948429m. Speed=8.568000m/h.</desc>
<speed>2.380000</speed>
</trkpt>
<trkpt lat="20.949726" lon="107.052162">
<ele>-5.585026</ele>
<time>2011-04-30T06:15:40Z</time>
<desc>lat.=20.949726, lon.=107.052162, Alt.=-5.585026m. Speed=8.532000m/h.</desc>
<speed>2.370000</speed>
</trkpt>
<trkpt lat="20.949631" lon="107.052101">
<ele>-4.194157</ele>
<time>2011-04-30T06:15:45Z</time>
<desc>lat.=20.949631, lon.=107.052101, Alt.=-4.194157m. Speed=8.532000m/h.</desc>
<speed>2.370000</speed>
</trkpt>
<trkpt lat="20.949547" lon="107.052040">
<ele>-3.887117</ele>
<time>2011-04-30T06:15:50Z</time>
<desc>lat.=20.949547, lon.=107.052040, Alt.=-3.887117m. Speed=8.388000m/h.</desc>
<speed>2.330000</speed>
</trkpt>
<trkpt lat="20.949467" lon="107.051979">
<ele>-3.408968</ele>
<time>2011-04-30T06:15:55Z</time>
<desc>lat.=20.949467, lon.=107.051979, Alt.=-3.408968m. Speed=8.280000m/h.</desc>
<speed>2.300000</speed>
</trkpt>
<trkpt lat="20.949377" lon="107.051903">
<ele>-3.654451</ele>
<time>2011-04-30T06:16:00Z</time>
<desc>lat.=20.949377, lon.=107.051903, Alt.=-3.654451m. Speed=8.172000m/h.</desc>
<speed>2.270000</speed>
</trkpt>
<trkpt lat="20.949295" lon="107.051834">
<ele>-3.015718</ele>
<time>2011-04-30T06:16:05Z</time>
<desc>lat.=20.949295, lon.=107.051834, Alt.=-3.015718m. Speed=8.244000m/h.</desc>
<speed>2.290000</speed>
</trkpt>
<trkpt lat="20.949217" lon="107.051765">
<ele>-2.706270</ele>
<time>2011-04-30T06:16:10Z</time>
<desc>lat.=20.949217, lon.=107.051765, Alt.=-2.706270m. Speed=8.028000m/h.</desc>
<speed>2.230000</speed>
</trkpt>
<trkpt lat="20.949141" lon="107.051689">
<ele>-2.823214</ele>
<time>2011-04-30T06:16:15Z</time>
<desc>lat.=20.949141, lon.=107.051689, Alt.=-2.823214m. Speed=8.280000m/h.</desc>
<speed>2.300000</speed>
</trkpt>
<trkpt lat="20.949059" lon="107.051620">
<ele>-2.619722</ele>
<time>2011-04-30T06:16:20Z</time>
<desc>lat.=20.949059, lon.=107.051620, Alt.=-2.619722m. Speed=7.668000m/h.</desc>
<speed>2.130000</speed>
</trkpt>
<trkpt lat="20.948977" lon="107.051552">
<ele>-3.253633</ele>
<time>2011-04-30T06:16:25Z</time>
<desc>lat.=20.948977, lon.=107.051552, Alt.=-3.253633m. Speed=8.136000m/h.</desc>
<speed>2.260000</speed>
</trkpt>
<trkpt lat="20.948891" lon="107.051483">
<ele>-3.556124</ele>
<time>2011-04-30T06:16:30Z</time>
<desc>lat.=20.948891, lon.=107.051483, Alt.=-3.556124m. Speed=7.992000m/h.</desc>
<speed>2.220000</speed>
</trkpt>
<trkpt lat="20.948814" lon="107.051430">
<ele>-3.612154</ele>
<time>2011-04-30T06:16:35Z</time>
<desc>lat.=20.948814, lon.=107.051430, Alt.=-3.612154m. Speed=7.956000m/h.</desc>
<speed>2.210000</speed>
</trkpt>
<trkpt lat="20.948729" lon="107.051353">
<ele>-4.730412</ele>
<time>2011-04-30T06:16:40Z</time>
<desc>lat.=20.948729, lon.=107.051353, Alt.=-4.730412m. Speed=8.676000m/h.</desc>
<speed>2.410000</speed>
</trkpt>
<trkpt lat="20.948647" lon="107.051300">
<ele>-4.065372</ele>
<time>2011-04-30T06:16:45Z</time>
<desc>lat.=20.948647, lon.=107.051300, Alt.=-4.065372m. Speed=8.352000m/h.</desc>
<speed>2.320000</speed>
</trkpt>
<trkpt lat="20.948563" lon="107.051231">
<ele>-3.949984</ele>
<time>2011-04-30T06:16:50Z</time>
<desc>lat.=20.948563, lon.=107.051231, Alt.=-3.949984m. Speed=8.352000m/h.</desc>
<speed>2.320000</speed>
</trkpt>
<trkpt lat="20.948471" lon="107.051140">
<ele>-5.411442</ele>
<time>2011-04-30T06:16:55Z</time>
<desc>lat.=20.948471, lon.=107.051140, Alt.=-5.411442m. Speed=8.244000m/h.</desc>
<speed>2.290000</speed>
</trkpt>
<trkpt lat="20.948391" lon="107.051056">
<ele>-6.696720</ele>
<time>2011-04-30T06:17:00Z</time>
<desc>lat.=20.948391, lon.=107.051056, Alt.=-6.696720m. Speed=8.172000m/h.</desc>
<speed>2.270000</speed>
</trkpt>
<trkpt lat="20.948315" lon="107.050980">
<ele>-6.843082</ele>
<time>2011-04-30T06:17:05Z</time>
<desc>lat.=20.948315, lon.=107.050980, Alt.=-6.843082m. Speed=8.208000m/h.</desc>
<speed>2.280000</speed>
</trkpt>
<trkpt lat="20.948240" lon="107.050896">
<ele>-6.876286</ele>
<time>2011-04-30T06:17:10Z</time>
<desc>lat.=20.948240, lon.=107.050896, Alt.=-6.876286m. Speed=8.244000m/h.</desc>
<speed>2.290000</speed>
</trkpt>
<trkpt lat="20.948164" lon="107.050819">
<ele>-7.384830</ele>
<time>2011-04-30T06:17:15Z</time>
<desc>lat.=20.948164, lon.=107.050819, Alt.=-7.384830m. Speed=8.136000m/h.</desc>
<speed>2.260000</speed>
</trkpt>
<trkpt lat="20.948092" lon="107.050743">
<ele>-7.384220</ele>
<time>2011-04-30T06:17:20Z</time>
<desc>lat.=20.948092, lon.=107.050743, Alt.=-7.384220m. Speed=8.244000m/h.</desc>
<speed>2.290000</speed>
</trkpt>
<trkpt lat="20.948019" lon="107.050667">
<ele>-7.258732</ele>
<time>2011-04-30T06:17:25Z</time>
<desc>lat.=20.948019, lon.=107.050667, Alt.=-7.258732m. Speed=8.208000m/h.</desc>
<speed>2.280000</speed>
</trkpt>
<trkpt lat="20.947947" lon="107.050591">
<ele>-7.430363</ele>
<time>2011-04-30T06:17:30Z</time>
<desc>lat.=20.947947, lon.=107.050591, Alt.=-7.430363m. Speed=8.172000m/h.</desc>
<speed>2.270000</speed>
</trkpt>
<trkpt lat="20.947874" lon="107.050514">
<ele>-7.301090</ele>
<time>2011-04-30T06:17:35Z</time>
<desc>lat.=20.947874, lon.=107.050514, Alt.=-7.301090m. Speed=8.064000m/h.</desc>
<speed>2.240000</speed>
</trkpt>
<trkpt lat="20.947809" lon="107.050430">
<ele>-6.882511</ele>
<time>2011-04-30T06:17:40Z</time>
<desc>lat.=20.947809, lon.=107.050430, Alt.=-6.882511m. Speed=8.064000m/h.</desc>
<speed>2.240000</speed>
</trkpt>
<trkpt lat="20.947746" lon="107.050362">
<ele>-6.522526</ele>
<time>2011-04-30T06:17:45Z</time>
<desc>lat.=20.947746, lon.=107.050362, Alt.=-6.522526m. Speed=8.172000m/h.</desc>
<speed>2.270000</speed>
</trkpt>
<trkpt lat="20.947674" lon="107.050285">
<ele>-5.926823</ele>
<time>2011-04-30T06:17:50Z</time>
<desc>lat.=20.947674, lon.=107.050285, Alt.=-5.926823m. Speed=8.064000m/h.</desc>
<speed>2.240000</speed>
</trkpt>
<trkpt lat="20.947599" lon="107.050209">
<ele>-5.796329</ele>
<time>2011-04-30T06:17:55Z</time>
<desc>lat.=20.947599, lon.=107.050209, Alt.=-5.796329m. Speed=8.136000m/h.</desc>
<speed>2.260000</speed>
</trkpt>
<trkpt lat="20.947525" lon="107.050125">
<ele>-6.274723</ele>
<time>2011-04-30T06:18:00Z</time>
<desc>lat.=20.947525, lon.=107.050125, Alt.=-6.274723m. Speed=8.208000m/h.</desc>
<speed>2.280000</speed>
</trkpt>
<trkpt lat="20.947454" lon="107.050049">
<ele>-6.548893</ele>
<time>2011-04-30T06:18:05Z</time>
<desc>lat.=20.947454, lon.=107.050049, Alt.=-6.548893m. Speed=8.208000m/h.</desc>
<speed>2.280000</speed>
</trkpt>
<trkpt lat="20.947380" lon="107.049973">
<ele>-6.844181</ele>
<time>2011-04-30T06:18:10Z</time>
<desc>lat.=20.947380, lon.=107.049973, Alt.=-6.844181m. Speed=8.352000m/h.</desc>
<speed>2.320000</speed>
</trkpt>
<trkpt lat="20.947309" lon="107.049896">
<ele>-7.244694</ele>
<time>2011-04-30T06:18:15Z</time>
<desc>lat.=20.947309, lon.=107.049896, Alt.=-7.244694m. Speed=8.100000m/h.</desc>
<speed>2.250000</speed>
</trkpt>
<trkpt lat="20.947229" lon="107.049820">
<ele>-7.157291</ele>
<time>2011-04-30T06:18:20Z</time>
<desc>lat.=20.947229, lon.=107.049820, Alt.=-7.157291m. Speed=7.992000m/h.</desc>
<speed>2.220000</speed>
</trkpt>
<trkpt lat="20.947151" lon="107.049736">
<ele>-7.239445</ele>
<time>2011-04-30T06:18:25Z</time>
<desc>lat.=20.947151, lon.=107.049736, Alt.=-7.239445m. Speed=8.424000m/h.</desc>
<speed>2.340000</speed>
</trkpt>
<trkpt lat="20.947075" lon="107.049667">
<ele>-8.172737</ele>
<time>2011-04-30T06:18:30Z</time>
<desc>lat.=20.947075, lon.=107.049667, Alt.=-8.172737m. Speed=8.028000m/h.</desc>
<speed>2.230000</speed>
</trkpt>
<trkpt lat="20.946993" lon="107.049591">
<ele>-8.011360</ele>
<time>2011-04-30T06:18:35Z</time>
<desc>lat.=20.946993, lon.=107.049591, Alt.=-8.011360m. Speed=8.496000m/h.</desc>
<speed>2.360000</speed>
</trkpt>
<trkpt lat="20.946917" lon="107.049522">
<ele>-7.992130</ele>
<time>2011-04-30T06:18:40Z</time>
<desc>lat.=20.946917, lon.=107.049522, Alt.=-7.992130m. Speed=8.568000m/h.</desc>
<speed>2.380000</speed>
</trkpt>
<trkpt lat="20.946836" lon="107.049461">
<ele>-7.121647</ele>
<time>2011-04-30T06:18:45Z</time>
<desc>lat.=20.946836, lon.=107.049461, Alt.=-7.121647m. Speed=8.316000m/h.</desc>
<speed>2.310000</speed>
</trkpt>
<trkpt lat="20.946756" lon="107.049400">
<ele>-6.654728</ele>
<time>2011-04-30T06:18:50Z</time>
<desc>lat.=20.946756, lon.=107.049400, Alt.=-6.654728m. Speed=8.460000m/h.</desc>
<speed>2.350000</speed>
</trkpt>
<trkpt lat="20.946676" lon="107.049332">
<ele>-5.227116</ele>
<time>2011-04-30T06:18:55Z</time>
<desc>lat.=20.946676, lon.=107.049332, Alt.=-5.227116m. Speed=8.316000m/h.</desc>
<speed>2.310000</speed>
</trkpt>
<trkpt lat="20.946594" lon="107.049271">
<ele>-5.035709</ele>
<time>2011-04-30T06:19:00Z</time>
<desc>lat.=20.946594, lon.=107.049271, Alt.=-5.035709m. Speed=8.388000m/h.</desc>
<speed>2.330000</speed>
</trkpt>
<trkpt lat="20.946508" lon="107.049202">
<ele>-4.487003</ele>
<time>2011-04-30T06:19:05Z</time>
<desc>lat.=20.946508, lon.=107.049202, Alt.=-4.487003m. Speed=8.352000m/h.</desc>
<speed>2.320000</speed>
</trkpt>
<trkpt lat="20.946428" lon="107.049141">
<ele>-4.919987</ele>
<time>2011-04-30T06:19:10Z</time>
<desc>lat.=20.946428, lon.=107.049141, Alt.=-4.919987m. Speed=8.316000m/h.</desc>
<speed>2.310000</speed>
</trkpt>
<trkpt lat="20.946344" lon="107.049057">
<ele>-5.552067</ele>
<time>2011-04-30T06:19:15Z</time>
<desc>lat.=20.946344, lon.=107.049057, Alt.=-5.552067m. Speed=8.280000m/h.</desc>
<speed>2.300000</speed>
</trkpt>
<trkpt lat="20.946270" lon="107.048996">
<ele>-5.135075</ele>
<time>2011-04-30T06:19:20Z</time>
<desc>lat.=20.946270, lon.=107.048996, Alt.=-5.135075m. Speed=8.244000m/h.</desc>
<speed>2.290000</speed>
</trkpt>
<trkpt lat="20.946188" lon="107.048927">
<ele>-4.926212</ele>
<time>2011-04-30T06:19:25Z</time>
<desc>lat.=20.946188, lon.=107.048927, Alt.=-4.926212m. Speed=8.604000m/h.</desc>
<speed>2.390000</speed>
</trkpt>
<trkpt lat="20.946112" lon="107.048859">
<ele>-4.366886</ele>
<time>2011-04-30T06:19:30Z</time>
<desc>lat.=20.946112, lon.=107.048859, Alt.=-4.366886m. Speed=8.280000m/h.</desc>
<speed>2.300000</speed>
</trkpt>
<trkpt lat="20.946041" lon="107.048782">
<ele>-4.126774</ele>
<time>2011-04-30T06:19:35Z</time>
<desc>lat.=20.946041, lon.=107.048782, Alt.=-4.126774m. Speed=8.496000m/h.</desc>
<speed>2.360000</speed>
</trkpt>
<trkpt lat="20.945959" lon="107.048706">
<ele>-3.191133</ele>
<time>2011-04-30T06:19:40Z</time>
<desc>lat.=20.945959, lon.=107.048706, Alt.=-3.191133m. Speed=8.460000m/h.</desc>
<speed>2.350000</speed>
</trkpt>
<trkpt lat="20.945885" lon="107.048630">
<ele>-2.729708</ele>
<time>2011-04-30T06:19:45Z</time>
<desc>lat.=20.945885, lon.=107.048630, Alt.=-2.729708m. Speed=8.532000m/h.</desc>
<speed>2.370000</speed>
</trkpt>
<trkpt lat="20.945801" lon="107.048553">
<ele>-1.851884</ele>
<time>2011-04-30T06:19:50Z</time>
<desc>lat.=20.945801, lon.=107.048553, Alt.=-1.851884m. Speed=8.388000m/h.</desc>
<speed>2.330000</speed>
</trkpt>
<trkpt lat="20.945723" lon="107.048492">
<ele>-1.309953</ele>
<time>2011-04-30T06:19:55Z</time>
<desc>lat.=20.945723, lon.=107.048492, Alt.=-1.309953m. Speed=8.424000m/h.</desc>
<speed>2.340000</speed>
</trkpt>
<trkpt lat="20.945641" lon="107.048424">
<ele>-1.370286</ele>
<time>2011-04-30T06:20:00Z</time>
<desc>lat.=20.945641, lon.=107.048424, Alt.=-1.370286m. Speed=8.280000m/h.</desc>
<speed>2.300000</speed>
</trkpt>
<trkpt lat="20.945562" lon="107.048355">
<ele>-1.187242</ele>
<time>2011-04-30T06:20:05Z</time>
<desc>lat.=20.945562, lon.=107.048355, Alt.=-1.187242m. Speed=8.172000m/h.</desc>
<speed>2.270000</speed>
</trkpt>
<trkpt lat="20.945488" lon="107.048286">
<ele>-1.882279</ele>
<time>2011-04-30T06:20:10Z</time>
<desc>lat.=20.945488, lon.=107.048286, Alt.=-1.882279m. Speed=8.244000m/h.</desc>
<speed>2.290000</speed>
</trkpt>
<trkpt lat="20.945408" lon="107.048225">
<ele>-1.764878</ele>
<time>2011-04-30T06:20:15Z</time>
<desc>lat.=20.945408, lon.=107.048225, Alt.=-1.764878m. Speed=8.316000m/h.</desc>
<speed>2.310000</speed>
</trkpt>
<trkpt lat="20.945324" lon="107.048164">
<ele>-1.659623</ele>
<time>2011-04-30T06:20:20Z</time>
<desc>lat.=20.945324, lon.=107.048164, Alt.=-1.659623m. Speed=8.208000m/h.</desc>
<speed>2.280000</speed>
</trkpt>
<trkpt lat="20.945238" lon="107.048096">
<ele>-1.310319</ele>
<time>2011-04-30T06:20:25Z</time>
<desc>lat.=20.945238, lon.=107.048096, Alt.=-1.310319m. Speed=8.244000m/h.</desc>
<speed>2.290000</speed>
</trkpt>
<trkpt lat="20.945154" lon="107.048027">
<ele>-0.471905</ele>
<time>2011-04-30T06:20:30Z</time>
<desc>lat.=20.945154, lon.=107.048027, Alt.=-0.471905m. Speed=8.280000m/h.</desc>
<speed>2.300000</speed>
</trkpt>
<trkpt lat="20.945076" lon="107.047958">
<ele>0.168715</ele>
<time>2011-04-30T06:20:35Z</time>
<desc>lat.=20.945076, lon.=107.047958, Alt.=0.168715m. Speed=8.208000m/h.</desc>
<speed>2.280000</speed>
</trkpt>
<trkpt lat="20.944998" lon="107.047890">
<ele>-0.401951</ele>
<time>2011-04-30T06:20:40Z</time>
<desc>lat.=20.944998, lon.=107.047890, Alt.=-0.401951m. Speed=8.244000m/h.</desc>
<speed>2.290000</speed>
</trkpt>
<trkpt lat="20.944914" lon="107.047829">
<ele>-0.230112</ele>
<time>2011-04-30T06:20:45Z</time>
<desc>lat.=20.944914, lon.=107.047829, Alt.=-0.230112m. Speed=8.280000m/h.</desc>
<speed>2.300000</speed>
</trkpt>
<trkpt lat="20.944828" lon="107.047745">
<ele>-0.561242</ele>
<time>2011-04-30T06:20:50Z</time>
<desc>lat.=20.944828, lon.=107.047745, Alt.=-0.561242m. Speed=8.280000m/h.</desc>
<speed>2.300000</speed>
</trkpt>
<trkpt lat="20.944746" lon="107.047676">
<ele>-0.917946</ele>
<time>2011-04-30T06:20:55Z</time>
<desc>lat.=20.944746, lon.=107.047676, Alt.=-0.917946m. Speed=8.280000m/h.</desc>
<speed>2.300000</speed>
</trkpt>
<trkpt lat="20.944664" lon="107.047600">
<ele>-1.574967</ele>
<time>2011-04-30T06:21:00Z</time>
<desc>lat.=20.944664, lon.=107.047600, Alt.=-1.574967m. Speed=8.496000m/h.</desc>
<speed>2.360000</speed>
</trkpt>
<trkpt lat="20.944582" lon="107.047516">
<ele>-1.556901</ele>
<time>2011-04-30T06:21:05Z</time>
<desc>lat.=20.944582, lon.=107.047516, Alt.=-1.556901m. Speed=8.388000m/h.</desc>
<speed>2.330000</speed>
</trkpt>
<trkpt lat="20.944498" lon="107.047447">
<ele>-1.496903</ele>
<time>2011-04-30T06:21:10Z</time>
<desc>lat.=20.944498, lon.=107.047447, Alt.=-1.496903m. Speed=8.424000m/h.</desc>
<speed>2.340000</speed>
</trkpt>
<trkpt lat="20.944422" lon="107.047379">
<ele>-1.271928</ele>
<time>2011-04-30T06:21:15Z</time>
<desc>lat.=20.944422, lon.=107.047379, Alt.=-1.271928m. Speed=8.424000m/h.</desc>
<speed>2.340000</speed>
</trkpt>
<trkpt lat="20.944344" lon="107.047302">
<ele>-0.309437</ele>
<time>2011-04-30T06:21:20Z</time>
<desc>lat.=20.944344, lon.=107.047302, Alt.=-0.309437m. Speed=8.352000m/h.</desc>
<speed>2.320000</speed>
</trkpt>
<trkpt lat="20.944269" lon="107.047226">
<ele>0.129122</ele>
<time>2011-04-30T06:21:25Z</time>
<desc>lat.=20.944269, lon.=107.047226, Alt.=0.129122m. Speed=8.388000m/h.</desc>
<speed>2.330000</speed>
</trkpt>
<trkpt lat="20.944197" lon="107.047157">
<ele>-0.613274</ele>
<time>2011-04-30T06:21:30Z</time>
<desc>lat.=20.944197, lon.=107.047157, Alt.=-0.613274m. Speed=8.172000m/h.</desc>
<speed>2.270000</speed>
</trkpt>
<trkpt lat="20.944122" lon="107.047089">
<ele>-1.140641</ele>
<time>2011-04-30T06:21:35Z</time>
<desc>lat.=20.944122, lon.=107.047089, Alt.=-1.140641m. Speed=8.352000m/h.</desc>
<speed>2.320000</speed>
</trkpt>
<trkpt lat="20.944042" lon="107.047005">
<ele>-1.153703</ele>
<time>2011-04-30T06:21:40Z</time>
<desc>lat.=20.944042, lon.=107.047005, Alt.=-1.153703m. Speed=8.280000m/h.</desc>
<speed>2.300000</speed>
</trkpt>
<trkpt lat="20.943972" lon="107.046936">
<ele>-1.137223</ele>
<time>2011-04-30T06:21:45Z</time>
<desc>lat.=20.943972, lon.=107.046936, Alt.=-1.137223m. Speed=8.172000m/h.</desc>
<speed>2.270000</speed>
</trkpt>
<trkpt lat="20.943890" lon="107.046867">
<ele>-0.926140</ele>
<time>2011-04-30T06:21:50Z</time>
<desc>lat.=20.943890, lon.=107.046867, Alt.=-0.926140m. Speed=8.172000m/h.</desc>
<speed>2.270000</speed>
</trkpt>
<trkpt lat="20.943806" lon="107.046799">
<ele>-1.159440</ele>
<time>2011-04-30T06:21:55Z</time>
<desc>lat.=20.943806, lon.=107.046799, Alt.=-1.159440m. Speed=7.884000m/h.</desc>
<speed>2.190000</speed>
</trkpt>
<trkpt lat="20.943729" lon="107.046730">
<ele>-1.877854</ele>
<time>2011-04-30T06:22:00Z</time>
<desc>lat.=20.943729, lon.=107.046730, Alt.=-1.877854m. Speed=8.028000m/h.</desc>
<speed>2.230000</speed>
</trkpt>
<trkpt lat="20.943651" lon="107.046661">
<ele>-2.485262</ele>
<time>2011-04-30T06:22:05Z</time>
<desc>lat.=20.943651, lon.=107.046661, Alt.=-2.485262m. Speed=7.992000m/h.</desc>
<speed>2.220000</speed>
</trkpt>
<trkpt lat="20.943571" lon="107.046600">
<ele>-1.373734</ele>
<time>2011-04-30T06:22:10Z</time>
<desc>lat.=20.943571, lon.=107.046600, Alt.=-1.373734m. Speed=8.028000m/h.</desc>
<speed>2.230000</speed>
</trkpt>
<trkpt lat="20.943489" lon="107.046532">
<ele>-1.224381</ele>
<time>2011-04-30T06:22:15Z</time>
<desc>lat.=20.943489, lon.=107.046532, Alt.=-1.224381m. Speed=8.100000m/h.</desc>
<speed>2.250000</speed>
</trkpt>
<trkpt lat="20.943409" lon="107.046463">
<ele>-1.121873</ele>
<time>2011-04-30T06:22:20Z</time>
<desc>lat.=20.943409, lon.=107.046463, Alt.=-1.121873m. Speed=8.100000m/h.</desc>
<speed>2.250000</speed>
</trkpt>
<trkpt lat="20.943329" lon="107.046394">
<ele>-1.094773</ele>
<time>2011-04-30T06:22:25Z</time>
<desc>lat.=20.943329, lon.=107.046394, Alt.=-1.094773m. Speed=8.136000m/h.</desc>
<speed>2.260000</speed>
</trkpt>
<trkpt lat="20.943249" lon="107.046326">
<ele>-0.773552</ele>
<time>2011-04-30T06:22:30Z</time>
<desc>lat.=20.943249, lon.=107.046326, Alt.=-0.773552m. Speed=8.208000m/h.</desc>
<speed>2.280000</speed>
</trkpt>
<trkpt lat="20.943167" lon="107.046257">
<ele>-1.034165</ele>
<time>2011-04-30T06:22:35Z</time>
<desc>lat.=20.943167, lon.=107.046257, Alt.=-1.034165m. Speed=8.244000m/h.</desc>
<speed>2.290000</speed>
</trkpt>
<trkpt lat="20.943090" lon="107.046188">
<ele>-0.858315</ele>
<time>2011-04-30T06:22:40Z</time>
<desc>lat.=20.943090, lon.=107.046188, Alt.=-0.858315m. Speed=8.208000m/h.</desc>
<speed>2.280000</speed>
</trkpt>
<trkpt lat="20.943014" lon="107.046120">
<ele>-1.242356</ele>
<time>2011-04-30T06:22:45Z</time>
<desc>lat.=20.943014, lon.=107.046120, Alt.=-1.242356m. Speed=8.100000m/h.</desc>
<speed>2.250000</speed>
</trkpt>
<trkpt lat="20.942934" lon="107.046051">
<ele>-0.864159</ele>
<time>2011-04-30T06:22:50Z</time>
<desc>lat.=20.942934, lon.=107.046051, Alt.=-0.864159m. Speed=8.100000m/h.</desc>
<speed>2.250000</speed>
</trkpt>
<trkpt lat="20.942863" lon="107.045982">
<ele>-0.779915</ele>
<time>2011-04-30T06:22:55Z</time>
<desc>lat.=20.942863, lon.=107.045982, Alt.=-0.779915m. Speed=8.172000m/h.</desc>
<speed>2.270000</speed>
</trkpt>
<trkpt lat="20.942787" lon="107.045914">
<ele>-0.599541</ele>
<time>2011-04-30T06:23:00Z</time>
<desc>lat.=20.942787, lon.=107.045914, Alt.=-0.599541m. Speed=8.496000m/h.</desc>
<speed>2.360000</speed>
</trkpt>
<trkpt lat="20.942713" lon="107.045830">
<ele>-0.861992</ele>
<time>2011-04-30T06:23:05Z</time>
<desc>lat.=20.942713, lon.=107.045830, Alt.=-0.861992m. Speed=8.172000m/h.</desc>
<speed>2.270000</speed>
</trkpt>
<trkpt lat="20.942640" lon="107.045746">
<ele>-0.728814</ele>
<time>2011-04-30T06:23:10Z</time>
<desc>lat.=20.942640, lon.=107.045746, Alt.=-0.728814m. Speed=8.028000m/h.</desc>
<speed>2.230000</speed>
</trkpt>
<trkpt lat="20.942568" lon="107.045662">
<ele>-0.746956</ele>
<time>2011-04-30T06:23:15Z</time>
<desc>lat.=20.942568, lon.=107.045662, Alt.=-0.746956m. Speed=8.064000m/h.</desc>
<speed>2.240000</speed>
</trkpt>
<trkpt lat="20.942495" lon="107.045578">
<ele>-1.747331</ele>
<time>2011-04-30T06:23:20Z</time>
<desc>lat.=20.942495, lon.=107.045578, Alt.=-1.747331m. Speed=8.316000m/h.</desc>
<speed>2.310000</speed>
</trkpt>
<trkpt lat="20.942427" lon="107.045502">
<ele>-1.644578</ele>
<time>2011-04-30T06:23:25Z</time>
<desc>lat.=20.942427, lon.=107.045502, Alt.=-1.644578m. Speed=7.884000m/h.</desc>
<speed>2.190000</speed>
</trkpt>
<trkpt lat="20.942352" lon="107.045433">
<ele>-1.204576</ele>
<time>2011-04-30T06:23:30Z</time>
<desc>lat.=20.942352, lon.=107.045433, Alt.=-1.204576m. Speed=7.992000m/h.</desc>
<speed>2.220000</speed>
</trkpt>
<trkpt lat="20.942278" lon="107.045364">
<ele>-1.042253</ele>
<time>2011-04-30T06:23:35Z</time>
<desc>lat.=20.942278, lon.=107.045364, Alt.=-1.042253m. Speed=8.028000m/h.</desc>
<speed>2.230000</speed>
</trkpt>
<trkpt lat="20.942200" lon="107.045296">
<ele>-0.823601</ele>
<time>2011-04-30T06:23:40Z</time>
<desc>lat.=20.942200, lon.=107.045296, Alt.=-0.823601m. Speed=8.028000m/h.</desc>
<speed>2.230000</speed>
</trkpt>
<trkpt lat="20.942123" lon="107.045227">
<ele>-0.784234</ele>
<time>2011-04-30T06:23:45Z</time>
<desc>lat.=20.942123, lon.=107.045227, Alt.=-0.784234m. Speed=7.992000m/h.</desc>
<speed>2.220000</speed>
</trkpt>
<trkpt lat="20.942045" lon="107.045158">
<ele>-0.817696</ele>
<time>2011-04-30T06:23:50Z</time>
<desc>lat.=20.942045, lon.=107.045158, Alt.=-0.817696m. Speed=8.028000m/h.</desc>
<speed>2.230000</speed>
</trkpt>
<trkpt lat="20.941971" lon="107.045097">
<ele>-0.712624</ele>
<time>2011-04-30T06:23:55Z</time>
<desc>lat.=20.941971, lon.=107.045097, Alt.=-0.712624m. Speed=8.028000m/h.</desc>
<speed>2.230000</speed>
</trkpt>
<trkpt lat="20.941889" lon="107.045021">
<ele>-1.421342</ele>
<time>2011-04-30T06:24:00Z</time>
<desc>lat.=20.941889, lon.=107.045021, Alt.=-1.421342m. Speed=7.956000m/h.</desc>
<speed>2.210000</speed>
</trkpt>
<trkpt lat="20.941803" lon="107.044960">
<ele>-2.370394</ele>
<time>2011-04-30T06:24:05Z</time>
<desc>lat.=20.941803, lon.=107.044960, Alt.=-2.370394m. Speed=8.028000m/h.</desc>
<speed>2.230000</speed>
</trkpt>
<trkpt lat="20.941721" lon="107.044891">
<ele>-2.605623</ele>
<time>2011-04-30T06:24:10Z</time>
<desc>lat.=20.941721, lon.=107.044891, Alt.=-2.605623m. Speed=8.064000m/h.</desc>
<speed>2.240000</speed>
</trkpt>
<trkpt lat="20.941637" lon="107.044830">
<ele>-2.562288</ele>
<time>2011-04-30T06:24:15Z</time>
<desc>lat.=20.941637, lon.=107.044830, Alt.=-2.562288m. Speed=8.136000m/h.</desc>
<speed>2.260000</speed>
</trkpt>
<trkpt lat="20.941555" lon="107.044777">
<ele>-2.307161</ele>
<time>2011-04-30T06:24:20Z</time>
<desc>lat.=20.941555, lon.=107.044777, Alt.=-2.307161m. Speed=8.172000m/h.</desc>
<speed>2.270000</speed>
</trkpt>
<trkpt lat="20.941467" lon="107.044731">
<ele>-1.393907</ele>
<time>2011-04-30T06:24:25Z</time>
<desc>lat.=20.941467, lon.=107.044731, Alt.=-1.393907m. Speed=7.920000m/h.</desc>
<speed>2.200000</speed>
</trkpt>
<trkpt lat="20.941381" lon="107.044670">
<ele>-1.022416</ele>
<time>2011-04-30T06:24:30Z</time>
<desc>lat.=20.941381, lon.=107.044670, Alt.=-1.022416m. Speed=8.352000m/h.</desc>
<speed>2.320000</speed>
</trkpt>
<trkpt lat="20.941294" lon="107.044624">
<ele>0.121285</ele>
<time>2011-04-30T06:24:35Z</time>
<desc>lat.=20.941294, lon.=107.044624, Alt.=0.121285m. Speed=7.992000m/h.</desc>
<speed>2.220000</speed>
</trkpt>
<trkpt lat="20.941202" lon="107.044586">
<ele>2.067659</ele>
<time>2011-04-30T06:24:40Z</time>
<desc>lat.=20.941202, lon.=107.044586, Alt.=2.067659m. Speed=7.956000m/h.</desc>
<speed>2.210000</speed>
</trkpt>
<trkpt lat="20.941116" lon="107.044518">
<ele>2.169893</ele>
<time>2011-04-30T06:24:45Z</time>
<desc>lat.=20.941116, lon.=107.044518, Alt.=2.169893m. Speed=8.028000m/h.</desc>
<speed>2.230000</speed>
</trkpt>
<trkpt lat="20.941032" lon="107.044441">
<ele>0.208620</ele>
<time>2011-04-30T06:24:50Z</time>
<desc>lat.=20.941032, lon.=107.044441, Alt.=0.208620m. Speed=8.244000m/h.</desc>
<speed>2.290000</speed>
</trkpt>
<trkpt lat="20.940948" lon="107.044373">
<ele>-0.439472</ele>
<time>2011-04-30T06:24:55Z</time>
<desc>lat.=20.940948, lon.=107.044373, Alt.=-0.439472m. Speed=8.100000m/h.</desc>
<speed>2.250000</speed>
</trkpt>
<trkpt lat="20.940870" lon="107.044304">
<ele>-0.583062</ele>
<time>2011-04-30T06:25:00Z</time>
<desc>lat.=20.940870, lon.=107.044304, Alt.=-0.583062m. Speed=8.100000m/h.</desc>
<speed>2.250000</speed>
</trkpt>
<trkpt lat="20.940788" lon="107.044243">
<ele>-0.289021</ele>
<time>2011-04-30T06:25:05Z</time>
<desc>lat.=20.940788, lon.=107.044243, Alt.=-0.289021m. Speed=7.992000m/h.</desc>
<speed>2.220000</speed>
</trkpt>
<trkpt lat="20.940708" lon="107.044174">
<ele>-0.255551</ele>
<time>2011-04-30T06:25:10Z</time>
<desc>lat.=20.940708, lon.=107.044174, Alt.=-0.255551m. Speed=7.992000m/h.</desc>
<speed>2.220000</speed>
</trkpt>
<trkpt lat="20.940626" lon="107.044106">
<ele>-0.866936</ele>
<time>2011-04-30T06:25:15Z</time>
<desc>lat.=20.940626, lon.=107.044106, Alt.=-0.866936m. Speed=8.280000m/h.</desc>
<speed>2.300000</speed>
</trkpt>
<trkpt lat="20.940542" lon="107.044037">
<ele>-0.987542</ele>
<time>2011-04-30T06:25:20Z</time>
<desc>lat.=20.940542, lon.=107.044037, Alt.=-0.987542m. Speed=8.136000m/h.</desc>
<speed>2.260000</speed>
</trkpt>
<trkpt lat="20.940458" lon="107.043961">
<ele>-1.385270</ele>
<time>2011-04-30T06:25:25Z</time>
<desc>lat.=20.940458, lon.=107.043961, Alt.=-1.385270m. Speed=8.172000m/h.</desc>
<speed>2.270000</speed>
</trkpt>
<trkpt lat="20.940371" lon="107.043907">
<ele>-0.442875</ele>
<time>2011-04-30T06:25:30Z</time>
<desc>lat.=20.940371, lon.=107.043907, Alt.=-0.442875m. Speed=7.956000m/h.</desc>
<speed>2.210000</speed>
</trkpt>
<trkpt lat="20.940287" lon="107.043854">
<ele>0.045316</ele>
<time>2011-04-30T06:25:35Z</time>
<desc>lat.=20.940287, lon.=107.043854, Alt.=0.045316m. Speed=8.136000m/h.</desc>
<speed>2.260000</speed>
</trkpt>
<trkpt lat="20.940201" lon="107.043800">
<ele>1.018968</ele>
<time>2011-04-30T06:25:40Z</time>
<desc>lat.=20.940201, lon.=107.043800, Alt.=1.018968m. Speed=8.064000m/h.</desc>
<speed>2.240000</speed>
</trkpt>
<trkpt lat="20.940117" lon="107.043739">
<ele>1.570817</ele>
<time>2011-04-30T06:25:45Z</time>
<desc>lat.=20.940117, lon.=107.043739, Alt.=1.570817m. Speed=7.956000m/h.</desc>
<speed>2.210000</speed>
</trkpt>
<trkpt lat="20.940039" lon="107.043678">
<ele>1.739610</ele>
<time>2011-04-30T06:25:50Z</time>
<desc>lat.=20.940039, lon.=107.043678, Alt.=1.739610m. Speed=8.136000m/h.</desc>
<speed>2.260000</speed>
</trkpt>
<trkpt lat="20.939960" lon="107.043617">
<ele>1.847642</ele>
<time>2011-04-30T06:25:55Z</time>
<desc>lat.=20.939960, lon.=107.043617, Alt.=1.847642m. Speed=8.352000m/h.</desc>
<speed>2.320000</speed>
</trkpt>
<trkpt lat="20.939878" lon="107.043556">
<ele>2.878695</ele>
<time>2011-04-30T06:26:00Z</time>
<desc>lat.=20.939878, lon.=107.043556, Alt.=2.878695m. Speed=8.280000m/h.</desc>
<speed>2.300000</speed>
</trkpt>
<trkpt lat="20.939796" lon="107.043503">
<ele>3.199617</ele>
<time>2011-04-30T06:26:05Z</time>
<desc>lat.=20.939796, lon.=107.043503, Alt.=3.199617m. Speed=8.208000m/h.</desc>
<speed>2.280000</speed>
</trkpt>
<trkpt lat="20.939713" lon="107.043457">
<ele>4.171207</ele>
<time>2011-04-30T06:26:10Z</time>
<desc>lat.=20.939713, lon.=107.043457, Alt.=4.171207m. Speed=8.064000m/h.</desc>
<speed>2.240000</speed>
</trkpt>
<trkpt lat="20.939634" lon="107.043396">
<ele>4.441349</ele>
<time>2011-04-30T06:26:15Z</time>
<desc>lat.=20.939634, lon.=107.043396, Alt.=4.441349m. Speed=8.208000m/h.</desc>
<speed>2.280000</speed>
</trkpt>
<trkpt lat="20.939550" lon="107.043335">
<ele>4.141178</ele>
<time>2011-04-30T06:26:20Z</time>
<desc>lat.=20.939550, lon.=107.043335, Alt.=4.141178m. Speed=8.172000m/h.</desc>
<speed>2.270000</speed>
</trkpt>
<trkpt lat="20.939466" lon="107.043282">
<ele>4.809269</ele>
<time>2011-04-30T06:26:25Z</time>
<desc>lat.=20.939466, lon.=107.043282, Alt.=4.809269m. Speed=7.812000m/h.</desc>
<speed>2.170000</speed>
</trkpt>
<trkpt lat="20.939383" lon="107.043213">
<ele>4.619816</ele>
<time>2011-04-30T06:26:30Z</time>
<desc>lat.=20.939383, lon.=107.043213, Alt.=4.619816m. Speed=8.352000m/h.</desc>
<speed>2.320000</speed>
</trkpt>
<trkpt lat="20.939304" lon="107.043144">
<ele>4.696354</ele>
<time>2011-04-30T06:26:35Z</time>
<desc>lat.=20.939304, lon.=107.043144, Alt.=4.696354m. Speed=8.100000m/h.</desc>
<speed>2.250000</speed>
</trkpt>
<trkpt lat="20.939220" lon="107.043068">
<ele>3.627169</ele>
<time>2011-04-30T06:26:40Z</time>
<desc>lat.=20.939220, lon.=107.043068, Alt.=3.627169m. Speed=8.064000m/h.</desc>
<speed>2.240000</speed>
</trkpt>
<trkpt lat="20.939138" lon="107.043007">
<ele>4.242741</ele>
<time>2011-04-30T06:26:45Z</time>
<desc>lat.=20.939138, lon.=107.043007, Alt.=4.242741m. Speed=8.100000m/h.</desc>
<speed>2.250000</speed>
</trkpt>
<trkpt lat="20.939054" lon="107.042946">
<ele>5.163151</ele>
<time>2011-04-30T06:26:50Z</time>
<desc>lat.=20.939054, lon.=107.042946, Alt.=5.163151m. Speed=8.100000m/h.</desc>
<speed>2.250000</speed>
</trkpt>
<trkpt lat="20.938967" lon="107.042877">
<ele>5.685001</ele>
<time>2011-04-30T06:26:55Z</time>
<desc>lat.=20.938967, lon.=107.042877, Alt.=5.685001m. Speed=8.064000m/h.</desc>
<speed>2.240000</speed>
</trkpt>
<trkpt lat="20.938885" lon="107.042809">
<ele>6.182926</ele>
<time>2011-04-30T06:27:00Z</time>
<desc>lat.=20.938885, lon.=107.042809, Alt.=6.182926m. Speed=8.064000m/h.</desc>
<speed>2.240000</speed>
</trkpt>
<trkpt lat="20.938803" lon="107.042747">
<ele>5.958805</ele>
<time>2011-04-30T06:27:05Z</time>
<desc>lat.=20.938803, lon.=107.042747, Alt.=5.958805m. Speed=8.028000m/h.</desc>
<speed>2.230000</speed>
</trkpt>
<trkpt lat="20.938725" lon="107.042679">
<ele>5.606022</ele>
<time>2011-04-30T06:27:10Z</time>
<desc>lat.=20.938725, lon.=107.042679, Alt.=5.606022m. Speed=7.992000m/h.</desc>
<speed>2.220000</speed>
</trkpt>
<trkpt lat="20.938646" lon="107.042610">
<ele>5.700626</ele>
<time>2011-04-30T06:27:15Z</time>
<desc>lat.=20.938646, lon.=107.042610, Alt.=5.700626m. Speed=7.992000m/h.</desc>
<speed>2.220000</speed>
</trkpt>
<trkpt lat="20.938564" lon="107.042542">
<ele>5.556095</ele>
<time>2011-04-30T06:27:20Z</time>
<desc>lat.=20.938564, lon.=107.042542, Alt.=5.556095m. Speed=8.064000m/h.</desc>
<speed>2.240000</speed>
</trkpt>
<trkpt lat="20.938484" lon="107.042473">
<ele>5.415592</ele>
<time>2011-04-30T06:27:25Z</time>
<desc>lat.=20.938484, lon.=107.042473, Alt.=5.415592m. Speed=8.028000m/h.</desc>
<speed>2.230000</speed>
</trkpt>
<trkpt lat="20.938404" lon="107.042404">
<ele>5.504704</ele>
<time>2011-04-30T06:27:30Z</time>
<desc>lat.=20.938404, lon.=107.042404, Alt.=5.504704m. Speed=8.064000m/h.</desc>
<speed>2.240000</speed>
</trkpt>
<trkpt lat="20.938322" lon="107.042343">
<ele>5.625065</ele>
<time>2011-04-30T06:27:35Z</time>
<desc>lat.=20.938322, lon.=107.042343, Alt.=5.625065m. Speed=7.956000m/h.</desc>
<speed>2.210000</speed>
</trkpt>
<trkpt lat="20.938240" lon="107.042282">
<ele>6.131657</ele>
<time>2011-04-30T06:27:40Z</time>
<desc>lat.=20.938240, lon.=107.042282, Alt.=6.131657m. Speed=8.064000m/h.</desc>
<speed>2.240000</speed>
</trkpt>
<trkpt lat="20.938156" lon="107.042221">
<ele>6.260929</ele>
<time>2011-04-30T06:27:45Z</time>
<desc>lat.=20.938156, lon.=107.042221, Alt.=6.260929m. Speed=8.100000m/h.</desc>
<speed>2.250000</speed>
</trkpt>
<trkpt lat="20.938070" lon="107.042152">
<ele>6.298893</ele>
<time>2011-04-30T06:27:50Z</time>
<desc>lat.=20.938070, lon.=107.042152, Alt.=6.298893m. Speed=8.064000m/h.</desc>
<speed>2.240000</speed>
</trkpt>
<trkpt lat="20.937986" lon="107.042084">
<ele>6.028751</ele>
<time>2011-04-30T06:27:55Z</time>
<desc>lat.=20.937986, lon.=107.042084, Alt.=6.028751m. Speed=7.992000m/h.</desc>
<speed>2.220000</speed>
</trkpt>
<trkpt lat="20.937910" lon="107.042007">
<ele>6.240665</ele>
<time>2011-04-30T06:28:00Z</time>
<desc>lat.=20.937910, lon.=107.042007, Alt.=6.240665m. Speed=7.956000m/h.</desc>
<speed>2.210000</speed>
</trkpt>
<trkpt lat="20.937828" lon="107.041946">
<ele>6.928532</ele>
<time>2011-04-30T06:28:05Z</time>
<desc>lat.=20.937828, lon.=107.041946, Alt.=6.928532m. Speed=7.848000m/h.</desc>
<speed>2.180000</speed>
</trkpt>
<trkpt lat="20.937752" lon="107.041870">
<ele>6.597965</ele>
<time>2011-04-30T06:28:10Z</time>
<desc>lat.=20.937752, lon.=107.041870, Alt.=6.597965m. Speed=7.632000m/h.</desc>
<speed>2.120000</speed>
</trkpt>
<trkpt lat="20.937674" lon="107.041794">
<ele>5.834782</ele>
<time>2011-04-30T06:28:15Z</time>
<desc>lat.=20.937674, lon.=107.041794, Alt.=5.834782m. Speed=8.280000m/h.</desc>
<speed>2.300000</speed>
</trkpt>
<trkpt lat="20.937592" lon="107.041725">
<ele>5.662052</ele>
<time>2011-04-30T06:28:20Z</time>
<desc>lat.=20.937592, lon.=107.041725, Alt.=5.662052m. Speed=8.064000m/h.</desc>
<speed>2.240000</speed>
</trkpt>
<trkpt lat="20.937508" lon="107.041664">
<ele>5.788883</ele>
<time>2011-04-30T06:28:25Z</time>
<desc>lat.=20.937508, lon.=107.041664, Alt.=5.788883m. Speed=7.920000m/h.</desc>
<speed>2.200000</speed>
</trkpt>
<trkpt lat="20.937426" lon="107.041595">
<ele>6.000187</ele>
<time>2011-04-30T06:28:30Z</time>
<desc>lat.=20.937426, lon.=107.041595, Alt.=6.000187m. Speed=7.956000m/h.</desc>
<speed>2.210000</speed>
</trkpt>
<trkpt lat="20.937344" lon="107.041534">
<ele>6.135075</ele>
<time>2011-04-30T06:28:35Z</time>
<desc>lat.=20.937344, lon.=107.041534, Alt.=6.135075m. Speed=7.884000m/h.</desc>
<speed>2.190000</speed>
</trkpt>
<trkpt lat="20.937263" lon="107.041473">
<ele>6.507633</ele>
<time>2011-04-30T06:28:40Z</time>
<desc>lat.=20.937263, lon.=107.041473, Alt.=6.507633m. Speed=7.632000m/h.</desc>
<speed>2.120000</speed>
</trkpt>
<trkpt lat="20.937185" lon="107.041412">
<ele>6.535099</ele>
<time>2011-04-30T06:28:45Z</time>
<desc>lat.=20.937185, lon.=107.041412, Alt.=6.535099m. Speed=7.920000m/h.</desc>
<speed>2.200000</speed>
</trkpt>
<trkpt lat="20.937113" lon="107.041351">
<ele>6.402897</ele>
<time>2011-04-30T06:28:50Z</time>
<desc>lat.=20.937113, lon.=107.041351, Alt.=6.402897m. Speed=7.956000m/h.</desc>
<speed>2.210000</speed>
</trkpt>
<trkpt lat="20.937035" lon="107.041283">
<ele>5.620060</ele>
<time>2011-04-30T06:28:55Z</time>
<desc>lat.=20.937035, lon.=107.041283, Alt.=5.620060m. Speed=7.956000m/h.</desc>
<speed>2.210000</speed>
</trkpt>
<trkpt lat="20.936956" lon="107.041214">
<ele>4.603214</ele>
<time>2011-04-30T06:29:00Z</time>
<desc>lat.=20.936956, lon.=107.041214, Alt.=4.603214m. Speed=8.064000m/h.</desc>
<speed>2.240000</speed>
</trkpt>
<trkpt lat="20.936872" lon="107.041145">
<ele>4.509708</ele>
<time>2011-04-30T06:29:05Z</time>
<desc>lat.=20.936872, lon.=107.041145, Alt.=4.509708m. Speed=7.740000m/h.</desc>
<speed>2.150000</speed>
</trkpt>
<trkpt lat="20.936796" lon="107.041077">
<ele>4.295719</ele>
<time>2011-04-30T06:29:10Z</time>
<desc>lat.=20.936796, lon.=107.041077, Alt.=4.295719m. Speed=7.956000m/h.</desc>
<speed>2.210000</speed>
</trkpt>
<trkpt lat="20.936724" lon="107.041000">
<ele>3.434175</ele>
<time>2011-04-30T06:29:15Z</time>
<desc>lat.=20.936724, lon.=107.041000, Alt.=3.434175m. Speed=7.884000m/h.</desc>
<speed>2.190000</speed>
</trkpt>
<trkpt lat="20.936647" lon="107.040932">
<ele>3.343233</ele>
<time>2011-04-30T06:29:20Z</time>
<desc>lat.=20.936647, lon.=107.040932, Alt.=3.343233m. Speed=7.884000m/h.</desc>
<speed>2.190000</speed>
</trkpt>
<trkpt lat="20.936571" lon="107.040878">
<ele>4.313541</ele>
<time>2011-04-30T06:29:25Z</time>
<desc>lat.=20.936571, lon.=107.040878, Alt.=4.313541m. Speed=8.100000m/h.</desc>
<speed>2.250000</speed>
</trkpt>
<trkpt lat="20.936495" lon="107.040817">
<ele>4.181461</ele>
<time>2011-04-30T06:29:30Z</time>
<desc>lat.=20.936495, lon.=107.040817, Alt.=4.181461m. Speed=7.920000m/h.</desc>
<speed>2.200000</speed>
</trkpt>
<trkpt lat="20.936417" lon="107.040764">
<ele>3.933321</ele>
<time>2011-04-30T06:29:35Z</time>
<desc>lat.=20.936417, lon.=107.040764, Alt.=3.933321m. Speed=7.704000m/h.</desc>
<speed>2.140000</speed>
</trkpt>
<trkpt lat="20.936340" lon="107.040695">
<ele>2.506380</ele>
<time>2011-04-30T06:29:40Z</time>
<desc>lat.=20.936340, lon.=107.040695, Alt.=2.506380m. Speed=8.028000m/h.</desc>
<speed>2.230000</speed>
</trkpt>
<trkpt lat="20.936262" lon="107.040634">
<ele>2.015596</ele>
<time>2011-04-30T06:29:45Z</time>
<desc>lat.=20.936262, lon.=107.040634, Alt.=2.015596m. Speed=8.100000m/h.</desc>
<speed>2.250000</speed>
</trkpt>
<trkpt lat="20.936178" lon="107.040558">
<ele>1.448350</ele>
<time>2011-04-30T06:29:50Z</time>
<desc>lat.=20.936178, lon.=107.040558, Alt.=1.448350m. Speed=8.100000m/h.</desc>
<speed>2.250000</speed>
</trkpt>
<trkpt lat="20.936096" lon="107.040482">
<ele>1.164536</ele>
<time>2011-04-30T06:29:55Z</time>
<desc>lat.=20.936096, lon.=107.040482, Alt.=1.164536m. Speed=7.884000m/h.</desc>
<speed>2.190000</speed>
</trkpt>
<trkpt lat="20.936018" lon="107.040413">
<ele>0.650887</ele>
<time>2011-04-30T06:30:00Z</time>
<desc>lat.=20.936018, lon.=107.040413, Alt.=0.650887m. Speed=8.172000m/h.</desc>
<speed>2.270000</speed>
</trkpt>
<trkpt lat="20.935946" lon="107.040337">
<ele>1.329789</ele>
<time>2011-04-30T06:30:05Z</time>
<desc>lat.=20.935946, lon.=107.040337, Alt.=1.329789m. Speed=8.064000m/h.</desc>
<speed>2.240000</speed>
</trkpt>
<trkpt lat="20.935871" lon="107.040268">
<ele>2.253145</ele>
<time>2011-04-30T06:30:10Z</time>
<desc>lat.=20.935871, lon.=107.040268, Alt.=2.253145m. Speed=7.920000m/h.</desc>
<speed>2.200000</speed>
</trkpt>
<trkpt lat="20.935797" lon="107.040192">
<ele>4.324528</ele>
<time>2011-04-30T06:30:15Z</time>
<desc>lat.=20.935797, lon.=107.040192, Alt.=4.324528m. Speed=8.532000m/h.</desc>
<speed>2.370000</speed>
</trkpt>
<trkpt lat="20.935726" lon="107.040131">
<ele>2.365206</ele>
<time>2011-04-30T06:30:20Z</time>
<desc>lat.=20.935726, lon.=107.040131, Alt.=2.365206m. Speed=8.064000m/h.</desc>
<speed>2.240000</speed>
</trkpt>
<trkpt lat="20.935656" lon="107.040062">
<ele>2.683931</ele>
<time>2011-04-30T06:30:25Z</time>
<desc>lat.=20.935656, lon.=107.040062, Alt.=2.683931m. Speed=8.028000m/h.</desc>
<speed>2.230000</speed>
</trkpt>
<trkpt lat="20.935574" lon="107.040001">
<ele>2.571566</ele>
<time>2011-04-30T06:30:30Z</time>
<desc>lat.=20.935574, lon.=107.040001, Alt.=2.571566m. Speed=8.172000m/h.</desc>
<speed>2.270000</speed>
</trkpt>
<trkpt lat="20.935495" lon="107.039932">
<ele>2.036104</ele>
<time>2011-04-30T06:30:35Z</time>
<desc>lat.=20.935495, lon.=107.039932, Alt.=2.036104m. Speed=7.956000m/h.</desc>
<speed>2.210000</speed>
</trkpt>
<trkpt lat="20.935419" lon="107.039864">
<ele>2.144258</ele>
<time>2011-04-30T06:30:40Z</time>
<desc>lat.=20.935419, lon.=107.039864, Alt.=2.144258m. Speed=8.208000m/h.</desc>
<speed>2.280000</speed>
</trkpt>
<trkpt lat="20.935337" lon="107.039795">
<ele>2.097506</ele>
<time>2011-04-30T06:30:45Z</time>
<desc>lat.=20.935337, lon.=107.039795, Alt.=2.097506m. Speed=7.848000m/h.</desc>
<speed>2.180000</speed>
</trkpt>
<trkpt lat="20.935259" lon="107.039726">
<ele>2.503939</ele>
<time>2011-04-30T06:30:50Z</time>
<desc>lat.=20.935259, lon.=107.039726, Alt.=2.503939m. Speed=7.776000m/h.</desc>
<speed>2.160000</speed>
</trkpt>
<trkpt lat="20.935179" lon="107.039658">
<ele>2.567354</ele>
<time>2011-04-30T06:30:55Z</time>
<desc>lat.=20.935179, lon.=107.039658, Alt.=2.567354m. Speed=7.740000m/h.</desc>
<speed>2.150000</speed>
</trkpt>
<trkpt lat="20.935110" lon="107.039581">
<ele>1.363816</ele>
<time>2011-04-30T06:31:00Z</time>
<desc>lat.=20.935110, lon.=107.039581, Alt.=1.363816m. Speed=7.884000m/h.</desc>
<speed>2.190000</speed>
</trkpt>
<trkpt lat="20.935032" lon="107.039513">
<ele>0.492245</ele>
<time>2011-04-30T06:31:05Z</time>
<desc>lat.=20.935032, lon.=107.039513, Alt.=0.492245m. Speed=8.316000m/h.</desc>
<speed>2.310000</speed>
</trkpt>
<trkpt lat="20.934959" lon="107.039459">
<ele>1.503861</ele>
<time>2011-04-30T06:31:10Z</time>
<desc>lat.=20.934959, lon.=107.039459, Alt.=1.503861m. Speed=7.416000m/h.</desc>
<speed>2.060000</speed>
</trkpt>
<trkpt lat="20.934885" lon="107.039375">
<ele>1.162736</ele>
<time>2011-04-30T06:31:15Z</time>
<desc>lat.=20.934885, lon.=107.039375, Alt.=1.162736m. Speed=8.028000m/h.</desc>
<speed>2.230000</speed>
</trkpt>
<trkpt lat="20.934811" lon="107.039307">
<ele>1.033036</ele>
<time>2011-04-30T06:31:20Z</time>
<desc>lat.=20.934811, lon.=107.039307, Alt.=1.033036m. Speed=7.920000m/h.</desc>
<speed>2.200000</speed>
</trkpt>
<trkpt lat="20.934738" lon="107.039238">
<ele>0.684044</ele>
<time>2011-04-30T06:31:25Z</time>
<desc>lat.=20.934738, lon.=107.039238, Alt.=0.684044m. Speed=7.632000m/h.</desc>
<speed>2.120000</speed>
</trkpt>
<trkpt lat="20.934660" lon="107.039162">
<ele>-0.174498</ele>
<time>2011-04-30T06:31:30Z</time>
<desc>lat.=20.934660, lon.=107.039162, Alt.=-0.174498m. Speed=8.712000m/h.</desc>
<speed>2.420000</speed>
</trkpt>
<trkpt lat="20.934586" lon="107.039085">
<ele>-0.787850</ele>
<time>2011-04-30T06:31:35Z</time>
<desc>lat.=20.934586, lon.=107.039085, Alt.=-0.787850m. Speed=7.956000m/h.</desc>
<speed>2.210000</speed>
</trkpt>
<trkpt lat="20.934515" lon="107.039009">
<ele>0.173960</ele>
<time>2011-04-30T06:31:40Z</time>
<desc>lat.=20.934515, lon.=107.039009, Alt.=0.173960m. Speed=7.704000m/h.</desc>
<speed>2.140000</speed>
</trkpt>
<trkpt lat="20.934435" lon="107.038940">
<ele>0.022793</ele>
<time>2011-04-30T06:31:45Z</time>
<desc>lat.=20.934435, lon.=107.038940, Alt.=0.022793m. Speed=7.956000m/h.</desc>
<speed>2.210000</speed>
</trkpt>
<trkpt lat="20.934364" lon="107.038879">
<ele>1.524674</ele>
<time>2011-04-30T06:31:50Z</time>
<desc>lat.=20.934364, lon.=107.038879, Alt.=1.524674m. Speed=7.920000m/h.</desc>
<speed>2.200000</speed>
</trkpt>
<trkpt lat="20.934288" lon="107.038818">
<ele>1.995744</ele>
<time>2011-04-30T06:31:55Z</time>
<desc>lat.=20.934288, lon.=107.038818, Alt.=1.995744m. Speed=7.884000m/h.</desc>
<speed>2.190000</speed>
</trkpt>
<trkpt lat="20.934206" lon="107.038750">
<ele>2.395296</ele>
<time>2011-04-30T06:32:00Z</time>
<desc>lat.=20.934206, lon.=107.038750, Alt.=2.395296m. Speed=7.740000m/h.</desc>
<speed>2.150000</speed>
</trkpt>
<trkpt lat="20.934126" lon="107.038681">
<ele>2.075106</ele>
<time>2011-04-30T06:32:05Z</time>
<desc>lat.=20.934126, lon.=107.038681, Alt.=2.075106m. Speed=7.848000m/h.</desc>
<speed>2.180000</speed>
</trkpt>
<trkpt lat="20.934042" lon="107.038620">
<ele>1.393418</ele>
<time>2011-04-30T06:32:10Z</time>
<desc>lat.=20.934042, lon.=107.038620, Alt.=1.393418m. Speed=7.956000m/h.</desc>
<speed>2.210000</speed>
</trkpt>
<trkpt lat="20.933964" lon="107.038551">
<ele>0.837044</ele>
<time>2011-04-30T06:32:15Z</time>
<desc>lat.=20.933964, lon.=107.038551, Alt.=0.837044m. Speed=7.920000m/h.</desc>
<speed>2.200000</speed>
</trkpt>
<trkpt lat="20.933878" lon="107.038490">
<ele>1.060899</ele>
<time>2011-04-30T06:32:20Z</time>
<desc>lat.=20.933878, lon.=107.038490, Alt.=1.060899m. Speed=7.740000m/h.</desc>
<speed>2.150000</speed>
</trkpt>
<trkpt lat="20.933798" lon="107.038437">
<ele>0.967721</ele>
<time>2011-04-30T06:32:25Z</time>
<desc>lat.=20.933798, lon.=107.038437, Alt.=0.967721m. Speed=8.028000m/h.</desc>
<speed>2.230000</speed>
</trkpt>
<trkpt lat="20.933720" lon="107.038368">
<ele>0.530236</ele>
<time>2011-04-30T06:32:30Z</time>
<desc>lat.=20.933720, lon.=107.038368, Alt.=0.530236m. Speed=8.172000m/h.</desc>
<speed>2.270000</speed>
</trkpt>
<trkpt lat="20.933641" lon="107.038307">
<ele>0.527474</ele>
<time>2011-04-30T06:32:35Z</time>
<desc>lat.=20.933641, lon.=107.038307, Alt.=0.527474m. Speed=7.812000m/h.</desc>
<speed>2.170000</speed>
</trkpt>
<trkpt lat="20.933563" lon="107.038231">
<ele>0.271496</ele>
<time>2011-04-30T06:32:40Z</time>
<desc>lat.=20.933563, lon.=107.038231, Alt.=0.271496m. Speed=7.956000m/h.</desc>
<speed>2.210000</speed>
</trkpt>
<trkpt lat="20.933485" lon="107.038155">
<ele>0.035170</ele>
<time>2011-04-30T06:32:45Z</time>
<desc>lat.=20.933485, lon.=107.038155, Alt.=0.035170m. Speed=8.280000m/h.</desc>
<speed>2.300000</speed>
</trkpt>
<trkpt lat="20.933399" lon="107.038086">
<ele>-0.182436</ele>
<time>2011-04-30T06:32:50Z</time>
<desc>lat.=20.933399, lon.=107.038086, Alt.=-0.182436m. Speed=8.100000m/h.</desc>
<speed>2.250000</speed>
</trkpt>
<trkpt lat="20.933319" lon="107.038033">
<ele>0.674386</ele>
<time>2011-04-30T06:32:55Z</time>
<desc>lat.=20.933319, lon.=107.038033, Alt.=0.674386m. Speed=7.632000m/h.</desc>
<speed>2.120000</speed>
</trkpt>
<trkpt lat="20.933243" lon="107.037971">
<ele>1.198319</ele>
<time>2011-04-30T06:33:00Z</time>
<desc>lat.=20.933243, lon.=107.037971, Alt.=1.198319m. Speed=8.064000m/h.</desc>
<speed>2.240000</speed>
</trkpt>
<trkpt lat="20.933161" lon="107.037910">
<ele>1.943467</ele>
<time>2011-04-30T06:33:05Z</time>
<desc>lat.=20.933161, lon.=107.037910, Alt.=1.943467m. Speed=8.244000m/h.</desc>
<speed>2.290000</speed>
</trkpt>
<trkpt lat="20.933073" lon="107.037834">
<ele>2.510469</ele>
<time>2011-04-30T06:33:10Z</time>
<desc>lat.=20.933073, lon.=107.037834, Alt.=2.510469m. Speed=8.244000m/h.</desc>
<speed>2.290000</speed>
</trkpt>
<trkpt lat="20.932980" lon="107.037781">
<ele>1.413102</ele>
<time>2011-04-30T06:33:15Z</time>
<desc>lat.=20.932980, lon.=107.037781, Alt.=1.413102m. Speed=8.244000m/h.</desc>
<speed>2.290000</speed>
</trkpt>
<trkpt lat="20.932890" lon="107.037727">
<ele>0.889824</ele>
<time>2011-04-30T06:33:20Z</time>
<desc>lat.=20.932890, lon.=107.037727, Alt.=0.889824m. Speed=8.208000m/h.</desc>
<speed>2.280000</speed>
</trkpt>
<trkpt lat="20.932796" lon="107.037689">
<ele>0.380734</ele>
<time>2011-04-30T06:33:25Z</time>
<desc>lat.=20.932796, lon.=107.037689, Alt.=0.380734m. Speed=8.136000m/h.</desc>
<speed>2.260000</speed>
</trkpt>
<trkpt lat="20.932701" lon="107.037659">
<ele>0.777169</ele>
<time>2011-04-30T06:33:30Z</time>
<desc>lat.=20.932701, lon.=107.037659, Alt.=0.777169m. Speed=8.136000m/h.</desc>
<speed>2.260000</speed>
</trkpt>
<trkpt lat="20.932606" lon="107.037621">
<ele>0.180372</ele>
<time>2011-04-30T06:33:35Z</time>
<desc>lat.=20.932606, lon.=107.037621, Alt.=0.180372m. Speed=8.208000m/h.</desc>
<speed>2.280000</speed>
</trkpt>
<trkpt lat="20.932512" lon="107.037582">
<ele>-0.439068</ele>
<time>2011-04-30T06:33:40Z</time>
<desc>lat.=20.932512, lon.=107.037582, Alt.=-0.439068m. Speed=8.208000m/h.</desc>
<speed>2.280000</speed>
</trkpt>
<trkpt lat="20.932415" lon="107.037552">
<ele>-1.082322</ele>
<time>2011-04-30T06:33:45Z</time>
<desc>lat.=20.932415, lon.=107.037552, Alt.=-1.082322m. Speed=8.208000m/h.</desc>
<speed>2.280000</speed>
</trkpt>
<trkpt lat="20.932318" lon="107.037514">
<ele>-1.259202</ele>
<time>2011-04-30T06:33:50Z</time>
<desc>lat.=20.932318, lon.=107.037514, Alt.=-1.259202m. Speed=8.244000m/h.</desc>
<speed>2.290000</speed>
</trkpt>
<trkpt lat="20.932219" lon="107.037468">
<ele>-1.243730</ele>
<time>2011-04-30T06:33:55Z</time>
<desc>lat.=20.932219, lon.=107.037468, Alt.=-1.243730m. Speed=8.136000m/h.</desc>
<speed>2.260000</speed>
</trkpt>
<trkpt lat="20.932119" lon="107.037430">
<ele>-1.780259</ele>
<time>2011-04-30T06:34:00Z</time>
<desc>lat.=20.932119, lon.=107.037430, Alt.=-1.780259m. Speed=8.352000m/h.</desc>
<speed>2.320000</speed>
</trkpt>
<trkpt lat="20.932022" lon="107.037384">
<ele>-1.745255</ele>
<time>2011-04-30T06:34:05Z</time>
<desc>lat.=20.932022, lon.=107.037384, Alt.=-1.745255m. Speed=8.388000m/h.</desc>
<speed>2.330000</speed>
</trkpt>
<trkpt lat="20.931923" lon="107.037346">
<ele>-1.633012</ele>
<time>2011-04-30T06:34:10Z</time>
<desc>lat.=20.931923, lon.=107.037346, Alt.=-1.633012m. Speed=8.424000m/h.</desc>
<speed>2.340000</speed>
</trkpt>
<trkpt lat="20.931822" lon="107.037300">
<ele>-1.901353</ele>
<time>2011-04-30T06:34:15Z</time>
<desc>lat.=20.931822, lon.=107.037300, Alt.=-1.901353m. Speed=8.352000m/h.</desc>
<speed>2.320000</speed>
</trkpt>
<trkpt lat="20.931732" lon="107.037254">
<ele>-2.069124</ele>
<time>2011-04-30T06:34:20Z</time>
<desc>lat.=20.931732, lon.=107.037254, Alt.=-2.069124m. Speed=8.280000m/h.</desc>
<speed>2.300000</speed>
</trkpt>
<trkpt lat="20.931641" lon="107.037193">
<ele>-1.789598</ele>
<time>2011-04-30T06:34:25Z</time>
<desc>lat.=20.931641, lon.=107.037193, Alt.=-1.789598m. Speed=9.288000m/h.</desc>
<speed>2.580000</speed>
</trkpt>
<trkpt lat="20.931555" lon="107.037125">
<ele>-1.890214</ele>
<time>2011-04-30T06:34:30Z</time>
<desc>lat.=20.931555, lon.=107.037125, Alt.=-1.890214m. Speed=8.064000m/h.</desc>
<speed>2.240000</speed>
</trkpt>
<trkpt lat="20.931473" lon="107.037071">
<ele>-0.519753</ele>
<time>2011-04-30T06:34:35Z</time>
<desc>lat.=20.931473, lon.=107.037071, Alt.=-0.519753m. Speed=7.920000m/h.</desc>
<speed>2.200000</speed>
</trkpt>
<trkpt lat="20.931396" lon="107.037003">
<ele>0.027751</ele>
<time>2011-04-30T06:34:40Z</time>
<desc>lat.=20.931396, lon.=107.037003, Alt.=0.027751m. Speed=7.344000m/h.</desc>
<speed>2.040000</speed>
</trkpt>
<trkpt lat="20.931334" lon="107.036934">
<ele>0.629570</ele>
<time>2011-04-30T06:34:45Z</time>
<desc>lat.=20.931334, lon.=107.036934, Alt.=0.629570m. Speed=7.992000m/h.</desc>
<speed>2.220000</speed>
</trkpt>
<trkpt lat="20.931263" lon="107.036865">
<ele>1.444261</ele>
<time>2011-04-30T06:34:50Z</time>
<desc>lat.=20.931263, lon.=107.036865, Alt.=1.444261m. Speed=8.136000m/h.</desc>
<speed>2.260000</speed>
</trkpt>
<trkpt lat="20.931181" lon="107.036781">
<ele>1.166398</ele>
<time>2011-04-30T06:34:55Z</time>
<desc>lat.=20.931181, lon.=107.036781, Alt.=1.166398m. Speed=8.244000m/h.</desc>
<speed>2.290000</speed>
</trkpt>
<trkpt lat="20.931105" lon="107.036713">
<ele>1.428056</ele>
<time>2011-04-30T06:35:00Z</time>
<desc>lat.=20.931105, lon.=107.036713, Alt.=1.428056m. Speed=8.172000m/h.</desc>
<speed>2.270000</speed>
</trkpt>
<trkpt lat="20.931026" lon="107.036644">
<ele>2.183138</ele>
<time>2011-04-30T06:35:05Z</time>
<desc>lat.=20.931026, lon.=107.036644, Alt.=2.183138m. Speed=7.848000m/h.</desc>
<speed>2.180000</speed>
</trkpt>
<trkpt lat="20.930941" lon="107.036575">
<ele>2.554354</ele>
<time>2011-04-30T06:35:10Z</time>
<desc>lat.=20.930941, lon.=107.036575, Alt.=2.554354m. Speed=8.208000m/h.</desc>
<speed>2.280000</speed>
</trkpt>
<trkpt lat="20.930859" lon="107.036499">
<ele>2.102816</ele>
<time>2011-04-30T06:35:15Z</time>
<desc>lat.=20.930859, lon.=107.036499, Alt.=2.102816m. Speed=8.100000m/h.</desc>
<speed>2.250000</speed>
</trkpt>
<trkpt lat="20.930773" lon="107.036430">
<ele>2.631929</ele>
<time>2011-04-30T06:35:20Z</time>
<desc>lat.=20.930773, lon.=107.036430, Alt.=2.631929m. Speed=8.172000m/h.</desc>
<speed>2.270000</speed>
</trkpt>
<trkpt lat="20.930693" lon="107.036362">
<ele>2.616732</ele>
<time>2011-04-30T06:35:25Z</time>
<desc>lat.=20.930693, lon.=107.036362, Alt.=2.616732m. Speed=7.812000m/h.</desc>
<speed>2.170000</speed>
</trkpt>
<trkpt lat="20.930618" lon="107.036293">
<ele>2.959200</ele>
<time>2011-04-30T06:35:30Z</time>
<desc>lat.=20.930618, lon.=107.036293, Alt.=2.959200m. Speed=7.812000m/h.</desc>
<speed>2.170000</speed>
</trkpt>
<trkpt lat="20.930538" lon="107.036224">
<ele>2.778231</ele>
<time>2011-04-30T06:35:35Z</time>
<desc>lat.=20.930538, lon.=107.036224, Alt.=2.778231m. Speed=7.956000m/h.</desc>
<speed>2.210000</speed>
</trkpt>
<trkpt lat="20.930450" lon="107.036156">
<ele>2.810152</ele>
<time>2011-04-30T06:35:40Z</time>
<desc>lat.=20.930450, lon.=107.036156, Alt.=2.810152m. Speed=8.172000m/h.</desc>
<speed>2.270000</speed>
</trkpt>
<trkpt lat="20.930372" lon="107.036079">
<ele>2.187227</ele>
<time>2011-04-30T06:35:45Z</time>
<desc>lat.=20.930372, lon.=107.036079, Alt.=2.187227m. Speed=8.208000m/h.</desc>
<speed>2.280000</speed>
</trkpt>
<trkpt lat="20.930296" lon="107.036011">
<ele>1.973130</ele>
<time>2011-04-30T06:35:50Z</time>
<desc>lat.=20.930296, lon.=107.036011, Alt.=1.973130m. Speed=8.028000m/h.</desc>
<speed>2.230000</speed>
</trkpt>
<trkpt lat="20.930220" lon="107.035942">
<ele>1.918962</ele>
<time>2011-04-30T06:35:55Z</time>
<desc>lat.=20.930220, lon.=107.035942, Alt.=1.918962m. Speed=7.920000m/h.</desc>
<speed>2.200000</speed>
</trkpt>
<trkpt lat="20.930143" lon="107.035866">
<ele>1.924577</ele>
<time>2011-04-30T06:36:00Z</time>
<desc>lat.=20.930143, lon.=107.035866, Alt.=1.924577m. Speed=7.992000m/h.</desc>
<speed>2.220000</speed>
</trkpt>
<trkpt lat="20.930065" lon="107.035797">
<ele>2.209810</ele>
<time>2011-04-30T06:36:05Z</time>
<desc>lat.=20.930065, lon.=107.035797, Alt.=2.209810m. Speed=7.992000m/h.</desc>
<speed>2.220000</speed>
</trkpt>
<trkpt lat="20.929987" lon="107.035728">
<ele>2.132051</ele>
<time>2011-04-30T06:36:10Z</time>
<desc>lat.=20.929987, lon.=107.035728, Alt.=2.132051m. Speed=8.064000m/h.</desc>
<speed>2.240000</speed>
</trkpt>
<trkpt lat="20.929911" lon="107.035660">
<ele>2.071627</ele>
<time>2011-04-30T06:36:15Z</time>
<desc>lat.=20.929911, lon.=107.035660, Alt.=2.071627m. Speed=7.956000m/h.</desc>
<speed>2.210000</speed>
</trkpt>
<trkpt lat="20.929831" lon="107.035591">
<ele>1.986161</ele>
<time>2011-04-30T06:36:20Z</time>
<desc>lat.=20.929831, lon.=107.035591, Alt.=1.986161m. Speed=7.956000m/h.</desc>
<speed>2.210000</speed>
</trkpt>
<trkpt lat="20.929750" lon="107.035522">
<ele>2.360811</ele>
<time>2011-04-30T06:36:25Z</time>
<desc>lat.=20.929750, lon.=107.035522, Alt.=2.360811m. Speed=8.136000m/h.</desc>
<speed>2.260000</speed>
</trkpt>
<trkpt lat="20.929670" lon="107.035461">
<ele>2.943026</ele>
<time>2011-04-30T06:36:30Z</time>
<desc>lat.=20.929670, lon.=107.035461, Alt.=2.943026m. Speed=8.136000m/h.</desc>
<speed>2.260000</speed>
</trkpt>
<trkpt lat="20.929590" lon="107.035393">
<ele>3.138216</ele>
<time>2011-04-30T06:36:35Z</time>
<desc>lat.=20.929590, lon.=107.035393, Alt.=3.138216m. Speed=8.028000m/h.</desc>
<speed>2.230000</speed>
</trkpt>
<trkpt lat="20.929514" lon="107.035324">
<ele>3.261141</ele>
<time>2011-04-30T06:36:40Z</time>
<desc>lat.=20.929514, lon.=107.035324, Alt.=3.261141m. Speed=7.884000m/h.</desc>
<speed>2.190000</speed>
</trkpt>
<trkpt lat="20.929440" lon="107.035255">
<ele>3.192354</ele>
<time>2011-04-30T06:36:45Z</time>
<desc>lat.=20.929440, lon.=107.035255, Alt.=3.192354m. Speed=8.064000m/h.</desc>
<speed>2.240000</speed>
</trkpt>
<trkpt lat="20.929352" lon="107.035187">
<ele>3.446810</ele>
<time>2011-04-30T06:36:50Z</time>
<desc>lat.=20.929352, lon.=107.035187, Alt.=3.446810m. Speed=7.956000m/h.</desc>
<speed>2.210000</speed>
</trkpt>
<trkpt lat="20.929272" lon="107.035118">
<ele>3.824251</ele>
<time>2011-04-30T06:36:55Z</time>
<desc>lat.=20.929272, lon.=107.035118, Alt.=3.824251m. Speed=8.100000m/h.</desc>
<speed>2.250000</speed>
</trkpt>
<trkpt lat="20.929195" lon="107.035049">
<ele>4.247257</ele>
<time>2011-04-30T06:37:00Z</time>
<desc>lat.=20.929195, lon.=107.035049, Alt.=4.247257m. Speed=7.812000m/h.</desc>
<speed>2.170000</speed>
</trkpt>
<trkpt lat="20.929123" lon="107.034973">
<ele>3.737459</ele>
<time>2011-04-30T06:37:05Z</time>
<desc>lat.=20.929123, lon.=107.034973, Alt.=3.737459m. Speed=8.028000m/h.</desc>
<speed>2.230000</speed>
</trkpt>
<trkpt lat="20.929045" lon="107.034904">
<ele>3.937410</ele>
<time>2011-04-30T06:37:10Z</time>
<desc>lat.=20.929045, lon.=107.034904, Alt.=3.937410m. Speed=7.848000m/h.</desc>
<speed>2.180000</speed>
</trkpt>
<trkpt lat="20.928968" lon="107.034828">
<ele>3.790255</ele>
<time>2011-04-30T06:37:15Z</time>
<desc>lat.=20.928968, lon.=107.034828, Alt.=3.790255m. Speed=8.100000m/h.</desc>
<speed>2.250000</speed>
</trkpt>
<trkpt lat="20.928890" lon="107.034760">
<ele>3.734957</ele>
<time>2011-04-30T06:37:20Z</time>
<desc>lat.=20.928890, lon.=107.034760, Alt.=3.734957m. Speed=7.992000m/h.</desc>
<speed>2.220000</speed>
</trkpt>
<trkpt lat="20.928816" lon="107.034691">
<ele>3.659212</ele>
<time>2011-04-30T06:37:25Z</time>
<desc>lat.=20.928816, lon.=107.034691, Alt.=3.659212m. Speed=8.028000m/h.</desc>
<speed>2.230000</speed>
</trkpt>
<trkpt lat="20.928740" lon="107.034622">
<ele>3.710970</ele>
<time>2011-04-30T06:37:30Z</time>
<desc>lat.=20.928740, lon.=107.034622, Alt.=3.710970m. Speed=8.208000m/h.</desc>
<speed>2.280000</speed>
</trkpt>
<trkpt lat="20.928665" lon="107.034546">
<ele>3.308931</ele>
<time>2011-04-30T06:37:35Z</time>
<desc>lat.=20.928665, lon.=107.034546, Alt.=3.308931m. Speed=8.100000m/h.</desc>
<speed>2.250000</speed>
</trkpt>
<trkpt lat="20.928589" lon="107.034477">
<ele>3.921236</ele>
<time>2011-04-30T06:37:40Z</time>
<desc>lat.=20.928589, lon.=107.034477, Alt.=3.921236m. Speed=8.064000m/h.</desc>
<speed>2.240000</speed>
</trkpt>
<trkpt lat="20.928511" lon="107.034401">
<ele>3.718477</ele>
<time>2011-04-30T06:37:45Z</time>
<desc>lat.=20.928511, lon.=107.034401, Alt.=3.718477m. Speed=8.064000m/h.</desc>
<speed>2.240000</speed>
</trkpt>
<trkpt lat="20.928432" lon="107.034332">
<ele>3.870211</ele>
<time>2011-04-30T06:37:50Z</time>
<desc>lat.=20.928432, lon.=107.034332, Alt.=3.870211m. Speed=8.100000m/h.</desc>
<speed>2.250000</speed>
</trkpt>
<trkpt lat="20.928354" lon="107.034256">
<ele>3.425692</ele>
<time>2011-04-30T06:37:55Z</time>
<desc>lat.=20.928354, lon.=107.034256, Alt.=3.425692m. Speed=8.172000m/h.</desc>
<speed>2.270000</speed>
</trkpt>
<trkpt lat="20.928280" lon="107.034187">
<ele>3.724520</ele>
<time>2011-04-30T06:38:00Z</time>
<desc>lat.=20.928280, lon.=107.034187, Alt.=3.724520m. Speed=7.704000m/h.</desc>
<speed>2.140000</speed>
</trkpt>
<trkpt lat="20.928207" lon="107.034111">
<ele>3.653780</ele>
<time>2011-04-30T06:38:05Z</time>
<desc>lat.=20.928207, lon.=107.034111, Alt.=3.653780m. Speed=8.172000m/h.</desc>
<speed>2.270000</speed>
</trkpt>
<trkpt lat="20.928135" lon="107.034042">
<ele>3.716646</ele>
<time>2011-04-30T06:38:10Z</time>
<desc>lat.=20.928135, lon.=107.034042, Alt.=3.716646m. Speed=8.028000m/h.</desc>
<speed>2.230000</speed>
</trkpt>
<trkpt lat="20.928062" lon="107.033966">
<ele>3.729769</ele>
<time>2011-04-30T06:38:15Z</time>
<desc>lat.=20.928062, lon.=107.033966, Alt.=3.729769m. Speed=8.064000m/h.</desc>
<speed>2.240000</speed>
</trkpt>
<trkpt lat="20.927984" lon="107.033897">
<ele>3.777437</ele>
<time>2011-04-30T06:38:20Z</time>
<desc>lat.=20.927984, lon.=107.033897, Alt.=3.777437m. Speed=7.992000m/h.</desc>
<speed>2.220000</speed>
</trkpt>
<trkpt lat="20.927910" lon="107.033821">
<ele>3.361177</ele>
<time>2011-04-30T06:38:25Z</time>
<desc>lat.=20.927910, lon.=107.033821, Alt.=3.361177m. Speed=8.064000m/h.</desc>
<speed>2.240000</speed>
</trkpt>
<trkpt lat="20.927837" lon="107.033760">
<ele>3.728914</ele>
<time>2011-04-30T06:38:30Z</time>
<desc>lat.=20.927837, lon.=107.033760, Alt.=3.728914m. Speed=7.920000m/h.</desc>
<speed>2.200000</speed>
</trkpt>
<trkpt lat="20.927757" lon="107.033691">
<ele>4.523014</ele>
<time>2011-04-30T06:38:35Z</time>
<desc>lat.=20.927757, lon.=107.033691, Alt.=4.523014m. Speed=7.884000m/h.</desc>
<speed>2.190000</speed>
</trkpt>
<trkpt lat="20.927687" lon="107.033623">
<ele>4.540470</ele>
<time>2011-04-30T06:38:40Z</time>
<desc>lat.=20.927687, lon.=107.033623, Alt.=4.540470m. Speed=7.884000m/h.</desc>
<speed>2.190000</speed>
</trkpt>
<trkpt lat="20.927618" lon="107.033554">
<ele>4.825504</ele>
<time>2011-04-30T06:38:45Z</time>
<desc>lat.=20.927618, lon.=107.033554, Alt.=4.825504m. Speed=8.028000m/h.</desc>
<speed>2.230000</speed>
</trkpt>
<trkpt lat="20.927540" lon="107.033485">
<ele>4.737614</ele>
<time>2011-04-30T06:38:50Z</time>
<desc>lat.=20.927540, lon.=107.033485, Alt.=4.737614m. Speed=7.884000m/h.</desc>
<speed>2.190000</speed>
</trkpt>
<trkpt lat="20.927464" lon="107.033409">
<ele>4.772404</ele>
<time>2011-04-30T06:38:55Z</time>
<desc>lat.=20.927464, lon.=107.033409, Alt.=4.772404m. Speed=7.776000m/h.</desc>
<speed>2.160000</speed>
</trkpt>
<trkpt lat="20.927387" lon="107.033340">
<ele>4.954288</ele>
<time>2011-04-30T06:39:00Z</time>
<desc>lat.=20.927387, lon.=107.033340, Alt.=4.954288m. Speed=8.028000m/h.</desc>
<speed>2.230000</speed>
</trkpt>
<trkpt lat="20.927307" lon="107.033279">
<ele>5.378849</ele>
<time>2011-04-30T06:39:05Z</time>
<desc>lat.=20.927307, lon.=107.033279, Alt.=5.378849m. Speed=8.100000m/h.</desc>
<speed>2.250000</speed>
</trkpt>
<trkpt lat="20.927227" lon="107.033211">
<ele>5.169010</ele>
<time>2011-04-30T06:39:10Z</time>
<desc>lat.=20.927227, lon.=107.033211, Alt.=5.169010m. Speed=8.172000m/h.</desc>
<speed>2.270000</speed>
</trkpt>
<trkpt lat="20.927145" lon="107.033150">
<ele>5.317814</ele>
<time>2011-04-30T06:39:15Z</time>
<desc>lat.=20.927145, lon.=107.033150, Alt.=5.317814m. Speed=7.992000m/h.</desc>
<speed>2.220000</speed>
</trkpt>
<trkpt lat="20.927063" lon="107.033081">
<ele>5.926945</ele>
<time>2011-04-30T06:39:20Z</time>
<desc>lat.=20.927063, lon.=107.033081, Alt.=5.926945m. Speed=7.848000m/h.</desc>
<speed>2.180000</speed>
</trkpt>
<trkpt lat="20.926979" lon="107.033020">
<ele>6.939274</ele>
<time>2011-04-30T06:39:25Z</time>
<desc>lat.=20.926979, lon.=107.033020, Alt.=6.939274m. Speed=7.992000m/h.</desc>
<speed>2.220000</speed>
</trkpt>
<trkpt lat="20.926905" lon="107.032959">
<ele>6.594547</ele>
<time>2011-04-30T06:39:30Z</time>
<desc>lat.=20.926905, lon.=107.032959, Alt.=6.594547m. Speed=7.740000m/h.</desc>
<speed>2.150000</speed>
</trkpt>
<trkpt lat="20.926830" lon="107.032890">
<ele>5.410954</ele>
<time>2011-04-30T06:39:35Z</time>
<desc>lat.=20.926830, lon.=107.032890, Alt.=5.410954m. Speed=7.740000m/h.</desc>
<speed>2.150000</speed>
</trkpt>
<trkpt lat="20.926762" lon="107.032822">
<ele>4.462589</ele>
<time>2011-04-30T06:39:40Z</time>
<desc>lat.=20.926762, lon.=107.032822, Alt.=4.462589m. Speed=7.776000m/h.</desc>
<speed>2.160000</speed>
</trkpt>
<trkpt lat="20.926683" lon="107.032761">
<ele>3.294527</ele>
<time>2011-04-30T06:39:45Z</time>
<desc>lat.=20.926683, lon.=107.032761, Alt.=3.294527m. Speed=7.776000m/h.</desc>
<speed>2.160000</speed>
</trkpt>
<trkpt lat="20.926613" lon="107.032692">
<ele>2.711336</ele>
<time>2011-04-30T06:39:50Z</time>
<desc>lat.=20.926613, lon.=107.032692, Alt.=2.711336m. Speed=7.704000m/h.</desc>
<speed>2.140000</speed>
</trkpt>
<trkpt lat="20.926535" lon="107.032631">
<ele>2.615450</ele>
<time>2011-04-30T06:39:55Z</time>
<desc>lat.=20.926535, lon.=107.032631, Alt.=2.615450m. Speed=7.272000m/h.</desc>
<speed>2.020000</speed>
</trkpt>
<trkpt lat="20.926458" lon="107.032562">
<ele>2.330477</ele>
<time>2011-04-30T06:40:00Z</time>
<desc>lat.=20.926458, lon.=107.032562, Alt.=2.330477m. Speed=7.236000m/h.</desc>
<speed>2.010000</speed>
</trkpt>
<trkpt lat="20.926382" lon="107.032509">
<ele>2.269075</ele>
<time>2011-04-30T06:40:05Z</time>
<desc>lat.=20.926382, lon.=107.032509, Alt.=2.269075m. Speed=7.200000m/h.</desc>
<speed>2.000000</speed>
</trkpt>
<trkpt lat="20.926306" lon="107.032455">
<ele>2.710238</ele>
<time>2011-04-30T06:40:10Z</time>
<desc>lat.=20.926306, lon.=107.032455, Alt.=2.710238m. Speed=7.164000m/h.</desc>
<speed>1.990000</speed>
</trkpt>
<trkpt lat="20.926229" lon="107.032410">
<ele>3.005648</ele>
<time>2011-04-30T06:40:15Z</time>
<desc>lat.=20.926229, lon.=107.032410, Alt.=3.005648m. Speed=7.236000m/h.</desc>
<speed>2.010000</speed>
</trkpt>
<trkpt lat="20.926155" lon="107.032341">
<ele>2.810884</ele>
<time>2011-04-30T06:40:20Z</time>
<desc>lat.=20.926155, lon.=107.032341, Alt.=2.810884m. Speed=7.272000m/h.</desc>
<speed>2.020000</speed>
</trkpt>
<trkpt lat="20.926083" lon="107.032288">
<ele>3.060335</ele>
<time>2011-04-30T06:40:25Z</time>
<desc>lat.=20.926083, lon.=107.032288, Alt.=3.060335m. Speed=7.092000m/h.</desc>
<speed>1.970000</speed>
</trkpt>
<trkpt lat="20.926003" lon="107.032242">
<ele>2.985140</ele>
<time>2011-04-30T06:40:30Z</time>
<desc>lat.=20.926003, lon.=107.032242, Alt.=2.985140m. Speed=7.488000m/h.</desc>
<speed>2.080000</speed>
</trkpt>
<trkpt lat="20.925926" lon="107.032188">
<ele>2.733858</ele>
<time>2011-04-30T06:40:35Z</time>
<desc>lat.=20.925926, lon.=107.032188, Alt.=2.733858m. Speed=7.524000m/h.</desc>
<speed>2.090000</speed>
</trkpt>
<trkpt lat="20.925850" lon="107.032135">
<ele>3.818941</ele>
<time>2011-04-30T06:40:40Z</time>
<desc>lat.=20.925850, lon.=107.032135, Alt.=3.818941m. Speed=7.452000m/h.</desc>
<speed>2.070000</speed>
</trkpt>
<trkpt lat="20.925772" lon="107.032089">
<ele>3.746309</ele>
<time>2011-04-30T06:40:45Z</time>
<desc>lat.=20.925772, lon.=107.032089, Alt.=3.746309m. Speed=7.344000m/h.</desc>
<speed>2.040000</speed>
</trkpt>
<trkpt lat="20.925695" lon="107.032028">
<ele>3.309053</ele>
<time>2011-04-30T06:40:50Z</time>
<desc>lat.=20.925695, lon.=107.032028, Alt.=3.309053m. Speed=7.380000m/h.</desc>
<speed>2.050000</speed>
</trkpt>
<trkpt lat="20.925623" lon="107.031982">
<ele>3.356173</ele>
<time>2011-04-30T06:40:55Z</time>
<desc>lat.=20.925623, lon.=107.031982, Alt.=3.356173m. Speed=7.452000m/h.</desc>
<speed>2.070000</speed>
</trkpt>
<trkpt lat="20.925550" lon="107.031914">
<ele>3.858126</ele>
<time>2011-04-30T06:41:00Z</time>
<desc>lat.=20.925550, lon.=107.031914, Alt.=3.858126m. Speed=7.416000m/h.</desc>
<speed>2.060000</speed>
</trkpt>
<trkpt lat="20.925472" lon="107.031860">
<ele>4.375675</ele>
<time>2011-04-30T06:41:05Z</time>
<desc>lat.=20.925472, lon.=107.031860, Alt.=4.375675m. Speed=7.272000m/h.</desc>
<speed>2.020000</speed>
</trkpt>
<trkpt lat="20.925392" lon="107.031792">
<ele>3.554659</ele>
<time>2011-04-30T06:41:10Z</time>
<desc>lat.=20.925392, lon.=107.031792, Alt.=3.554659m. Speed=7.488000m/h.</desc>
<speed>2.080000</speed>
</trkpt>
<trkpt lat="20.925308" lon="107.031723">
<ele>3.277742</ele>
<time>2011-04-30T06:41:15Z</time>
<desc>lat.=20.925308, lon.=107.031723, Alt.=3.277742m. Speed=7.740000m/h.</desc>
<speed>2.150000</speed>
</trkpt>
<trkpt lat="20.925234" lon="107.031677">
<ele>4.008488</ele>
<time>2011-04-30T06:41:20Z</time>
<desc>lat.=20.925234, lon.=107.031677, Alt.=4.008488m. Speed=7.632000m/h.</desc>
<speed>2.120000</speed>
</trkpt>
<trkpt lat="20.925156" lon="107.031609">
<ele>3.865938</ele>
<time>2011-04-30T06:41:25Z</time>
<desc>lat.=20.925156, lon.=107.031609, Alt.=3.865938m. Speed=7.776000m/h.</desc>
<speed>2.160000</speed>
</trkpt>
<trkpt lat="20.925083" lon="107.031548">
<ele>3.591707</ele>
<time>2011-04-30T06:41:30Z</time>
<desc>lat.=20.925083, lon.=107.031548, Alt.=3.591707m. Speed=7.776000m/h.</desc>
<speed>2.160000</speed>
</trkpt>
<trkpt lat="20.925005" lon="107.031479">
<ele>2.858919</ele>
<time>2011-04-30T06:41:35Z</time>
<desc>lat.=20.925005, lon.=107.031479, Alt.=2.858919m. Speed=7.884000m/h.</desc>
<speed>2.190000</speed>
</trkpt>
<trkpt lat="20.924925" lon="107.031418">
<ele>2.578279</ele>
<time>2011-04-30T06:41:40Z</time>
<desc>lat.=20.924925, lon.=107.031418, Alt.=2.578279m. Speed=7.920000m/h.</desc>
<speed>2.200000</speed>
</trkpt>
<trkpt lat="20.924845" lon="107.031349">
<ele>1.821824</ele>
<time>2011-04-30T06:41:45Z</time>
<desc>lat.=20.924845, lon.=107.031349, Alt.=1.821824m. Speed=7.920000m/h.</desc>
<speed>2.200000</speed>
</trkpt>
<trkpt lat="20.924765" lon="107.031296">
<ele>2.157869</ele>
<time>2011-04-30T06:41:50Z</time>
<desc>lat.=20.924765, lon.=107.031296, Alt.=2.157869m. Speed=7.740000m/h.</desc>
<speed>2.150000</speed>
</trkpt>
<trkpt lat="20.924683" lon="107.031235">
<ele>1.946336</ele>
<time>2011-04-30T06:41:55Z</time>
<desc>lat.=20.924683, lon.=107.031235, Alt.=1.946336m. Speed=7.740000m/h.</desc>
<speed>2.150000</speed>
</trkpt>
<trkpt lat="20.924606" lon="107.031174">
<ele>1.997666</ele>
<time>2011-04-30T06:42:00Z</time>
<desc>lat.=20.924606, lon.=107.031174, Alt.=1.997666m. Speed=7.704000m/h.</desc>
<speed>2.140000</speed>
</trkpt>
<trkpt lat="20.924522" lon="107.031120">
<ele>2.128267</ele>
<time>2011-04-30T06:42:05Z</time>
<desc>lat.=20.924522, lon.=107.031120, Alt.=2.128267m. Speed=7.812000m/h.</desc>
<speed>2.170000</speed>
</trkpt>
<trkpt lat="20.924446" lon="107.031059">
<ele>2.435579</ele>
<time>2011-04-30T06:42:10Z</time>
<desc>lat.=20.924446, lon.=107.031059, Alt.=2.435579m. Speed=7.632000m/h.</desc>
<speed>2.120000</speed>
</trkpt>
<trkpt lat="20.924366" lon="107.030991">
<ele>2.979708</ele>
<time>2011-04-30T06:42:15Z</time>
<desc>lat.=20.924366, lon.=107.030991, Alt.=2.979708m. Speed=7.704000m/h.</desc>
<speed>2.140000</speed>
</trkpt>
<trkpt lat="20.924288" lon="107.030930">
<ele>3.107271</ele>
<time>2011-04-30T06:42:20Z</time>
<desc>lat.=20.924288, lon.=107.030930, Alt.=3.107271m. Speed=7.884000m/h.</desc>
<speed>2.190000</speed>
</trkpt>
<trkpt lat="20.924206" lon="107.030861">
<ele>3.403353</ele>
<time>2011-04-30T06:42:25Z</time>
<desc>lat.=20.924206, lon.=107.030861, Alt.=3.403353m. Speed=7.812000m/h.</desc>
<speed>2.170000</speed>
</trkpt>
<trkpt lat="20.924126" lon="107.030800">
<ele>4.016544</ele>
<time>2011-04-30T06:42:30Z</time>
<desc>lat.=20.924126, lon.=107.030800, Alt.=4.016544m. Speed=7.776000m/h.</desc>
<speed>2.160000</speed>
</trkpt>
<trkpt lat="20.924053" lon="107.030731">
<ele>4.296940</ele>
<time>2011-04-30T06:42:35Z</time>
<desc>lat.=20.924053, lon.=107.030731, Alt.=4.296940m. Speed=7.776000m/h.</desc>
<speed>2.160000</speed>
</trkpt>
<trkpt lat="20.923977" lon="107.030670">
<ele>4.372868</ele>
<time>2011-04-30T06:42:40Z</time>
<desc>lat.=20.923977, lon.=107.030670, Alt.=4.372868m. Speed=7.848000m/h.</desc>
<speed>2.180000</speed>
</trkpt>
<trkpt lat="20.923904" lon="107.030609">
<ele>4.281925</ele>
<time>2011-04-30T06:42:45Z</time>
<desc>lat.=20.923904, lon.=107.030609, Alt.=4.281925m. Speed=7.848000m/h.</desc>
<speed>2.180000</speed>
</trkpt>
<trkpt lat="20.923834" lon="107.030533">
<ele>4.116886</ele>
<time>2011-04-30T06:42:50Z</time>
<desc>lat.=20.923834, lon.=107.030533, Alt.=4.116886m. Speed=7.812000m/h.</desc>
<speed>2.170000</speed>
</trkpt>
<trkpt lat="20.923759" lon="107.030464">
<ele>3.807161</ele>
<time>2011-04-30T06:42:55Z</time>
<desc>lat.=20.923759, lon.=107.030464, Alt.=3.807161m. Speed=7.848000m/h.</desc>
<speed>2.180000</speed>
</trkpt>
<trkpt lat="20.923685" lon="107.030388">
<ele>3.870943</ele>
<time>2011-04-30T06:43:00Z</time>
<desc>lat.=20.923685, lon.=107.030388, Alt.=3.870943m. Speed=7.884000m/h.</desc>
<speed>2.190000</speed>
</trkpt>
<trkpt lat="20.923611" lon="107.030312">
<ele>3.838961</ele>
<time>2011-04-30T06:43:05Z</time>
<desc>lat.=20.923611, lon.=107.030312, Alt.=3.838961m. Speed=7.956000m/h.</desc>
<speed>2.210000</speed>
</trkpt>
<trkpt lat="20.923544" lon="107.030235">
<ele>3.443880</ele>
<time>2011-04-30T06:43:10Z</time>
<desc>lat.=20.923544, lon.=107.030235, Alt.=3.443880m. Speed=7.884000m/h.</desc>
<speed>2.190000</speed>
</trkpt>
<trkpt lat="20.923479" lon="107.030167">
<ele>3.252047</ele>
<time>2011-04-30T06:43:15Z</time>
<desc>lat.=20.923479, lon.=107.030167, Alt.=3.252047m. Speed=7.704000m/h.</desc>
<speed>2.140000</speed>
</trkpt>
<trkpt lat="20.923412" lon="107.030090">
<ele>3.349215</ele>
<time>2011-04-30T06:43:20Z</time>
<desc>lat.=20.923412, lon.=107.030090, Alt.=3.349215m. Speed=7.884000m/h.</desc>
<speed>2.190000</speed>
</trkpt>
<trkpt lat="20.923351" lon="107.030014">
<ele>3.148409</ele>
<time>2011-04-30T06:43:25Z</time>
<desc>lat.=20.923351, lon.=107.030014, Alt.=3.148409m. Speed=7.884000m/h.</desc>
<speed>2.190000</speed>
</trkpt>
<trkpt lat="20.923277" lon="107.029938">
<ele>2.891817</ele>
<time>2011-04-30T06:43:30Z</time>
<desc>lat.=20.923277, lon.=107.029938, Alt.=2.891817m. Speed=7.956000m/h.</desc>
<speed>2.210000</speed>
</trkpt>
<trkpt lat="20.923208" lon="107.029861">
<ele>2.881868</ele>
<time>2011-04-30T06:43:35Z</time>
<desc>lat.=20.923208, lon.=107.029861, Alt.=2.881868m. Speed=8.028000m/h.</desc>
<speed>2.230000</speed>
</trkpt>
<trkpt lat="20.923130" lon="107.029800">
<ele>3.162264</ele>
<time>2011-04-30T06:43:40Z</time>
<desc>lat.=20.923130, lon.=107.029800, Alt.=3.162264m. Speed=7.920000m/h.</desc>
<speed>2.200000</speed>
</trkpt>
<trkpt lat="20.923059" lon="107.029724">
<ele>3.582857</ele>
<time>2011-04-30T06:43:45Z</time>
<desc>lat.=20.923059, lon.=107.029724, Alt.=3.582857m. Speed=7.992000m/h.</desc>
<speed>2.220000</speed>
</trkpt>
<trkpt lat="20.922987" lon="107.029648">
<ele>3.419527</ele>
<time>2011-04-30T06:43:50Z</time>
<desc>lat.=20.922987, lon.=107.029648, Alt.=3.419527m. Speed=7.848000m/h.</desc>
<speed>2.180000</speed>
</trkpt>
<trkpt lat="20.922909" lon="107.029579">
<ele>3.635714</ele>
<time>2011-04-30T06:43:55Z</time>
<desc>lat.=20.922909, lon.=107.029579, Alt.=3.635714m. Speed=7.920000m/h.</desc>
<speed>2.200000</speed>
</trkpt>
<trkpt lat="20.922829" lon="107.029503">
<ele>3.568270</ele>
<time>2011-04-30T06:44:00Z</time>
<desc>lat.=20.922829, lon.=107.029503, Alt.=3.568270m. Speed=8.064000m/h.</desc>
<speed>2.240000</speed>
</trkpt>
<trkpt lat="20.922758" lon="107.029434">
<ele>3.518892</ele>
<time>2011-04-30T06:44:05Z</time>
<desc>lat.=20.922758, lon.=107.029434, Alt.=3.518892m. Speed=7.884000m/h.</desc>
<speed>2.190000</speed>
</trkpt>
<trkpt lat="20.922686" lon="107.029358">
<ele>3.506441</ele>
<time>2011-04-30T06:44:10Z</time>
<desc>lat.=20.922686, lon.=107.029358, Alt.=3.506441m. Speed=7.812000m/h.</desc>
<speed>2.170000</speed>
</trkpt>
<trkpt lat="20.922611" lon="107.029289">
<ele>3.776644</ele>
<time>2011-04-30T06:44:15Z</time>
<desc>lat.=20.922611, lon.=107.029289, Alt.=3.776644m. Speed=7.884000m/h.</desc>
<speed>2.190000</speed>
</trkpt>
<trkpt lat="20.922539" lon="107.029205">
<ele>3.459261</ele>
<time>2011-04-30T06:44:20Z</time>
<desc>lat.=20.922539, lon.=107.029205, Alt.=3.459261m. Speed=7.884000m/h.</desc>
<speed>2.190000</speed>
</trkpt>
<trkpt lat="20.922464" lon="107.029129">
<ele>3.229586</ele>
<time>2011-04-30T06:44:25Z</time>
<desc>lat.=20.922464, lon.=107.029129, Alt.=3.229586m. Speed=7.920000m/h.</desc>
<speed>2.200000</speed>
</trkpt>
<trkpt lat="20.922401" lon="107.029060">
<ele>3.553499</ele>
<time>2011-04-30T06:44:30Z</time>
<desc>lat.=20.922401, lon.=107.029060, Alt.=3.553499m. Speed=7.776000m/h.</desc>
<speed>2.160000</speed>
</trkpt>
<trkpt lat="20.922338" lon="107.028984">
<ele>3.434908</ele>
<time>2011-04-30T06:44:35Z</time>
<desc>lat.=20.922338, lon.=107.028984, Alt.=3.434908m. Speed=7.884000m/h.</desc>
<speed>2.190000</speed>
</trkpt>
<trkpt lat="20.922266" lon="107.028915">
<ele>3.828951</ele>
<time>2011-04-30T06:44:40Z</time>
<desc>lat.=20.922266, lon.=107.028915, Alt.=3.828951m. Speed=7.920000m/h.</desc>
<speed>2.200000</speed>
</trkpt>
<trkpt lat="20.922194" lon="107.028847">
<ele>3.844942</ele>
<time>2011-04-30T06:44:45Z</time>
<desc>lat.=20.922194, lon.=107.028847, Alt.=3.844942m. Speed=8.100000m/h.</desc>
<speed>2.250000</speed>
</trkpt>
<trkpt lat="20.922125" lon="107.028770">
<ele>4.090519</ele>
<time>2011-04-30T06:44:50Z</time>
<desc>lat.=20.922125, lon.=107.028770, Alt.=4.090519m. Speed=8.028000m/h.</desc>
<speed>2.230000</speed>
</trkpt>
<trkpt lat="20.922064" lon="107.028687">
<ele>3.053438</ele>
<time>2011-04-30T06:44:55Z</time>
<desc>lat.=20.922064, lon.=107.028687, Alt.=3.053438m. Speed=8.136000m/h.</desc>
<speed>2.260000</speed>
</trkpt>
<trkpt lat="20.922001" lon="107.028603">
<ele>2.743319</ele>
<time>2011-04-30T06:45:00Z</time>
<desc>lat.=20.922001, lon.=107.028603, Alt.=2.743319m. Speed=7.992000m/h.</desc>
<speed>2.220000</speed>
</trkpt>
<trkpt lat="20.921928" lon="107.028534">
<ele>3.928865</ele>
<time>2011-04-30T06:45:05Z</time>
<desc>lat.=20.921928, lon.=107.028534, Alt.=3.928865m. Speed=7.848000m/h.</desc>
<speed>2.180000</speed>
</trkpt>
<trkpt lat="20.921860" lon="107.028465">
<ele>4.694035</ele>
<time>2011-04-30T06:45:10Z</time>
<desc>lat.=20.921860, lon.=107.028465, Alt.=4.694035m. Speed=7.920000m/h.</desc>
<speed>2.200000</speed>
</trkpt>
<trkpt lat="20.921797" lon="107.028389">
<ele>4.871647</ele>
<time>2011-04-30T06:45:15Z</time>
<desc>lat.=20.921797, lon.=107.028389, Alt.=4.871647m. Speed=7.920000m/h.</desc>
<speed>2.200000</speed>
</trkpt>
<trkpt lat="20.921730" lon="107.028305">
<ele>4.519474</ele>
<time>2011-04-30T06:45:20Z</time>
<desc>lat.=20.921730, lon.=107.028305, Alt.=4.519474m. Speed=8.064000m/h.</desc>
<speed>2.240000</speed>
</trkpt>
<trkpt lat="20.921669" lon="107.028214">
<ele>3.577486</ele>
<time>2011-04-30T06:45:25Z</time>
<desc>lat.=20.921669, lon.=107.028214, Alt.=3.577486m. Speed=7.992000m/h.</desc>
<speed>2.220000</speed>
</trkpt>
<trkpt lat="20.921608" lon="107.028130">
<ele>3.281038</ele>
<time>2011-04-30T06:45:30Z</time>
<desc>lat.=20.921608, lon.=107.028130, Alt.=3.281038m. Speed=7.668000m/h.</desc>
<speed>2.130000</speed>
</trkpt>
<trkpt lat="20.921535" lon="107.028061">
<ele>3.307283</ele>
<time>2011-04-30T06:45:35Z</time>
<desc>lat.=20.921535, lon.=107.028061, Alt.=3.307283m. Speed=7.632000m/h.</desc>
<speed>2.120000</speed>
</trkpt>
<trkpt lat="20.921476" lon="107.027977">
<ele>2.926424</ele>
<time>2011-04-30T06:45:40Z</time>
<desc>lat.=20.921476, lon.=107.027977, Alt.=2.926424m. Speed=7.668000m/h.</desc>
<speed>2.130000</speed>
</trkpt>
<trkpt lat="20.921415" lon="107.027901">
<ele>3.021517</ele>
<time>2011-04-30T06:45:45Z</time>
<desc>lat.=20.921415, lon.=107.027901, Alt.=3.021517m. Speed=7.596000m/h.</desc>
<speed>2.110000</speed>
</trkpt>
<trkpt lat="20.921347" lon="107.027832">
<ele>3.385164</ele>
<time>2011-04-30T06:45:50Z</time>
<desc>lat.=20.921347, lon.=107.027832, Alt.=3.385164m. Speed=7.452000m/h.</desc>
<speed>2.070000</speed>
</trkpt>
<trkpt lat="20.921280" lon="107.027748">
<ele>3.438570</ele>
<time>2011-04-30T06:45:55Z</time>
<desc>lat.=20.921280, lon.=107.027748, Alt.=3.438570m. Speed=7.560000m/h.</desc>
<speed>2.100000</speed>
</trkpt>
<trkpt lat="20.921209" lon="107.027679">
<ele>3.757174</ele>
<time>2011-04-30T06:46:00Z</time>
<desc>lat.=20.921209, lon.=107.027679, Alt.=3.757174m. Speed=7.668000m/h.</desc>
<speed>2.130000</speed>
</trkpt>
<trkpt lat="20.921144" lon="107.027611">
<ele>4.347355</ele>
<time>2011-04-30T06:46:05Z</time>
<desc>lat.=20.921144, lon.=107.027611, Alt.=4.347355m. Speed=7.812000m/h.</desc>
<speed>2.170000</speed>
</trkpt>
<trkpt lat="20.921074" lon="107.027534">
<ele>4.593571</ele>
<time>2011-04-30T06:46:10Z</time>
<desc>lat.=20.921074, lon.=107.027534, Alt.=4.593571m. Speed=7.812000m/h.</desc>
<speed>2.170000</speed>
</trkpt>
<trkpt lat="20.921007" lon="107.027451">
<ele>4.350040</ele>
<time>2011-04-30T06:46:15Z</time>
<desc>lat.=20.921007, lon.=107.027451, Alt.=4.350040m. Speed=7.812000m/h.</desc>
<speed>2.170000</speed>
</trkpt>
<trkpt lat="20.920944" lon="107.027374">
<ele>4.410465</ele>
<time>2011-04-30T06:46:20Z</time>
<desc>lat.=20.920944, lon.=107.027374, Alt.=4.410465m. Speed=7.848000m/h.</desc>
<speed>2.180000</speed>
</trkpt>
<trkpt lat="20.920877" lon="107.027298">
<ele>4.341496</ele>
<time>2011-04-30T06:46:25Z</time>
<desc>lat.=20.920877, lon.=107.027298, Alt.=4.341496m. Speed=7.668000m/h.</desc>
<speed>2.130000</speed>
</trkpt>
<trkpt lat="20.920815" lon="107.027229">
<ele>5.459782</ele>
<time>2011-04-30T06:46:30Z</time>
<desc>lat.=20.920815, lon.=107.027229, Alt.=5.459782m. Speed=7.812000m/h.</desc>
<speed>2.170000</speed>
</trkpt>
<trkpt lat="20.920752" lon="107.027153">
<ele>5.437687</ele>
<time>2011-04-30T06:46:35Z</time>
<desc>lat.=20.920752, lon.=107.027153, Alt.=5.437687m. Speed=7.776000m/h.</desc>
<speed>2.160000</speed>
</trkpt>
<trkpt lat="20.920689" lon="107.027069">
<ele>5.250187</ele>
<time>2011-04-30T06:46:40Z</time>
<desc>lat.=20.920689, lon.=107.027069, Alt.=5.250187m. Speed=7.596000m/h.</desc>
<speed>2.110000</speed>
</trkpt>
<trkpt lat="20.920624" lon="107.026993">
<ele>5.376530</ele>
<time>2011-04-30T06:46:45Z</time>
<desc>lat.=20.920624, lon.=107.026993, Alt.=5.376530m. Speed=7.776000m/h.</desc>
<speed>2.160000</speed>
</trkpt>
<trkpt lat="20.920563" lon="107.026909">
<ele>5.605778</ele>
<time>2011-04-30T06:46:50Z</time>
<desc>lat.=20.920563, lon.=107.026909, Alt.=5.605778m. Speed=7.884000m/h.</desc>
<speed>2.190000</speed>
</trkpt>
<trkpt lat="20.920498" lon="107.026825">
<ele>5.407902</ele>
<time>2011-04-30T06:46:55Z</time>
<desc>lat.=20.920498, lon.=107.026825, Alt.=5.407902m. Speed=8.064000m/h.</desc>
<speed>2.240000</speed>
</trkpt>
<trkpt lat="20.920429" lon="107.026749">
<ele>5.398014</ele>
<time>2011-04-30T06:47:00Z</time>
<desc>lat.=20.920429, lon.=107.026749, Alt.=5.398014m. Speed=7.848000m/h.</desc>
<speed>2.180000</speed>
</trkpt>
<trkpt lat="20.920362" lon="107.026672">
<ele>5.540836</ele>
<time>2011-04-30T06:47:05Z</time>
<desc>lat.=20.920362, lon.=107.026672, Alt.=5.540836m. Speed=7.884000m/h.</desc>
<speed>2.190000</speed>
</trkpt>
<trkpt lat="20.920286" lon="107.026596">
<ele>5.320011</ele>
<time>2011-04-30T06:47:10Z</time>
<desc>lat.=20.920286, lon.=107.026596, Alt.=5.320011m. Speed=7.920000m/h.</desc>
<speed>2.200000</speed>
</trkpt>
<trkpt lat="20.920216" lon="107.026520">
<ele>5.237858</ele>
<time>2011-04-30T06:47:15Z</time>
<desc>lat.=20.920216, lon.=107.026520, Alt.=5.237858m. Speed=7.884000m/h.</desc>
<speed>2.190000</speed>
</trkpt>
<trkpt lat="20.920149" lon="107.026443">
<ele>5.011662</ele>
<time>2011-04-30T06:47:20Z</time>
<desc>lat.=20.920149, lon.=107.026443, Alt.=5.011662m. Speed=7.920000m/h.</desc>
<speed>2.200000</speed>
</trkpt>
<trkpt lat="20.920073" lon="107.026367">
<ele>5.328922</ele>
<time>2011-04-30T06:47:25Z</time>
<desc>lat.=20.920073, lon.=107.026367, Alt.=5.328922m. Speed=7.920000m/h.</desc>
<speed>2.200000</speed>
</trkpt>
<trkpt lat="20.920002" lon="107.026291">
<ele>5.368107</ele>
<time>2011-04-30T06:47:30Z</time>
<desc>lat.=20.920002, lon.=107.026291, Alt.=5.368107m. Speed=7.920000m/h.</desc>
<speed>2.200000</speed>
</trkpt>
<trkpt lat="20.919930" lon="107.026215">
<ele>5.429508</ele>
<time>2011-04-30T06:47:35Z</time>
<desc>lat.=20.919930, lon.=107.026215, Alt.=5.429508m. Speed=7.776000m/h.</desc>
<speed>2.160000</speed>
</trkpt>
<trkpt lat="20.919855" lon="107.026146">
<ele>5.526920</ele>
<time>2011-04-30T06:47:40Z</time>
<desc>lat.=20.919855, lon.=107.026146, Alt.=5.526920m. Speed=7.884000m/h.</desc>
<speed>2.190000</speed>
</trkpt>
<trkpt lat="20.919785" lon="107.026077">
<ele>5.610294</ele>
<time>2011-04-30T06:47:45Z</time>
<desc>lat.=20.919785, lon.=107.026077, Alt.=5.610294m. Speed=7.848000m/h.</desc>
<speed>2.180000</speed>
</trkpt>
<trkpt lat="20.919716" lon="107.026001">
<ele>5.583805</ele>
<time>2011-04-30T06:47:50Z</time>
<desc>lat.=20.919716, lon.=107.026001, Alt.=5.583805m. Speed=7.920000m/h.</desc>
<speed>2.200000</speed>
</trkpt>
<trkpt lat="20.919651" lon="107.025925">
<ele>5.543766</ele>
<time>2011-04-30T06:47:55Z</time>
<desc>lat.=20.919651, lon.=107.025925, Alt.=5.543766m. Speed=7.956000m/h.</desc>
<speed>2.210000</speed>
</trkpt>
<trkpt lat="20.919588" lon="107.025841">
<ele>5.352238</ele>
<time>2011-04-30T06:48:00Z</time>
<desc>lat.=20.919588, lon.=107.025841, Alt.=5.352238m. Speed=7.848000m/h.</desc>
<speed>2.180000</speed>
</trkpt>
<trkpt lat="20.919519" lon="107.025772">
<ele>5.581730</ele>
<time>2011-04-30T06:48:05Z</time>
<desc>lat.=20.919519, lon.=107.025772, Alt.=5.581730m. Speed=7.596000m/h.</desc>
<speed>2.110000</speed>
</trkpt>
<trkpt lat="20.919460" lon="107.025688">
<ele>5.420719</ele>
<time>2011-04-30T06:48:10Z</time>
<desc>lat.=20.919460, lon.=107.025688, Alt.=5.420719m. Speed=7.848000m/h.</desc>
<speed>2.180000</speed>
</trkpt>
<trkpt lat="20.919395" lon="107.025604">
<ele>5.012394</ele>
<time>2011-04-30T06:48:15Z</time>
<desc>lat.=20.919395, lon.=107.025604, Alt.=5.012394m. Speed=7.992000m/h.</desc>
<speed>2.220000</speed>
</trkpt>
<trkpt lat="20.919329" lon="107.025520">
<ele>4.250309</ele>
<time>2011-04-30T06:48:20Z</time>
<desc>lat.=20.919329, lon.=107.025520, Alt.=4.250309m. Speed=7.920000m/h.</desc>
<speed>2.200000</speed>
</trkpt>
<trkpt lat="20.919254" lon="107.025459">
<ele>5.257999</ele>
<time>2011-04-30T06:48:25Z</time>
<desc>lat.=20.919254, lon.=107.025459, Alt.=5.257999m. Speed=7.920000m/h.</desc>
<speed>2.200000</speed>
</trkpt>
<trkpt lat="20.919182" lon="107.025391">
<ele>6.332706</ele>
<time>2011-04-30T06:48:30Z</time>
<desc>lat.=20.919182, lon.=107.025391, Alt.=6.332706m. Speed=7.992000m/h.</desc>
<speed>2.220000</speed>
</trkpt>
<trkpt lat="20.919109" lon="107.025314">
<ele>6.574039</ele>
<time>2011-04-30T06:48:35Z</time>
<desc>lat.=20.919109, lon.=107.025314, Alt.=6.574039m. Speed=7.812000m/h.</desc>
<speed>2.170000</speed>
</trkpt>
<trkpt lat="20.919037" lon="107.025246">
<ele>7.005680</ele>
<time>2011-04-30T06:48:40Z</time>
<desc>lat.=20.919037, lon.=107.025246, Alt.=7.005680m. Speed=7.920000m/h.</desc>
<speed>2.200000</speed>
</trkpt>
<trkpt lat="20.918964" lon="107.025177">
<ele>7.198307</ele>
<time>2011-04-30T06:48:45Z</time>
<desc>lat.=20.918964, lon.=107.025177, Alt.=7.198307m. Speed=8.064000m/h.</desc>
<speed>2.240000</speed>
</trkpt>
<trkpt lat="20.918890" lon="107.025093">
<ele>7.251041</ele>
<time>2011-04-30T06:48:50Z</time>
<desc>lat.=20.918890, lon.=107.025093, Alt.=7.251041m. Speed=7.920000m/h.</desc>
<speed>2.200000</speed>
</trkpt>
<trkpt lat="20.918818" lon="107.025024">
<ele>7.100407</ele>
<time>2011-04-30T06:48:55Z</time>
<desc>lat.=20.918818, lon.=107.025024, Alt.=7.100407m. Speed=7.812000m/h.</desc>
<speed>2.170000</speed>
</trkpt>
<trkpt lat="20.918755" lon="107.024948">
<ele>7.026676</ele>
<time>2011-04-30T06:49:00Z</time>
<desc>lat.=20.918755, lon.=107.024948, Alt.=7.026676m. Speed=8.100000m/h.</desc>
<speed>2.250000</speed>
</trkpt>
<trkpt lat="20.918684" lon="107.024872">
<ele>7.070011</ele>
<time>2011-04-30T06:49:05Z</time>
<desc>lat.=20.918684, lon.=107.024872, Alt.=7.070011m. Speed=7.884000m/h.</desc>
<speed>2.190000</speed>
</trkpt>
<trkpt lat="20.918612" lon="107.024803">
<ele>7.270817</ele>
<time>2011-04-30T06:49:10Z</time>
<desc>lat.=20.918612, lon.=107.024803, Alt.=7.270817m. Speed=7.884000m/h.</desc>
<speed>2.190000</speed>
</trkpt>
<trkpt lat="20.918541" lon="107.024727">
<ele>7.562809</ele>
<time>2011-04-30T06:49:15Z</time>
<desc>lat.=20.918541, lon.=107.024727, Alt.=7.562809m. Speed=7.776000m/h.</desc>
<speed>2.160000</speed>
</trkpt>
<trkpt lat="20.918472" lon="107.024651">
<ele>7.901798</ele>
<time>2011-04-30T06:49:20Z</time>
<desc>lat.=20.918472, lon.=107.024651, Alt.=7.901798m. Speed=7.920000m/h.</desc>
<speed>2.200000</speed>
</trkpt>
<trkpt lat="20.918404" lon="107.024574">
<ele>7.908268</ele>
<time>2011-04-30T06:49:25Z</time>
<desc>lat.=20.918404, lon.=107.024574, Alt.=7.908268m. Speed=7.884000m/h.</desc>
<speed>2.190000</speed>
</trkpt>
<trkpt lat="20.918339" lon="107.024506">
<ele>7.668766</ele>
<time>2011-04-30T06:49:30Z</time>
<desc>lat.=20.918339, lon.=107.024506, Alt.=7.668766m. Speed=7.848000m/h.</desc>
<speed>2.180000</speed>
</trkpt>
<trkpt lat="20.918274" lon="107.024422">
<ele>7.759342</ele>
<time>2011-04-30T06:49:35Z</time>
<desc>lat.=20.918274, lon.=107.024422, Alt.=7.759342m. Speed=7.452000m/h.</desc>
<speed>2.070000</speed>
</trkpt>
<trkpt lat="20.918203" lon="107.024345">
<ele>8.248177</ele>
<time>2011-04-30T06:49:40Z</time>
<desc>lat.=20.918203, lon.=107.024345, Alt.=8.248177m. Speed=7.920000m/h.</desc>
<speed>2.200000</speed>
</trkpt>
<trkpt lat="20.918139" lon="107.024269">
<ele>8.385384</ele>
<time>2011-04-30T06:49:45Z</time>
<desc>lat.=20.918139, lon.=107.024269, Alt.=8.385384m. Speed=7.920000m/h.</desc>
<speed>2.200000</speed>
</trkpt>
<trkpt lat="20.918064" lon="107.024193">
<ele>8.949348</ele>
<time>2011-04-30T06:49:50Z</time>
<desc>lat.=20.918064, lon.=107.024193, Alt.=8.949348m. Speed=8.028000m/h.</desc>
<speed>2.230000</speed>
</trkpt>
<trkpt lat="20.917997" lon="107.024109">
<ele>9.250618</ele>
<time>2011-04-30T06:49:55Z</time>
<desc>lat.=20.917997, lon.=107.024109, Alt.=9.250618m. Speed=7.956000m/h.</desc>
<speed>2.210000</speed>
</trkpt>
<trkpt lat="20.917931" lon="107.024025">
<ele>8.678352</ele>
<time>2011-04-30T06:50:00Z</time>
<desc>lat.=20.917931, lon.=107.024025, Alt.=8.678352m. Speed=8.100000m/h.</desc>
<speed>2.250000</speed>
</trkpt>
<trkpt lat="20.917862" lon="107.023949">
<ele>8.697151</ele>
<time>2011-04-30T06:50:05Z</time>
<desc>lat.=20.917862, lon.=107.023949, Alt.=8.697151m. Speed=7.920000m/h.</desc>
<speed>2.200000</speed>
</trkpt>
<trkpt lat="20.917793" lon="107.023872">
<ele>8.662239</ele>
<time>2011-04-30T06:50:10Z</time>
<desc>lat.=20.917793, lon.=107.023872, Alt.=8.662239m. Speed=7.920000m/h.</desc>
<speed>2.200000</speed>
</trkpt>
<trkpt lat="20.917730" lon="107.023796">
<ele>8.429573</ele>
<time>2011-04-30T06:50:15Z</time>
<desc>lat.=20.917730, lon.=107.023796, Alt.=8.429573m. Speed=7.740000m/h.</desc>
<speed>2.150000</speed>
</trkpt>
<trkpt lat="20.917664" lon="107.023727">
<ele>8.284065</ele>
<time>2011-04-30T06:50:20Z</time>
<desc>lat.=20.917664, lon.=107.023727, Alt.=8.284065m. Speed=7.812000m/h.</desc>
<speed>2.170000</speed>
</trkpt>
<trkpt lat="20.917595" lon="107.023651">
<ele>8.248177</ele>
<time>2011-04-30T06:50:25Z</time>
<desc>lat.=20.917595, lon.=107.023651, Alt.=8.248177m. Speed=7.992000m/h.</desc>
<speed>2.220000</speed>
</trkpt>
<trkpt lat="20.917517" lon="107.023575">
<ele>8.094368</ele>
<time>2011-04-30T06:50:30Z</time>
<desc>lat.=20.917517, lon.=107.023575, Alt.=8.094368m. Speed=8.028000m/h.</desc>
<speed>2.230000</speed>
</trkpt>
<trkpt lat="20.917433" lon="107.023506">
<ele>8.581184</ele>
<time>2011-04-30T06:50:35Z</time>
<desc>lat.=20.917433, lon.=107.023506, Alt.=8.581184m. Speed=8.064000m/h.</desc>
<speed>2.240000</speed>
</trkpt>
<trkpt lat="20.917356" lon="107.023430">
<ele>7.909000</ele>
<time>2011-04-30T06:50:40Z</time>
<desc>lat.=20.917356, lon.=107.023430, Alt.=7.909000m. Speed=7.956000m/h.</desc>
<speed>2.210000</speed>
</trkpt>
<trkpt lat="20.917278" lon="107.023369">
<ele>8.458870</ele>
<time>2011-04-30T06:50:45Z</time>
<desc>lat.=20.917278, lon.=107.023369, Alt.=8.458870m. Speed=7.920000m/h.</desc>
<speed>2.200000</speed>
</trkpt>
<trkpt lat="20.917196" lon="107.023315">
<ele>8.707405</ele>
<time>2011-04-30T06:50:50Z</time>
<desc>lat.=20.917196, lon.=107.023315, Alt.=8.707405m. Speed=7.884000m/h.</desc>
<speed>2.190000</speed>
</trkpt>
<trkpt lat="20.917110" lon="107.023254">
<ele>8.684212</ele>
<time>2011-04-30T06:50:55Z</time>
<desc>lat.=20.917110, lon.=107.023254, Alt.=8.684212m. Speed=7.632000m/h.</desc>
<speed>2.120000</speed>
</trkpt>
<trkpt lat="20.917007" lon="107.023193">
<ele>8.983040</ele>
<time>2011-04-30T06:51:00Z</time>
<desc>lat.=20.917007, lon.=107.023193, Alt.=8.983040m. Speed=8.100000m/h.</desc>
<speed>2.250000</speed>
</trkpt>
<trkpt lat="20.916922" lon="107.023132">
<ele>9.670784</ele>
<time>2011-04-30T06:51:05Z</time>
<desc>lat.=20.916922, lon.=107.023132, Alt.=9.670784m. Speed=8.208000m/h.</desc>
<speed>2.280000</speed>
</trkpt>
<trkpt lat="20.916838" lon="107.023064">
<ele>9.629768</ele>
<time>2011-04-30T06:51:10Z</time>
<desc>lat.=20.916838, lon.=107.023064, Alt.=9.629768m. Speed=8.280000m/h.</desc>
<speed>2.300000</speed>
</trkpt>
<trkpt lat="20.916763" lon="107.023003">
<ele>10.271858</ele>
<time>2011-04-30T06:51:15Z</time>
<desc>lat.=20.916763, lon.=107.023003, Alt.=10.271858m. Speed=8.496000m/h.</desc>
<speed>2.360000</speed>
</trkpt>
<trkpt lat="20.916681" lon="107.022942">
<ele>10.611458</ele>
<time>2011-04-30T06:51:20Z</time>
<desc>lat.=20.916681, lon.=107.022942, Alt.=10.611458m. Speed=8.136000m/h.</desc>
<speed>2.260000</speed>
</trkpt>
<trkpt lat="20.916594" lon="107.022873">
<ele>11.155647</ele>
<time>2011-04-30T06:51:25Z</time>
<desc>lat.=20.916594, lon.=107.022873, Alt.=11.155647m. Speed=8.424000m/h.</desc>
<speed>2.340000</speed>
</trkpt>
<trkpt lat="20.916512" lon="107.022812">
<ele>11.256233</ele>
<time>2011-04-30T06:51:30Z</time>
<desc>lat.=20.916512, lon.=107.022812, Alt.=11.256233m. Speed=8.388000m/h.</desc>
<speed>2.330000</speed>
</trkpt>
<trkpt lat="20.916437" lon="107.022736">
<ele>11.198860</ele>
<time>2011-04-30T06:51:35Z</time>
<desc>lat.=20.916437, lon.=107.022736, Alt.=11.198860m. Speed=8.568000m/h.</desc>
<speed>2.380000</speed>
</trkpt>
<trkpt lat="20.916361" lon="107.022667">
<ele>10.328499</ele>
<time>2011-04-30T06:51:40Z</time>
<desc>lat.=20.916361, lon.=107.022667, Alt.=10.328499m. Speed=8.424000m/h.</desc>
<speed>2.340000</speed>
</trkpt>
<trkpt lat="20.916285" lon="107.022598">
<ele>10.699104</ele>
<time>2011-04-30T06:51:45Z</time>
<desc>lat.=20.916285, lon.=107.022598, Alt.=10.699104m. Speed=8.172000m/h.</desc>
<speed>2.270000</speed>
</trkpt>
<trkpt lat="20.916203" lon="107.022530">
<ele>10.882698</ele>
<time>2011-04-30T06:51:50Z</time>
<desc>lat.=20.916203, lon.=107.022530, Alt.=10.882698m. Speed=8.496000m/h.</desc>
<speed>2.360000</speed>
</trkpt>
<trkpt lat="20.916121" lon="107.022453">
<ele>10.861702</ele>
<time>2011-04-30T06:51:55Z</time>
<desc>lat.=20.916121, lon.=107.022453, Alt.=10.861702m. Speed=8.316000m/h.</desc>
<speed>2.310000</speed>
</trkpt>
<trkpt lat="20.916048" lon="107.022369">
<ele>10.860481</ele>
<time>2011-04-30T06:52:00Z</time>
<desc>lat.=20.916048, lon.=107.022369, Alt.=10.860481m. Speed=8.352000m/h.</desc>
<speed>2.320000</speed>
</trkpt>
<trkpt lat="20.915974" lon="107.022293">
<ele>10.793098</ele>
<time>2011-04-30T06:52:05Z</time>
<desc>lat.=20.915974, lon.=107.022293, Alt.=10.793098m. Speed=8.532000m/h.</desc>
<speed>2.370000</speed>
</trkpt>
<trkpt lat="20.915907" lon="107.022202">
<ele>10.077766</ele>
<time>2011-04-30T06:52:10Z</time>
<desc>lat.=20.915907, lon.=107.022202, Alt.=10.077766m. Speed=8.604000m/h.</desc>
<speed>2.390000</speed>
</trkpt>
<trkpt lat="20.915838" lon="107.022110">
<ele>10.104622</ele>
<time>2011-04-30T06:52:15Z</time>
<desc>lat.=20.915838, lon.=107.022110, Alt.=10.104622m. Speed=8.496000m/h.</desc>
<speed>2.360000</speed>
</trkpt>
<trkpt lat="20.915775" lon="107.022018">
<ele>10.161263</ele>
<time>2011-04-30T06:52:20Z</time>
<desc>lat.=20.915775, lon.=107.022018, Alt.=10.161263m. Speed=8.496000m/h.</desc>
<speed>2.360000</speed>
</trkpt>
<trkpt lat="20.915716" lon="107.021919">
<ele>9.789192</ele>
<time>2011-04-30T06:52:25Z</time>
<desc>lat.=20.915716, lon.=107.021919, Alt.=9.789192m. Speed=8.676000m/h.</desc>
<speed>2.410000</speed>
</trkpt>
<trkpt lat="20.915661" lon="107.021812">
<ele>9.852180</ele>
<time>2011-04-30T06:52:30Z</time>
<desc>lat.=20.915661, lon.=107.021812, Alt.=9.852180m. Speed=8.784000m/h.</desc>
<speed>2.440000</speed>
</trkpt>
<trkpt lat="20.915600" lon="107.021713">
<ele>10.183479</ele>
<time>2011-04-30T06:52:35Z</time>
<desc>lat.=20.915600, lon.=107.021713, Alt.=10.183479m. Speed=8.820000m/h.</desc>
<speed>2.450000</speed>
</trkpt>
<trkpt lat="20.915543" lon="107.021622">
<ele>10.213264</ele>
<time>2011-04-30T06:52:40Z</time>
<desc>lat.=20.915543, lon.=107.021622, Alt.=10.213264m. Speed=8.712000m/h.</desc>
<speed>2.420000</speed>
</trkpt>
<trkpt lat="20.915483" lon="107.021523">
<ele>9.683723</ele>
<time>2011-04-30T06:52:45Z</time>
<desc>lat.=20.915483, lon.=107.021523, Alt.=9.683723m. Speed=8.784000m/h.</desc>
<speed>2.440000</speed>
</trkpt>
<trkpt lat="20.915430" lon="107.021431">
<ele>8.982063</ele>
<time>2011-04-30T06:52:50Z</time>
<desc>lat.=20.915430, lon.=107.021431, Alt.=8.982063m. Speed=8.784000m/h.</desc>
<speed>2.440000</speed>
</trkpt>
<trkpt lat="20.915365" lon="107.021332">
<ele>8.843391</ele>
<time>2011-04-30T06:52:55Z</time>
<desc>lat.=20.915365, lon.=107.021332, Alt.=8.843391m. Speed=8.568000m/h.</desc>
<speed>2.380000</speed>
</trkpt>
<trkpt lat="20.915298" lon="107.021240">
<ele>8.851448</ele>
<time>2011-04-30T06:53:00Z</time>
<desc>lat.=20.915298, lon.=107.021240, Alt.=8.851448m. Speed=8.712000m/h.</desc>
<speed>2.420000</speed>
</trkpt>
<trkpt lat="20.915228" lon="107.021149">
<ele>8.669075</ele>
<time>2011-04-30T06:53:05Z</time>
<desc>lat.=20.915228, lon.=107.021149, Alt.=8.669075m. Speed=8.964000m/h.</desc>
<speed>2.490000</speed>
</trkpt>
<trkpt lat="20.915161" lon="107.021049">
<ele>8.440315</ele>
<time>2011-04-30T06:53:10Z</time>
<desc>lat.=20.915161, lon.=107.021049, Alt.=8.440315m. Speed=8.784000m/h.</desc>
<speed>2.440000</speed>
</trkpt>
<trkpt lat="20.915098" lon="107.020950">
<ele>8.511360</ele>
<time>2011-04-30T06:53:15Z</time>
<desc>lat.=20.915098, lon.=107.020950, Alt.=8.511360m. Speed=8.928000m/h.</desc>
<speed>2.480000</speed>
</trkpt>
<trkpt lat="20.915035" lon="107.020851">
<ele>8.781624</ele>
<time>2011-04-30T06:53:20Z</time>
<desc>lat.=20.915035, lon.=107.020851, Alt.=8.781624m. Speed=8.856000m/h.</desc>
<speed>2.460000</speed>
</trkpt>
<trkpt lat="20.914970" lon="107.020760">
<ele>8.794075</ele>
<time>2011-04-30T06:53:25Z</time>
<desc>lat.=20.914970, lon.=107.020760, Alt.=8.794075m. Speed=8.676000m/h.</desc>
<speed>2.410000</speed>
</trkpt>
<trkpt lat="20.914904" lon="107.020676">
<ele>9.287727</ele>
<time>2011-04-30T06:53:30Z</time>
<desc>lat.=20.914904, lon.=107.020676, Alt.=9.287727m. Speed=8.352000m/h.</desc>
<speed>2.320000</speed>
</trkpt>
<trkpt lat="20.914827" lon="107.020599">
<ele>9.026253</ele>
<time>2011-04-30T06:53:35Z</time>
<desc>lat.=20.914827, lon.=107.020599, Alt.=9.026253m. Speed=8.676000m/h.</desc>
<speed>2.410000</speed>
</trkpt>
<trkpt lat="20.914749" lon="107.020523">
<ele>8.819710</ele>
<time>2011-04-30T06:53:40Z</time>
<desc>lat.=20.914749, lon.=107.020523, Alt.=8.819710m. Speed=7.920000m/h.</desc>
<speed>2.200000</speed>
</trkpt>
<trkpt lat="20.914665" lon="107.020454">
<ele>8.803596</ele>
<time>2011-04-30T06:53:45Z</time>
<desc>lat.=20.914665, lon.=107.020454, Alt.=8.803596m. Speed=8.064000m/h.</desc>
<speed>2.240000</speed>
</trkpt>
<trkpt lat="20.914560" lon="107.020386">
<ele>8.798225</ele>
<time>2011-04-30T06:53:50Z</time>
<desc>lat.=20.914560, lon.=107.020386, Alt.=8.798225m. Speed=7.920000m/h.</desc>
<speed>2.200000</speed>
</trkpt>
<trkpt lat="20.914473" lon="107.020325">
<ele>9.229622</ele>
<time>2011-04-30T06:53:55Z</time>
<desc>lat.=20.914473, lon.=107.020325, Alt.=9.229622m. Speed=8.172000m/h.</desc>
<speed>2.270000</speed>
</trkpt>
<trkpt lat="20.914394" lon="107.020264">
<ele>10.415169</ele>
<time>2011-04-30T06:54:00Z</time>
<desc>lat.=20.914394, lon.=107.020264, Alt.=10.415169m. Speed=8.604000m/h.</desc>
<speed>2.390000</speed>
</trkpt>
<trkpt lat="20.914316" lon="107.020203">
<ele>11.169319</ele>
<time>2011-04-30T06:54:05Z</time>
<desc>lat.=20.914316, lon.=107.020203, Alt.=11.169319m. Speed=7.812000m/h.</desc>
<speed>2.170000</speed>
</trkpt>
<trkpt lat="20.914240" lon="107.020126">
<ele>10.796272</ele>
<time>2011-04-30T06:54:10Z</time>
<desc>lat.=20.914240, lon.=107.020126, Alt.=10.796272m. Speed=7.992000m/h.</desc>
<speed>2.220000</speed>
</trkpt>
<trkpt lat="20.914171" lon="107.020058">
<ele>10.207161</ele>
<time>2011-04-30T06:54:15Z</time>
<desc>lat.=20.914171, lon.=107.020058, Alt.=10.207161m. Speed=7.776000m/h.</desc>
<speed>2.160000</speed>
</trkpt>
<trkpt lat="20.914106" lon="107.019989">
<ele>10.522835</ele>
<time>2011-04-30T06:54:20Z</time>
<desc>lat.=20.914106, lon.=107.019989, Alt.=10.522835m. Speed=7.668000m/h.</desc>
<speed>2.130000</speed>
</trkpt>
<trkpt lat="20.914061" lon="107.019913">
<ele>10.228645</ele>
<time>2011-04-30T06:54:25Z</time>
<desc>lat.=20.914061, lon.=107.019913, Alt.=10.228645m. Speed=7.704000m/h.</desc>
<speed>2.140000</speed>
</trkpt>
<trkpt lat="20.913992" lon="107.019836">
<ele>10.788216</ele>
<time>2011-04-30T06:54:30Z</time>
<desc>lat.=20.913992, lon.=107.019836, Alt.=10.788216m. Speed=7.488000m/h.</desc>
<speed>2.080000</speed>
</trkpt>
<trkpt lat="20.913929" lon="107.019753">
<ele>9.932503</ele>
<time>2011-04-30T06:54:35Z</time>
<desc>lat.=20.913929, lon.=107.019753, Alt.=9.932503m. Speed=7.776000m/h.</desc>
<speed>2.160000</speed>
</trkpt>
<trkpt lat="20.913864" lon="107.019669">
<ele>9.293831</ele>
<time>2011-04-30T06:54:40Z</time>
<desc>lat.=20.913864, lon.=107.019669, Alt.=9.293831m. Speed=7.848000m/h.</desc>
<speed>2.180000</speed>
</trkpt>
<trkpt lat="20.913807" lon="107.019577">
<ele>8.325813</ele>
<time>2011-04-30T06:54:45Z</time>
<desc>lat.=20.913807, lon.=107.019577, Alt.=8.325813m. Speed=7.668000m/h.</desc>
<speed>2.130000</speed>
</trkpt>
<trkpt lat="20.913744" lon="107.019493">
<ele>7.467472</ele>
<time>2011-04-30T06:54:50Z</time>
<desc>lat.=20.913744, lon.=107.019493, Alt.=7.467472m. Speed=8.064000m/h.</desc>
<speed>2.240000</speed>
</trkpt>
<trkpt lat="20.913675" lon="107.019402">
<ele>6.544498</ele>
<time>2011-04-30T06:54:55Z</time>
<desc>lat.=20.913675, lon.=107.019402, Alt.=6.544498m. Speed=8.100000m/h.</desc>
<speed>2.250000</speed>
</trkpt>
<trkpt lat="20.913622" lon="107.019318">
<ele>6.799625</ele>
<time>2011-04-30T06:55:00Z</time>
<desc>lat.=20.913622, lon.=107.019318, Alt.=6.799625m. Speed=7.776000m/h.</desc>
<speed>2.160000</speed>
</trkpt>
<trkpt lat="20.913553" lon="107.019241">
<ele>6.946354</ele>
<time>2011-04-30T06:55:05Z</time>
<desc>lat.=20.913553, lon.=107.019241, Alt.=6.946354m. Speed=7.668000m/h.</desc>
<speed>2.130000</speed>
</trkpt>
<trkpt lat="20.913494" lon="107.019150">
<ele>6.828556</ele>
<time>2011-04-30T06:55:10Z</time>
<desc>lat.=20.913494, lon.=107.019150, Alt.=6.828556m. Speed=7.884000m/h.</desc>
<speed>2.190000</speed>
</trkpt>
<trkpt lat="20.913437" lon="107.019073">
<ele>7.194767</ele>
<time>2011-04-30T06:55:15Z</time>
<desc>lat.=20.913437, lon.=107.019073, Alt.=7.194767m. Speed=7.848000m/h.</desc>
<speed>2.180000</speed>
</trkpt>
<trkpt lat="20.913382" lon="107.018997">
<ele>7.386539</ele>
<time>2011-04-30T06:55:20Z</time>
<desc>lat.=20.913382, lon.=107.018997, Alt.=7.386539m. Speed=7.776000m/h.</desc>
<speed>2.160000</speed>
</trkpt>
<trkpt lat="20.913328" lon="107.018906">
<ele>7.866520</ele>
<time>2011-04-30T06:55:25Z</time>
<desc>lat.=20.913328, lon.=107.018906, Alt.=7.866520m. Speed=7.560000m/h.</desc>
<speed>2.100000</speed>
</trkpt>
<trkpt lat="20.913271" lon="107.018829">
<ele>8.559456</ele>
<time>2011-04-30T06:55:30Z</time>
<desc>lat.=20.913271, lon.=107.018829, Alt.=8.559456m. Speed=7.740000m/h.</desc>
<speed>2.150000</speed>
</trkpt>
<trkpt lat="20.913239" lon="107.018730">
<ele>8.704475</ele>
<time>2011-04-30T06:55:35Z</time>
<desc>lat.=20.913239, lon.=107.018730, Alt.=8.704475m. Speed=7.668000m/h.</desc>
<speed>2.130000</speed>
</trkpt>
<trkpt lat="20.913177" lon="107.018661">
<ele>9.076057</ele>
<time>2011-04-30T06:55:40Z</time>
<desc>lat.=20.913177, lon.=107.018661, Alt.=9.076057m. Speed=7.092000m/h.</desc>
<speed>1.970000</speed>
</trkpt>
<trkpt lat="20.913139" lon="107.018555">
<ele>9.237190</ele>
<time>2011-04-30T06:55:45Z</time>
<desc>lat.=20.913139, lon.=107.018555, Alt.=9.237190m. Speed=6.948000m/h.</desc>
<speed>1.930000</speed>
</trkpt>
<trkpt lat="20.913078" lon="107.018494">
<ele>9.775764</ele>
<time>2011-04-30T06:55:50Z</time>
<desc>lat.=20.913078, lon.=107.018494, Alt.=9.775764m. Speed=4.572000m/h.</desc>
<speed>1.270000</speed>
</trkpt>
<trkpt lat="20.913038" lon="107.018417">
<ele>9.945198</ele>
<time>2011-04-30T06:55:55Z</time>
<desc>lat.=20.913038, lon.=107.018417, Alt.=9.945198m. Speed=5.688000m/h.</desc>
<speed>1.580000</speed>
</trkpt>
<trkpt lat="20.912983" lon="107.018364">
<ele>9.266487</ele>
<time>2011-04-30T06:56:00Z</time>
<desc>lat.=20.912983, lon.=107.018364, Alt.=9.266487m. Speed=5.508000m/h.</desc>
<speed>1.530000</speed>
</trkpt>
<trkpt lat="20.912947" lon="107.018295">
<ele>9.742073</ele>
<time>2011-04-30T06:56:05Z</time>
<desc>lat.=20.912947, lon.=107.018295, Alt.=9.742073m. Speed=4.644000m/h.</desc>
<speed>1.290000</speed>
</trkpt>
<trkpt lat="20.912922" lon="107.018250">
<ele>10.006233</ele>
<time>2011-04-30T06:56:10Z</time>
<desc>lat.=20.912922, lon.=107.018250, Alt.=10.006233m. Speed=3.744000m/h.</desc>
<speed>1.040000</speed>
</trkpt>
<trkpt lat="20.912899" lon="107.018204">
<ele>9.637581</ele>
<time>2011-04-30T06:56:15Z</time>
<desc>lat.=20.912899, lon.=107.018204, Alt.=9.637581m. Speed=3.960000m/h.</desc>
<speed>1.100000</speed>
</trkpt>
<trkpt lat="20.912876" lon="107.018158">
<ele>9.887337</ele>
<time>2011-04-30T06:56:20Z</time>
<desc>lat.=20.912876, lon.=107.018158, Alt.=9.887337m. Speed=4.248000m/h.</desc>
<speed>1.180000</speed>
</trkpt>
<trkpt lat="20.912848" lon="107.018112">
<ele>10.643684</ele>
<time>2011-04-30T06:56:25Z</time>
<desc>lat.=20.912848, lon.=107.018112, Alt.=10.643684m. Speed=3.888000m/h.</desc>
<speed>1.080000</speed>
</trkpt>
<trkpt lat="20.912815" lon="107.018059">
<ele>10.500374</ele>
<time>2011-04-30T06:56:30Z</time>
<desc>lat.=20.912815, lon.=107.018059, Alt.=10.500374m. Speed=4.644000m/h.</desc>
<speed>1.290000</speed>
</trkpt>
<trkpt lat="20.912798" lon="107.018021">
<ele>9.974983</ele>
<time>2011-04-30T06:56:35Z</time>
<desc>lat.=20.912798, lon.=107.018021, Alt.=9.974983m. Speed=2.520000m/h.</desc>
<speed>0.700000</speed>
</trkpt>
<trkpt lat="20.912783" lon="107.018005">
<ele>9.321663</ele>
<time>2011-04-30T06:56:40Z</time>
<desc>lat.=20.912783, lon.=107.018005, Alt.=9.321663m. Speed=1.728000m/h.</desc>
<speed>0.480000</speed>
</trkpt>
<trkpt lat="20.912764" lon="107.017990">
<ele>9.685677</ele>
<time>2011-04-30T06:56:45Z</time>
<desc>lat.=20.912764, lon.=107.017990, Alt.=9.685677m. Speed=1.872000m/h.</desc>
<speed>0.520000</speed>
</trkpt>
<trkpt lat="20.912746" lon="107.017975">
<ele>10.257454</ele>
<time>2011-04-30T06:56:50Z</time>
<desc>lat.=20.912746, lon.=107.017975, Alt.=10.257454m. Speed=1.800000m/h.</desc>
<speed>0.500000</speed>
</trkpt>
<trkpt lat="20.912727" lon="107.017960">
<ele>10.279671</ele>
<time>2011-04-30T06:56:55Z</time>
<desc>lat.=20.912727, lon.=107.017960, Alt.=10.279671m. Speed=2.016000m/h.</desc>
<speed>0.560000</speed>
</trkpt>
<trkpt lat="20.912704" lon="107.017944">
<ele>10.421516</ele>
<time>2011-04-30T06:57:00Z</time>
<desc>lat.=20.912704, lon.=107.017944, Alt.=10.421516m. Speed=2.052000m/h.</desc>
<speed>0.570000</speed>
</trkpt>
<trkpt lat="20.912691" lon="107.017937">
<ele>10.068977</ele>
<time>2011-04-30T06:57:05Z</time>
<desc>lat.=20.912691, lon.=107.017937, Alt.=10.068977m. Speed=1.656000m/h.</desc>
<speed>0.460000</speed>
</trkpt>
<trkpt lat="20.912678" lon="107.017929">
<ele>9.861946</ele>
<time>2011-04-30T06:57:10Z</time>
<desc>lat.=20.912678, lon.=107.017929, Alt.=9.861946m. Speed=2.160000m/h.</desc>
<speed>0.600000</speed>
</trkpt>
<trkpt lat="20.912674" lon="107.017906">
<ele>9.736946</ele>
<time>2011-04-30T06:57:15Z</time>
<desc>lat.=20.912674, lon.=107.017906, Alt.=9.736946m. Speed=2.088000m/h.</desc>
<speed>0.580000</speed>
</trkpt>
<trkpt lat="20.912674" lon="107.017891">
<ele>9.919807</ele>
<time>2011-04-30T06:57:20Z</time>
<desc>lat.=20.912674, lon.=107.017891, Alt.=9.919807m. Speed=2.124000m/h.</desc>
<speed>0.590000</speed>
</trkpt>
<trkpt lat="20.912663" lon="107.017860">
<ele>10.131477</ele>
<time>2011-04-30T06:57:25Z</time>
<desc>lat.=20.912663, lon.=107.017860, Alt.=10.131477m. Speed=2.268000m/h.</desc>
<speed>0.630000</speed>
</trkpt>
<trkpt lat="20.912655" lon="107.017838">
<ele>10.275764</ele>
<time>2011-04-30T06:57:30Z</time>
<desc>lat.=20.912655, lon.=107.017838, Alt.=10.275764m. Speed=2.052000m/h.</desc>
<speed>0.570000</speed>
</trkpt>
<trkpt lat="20.912655" lon="107.017792">
<ele>8.357063</ele>
<time>2011-04-30T06:57:35Z</time>
<desc>lat.=20.912655, lon.=107.017792, Alt.=8.357063m. Speed=1.764000m/h.</desc>
<speed>0.490000</speed>
</trkpt>
<trkpt lat="20.912659" lon="107.017761">
<ele>7.445621</ele>
<time>2011-04-30T06:57:40Z</time>
<desc>lat.=20.912659, lon.=107.017761, Alt.=7.445621m. Speed=0.504000m/h.</desc>
<speed>0.140000</speed>
</trkpt>
<trkpt lat="20.912659" lon="107.017761">
<ele>7.303532</ele>
<time>2011-04-30T06:57:45Z</time>
<desc>lat.=20.912659, lon.=107.017761, Alt.=7.303532m. Speed=0.504000m/h.</desc>
<speed>0.140000</speed>
</trkpt>
<trkpt lat="20.912657" lon="107.017754">
<ele>7.205265</ele>
<time>2011-04-30T06:57:50Z</time>
<desc>lat.=20.912657, lon.=107.017754, Alt.=7.205265m. Speed=0.252000m/h.</desc>
<speed>0.070000</speed>
</trkpt>
<trkpt lat="20.912657" lon="107.017746">
<ele>7.095768</ele>
<time>2011-04-30T06:57:55Z</time>
<desc>lat.=20.912657, lon.=107.017746, Alt.=7.095768m. Speed=0.396000m/h.</desc>
<speed>0.110000</speed>
</trkpt>
<trkpt lat="20.912659" lon="107.017738">
<ele>7.034489</ele>
<time>2011-04-30T06:58:00Z</time>
<desc>lat.=20.912659, lon.=107.017738, Alt.=7.034489m. Speed=0.360000m/h.</desc>
<speed>0.100000</speed>
</trkpt>
<trkpt lat="20.912659" lon="107.017738">
<ele>6.982853</ele>
<time>2011-04-30T06:58:05Z</time>
<desc>lat.=20.912659, lon.=107.017738, Alt.=6.982853m. Speed=0.504000m/h.</desc>
<speed>0.140000</speed>
</trkpt>
<trkpt lat="20.912657" lon="107.017731">
<ele>6.982487</ele>
<time>2011-04-30T06:58:10Z</time>
<desc>lat.=20.912657, lon.=107.017731, Alt.=6.982487m. Speed=0.828000m/h.</desc>
<speed>0.230000</speed>
</trkpt>
<trkpt lat="20.912655" lon="107.017723">
<ele>6.899723</ele>
<time>2011-04-30T06:58:15Z</time>
<desc>lat.=20.912655, lon.=107.017723, Alt.=6.899723m. Speed=0.360000m/h.</desc>
<speed>0.100000</speed>
</trkpt>
<trkpt lat="20.912653" lon="107.017715">
<ele>6.733829</ele>
<time>2011-04-30T06:58:20Z</time>
<desc>lat.=20.912653, lon.=107.017715, Alt.=6.733829m. Speed=0.720000m/h.</desc>
<speed>0.200000</speed>
</trkpt>
<trkpt lat="20.912647" lon="107.017700">
<ele>7.580997</ele>
<time>2011-04-30T06:58:25Z</time>
<desc>lat.=20.912647, lon.=107.017700, Alt.=7.580997m. Speed=1.476000m/h.</desc>
<speed>0.410000</speed>
</trkpt>
<trkpt lat="20.912638" lon="107.017693">
<ele>7.983585</ele>
<time>2011-04-30T06:58:30Z</time>
<desc>lat.=20.912638, lon.=107.017693, Alt.=7.983585m. Speed=1.692000m/h.</desc>
<speed>0.470000</speed>
</trkpt>
<trkpt lat="20.912640" lon="107.017685">
<ele>7.534489</ele>
<time>2011-04-30T06:58:35Z</time>
<desc>lat.=20.912640, lon.=107.017685, Alt.=7.534489m. Speed=0.216000m/h.</desc>
<speed>0.060000</speed>
</trkpt>
<trkpt lat="20.912651" lon="107.017662">
<ele>7.332462</ele>
<time>2011-04-30T06:58:40Z</time>
<desc>lat.=20.912651, lon.=107.017662, Alt.=7.332462m. Speed=1.476000m/h.</desc>
<speed>0.410000</speed>
</trkpt>
<trkpt lat="20.912655" lon="107.017632">
<ele>7.108219</ele>
<time>2011-04-30T06:58:45Z</time>
<desc>lat.=20.912655, lon.=107.017632, Alt.=7.108219m. Speed=0.252000m/h.</desc>
<speed>0.070000</speed>
</trkpt>
<trkpt lat="20.912645" lon="107.017601">
<ele>7.815983</ele>
<time>2011-04-30T06:58:50Z</time>
<desc>lat.=20.912645, lon.=107.017601, Alt.=7.815983m. Speed=0.216000m/h.</desc>
<speed>0.060000</speed>
</trkpt>
<trkpt lat="20.912649" lon="107.017609">
<ele>8.744270</ele>
<time>2011-04-30T06:58:55Z</time>
<desc>lat.=20.912649, lon.=107.017609, Alt.=8.744270m. Speed=0.396000m/h.</desc>
<speed>0.110000</speed>
</trkpt>
<trkpt lat="20.912661" lon="107.017632">
<ele>8.853645</ele>
<time>2011-04-30T06:59:00Z</time>
<desc>lat.=20.912661, lon.=107.017632, Alt.=8.853645m. Speed=0.864000m/h.</desc>
<speed>0.240000</speed>
</trkpt>
<trkpt lat="20.912661" lon="107.017647">
<ele>9.208138</ele>
<time>2011-04-30T06:59:05Z</time>
<desc>lat.=20.912661, lon.=107.017647, Alt.=9.208138m. Speed=0.540000m/h.</desc>
<speed>0.150000</speed>
</trkpt>
<trkpt lat="20.912659" lon="107.017647">
<ele>9.548470</ele>
<time>2011-04-30T06:59:10Z</time>
<desc>lat.=20.912659, lon.=107.017647, Alt.=9.548470m. Speed=0.432000m/h.</desc>
<speed>0.120000</speed>
</trkpt>
<trkpt lat="20.912664" lon="107.017639">
<ele>9.737679</ele>
<time>2011-04-30T06:59:15Z</time>
<desc>lat.=20.912664, lon.=107.017639, Alt.=9.737679m. Speed=0.792000m/h.</desc>
<speed>0.220000</speed>
</trkpt>
<trkpt lat="20.912659" lon="107.017632">
<ele>8.697884</ele>
<time>2011-04-30T06:59:20Z</time>
<desc>lat.=20.912659, lon.=107.017632, Alt.=8.697884m. Speed=3.852000m/h.</desc>
<speed>1.070000</speed>
</trkpt>
<trkpt lat="20.912647" lon="107.017586">
<ele>10.006477</ele>
<time>2011-04-30T06:59:25Z</time>
<desc>lat.=20.912647, lon.=107.017586, Alt.=10.006477m. Speed=4.140000m/h.</desc>
<speed>1.150000</speed>
</trkpt>
<trkpt lat="20.912630" lon="107.017548">
<ele>10.617561</ele>
<time>2011-04-30T06:59:30Z</time>
<desc>lat.=20.912630, lon.=107.017548, Alt.=10.617561m. Speed=4.068000m/h.</desc>
<speed>1.130000</speed>
</trkpt>
<trkpt lat="20.912624" lon="107.017525">
<ele>10.880257</ele>
<time>2011-04-30T06:59:35Z</time>
<desc>lat.=20.912624, lon.=107.017525, Alt.=10.880257m. Speed=1.512000m/h.</desc>
<speed>0.420000</speed>
</trkpt>
<trkpt lat="20.912624" lon="107.017509">
<ele>10.831429</ele>
<time>2011-04-30T06:59:40Z</time>
<desc>lat.=20.912624, lon.=107.017509, Alt.=10.831429m. Speed=1.296000m/h.</desc>
<speed>0.360000</speed>
</trkpt>
<trkpt lat="20.912621" lon="107.017502">
<ele>10.425423</ele>
<time>2011-04-30T06:59:45Z</time>
<desc>lat.=20.912621, lon.=107.017502, Alt.=10.425423m. Speed=0.612000m/h.</desc>
<speed>0.170000</speed>
</trkpt>
<trkpt lat="20.912624" lon="107.017487">
<ele>10.309456</ele>
<time>2011-04-30T06:59:50Z</time>
<desc>lat.=20.912624, lon.=107.017487, Alt.=10.309456m. Speed=1.116000m/h.</desc>
<speed>0.310000</speed>
</trkpt>
<trkpt lat="20.912609" lon="107.017464">
<ele>10.297493</ele>
<time>2011-04-30T06:59:55Z</time>
<desc>lat.=20.912609, lon.=107.017464, Alt.=10.297493m. Speed=1.944000m/h.</desc>
<speed>0.540000</speed>
</trkpt>
<trkpt lat="20.912622" lon="107.017456">
<ele>10.426888</ele>
<time>2011-04-30T07:00:00Z</time>
<desc>lat.=20.912622, lon.=107.017456, Alt.=10.426888m. Speed=1.080000m/h.</desc>
<speed>0.300000</speed>
</trkpt>
<trkpt lat="20.912678" lon="107.017426">
<ele>10.621468</ele>
<time>2011-04-30T07:00:05Z</time>
<desc>lat.=20.912678, lon.=107.017426, Alt.=10.621468m. Speed=3.672000m/h.</desc>
<speed>1.020000</speed>
</trkpt>
<trkpt lat="20.912691" lon="107.017410">
<ele>11.613411</ele>
<time>2011-04-30T07:00:10Z</time>
<desc>lat.=20.912691, lon.=107.017410, Alt.=11.613411m. Speed=0.540000m/h.</desc>
<speed>0.150000</speed>
</trkpt>
<trkpt lat="20.912699" lon="107.017410">
<ele>11.893440</ele>
<time>2011-04-30T07:00:15Z</time>
<desc>lat.=20.912699, lon.=107.017410, Alt.=11.893440m. Speed=0.540000m/h.</desc>
<speed>0.150000</speed>
</trkpt>
<trkpt lat="20.912703" lon="107.017418">
<ele>12.184456</ele>
<time>2011-04-30T07:00:20Z</time>
<desc>lat.=20.912703, lon.=107.017418, Alt.=12.184456m. Speed=0.504000m/h.</desc>
<speed>0.140000</speed>
</trkpt>
<trkpt lat="20.912703" lon="107.017433">
<ele>12.714729</ele>
<time>2011-04-30T07:00:25Z</time>
<desc>lat.=20.912703, lon.=107.017433, Alt.=12.714729m. Speed=1.404000m/h.</desc>
<speed>0.390000</speed>
</trkpt>
<trkpt lat="20.912720" lon="107.017448">
<ele>13.182014</ele>
<time>2011-04-30T07:00:30Z</time>
<desc>lat.=20.912720, lon.=107.017448, Alt.=13.182014m. Speed=0.036000m/h.</desc>
<speed>0.010000</speed>
</trkpt>
<trkpt lat="20.912722" lon="107.017448">
<ele>13.625130</ele>
<time>2011-04-30T07:00:35Z</time>
<desc>lat.=20.912722, lon.=107.017448, Alt.=13.625130m. Speed=0.504000m/h.</desc>
<speed>0.140000</speed>
</trkpt>
<trkpt lat="20.912727" lon="107.017448">
<ele>14.011604</ele>
<time>2011-04-30T07:00:40Z</time>
<desc>lat.=20.912727, lon.=107.017448, Alt.=14.011604m. Speed=0.396000m/h.</desc>
<speed>0.110000</speed>
</trkpt>
<trkpt lat="20.912729" lon="107.017448">
<ele>14.491585</ele>
<time>2011-04-30T07:00:45Z</time>
<desc>lat.=20.912729, lon.=107.017448, Alt.=14.491585m. Speed=0.324000m/h.</desc>
<speed>0.090000</speed>
</trkpt>
<trkpt lat="20.912733" lon="107.017448">
<ele>15.043098</ele>
<time>2011-04-30T07:00:50Z</time>
<desc>lat.=20.912733, lon.=107.017448, Alt.=15.043098m. Speed=0.144000m/h.</desc>
<speed>0.040000</speed>
</trkpt>
<trkpt lat="20.912739" lon="107.017448">
<ele>15.690315</ele>
<time>2011-04-30T07:00:55Z</time>
<desc>lat.=20.912739, lon.=107.017448, Alt.=15.690315m. Speed=0.432000m/h.</desc>
<speed>0.120000</speed>
</trkpt>
<trkpt lat="20.912746" lon="107.017448">
<ele>16.421646</ele>
<time>2011-04-30T07:01:00Z</time>
<desc>lat.=20.912746, lon.=107.017448, Alt.=16.421646m. Speed=0.792000m/h.</desc>
<speed>0.220000</speed>
</trkpt>
<trkpt lat="20.912754" lon="107.017456">
<ele>17.192154</ele>
<time>2011-04-30T07:01:05Z</time>
<desc>lat.=20.912754, lon.=107.017456, Alt.=17.192154m. Speed=0.684000m/h.</desc>
<speed>0.190000</speed>
</trkpt>
<trkpt lat="20.912754" lon="107.017448">
<ele>17.978287</ele>
<time>2011-04-30T07:01:10Z</time>
<desc>lat.=20.912754, lon.=107.017448, Alt.=17.978287m. Speed=0.576000m/h.</desc>
<speed>0.160000</speed>
</trkpt>
<trkpt lat="20.912762" lon="107.017448">
<ele>18.737564</ele>
<time>2011-04-30T07:01:15Z</time>
<desc>lat.=20.912762, lon.=107.017448, Alt.=18.737564m. Speed=0.324000m/h.</desc>
<speed>0.090000</speed>
</trkpt>
<trkpt lat="20.912767" lon="107.017448">
<ele>19.475845</ele>
<time>2011-04-30T07:01:20Z</time>
<desc>lat.=20.912767, lon.=107.017448, Alt.=19.475845m. Speed=0.468000m/h.</desc>
<speed>0.130000</speed>
</trkpt>
<trkpt lat="20.912771" lon="107.017448">
<ele>20.200455</ele>
<time>2011-04-30T07:01:25Z</time>
<desc>lat.=20.912771, lon.=107.017448, Alt.=20.200455m. Speed=0.432000m/h.</desc>
<speed>0.120000</speed>
</trkpt>
<trkpt lat="20.912773" lon="107.017448">
<ele>20.922623</ele>
<time>2011-04-30T07:01:30Z</time>
<desc>lat.=20.912773, lon.=107.017448, Alt.=20.922623m. Speed=0.144000m/h.</desc>
<speed>0.040000</speed>
</trkpt>
<trkpt lat="20.912777" lon="107.017448">
<ele>21.644791</ele>
<time>2011-04-30T07:01:35Z</time>
<desc>lat.=20.912777, lon.=107.017448, Alt.=21.644791m. Speed=0.432000m/h.</desc>
<speed>0.120000</speed>
</trkpt>
<trkpt lat="20.912775" lon="107.017456">
<ele>22.364029</ele>
<time>2011-04-30T07:01:40Z</time>
<desc>lat.=20.912775, lon.=107.017456, Alt.=22.364029m. Speed=0.576000m/h.</desc>
<speed>0.160000</speed>
</trkpt>
<trkpt lat="20.912773" lon="107.017456">
<ele>23.069595</ele>
<time>2011-04-30T07:01:45Z</time>
<desc>lat.=20.912773, lon.=107.017456, Alt.=23.069595m. Speed=0.324000m/h.</desc>
<speed>0.090000</speed>
</trkpt>
<trkpt lat="20.912764" lon="107.017456">
<ele>23.563248</ele>
<time>2011-04-30T07:01:50Z</time>
<desc>lat.=20.912764, lon.=107.017456, Alt.=23.563248m. Speed=3.096000m/h.</desc>
<speed>0.860000</speed>
</trkpt>
<trkpt lat="20.912764" lon="107.017426">
<ele>23.540787</ele>
<time>2011-04-30T07:01:55Z</time>
<desc>lat.=20.912764, lon.=107.017426, Alt.=23.540787m. Speed=0.864000m/h.</desc>
<speed>0.240000</speed>
</trkpt>
<trkpt lat="20.912762" lon="107.017433">
<ele>22.986588</ele>
<time>2011-04-30T07:02:00Z</time>
<desc>lat.=20.912762, lon.=107.017433, Alt.=22.986588m. Speed=0.576000m/h.</desc>
<speed>0.160000</speed>
</trkpt>
<trkpt lat="20.912766" lon="107.017433">
<ele>22.990005</ele>
<time>2011-04-30T07:02:05Z</time>
<desc>lat.=20.912766, lon.=107.017433, Alt.=22.990005m. Speed=0.612000m/h.</desc>
<speed>0.170000</speed>
</trkpt>
<trkpt lat="20.912771" lon="107.017441">
<ele>23.036880</ele>
<time>2011-04-30T07:02:10Z</time>
<desc>lat.=20.912771, lon.=107.017441, Alt.=23.036880m. Speed=0.792000m/h.</desc>
<speed>0.220000</speed>
</trkpt>
<trkpt lat="20.912777" lon="107.017441">
<ele>23.038834</ele>
<time>2011-04-30T07:02:15Z</time>
<desc>lat.=20.912777, lon.=107.017441, Alt.=23.038834m. Speed=0.252000m/h.</desc>
<speed>0.070000</speed>
</trkpt>
<trkpt lat="20.912769" lon="107.017433">
<ele>22.710709</ele>
<time>2011-04-30T07:02:20Z</time>
<desc>lat.=20.912769, lon.=107.017433, Alt.=22.710709m. Speed=1.548000m/h.</desc>
<speed>0.430000</speed>
</trkpt>
<trkpt lat="20.912750" lon="107.017418">
<ele>22.965103</ele>
<time>2011-04-30T07:02:25Z</time>
<desc>lat.=20.912750, lon.=107.017418, Alt.=22.965103m. Speed=1.728000m/h.</desc>
<speed>0.480000</speed>
</trkpt>
<trkpt lat="20.912750" lon="107.017395">
<ele>23.047134</ele>
<time>2011-04-30T07:02:30Z</time>
<desc>lat.=20.912750, lon.=107.017395, Alt.=23.047134m. Speed=1.548000m/h.</desc>
<speed>0.430000</speed>
</trkpt>
<trkpt lat="20.912745" lon="107.017380">
<ele>23.099380</ele>
<time>2011-04-30T07:02:35Z</time>
<desc>lat.=20.912745, lon.=107.017380, Alt.=23.099380m. Speed=1.548000m/h.</desc>
<speed>0.430000</speed>
</trkpt>
<trkpt lat="20.912737" lon="107.017365">
<ele>22.958755</ele>
<time>2011-04-30T07:02:40Z</time>
<desc>lat.=20.912737, lon.=107.017365, Alt.=22.958755m. Speed=1.440000m/h.</desc>
<speed>0.400000</speed>
</trkpt>
<trkpt lat="20.912745" lon="107.017334">
<ele>23.043228</ele>
<time>2011-04-30T07:02:45Z</time>
<desc>lat.=20.912745, lon.=107.017334, Alt.=23.043228m. Speed=1.980000m/h.</desc>
<speed>0.550000</speed>
</trkpt>
<trkpt lat="20.912752" lon="107.017319">
<ele>23.293228</ele>
<time>2011-04-30T07:02:50Z</time>
<desc>lat.=20.912752, lon.=107.017319, Alt.=23.293228m. Speed=1.512000m/h.</desc>
<speed>0.420000</speed>
</trkpt>
<trkpt lat="20.912725" lon="107.017296">
<ele>23.477310</ele>
<time>2011-04-30T07:02:55Z</time>
<desc>lat.=20.912725, lon.=107.017296, Alt.=23.477310m. Speed=1.188000m/h.</desc>
<speed>0.330000</speed>
</trkpt>
<trkpt lat="20.912685" lon="107.017303">
<ele>24.100357</ele>
<time>2011-04-30T07:03:00Z</time>
<desc>lat.=20.912685, lon.=107.017303, Alt.=24.100357m. Speed=1.368000m/h.</desc>
<speed>0.380000</speed>
</trkpt>
<trkpt lat="20.912668" lon="107.017296">
<ele>26.139908</ele>
<time>2011-04-30T07:03:05Z</time>
<desc>lat.=20.912668, lon.=107.017296, Alt.=26.139908m. Speed=1.296000m/h.</desc>
<speed>0.360000</speed>
</trkpt>
<trkpt lat="20.912647" lon="107.017288">
<ele>26.989517</ele>
<time>2011-04-30T07:03:10Z</time>
<desc>lat.=20.912647, lon.=107.017288, Alt.=26.989517m. Speed=1.332000m/h.</desc>
<speed>0.370000</speed>
</trkpt>
<trkpt lat="20.912649" lon="107.017281">
<ele>27.602310</ele>
<time>2011-04-30T07:03:15Z</time>
<desc>lat.=20.912649, lon.=107.017281, Alt.=27.602310m. Speed=0.648000m/h.</desc>
<speed>0.180000</speed>
</trkpt>
<trkpt lat="20.912642" lon="107.017281">
<ele>28.406021</ele>
<time>2011-04-30T07:03:20Z</time>
<desc>lat.=20.912642, lon.=107.017281, Alt.=28.406021m. Speed=1.224000m/h.</desc>
<speed>0.340000</speed>
</trkpt>
<trkpt lat="20.912659" lon="107.017273">
<ele>28.979263</ele>
<time>2011-04-30T07:03:25Z</time>
<desc>lat.=20.912659, lon.=107.017273, Alt.=28.979263m. Speed=0.648000m/h.</desc>
<speed>0.180000</speed>
</trkpt>
<trkpt lat="20.912661" lon="107.017265">
<ele>29.647720</ele>
<time>2011-04-30T07:03:30Z</time>
<desc>lat.=20.912661, lon.=107.017265, Alt.=29.647720m. Speed=0.828000m/h.</desc>
<speed>0.230000</speed>
</trkpt>
<trkpt lat="20.912655" lon="107.017265">
<ele>30.287369</ele>
<time>2011-04-30T07:03:35Z</time>
<desc>lat.=20.912655, lon.=107.017265, Alt.=30.287369m. Speed=0.180000m/h.</desc>
<speed>0.050000</speed>
</trkpt>
<trkpt lat="20.912655" lon="107.017265">
<ele>31.035904</ele>
<time>2011-04-30T07:03:40Z</time>
<desc>lat.=20.912655, lon.=107.017265, Alt.=31.035904m. Speed=0.468000m/h.</desc>
<speed>0.130000</speed>
</trkpt>
<trkpt lat="20.912657" lon="107.017258">
<ele>31.825943</ele>
<time>2011-04-30T07:03:45Z</time>
<desc>lat.=20.912657, lon.=107.017258, Alt.=31.825943m. Speed=0.252000m/h.</desc>
<speed>0.070000</speed>
</trkpt>
<trkpt lat="20.912655" lon="107.017258">
<ele>32.595245</ele>
<time>2011-04-30T07:03:50Z</time>
<desc>lat.=20.912655, lon.=107.017258, Alt.=32.595245m. Speed=0.648000m/h.</desc>
<speed>0.180000</speed>
</trkpt>
<trkpt lat="20.912590" lon="107.017288">
<ele>32.793488</ele>
<time>2011-04-30T07:03:55Z</time>
<desc>lat.=20.912590, lon.=107.017288, Alt.=32.793488m. Speed=0.792000m/h.</desc>
<speed>0.220000</speed>
</trkpt>
<trkpt lat="20.912573" lon="107.017281">
<ele>33.379425</ele>
<time>2011-04-30T07:04:00Z</time>
<desc>lat.=20.912573, lon.=107.017281, Alt.=33.379425m. Speed=1.008000m/h.</desc>
<speed>0.280000</speed>
</trkpt>
<trkpt lat="20.912569" lon="107.017250">
<ele>34.624542</ele>
<time>2011-04-30T07:04:05Z</time>
<desc>lat.=20.912569, lon.=107.017250, Alt.=34.624542m. Speed=1.656000m/h.</desc>
<speed>0.460000</speed>
</trkpt>
<trkpt lat="20.912565" lon="107.017235">
<ele>35.475128</ele>
<time>2011-04-30T07:04:10Z</time>
<desc>lat.=20.912565, lon.=107.017235, Alt.=35.475128m. Speed=1.476000m/h.</desc>
<speed>0.410000</speed>
</trkpt>
<trkpt lat="20.912556" lon="107.017235">
<ele>35.937042</ele>
<time>2011-04-30T07:04:15Z</time>
<desc>lat.=20.912556, lon.=107.017235, Alt.=35.937042m. Speed=1.260000m/h.</desc>
<speed>0.350000</speed>
</trkpt>
<trkpt lat="20.912550" lon="107.017242">
<ele>36.635284</ele>
<time>2011-04-30T07:04:20Z</time>
<desc>lat.=20.912550, lon.=107.017242, Alt.=36.635284m. Speed=0.216000m/h.</desc>
<speed>0.060000</speed>
</trkpt>
<trkpt lat="20.912577" lon="107.017235">
<ele>37.115753</ele>
<time>2011-04-30T07:04:25Z</time>
<desc>lat.=20.912577, lon.=107.017235, Alt.=37.115753m. Speed=1.620000m/h.</desc>
<speed>0.450000</speed>
</trkpt>
<trkpt lat="20.912582" lon="107.017258">
<ele>37.740753</ele>
<time>2011-04-30T07:04:30Z</time>
<desc>lat.=20.912582, lon.=107.017258, Alt.=37.740753m. Speed=0.828000m/h.</desc>
<speed>0.230000</speed>
</trkpt>
<trkpt lat="20.912563" lon="107.017242">
<ele>38.187042</ele>
<time>2011-04-30T07:04:35Z</time>
<desc>lat.=20.912563, lon.=107.017242, Alt.=38.187042m. Speed=0.648000m/h.</desc>
<speed>0.180000</speed>
</trkpt>
<trkpt lat="20.912556" lon="107.017227">
<ele>38.818878</ele>
<time>2011-04-30T07:04:40Z</time>
<desc>lat.=20.912556, lon.=107.017227, Alt.=38.818878m. Speed=1.332000m/h.</desc>
<speed>0.370000</speed>
</trkpt>
<trkpt lat="20.912548" lon="107.017204">
<ele>39.366730</ele>
<time>2011-04-30T07:04:45Z</time>
<desc>lat.=20.912548, lon.=107.017204, Alt.=39.366730m. Speed=1.296000m/h.</desc>
<speed>0.360000</speed>
</trkpt>
<trkpt lat="20.912535" lon="107.017189">
<ele>39.942902</ele>
<time>2011-04-30T07:04:50Z</time>
<desc>lat.=20.912535, lon.=107.017189, Alt.=39.942902m. Speed=1.728000m/h.</desc>
<speed>0.480000</speed>
</trkpt>
<trkpt lat="20.912518" lon="107.017174">
<ele>40.534698</ele>
<time>2011-04-30T07:04:55Z</time>
<desc>lat.=20.912518, lon.=107.017174, Alt.=40.534698m. Speed=1.692000m/h.</desc>
<speed>0.470000</speed>
</trkpt>
<trkpt lat="20.911943" lon="107.017647">
<ele>39.422394</ele>
<time>2011-04-30T07:33:40Z</time>
<desc>lat.=20.911943, lon.=107.017647, Alt.=39.422394m. Speed=1.692000m/h.</desc>
<speed>0.470000</speed>
</trkpt>
<trkpt lat="20.912045" lon="107.017609">
<ele>38.111847</ele>
<time>2011-04-30T07:33:45Z</time>
<desc>lat.=20.912045, lon.=107.017609, Alt.=38.111847m. Speed=0.576000m/h.</desc>
<speed>0.160000</speed>
</trkpt>
<trkpt lat="20.912037" lon="107.017624">
<ele>36.648956</ele>
<time>2011-04-30T07:33:50Z</time>
<desc>lat.=20.912037, lon.=107.017624, Alt.=36.648956m. Speed=1.332000m/h.</desc>
<speed>0.370000</speed>
</trkpt>
<trkpt lat="20.911905" lon="107.017525">
<ele>31.122330</ele>
<time>2011-04-30T07:33:55Z</time>
<desc>lat.=20.911905, lon.=107.017525, Alt.=31.122330m. Speed=2.016000m/h.</desc>
<speed>0.560000</speed>
</trkpt>
<trkpt lat="20.911909" lon="107.017525">
<ele>27.807877</ele>
<time>2011-04-30T07:34:00Z</time>
<desc>lat.=20.911909, lon.=107.017525, Alt.=27.807877m. Speed=2.016000m/h.</desc>
<speed>0.560000</speed>
</trkpt>
<trkpt lat="20.911951" lon="107.017586">
<ele>26.417252</ele>
<time>2011-04-30T07:34:05Z</time>
<desc>lat.=20.911951, lon.=107.017586, Alt.=26.417252m. Speed=1.008000m/h.</desc>
<speed>0.280000</speed>
</trkpt>
<trkpt lat="20.911943" lon="107.017601">
<ele>22.788834</ele>
<time>2011-04-30T07:34:10Z</time>
<desc>lat.=20.911943, lon.=107.017601, Alt.=22.788834m. Speed=0.108000m/h.</desc>
<speed>0.030000</speed>
</trkpt>
<trkpt lat="20.911915" lon="107.017639">
<ele>22.579849</ele>
<time>2011-04-30T07:34:15Z</time>
<desc>lat.=20.911915, lon.=107.017639, Alt.=22.579849m. Speed=0.468000m/h.</desc>
<speed>0.130000</speed>
</trkpt>
<trkpt lat="20.911886" lon="107.017647">
<ele>22.797134</ele>
<time>2011-04-30T07:34:20Z</time>
<desc>lat.=20.911886, lon.=107.017647, Alt.=22.797134m. Speed=0.720000m/h.</desc>
<speed>0.200000</speed>
</trkpt>
<trkpt lat="20.911879" lon="107.017654">
<ele>22.799576</ele>
<time>2011-04-30T07:34:25Z</time>
<desc>lat.=20.911879, lon.=107.017654, Alt.=22.799576m. Speed=0.612000m/h.</desc>
<speed>0.170000</speed>
</trkpt>
<trkpt lat="20.911892" lon="107.017616">
<ele>22.956314</ele>
<time>2011-04-30T07:34:30Z</time>
<desc>lat.=20.911892, lon.=107.017616, Alt.=22.956314m. Speed=0.576000m/h.</desc>
<speed>0.160000</speed>
</trkpt>
<trkpt lat="20.911880" lon="107.017616">
<ele>23.111588</ele>
<time>2011-04-30T07:34:35Z</time>
<desc>lat.=20.911880, lon.=107.017616, Alt.=23.111588m. Speed=0.252000m/h.</desc>
<speed>0.070000</speed>
</trkpt>
<trkpt lat="20.911875" lon="107.017616">
<ele>23.078384</ele>
<time>2011-04-30T07:34:40Z</time>
<desc>lat.=20.911875, lon.=107.017616, Alt.=23.078384m. Speed=0.252000m/h.</desc>
<speed>0.070000</speed>
</trkpt>
<trkpt lat="20.911873" lon="107.017609">
<ele>23.556412</ele>
<time>2011-04-30T07:34:45Z</time>
<desc>lat.=20.911873, lon.=107.017609, Alt.=23.556412m. Speed=0.252000m/h.</desc>
<speed>0.070000</speed>
</trkpt>
<trkpt lat="20.911825" lon="107.017609">
<ele>23.308365</ele>
<time>2011-04-30T07:34:50Z</time>
<desc>lat.=20.911825, lon.=107.017609, Alt.=23.308365m. Speed=1.080000m/h.</desc>
<speed>0.300000</speed>
</trkpt>
<trkpt lat="20.911854" lon="107.017632">
<ele>23.103775</ele>
<time>2011-04-30T07:34:55Z</time>
<desc>lat.=20.911854, lon.=107.017632, Alt.=23.103775m. Speed=0.468000m/h.</desc>
<speed>0.130000</speed>
</trkpt>
<trkpt lat="20.911865" lon="107.017632">
<ele>22.518814</ele>
<time>2011-04-30T07:35:00Z</time>
<desc>lat.=20.911865, lon.=107.017632, Alt.=22.518814m. Speed=0.648000m/h.</desc>
<speed>0.180000</speed>
</trkpt>
<trkpt lat="20.911865" lon="107.017662">
<ele>22.776138</ele>
<time>2011-04-30T07:35:05Z</time>
<desc>lat.=20.911865, lon.=107.017662, Alt.=22.776138m. Speed=1.116000m/h.</desc>
<speed>0.310000</speed>
</trkpt>
<trkpt lat="20.911903" lon="107.017685">
<ele>21.764908</ele>
<time>2011-04-30T07:35:10Z</time>
<desc>lat.=20.911903, lon.=107.017685, Alt.=21.764908m. Speed=1.548000m/h.</desc>
<speed>0.430000</speed>
</trkpt>
<trkpt lat="20.911901" lon="107.017715">
<ele>21.352798</ele>
<time>2011-04-30T07:35:15Z</time>
<desc>lat.=20.911901, lon.=107.017715, Alt.=21.352798m. Speed=1.620000m/h.</desc>
<speed>0.450000</speed>
</trkpt>
<trkpt lat="20.911921" lon="107.017754">
<ele>20.795670</ele>
<time>2011-04-30T07:35:20Z</time>
<desc>lat.=20.911921, lon.=107.017754, Alt.=20.795670m. Speed=1.836000m/h.</desc>
<speed>0.510000</speed>
</trkpt>
<trkpt lat="20.911903" lon="107.017761">
<ele>20.181412</ele>
<time>2011-04-30T07:35:25Z</time>
<desc>lat.=20.911903, lon.=107.017761, Alt.=20.181412m. Speed=1.116000m/h.</desc>
<speed>0.310000</speed>
</trkpt>
<trkpt lat="20.911905" lon="107.017784">
<ele>20.037857</ele>
<time>2011-04-30T07:35:30Z</time>
<desc>lat.=20.911905, lon.=107.017784, Alt.=20.037857m. Speed=1.008000m/h.</desc>
<speed>0.280000</speed>
</trkpt>
<trkpt lat="20.911898" lon="107.017799">
<ele>19.682877</ele>
<time>2011-04-30T07:35:35Z</time>
<desc>lat.=20.911898, lon.=107.017799, Alt.=19.682877m. Speed=1.152000m/h.</desc>
<speed>0.320000</speed>
</trkpt>
<trkpt lat="20.911850" lon="107.017815">
<ele>18.897232</ele>
<time>2011-04-30T07:35:40Z</time>
<desc>lat.=20.911850, lon.=107.017815, Alt.=18.897232m. Speed=3.456000m/h.</desc>
<speed>0.960000</speed>
</trkpt>
<trkpt lat="20.911816" lon="107.017838">
<ele>19.085709</ele>
<time>2011-04-30T07:35:45Z</time>
<desc>lat.=20.911816, lon.=107.017838, Alt.=19.085709m. Speed=2.880000m/h.</desc>
<speed>0.800000</speed>
</trkpt>
<trkpt lat="20.911793" lon="107.017845">
<ele>19.611588</ele>
<time>2011-04-30T07:35:50Z</time>
<desc>lat.=20.911793, lon.=107.017845, Alt.=19.611588m. Speed=1.656000m/h.</desc>
<speed>0.460000</speed>
</trkpt>
<trkpt lat="20.911791" lon="107.017853">
<ele>20.811783</ele>
<time>2011-04-30T07:35:55Z</time>
<desc>lat.=20.911791, lon.=107.017853, Alt.=20.811783m. Speed=0.684000m/h.</desc>
<speed>0.190000</speed>
</trkpt>
<trkpt lat="20.911825" lon="107.017876">
<ele>22.292252</ele>
<time>2011-04-30T07:36:00Z</time>
<desc>lat.=20.911825, lon.=107.017876, Alt.=22.292252m. Speed=2.232000m/h.</desc>
<speed>0.620000</speed>
</trkpt>
<trkpt lat="20.911835" lon="107.017921">
<ele>24.902115</ele>
<time>2011-04-30T07:36:05Z</time>
<desc>lat.=20.911835, lon.=107.017921, Alt.=24.902115m. Speed=4.752000m/h.</desc>
<speed>1.320000</speed>
</trkpt>
<trkpt lat="20.911821" lon="107.017990">
<ele>27.601822</ele>
<time>2011-04-30T07:36:10Z</time>
<desc>lat.=20.911821, lon.=107.017990, Alt.=27.601822m. Speed=7.776000m/h.</desc>
<speed>2.160000</speed>
</trkpt>
<trkpt lat="20.911724" lon="107.018051">
<ele>31.526138</ele>
<time>2011-04-30T07:36:15Z</time>
<desc>lat.=20.911724, lon.=107.018051, Alt.=31.526138m. Speed=5.724000m/h.</desc>
<speed>1.590000</speed>
</trkpt>
<trkpt lat="20.911724" lon="107.018135">
<ele>33.956573</ele>
<time>2011-04-30T07:36:20Z</time>
<desc>lat.=20.911724, lon.=107.018135, Alt.=33.956573m. Speed=5.544000m/h.</desc>
<speed>1.540000</speed>
</trkpt>
<trkpt lat="20.911701" lon="107.018173">
<ele>37.135284</ele>
<time>2011-04-30T07:36:25Z</time>
<desc>lat.=20.911701, lon.=107.018173, Alt.=37.135284m. Speed=1.800000m/h.</desc>
<speed>0.500000</speed>
</trkpt>
<trkpt lat="20.911694" lon="107.018188">
<ele>36.827667</ele>
<time>2011-04-30T07:36:30Z</time>
<desc>lat.=20.911694, lon.=107.018188, Alt.=36.827667m. Speed=1.044000m/h.</desc>
<speed>0.290000</speed>
</trkpt>
<trkpt lat="20.911674" lon="107.018250">
<ele>36.139191</ele>
<time>2011-04-30T07:36:35Z</time>
<desc>lat.=20.911674, lon.=107.018250, Alt.=36.139191m. Speed=1.296000m/h.</desc>
<speed>0.360000</speed>
</trkpt>
<trkpt lat="20.911655" lon="107.018295">
<ele>35.257355</ele>
<time>2011-04-30T07:36:40Z</time>
<desc>lat.=20.911655, lon.=107.018295, Alt.=35.257355m. Speed=4.248000m/h.</desc>
<speed>1.180000</speed>
</trkpt>
<trkpt lat="20.911655" lon="107.018349">
<ele>33.907745</ele>
<time>2011-04-30T07:36:45Z</time>
<desc>lat.=20.911655, lon.=107.018349, Alt.=33.907745m. Speed=2.448000m/h.</desc>
<speed>0.680000</speed>
</trkpt>
<trkpt lat="20.911642" lon="107.018379">
<ele>32.455597</ele>
<time>2011-04-30T07:36:50Z</time>
<desc>lat.=20.911642, lon.=107.018379, Alt.=32.455597m. Speed=2.592000m/h.</desc>
<speed>0.720000</speed>
</trkpt>
<trkpt lat="20.911579" lon="107.018410">
<ele>31.454849</ele>
<time>2011-04-30T07:36:55Z</time>
<desc>lat.=20.911579, lon.=107.018410, Alt.=31.454849m. Speed=2.700000m/h.</desc>
<speed>0.750000</speed>
</trkpt>
<trkpt lat="20.911543" lon="107.018440">
<ele>30.360123</ele>
<time>2011-04-30T07:37:00Z</time>
<desc>lat.=20.911543, lon.=107.018440, Alt.=30.360123m. Speed=2.484000m/h.</desc>
<speed>0.690000</speed>
</trkpt>
<trkpt lat="20.911509" lon="107.018456">
<ele>29.051041</ele>
<time>2011-04-30T07:37:05Z</time>
<desc>lat.=20.911509, lon.=107.018456, Alt.=29.051041m. Speed=3.456000m/h.</desc>
<speed>0.960000</speed>
</trkpt>
<trkpt lat="20.911463" lon="107.018456">
<ele>27.807388</ele>
<time>2011-04-30T07:37:10Z</time>
<desc>lat.=20.911463, lon.=107.018456, Alt.=27.807388m. Speed=1.692000m/h.</desc>
<speed>0.470000</speed>
</trkpt>
<trkpt lat="20.911411" lon="107.018463">
<ele>26.314713</ele>
<time>2011-04-30T07:37:15Z</time>
<desc>lat.=20.911411, lon.=107.018463, Alt.=26.314713m. Speed=2.556000m/h.</desc>
<speed>0.710000</speed>
</trkpt>
<trkpt lat="20.911377" lon="107.018478">
<ele>25.192154</ele>
<time>2011-04-30T07:37:20Z</time>
<desc>lat.=20.911377, lon.=107.018478, Alt.=25.192154m. Speed=1.512000m/h.</desc>
<speed>0.420000</speed>
</trkpt>
<trkpt lat="20.911327" lon="107.018471">
<ele>23.299576</ele>
<time>2011-04-30T07:37:25Z</time>
<desc>lat.=20.911327, lon.=107.018471, Alt.=23.299576m. Speed=3.132000m/h.</desc>
<speed>0.870000</speed>
</trkpt>
<trkpt lat="20.911297" lon="107.018463">
<ele>22.352310</ele>
<time>2011-04-30T07:37:30Z</time>
<desc>lat.=20.911297, lon.=107.018463, Alt.=22.352310m. Speed=2.520000m/h.</desc>
<speed>0.700000</speed>
</trkpt>
<trkpt lat="20.911266" lon="107.018471">
<ele>21.907974</ele>
<time>2011-04-30T07:37:35Z</time>
<desc>lat.=20.911266, lon.=107.018471, Alt.=21.907974m. Speed=3.204000m/h.</desc>
<speed>0.890000</speed>
</trkpt>
<trkpt lat="20.911222" lon="107.018456">
<ele>22.344009</ele>
<time>2011-04-30T07:37:40Z</time>
<desc>lat.=20.911222, lon.=107.018456, Alt.=22.344009m. Speed=2.412000m/h.</desc>
<speed>0.670000</speed>
</trkpt>
<trkpt lat="20.911188" lon="107.018471">
<ele>22.583267</ele>
<time>2011-04-30T07:37:45Z</time>
<desc>lat.=20.911188, lon.=107.018471, Alt.=22.583267m. Speed=2.340000m/h.</desc>
<speed>0.650000</speed>
</trkpt>
<trkpt lat="20.911150" lon="107.018486">
<ele>22.411392</ele>
<time>2011-04-30T07:37:50Z</time>
<desc>lat.=20.911150, lon.=107.018486, Alt.=22.411392m. Speed=1.908000m/h.</desc>
<speed>0.530000</speed>
</trkpt>
<trkpt lat="20.911123" lon="107.018494">
<ele>22.110123</ele>
<time>2011-04-30T07:37:55Z</time>
<desc>lat.=20.911123, lon.=107.018494, Alt.=22.110123m. Speed=1.944000m/h.</desc>
<speed>0.540000</speed>
</trkpt>
<trkpt lat="20.911055" lon="107.018478">
<ele>21.843521</ele>
<time>2011-04-30T07:38:00Z</time>
<desc>lat.=20.911055, lon.=107.018478, Alt.=21.843521m. Speed=1.296000m/h.</desc>
<speed>0.360000</speed>
</trkpt>
<trkpt lat="20.911043" lon="107.018509">
<ele>21.960220</ele>
<time>2011-04-30T07:38:05Z</time>
<desc>lat.=20.911043, lon.=107.018509, Alt.=21.960220m. Speed=1.296000m/h.</desc>
<speed>0.360000</speed>
</trkpt>
<trkpt lat="20.911104" lon="107.018547">
<ele>21.294205</ele>
<time>2011-04-30T07:38:10Z</time>
<desc>lat.=20.911104, lon.=107.018547, Alt.=21.294205m. Speed=0.900000m/h.</desc>
<speed>0.250000</speed>
</trkpt>
<trkpt lat="20.911110" lon="107.018562">
<ele>21.388931</ele>
<time>2011-04-30T07:38:15Z</time>
<desc>lat.=20.911110, lon.=107.018562, Alt.=21.388931m. Speed=0.576000m/h.</desc>
<speed>0.160000</speed>
</trkpt>
<trkpt lat="20.911116" lon="107.018570">
<ele>21.652115</ele>
<time>2011-04-30T07:38:20Z</time>
<desc>lat.=20.911116, lon.=107.018570, Alt.=21.652115m. Speed=0.936000m/h.</desc>
<speed>0.260000</speed>
</trkpt>
<trkpt lat="20.911121" lon="107.018578">
<ele>21.909439</ele>
<time>2011-04-30T07:38:25Z</time>
<desc>lat.=20.911121, lon.=107.018578, Alt.=21.909439m. Speed=1.080000m/h.</desc>
<speed>0.300000</speed>
</trkpt>
<trkpt lat="20.911114" lon="107.018616">
<ele>22.035416</ele>
<time>2011-04-30T07:38:30Z</time>
<desc>lat.=20.911114, lon.=107.018616, Alt.=22.035416m. Speed=1.512000m/h.</desc>
<speed>0.420000</speed>
</trkpt>
<trkpt lat="20.911116" lon="107.018669">
<ele>21.973404</ele>
<time>2011-04-30T07:38:35Z</time>
<desc>lat.=20.911116, lon.=107.018669, Alt.=21.973404m. Speed=1.836000m/h.</desc>
<speed>0.510000</speed>
</trkpt>
<trkpt lat="20.911074" lon="107.018715">
<ele>21.812759</ele>
<time>2011-04-30T07:38:40Z</time>
<desc>lat.=20.911074, lon.=107.018715, Alt.=21.812759m. Speed=1.296000m/h.</desc>
<speed>0.360000</speed>
</trkpt>
<trkpt lat="20.911047" lon="107.018723">
<ele>22.021744</ele>
<time>2011-04-30T07:38:45Z</time>
<desc>lat.=20.911047, lon.=107.018723, Alt.=22.021744m. Speed=1.440000m/h.</desc>
<speed>0.400000</speed>
</trkpt>
<trkpt lat="20.911064" lon="107.018776">
<ele>22.959732</ele>
<time>2011-04-30T07:38:50Z</time>
<desc>lat.=20.911064, lon.=107.018776, Alt.=22.959732m. Speed=0.720000m/h.</desc>
<speed>0.200000</speed>
</trkpt>
<trkpt lat="20.911081" lon="107.018814">
<ele>23.173599</ele>
<time>2011-04-30T07:38:55Z</time>
<desc>lat.=20.911081, lon.=107.018814, Alt.=23.173599m. Speed=1.944000m/h.</desc>
<speed>0.540000</speed>
</trkpt>
<trkpt lat="20.911070" lon="107.018845">
<ele>23.452896</ele>
<time>2011-04-30T07:39:00Z</time>
<desc>lat.=20.911070, lon.=107.018845, Alt.=23.452896m. Speed=1.404000m/h.</desc>
<speed>0.390000</speed>
</trkpt>
<trkpt lat="20.911026" lon="107.018860">
<ele>23.293716</ele>
<time>2011-04-30T07:39:05Z</time>
<desc>lat.=20.911026, lon.=107.018860, Alt.=23.293716m. Speed=1.368000m/h.</desc>
<speed>0.380000</speed>
</trkpt>
<trkpt lat="20.910995" lon="107.018867">
<ele>23.152115</ele>
<time>2011-04-30T07:39:10Z</time>
<desc>lat.=20.910995, lon.=107.018867, Alt.=23.152115m. Speed=1.332000m/h.</desc>
<speed>0.370000</speed>
</trkpt>
<trkpt lat="20.911045" lon="107.018890">
<ele>22.248306</ele>
<time>2011-04-30T07:39:15Z</time>
<desc>lat.=20.911045, lon.=107.018890, Alt.=22.248306m. Speed=2.016000m/h.</desc>
<speed>0.560000</speed>
</trkpt>
<trkpt lat="20.911110" lon="107.018921">
<ele>21.356216</ele>
<time>2011-04-30T07:39:20Z</time>
<desc>lat.=20.911110, lon.=107.018921, Alt.=21.356216m. Speed=1.980000m/h.</desc>
<speed>0.550000</speed>
</trkpt>
<trkpt lat="20.911129" lon="107.018898">
<ele>20.936783</ele>
<time>2011-04-30T07:39:25Z</time>
<desc>lat.=20.911129, lon.=107.018898, Alt.=20.936783m. Speed=2.880000m/h.</desc>
<speed>0.800000</speed>
</trkpt>
<trkpt lat="20.911161" lon="107.018852">
<ele>22.320572</ele>
<time>2011-04-30T07:39:30Z</time>
<desc>lat.=20.911161, lon.=107.018852, Alt.=22.320572m. Speed=3.240000m/h.</desc>
<speed>0.900000</speed>
</trkpt>
<trkpt lat="20.911173" lon="107.018791">
<ele>23.116470</ele>
<time>2011-04-30T07:39:35Z</time>
<desc>lat.=20.911173, lon.=107.018791, Alt.=23.116470m. Speed=3.204000m/h.</desc>
<speed>0.890000</speed>
</trkpt>
<trkpt lat="20.911188" lon="107.018723">
<ele>24.207779</ele>
<time>2011-04-30T07:39:40Z</time>
<desc>lat.=20.911188, lon.=107.018723, Alt.=24.207779m. Speed=4.464000m/h.</desc>
<speed>1.240000</speed>
</trkpt>
<trkpt lat="20.911226" lon="107.018730">
<ele>26.349869</ele>
<time>2011-04-30T07:39:45Z</time>
<desc>lat.=20.911226, lon.=107.018730, Alt.=26.349869m. Speed=1.944000m/h.</desc>
<speed>0.540000</speed>
</trkpt>
<trkpt lat="20.911257" lon="107.018730">
<ele>27.335709</ele>
<time>2011-04-30T07:39:50Z</time>
<desc>lat.=20.911257, lon.=107.018730, Alt.=27.335709m. Speed=2.736000m/h.</desc>
<speed>0.760000</speed>
</trkpt>
<trkpt lat="20.911280" lon="107.018738">
<ele>30.439224</ele>
<time>2011-04-30T07:39:55Z</time>
<desc>lat.=20.911280, lon.=107.018738, Alt.=30.439224m. Speed=0.396000m/h.</desc>
<speed>0.110000</speed>
</trkpt>
<trkpt lat="20.911287" lon="107.018730">
<ele>31.468033</ele>
<time>2011-04-30T07:40:00Z</time>
<desc>lat.=20.911287, lon.=107.018730, Alt.=31.468033m. Speed=0.972000m/h.</desc>
<speed>0.270000</speed>
</trkpt>
<trkpt lat="20.911303" lon="107.018738">
<ele>32.242706</ele>
<time>2011-04-30T07:40:05Z</time>
<desc>lat.=20.911303, lon.=107.018738, Alt.=32.242706m. Speed=0.684000m/h.</desc>
<speed>0.190000</speed>
</trkpt>
<trkpt lat="20.911310" lon="107.018761">
<ele>32.985870</ele>
<time>2011-04-30T07:40:10Z</time>
<desc>lat.=20.911310, lon.=107.018761, Alt.=32.985870m. Speed=0.108000m/h.</desc>
<speed>0.030000</speed>
</trkpt>
<trkpt lat="20.911314" lon="107.018730">
<ele>33.122589</ele>
<time>2011-04-30T07:40:15Z</time>
<desc>lat.=20.911314, lon.=107.018730, Alt.=33.122589m. Speed=1.260000m/h.</desc>
<speed>0.350000</speed>
</trkpt>
<trkpt lat="20.911308" lon="107.018738">
<ele>33.187042</ele>
<time>2011-04-30T07:40:20Z</time>
<desc>lat.=20.911308, lon.=107.018738, Alt.=33.187042m. Speed=1.332000m/h.</desc>
<speed>0.370000</speed>
</trkpt>
<trkpt lat="20.911303" lon="107.018723">
<ele>32.927277</ele>
<time>2011-04-30T07:40:25Z</time>
<desc>lat.=20.911303, lon.=107.018723, Alt.=32.927277m. Speed=1.224000m/h.</desc>
<speed>0.340000</speed>
</trkpt>
<trkpt lat="20.911327" lon="107.018684">
<ele>33.511261</ele>
<time>2011-04-30T07:40:30Z</time>
<desc>lat.=20.911327, lon.=107.018684, Alt.=33.511261m. Speed=1.872000m/h.</desc>
<speed>0.520000</speed>
</trkpt>
<trkpt lat="20.911320" lon="107.018661">
<ele>34.018097</ele>
<time>2011-04-30T07:40:35Z</time>
<desc>lat.=20.911320, lon.=107.018661, Alt.=34.018097m. Speed=1.404000m/h.</desc>
<speed>0.390000</speed>
</trkpt>
<trkpt lat="20.911314" lon="107.018661">
<ele>34.588409</ele>
<time>2011-04-30T07:40:40Z</time>
<desc>lat.=20.911314, lon.=107.018661, Alt.=34.588409m. Speed=0.792000m/h.</desc>
<speed>0.220000</speed>
</trkpt>
<trkpt lat="20.911320" lon="107.018661">
<ele>34.588409</ele>
<time>2011-04-30T07:40:45Z</time>
<desc>lat.=20.911320, lon.=107.018661, Alt.=34.588409m. Speed=0.108000m/h.</desc>
<speed>0.030000</speed>
</trkpt>
<trkpt lat="20.911324" lon="107.018661">
<ele>34.801300</ele>
<time>2011-04-30T07:40:50Z</time>
<desc>lat.=20.911324, lon.=107.018661, Alt.=34.801300m. Speed=0.432000m/h.</desc>
<speed>0.120000</speed>
</trkpt>
<trkpt lat="20.911316" lon="107.018661">
<ele>35.057159</ele>
<time>2011-04-30T07:40:55Z</time>
<desc>lat.=20.911316, lon.=107.018661, Alt.=35.057159m. Speed=0.756000m/h.</desc>
<speed>0.210000</speed>
</trkpt>
<trkpt lat="20.911427" lon="107.018646">
<ele>37.696808</ele>
<time>2011-04-30T07:41:00Z</time>
<desc>lat.=20.911427, lon.=107.018646, Alt.=37.696808m. Speed=1.116000m/h.</desc>
<speed>0.310000</speed>
</trkpt>
<trkpt lat="20.911390" lon="107.018730">
<ele>39.864777</ele>
<time>2011-04-30T07:41:05Z</time>
<desc>lat.=20.911390, lon.=107.018730, Alt.=39.864777m. Speed=0.648000m/h.</desc>
<speed>0.180000</speed>
</trkpt>
<trkpt lat="20.911390" lon="107.018745">
<ele>40.629425</ele>
<time>2011-04-30T07:41:10Z</time>
<desc>lat.=20.911390, lon.=107.018745, Alt.=40.629425m. Speed=0.540000m/h.</desc>
<speed>0.150000</speed>
</trkpt>
<trkpt lat="20.911396" lon="107.018784">
<ele>40.412628</ele>
<time>2011-04-30T07:41:15Z</time>
<desc>lat.=20.911396, lon.=107.018784, Alt.=40.412628m. Speed=0.324000m/h.</desc>
<speed>0.090000</speed>
</trkpt>
<trkpt lat="20.911404" lon="107.018799">
<ele>40.368683</ele>
<time>2011-04-30T07:41:20Z</time>
<desc>lat.=20.911404, lon.=107.018799, Alt.=40.368683m. Speed=0.072000m/h.</desc>
<speed>0.020000</speed>
</trkpt>
<trkpt lat="20.911409" lon="107.018806">
<ele>40.166534</ele>
<time>2011-04-30T07:41:25Z</time>
<desc>lat.=20.911409, lon.=107.018806, Alt.=40.166534m. Speed=0.504000m/h.</desc>
<speed>0.140000</speed>
</trkpt>
<trkpt lat="20.911413" lon="107.018829">
<ele>39.980988</ele>
<time>2011-04-30T07:41:30Z</time>
<desc>lat.=20.911413, lon.=107.018829, Alt.=39.980988m. Speed=0.144000m/h.</desc>
<speed>0.040000</speed>
</trkpt>
<trkpt lat="20.911419" lon="107.018852">
<ele>39.704620</ele>
<time>2011-04-30T07:41:35Z</time>
<desc>lat.=20.911419, lon.=107.018852, Alt.=39.704620m. Speed=0.108000m/h.</desc>
<speed>0.030000</speed>
</trkpt>
<trkpt lat="20.911430" lon="107.018875">
<ele>39.426300</ele>
<time>2011-04-30T07:41:40Z</time>
<desc>lat.=20.911430, lon.=107.018875, Alt.=39.426300m. Speed=0.252000m/h.</desc>
<speed>0.070000</speed>
</trkpt>
<trkpt lat="20.911430" lon="107.018921">
<ele>39.507355</ele>
<time>2011-04-30T07:41:45Z</time>
<desc>lat.=20.911430, lon.=107.018921, Alt.=39.507355m. Speed=0.036000m/h.</desc>
<speed>0.010000</speed>
</trkpt>
<trkpt lat="20.911432" lon="107.018936">
<ele>39.495636</ele>
<time>2011-04-30T07:41:50Z</time>
<desc>lat.=20.911432, lon.=107.018936, Alt.=39.495636m. Speed=0.216000m/h.</desc>
<speed>0.060000</speed>
</trkpt>
<trkpt lat="20.911451" lon="107.018936">
<ele>39.423370</ele>
<time>2011-04-30T07:41:55Z</time>
<desc>lat.=20.911451, lon.=107.018936, Alt.=39.423370m. Speed=0.504000m/h.</desc>
<speed>0.140000</speed>
</trkpt>
<trkpt lat="20.911461" lon="107.018967">
<ele>39.031769</ele>
<time>2011-04-30T07:42:00Z</time>
<desc>lat.=20.911461, lon.=107.018967, Alt.=39.031769m. Speed=0.684000m/h.</desc>
<speed>0.190000</speed>
</trkpt>
<trkpt lat="20.911518" lon="107.019043">
<ele>36.893097</ele>
<time>2011-04-30T07:42:05Z</time>
<desc>lat.=20.911518, lon.=107.019043, Alt.=36.893097m. Speed=0.072000m/h.</desc>
<speed>0.020000</speed>
</trkpt>
<trkpt lat="20.911530" lon="107.019058">
<ele>36.154816</ele>
<time>2011-04-30T07:42:10Z</time>
<desc>lat.=20.911530, lon.=107.019058, Alt.=36.154816m. Speed=0.072000m/h.</desc>
<speed>0.020000</speed>
</trkpt>
<trkpt lat="20.911530" lon="107.019058">
<ele>36.076691</ele>
<time>2011-04-30T07:42:15Z</time>
<desc>lat.=20.911530, lon.=107.019058, Alt.=36.076691m. Speed=0.252000m/h.</desc>
<speed>0.070000</speed>
</trkpt>
<trkpt lat="20.911531" lon="107.019058">
<ele>35.983917</ele>
<time>2011-04-30T07:42:20Z</time>
<desc>lat.=20.911531, lon.=107.019058, Alt.=35.983917m. Speed=0.180000m/h.</desc>
<speed>0.050000</speed>
</trkpt>
<trkpt lat="20.911533" lon="107.019051">
<ele>35.887238</ele>
<time>2011-04-30T07:42:25Z</time>
<desc>lat.=20.911533, lon.=107.019051, Alt.=35.887238m. Speed=0.324000m/h.</desc>
<speed>0.090000</speed>
</trkpt>
<trkpt lat="20.911528" lon="107.019058">
<ele>35.864777</ele>
<time>2011-04-30T07:42:30Z</time>
<desc>lat.=20.911528, lon.=107.019058, Alt.=35.864777m. Speed=0.540000m/h.</desc>
<speed>0.150000</speed>
</trkpt>
<trkpt lat="20.911524" lon="107.019058">
<ele>35.871613</ele>
<time>2011-04-30T07:42:35Z</time>
<desc>lat.=20.911524, lon.=107.019058, Alt.=35.871613m. Speed=0.396000m/h.</desc>
<speed>0.110000</speed>
</trkpt>
<trkpt lat="20.911524" lon="107.019058">
<ele>35.818878</ele>
<time>2011-04-30T07:42:40Z</time>
<desc>lat.=20.911524, lon.=107.019058, Alt.=35.818878m. Speed=0.180000m/h.</desc>
<speed>0.050000</speed>
</trkpt>
<trkpt lat="20.911528" lon="107.019058">
<ele>35.771027</ele>
<time>2011-04-30T07:42:45Z</time>
<desc>lat.=20.911528, lon.=107.019058, Alt.=35.771027m. Speed=0.288000m/h.</desc>
<speed>0.080000</speed>
</trkpt>
<trkpt lat="20.911530" lon="107.019058">
<ele>35.730988</ele>
<time>2011-04-30T07:42:50Z</time>
<desc>lat.=20.911530, lon.=107.019058, Alt.=35.730988m. Speed=0.324000m/h.</desc>
<speed>0.090000</speed>
</trkpt>
<trkpt lat="20.911526" lon="107.019058">
<ele>35.727081</ele>
<time>2011-04-30T07:42:55Z</time>
<desc>lat.=20.911526, lon.=107.019058, Alt.=35.727081m. Speed=0.252000m/h.</desc>
<speed>0.070000</speed>
</trkpt>
<trkpt lat="20.911524" lon="107.019058">
<ele>35.693878</ele>
<time>2011-04-30T07:43:00Z</time>
<desc>lat.=20.911524, lon.=107.019058, Alt.=35.693878m. Speed=0.972000m/h.</desc>
<speed>0.270000</speed>
</trkpt>
<trkpt lat="20.911512" lon="107.019073">
<ele>35.199738</ele>
<time>2011-04-30T07:43:05Z</time>
<desc>lat.=20.911512, lon.=107.019073, Alt.=35.199738m. Speed=1.188000m/h.</desc>
<speed>0.330000</speed>
</trkpt>
<trkpt lat="20.911516" lon="107.019119">
<ele>33.789581</ele>
<time>2011-04-30T07:43:10Z</time>
<desc>lat.=20.911516, lon.=107.019119, Alt.=33.789581m. Speed=1.116000m/h.</desc>
<speed>0.310000</speed>
</trkpt>
<trkpt lat="20.911510" lon="107.019119">
<ele>32.105011</ele>
<time>2011-04-30T07:43:15Z</time>
<desc>lat.=20.911510, lon.=107.019119, Alt.=32.105011m. Speed=0.432000m/h.</desc>
<speed>0.120000</speed>
</trkpt>
<trkpt lat="20.911505" lon="107.019119">
<ele>31.966080</ele>
<time>2011-04-30T07:43:20Z</time>
<desc>lat.=20.911505, lon.=107.019119, Alt.=31.966080m. Speed=0.504000m/h.</desc>
<speed>0.140000</speed>
</trkpt>
<trkpt lat="20.911503" lon="107.019112">
<ele>31.780533</ele>
<time>2011-04-30T07:43:25Z</time>
<desc>lat.=20.911503, lon.=107.019112, Alt.=31.780533m. Speed=0.720000m/h.</desc>
<speed>0.200000</speed>
</trkpt>
<trkpt lat="20.911507" lon="107.019104">
<ele>31.511490</ele>
<time>2011-04-30T07:43:30Z</time>
<desc>lat.=20.911507, lon.=107.019104, Alt.=31.511490m. Speed=0.720000m/h.</desc>
<speed>0.200000</speed>
</trkpt>
<trkpt lat="20.911509" lon="107.019089">
<ele>31.171646</ele>
<time>2011-04-30T07:43:35Z</time>
<desc>lat.=20.911509, lon.=107.019089, Alt.=31.171646m. Speed=0.720000m/h.</desc>
<speed>0.200000</speed>
</trkpt>
<trkpt lat="20.911510" lon="107.019081">
<ele>30.800552</ele>
<time>2011-04-30T07:43:40Z</time>
<desc>lat.=20.911510, lon.=107.019081, Alt.=30.800552m. Speed=0.360000m/h.</desc>
<speed>0.100000</speed>
</trkpt>
<trkpt lat="20.911510" lon="107.019081">
<ele>30.369400</ele>
<time>2011-04-30T07:43:45Z</time>
<desc>lat.=20.911510, lon.=107.019081, Alt.=30.369400m. Speed=0.684000m/h.</desc>
<speed>0.190000</speed>
</trkpt>
<trkpt lat="20.911514" lon="107.019066">
<ele>29.899673</ele>
<time>2011-04-30T07:43:50Z</time>
<desc>lat.=20.911514, lon.=107.019066, Alt.=29.899673m. Speed=0.792000m/h.</desc>
<speed>0.220000</speed>
</trkpt>
<trkpt lat="20.911514" lon="107.019058">
<ele>29.396744</ele>
<time>2011-04-30T07:43:55Z</time>
<desc>lat.=20.911514, lon.=107.019058, Alt.=29.396744m. Speed=0.936000m/h.</desc>
<speed>0.260000</speed>
</trkpt>
<trkpt lat="20.911516" lon="107.019043">
<ele>28.864517</ele>
<time>2011-04-30T07:44:00Z</time>
<desc>lat.=20.911516, lon.=107.019043, Alt.=28.864517m. Speed=1.260000m/h.</desc>
<speed>0.350000</speed>
</trkpt>
<trkpt lat="20.911510" lon="107.019035">
<ele>27.863541</ele>
<time>2011-04-30T07:44:05Z</time>
<desc>lat.=20.911510, lon.=107.019035, Alt.=27.863541m. Speed=1.044000m/h.</desc>
<speed>0.290000</speed>
</trkpt>
<trkpt lat="20.911514" lon="107.019028">
<ele>26.907974</ele>
<time>2011-04-30T07:44:10Z</time>
<desc>lat.=20.911514, lon.=107.019028, Alt.=26.907974m. Speed=0.936000m/h.</desc>
<speed>0.260000</speed>
</trkpt>
<trkpt lat="20.911509" lon="107.019012">
<ele>26.229263</ele>
<time>2011-04-30T07:44:15Z</time>
<desc>lat.=20.911509, lon.=107.019012, Alt.=26.229263m. Speed=1.008000m/h.</desc>
<speed>0.280000</speed>
</trkpt>
<trkpt lat="20.911512" lon="107.019005">
<ele>25.525162</ele>
<time>2011-04-30T07:44:20Z</time>
<desc>lat.=20.911512, lon.=107.019005, Alt.=25.525162m. Speed=0.936000m/h.</desc>
<speed>0.260000</speed>
</trkpt>
<trkpt lat="20.911522" lon="107.018982">
<ele>24.498306</ele>
<time>2011-04-30T07:44:25Z</time>
<desc>lat.=20.911522, lon.=107.018982, Alt.=24.498306m. Speed=1.188000m/h.</desc>
<speed>0.330000</speed>
</trkpt>
<trkpt lat="20.911539" lon="107.018936">
<ele>22.863541</ele>
<time>2011-04-30T07:44:30Z</time>
<desc>lat.=20.911539, lon.=107.018936, Alt.=22.863541m. Speed=1.476000m/h.</desc>
<speed>0.410000</speed>
</trkpt>
<trkpt lat="20.911535" lon="107.018921">
<ele>21.124771</ele>
<time>2011-04-30T07:44:35Z</time>
<desc>lat.=20.911535, lon.=107.018921, Alt.=21.124771m. Speed=1.332000m/h.</desc>
<speed>0.370000</speed>
</trkpt>
<trkpt lat="20.911528" lon="107.018921">
<ele>19.616470</ele>
<time>2011-04-30T07:44:40Z</time>
<desc>lat.=20.911528, lon.=107.018921, Alt.=19.616470m. Speed=0.936000m/h.</desc>
<speed>0.260000</speed>
</trkpt>
<trkpt lat="20.911522" lon="107.018913">
<ele>18.921646</ele>
<time>2011-04-30T07:44:45Z</time>
<desc>lat.=20.911522, lon.=107.018913, Alt.=18.921646m. Speed=0.504000m/h.</desc>
<speed>0.140000</speed>
</trkpt>
<trkpt lat="20.911518" lon="107.018913">
<ele>18.211197</ele>
<time>2011-04-30T07:44:50Z</time>
<desc>lat.=20.911518, lon.=107.018913, Alt.=18.211197m. Speed=0.432000m/h.</desc>
<speed>0.120000</speed>
</trkpt>
<trkpt lat="20.911514" lon="107.018913">
<ele>17.448990</ele>
<time>2011-04-30T07:44:55Z</time>
<desc>lat.=20.911514, lon.=107.018913, Alt.=17.448990m. Speed=0.360000m/h.</desc>
<speed>0.100000</speed>
</trkpt>
<trkpt lat="20.911507" lon="107.018913">
<ele>16.674576</ele>
<time>2011-04-30T07:45:00Z</time>
<desc>lat.=20.911507, lon.=107.018913, Alt.=16.674576m. Speed=0.864000m/h.</desc>
<speed>0.240000</speed>
</trkpt>
<trkpt lat="20.911499" lon="107.018906">
<ele>15.943977</ele>
<time>2011-04-30T07:45:05Z</time>
<desc>lat.=20.911499, lon.=107.018906, Alt.=15.943977m. Speed=0.684000m/h.</desc>
<speed>0.190000</speed>
</trkpt>
<trkpt lat="20.911499" lon="107.018898">
<ele>15.224739</ele>
<time>2011-04-30T07:45:10Z</time>
<desc>lat.=20.911499, lon.=107.018898, Alt.=15.224739m. Speed=0.360000m/h.</desc>
<speed>0.100000</speed>
</trkpt>
<trkpt lat="20.911497" lon="107.018890">
<ele>14.509895</ele>
<time>2011-04-30T07:45:15Z</time>
<desc>lat.=20.911497, lon.=107.018890, Alt.=14.509895m. Speed=0.108000m/h.</desc>
<speed>0.030000</speed>
</trkpt>
<trkpt lat="20.911499" lon="107.018890">
<ele>13.799446</ele>
<time>2011-04-30T07:45:20Z</time>
<desc>lat.=20.911499, lon.=107.018890, Alt.=13.799446m. Speed=0.072000m/h.</desc>
<speed>0.020000</speed>
</trkpt>
<trkpt lat="20.911501" lon="107.018890">
<ele>13.157845</ele>
<time>2011-04-30T07:45:25Z</time>
<desc>lat.=20.911501, lon.=107.018890, Alt.=13.157845m. Speed=0.432000m/h.</desc>
<speed>0.120000</speed>
</trkpt>
<trkpt lat="20.911507" lon="107.018898">
<ele>12.551155</ele>
<time>2011-04-30T07:45:30Z</time>
<desc>lat.=20.911507, lon.=107.018898, Alt.=12.551155m. Speed=0.576000m/h.</desc>
<speed>0.160000</speed>
</trkpt>
<trkpt lat="20.911512" lon="107.018906">
<ele>11.933723</ele>
<time>2011-04-30T07:45:35Z</time>
<desc>lat.=20.911512, lon.=107.018906, Alt.=11.933723m. Speed=0.720000m/h.</desc>
<speed>0.200000</speed>
</trkpt>
<trkpt lat="20.911518" lon="107.018913">
<ele>11.324104</ele>
<time>2011-04-30T07:45:40Z</time>
<desc>lat.=20.911518, lon.=107.018913, Alt.=11.324104m. Speed=0.612000m/h.</desc>
<speed>0.170000</speed>
</trkpt>
<trkpt lat="20.911524" lon="107.018913">
<ele>10.722054</ele>
<time>2011-04-30T07:45:45Z</time>
<desc>lat.=20.911524, lon.=107.018913, Alt.=10.722054m. Speed=0.576000m/h.</desc>
<speed>0.160000</speed>
</trkpt>
<trkpt lat="20.911530" lon="107.018929">
<ele>10.120247</ele>
<time>2011-04-30T07:45:50Z</time>
<desc>lat.=20.911530, lon.=107.018929, Alt.=10.120247m. Speed=0.972000m/h.</desc>
<speed>0.270000</speed>
</trkpt>
<trkpt lat="20.911541" lon="107.018936">
<ele>9.327522</ele>
<time>2011-04-30T07:45:55Z</time>
<desc>lat.=20.911541, lon.=107.018936, Alt.=9.327522m. Speed=0.972000m/h.</desc>
<speed>0.270000</speed>
</trkpt>
<trkpt lat="20.911568" lon="107.018944">
<ele>8.219856</ele>
<time>2011-04-30T07:46:00Z</time>
<desc>lat.=20.911568, lon.=107.018944, Alt.=8.219856m. Speed=1.116000m/h.</desc>
<speed>0.310000</speed>
</trkpt>
<trkpt lat="20.911570" lon="107.018967">
<ele>6.587101</ele>
<time>2011-04-30T07:46:05Z</time>
<desc>lat.=20.911570, lon.=107.018967, Alt.=6.587101m. Speed=0.432000m/h.</desc>
<speed>0.120000</speed>
</trkpt>
<trkpt lat="20.911570" lon="107.018967">
<ele>5.930851</ele>
<time>2011-04-30T07:46:10Z</time>
<desc>lat.=20.911570, lon.=107.018967, Alt.=5.930851m. Speed=0.216000m/h.</desc>
<speed>0.060000</speed>
</trkpt>
<trkpt lat="20.911572" lon="107.018974">
<ele>5.275700</ele>
<time>2011-04-30T07:46:15Z</time>
<desc>lat.=20.911572, lon.=107.018974, Alt.=5.275700m. Speed=0.252000m/h.</desc>
<speed>0.070000</speed>
</trkpt>
<trkpt lat="20.911572" lon="107.018967">
<ele>4.598209</ele>
<time>2011-04-30T07:46:20Z</time>
<desc>lat.=20.911572, lon.=107.018967, Alt.=4.598209m. Speed=0.396000m/h.</desc>
<speed>0.110000</speed>
</trkpt>
<trkpt lat="20.911568" lon="107.018967">
<ele>3.860445</ele>
<time>2011-04-30T07:46:25Z</time>
<desc>lat.=20.911568, lon.=107.018967, Alt.=3.860445m. Speed=0.576000m/h.</desc>
<speed>0.160000</speed>
</trkpt>
<trkpt lat="20.911566" lon="107.018959">
<ele>3.088533</ele>
<time>2011-04-30T07:46:30Z</time>
<desc>lat.=20.911566, lon.=107.018959, Alt.=3.088533m. Speed=0.108000m/h.</desc>
<speed>0.030000</speed>
</trkpt>
<trkpt lat="20.911570" lon="107.018959">
<ele>2.317965</ele>
<time>2011-04-30T07:46:35Z</time>
<desc>lat.=20.911570, lon.=107.018959, Alt.=2.317965m. Speed=0.900000m/h.</desc>
<speed>0.250000</speed>
</trkpt>
<trkpt lat="20.911615" lon="107.018967">
<ele>0.917107</ele>
<time>2011-04-30T07:46:40Z</time>
<desc>lat.=20.911615, lon.=107.018967, Alt.=0.917107m. Speed=2.736000m/h.</desc>
<speed>0.760000</speed>
</trkpt>
<trkpt lat="20.911659" lon="107.018974">
<ele>-0.563759</ele>
<time>2011-04-30T07:46:45Z</time>
<desc>lat.=20.911659, lon.=107.018974, Alt.=-0.563759m. Speed=3.852000m/h.</desc>
<speed>1.070000</speed>
</trkpt>
<trkpt lat="20.911724" lon="107.018974">
<ele>-1.046372</ele>
<time>2011-04-30T07:46:50Z</time>
<desc>lat.=20.911724, lon.=107.018974, Alt.=-1.046372m. Speed=4.788000m/h.</desc>
<speed>1.330000</speed>
</trkpt>
<trkpt lat="20.911787" lon="107.018990">
<ele>-2.223482</ele>
<time>2011-04-30T07:46:55Z</time>
<desc>lat.=20.911787, lon.=107.018990, Alt.=-2.223482m. Speed=5.724000m/h.</desc>
<speed>1.590000</speed>
</trkpt>
<trkpt lat="20.911865" lon="107.019005">
<ele>-2.844637</ele>
<time>2011-04-30T07:47:00Z</time>
<desc>lat.=20.911865, lon.=107.019005, Alt.=-2.844637m. Speed=6.372000m/h.</desc>
<speed>1.770000</speed>
</trkpt>
<trkpt lat="20.911940" lon="107.019028">
<ele>-4.572453</ele>
<time>2011-04-30T07:47:05Z</time>
<desc>lat.=20.911940, lon.=107.019028, Alt.=-4.572453m. Speed=7.668000m/h.</desc>
<speed>2.130000</speed>
</trkpt>
<trkpt lat="20.912046" lon="107.018990">
<ele>-14.087532</ele>
<time>2011-04-30T07:47:10Z</time>
<desc>lat.=20.912046, lon.=107.018990, Alt.=-14.087532m. Speed=7.740000m/h.</desc>
<speed>2.150000</speed>
</trkpt>
<trkpt lat="20.912130" lon="107.019043">
<ele>-12.081429</ele>
<time>2011-04-30T07:47:15Z</time>
<desc>lat.=20.912130, lon.=107.019043, Alt.=-12.081429m. Speed=7.920000m/h.</desc>
<speed>2.200000</speed>
</trkpt>
<trkpt lat="20.912235" lon="107.019035">
<ele>-18.739517</ele>
<time>2011-04-30T07:47:20Z</time>
<desc>lat.=20.912235, lon.=107.019035, Alt.=-18.739517m. Speed=7.416000m/h.</desc>
<speed>2.060000</speed>
</trkpt>
<trkpt lat="20.912327" lon="107.019073">
<ele>-18.867447</ele>
<time>2011-04-30T07:47:25Z</time>
<desc>lat.=20.912327, lon.=107.019073, Alt.=-18.867447m. Speed=7.740000m/h.</desc>
<speed>2.150000</speed>
</trkpt>
<trkpt lat="20.912428" lon="107.019104">
<ele>-20.494888</ele>
<time>2011-04-30T07:47:30Z</time>
<desc>lat.=20.912428, lon.=107.019104, Alt.=-20.494888m. Speed=8.352000m/h.</desc>
<speed>2.320000</speed>
</trkpt>
<trkpt lat="20.912531" lon="107.019127">
<ele>-21.654068</ele>
<time>2011-04-30T07:47:35Z</time>
<desc>lat.=20.912531, lon.=107.019127, Alt.=-21.654068m. Speed=8.316000m/h.</desc>
<speed>2.310000</speed>
</trkpt>
<trkpt lat="20.912636" lon="107.019157">
<ele>-23.093521</ele>
<time>2011-04-30T07:47:40Z</time>
<desc>lat.=20.912636, lon.=107.019157, Alt.=-23.093521m. Speed=8.244000m/h.</desc>
<speed>2.290000</speed>
</trkpt>
<trkpt lat="20.912746" lon="107.019196">
<ele>-22.557388</ele>
<time>2011-04-30T07:47:45Z</time>
<desc>lat.=20.912746, lon.=107.019196, Alt.=-22.557388m. Speed=8.568000m/h.</desc>
<speed>2.380000</speed>
</trkpt>
<trkpt lat="20.912855" lon="107.019226">
<ele>-23.007095</ele>
<time>2011-04-30T07:47:50Z</time>
<desc>lat.=20.912855, lon.=107.019226, Alt.=-23.007095m. Speed=8.604000m/h.</desc>
<speed>2.390000</speed>
</trkpt>
<trkpt lat="20.912968" lon="107.019257">
<ele>-22.759048</ele>
<time>2011-04-30T07:47:55Z</time>
<desc>lat.=20.912968, lon.=107.019257, Alt.=-22.759048m. Speed=8.496000m/h.</desc>
<speed>2.360000</speed>
</trkpt>
<trkpt lat="20.913082" lon="107.019287">
<ele>-23.053482</ele>
<time>2011-04-30T07:48:00Z</time>
<desc>lat.=20.913082, lon.=107.019287, Alt.=-23.053482m. Speed=8.928000m/h.</desc>
<speed>2.480000</speed>
</trkpt>
<trkpt lat="20.913206" lon="107.019272">
<ele>-28.911880</ele>
<time>2011-04-30T07:48:05Z</time>
<desc>lat.=20.913206, lon.=107.019272, Alt.=-28.911880m. Speed=8.640000m/h.</desc>
<speed>2.400000</speed>
</trkpt>
<trkpt lat="20.913315" lon="107.019310">
<ele>-26.740982</ele>
<time>2011-04-30T07:48:10Z</time>
<desc>lat.=20.913315, lon.=107.019310, Alt.=-26.740982m. Speed=8.784000m/h.</desc>
<speed>2.440000</speed>
</trkpt>
<trkpt lat="20.913424" lon="107.019348">
<ele>-23.269302</ele>
<time>2011-04-30T07:48:15Z</time>
<desc>lat.=20.913424, lon.=107.019348, Alt.=-23.269302m. Speed=8.388000m/h.</desc>
<speed>2.330000</speed>
</trkpt>
<trkpt lat="20.913528" lon="107.019333">
<ele>-26.614029</ele>
<time>2011-04-30T07:48:20Z</time>
<desc>lat.=20.913528, lon.=107.019333, Alt.=-26.614029m. Speed=8.964000m/h.</desc>
<speed>2.490000</speed>
</trkpt>
<trkpt lat="20.913639" lon="107.019318">
<ele>-27.977798</ele>
<time>2011-04-30T07:48:25Z</time>
<desc>lat.=20.913639, lon.=107.019318, Alt.=-27.977798m. Speed=8.460000m/h.</desc>
<speed>2.350000</speed>
</trkpt>
<trkpt lat="20.913746" lon="107.019310">
<ele>-28.128189</ele>
<time>2011-04-30T07:48:30Z</time>
<desc>lat.=20.913746, lon.=107.019310, Alt.=-28.128189m. Speed=8.244000m/h.</desc>
<speed>2.290000</speed>
</trkpt>
<trkpt lat="20.913843" lon="107.019295">
<ele>-28.701431</ele>
<time>2011-04-30T07:48:35Z</time>
<desc>lat.=20.913843, lon.=107.019295, Alt.=-28.701431m. Speed=8.640000m/h.</desc>
<speed>2.400000</speed>
</trkpt>
<trkpt lat="20.913942" lon="107.019287">
<ele>-27.321548</ele>
<time>2011-04-30T07:48:40Z</time>
<desc>lat.=20.913942, lon.=107.019287, Alt.=-27.321548m. Speed=8.640000m/h.</desc>
<speed>2.400000</speed>
</trkpt>
<trkpt lat="20.914051" lon="107.019264">
<ele>-27.006607</ele>
<time>2011-04-30T07:48:45Z</time>
<desc>lat.=20.914051, lon.=107.019264, Alt.=-27.006607m. Speed=8.748000m/h.</desc>
<speed>2.430000</speed>
</trkpt>
<trkpt lat="20.914156" lon="107.019226">
<ele>-28.193619</ele>
<time>2011-04-30T07:48:50Z</time>
<desc>lat.=20.914156, lon.=107.019226, Alt.=-28.193619m. Speed=8.424000m/h.</desc>
<speed>2.340000</speed>
</trkpt>
<trkpt lat="20.914265" lon="107.019203">
<ele>-25.979263</ele>
<time>2011-04-30T07:48:55Z</time>
<desc>lat.=20.914265, lon.=107.019203, Alt.=-25.979263m. Speed=8.568000m/h.</desc>
<speed>2.380000</speed>
</trkpt>
<trkpt lat="20.914364" lon="107.019142">
<ele>-27.549088</ele>
<time>2011-04-30T07:49:00Z</time>
<desc>lat.=20.914364, lon.=107.019142, Alt.=-27.549088m. Speed=8.460000m/h.</desc>
<speed>2.350000</speed>
</trkpt>
<trkpt lat="20.914467" lon="107.019058">
<ele>-30.918716</ele>
<time>2011-04-30T07:49:05Z</time>
<desc>lat.=20.914467, lon.=107.019058, Alt.=-30.918716m. Speed=8.496000m/h.</desc>
<speed>2.360000</speed>
</trkpt>
<trkpt lat="20.914558" lon="107.018990">
<ele>-31.406509</ele>
<time>2011-04-30T07:49:10Z</time>
<desc>lat.=20.914558, lon.=107.018990, Alt.=-31.406509m. Speed=8.316000m/h.</desc>
<speed>2.310000</speed>
</trkpt>
<trkpt lat="20.914639" lon="107.018913">
<ele>-32.241730</ele>
<time>2011-04-30T07:49:15Z</time>
<desc>lat.=20.914639, lon.=107.018913, Alt.=-32.241730m. Speed=8.352000m/h.</desc>
<speed>2.320000</speed>
</trkpt>
<trkpt lat="20.914713" lon="107.018845">
<ele>-32.458527</ele>
<time>2011-04-30T07:49:20Z</time>
<desc>lat.=20.914713, lon.=107.018845, Alt.=-32.458527m. Speed=8.316000m/h.</desc>
<speed>2.310000</speed>
</trkpt>
<trkpt lat="20.914785" lon="107.018761">
<ele>-31.866959</ele>
<time>2011-04-30T07:49:25Z</time>
<desc>lat.=20.914785, lon.=107.018761, Alt.=-31.866959m. Speed=8.388000m/h.</desc>
<speed>2.330000</speed>
</trkpt>
<trkpt lat="20.914846" lon="107.018692">
<ele>-31.133560</ele>
<time>2011-04-30T07:49:30Z</time>
<desc>lat.=20.914846, lon.=107.018692, Alt.=-31.133560m. Speed=8.604000m/h.</desc>
<speed>2.390000</speed>
</trkpt>
<trkpt lat="20.914904" lon="107.018639">
<ele>-28.575943</ele>
<time>2011-04-30T07:49:35Z</time>
<desc>lat.=20.914904, lon.=107.018639, Alt.=-28.575943m. Speed=8.424000m/h.</desc>
<speed>2.340000</speed>
</trkpt>
<trkpt lat="20.914955" lon="107.018547">
<ele>-28.278091</ele>
<time>2011-04-30T07:49:40Z</time>
<desc>lat.=20.914955, lon.=107.018547, Alt.=-28.278091m. Speed=8.064000m/h.</desc>
<speed>2.240000</speed>
</trkpt>
<trkpt lat="20.915003" lon="107.018448">
<ele>-27.703384</ele>
<time>2011-04-30T07:49:45Z</time>
<desc>lat.=20.915003, lon.=107.018448, Alt.=-27.703384m. Speed=8.424000m/h.</desc>
<speed>2.340000</speed>
</trkpt>
<trkpt lat="20.915033" lon="107.018356">
<ele>-26.981216</ele>
<time>2011-04-30T07:49:50Z</time>
<desc>lat.=20.915033, lon.=107.018356, Alt.=-26.981216m. Speed=7.740000m/h.</desc>
<speed>2.150000</speed>
</trkpt>
<trkpt lat="20.915039" lon="107.018265">
<ele>-23.714615</ele>
<time>2011-04-30T07:49:55Z</time>
<desc>lat.=20.915039, lon.=107.018265, Alt.=-23.714615m. Speed=8.280000m/h.</desc>
<speed>2.300000</speed>
</trkpt>
<trkpt lat="20.915054" lon="107.018150">
<ele>-22.533463</ele>
<time>2011-04-30T07:50:00Z</time>
<desc>lat.=20.915054, lon.=107.018150, Alt.=-22.533463m. Speed=8.208000m/h.</desc>
<speed>2.280000</speed>
</trkpt>
<trkpt lat="20.915083" lon="107.018051">
<ele>-21.193619</ele>
<time>2011-04-30T07:50:05Z</time>
<desc>lat.=20.915083, lon.=107.018051, Alt.=-21.193619m. Speed=7.992000m/h.</desc>
<speed>2.220000</speed>
</trkpt>
<trkpt lat="20.915104" lon="107.017944">
<ele>-20.751724</ele>
<time>2011-04-30T07:50:10Z</time>
<desc>lat.=20.915104, lon.=107.017944, Alt.=-20.751724m. Speed=8.244000m/h.</desc>
<speed>2.290000</speed>
</trkpt>
<trkpt lat="20.915112" lon="107.017838">
<ele>-19.923111</ele>
<time>2011-04-30T07:50:15Z</time>
<desc>lat.=20.915112, lon.=107.017838, Alt.=-19.923111m. Speed=7.956000m/h.</desc>
<speed>2.210000</speed>
</trkpt>
<trkpt lat="20.915110" lon="107.017738">
<ele>-19.628189</ele>
<time>2011-04-30T07:50:20Z</time>
<desc>lat.=20.915110, lon.=107.017738, Alt.=-19.628189m. Speed=7.956000m/h.</desc>
<speed>2.210000</speed>
</trkpt>
<trkpt lat="20.915098" lon="107.017632">
<ele>-18.839127</ele>
<time>2011-04-30T07:50:25Z</time>
<desc>lat.=20.915098, lon.=107.017632, Alt.=-18.839127m. Speed=7.596000m/h.</desc>
<speed>2.110000</speed>
</trkpt>
<trkpt lat="20.915089" lon="107.017525">
<ele>-15.711800</ele>
<time>2011-04-30T07:50:30Z</time>
<desc>lat.=20.915089, lon.=107.017525, Alt.=-15.711800m. Speed=9.324000m/h.</desc>
<speed>2.590000</speed>
</trkpt>
<trkpt lat="20.915083" lon="107.017403">
<ele>-17.737564</ele>
<time>2011-04-30T07:50:35Z</time>
<desc>lat.=20.915083, lon.=107.017403, Alt.=-17.737564m. Speed=7.848000m/h.</desc>
<speed>2.180000</speed>
</trkpt>
<trkpt lat="20.915073" lon="107.017303">
<ele>-17.499771</ele>
<time>2011-04-30T07:50:40Z</time>
<desc>lat.=20.915073, lon.=107.017303, Alt.=-17.499771m. Speed=7.848000m/h.</desc>
<speed>2.180000</speed>
</trkpt>
<trkpt lat="20.915051" lon="107.017204">
<ele>-17.625259</ele>
<time>2011-04-30T07:50:45Z</time>
<desc>lat.=20.915051, lon.=107.017204, Alt.=-17.625259m. Speed=7.416000m/h.</desc>
<speed>2.060000</speed>
</trkpt>
<trkpt lat="20.915020" lon="107.017113">
<ele>-17.248795</ele>
<time>2011-04-30T07:50:50Z</time>
<desc>lat.=20.915020, lon.=107.017113, Alt.=-17.248795m. Speed=7.200000m/h.</desc>
<speed>2.000000</speed>
</trkpt>
<trkpt lat="20.914988" lon="107.017021">
<ele>-17.022232</ele>
<time>2011-04-30T07:50:55Z</time>
<desc>lat.=20.914988, lon.=107.017021, Alt.=-17.022232m. Speed=8.100000m/h.</desc>
<speed>2.250000</speed>
</trkpt>
<trkpt lat="20.914925" lon="107.016922">
<ele>-15.437386</ele>
<time>2011-04-30T07:51:00Z</time>
<desc>lat.=20.914925, lon.=107.016922, Alt.=-15.437386m. Speed=8.136000m/h.</desc>
<speed>2.260000</speed>
</trkpt>
<trkpt lat="20.914875" lon="107.016838">
<ele>-15.058235</ele>
<time>2011-04-30T07:51:05Z</time>
<desc>lat.=20.914875, lon.=107.016838, Alt.=-15.058235m. Speed=7.920000m/h.</desc>
<speed>2.200000</speed>
</trkpt>
<trkpt lat="20.914829" lon="107.016762">
<ele>-14.631721</ele>
<time>2011-04-30T07:51:10Z</time>
<desc>lat.=20.914829, lon.=107.016762, Alt.=-14.631721m. Speed=9.108000m/h.</desc>
<speed>2.530000</speed>
</trkpt>
<trkpt lat="20.914774" lon="107.016670">
<ele>-14.541389</ele>
<time>2011-04-30T07:51:15Z</time>
<desc>lat.=20.914774, lon.=107.016670, Alt.=-14.541389m. Speed=7.704000m/h.</desc>
<speed>2.140000</speed>
</trkpt>
<trkpt lat="20.914707" lon="107.016586">
<ele>-15.294075</ele>
<time>2011-04-30T07:51:20Z</time>
<desc>lat.=20.914707, lon.=107.016586, Alt.=-15.294075m. Speed=7.560000m/h.</desc>
<speed>2.100000</speed>
</trkpt>
<trkpt lat="20.914631" lon="107.016510">
<ele>-15.968636</ele>
<time>2011-04-30T07:51:25Z</time>
<desc>lat.=20.914631, lon.=107.016510, Alt.=-15.968636m. Speed=8.208000m/h.</desc>
<speed>2.280000</speed>
</trkpt>
<trkpt lat="20.914560" lon="107.016441">
<ele>-15.816536</ele>
<time>2011-04-30T07:51:30Z</time>
<desc>lat.=20.914560, lon.=107.016441, Alt.=-15.816536m. Speed=8.280000m/h.</desc>
<speed>2.300000</speed>
</trkpt>
<trkpt lat="20.914473" lon="107.016373">
<ele>-15.138069</ele>
<time>2011-04-30T07:51:35Z</time>
<desc>lat.=20.914473, lon.=107.016373, Alt.=-15.138069m. Speed=8.784000m/h.</desc>
<speed>2.440000</speed>
</trkpt>
<trkpt lat="20.914389" lon="107.016312">
<ele>-15.205452</ele>
<time>2011-04-30T07:51:40Z</time>
<desc>lat.=20.914389, lon.=107.016312, Alt.=-15.205452m. Speed=6.408000m/h.</desc>
<speed>1.780000</speed>
</trkpt>
<trkpt lat="20.914303" lon="107.016258">
<ele>-14.593636</ele>
<time>2011-04-30T07:51:45Z</time>
<desc>lat.=20.914303, lon.=107.016258, Alt.=-14.593636m. Speed=7.884000m/h.</desc>
<speed>2.190000</speed>
</trkpt>
<trkpt lat="20.914227" lon="107.016205">
<ele>-13.401253</ele>
<time>2011-04-30T07:51:50Z</time>
<desc>lat.=20.914227, lon.=107.016205, Alt.=-13.401253m. Speed=8.316000m/h.</desc>
<speed>2.310000</speed>
</trkpt>
<trkpt lat="20.914141" lon="107.016151">
<ele>-12.726692</ele>
<time>2011-04-30T07:51:55Z</time>
<desc>lat.=20.914141, lon.=107.016151, Alt.=-12.726692m. Speed=8.388000m/h.</desc>
<speed>2.330000</speed>
</trkpt>
<trkpt lat="20.914053" lon="107.016090">
<ele>-12.832161</ele>
<time>2011-04-30T07:52:00Z</time>
<desc>lat.=20.914053, lon.=107.016090, Alt.=-12.832161m. Speed=8.532000m/h.</desc>
<speed>2.370000</speed>
</trkpt>
<trkpt lat="20.913950" lon="107.016037">
<ele>-12.280647</ele>
<time>2011-04-30T07:52:05Z</time>
<desc>lat.=20.913950, lon.=107.016037, Alt.=-12.280647m. Speed=8.064000m/h.</desc>
<speed>2.240000</speed>
</trkpt>
<trkpt lat="20.913853" lon="107.015991">
<ele>-11.931282</ele>
<time>2011-04-30T07:52:10Z</time>
<desc>lat.=20.913853, lon.=107.015991, Alt.=-11.931282m. Speed=8.460000m/h.</desc>
<speed>2.350000</speed>
</trkpt>
<trkpt lat="20.913752" lon="107.015945">
<ele>-11.921272</ele>
<time>2011-04-30T07:52:15Z</time>
<desc>lat.=20.913752, lon.=107.015945, Alt.=-11.921272m. Speed=8.496000m/h.</desc>
<speed>2.360000</speed>
</trkpt>
<trkpt lat="20.913660" lon="107.015892">
<ele>-11.378304</ele>
<time>2011-04-30T07:52:20Z</time>
<desc>lat.=20.913660, lon.=107.015892, Alt.=-11.378304m. Speed=9.000000m/h.</desc>
<speed>2.500000</speed>
</trkpt>
<trkpt lat="20.913549" lon="107.015839">
<ele>-11.162727</ele>
<time>2011-04-30T07:52:25Z</time>
<desc>lat.=20.913549, lon.=107.015839, Alt.=-11.162727m. Speed=7.776000m/h.</desc>
<speed>2.160000</speed>
</trkpt>
<trkpt lat="20.913450" lon="107.015793">
<ele>-11.463020</ele>
<time>2011-04-30T07:52:30Z</time>
<desc>lat.=20.913450, lon.=107.015793, Alt.=-11.463020m. Speed=8.712000m/h.</desc>
<speed>2.420000</speed>
</trkpt>
<trkpt lat="20.913351" lon="107.015739">
<ele>-11.113411</ele>
<time>2011-04-30T07:52:35Z</time>
<desc>lat.=20.913351, lon.=107.015739, Alt.=-11.113411m. Speed=8.460000m/h.</desc>
<speed>2.350000</speed>
</trkpt>
<trkpt lat="20.913248" lon="107.015701">
<ele>-10.589485</ele>
<time>2011-04-30T07:52:40Z</time>
<desc>lat.=20.913248, lon.=107.015701, Alt.=-10.589485m. Speed=8.640000m/h.</desc>
<speed>2.400000</speed>
</trkpt>
<trkpt lat="20.913147" lon="107.015663">
<ele>-10.185188</ele>
<time>2011-04-30T07:52:45Z</time>
<desc>lat.=20.913147, lon.=107.015663, Alt.=-10.185188m. Speed=8.496000m/h.</desc>
<speed>2.360000</speed>
</trkpt>
<trkpt lat="20.913052" lon="107.015625">
<ele>-9.619514</ele>
<time>2011-04-30T07:52:50Z</time>
<desc>lat.=20.913052, lon.=107.015625, Alt.=-9.619514m. Speed=8.640000m/h.</desc>
<speed>2.400000</speed>
</trkpt>
<trkpt lat="20.912939" lon="107.015579">
<ele>-9.029671</ele>
<time>2011-04-30T07:52:55Z</time>
<desc>lat.=20.912939, lon.=107.015579, Alt.=-9.029671m. Speed=8.460000m/h.</desc>
<speed>2.350000</speed>
</trkpt>
<trkpt lat="20.912838" lon="107.015549">
<ele>-8.614143</ele>
<time>2011-04-30T07:53:00Z</time>
<desc>lat.=20.912838, lon.=107.015549, Alt.=-8.614143m. Speed=8.820000m/h.</desc>
<speed>2.450000</speed>
</trkpt>
<trkpt lat="20.912731" lon="107.015511">
<ele>-8.326546</ele>
<time>2011-04-30T07:53:05Z</time>
<desc>lat.=20.912731, lon.=107.015511, Alt.=-8.326546m. Speed=8.928000m/h.</desc>
<speed>2.480000</speed>
</trkpt>
<trkpt lat="20.912630" lon="107.015465">
<ele>-8.068977</ele>
<time>2011-04-30T07:53:10Z</time>
<desc>lat.=20.912630, lon.=107.015465, Alt.=-8.068977m. Speed=8.100000m/h.</desc>
<speed>2.250000</speed>
</trkpt>
<trkpt lat="20.912540" lon="107.015427">
<ele>-8.134651</ele>
<time>2011-04-30T07:53:15Z</time>
<desc>lat.=20.912540, lon.=107.015427, Alt.=-8.134651m. Speed=8.928000m/h.</desc>
<speed>2.480000</speed>
</trkpt>
<trkpt lat="20.912434" lon="107.015381">
<ele>-8.219124</ele>
<time>2011-04-30T07:53:20Z</time>
<desc>lat.=20.912434, lon.=107.015381, Alt.=-8.219124m. Speed=8.064000m/h.</desc>
<speed>2.240000</speed>
</trkpt>
<trkpt lat="20.912327" lon="107.015335">
<ele>-8.360481</ele>
<time>2011-04-30T07:53:25Z</time>
<desc>lat.=20.912327, lon.=107.015335, Alt.=-8.360481m. Speed=8.028000m/h.</desc>
<speed>2.230000</speed>
</trkpt>
<trkpt lat="20.912224" lon="107.015282">
<ele>-7.816105</ele>
<time>2011-04-30T07:53:30Z</time>
<desc>lat.=20.912224, lon.=107.015282, Alt.=-7.816105m. Speed=7.956000m/h.</desc>
<speed>2.210000</speed>
</trkpt>
<trkpt lat="20.912115" lon="107.015251">
<ele>-7.377140</ele>
<time>2011-04-30T07:53:35Z</time>
<desc>lat.=20.912115, lon.=107.015251, Alt.=-7.377140m. Speed=8.100000m/h.</desc>
<speed>2.250000</speed>
</trkpt>
<trkpt lat="20.912012" lon="107.015205">
<ele>-6.453068</ele>
<time>2011-04-30T07:53:40Z</time>
<desc>lat.=20.912012, lon.=107.015205, Alt.=-6.453068m. Speed=8.568000m/h.</desc>
<speed>2.380000</speed>
</trkpt>
<trkpt lat="20.911896" lon="107.015175">
<ele>-5.873112</ele>
<time>2011-04-30T07:53:45Z</time>
<desc>lat.=20.911896, lon.=107.015175, Alt.=-5.873112m. Speed=8.100000m/h.</desc>
<speed>2.250000</speed>
</trkpt>
<trkpt lat="20.911787" lon="107.015106">
<ele>-6.548161</ele>
<time>2011-04-30T07:53:50Z</time>
<desc>lat.=20.911787, lon.=107.015106, Alt.=-6.548161m. Speed=8.352000m/h.</desc>
<speed>2.320000</speed>
</trkpt>
<trkpt lat="20.911674" lon="107.015045">
<ele>-6.659733</ele>
<time>2011-04-30T07:53:55Z</time>
<desc>lat.=20.911674, lon.=107.015045, Alt.=-6.659733m. Speed=9.000000m/h.</desc>
<speed>2.500000</speed>
</trkpt>
<trkpt lat="20.911572" lon="107.014984">
<ele>-7.038883</ele>
<time>2011-04-30T07:54:00Z</time>
<desc>lat.=20.911572, lon.=107.014984, Alt.=-7.038883m. Speed=8.892000m/h.</desc>
<speed>2.470000</speed>
</trkpt>
<trkpt lat="20.911465" lon="107.014946">
<ele>-6.949039</ele>
<time>2011-04-30T07:54:05Z</time>
<desc>lat.=20.911465, lon.=107.014946, Alt.=-6.949039m. Speed=8.928000m/h.</desc>
<speed>2.480000</speed>
</trkpt>
<trkpt lat="20.911352" lon="107.014893">
<ele>-7.444645</ele>
<time>2011-04-30T07:54:10Z</time>
<desc>lat.=20.911352, lon.=107.014893, Alt.=-7.444645m. Speed=8.892000m/h.</desc>
<speed>2.470000</speed>
</trkpt>
<trkpt lat="20.911251" lon="107.014854">
<ele>-7.877506</ele>
<time>2011-04-30T07:54:15Z</time>
<desc>lat.=20.911251, lon.=107.014854, Alt.=-7.877506m. Speed=8.928000m/h.</desc>
<speed>2.480000</speed>
</trkpt>
<trkpt lat="20.911154" lon="107.014793">
<ele>-8.905159</ele>
<time>2011-04-30T07:54:20Z</time>
<desc>lat.=20.911154, lon.=107.014793, Alt.=-8.905159m. Speed=8.784000m/h.</desc>
<speed>2.440000</speed>
</trkpt>
<trkpt lat="20.911047" lon="107.014763">
<ele>-8.755745</ele>
<time>2011-04-30T07:54:25Z</time>
<desc>lat.=20.911047, lon.=107.014763, Alt.=-8.755745m. Speed=8.928000m/h.</desc>
<speed>2.480000</speed>
</trkpt>
<trkpt lat="20.910944" lon="107.014725">
<ele>-9.688850</ele>
<time>2011-04-30T07:54:30Z</time>
<desc>lat.=20.910944, lon.=107.014725, Alt.=-9.688850m. Speed=8.784000m/h.</desc>
<speed>2.440000</speed>
</trkpt>
<trkpt lat="20.910841" lon="107.014694">
<ele>-10.040901</ele>
<time>2011-04-30T07:54:35Z</time>
<desc>lat.=20.910841, lon.=107.014694, Alt.=-10.040901m. Speed=9.144000m/h.</desc>
<speed>2.540000</speed>
</trkpt>
<trkpt lat="20.910725" lon="107.014671">
<ele>-8.880745</ele>
<time>2011-04-30T07:54:40Z</time>
<desc>lat.=20.910725, lon.=107.014671, Alt.=-8.880745m. Speed=8.748000m/h.</desc>
<speed>2.430000</speed>
</trkpt>
<trkpt lat="20.910625" lon="107.014626">
<ele>-8.083382</ele>
<time>2011-04-30T07:54:45Z</time>
<desc>lat.=20.910625, lon.=107.014626, Alt.=-8.083382m. Speed=9.036000m/h.</desc>
<speed>2.510000</speed>
</trkpt>
<trkpt lat="20.910526" lon="107.014572">
<ele>-9.691536</ele>
<time>2011-04-30T07:54:50Z</time>
<desc>lat.=20.910526, lon.=107.014572, Alt.=-9.691536m. Speed=9.036000m/h.</desc>
<speed>2.510000</speed>
</trkpt>
<trkpt lat="20.910435" lon="107.014526">
<ele>-10.599495</ele>
<time>2011-04-30T07:54:55Z</time>
<desc>lat.=20.910435, lon.=107.014526, Alt.=-10.599495m. Speed=8.388000m/h.</desc>
<speed>2.330000</speed>
</trkpt>
<trkpt lat="20.910341" lon="107.014481">
<ele>-10.976448</ele>
<time>2011-04-30T07:55:00Z</time>
<desc>lat.=20.910341, lon.=107.014481, Alt.=-10.976448m. Speed=9.108000m/h.</desc>
<speed>2.530000</speed>
</trkpt>
<trkpt lat="20.910250" lon="107.014412">
<ele>-11.620735</ele>
<time>2011-04-30T07:55:05Z</time>
<desc>lat.=20.910250, lon.=107.014412, Alt.=-11.620735m. Speed=8.640000m/h.</desc>
<speed>2.400000</speed>
</trkpt>
<trkpt lat="20.910147" lon="107.014359">
<ele>-12.678596</ele>
<time>2011-04-30T07:55:10Z</time>
<desc>lat.=20.910147, lon.=107.014359, Alt.=-12.678596m. Speed=8.784000m/h.</desc>
<speed>2.440000</speed>
</trkpt>
<trkpt lat="20.910038" lon="107.014313">
<ele>-12.855598</ele>
<time>2011-04-30T07:55:15Z</time>
<desc>lat.=20.910038, lon.=107.014313, Alt.=-12.855598m. Speed=9.216000m/h.</desc>
<speed>2.560000</speed>
</trkpt>
<trkpt lat="20.909939" lon="107.014252">
<ele>-12.583870</ele>
<time>2011-04-30T07:55:20Z</time>
<desc>lat.=20.909939, lon.=107.014252, Alt.=-12.583870m. Speed=8.676000m/h.</desc>
<speed>2.410000</speed>
</trkpt>
<trkpt lat="20.909838" lon="107.014206">
<ele>-13.100716</ele>
<time>2011-04-30T07:55:25Z</time>
<desc>lat.=20.909838, lon.=107.014206, Alt.=-13.100716m. Speed=8.928000m/h.</desc>
<speed>2.480000</speed>
</trkpt>
<trkpt lat="20.909729" lon="107.014153">
<ele>-12.697395</ele>
<time>2011-04-30T07:55:30Z</time>
<desc>lat.=20.909729, lon.=107.014153, Alt.=-12.697395m. Speed=8.892000m/h.</desc>
<speed>2.470000</speed>
</trkpt>
<trkpt lat="20.909632" lon="107.014107">
<ele>-13.382210</ele>
<time>2011-04-30T07:55:35Z</time>
<desc>lat.=20.909632, lon.=107.014107, Alt.=-13.382210m. Speed=8.748000m/h.</desc>
<speed>2.430000</speed>
</trkpt>
<trkpt lat="20.909534" lon="107.014053">
<ele>-14.304085</ele>
<time>2011-04-30T07:55:40Z</time>
<desc>lat.=20.909534, lon.=107.014053, Alt.=-14.304085m. Speed=9.108000m/h.</desc>
<speed>2.530000</speed>
</trkpt>
<trkpt lat="20.909445" lon="107.014015">
<ele>-14.126595</ele>
<time>2011-04-30T07:55:45Z</time>
<desc>lat.=20.909445, lon.=107.014015, Alt.=-14.126595m. Speed=7.200000m/h.</desc>
<speed>2.000000</speed>
</trkpt>
<trkpt lat="20.909351" lon="107.013954">
<ele>-13.697639</ele>
<time>2011-04-30T07:55:50Z</time>
<desc>lat.=20.909351, lon.=107.013954, Alt.=-13.697639m. Speed=7.848000m/h.</desc>
<speed>2.180000</speed>
</trkpt>
<trkpt lat="20.909243" lon="107.013901">
<ele>-13.901985</ele>
<time>2011-04-30T07:55:55Z</time>
<desc>lat.=20.909243, lon.=107.013901, Alt.=-13.901985m. Speed=6.084000m/h.</desc>
<speed>1.690000</speed>
</trkpt>
<trkpt lat="20.909105" lon="107.013855">
<ele>-15.231331</ele>
<time>2011-04-30T07:56:00Z</time>
<desc>lat.=20.909105, lon.=107.013855, Alt.=-15.231331m. Speed=9.972000m/h.</desc>
<speed>2.770000</speed>
</trkpt>
<trkpt lat="20.908964" lon="107.013824">
<ele>-16.380630</ele>
<time>2011-04-30T07:56:05Z</time>
<desc>lat.=20.908964, lon.=107.013824, Alt.=-16.380630m. Speed=9.468000m/h.</desc>
<speed>2.630000</speed>
</trkpt>
<trkpt lat="20.908850" lon="107.013794">
<ele>-15.107552</ele>
<time>2011-04-30T07:56:10Z</time>
<desc>lat.=20.908850, lon.=107.013794, Alt.=-15.107552m. Speed=9.288000m/h.</desc>
<speed>2.580000</speed>
</trkpt>
<trkpt lat="20.908737" lon="107.013756">
<ele>-15.524055</ele>
<time>2011-04-30T07:56:15Z</time>
<desc>lat.=20.908737, lon.=107.013756, Alt.=-15.524055m. Speed=9.252000m/h.</desc>
<speed>2.570000</speed>
</trkpt>
<trkpt lat="20.908627" lon="107.013725">
<ele>-16.588638</ele>
<time>2011-04-30T07:56:20Z</time>
<desc>lat.=20.908627, lon.=107.013725, Alt.=-16.588638m. Speed=9.252000m/h.</desc>
<speed>2.570000</speed>
</trkpt>
<trkpt lat="20.908510" lon="107.013710">
<ele>-17.436295</ele>
<time>2011-04-30T07:56:25Z</time>
<desc>lat.=20.908510, lon.=107.013710, Alt.=-17.436295m. Speed=9.324000m/h.</desc>
<speed>2.590000</speed>
</trkpt>
<trkpt lat="20.908396" lon="107.013702">
<ele>-17.655533</ele>
<time>2011-04-30T07:56:30Z</time>
<desc>lat.=20.908396, lon.=107.013702, Alt.=-17.655533m. Speed=9.540000m/h.</desc>
<speed>2.650000</speed>
</trkpt>
<trkpt lat="20.908279" lon="107.013718">
<ele>-16.866470</ele>
<time>2011-04-30T07:56:35Z</time>
<desc>lat.=20.908279, lon.=107.013718, Alt.=-16.866470m. Speed=9.180000m/h.</desc>
<speed>2.550000</speed>
</trkpt>
<trkpt lat="20.908169" lon="107.013733">
<ele>-15.344124</ele>
<time>2011-04-30T07:56:40Z</time>
<desc>lat.=20.908169, lon.=107.013733, Alt.=-15.344124m. Speed=9.396000m/h.</desc>
<speed>2.610000</speed>
</trkpt>
<trkpt lat="20.908054" lon="107.013748">
<ele>-14.349495</ele>
<time>2011-04-30T07:56:45Z</time>
<desc>lat.=20.908054, lon.=107.013748, Alt.=-14.349495m. Speed=9.324000m/h.</desc>
<speed>2.590000</speed>
</trkpt>
<trkpt lat="20.907936" lon="107.013771">
<ele>-12.966438</ele>
<time>2011-04-30T07:56:50Z</time>
<desc>lat.=20.907936, lon.=107.013771, Alt.=-12.966438m. Speed=9.504000m/h.</desc>
<speed>2.640000</speed>
</trkpt>
<trkpt lat="20.907820" lon="107.013802">
<ele>-11.586800</ele>
<time>2011-04-30T07:56:55Z</time>
<desc>lat.=20.907820, lon.=107.013802, Alt.=-11.586800m. Speed=9.432000m/h.</desc>
<speed>2.620000</speed>
</trkpt>
<trkpt lat="20.907703" lon="107.013817">
<ele>-9.138802</ele>
<time>2011-04-30T07:57:00Z</time>
<desc>lat.=20.907703, lon.=107.013817, Alt.=-9.138802m. Speed=9.540000m/h.</desc>
<speed>2.650000</speed>
</trkpt>
<trkpt lat="20.907585" lon="107.013809">
<ele>-8.389778</ele>
<time>2011-04-30T07:57:05Z</time>
<desc>lat.=20.907585, lon.=107.013809, Alt.=-8.389778m. Speed=9.396000m/h.</desc>
<speed>2.610000</speed>
</trkpt>
<trkpt lat="20.907469" lon="107.013817">
<ele>-7.044865</ele>
<time>2011-04-30T07:57:10Z</time>
<desc>lat.=20.907469, lon.=107.013817, Alt.=-7.044865m. Speed=9.504000m/h.</desc>
<speed>2.640000</speed>
</trkpt>
<trkpt lat="20.907352" lon="107.013832">
<ele>-5.855412</ele>
<time>2011-04-30T07:57:15Z</time>
<desc>lat.=20.907352, lon.=107.013832, Alt.=-5.855412m. Speed=9.072000m/h.</desc>
<speed>2.520000</speed>
</trkpt>
<trkpt lat="20.907228" lon="107.013847">
<ele>-5.333195</ele>
<time>2011-04-30T07:57:20Z</time>
<desc>lat.=20.907228, lon.=107.013847, Alt.=-5.333195m. Speed=9.036000m/h.</desc>
<speed>2.510000</speed>
</trkpt>
<trkpt lat="20.907108" lon="107.013870">
<ele>-5.293156</ele>
<time>2011-04-30T07:57:25Z</time>
<desc>lat.=20.907108, lon.=107.013870, Alt.=-5.293156m. Speed=9.000000m/h.</desc>
<speed>2.500000</speed>
</trkpt>
<trkpt lat="20.906982" lon="107.013901">
<ele>-4.885807</ele>
<time>2011-04-30T07:57:30Z</time>
<desc>lat.=20.906982, lon.=107.013901, Alt.=-4.885807m. Speed=9.072000m/h.</desc>
<speed>2.520000</speed>
</trkpt>
<trkpt lat="20.906868" lon="107.013939">
<ele>-3.421297</ele>
<time>2011-04-30T07:57:35Z</time>
<desc>lat.=20.906868, lon.=107.013939, Alt.=-3.421297m. Speed=8.748000m/h.</desc>
<speed>2.430000</speed>
</trkpt>
<trkpt lat="20.906757" lon="107.013954">
<ele>-2.829561</ele>
<time>2011-04-30T07:57:40Z</time>
<desc>lat.=20.906757, lon.=107.013954, Alt.=-2.829561m. Speed=9.036000m/h.</desc>
<speed>2.510000</speed>
</trkpt>
<trkpt lat="20.906633" lon="107.013977">
<ele>-3.382296</ele>
<time>2011-04-30T07:57:45Z</time>
<desc>lat.=20.906633, lon.=107.013977, Alt.=-3.382296m. Speed=9.108000m/h.</desc>
<speed>2.530000</speed>
</trkpt>
<trkpt lat="20.906509" lon="107.014015">
<ele>-1.979814</ele>
<time>2011-04-30T07:57:50Z</time>
<desc>lat.=20.906509, lon.=107.014015, Alt.=-1.979814m. Speed=9.072000m/h.</desc>
<speed>2.520000</speed>
</trkpt>
<trkpt lat="20.906385" lon="107.014030">
<ele>-0.089772</ele>
<time>2011-04-30T07:57:55Z</time>
<desc>lat.=20.906385, lon.=107.014030, Alt.=-0.089772m. Speed=9.540000m/h.</desc>
<speed>2.650000</speed>
</trkpt>
<trkpt lat="20.906267" lon="107.014046">
<ele>0.073119</ele>
<time>2011-04-30T07:58:00Z</time>
<desc>lat.=20.906267, lon.=107.014046, Alt.=0.073119m. Speed=9.540000m/h.</desc>
<speed>2.650000</speed>
</trkpt>
<trkpt lat="20.906149" lon="107.014061">
<ele>-0.083608</ele>
<time>2011-04-30T07:58:05Z</time>
<desc>lat.=20.906149, lon.=107.014061, Alt.=-0.083608m. Speed=9.360000m/h.</desc>
<speed>2.600000</speed>
</trkpt>
<trkpt lat="20.906033" lon="107.014053">
<ele>0.171141</ele>
<time>2011-04-30T07:58:10Z</time>
<desc>lat.=20.906033, lon.=107.014053, Alt.=0.171141m. Speed=9.864000m/h.</desc>
<speed>2.740000</speed>
</trkpt>
<trkpt lat="20.905916" lon="107.014091">
<ele>0.354008</ele>
<time>2011-04-30T07:58:15Z</time>
<desc>lat.=20.905916, lon.=107.014091, Alt.=0.354008m. Speed=9.576000m/h.</desc>
<speed>2.660000</speed>
</trkpt>
<trkpt lat="20.905798" lon="107.014114">
<ele>0.532341</ele>
<time>2011-04-30T07:58:20Z</time>
<desc>lat.=20.905798, lon.=107.014114, Alt.=0.532341m. Speed=10.404000m/h.</desc>
<speed>2.890000</speed>
</trkpt>
<trkpt lat="20.905678" lon="107.014130">
<ele>1.318986</ele>
<time>2011-04-30T07:58:25Z</time>
<desc>lat.=20.905678, lon.=107.014130, Alt.=1.318986m. Speed=10.404000m/h.</desc>
<speed>2.890000</speed>
</trkpt>
<trkpt lat="20.905567" lon="107.014168">
<ele>2.941439</ele>
<time>2011-04-30T07:58:30Z</time>
<desc>lat.=20.905567, lon.=107.014168, Alt.=2.941439m. Speed=9.288000m/h.</desc>
<speed>2.580000</speed>
</trkpt>
<trkpt lat="20.905453" lon="107.014191">
<ele>3.039522</ele>
<time>2011-04-30T07:58:35Z</time>
<desc>lat.=20.905453, lon.=107.014191, Alt.=3.039522m. Speed=9.504000m/h.</desc>
<speed>2.640000</speed>
</trkpt>
<trkpt lat="20.905344" lon="107.014229">
<ele>3.181612</ele>
<time>2011-04-30T07:58:40Z</time>
<desc>lat.=20.905344, lon.=107.014229, Alt.=3.181612m. Speed=8.748000m/h.</desc>
<speed>2.430000</speed>
</trkpt>
<trkpt lat="20.905251" lon="107.014282">
<ele>2.665987</ele>
<time>2011-04-30T07:58:45Z</time>
<desc>lat.=20.905251, lon.=107.014282, Alt.=2.665987m. Speed=8.100000m/h.</desc>
<speed>2.250000</speed>
</trkpt>
<trkpt lat="20.905155" lon="107.014343">
<ele>2.152620</ele>
<time>2011-04-30T07:58:50Z</time>
<desc>lat.=20.905155, lon.=107.014343, Alt.=2.152620m. Speed=8.712000m/h.</desc>
<speed>2.420000</speed>
</trkpt>
<trkpt lat="20.905060" lon="107.014397">
<ele>1.592088</ele>
<time>2011-04-30T07:58:55Z</time>
<desc>lat.=20.905060, lon.=107.014397, Alt.=1.592088m. Speed=9.468000m/h.</desc>
<speed>2.630000</speed>
</trkpt>
<trkpt lat="20.904953" lon="107.014465">
<ele>1.221574</ele>
<time>2011-04-30T07:59:00Z</time>
<desc>lat.=20.904953, lon.=107.014465, Alt.=1.221574m. Speed=8.856000m/h.</desc>
<speed>2.460000</speed>
</trkpt>
<trkpt lat="20.904854" lon="107.014519">
<ele>2.368807</ele>
<time>2011-04-30T07:59:05Z</time>
<desc>lat.=20.904854, lon.=107.014519, Alt.=2.368807m. Speed=8.604000m/h.</desc>
<speed>2.390000</speed>
</trkpt>
<trkpt lat="20.904768" lon="107.014580">
<ele>2.574862</ele>
<time>2011-04-30T07:59:10Z</time>
<desc>lat.=20.904768, lon.=107.014580, Alt.=2.574862m. Speed=8.028000m/h.</desc>
<speed>2.230000</speed>
</trkpt>
<trkpt lat="20.904665" lon="107.014648">
<ele>2.226229</ele>
<time>2011-04-30T07:59:15Z</time>
<desc>lat.=20.904665, lon.=107.014648, Alt.=2.226229m. Speed=9.000000m/h.</desc>
<speed>2.500000</speed>
</trkpt>
<trkpt lat="20.904575" lon="107.014725">
<ele>2.670198</ele>
<time>2011-04-30T07:59:20Z</time>
<desc>lat.=20.904575, lon.=107.014725, Alt.=2.670198m. Speed=8.820000m/h.</desc>
<speed>2.450000</speed>
</trkpt>
<trkpt lat="20.904472" lon="107.014786">
<ele>2.641634</ele>
<time>2011-04-30T07:59:25Z</time>
<desc>lat.=20.904472, lon.=107.014786, Alt.=2.641634m. Speed=8.964000m/h.</desc>
<speed>2.490000</speed>
</trkpt>
<trkpt lat="20.904381" lon="107.014870">
<ele>1.781632</ele>
<time>2011-04-30T07:59:30Z</time>
<desc>lat.=20.904381, lon.=107.014870, Alt.=1.781632m. Speed=8.748000m/h.</desc>
<speed>2.430000</speed>
</trkpt>
<trkpt lat="20.904280" lon="107.014946">
<ele>1.215562</ele>
<time>2011-04-30T07:59:35Z</time>
<desc>lat.=20.904280, lon.=107.014946, Alt.=1.215562m. Speed=9.036000m/h.</desc>
<speed>2.510000</speed>
</trkpt>
<trkpt lat="20.904184" lon="107.015015">
<ele>1.021623</ele>
<time>2011-04-30T07:59:40Z</time>
<desc>lat.=20.904184, lon.=107.015015, Alt.=1.021623m. Speed=8.640000m/h.</desc>
<speed>2.400000</speed>
</trkpt>
<trkpt lat="20.904091" lon="107.015083">
<ele>2.195162</ele>
<time>2011-04-30T07:59:45Z</time>
<desc>lat.=20.904091, lon.=107.015083, Alt.=2.195162m. Speed=9.288000m/h.</desc>
<speed>2.580000</speed>
</trkpt>
<trkpt lat="20.904009" lon="107.015167">
<ele>2.329744</ele>
<time>2011-04-30T07:59:50Z</time>
<desc>lat.=20.904009, lon.=107.015167, Alt.=2.329744m. Speed=9.000000m/h.</desc>
<speed>2.500000</speed>
</trkpt>
<trkpt lat="20.903927" lon="107.015236">
<ele>1.676133</ele>
<time>2011-04-30T07:59:55Z</time>
<desc>lat.=20.903927, lon.=107.015236, Alt.=1.676133m. Speed=8.496000m/h.</desc>
<speed>2.360000</speed>
</trkpt>
<trkpt lat="20.903843" lon="107.015312">
<ele>1.742021</ele>
<time>2011-04-30T08:00:00Z</time>
<desc>lat.=20.903843, lon.=107.015312, Alt.=1.742021m. Speed=8.712000m/h.</desc>
<speed>2.420000</speed>
</trkpt>
<trkpt lat="20.903759" lon="107.015396">
<ele>0.737465</ele>
<time>2011-04-30T08:00:05Z</time>
<desc>lat.=20.903759, lon.=107.015396, Alt.=0.737465m. Speed=7.992000m/h.</desc>
<speed>2.220000</speed>
</trkpt>
<trkpt lat="20.903675" lon="107.015465">
<ele>-0.322674</ele>
<time>2011-04-30T08:00:10Z</time>
<desc>lat.=20.903675, lon.=107.015465, Alt.=-0.322674m. Speed=8.532000m/h.</desc>
<speed>2.370000</speed>
</trkpt>
<trkpt lat="20.903599" lon="107.015564">
<ele>-1.259171</ele>
<time>2011-04-30T08:00:15Z</time>
<desc>lat.=20.903599, lon.=107.015564, Alt.=-1.259171m. Speed=7.848000m/h.</desc>
<speed>2.180000</speed>
</trkpt>
<trkpt lat="20.903515" lon="107.015633">
<ele>-2.589083</ele>
<time>2011-04-30T08:00:20Z</time>
<desc>lat.=20.903515, lon.=107.015633, Alt.=-2.589083m. Speed=7.920000m/h.</desc>
<speed>2.200000</speed>
</trkpt>
<trkpt lat="20.903440" lon="107.015686">
<ele>-4.298405</ele>
<time>2011-04-30T08:00:25Z</time>
<desc>lat.=20.903440, lon.=107.015686, Alt.=-4.298405m. Speed=7.488000m/h.</desc>
<speed>2.080000</speed>
</trkpt>
<trkpt lat="20.903378" lon="107.015762">
<ele>-4.716618</ele>
<time>2011-04-30T08:00:30Z</time>
<desc>lat.=20.903378, lon.=107.015762, Alt.=-4.716618m. Speed=6.588000m/h.</desc>
<speed>1.830000</speed>
</trkpt>
<trkpt lat="20.903313" lon="107.015808">
<ele>-4.195133</ele>
<time>2011-04-30T08:00:35Z</time>
<desc>lat.=20.903313, lon.=107.015808, Alt.=-4.195133m. Speed=6.588000m/h.</desc>
<speed>1.830000</speed>
</trkpt>
<trkpt lat="20.903248" lon="107.015862">
<ele>-2.786898</ele>
<time>2011-04-30T08:00:40Z</time>
<desc>lat.=20.903248, lon.=107.015862, Alt.=-2.786898m. Speed=6.192000m/h.</desc>
<speed>1.720000</speed>
</trkpt>
<trkpt lat="20.903173" lon="107.015953">
<ele>-0.444134</ele>
<time>2011-04-30T08:00:45Z</time>
<desc>lat.=20.903173, lon.=107.015953, Alt.=-0.444134m. Speed=6.264000m/h.</desc>
<speed>1.740000</speed>
</trkpt>
<trkpt lat="20.903120" lon="107.016029">
<ele>4.343449</ele>
<time>2011-04-30T08:00:50Z</time>
<desc>lat.=20.903120, lon.=107.016029, Alt.=4.343449m. Speed=5.616000m/h.</desc>
<speed>1.560000</speed>
</trkpt>
<trkpt lat="20.903078" lon="107.016075">
<ele>0.212809</ele>
<time>2011-04-30T08:00:55Z</time>
<desc>lat.=20.903078, lon.=107.016075, Alt.=0.212809m. Speed=5.580000m/h.</desc>
<speed>1.550000</speed>
</trkpt>
<trkpt lat="20.903048" lon="107.016113">
<ele>1.221238</ele>
<time>2011-04-30T08:01:00Z</time>
<desc>lat.=20.903048, lon.=107.016113, Alt.=1.221238m. Speed=4.644000m/h.</desc>
<speed>1.290000</speed>
</trkpt>
<trkpt lat="20.903027" lon="107.016159">
<ele>0.556405</ele>
<time>2011-04-30T08:01:05Z</time>
<desc>lat.=20.903027, lon.=107.016159, Alt.=0.556405m. Speed=3.132000m/h.</desc>
<speed>0.870000</speed>
</trkpt>
<trkpt lat="20.903013" lon="107.016197">
<ele>0.060431</ele>
<time>2011-04-30T08:01:10Z</time>
<desc>lat.=20.903013, lon.=107.016197, Alt.=0.060431m. Speed=2.124000m/h.</desc>
<speed>0.590000</speed>
</trkpt>
<trkpt lat="20.903002" lon="107.016197">
<ele>-1.319535</ele>
<time>2011-04-30T08:01:15Z</time>
<desc>lat.=20.903002, lon.=107.016197, Alt.=-1.319535m. Speed=0.972000m/h.</desc>
<speed>0.270000</speed>
</trkpt>
<trkpt lat="20.902987" lon="107.016205">
<ele>-2.023897</ele>
<time>2011-04-30T08:01:20Z</time>
<desc>lat.=20.902987, lon.=107.016205, Alt.=-2.023897m. Speed=0.972000m/h.</desc>
<speed>0.270000</speed>
</trkpt>
<trkpt lat="20.902979" lon="107.016212">
<ele>-1.963487</ele>
<time>2011-04-30T08:01:25Z</time>
<desc>lat.=20.902979, lon.=107.016212, Alt.=-1.963487m. Speed=0.828000m/h.</desc>
<speed>0.230000</speed>
</trkpt>
<trkpt lat="20.902975" lon="107.016220">
<ele>-1.942796</ele>
<time>2011-04-30T08:01:30Z</time>
<desc>lat.=20.902975, lon.=107.016220, Alt.=-1.942796m. Speed=0.576000m/h.</desc>
<speed>0.160000</speed>
</trkpt>
<trkpt lat="20.902973" lon="107.016228">
<ele>-1.955186</ele>
<time>2011-04-30T08:01:35Z</time>
<desc>lat.=20.902973, lon.=107.016228, Alt.=-1.955186m. Speed=0.612000m/h.</desc>
<speed>0.170000</speed>
</trkpt>
<trkpt lat="20.902979" lon="107.016235">
<ele>-2.003817</ele>
<time>2011-04-30T08:01:40Z</time>
<desc>lat.=20.902979, lon.=107.016235, Alt.=-2.003817m. Speed=0.468000m/h.</desc>
<speed>0.130000</speed>
</trkpt>
<trkpt lat="20.902981" lon="107.016235">
<ele>-2.114107</ele>
<time>2011-04-30T08:01:45Z</time>
<desc>lat.=20.902981, lon.=107.016235, Alt.=-2.114107m. Speed=0.288000m/h.</desc>
<speed>0.080000</speed>
</trkpt>
<trkpt lat="20.902981" lon="107.016243">
<ele>-1.930375</ele>
<time>2011-04-30T08:01:50Z</time>
<desc>lat.=20.902981, lon.=107.016243, Alt.=-1.930375m. Speed=0.324000m/h.</desc>
<speed>0.090000</speed>
</trkpt>
<trkpt lat="20.902975" lon="107.016243">
<ele>-1.831101</ele>
<time>2011-04-30T08:01:55Z</time>
<desc>lat.=20.902975, lon.=107.016243, Alt.=-1.831101m. Speed=0.216000m/h.</desc>
<speed>0.060000</speed>
</trkpt>
<trkpt lat="20.902975" lon="107.016251">
<ele>-2.610018</ele>
<time>2011-04-30T08:02:00Z</time>
<desc>lat.=20.902975, lon.=107.016251, Alt.=-2.610018m. Speed=0.144000m/h.</desc>
<speed>0.040000</speed>
</trkpt>
<trkpt lat="20.902981" lon="107.016243">
<ele>-1.894090</ele>
<time>2011-04-30T08:02:05Z</time>
<desc>lat.=20.902981, lon.=107.016243, Alt.=-1.894090m. Speed=0.216000m/h.</desc>
<speed>0.060000</speed>
</trkpt>
<trkpt lat="20.902985" lon="107.016243">
<ele>-1.579484</ele>
<time>2011-04-30T08:02:10Z</time>
<desc>lat.=20.902985, lon.=107.016243, Alt.=-1.579484m. Speed=0.036000m/h.</desc>
<speed>0.010000</speed>
</trkpt>
<trkpt lat="20.902990" lon="107.016243">
<ele>-1.532395</ele>
<time>2011-04-30T08:02:15Z</time>
<desc>lat.=20.902990, lon.=107.016243, Alt.=-1.532395m. Speed=0.000000m/h.</desc>
<speed>0.000000</speed>
</trkpt>
<trkpt lat="20.902990" lon="107.016220">
<ele>-0.982247</ele>
<time>2011-04-30T08:02:20Z</time>
<desc>lat.=20.902990, lon.=107.016220, Alt.=-0.982247m. Speed=0.072000m/h.</desc>
<speed>0.020000</speed>
</trkpt>
<trkpt lat="20.902992" lon="107.016212">
<ele>-2.584383</ele>
<time>2011-04-30T08:02:25Z</time>
<desc>lat.=20.902992, lon.=107.016212, Alt.=-2.584383m. Speed=0.072000m/h.</desc>
<speed>0.020000</speed>
</trkpt>
<trkpt lat="20.903002" lon="107.016212">
<ele>-4.502750</ele>
<time>2011-04-30T08:02:30Z</time>
<desc>lat.=20.903002, lon.=107.016212, Alt.=-4.502750m. Speed=0.036000m/h.</desc>
<speed>0.010000</speed>
</trkpt>
<trkpt lat="20.903002" lon="107.016212">
<ele>-4.539494</ele>
<time>2011-04-30T08:02:35Z</time>
<desc>lat.=20.903002, lon.=107.016212, Alt.=-4.539494m. Speed=0.036000m/h.</desc>
<speed>0.010000</speed>
</trkpt>
<trkpt lat="20.903002" lon="107.016212">
<ele>-4.544498</ele>
<time>2011-04-30T08:02:40Z</time>
<desc>lat.=20.903002, lon.=107.016212, Alt.=-4.544498m. Speed=0.036000m/h.</desc>
<speed>0.010000</speed>
</trkpt>
<trkpt lat="20.903002" lon="107.016212">
<ele>-4.577702</ele>
<time>2011-04-30T08:02:45Z</time>
<desc>lat.=20.903002, lon.=107.016212, Alt.=-4.577702m. Speed=0.036000m/h.</desc>
<speed>0.010000</speed>
</trkpt>
<trkpt lat="20.903002" lon="107.016212">
<ele>-4.589298</ele>
<time>2011-04-30T08:02:50Z</time>
<desc>lat.=20.903002, lon.=107.016212, Alt.=-4.589298m. Speed=0.000000m/h.</desc>
<speed>0.000000</speed>
</trkpt>
<trkpt lat="20.903002" lon="107.016212">
<ele>-4.556828</ele>
<time>2011-04-30T08:02:55Z</time>
<desc>lat.=20.903002, lon.=107.016212, Alt.=-4.556828m. Speed=0.036000m/h.</desc>
<speed>0.010000</speed>
</trkpt>
<trkpt lat="20.903002" lon="107.016212">
<ele>-4.556950</ele>
<time>2011-04-30T08:03:00Z</time>
<desc>lat.=20.903002, lon.=107.016212, Alt.=-4.556950m. Speed=0.000000m/h.</desc>
<speed>0.000000</speed>
</trkpt>
<trkpt lat="20.903002" lon="107.016212">
<ele>-4.574162</ele>
<time>2011-04-30T08:03:05Z</time>
<desc>lat.=20.903002, lon.=107.016212, Alt.=-4.574162m. Speed=0.036000m/h.</desc>
<speed>0.010000</speed>
</trkpt>
<trkpt lat="20.903002" lon="107.016212">
<ele>-4.588322</ele>
<time>2011-04-30T08:03:10Z</time>
<desc>lat.=20.903002, lon.=107.016212, Alt.=-4.588322m. Speed=0.000000m/h.</desc>
<speed>0.000000</speed>
</trkpt>
<trkpt lat="20.903002" lon="107.016212">
<ele>-4.571476</ele>
<time>2011-04-30T08:03:15Z</time>
<desc>lat.=20.903002, lon.=107.016212, Alt.=-4.571476m. Speed=0.000000m/h.</desc>
<speed>0.000000</speed>
</trkpt>
<trkpt lat="20.903002" lon="107.016212">
<ele>-4.555485</ele>
<time>2011-04-30T08:03:20Z</time>
<desc>lat.=20.903002, lon.=107.016212, Alt.=-4.555485m. Speed=0.036000m/h.</desc>
<speed>0.010000</speed>
</trkpt>
<trkpt lat="20.903002" lon="107.016212">
<ele>-4.503117</ele>
<time>2011-04-30T08:03:25Z</time>
<desc>lat.=20.903002, lon.=107.016212, Alt.=-4.503117m. Speed=0.036000m/h.</desc>
<speed>0.010000</speed>
</trkpt>
<trkpt lat="20.903002" lon="107.016212">
<ele>-4.488712</ele>
<time>2011-04-30T08:03:30Z</time>
<desc>lat.=20.903002, lon.=107.016212, Alt.=-4.488712m. Speed=0.036000m/h.</desc>
<speed>0.010000</speed>
</trkpt>
<trkpt lat="20.903002" lon="107.016212">
<ele>-4.475285</ele>
<time>2011-04-30T08:03:35Z</time>
<desc>lat.=20.903002, lon.=107.016212, Alt.=-4.475285m. Speed=0.036000m/h.</desc>
<speed>0.010000</speed>
</trkpt>
<trkpt lat="20.903002" lon="107.016212">
<ele>-4.480656</ele>
<time>2011-04-30T08:03:40Z</time>
<desc>lat.=20.903002, lon.=107.016212, Alt.=-4.480656m. Speed=0.036000m/h.</desc>
<speed>0.010000</speed>
</trkpt>
<trkpt lat="20.903002" lon="107.016212">
<ele>-4.485294</ele>
<time>2011-04-30T08:03:45Z</time>
<desc>lat.=20.903002, lon.=107.016212, Alt.=-4.485294m. Speed=0.036000m/h.</desc>
<speed>0.010000</speed>
</trkpt>
<trkpt lat="20.903002" lon="107.016212">
<ele>-4.476505</ele>
<time>2011-04-30T08:03:50Z</time>
<desc>lat.=20.903002, lon.=107.016212, Alt.=-4.476505m. Speed=0.000000m/h.</desc>
<speed>0.000000</speed>
</trkpt>
<trkpt lat="20.903002" lon="107.016212">
<ele>-4.460026</ele>
<time>2011-04-30T08:03:55Z</time>
<desc>lat.=20.903002, lon.=107.016212, Alt.=-4.460026m. Speed=0.072000m/h.</desc>
<speed>0.020000</speed>
</trkpt>
<trkpt lat="20.903002" lon="107.016212">
<ele>-4.466740</ele>
<time>2011-04-30T08:04:00Z</time>
<desc>lat.=20.903002, lon.=107.016212, Alt.=-4.466740m. Speed=0.072000m/h.</desc>
<speed>0.020000</speed>
</trkpt>
<trkpt lat="20.903002" lon="107.016212">
<ele>-4.468571</ele>
<time>2011-04-30T08:04:05Z</time>
<desc>lat.=20.903002, lon.=107.016212, Alt.=-4.468571m. Speed=0.072000m/h.</desc>
<speed>0.020000</speed>
</trkpt>
<trkpt lat="20.903002" lon="107.016212">
<ele>-4.461979</ele>
<time>2011-04-30T08:04:10Z</time>
<desc>lat.=20.903002, lon.=107.016212, Alt.=-4.461979m. Speed=0.036000m/h.</desc>
<speed>0.010000</speed>
</trkpt>
<trkpt lat="20.903002" lon="107.016212">
<ele>-4.440006</ele>
<time>2011-04-30T08:04:15Z</time>
<desc>lat.=20.903002, lon.=107.016212, Alt.=-4.440006m. Speed=0.000000m/h.</desc>
<speed>0.000000</speed>
</trkpt>
<trkpt lat="20.903002" lon="107.016212">
<ele>-4.443546</ele>
<time>2011-04-30T08:04:20Z</time>
<desc>lat.=20.903002, lon.=107.016212, Alt.=-4.443546m. Speed=0.000000m/h.</desc>
<speed>0.000000</speed>
</trkpt>
<trkpt lat="20.903002" lon="107.016212">
<ele>-4.445377</ele>
<time>2011-04-30T08:04:25Z</time>
<desc>lat.=20.903002, lon.=107.016212, Alt.=-4.445377m. Speed=0.072000m/h.</desc>
<speed>0.020000</speed>
</trkpt>
<trkpt lat="20.903004" lon="107.016212">
<ele>-4.447453</ele>
<time>2011-04-30T08:04:30Z</time>
<desc>lat.=20.903004, lon.=107.016212, Alt.=-4.447453m. Speed=0.000000m/h.</desc>
<speed>0.000000</speed>
</trkpt>
<trkpt lat="20.903004" lon="107.016212">
<ele>-4.453678</ele>
<time>2011-04-30T08:04:35Z</time>
<desc>lat.=20.903004, lon.=107.016212, Alt.=-4.453678m. Speed=0.000000m/h.</desc>
<speed>0.000000</speed>
</trkpt>
<trkpt lat="20.903004" lon="107.016212">
<ele>-4.457706</ele>
<time>2011-04-30T08:04:40Z</time>
<desc>lat.=20.903004, lon.=107.016212, Alt.=-4.457706m. Speed=0.036000m/h.</desc>
<speed>0.010000</speed>
</trkpt>
<trkpt lat="20.903004" lon="107.016212">
<ele>-4.456364</ele>
<time>2011-04-30T08:04:45Z</time>
<desc>lat.=20.903004, lon.=107.016212, Alt.=-4.456364m. Speed=0.000000m/h.</desc>
<speed>0.000000</speed>
</trkpt>
<trkpt lat="20.903004" lon="107.016212">
<ele>-4.477848</ele>
<time>2011-04-30T08:04:50Z</time>
<desc>lat.=20.903004, lon.=107.016212, Alt.=-4.477848m. Speed=0.036000m/h.</desc>
<speed>0.010000</speed>
</trkpt>
<trkpt lat="20.903004" lon="107.016212">
<ele>-4.483219</ele>
<time>2011-04-30T08:04:55Z</time>
<desc>lat.=20.903004, lon.=107.016212, Alt.=-4.483219m. Speed=0.000000m/h.</desc>
<speed>0.000000</speed>
</trkpt>
<trkpt lat="20.903004" lon="107.016212">
<ele>-4.485050</ele>
<time>2011-04-30T08:05:00Z</time>
<desc>lat.=20.903004, lon.=107.016212, Alt.=-4.485050m. Speed=0.000000m/h.</desc>
<speed>0.000000</speed>
</trkpt>
<trkpt lat="20.903004" lon="107.016212">
<ele>-4.461002</ele>
<time>2011-04-30T08:05:05Z</time>
<desc>lat.=20.903004, lon.=107.016212, Alt.=-4.461002m. Speed=0.036000m/h.</desc>
<speed>0.010000</speed>
</trkpt>
<trkpt lat="20.903004" lon="107.016212">
<ele>-4.459049</ele>
<time>2011-04-30T08:05:10Z</time>
<desc>lat.=20.903004, lon.=107.016212, Alt.=-4.459049m. Speed=0.000000m/h.</desc>
<speed>0.000000</speed>
</trkpt>
<trkpt lat="20.903002" lon="107.016212">
<ele>-4.845036</ele>
<time>2011-04-30T08:05:15Z</time>
<desc>lat.=20.903002, lon.=107.016212, Alt.=-4.845036m. Speed=0.000000m/h.</desc>
<speed>0.000000</speed>
</trkpt>
<trkpt lat="20.903006" lon="107.016205">
<ele>-4.964176</ele>
<time>2011-04-30T08:05:20Z</time>
<desc>lat.=20.903006, lon.=107.016205, Alt.=-4.964176m. Speed=0.000000m/h.</desc>
<speed>0.000000</speed>
</trkpt>
<trkpt lat="20.903006" lon="107.016190">
<ele>-3.486177</ele>
<time>2011-04-30T08:05:25Z</time>
<desc>lat.=20.903006, lon.=107.016190, Alt.=-3.486177m. Speed=0.000000m/h.</desc>
<speed>0.000000</speed>
</trkpt>
<trkpt lat="20.903008" lon="107.016205">
<ele>-3.132540</ele>
<time>2011-04-30T08:05:30Z</time>
<desc>lat.=20.903008, lon.=107.016205, Alt.=-3.132540m. Speed=0.000000m/h.</desc>
<speed>0.000000</speed>
</trkpt>
<trkpt lat="20.903004" lon="107.016190">
<ele>-3.483431</ele>
<time>2011-04-30T08:05:35Z</time>
<desc>lat.=20.903004, lon.=107.016190, Alt.=-3.483431m. Speed=0.000000m/h.</desc>
<speed>0.000000</speed>
</trkpt>
<trkpt lat="20.903004" lon="107.016197">
<ele>-3.978182</ele>
<time>2011-04-30T08:05:40Z</time>
<desc>lat.=20.903004, lon.=107.016197, Alt.=-3.978182m. Speed=0.036000m/h.</desc>
<speed>0.010000</speed>
</trkpt>
<trkpt lat="20.903009" lon="107.016205">
<ele>-3.732271</ele>
<time>2011-04-30T08:05:45Z</time>
<desc>lat.=20.903009, lon.=107.016205, Alt.=-3.732271m. Speed=0.036000m/h.</desc>
<speed>0.010000</speed>
</trkpt>
<trkpt lat="20.903011" lon="107.016205">
<ele>-4.292423</ele>
<time>2011-04-30T08:05:50Z</time>
<desc>lat.=20.903011, lon.=107.016205, Alt.=-4.292423m. Speed=0.036000m/h.</desc>
<speed>0.010000</speed>
</trkpt>
<trkpt lat="20.903009" lon="107.016205">
<ele>-4.944157</ele>
<time>2011-04-30T08:05:55Z</time>
<desc>lat.=20.903009, lon.=107.016205, Alt.=-4.944157m. Speed=0.036000m/h.</desc>
<speed>0.010000</speed>
</trkpt>
<trkpt lat="20.903009" lon="107.016205">
<ele>-4.938297</ele>
<time>2011-04-30T08:06:00Z</time>
<desc>lat.=20.903009, lon.=107.016205, Alt.=-4.938297m. Speed=0.000000m/h.</desc>
<speed>0.000000</speed>
</trkpt>
<trkpt lat="20.903009" lon="107.016205">
<ele>-4.938786</ele>
<time>2011-04-30T08:06:05Z</time>
<desc>lat.=20.903009, lon.=107.016205, Alt.=-4.938786m. Speed=0.000000m/h.</desc>
<speed>0.000000</speed>
</trkpt>
<trkpt lat="20.903009" lon="107.016205">
<ele>-4.940495</ele>
<time>2011-04-30T08:06:10Z</time>
<desc>lat.=20.903009, lon.=107.016205, Alt.=-4.940495m. Speed=0.036000m/h.</desc>
<speed>0.010000</speed>
</trkpt>
<trkpt lat="20.903009" lon="107.016205">
<ele>-4.941349</ele>
<time>2011-04-30T08:06:15Z</time>
<desc>lat.=20.903009, lon.=107.016205, Alt.=-4.941349m. Speed=0.072000m/h.</desc>
<speed>0.020000</speed>
</trkpt>
<trkpt lat="20.903009" lon="107.016205">
<ele>-4.950138</ele>
<time>2011-04-30T08:06:20Z</time>
<desc>lat.=20.903009, lon.=107.016205, Alt.=-4.950138m. Speed=0.036000m/h.</desc>
<speed>0.010000</speed>
</trkpt>
<trkpt lat="20.903009" lon="107.016205">
<ele>-4.958195</ele>
<time>2011-04-30T08:06:25Z</time>
<desc>lat.=20.903009, lon.=107.016205, Alt.=-4.958195m. Speed=0.072000m/h.</desc>
<speed>0.020000</speed>
</trkpt>
<trkpt lat="20.903009" lon="107.016205">
<ele>-4.973942</ele>
<time>2011-04-30T08:06:30Z</time>
<desc>lat.=20.903009, lon.=107.016205, Alt.=-4.973942m. Speed=0.000000m/h.</desc>
<speed>0.000000</speed>
</trkpt>
<trkpt lat="20.903009" lon="107.016205">
<ele>-4.976139</ele>
<time>2011-04-30T08:06:35Z</time>
<desc>lat.=20.903009, lon.=107.016205, Alt.=-4.976139m. Speed=0.036000m/h.</desc>
<speed>0.010000</speed>
</trkpt>
<trkpt lat="20.903009" lon="107.016205">
<ele>-4.969425</ele>
<time>2011-04-30T08:06:40Z</time>
<desc>lat.=20.903009, lon.=107.016205, Alt.=-4.969425m. Speed=0.036000m/h.</desc>
<speed>0.010000</speed>
</trkpt>
<trkpt lat="20.903009" lon="107.016205">
<ele>-4.973209</ele>
<time>2011-04-30T08:06:45Z</time>
<desc>lat.=20.903009, lon.=107.016205, Alt.=-4.973209m. Speed=0.000000m/h.</desc>
<speed>0.000000</speed>
</trkpt>
<trkpt lat="20.903009" lon="107.016205">
<ele>-4.966496</ele>
<time>2011-04-30T08:06:50Z</time>
<desc>lat.=20.903009, lon.=107.016205, Alt.=-4.966496m. Speed=0.000000m/h.</desc>
<speed>0.000000</speed>
</trkpt>
<trkpt lat="20.903009" lon="107.016205">
<ele>-4.962101</ele>
<time>2011-04-30T08:06:55Z</time>
<desc>lat.=20.903009, lon.=107.016205, Alt.=-4.962101m. Speed=0.072000m/h.</desc>
<speed>0.020000</speed>
</trkpt>
<trkpt lat="20.903009" lon="107.016205">
<ele>-4.939884</ele>
<time>2011-04-30T08:07:00Z</time>
<desc>lat.=20.903009, lon.=107.016205, Alt.=-4.939884m. Speed=0.036000m/h.</desc>
<speed>0.010000</speed>
</trkpt>
<trkpt lat="20.903009" lon="107.016205">
<ele>-4.894596</ele>
<time>2011-04-30T08:07:05Z</time>
<desc>lat.=20.903009, lon.=107.016205, Alt.=-4.894596m. Speed=0.072000m/h.</desc>
<speed>0.020000</speed>
</trkpt>
<trkpt lat="20.903009" lon="107.016205">
<ele>-4.895939</ele>
<time>2011-04-30T08:07:10Z</time>
<desc>lat.=20.903009, lon.=107.016205, Alt.=-4.895939m. Speed=0.000000m/h.</desc>
<speed>0.000000</speed>
</trkpt>
<trkpt lat="20.903009" lon="107.016205">
<ele>-4.867496</ele>
<time>2011-04-30T08:07:15Z</time>
<desc>lat.=20.903009, lon.=107.016205, Alt.=-4.867496m. Speed=0.000000m/h.</desc>
<speed>0.000000</speed>
</trkpt>
<trkpt lat="20.903009" lon="107.016205">
<ele>-4.856998</ele>
<time>2011-04-30T08:07:20Z</time>
<desc>lat.=20.903009, lon.=107.016205, Alt.=-4.856998m. Speed=0.036000m/h.</desc>
<speed>0.010000</speed>
</trkpt>
<trkpt lat="20.903009" lon="107.016205">
<ele>-4.847843</ele>
<time>2011-04-30T08:07:25Z</time>
<desc>lat.=20.903009, lon.=107.016205, Alt.=-4.847843m. Speed=0.036000m/h.</desc>
<speed>0.010000</speed>
</trkpt>
<trkpt lat="20.903009" lon="107.016205">
<ele>-4.853214</ele>
<time>2011-04-30T08:07:30Z</time>
<desc>lat.=20.903009, lon.=107.016205, Alt.=-4.853214m. Speed=0.036000m/h.</desc>
<speed>0.010000</speed>
</trkpt>
<trkpt lat="20.903009" lon="107.016205">
<ele>-4.859806</ele>
<time>2011-04-30T08:07:35Z</time>
<desc>lat.=20.903009, lon.=107.016205, Alt.=-4.859806m. Speed=0.036000m/h.</desc>
<speed>0.010000</speed>
</trkpt>
<trkpt lat="20.903009" lon="107.016205">
<ele>-4.866276</ele>
<time>2011-04-30T08:07:40Z</time>
<desc>lat.=20.903009, lon.=107.016205, Alt.=-4.866276m. Speed=0.036000m/h.</desc>
<speed>0.010000</speed>
</trkpt>
<trkpt lat="20.903009" lon="107.016205">
<ele>-4.878605</ele>
<time>2011-04-30T08:07:45Z</time>
<desc>lat.=20.903009, lon.=107.016205, Alt.=-4.878605m. Speed=0.036000m/h.</desc>
<speed>0.010000</speed>
</trkpt>
<trkpt lat="20.903009" lon="107.016205">
<ele>-4.867496</ele>
<time>2011-04-30T08:07:50Z</time>
<desc>lat.=20.903009, lon.=107.016205, Alt.=-4.867496m. Speed=0.000000m/h.</desc>
<speed>0.000000</speed>
</trkpt>
<trkpt lat="20.903011" lon="107.016205">
<ele>-4.852970</ele>
<time>2011-04-30T08:07:55Z</time>
<desc>lat.=20.903011, lon.=107.016205, Alt.=-4.852970m. Speed=0.000000m/h.</desc>
<speed>0.000000</speed>
</trkpt>
<trkpt lat="20.903011" lon="107.016205">
<ele>-4.856998</ele>
<time>2011-04-30T08:08:00Z</time>
<desc>lat.=20.903011, lon.=107.016205, Alt.=-4.856998m. Speed=0.000000m/h.</desc>
<speed>0.000000</speed>
</trkpt>
<trkpt lat="20.903009" lon="107.016205">
<ele>-4.860905</ele>
<time>2011-04-30T08:08:05Z</time>
<desc>lat.=20.903009, lon.=107.016205, Alt.=-4.860905m. Speed=0.000000m/h.</desc>
<speed>0.000000</speed>
</trkpt>
<trkpt lat="20.903009" lon="107.016205">
<ele>-4.866276</ele>
<time>2011-04-30T08:08:10Z</time>
<desc>lat.=20.903009, lon.=107.016205, Alt.=-4.866276m. Speed=0.036000m/h.</desc>
<speed>0.010000</speed>
</trkpt>
<trkpt lat="20.903009" lon="107.016205">
<ele>-4.869694</ele>
<time>2011-04-30T08:08:15Z</time>
<desc>lat.=20.903009, lon.=107.016205, Alt.=-4.869694m. Speed=0.000000m/h.</desc>
<speed>0.000000</speed>
</trkpt>
<trkpt lat="20.903009" lon="107.016205">
<ele>-4.862003</ele>
<time>2011-04-30T08:08:20Z</time>
<desc>lat.=20.903009, lon.=107.016205, Alt.=-4.862003m. Speed=0.000000m/h.</desc>
<speed>0.000000</speed>
</trkpt>
<trkpt lat="20.903009" lon="107.016205">
<ele>-4.830021</ele>
<time>2011-04-30T08:08:25Z</time>
<desc>lat.=20.903009, lon.=107.016205, Alt.=-4.830021m. Speed=0.036000m/h.</desc>
<speed>0.010000</speed>
</trkpt>
<trkpt lat="20.903009" lon="107.016205">
<ele>-4.816959</ele>
<time>2011-04-30T08:08:30Z</time>
<desc>lat.=20.903009, lon.=107.016205, Alt.=-4.816959m. Speed=0.036000m/h.</desc>
<speed>0.010000</speed>
</trkpt>
<trkpt lat="20.903009" lon="107.016205">
<ele>-4.800602</ele>
<time>2011-04-30T08:08:35Z</time>
<desc>lat.=20.903009, lon.=107.016205, Alt.=-4.800602m. Speed=0.036000m/h.</desc>
<speed>0.010000</speed>
</trkpt>
<trkpt lat="20.903009" lon="107.016205">
<ele>-4.792423</ele>
<time>2011-04-30T08:08:40Z</time>
<desc>lat.=20.903009, lon.=107.016205, Alt.=-4.792423m. Speed=0.000000m/h.</desc>
<speed>0.000000</speed>
</trkpt>
<trkpt lat="20.903009" lon="107.016205">
<ele>-4.770084</ele>
<time>2011-04-30T08:08:45Z</time>
<desc>lat.=20.903009, lon.=107.016205, Alt.=-4.770084m. Speed=0.036000m/h.</desc>
<speed>0.010000</speed>
</trkpt>
<trkpt lat="20.903009" lon="107.016205">
<ele>-4.765690</ele>
<time>2011-04-30T08:08:50Z</time>
<desc>lat.=20.903009, lon.=107.016205, Alt.=-4.765690m. Speed=0.036000m/h.</desc>
<speed>0.010000</speed>
</trkpt>
<trkpt lat="20.903009" lon="107.016205">
<ele>-4.775333</ele>
<time>2011-04-30T08:08:55Z</time>
<desc>lat.=20.903009, lon.=107.016205, Alt.=-4.775333m. Speed=0.000000m/h.</desc>
<speed>0.000000</speed>
</trkpt>
<trkpt lat="20.903009" lon="107.016205">
<ele>-4.784855</ele>
<time>2011-04-30T08:09:00Z</time>
<desc>lat.=20.903009, lon.=107.016205, Alt.=-4.784855m. Speed=0.000000m/h.</desc>
<speed>0.000000</speed>
</trkpt>
<trkpt lat="20.903009" lon="107.016205">
<ele>-4.774235</ele>
<time>2011-04-30T08:09:05Z</time>
<desc>lat.=20.903009, lon.=107.016205, Alt.=-4.774235m. Speed=0.000000m/h.</desc>
<speed>0.000000</speed>
</trkpt>
<trkpt lat="20.903009" lon="107.016205">
<ele>-4.782658</ele>
<time>2011-04-30T08:09:10Z</time>
<desc>lat.=20.903009, lon.=107.016205, Alt.=-4.782658m. Speed=0.000000m/h.</desc>
<speed>0.000000</speed>
</trkpt>
<trkpt lat="20.903009" lon="107.016205">
<ele>-4.791813</ele>
<time>2011-04-30T08:09:15Z</time>
<desc>lat.=20.903009, lon.=107.016205, Alt.=-4.791813m. Speed=0.036000m/h.</desc>
<speed>0.010000</speed>
</trkpt>
<trkpt lat="20.903009" lon="107.016205">
<ele>-4.778996</ele>
<time>2011-04-30T08:09:20Z</time>
<desc>lat.=20.903009, lon.=107.016205, Alt.=-4.778996m. Speed=0.036000m/h.</desc>
<speed>0.010000</speed>
</trkpt>
<trkpt lat="20.903009" lon="107.016205">
<ele>-4.769108</ele>
<time>2011-04-30T08:09:25Z</time>
<desc>lat.=20.903009, lon.=107.016205, Alt.=-4.769108m. Speed=0.000000m/h.</desc>
<speed>0.000000</speed>
</trkpt>
<trkpt lat="20.903011" lon="107.016205">
<ele>-4.741764</ele>
<time>2011-04-30T08:09:30Z</time>
<desc>lat.=20.903011, lon.=107.016205, Alt.=-4.741764m. Speed=0.108000m/h.</desc>
<speed>0.030000</speed>
</trkpt>
<trkpt lat="20.903011" lon="107.016205">
<ele>-4.741642</ele>
<time>2011-04-30T08:09:35Z</time>
<desc>lat.=20.903011, lon.=107.016205, Alt.=-4.741642m. Speed=0.036000m/h.</desc>
<speed>0.010000</speed>
</trkpt>
<trkpt lat="20.903011" lon="107.016205">
<ele>-4.744816</ele>
<time>2011-04-30T08:09:40Z</time>
<desc>lat.=20.903011, lon.=107.016205, Alt.=-4.744816m. Speed=0.000000m/h.</desc>
<speed>0.000000</speed>
</trkpt>
<trkpt lat="20.903011" lon="107.016205">
<ele>-4.735905</ele>
<time>2011-04-30T08:09:45Z</time>
<desc>lat.=20.903011, lon.=107.016205, Alt.=-4.735905m. Speed=0.000000m/h.</desc>
<speed>0.000000</speed>
</trkpt>
<trkpt lat="20.903011" lon="107.016205">
<ele>-4.726749</ele>
<time>2011-04-30T08:09:50Z</time>
<desc>lat.=20.903011, lon.=107.016205, Alt.=-4.726749m. Speed=0.000000m/h.</desc>
<speed>0.000000</speed>
</trkpt>
<trkpt lat="20.903011" lon="107.016205">
<ele>-4.739323</ele>
<time>2011-04-30T08:09:55Z</time>
<desc>lat.=20.903011, lon.=107.016205, Alt.=-4.739323m. Speed=0.000000m/h.</desc>
<speed>0.000000</speed>
</trkpt>
<trkpt lat="20.903011" lon="107.016205">
<ele>-4.754704</ele>
<time>2011-04-30T08:10:00Z</time>
<desc>lat.=20.903011, lon.=107.016205, Alt.=-4.754704m. Speed=0.000000m/h.</desc>
<speed>0.000000</speed>
</trkpt>
<trkpt lat="20.903011" lon="107.016205">
<ele>-4.764225</ele>
<time>2011-04-30T08:10:05Z</time>
<desc>lat.=20.903011, lon.=107.016205, Alt.=-4.764225m. Speed=0.000000m/h.</desc>
<speed>0.000000</speed>
</trkpt>
<trkpt lat="20.903011" lon="107.016205">
<ele>-4.784367</ele>
<time>2011-04-30T08:10:10Z</time>
<desc>lat.=20.903011, lon.=107.016205, Alt.=-4.784367m. Speed=0.072000m/h.</desc>
<speed>0.020000</speed>
</trkpt>
<trkpt lat="20.903011" lon="107.016205">
<ele>-4.807316</ele>
<time>2011-04-30T08:10:15Z</time>
<desc>lat.=20.903011, lon.=107.016205, Alt.=-4.807316m. Speed=0.000000m/h.</desc>
<speed>0.000000</speed>
</trkpt>
<trkpt lat="20.903011" lon="107.016205">
<ele>-4.793888</ele>
<time>2011-04-30T08:10:20Z</time>
<desc>lat.=20.903011, lon.=107.016205, Alt.=-4.793888m. Speed=0.108000m/h.</desc>
<speed>0.030000</speed>
</trkpt>
<trkpt lat="20.903011" lon="107.016205">
<ele>-4.795719</ele>
<time>2011-04-30T08:10:25Z</time>
<desc>lat.=20.903011, lon.=107.016205, Alt.=-4.795719m. Speed=0.036000m/h.</desc>
<speed>0.010000</speed>
</trkpt>
<trkpt lat="20.903011" lon="107.016205">
<ele>-4.820866</ele>
<time>2011-04-30T08:10:30Z</time>
<desc>lat.=20.903011, lon.=107.016205, Alt.=-4.820866m. Speed=0.036000m/h.</desc>
<speed>0.010000</speed>
</trkpt>
<trkpt lat="20.903011" lon="107.016205">
<ele>-4.818546</ele>
<time>2011-04-30T08:10:35Z</time>
<desc>lat.=20.903011, lon.=107.016205, Alt.=-4.818546m. Speed=0.036000m/h.</desc>
<speed>0.010000</speed>
</trkpt>
<trkpt lat="20.903011" lon="107.016205">
<ele>-4.811954</ele>
<time>2011-04-30T08:10:40Z</time>
<desc>lat.=20.903011, lon.=107.016205, Alt.=-4.811954m. Speed=0.036000m/h.</desc>
<speed>0.010000</speed>
</trkpt>
<trkpt lat="20.903011" lon="107.016205">
<ele>-4.808659</ele>
<time>2011-04-30T08:10:45Z</time>
<desc>lat.=20.903011, lon.=107.016205, Alt.=-4.808659m. Speed=0.036000m/h.</desc>
<speed>0.010000</speed>
</trkpt>
<trkpt lat="20.903011" lon="107.016205">
<ele>-4.817570</ele>
<time>2011-04-30T08:10:50Z</time>
<desc>lat.=20.903011, lon.=107.016205, Alt.=-4.817570m. Speed=0.036000m/h.</desc>
<speed>0.010000</speed>
</trkpt>
<trkpt lat="20.903011" lon="107.016205">
<ele>-4.818180</ele>
<time>2011-04-30T08:10:55Z</time>
<desc>lat.=20.903011, lon.=107.016205, Alt.=-4.818180m. Speed=0.144000m/h.</desc>
<speed>0.040000</speed>
</trkpt>
<trkpt lat="20.903011" lon="107.016205">
<ele>-4.808659</ele>
<time>2011-04-30T08:11:00Z</time>
<desc>lat.=20.903011, lon.=107.016205, Alt.=-4.808659m. Speed=0.000000m/h.</desc>
<speed>0.000000</speed>
</trkpt>
<trkpt lat="20.903011" lon="107.016205">
<ele>-4.816715</ele>
<time>2011-04-30T08:11:05Z</time>
<desc>lat.=20.903011, lon.=107.016205, Alt.=-4.816715m. Speed=0.072000m/h.</desc>
<speed>0.020000</speed>
</trkpt>
<trkpt lat="20.903011" lon="107.016205">
<ele>-4.822330</ele>
<time>2011-04-30T08:11:10Z</time>
<desc>lat.=20.903011, lon.=107.016205, Alt.=-4.822330m. Speed=0.036000m/h.</desc>
<speed>0.010000</speed>
</trkpt>
<trkpt lat="20.903011" lon="107.016205">
<ele>-4.835148</ele>
<time>2011-04-30T08:11:15Z</time>
<desc>lat.=20.903011, lon.=107.016205, Alt.=-4.835148m. Speed=0.036000m/h.</desc>
<speed>0.010000</speed>
</trkpt>
<trkpt lat="20.903011" lon="107.016205">
<ele>-4.831486</ele>
<time>2011-04-30T08:11:20Z</time>
<desc>lat.=20.903011, lon.=107.016205, Alt.=-4.831486m. Speed=0.072000m/h.</desc>
<speed>0.020000</speed>
</trkpt>
<trkpt lat="20.903011" lon="107.016205">
<ele>-4.824894</ele>
<time>2011-04-30T08:11:25Z</time>
<desc>lat.=20.903011, lon.=107.016205, Alt.=-4.824894m. Speed=0.036000m/h.</desc>
<speed>0.010000</speed>
</trkpt>
<trkpt lat="20.903011" lon="107.016205">
<ele>-4.820377</ele>
<time>2011-04-30T08:11:30Z</time>
<desc>lat.=20.903011, lon.=107.016205, Alt.=-4.820377m. Speed=0.396000m/h.</desc>
<speed>0.110000</speed>
</trkpt>
<trkpt lat="20.902994" lon="107.016228">
<ele>-5.112614</ele>
<time>2011-04-30T08:11:35Z</time>
<desc>lat.=20.902994, lon.=107.016228, Alt.=-5.112614m. Speed=1.908000m/h.</desc>
<speed>0.530000</speed>
</trkpt>
<trkpt lat="20.902954" lon="107.016296">
<ele>-5.790836</ele>
<time>2011-04-30T08:11:40Z</time>
<desc>lat.=20.902954, lon.=107.016296, Alt.=-5.790836m. Speed=5.292000m/h.</desc>
<speed>1.470000</speed>
</trkpt>
<trkpt lat="20.902905" lon="107.016350">
<ele>-5.635075</ele>
<time>2011-04-30T08:11:45Z</time>
<desc>lat.=20.902905, lon.=107.016350, Alt.=-5.635075m. Speed=5.832000m/h.</desc>
<speed>1.620000</speed>
</trkpt>
<trkpt lat="20.902843" lon="107.016426">
<ele>-4.446720</ele>
<time>2011-04-30T08:11:50Z</time>
<desc>lat.=20.902843, lon.=107.016426, Alt.=-4.446720m. Speed=6.336000m/h.</desc>
<speed>1.760000</speed>
</trkpt>
<trkpt lat="20.902758" lon="107.016464">
<ele>-5.437931</ele>
<time>2011-04-30T08:11:55Z</time>
<desc>lat.=20.902758, lon.=107.016464, Alt.=-5.437931m. Speed=7.164000m/h.</desc>
<speed>1.990000</speed>
</trkpt>
<trkpt lat="20.902662" lon="107.016502">
<ele>-7.091984</ele>
<time>2011-04-30T08:12:00Z</time>
<desc>lat.=20.902662, lon.=107.016502, Alt.=-7.091984m. Speed=7.128000m/h.</desc>
<speed>1.980000</speed>
</trkpt>
<trkpt lat="20.902580" lon="107.016548">
<ele>-10.806526</ele>
<time>2011-04-30T08:12:05Z</time>
<desc>lat.=20.902580, lon.=107.016548, Alt.=-10.806526m. Speed=7.704000m/h.</desc>
<speed>2.140000</speed>
</trkpt>
<trkpt lat="20.902485" lon="107.016571">
<ele>-14.733040</ele>
<time>2011-04-30T08:12:10Z</time>
<desc>lat.=20.902485, lon.=107.016571, Alt.=-14.733040m. Speed=8.316000m/h.</desc>
<speed>2.310000</speed>
</trkpt>
<trkpt lat="20.902384" lon="107.016586">
<ele>-16.035416</ele>
<time>2011-04-30T08:12:15Z</time>
<desc>lat.=20.902384, lon.=107.016586, Alt.=-16.035416m. Speed=8.460000m/h.</desc>
<speed>2.350000</speed>
</trkpt>
<trkpt lat="20.902283" lon="107.016602">
<ele>-17.594498</ele>
<time>2011-04-30T08:12:20Z</time>
<desc>lat.=20.902283, lon.=107.016602, Alt.=-17.594498m. Speed=8.676000m/h.</desc>
<speed>2.410000</speed>
</trkpt>
<trkpt lat="20.902168" lon="107.016624">
<ele>-18.674576</ele>
<time>2011-04-30T08:12:25Z</time>
<desc>lat.=20.902168, lon.=107.016624, Alt.=-18.674576m. Speed=8.964000m/h.</desc>
<speed>2.490000</speed>
</trkpt>
<trkpt lat="20.902058" lon="107.016647">
<ele>-17.776138</ele>
<time>2011-04-30T08:12:30Z</time>
<desc>lat.=20.902058, lon.=107.016647, Alt.=-17.776138m. Speed=9.540000m/h.</desc>
<speed>2.650000</speed>
</trkpt>
<trkpt lat="20.901945" lon="107.016663">
<ele>-16.958755</ele>
<time>2011-04-30T08:12:35Z</time>
<desc>lat.=20.901945, lon.=107.016663, Alt.=-16.958755m. Speed=9.756000m/h.</desc>
<speed>2.710000</speed>
</trkpt>
<trkpt lat="20.901819" lon="107.016678">
<ele>-17.213638</ele>
<time>2011-04-30T08:12:40Z</time>
<desc>lat.=20.901819, lon.=107.016678, Alt.=-17.213638m. Speed=9.720000m/h.</desc>
<speed>2.700000</speed>
</trkpt>
<trkpt lat="20.901690" lon="107.016685">
<ele>-18.136490</ele>
<time>2011-04-30T08:12:45Z</time>
<desc>lat.=20.901690, lon.=107.016685, Alt.=-18.136490m. Speed=10.224000m/h.</desc>
<speed>2.840000</speed>
</trkpt>
<trkpt lat="20.901560" lon="107.016693">
<ele>-16.477798</ele>
<time>2011-04-30T08:12:50Z</time>
<desc>lat.=20.901560, lon.=107.016693, Alt.=-16.477798m. Speed=10.116000m/h.</desc>
<speed>2.810000</speed>
</trkpt>
<trkpt lat="20.901432" lon="107.016701">
<ele>-15.899544</ele>
<time>2011-04-30T08:12:55Z</time>
<desc>lat.=20.901432, lon.=107.016701, Alt.=-15.899544m. Speed=10.008000m/h.</desc>
<speed>2.780000</speed>
</trkpt>
<trkpt lat="20.901289" lon="107.016693">
<ele>-14.846565</ele>
<time>2011-04-30T08:13:00Z</time>
<desc>lat.=20.901289, lon.=107.016693, Alt.=-14.846565m. Speed=10.764000m/h.</desc>
<speed>2.990000</speed>
</trkpt>
<trkpt lat="20.901161" lon="107.016701">
<ele>-11.006477</ele>
<time>2011-04-30T08:13:05Z</time>
<desc>lat.=20.901161, lon.=107.016701, Alt.=-11.006477m. Speed=10.188000m/h.</desc>
<speed>2.830000</speed>
</trkpt>
<trkpt lat="20.901018" lon="107.016716">
<ele>-10.255013</ele>
<time>2011-04-30T08:13:10Z</time>
<desc>lat.=20.901018, lon.=107.016716, Alt.=-10.255013m. Speed=10.332000m/h.</desc>
<speed>2.870000</speed>
</trkpt>
<trkpt lat="20.900885" lon="107.016739">
<ele>-9.106087</ele>
<time>2011-04-30T08:13:15Z</time>
<desc>lat.=20.900885, lon.=107.016739, Alt.=-9.106087m. Speed=10.296000m/h.</desc>
<speed>2.860000</speed>
</trkpt>
<trkpt lat="20.900751" lon="107.016762">
<ele>-9.775764</ele>
<time>2011-04-30T08:13:20Z</time>
<desc>lat.=20.900751, lon.=107.016762, Alt.=-9.775764m. Speed=10.404000m/h.</desc>
<speed>2.890000</speed>
</trkpt>
<trkpt lat="20.900625" lon="107.016769">
<ele>-9.372932</ele>
<time>2011-04-30T08:13:25Z</time>
<desc>lat.=20.900625, lon.=107.016769, Alt.=-9.372932m. Speed=10.332000m/h.</desc>
<speed>2.870000</speed>
</trkpt>
<trkpt lat="20.900488" lon="107.016777">
<ele>-9.614143</ele>
<time>2011-04-30T08:13:30Z</time>
<desc>lat.=20.900488, lon.=107.016777, Alt.=-9.614143m. Speed=10.512000m/h.</desc>
<speed>2.920000</speed>
</trkpt>
<trkpt lat="20.900358" lon="107.016785">
<ele>-9.902229</ele>
<time>2011-04-30T08:13:35Z</time>
<desc>lat.=20.900358, lon.=107.016785, Alt.=-9.902229m. Speed=10.620000m/h.</desc>
<speed>2.950000</speed>
</trkpt>
<trkpt lat="20.900234" lon="107.016800">
<ele>-11.152962</ele>
<time>2011-04-30T08:13:40Z</time>
<desc>lat.=20.900234, lon.=107.016800, Alt.=-11.152962m. Speed=10.584000m/h.</desc>
<speed>2.940000</speed>
</trkpt>
<trkpt lat="20.900101" lon="107.016808">
<ele>-11.225227</ele>
<time>2011-04-30T08:13:45Z</time>
<desc>lat.=20.900101, lon.=107.016808, Alt.=-11.225227m. Speed=10.476000m/h.</desc>
<speed>2.910000</speed>
</trkpt>
<trkpt lat="20.899973" lon="107.016815">
<ele>-10.316292</ele>
<time>2011-04-30T08:13:50Z</time>
<desc>lat.=20.899973, lon.=107.016815, Alt.=-10.316292m. Speed=10.440000m/h.</desc>
<speed>2.900000</speed>
</trkpt>
<trkpt lat="20.899847" lon="107.016823">
<ele>-9.801888</ele>
<time>2011-04-30T08:13:55Z</time>
<desc>lat.=20.899847, lon.=107.016823, Alt.=-9.801888m. Speed=10.476000m/h.</desc>
<speed>2.910000</speed>
</trkpt>
<trkpt lat="20.899714" lon="107.016823">
<ele>-9.006233</ele>
<time>2011-04-30T08:14:00Z</time>
<desc>lat.=20.899714, lon.=107.016823, Alt.=-9.006233m. Speed=11.052000m/h.</desc>
<speed>3.070000</speed>
</trkpt>
<trkpt lat="20.899580" lon="107.016815">
<ele>-8.557991</ele>
<time>2011-04-30T08:14:05Z</time>
<desc>lat.=20.899580, lon.=107.016815, Alt.=-8.557991m. Speed=10.620000m/h.</desc>
<speed>2.950000</speed>
</trkpt>
<trkpt lat="20.899450" lon="107.016808">
<ele>-8.414925</ele>
<time>2011-04-30T08:14:10Z</time>
<desc>lat.=20.899450, lon.=107.016808, Alt.=-8.414925m. Speed=10.332000m/h.</desc>
<speed>2.870000</speed>
</trkpt>
<trkpt lat="20.899307" lon="107.016785">
<ele>-10.996468</ele>
<time>2011-04-30T08:14:15Z</time>
<desc>lat.=20.899307, lon.=107.016785, Alt.=-10.996468m. Speed=11.412000m/h.</desc>
<speed>3.170000</speed>
</trkpt>
<trkpt lat="20.899178" lon="107.016777">
<ele>-11.786018</ele>
<time>2011-04-30T08:14:20Z</time>
<desc>lat.=20.899178, lon.=107.016777, Alt.=-11.786018m. Speed=10.188000m/h.</desc>
<speed>2.830000</speed>
</trkpt>
<trkpt lat="20.899044" lon="107.016762">
<ele>-11.198616</ele>
<time>2011-04-30T08:14:25Z</time>
<desc>lat.=20.899044, lon.=107.016762, Alt.=-11.198616m. Speed=10.512000m/h.</desc>
<speed>2.920000</speed>
</trkpt>
<trkpt lat="20.898905" lon="107.016754">
<ele>-11.491585</ele>
<time>2011-04-30T08:14:30Z</time>
<desc>lat.=20.898905, lon.=107.016754, Alt.=-11.491585m. Speed=10.512000m/h.</desc>
<speed>2.920000</speed>
</trkpt>
<trkpt lat="20.898767" lon="107.016739">
<ele>-11.887337</ele>
<time>2011-04-30T08:14:35Z</time>
<desc>lat.=20.898767, lon.=107.016739, Alt.=-11.887337m. Speed=10.512000m/h.</desc>
<speed>2.920000</speed>
</trkpt>
<trkpt lat="20.898638" lon="107.016739">
<ele>-11.710823</ele>
<time>2011-04-30T08:14:40Z</time>
<desc>lat.=20.898638, lon.=107.016739, Alt.=-11.710823m. Speed=10.620000m/h.</desc>
<speed>2.950000</speed>
</trkpt>
<trkpt lat="20.898506" lon="107.016724">
<ele>-13.160774</ele>
<time>2011-04-30T08:14:45Z</time>
<desc>lat.=20.898506, lon.=107.016724, Alt.=-13.160774m. Speed=10.368000m/h.</desc>
<speed>2.880000</speed>
</trkpt>
<trkpt lat="20.898376" lon="107.016724">
<ele>-12.972542</ele>
<time>2011-04-30T08:14:50Z</time>
<desc>lat.=20.898376, lon.=107.016724, Alt.=-12.972542m. Speed=10.224000m/h.</desc>
<speed>2.840000</speed>
</trkpt>
<trkpt lat="20.898247" lon="107.016724">
<ele>-13.137337</ele>
<time>2011-04-30T08:14:55Z</time>
<desc>lat.=20.898247, lon.=107.016724, Alt.=-13.137337m. Speed=10.008000m/h.</desc>
<speed>2.780000</speed>
</trkpt>
<trkpt lat="20.898125" lon="107.016731">
<ele>-15.782845</ele>
<time>2011-04-30T08:15:00Z</time>
<desc>lat.=20.898125, lon.=107.016731, Alt.=-15.782845m. Speed=10.080000m/h.</desc>
<speed>2.800000</speed>
</trkpt>
<trkpt lat="20.897999" lon="107.016739">
<ele>-17.684830</ele>
<time>2011-04-30T08:15:05Z</time>
<desc>lat.=20.897999, lon.=107.016739, Alt.=-17.684830m. Speed=10.584000m/h.</desc>
<speed>2.940000</speed>
</trkpt>
<trkpt lat="20.897879" lon="107.016747">
<ele>-19.713150</ele>
<time>2011-04-30T08:15:10Z</time>
<desc>lat.=20.897879, lon.=107.016747, Alt.=-19.713150m. Speed=10.116000m/h.</desc>
<speed>2.810000</speed>
</trkpt>
<trkpt lat="20.897749" lon="107.016754">
<ele>-21.624771</ele>
<time>2011-04-30T08:15:15Z</time>
<desc>lat.=20.897749, lon.=107.016754, Alt.=-21.624771m. Speed=10.224000m/h.</desc>
<speed>2.840000</speed>
</trkpt>
<trkpt lat="20.897610" lon="107.016777">
<ele>-22.423111</ele>
<time>2011-04-30T08:15:20Z</time>
<desc>lat.=20.897610, lon.=107.016777, Alt.=-22.423111m. Speed=10.692000m/h.</desc>
<speed>2.970000</speed>
</trkpt>
<trkpt lat="20.897478" lon="107.016792">
<ele>-24.720474</ele>
<time>2011-04-30T08:15:25Z</time>
<desc>lat.=20.897478, lon.=107.016792, Alt.=-24.720474m. Speed=10.260000m/h.</desc>
<speed>2.850000</speed>
</trkpt>
<trkpt lat="20.897356" lon="107.016808">
<ele>-26.423111</ele>
<time>2011-04-30T08:15:30Z</time>
<desc>lat.=20.897356, lon.=107.016808, Alt.=-26.423111m. Speed=10.332000m/h.</desc>
<speed>2.870000</speed>
</trkpt>
<trkpt lat="20.897228" lon="107.016823">
<ele>-27.449478</ele>
<time>2011-04-30T08:15:35Z</time>
<desc>lat.=20.897228, lon.=107.016823, Alt.=-27.449478m. Speed=10.404000m/h.</desc>
<speed>2.890000</speed>
</trkpt>
<trkpt lat="20.897104" lon="107.016846">
<ele>-28.685318</ele>
<time>2011-04-30T08:15:40Z</time>
<desc>lat.=20.897104, lon.=107.016846, Alt.=-28.685318m. Speed=10.656000m/h.</desc>
<speed>2.960000</speed>
</trkpt>
<trkpt lat="20.896975" lon="107.016869">
<ele>-28.434341</ele>
<time>2011-04-30T08:15:45Z</time>
<desc>lat.=20.896975, lon.=107.016869, Alt.=-28.434341m. Speed=10.944000m/h.</desc>
<speed>3.040000</speed>
</trkpt>
<trkpt lat="20.896847" lon="107.016891">
<ele>-27.436295</ele>
<time>2011-04-30T08:15:50Z</time>
<desc>lat.=20.896847, lon.=107.016891, Alt.=-27.436295m. Speed=10.548000m/h.</desc>
<speed>2.930000</speed>
</trkpt>
<trkpt lat="20.896725" lon="107.016914">
<ele>-25.952896</ele>
<time>2011-04-30T08:15:55Z</time>
<desc>lat.=20.896725, lon.=107.016914, Alt.=-25.952896m. Speed=9.828000m/h.</desc>
<speed>2.730000</speed>
</trkpt>
<trkpt lat="20.896599" lon="107.016945">
<ele>-25.738052</ele>
<time>2011-04-30T08:16:00Z</time>
<desc>lat.=20.896599, lon.=107.016945, Alt.=-25.738052m. Speed=10.116000m/h.</desc>
<speed>2.810000</speed>
</trkpt>
<trkpt lat="20.896467" lon="107.016983">
<ele>-26.309341</ele>
<time>2011-04-30T08:16:05Z</time>
<desc>lat.=20.896467, lon.=107.016983, Alt.=-26.309341m. Speed=10.368000m/h.</desc>
<speed>2.880000</speed>
</trkpt>
<trkpt lat="20.896349" lon="107.017021">
<ele>-26.565689</ele>
<time>2011-04-30T08:16:10Z</time>
<desc>lat.=20.896349, lon.=107.017021, Alt.=-26.565689m. Speed=10.152000m/h.</desc>
<speed>2.820000</speed>
</trkpt>
<trkpt lat="20.896227" lon="107.017052">
<ele>-26.802505</ele>
<time>2011-04-30T08:16:15Z</time>
<desc>lat.=20.896227, lon.=107.017052, Alt.=-26.802505m. Speed=10.008000m/h.</desc>
<speed>2.780000</speed>
</trkpt>
<trkpt lat="20.896099" lon="107.017097">
<ele>-25.876724</ele>
<time>2011-04-30T08:16:20Z</time>
<desc>lat.=20.896099, lon.=107.017097, Alt.=-25.876724m. Speed=10.512000m/h.</desc>
<speed>2.920000</speed>
</trkpt>
<trkpt lat="20.895939" lon="107.017159">
<ele>-19.473892</ele>
<time>2011-04-30T08:16:25Z</time>
<desc>lat.=20.895939, lon.=107.017159, Alt.=-19.473892m. Speed=11.016000m/h.</desc>
<speed>3.060000</speed>
</trkpt>
<trkpt lat="20.895807" lon="107.017212">
<ele>-17.334732</ele>
<time>2011-04-30T08:16:30Z</time>
<desc>lat.=20.895807, lon.=107.017212, Alt.=-17.334732m. Speed=10.548000m/h.</desc>
<speed>2.930000</speed>
</trkpt>
<trkpt lat="20.895683" lon="107.017281">
<ele>-15.624153</ele>
<time>2011-04-30T08:16:35Z</time>
<desc>lat.=20.895683, lon.=107.017281, Alt.=-15.624153m. Speed=10.656000m/h.</desc>
<speed>2.960000</speed>
</trkpt>
<trkpt lat="20.895555" lon="107.017342">
<ele>-14.315804</ele>
<time>2011-04-30T08:16:40Z</time>
<desc>lat.=20.895555, lon.=107.017342, Alt.=-14.315804m. Speed=10.908000m/h.</desc>
<speed>3.030000</speed>
</trkpt>
<trkpt lat="20.895428" lon="107.017418">
<ele>-12.835579</ele>
<time>2011-04-30T08:16:45Z</time>
<desc>lat.=20.895428, lon.=107.017418, Alt.=-12.835579m. Speed=10.872000m/h.</desc>
<speed>3.020000</speed>
</trkpt>
<trkpt lat="20.895302" lon="107.017487">
<ele>-10.382942</ele>
<time>2011-04-30T08:16:50Z</time>
<desc>lat.=20.895302, lon.=107.017487, Alt.=-10.382942m. Speed=11.196000m/h.</desc>
<speed>3.110000</speed>
</trkpt>
<trkpt lat="20.895180" lon="107.017563">
<ele>-8.263313</ele>
<time>2011-04-30T08:16:55Z</time>
<desc>lat.=20.895180, lon.=107.017563, Alt.=-8.263313m. Speed=11.232000m/h.</desc>
<speed>3.120000</speed>
</trkpt>
<trkpt lat="20.895090" lon="107.017647">
<ele>-10.899544</ele>
<time>2011-04-30T08:17:00Z</time>
<desc>lat.=20.895090, lon.=107.017647, Alt.=-10.899544m. Speed=10.764000m/h.</desc>
<speed>2.990000</speed>
</trkpt>
<trkpt lat="20.894989" lon="107.017723">
<ele>-11.762337</ele>
<time>2011-04-30T08:17:05Z</time>
<desc>lat.=20.894989, lon.=107.017723, Alt.=-11.762337m. Speed=10.728000m/h.</desc>
<speed>2.980000</speed>
</trkpt>
<trkpt lat="20.894882" lon="107.017807">
<ele>-11.159798</ele>
<time>2011-04-30T08:17:10Z</time>
<desc>lat.=20.894882, lon.=107.017807, Alt.=-11.159798m. Speed=10.836000m/h.</desc>
<speed>3.010000</speed>
</trkpt>
<trkpt lat="20.894775" lon="107.017914">
<ele>-10.034309</ele>
<time>2011-04-30T08:17:15Z</time>
<desc>lat.=20.894775, lon.=107.017914, Alt.=-10.034309m. Speed=11.196000m/h.</desc>
<speed>3.110000</speed>
</trkpt>
<trkpt lat="20.894680" lon="107.018013">
<ele>-10.518929</ele>
<time>2011-04-30T08:17:20Z</time>
<desc>lat.=20.894680, lon.=107.018013, Alt.=-10.518929m. Speed=10.476000m/h.</desc>
<speed>2.910000</speed>
</trkpt>
<trkpt lat="20.894588" lon="107.018105">
<ele>-11.066292</ele>
<time>2011-04-30T08:17:25Z</time>
<desc>lat.=20.894588, lon.=107.018105, Alt.=-11.066292m. Speed=10.260000m/h.</desc>
<speed>2.850000</speed>
</trkpt>
<trkpt lat="20.894501" lon="107.018204">
<ele>-11.927132</ele>
<time>2011-04-30T08:17:30Z</time>
<desc>lat.=20.894501, lon.=107.018204, Alt.=-11.927132m. Speed=10.332000m/h.</desc>
<speed>2.870000</speed>
</trkpt>
<trkpt lat="20.894417" lon="107.018311">
<ele>-12.055061</ele>
<time>2011-04-30T08:17:35Z</time>
<desc>lat.=20.894417, lon.=107.018311, Alt.=-12.055061m. Speed=10.728000m/h.</desc>
<speed>2.980000</speed>
</trkpt>
<trkpt lat="20.894339" lon="107.018425">
<ele>-12.709114</ele>
<time>2011-04-30T08:17:40Z</time>
<desc>lat.=20.894339, lon.=107.018425, Alt.=-12.709114m. Speed=10.404000m/h.</desc>
<speed>2.890000</speed>
</trkpt>
<trkpt lat="20.894264" lon="107.018539">
<ele>-12.672981</ele>
<time>2011-04-30T08:17:45Z</time>
<desc>lat.=20.894264, lon.=107.018539, Alt.=-12.672981m. Speed=10.260000m/h.</desc>
<speed>2.850000</speed>
</trkpt>
<trkpt lat="20.894184" lon="107.018654">
<ele>-13.128304</ele>
<time>2011-04-30T08:17:50Z</time>
<desc>lat.=20.894184, lon.=107.018654, Alt.=-13.128304m. Speed=10.476000m/h.</desc>
<speed>2.910000</speed>
</trkpt>
<trkpt lat="20.894112" lon="107.018761">
<ele>-13.744026</ele>
<time>2011-04-30T08:17:55Z</time>
<desc>lat.=20.894112, lon.=107.018761, Alt.=-13.744026m. Speed=8.064000m/h.</desc>
<speed>2.240000</speed>
</trkpt>
<trkpt lat="20.894039" lon="107.018867">
<ele>-13.831917</ele>
<time>2011-04-30T08:18:00Z</time>
<desc>lat.=20.894039, lon.=107.018867, Alt.=-13.831917m. Speed=9.036000m/h.</desc>
<speed>2.510000</speed>
</trkpt>
<trkpt lat="20.893970" lon="107.018990">
<ele>-14.236458</ele>
<time>2011-04-30T08:18:05Z</time>
<desc>lat.=20.893970, lon.=107.018990, Alt.=-14.236458m. Speed=10.584000m/h.</desc>
<speed>2.940000</speed>
</trkpt>
<trkpt lat="20.893904" lon="107.019127">
<ele>-13.300179</ele>
<time>2011-04-30T08:18:10Z</time>
<desc>lat.=20.893904, lon.=107.019127, Alt.=-13.300179m. Speed=10.908000m/h.</desc>
<speed>3.030000</speed>
</trkpt>
<trkpt lat="20.893835" lon="107.019272">
<ele>-12.943977</ele>
<time>2011-04-30T08:18:15Z</time>
<desc>lat.=20.893835, lon.=107.019272, Alt.=-12.943977m. Speed=10.260000m/h.</desc>
<speed>2.850000</speed>
</trkpt>
<trkpt lat="20.893751" lon="107.019417">
<ele>-12.503792</ele>
<time>2011-04-30T08:18:20Z</time>
<desc>lat.=20.893751, lon.=107.019417, Alt.=-12.503792m. Speed=11.196000m/h.</desc>
<speed>3.110000</speed>
</trkpt>
<trkpt lat="20.893690" lon="107.019547">
<ele>-12.170052</ele>
<time>2011-04-30T08:18:25Z</time>
<desc>lat.=20.893690, lon.=107.019547, Alt.=-12.170052m. Speed=10.728000m/h.</desc>
<speed>2.980000</speed>
</trkpt>
<trkpt lat="20.893621" lon="107.019684">
<ele>-11.886116</ele>
<time>2011-04-30T08:18:30Z</time>
<desc>lat.=20.893621, lon.=107.019684, Alt.=-11.886116m. Speed=10.908000m/h.</desc>
<speed>3.030000</speed>
</trkpt>
<trkpt lat="20.893559" lon="107.019814">
<ele>-11.830452</ele>
<time>2011-04-30T08:18:35Z</time>
<desc>lat.=20.893559, lon.=107.019814, Alt.=-11.830452m. Speed=10.620000m/h.</desc>
<speed>2.950000</speed>
</trkpt>
<trkpt lat="20.893494" lon="107.019951">
<ele>-12.244026</ele>
<time>2011-04-30T08:18:40Z</time>
<desc>lat.=20.893494, lon.=107.019951, Alt.=-12.244026m. Speed=10.404000m/h.</desc>
<speed>2.890000</speed>
</trkpt>
<trkpt lat="20.893435" lon="107.020065">
<ele>-12.172493</ele>
<time>2011-04-30T08:18:45Z</time>
<desc>lat.=20.893435, lon.=107.020065, Alt.=-12.172493m. Speed=10.728000m/h.</desc>
<speed>2.980000</speed>
</trkpt>
<trkpt lat="20.893372" lon="107.020195">
<ele>-12.160042</ele>
<time>2011-04-30T08:18:50Z</time>
<desc>lat.=20.893372, lon.=107.020195, Alt.=-12.160042m. Speed=9.648000m/h.</desc>
<speed>2.680000</speed>
</trkpt>
<trkpt lat="20.893316" lon="107.020309">
<ele>-13.428841</ele>
<time>2011-04-30T08:18:55Z</time>
<desc>lat.=20.893316, lon.=107.020309, Alt.=-13.428841m. Speed=10.440000m/h.</desc>
<speed>2.900000</speed>
</trkpt>
<trkpt lat="20.893265" lon="107.020416">
<ele>-15.944221</ele>
<time>2011-04-30T08:19:00Z</time>
<desc>lat.=20.893265, lon.=107.020416, Alt.=-15.944221m. Speed=10.224000m/h.</desc>
<speed>2.840000</speed>
</trkpt>
<trkpt lat="20.893217" lon="107.020523">
<ele>-16.389908</ele>
<time>2011-04-30T08:19:05Z</time>
<desc>lat.=20.893217, lon.=107.020523, Alt.=-16.389908m. Speed=10.044000m/h.</desc>
<speed>2.790000</speed>
</trkpt>
<trkpt lat="20.893175" lon="107.020638">
<ele>-16.653091</ele>
<time>2011-04-30T08:19:10Z</time>
<desc>lat.=20.893175, lon.=107.020638, Alt.=-16.653091m. Speed=9.576000m/h.</desc>
<speed>2.660000</speed>
</trkpt>
<trkpt lat="20.893164" lon="107.020752">
<ele>-18.192154</ele>
<time>2011-04-30T08:19:15Z</time>
<desc>lat.=20.893164, lon.=107.020752, Alt.=-18.192154m. Speed=8.712000m/h.</desc>
<speed>2.420000</speed>
</trkpt>
<trkpt lat="20.893173" lon="107.020851">
<ele>-21.049088</ele>
<time>2011-04-30T08:19:20Z</time>
<desc>lat.=20.893173, lon.=107.020851, Alt.=-21.049088m. Speed=8.892000m/h.</desc>
<speed>2.470000</speed>
</trkpt>
<trkpt lat="20.893177" lon="107.020973">
<ele>-21.682388</ele>
<time>2011-04-30T08:19:25Z</time>
<desc>lat.=20.893177, lon.=107.020973, Alt.=-21.682388m. Speed=9.396000m/h.</desc>
<speed>2.610000</speed>
</trkpt>
<trkpt lat="20.893223" lon="107.021088">
<ele>-21.202896</ele>
<time>2011-04-30T08:19:30Z</time>
<desc>lat.=20.893223, lon.=107.021088, Alt.=-21.202896m. Speed=9.612000m/h.</desc>
<speed>2.670000</speed>
</trkpt>
<trkpt lat="20.893272" lon="107.021194">
<ele>-20.516373</ele>
<time>2011-04-30T08:19:35Z</time>
<desc>lat.=20.893272, lon.=107.021194, Alt.=-20.516373m. Speed=8.856000m/h.</desc>
<speed>2.460000</speed>
</trkpt>
<trkpt lat="20.893332" lon="107.021286">
<ele>-19.787857</ele>
<time>2011-04-30T08:19:40Z</time>
<desc>lat.=20.893332, lon.=107.021286, Alt.=-19.787857m. Speed=9.288000m/h.</desc>
<speed>2.580000</speed>
</trkpt>
<trkpt lat="20.893410" lon="107.021378">
<ele>-17.431412</ele>
<time>2011-04-30T08:19:45Z</time>
<desc>lat.=20.893410, lon.=107.021378, Alt.=-17.431412m. Speed=9.324000m/h.</desc>
<speed>2.590000</speed>
</trkpt>
<trkpt lat="20.893488" lon="107.021477">
<ele>-17.822037</ele>
<time>2011-04-30T08:19:50Z</time>
<desc>lat.=20.893488, lon.=107.021477, Alt.=-17.822037m. Speed=9.756000m/h.</desc>
<speed>2.710000</speed>
</trkpt>
<trkpt lat="20.893574" lon="107.021576">
<ele>-18.608170</ele>
<time>2011-04-30T08:19:55Z</time>
<desc>lat.=20.893574, lon.=107.021576, Alt.=-18.608170m. Speed=9.684000m/h.</desc>
<speed>2.690000</speed>
</trkpt>
<trkpt lat="20.893652" lon="107.021667">
<ele>-18.550552</ele>
<time>2011-04-30T08:20:00Z</time>
<desc>lat.=20.893652, lon.=107.021667, Alt.=-18.550552m. Speed=9.828000m/h.</desc>
<speed>2.730000</speed>
</trkpt>
<trkpt lat="20.893736" lon="107.021744">
<ele>-16.591080</ele>
<time>2011-04-30T08:20:05Z</time>
<desc>lat.=20.893736, lon.=107.021744, Alt.=-16.591080m. Speed=9.144000m/h.</desc>
<speed>2.540000</speed>
</trkpt>
<trkpt lat="20.893824" lon="107.021835">
<ele>-15.784798</ele>
<time>2011-04-30T08:20:10Z</time>
<desc>lat.=20.893824, lon.=107.021835, Alt.=-15.784798m. Speed=10.296000m/h.</desc>
<speed>2.860000</speed>
</trkpt>
<trkpt lat="20.893911" lon="107.021919">
<ele>-15.030159</ele>
<time>2011-04-30T08:20:15Z</time>
<desc>lat.=20.893911, lon.=107.021919, Alt.=-15.030159m. Speed=9.828000m/h.</desc>
<speed>2.730000</speed>
</trkpt>
<trkpt lat="20.894003" lon="107.022003">
<ele>-13.821175</ele>
<time>2011-04-30T08:20:20Z</time>
<desc>lat.=20.894003, lon.=107.022003, Alt.=-13.821175m. Speed=11.016000m/h.</desc>
<speed>3.060000</speed>
</trkpt>
<trkpt lat="20.894112" lon="107.022095">
<ele>-13.930305</ele>
<time>2011-04-30T08:20:25Z</time>
<desc>lat.=20.894112, lon.=107.022095, Alt.=-13.930305m. Speed=9.072000m/h.</desc>
<speed>2.520000</speed>
</trkpt>
<trkpt lat="20.894205" lon="107.022163">
<ele>-14.121468</ele>
<time>2011-04-30T08:20:30Z</time>
<desc>lat.=20.894205, lon.=107.022163, Alt.=-14.121468m. Speed=9.324000m/h.</desc>
<speed>2.590000</speed>
</trkpt>
<trkpt lat="20.894297" lon="107.022232">
<ele>-11.953011</ele>
<time>2011-04-30T08:20:35Z</time>
<desc>lat.=20.894297, lon.=107.022232, Alt.=-11.953011m. Speed=10.476000m/h.</desc>
<speed>2.910000</speed>
</trkpt>
<trkpt lat="20.894398" lon="107.022301">
<ele>-10.799934</ele>
<time>2011-04-30T08:20:40Z</time>
<desc>lat.=20.894398, lon.=107.022301, Alt.=-10.799934m. Speed=10.548000m/h.</desc>
<speed>2.930000</speed>
</trkpt>
<trkpt lat="20.894497" lon="107.022377">
<ele>-9.843880</ele>
<time>2011-04-30T08:20:45Z</time>
<desc>lat.=20.894497, lon.=107.022377, Alt.=-9.843880m. Speed=10.224000m/h.</desc>
<speed>2.840000</speed>
</trkpt>
<trkpt lat="20.894611" lon="107.022453">
<ele>-10.653206</ele>
<time>2011-04-30T08:20:50Z</time>
<desc>lat.=20.894611, lon.=107.022453, Alt.=-10.653206m. Speed=9.324000m/h.</desc>
<speed>2.590000</speed>
</trkpt>
<trkpt lat="20.894709" lon="107.022530">
<ele>-13.327034</ele>
<time>2011-04-30T08:20:55Z</time>
<desc>lat.=20.894709, lon.=107.022530, Alt.=-13.327034m. Speed=9.432000m/h.</desc>
<speed>2.620000</speed>
</trkpt>
<trkpt lat="20.894821" lon="107.022606">
<ele>-15.731575</ele>
<time>2011-04-30T08:21:00Z</time>
<desc>lat.=20.894821, lon.=107.022606, Alt.=-15.731575m. Speed=9.504000m/h.</desc>
<speed>2.640000</speed>
</trkpt>
<trkpt lat="20.894913" lon="107.022675">
<ele>-13.599007</ele>
<time>2011-04-30T08:21:05Z</time>
<desc>lat.=20.894913, lon.=107.022675, Alt.=-13.599007m. Speed=9.252000m/h.</desc>
<speed>2.570000</speed>
</trkpt>
<trkpt lat="20.895021" lon="107.022751">
<ele>-14.980843</ele>
<time>2011-04-30T08:21:10Z</time>
<desc>lat.=20.895021, lon.=107.022751, Alt.=-14.980843m. Speed=9.828000m/h.</desc>
<speed>2.730000</speed>
</trkpt>
<trkpt lat="20.895107" lon="107.022812">
<ele>-18.556412</ele>
<time>2011-04-30T08:21:15Z</time>
<desc>lat.=20.895107, lon.=107.022812, Alt.=-18.556412m. Speed=9.864000m/h.</desc>
<speed>2.740000</speed>
</trkpt>
<trkpt lat="20.895205" lon="107.022873">
<ele>-19.300552</ele>
<time>2011-04-30T08:21:20Z</time>
<desc>lat.=20.895205, lon.=107.022873, Alt.=-19.300552m. Speed=9.756000m/h.</desc>
<speed>2.710000</speed>
</trkpt>
<trkpt lat="20.895306" lon="107.022942">
<ele>-17.886490</ele>
<time>2011-04-30T08:21:25Z</time>
<desc>lat.=20.895306, lon.=107.022942, Alt.=-17.886490m. Speed=10.080000m/h.</desc>
<speed>2.800000</speed>
</trkpt>
<trkpt lat="20.895412" lon="107.022995">
<ele>-13.946907</ele>
<time>2011-04-30T08:21:30Z</time>
<desc>lat.=20.895412, lon.=107.022995, Alt.=-13.946907m. Speed=9.756000m/h.</desc>
<speed>2.710000</speed>
</trkpt>
<trkpt lat="20.895510" lon="107.023056">
<ele>-14.183479</ele>
<time>2011-04-30T08:21:35Z</time>
<desc>lat.=20.895510, lon.=107.023056, Alt.=-14.183479m. Speed=9.828000m/h.</desc>
<speed>2.730000</speed>
</trkpt>
<trkpt lat="20.895622" lon="107.023117">
<ele>-14.466682</ele>
<time>2011-04-30T08:21:40Z</time>
<desc>lat.=20.895622, lon.=107.023117, Alt.=-14.466682m. Speed=9.504000m/h.</desc>
<speed>2.640000</speed>
</trkpt>
<trkpt lat="20.895729" lon="107.023170">
<ele>-14.898079</ele>
<time>2011-04-30T08:21:45Z</time>
<desc>lat.=20.895729, lon.=107.023170, Alt.=-14.898079m. Speed=9.468000m/h.</desc>
<speed>2.630000</speed>
</trkpt>
<trkpt lat="20.895838" lon="107.023232">
<ele>-13.645638</ele>
<time>2011-04-30T08:21:50Z</time>
<desc>lat.=20.895838, lon.=107.023232, Alt.=-13.645638m. Speed=10.584000m/h.</desc>
<speed>2.940000</speed>
</trkpt>
<trkpt lat="20.895960" lon="107.023277">
<ele>-13.896126</ele>
<time>2011-04-30T08:21:55Z</time>
<desc>lat.=20.895960, lon.=107.023277, Alt.=-13.896126m. Speed=9.720000m/h.</desc>
<speed>2.700000</speed>
</trkpt>
<trkpt lat="20.896074" lon="107.023323">
<ele>-14.458382</ele>
<time>2011-04-30T08:22:00Z</time>
<desc>lat.=20.896074, lon.=107.023323, Alt.=-14.458382m. Speed=9.252000m/h.</desc>
<speed>2.570000</speed>
</trkpt>
<trkpt lat="20.896194" lon="107.023376">
<ele>-15.126350</ele>
<time>2011-04-30T08:22:05Z</time>
<desc>lat.=20.896194, lon.=107.023376, Alt.=-15.126350m. Speed=9.684000m/h.</desc>
<speed>2.690000</speed>
</trkpt>
<trkpt lat="20.896313" lon="107.023415">
<ele>-14.158089</ele>
<time>2011-04-30T08:22:10Z</time>
<desc>lat.=20.896313, lon.=107.023415, Alt.=-14.158089m. Speed=9.792000m/h.</desc>
<speed>2.720000</speed>
</trkpt>
<trkpt lat="20.896423" lon="107.023468">
<ele>-12.219124</ele>
<time>2011-04-30T08:22:15Z</time>
<desc>lat.=20.896423, lon.=107.023468, Alt.=-12.219124m. Speed=10.224000m/h.</desc>
<speed>2.840000</speed>
</trkpt>
<trkpt lat="20.896542" lon="107.023514">
<ele>-9.885384</ele>
<time>2011-04-30T08:22:20Z</time>
<desc>lat.=20.896542, lon.=107.023514, Alt.=-9.885384m. Speed=10.332000m/h.</desc>
<speed>2.870000</speed>
</trkpt>
<trkpt lat="20.896658" lon="107.023560">
<ele>-9.186409</ele>
<time>2011-04-30T08:22:25Z</time>
<desc>lat.=20.896658, lon.=107.023560, Alt.=-9.186409m. Speed=9.756000m/h.</desc>
<speed>2.710000</speed>
</trkpt>
<trkpt lat="20.896774" lon="107.023613">
<ele>-10.818489</ele>
<time>2011-04-30T08:22:30Z</time>
<desc>lat.=20.896774, lon.=107.023613, Alt.=-10.818489m. Speed=9.396000m/h.</desc>
<speed>2.610000</speed>
</trkpt>
<trkpt lat="20.896891" lon="107.023659">
<ele>-10.442757</ele>
<time>2011-04-30T08:22:35Z</time>
<desc>lat.=20.896891, lon.=107.023659, Alt.=-10.442757m. Speed=9.108000m/h.</desc>
<speed>2.530000</speed>
</trkpt>
<trkpt lat="20.897009" lon="107.023720">
<ele>-9.462532</ele>
<time>2011-04-30T08:22:40Z</time>
<desc>lat.=20.897009, lon.=107.023720, Alt.=-9.462532m. Speed=8.640000m/h.</desc>
<speed>2.400000</speed>
</trkpt>
<trkpt lat="20.897116" lon="107.023773">
<ele>-9.120003</ele>
<time>2011-04-30T08:22:45Z</time>
<desc>lat.=20.897116, lon.=107.023773, Alt.=-9.120003m. Speed=9.360000m/h.</desc>
<speed>2.600000</speed>
</trkpt>
<trkpt lat="20.897230" lon="107.023819">
<ele>-9.659065</ele>
<time>2011-04-30T08:22:50Z</time>
<desc>lat.=20.897230, lon.=107.023819, Alt.=-9.659065m. Speed=9.540000m/h.</desc>
<speed>2.650000</speed>
</trkpt>
<trkpt lat="20.897360" lon="107.023865">
<ele>-11.329720</ele>
<time>2011-04-30T08:22:55Z</time>
<desc>lat.=20.897360, lon.=107.023865, Alt.=-11.329720m. Speed=10.440000m/h.</desc>
<speed>2.900000</speed>
</trkpt>
<trkpt lat="20.897472" lon="107.023911">
<ele>-12.384651</ele>
<time>2011-04-30T08:23:00Z</time>
<desc>lat.=20.897472, lon.=107.023911, Alt.=-12.384651m. Speed=9.684000m/h.</desc>
<speed>2.690000</speed>
</trkpt>
<trkpt lat="20.897589" lon="107.023956">
<ele>-12.392464</ele>
<time>2011-04-30T08:23:05Z</time>
<desc>lat.=20.897589, lon.=107.023956, Alt.=-12.392464m. Speed=9.504000m/h.</desc>
<speed>2.640000</speed>
</trkpt>
<trkpt lat="20.897707" lon="107.024010">
<ele>-12.824348</ele>
<time>2011-04-30T08:23:10Z</time>
<desc>lat.=20.897707, lon.=107.024010, Alt.=-12.824348m. Speed=9.720000m/h.</desc>
<speed>2.700000</speed>
</trkpt>
<trkpt lat="20.897810" lon="107.024048">
<ele>-13.347542</ele>
<time>2011-04-30T08:23:15Z</time>
<desc>lat.=20.897810, lon.=107.024048, Alt.=-13.347542m. Speed=10.008000m/h.</desc>
<speed>2.780000</speed>
</trkpt>
<trkpt lat="20.897928" lon="107.024094">
<ele>-14.632210</ele>
<time>2011-04-30T08:23:20Z</time>
<desc>lat.=20.897928, lon.=107.024094, Alt.=-14.632210m. Speed=10.476000m/h.</desc>
<speed>2.910000</speed>
</trkpt>
<trkpt lat="20.898048" lon="107.024155">
<ele>-13.662971</ele>
<time>2011-04-30T08:23:25Z</time>
<desc>lat.=20.898048, lon.=107.024155, Alt.=-13.662971m. Speed=10.188000m/h.</desc>
<speed>2.830000</speed>
</trkpt>
<trkpt lat="20.898159" lon="107.024208">
<ele>-13.716927</ele>
<time>2011-04-30T08:23:30Z</time>
<desc>lat.=20.898159, lon.=107.024208, Alt.=-13.716927m. Speed=10.800000m/h.</desc>
<speed>3.000000</speed>
</trkpt>
<trkpt lat="20.898268" lon="107.024254">
<ele>-14.979622</ele>
<time>2011-04-30T08:23:35Z</time>
<desc>lat.=20.898268, lon.=107.024254, Alt.=-14.979622m. Speed=8.316000m/h.</desc>
<speed>2.310000</speed>
</trkpt>
<trkpt lat="20.898397" lon="107.024307">
<ele>-13.403450</ele>
<time>2011-04-30T08:23:40Z</time>
<desc>lat.=20.898397, lon.=107.024307, Alt.=-13.403450m. Speed=10.332000m/h.</desc>
<speed>2.870000</speed>
</trkpt>
<trkpt lat="20.898510" lon="107.024361">
<ele>-13.555305</ele>
<time>2011-04-30T08:23:45Z</time>
<desc>lat.=20.898510, lon.=107.024361, Alt.=-13.555305m. Speed=10.476000m/h.</desc>
<speed>2.910000</speed>
</trkpt>
<trkpt lat="20.898617" lon="107.024406">
<ele>-13.620491</ele>
<time>2011-04-30T08:23:50Z</time>
<desc>lat.=20.898617, lon.=107.024406, Alt.=-13.620491m. Speed=9.360000m/h.</desc>
<speed>2.600000</speed>
</trkpt>
<trkpt lat="20.898727" lon="107.024467">
<ele>-14.241829</ele>
<time>2011-04-30T08:23:55Z</time>
<desc>lat.=20.898727, lon.=107.024467, Alt.=-14.241829m. Speed=10.116000m/h.</desc>
<speed>2.810000</speed>
</trkpt>
<trkpt lat="20.898834" lon="107.024513">
<ele>-12.858040</ele>
<time>2011-04-30T08:24:00Z</time>
<desc>lat.=20.898834, lon.=107.024513, Alt.=-12.858040m. Speed=9.864000m/h.</desc>
<speed>2.740000</speed>
</trkpt>
<trkpt lat="20.898920" lon="107.024567">
<ele>-17.514908</ele>
<time>2011-04-30T08:24:05Z</time>
<desc>lat.=20.898920, lon.=107.024567, Alt.=-17.514908m. Speed=9.720000m/h.</desc>
<speed>2.700000</speed>
</trkpt>
<trkpt lat="20.899033" lon="107.024612">
<ele>-19.596451</ele>
<time>2011-04-30T08:24:10Z</time>
<desc>lat.=20.899033, lon.=107.024612, Alt.=-19.596451m. Speed=9.720000m/h.</desc>
<speed>2.700000</speed>
</trkpt>
<trkpt lat="20.899145" lon="107.024666">
<ele>-20.043228</ele>
<time>2011-04-30T08:24:15Z</time>
<desc>lat.=20.899145, lon.=107.024666, Alt.=-20.043228m. Speed=9.792000m/h.</desc>
<speed>2.720000</speed>
</trkpt>
<trkpt lat="20.899258" lon="107.024727">
<ele>-20.456802</ele>
<time>2011-04-30T08:24:20Z</time>
<desc>lat.=20.899258, lon.=107.024727, Alt.=-20.456802m. Speed=9.720000m/h.</desc>
<speed>2.700000</speed>
</trkpt>
<trkpt lat="20.899376" lon="107.024780">
<ele>-20.292252</ele>
<time>2011-04-30T08:24:25Z</time>
<desc>lat.=20.899376, lon.=107.024780, Alt.=-20.292252m. Speed=9.972000m/h.</desc>
<speed>2.770000</speed>
</trkpt>
<trkpt lat="20.899485" lon="107.024826">
<ele>-21.875748</ele>
<time>2011-04-30T08:24:30Z</time>
<desc>lat.=20.899485, lon.=107.024826, Alt.=-21.875748m. Speed=9.756000m/h.</desc>
<speed>2.710000</speed>
</trkpt>
<trkpt lat="20.899599" lon="107.024872">
<ele>-22.645767</ele>
<time>2011-04-30T08:24:35Z</time>
<desc>lat.=20.899599, lon.=107.024872, Alt.=-22.645767m. Speed=9.792000m/h.</desc>
<speed>2.720000</speed>
</trkpt>
<trkpt lat="20.899717" lon="107.024925">
<ele>-22.434341</ele>
<time>2011-04-30T08:24:40Z</time>
<desc>lat.=20.899717, lon.=107.024925, Alt.=-22.434341m. Speed=9.828000m/h.</desc>
<speed>2.730000</speed>
</trkpt>
<trkpt lat="20.899837" lon="107.024979">
<ele>-23.503189</ele>
<time>2011-04-30T08:24:45Z</time>
<desc>lat.=20.899837, lon.=107.024979, Alt.=-23.503189m. Speed=9.864000m/h.</desc>
<speed>2.740000</speed>
</trkpt>
<trkpt lat="20.899950" lon="107.025032">
<ele>-23.473892</ele>
<time>2011-04-30T08:24:50Z</time>
<desc>lat.=20.899950, lon.=107.025032, Alt.=-23.473892m. Speed=9.828000m/h.</desc>
<speed>2.730000</speed>
</trkpt>
<trkpt lat="20.900061" lon="107.025085">
<ele>-22.189713</ele>
<time>2011-04-30T08:24:55Z</time>
<desc>lat.=20.900061, lon.=107.025085, Alt.=-22.189713m. Speed=9.864000m/h.</desc>
<speed>2.740000</speed>
</trkpt>
<trkpt lat="20.900171" lon="107.025146">
<ele>-20.947037</ele>
<time>2011-04-30T08:25:00Z</time>
<desc>lat.=20.900171, lon.=107.025146, Alt.=-20.947037m. Speed=9.756000m/h.</desc>
<speed>2.710000</speed>
</trkpt>
<trkpt lat="20.900286" lon="107.025192">
<ele>-20.781998</ele>
<time>2011-04-30T08:25:05Z</time>
<desc>lat.=20.900286, lon.=107.025192, Alt.=-20.781998m. Speed=9.792000m/h.</desc>
<speed>2.720000</speed>
</trkpt>
<trkpt lat="20.900404" lon="107.025246">
<ele>-20.367935</ele>
<time>2011-04-30T08:25:10Z</time>
<desc>lat.=20.900404, lon.=107.025246, Alt.=-20.367935m. Speed=9.792000m/h.</desc>
<speed>2.720000</speed>
</trkpt>
<trkpt lat="20.900518" lon="107.025291">
<ele>-21.324966</ele>
<time>2011-04-30T08:25:15Z</time>
<desc>lat.=20.900518, lon.=107.025291, Alt.=-21.324966m. Speed=9.720000m/h.</desc>
<speed>2.700000</speed>
</trkpt>
<trkpt lat="20.900623" lon="107.025345">
<ele>-22.394302</ele>
<time>2011-04-30T08:25:20Z</time>
<desc>lat.=20.900623, lon.=107.025345, Alt.=-22.394302m. Speed=9.720000m/h.</desc>
<speed>2.700000</speed>
</trkpt>
<trkpt lat="20.900738" lon="107.025398">
<ele>-22.460709</ele>
<time>2011-04-30T08:25:25Z</time>
<desc>lat.=20.900738, lon.=107.025398, Alt.=-22.460709m. Speed=9.648000m/h.</desc>
<speed>2.680000</speed>
</trkpt>
<trkpt lat="20.900845" lon="107.025452">
<ele>-23.018326</ele>
<time>2011-04-30T08:25:30Z</time>
<desc>lat.=20.900845, lon.=107.025452, Alt.=-23.018326m. Speed=9.576000m/h.</desc>
<speed>2.660000</speed>
</trkpt>
<trkpt lat="20.900951" lon="107.025505">
<ele>-23.770767</ele>
<time>2011-04-30T08:25:35Z</time>
<desc>lat.=20.900951, lon.=107.025505, Alt.=-23.770767m. Speed=9.720000m/h.</desc>
<speed>2.700000</speed>
</trkpt>
<trkpt lat="20.901060" lon="107.025551">
<ele>-23.794693</ele>
<time>2011-04-30T08:25:40Z</time>
<desc>lat.=20.901060, lon.=107.025551, Alt.=-23.794693m. Speed=9.648000m/h.</desc>
<speed>2.680000</speed>
</trkpt>
<trkpt lat="20.901167" lon="107.025612">
<ele>-23.251724</ele>
<time>2011-04-30T08:25:45Z</time>
<desc>lat.=20.901167, lon.=107.025612, Alt.=-23.251724m. Speed=9.540000m/h.</desc>
<speed>2.650000</speed>
</trkpt>
<trkpt lat="20.901276" lon="107.025658">
<ele>-22.282486</ele>
<time>2011-04-30T08:25:50Z</time>
<desc>lat.=20.901276, lon.=107.025658, Alt.=-22.282486m. Speed=9.720000m/h.</desc>
<speed>2.700000</speed>
</trkpt>
<trkpt lat="20.901386" lon="107.025711">
<ele>-22.120865</ele>
<time>2011-04-30T08:25:55Z</time>
<desc>lat.=20.901386, lon.=107.025711, Alt.=-22.120865m. Speed=9.828000m/h.</desc>
<speed>2.730000</speed>
</trkpt>
<trkpt lat="20.901497" lon="107.025757">
<ele>-21.647720</ele>
<time>2011-04-30T08:26:00Z</time>
<desc>lat.=20.901497, lon.=107.025757, Alt.=-21.647720m. Speed=9.900000m/h.</desc>
<speed>2.750000</speed>
</trkpt>
<trkpt lat="20.901613" lon="107.025818">
<ele>-22.011978</ele>
<time>2011-04-30T08:26:05Z</time>
<desc>lat.=20.901613, lon.=107.025818, Alt.=-22.011978m. Speed=9.792000m/h.</desc>
<speed>2.720000</speed>
</trkpt>
<trkpt lat="20.901726" lon="107.025871">
<ele>-22.481216</ele>
<time>2011-04-30T08:26:10Z</time>
<desc>lat.=20.901726, lon.=107.025871, Alt.=-22.481216m. Speed=9.792000m/h.</desc>
<speed>2.720000</speed>
</trkpt>
<trkpt lat="20.901840" lon="107.025932">
<ele>-22.851334</ele>
<time>2011-04-30T08:26:15Z</time>
<desc>lat.=20.901840, lon.=107.025932, Alt.=-22.851334m. Speed=9.828000m/h.</desc>
<speed>2.730000</speed>
</trkpt>
<trkpt lat="20.901953" lon="107.025993">
<ele>-24.006607</ele>
<time>2011-04-30T08:26:20Z</time>
<desc>lat.=20.901953, lon.=107.025993, Alt.=-24.006607m. Speed=9.684000m/h.</desc>
<speed>2.690000</speed>
</trkpt>
<trkpt lat="20.902056" lon="107.026062">
<ele>-24.387955</ele>
<time>2011-04-30T08:26:25Z</time>
<desc>lat.=20.902056, lon.=107.026062, Alt.=-24.387955m. Speed=9.756000m/h.</desc>
<speed>2.710000</speed>
</trkpt>
<trkpt lat="20.902174" lon="107.026115">
<ele>-23.959244</ele>
<time>2011-04-30T08:26:30Z</time>
<desc>lat.=20.902174, lon.=107.026115, Alt.=-23.959244m. Speed=9.648000m/h.</desc>
<speed>2.680000</speed>
</trkpt>
<trkpt lat="20.902288" lon="107.026169">
<ele>-23.555435</ele>
<time>2011-04-30T08:26:35Z</time>
<desc>lat.=20.902288, lon.=107.026169, Alt.=-23.555435m. Speed=9.612000m/h.</desc>
<speed>2.670000</speed>
</trkpt>
<trkpt lat="20.902401" lon="107.026222">
<ele>-23.269791</ele>
<time>2011-04-30T08:26:40Z</time>
<desc>lat.=20.902401, lon.=107.026222, Alt.=-23.269791m. Speed=9.828000m/h.</desc>
<speed>2.730000</speed>
</trkpt>
<trkpt lat="20.902502" lon="107.026276">
<ele>-24.440689</ele>
<time>2011-04-30T08:26:45Z</time>
<desc>lat.=20.902502, lon.=107.026276, Alt.=-24.440689m. Speed=9.432000m/h.</desc>
<speed>2.620000</speed>
</trkpt>
<trkpt lat="20.902617" lon="107.026321">
<ele>-25.407974</ele>
<time>2011-04-30T08:26:50Z</time>
<desc>lat.=20.902617, lon.=107.026321, Alt.=-25.407974m. Speed=9.648000m/h.</desc>
<speed>2.680000</speed>
</trkpt>
<trkpt lat="20.902729" lon="107.026375">
<ele>-25.563736</ele>
<time>2011-04-30T08:26:55Z</time>
<desc>lat.=20.902729, lon.=107.026375, Alt.=-25.563736m. Speed=9.576000m/h.</desc>
<speed>2.660000</speed>
</trkpt>
<trkpt lat="20.902838" lon="107.026428">
<ele>-25.119400</ele>
<time>2011-04-30T08:27:00Z</time>
<desc>lat.=20.902838, lon.=107.026428, Alt.=-25.119400m. Speed=9.540000m/h.</desc>
<speed>2.650000</speed>
</trkpt>
<trkpt lat="20.902948" lon="107.026489">
<ele>-24.797134</ele>
<time>2011-04-30T08:27:05Z</time>
<desc>lat.=20.902948, lon.=107.026489, Alt.=-24.797134m. Speed=9.540000m/h.</desc>
<speed>2.650000</speed>
</trkpt>
<trkpt lat="20.903061" lon="107.026535">
<ele>-24.532974</ele>
<time>2011-04-30T08:27:10Z</time>
<desc>lat.=20.903061, lon.=107.026535, Alt.=-24.532974m. Speed=9.540000m/h.</desc>
<speed>2.650000</speed>
</trkpt>
<trkpt lat="20.903173" lon="107.026588">
<ele>-24.181412</ele>
<time>2011-04-30T08:27:15Z</time>
<desc>lat.=20.903173, lon.=107.026588, Alt.=-24.181412m. Speed=9.504000m/h.</desc>
<speed>2.640000</speed>
</trkpt>
<trkpt lat="20.903280" lon="107.026657">
<ele>-23.391373</ele>
<time>2011-04-30T08:27:20Z</time>
<desc>lat.=20.903280, lon.=107.026657, Alt.=-23.391373m. Speed=9.540000m/h.</desc>
<speed>2.650000</speed>
</trkpt>
<trkpt lat="20.903393" lon="107.026718">
<ele>-22.745377</ele>
<time>2011-04-30T08:27:25Z</time>
<desc>lat.=20.903393, lon.=107.026718, Alt.=-22.745377m. Speed=9.504000m/h.</desc>
<speed>2.640000</speed>
</trkpt>
<trkpt lat="20.903502" lon="107.026764">
<ele>-23.829361</ele>
<time>2011-04-30T08:27:30Z</time>
<desc>lat.=20.903502, lon.=107.026764, Alt.=-23.829361m. Speed=9.576000m/h.</desc>
<speed>2.660000</speed>
</trkpt>
<trkpt lat="20.903610" lon="107.026817">
<ele>-23.865982</ele>
<time>2011-04-30T08:27:35Z</time>
<desc>lat.=20.903610, lon.=107.026817, Alt.=-23.865982m. Speed=9.540000m/h.</desc>
<speed>2.650000</speed>
</trkpt>
<trkpt lat="20.903717" lon="107.026878">
<ele>-23.414322</ele>
<time>2011-04-30T08:27:40Z</time>
<desc>lat.=20.903717, lon.=107.026878, Alt.=-23.414322m. Speed=9.648000m/h.</desc>
<speed>2.680000</speed>
</trkpt>
<trkpt lat="20.903830" lon="107.026932">
<ele>-23.293228</ele>
<time>2011-04-30T08:27:45Z</time>
<desc>lat.=20.903830, lon.=107.026932, Alt.=-23.293228m. Speed=9.612000m/h.</desc>
<speed>2.670000</speed>
</trkpt>
<trkpt lat="20.903936" lon="107.026993">
<ele>-22.728775</ele>
<time>2011-04-30T08:27:50Z</time>
<desc>lat.=20.903936, lon.=107.026993, Alt.=-22.728775m. Speed=9.612000m/h.</desc>
<speed>2.670000</speed>
</trkpt>
<trkpt lat="20.904047" lon="107.027039">
<ele>-22.961197</ele>
<time>2011-04-30T08:27:55Z</time>
<desc>lat.=20.904047, lon.=107.027039, Alt.=-22.961197m. Speed=9.684000m/h.</desc>
<speed>2.690000</speed>
</trkpt>
<trkpt lat="20.904156" lon="107.027092">
<ele>-24.346451</ele>
<time>2011-04-30T08:28:00Z</time>
<desc>lat.=20.904156, lon.=107.027092, Alt.=-24.346451m. Speed=9.360000m/h.</desc>
<speed>2.600000</speed>
</trkpt>
<trkpt lat="20.904266" lon="107.027145">
<ele>-23.161392</ele>
<time>2011-04-30T08:28:05Z</time>
<desc>lat.=20.904266, lon.=107.027145, Alt.=-23.161392m. Speed=9.648000m/h.</desc>
<speed>2.680000</speed>
</trkpt>
<trkpt lat="20.904375" lon="107.027199">
<ele>-24.598404</ele>
<time>2011-04-30T08:28:10Z</time>
<desc>lat.=20.904375, lon.=107.027199, Alt.=-24.598404m. Speed=9.504000m/h.</desc>
<speed>2.640000</speed>
</trkpt>
<trkpt lat="20.904484" lon="107.027245">
<ele>-25.933365</ele>
<time>2011-04-30T08:28:15Z</time>
<desc>lat.=20.904484, lon.=107.027245, Alt.=-25.933365m. Speed=9.396000m/h.</desc>
<speed>2.610000</speed>
</trkpt>
<trkpt lat="20.904593" lon="107.027298">
<ele>-26.542252</ele>
<time>2011-04-30T08:28:20Z</time>
<desc>lat.=20.904593, lon.=107.027298, Alt.=-26.542252m. Speed=9.540000m/h.</desc>
<speed>2.650000</speed>
</trkpt>
<trkpt lat="20.904697" lon="107.027359">
<ele>-26.723404</ele>
<time>2011-04-30T08:28:25Z</time>
<desc>lat.=20.904697, lon.=107.027359, Alt.=-26.723404m. Speed=9.360000m/h.</desc>
<speed>2.600000</speed>
</trkpt>
<trkpt lat="20.904800" lon="107.027428">
<ele>-27.118423</ele>
<time>2011-04-30T08:28:30Z</time>
<desc>lat.=20.904800, lon.=107.027428, Alt.=-27.118423m. Speed=9.576000m/h.</desc>
<speed>2.660000</speed>
</trkpt>
<trkpt lat="20.904907" lon="107.027489">
<ele>-27.927994</ele>
<time>2011-04-30T08:28:35Z</time>
<desc>lat.=20.904907, lon.=107.027489, Alt.=-27.927994m. Speed=9.432000m/h.</desc>
<speed>2.620000</speed>
</trkpt>
<trkpt lat="20.905014" lon="107.027542">
<ele>-27.208755</ele>
<time>2011-04-30T08:28:40Z</time>
<desc>lat.=20.905014, lon.=107.027542, Alt.=-27.208755m. Speed=9.396000m/h.</desc>
<speed>2.610000</speed>
</trkpt>
<trkpt lat="20.905113" lon="107.027611">
<ele>-27.311783</ele>
<time>2011-04-30T08:28:45Z</time>
<desc>lat.=20.905113, lon.=107.027611, Alt.=-27.311783m. Speed=9.540000m/h.</desc>
<speed>2.650000</speed>
</trkpt>
<trkpt lat="20.905216" lon="107.027664">
<ele>-27.401138</ele>
<time>2011-04-30T08:28:50Z</time>
<desc>lat.=20.905216, lon.=107.027664, Alt.=-27.401138m. Speed=9.432000m/h.</desc>
<speed>2.620000</speed>
</trkpt>
<trkpt lat="20.905323" lon="107.027725">
<ele>-26.429947</ele>
<time>2011-04-30T08:28:55Z</time>
<desc>lat.=20.905323, lon.=107.027725, Alt.=-26.429947m. Speed=9.468000m/h.</desc>
<speed>2.630000</speed>
</trkpt>
<trkpt lat="20.905422" lon="107.027786">
<ele>-26.168228</ele>
<time>2011-04-30T08:29:00Z</time>
<desc>lat.=20.905422, lon.=107.027786, Alt.=-26.168228m. Speed=9.432000m/h.</desc>
<speed>2.620000</speed>
</trkpt>
<trkpt lat="20.905525" lon="107.027847">
<ele>-25.374283</ele>
<time>2011-04-30T08:29:05Z</time>
<desc>lat.=20.905525, lon.=107.027847, Alt.=-25.374283m. Speed=9.504000m/h.</desc>
<speed>2.640000</speed>
</trkpt>
<trkpt lat="20.905628" lon="107.027908">
<ele>-24.998795</ele>
<time>2011-04-30T08:29:10Z</time>
<desc>lat.=20.905628, lon.=107.027908, Alt.=-24.998795m. Speed=9.504000m/h.</desc>
<speed>2.640000</speed>
</trkpt>
<trkpt lat="20.905731" lon="107.027962">
<ele>-24.649673</ele>
<time>2011-04-30T08:29:15Z</time>
<desc>lat.=20.905731, lon.=107.027962, Alt.=-24.649673m. Speed=9.396000m/h.</desc>
<speed>2.610000</speed>
</trkpt>
<trkpt lat="20.905842" lon="107.028015">
<ele>-23.590591</ele>
<time>2011-04-30T08:29:20Z</time>
<desc>lat.=20.905842, lon.=107.028015, Alt.=-23.590591m. Speed=9.540000m/h.</desc>
<speed>2.650000</speed>
</trkpt>
<trkpt lat="20.905949" lon="107.028069">
<ele>-21.931412</ele>
<time>2011-04-30T08:29:25Z</time>
<desc>lat.=20.905949, lon.=107.028069, Alt.=-21.931412m. Speed=9.432000m/h.</desc>
<speed>2.620000</speed>
</trkpt>
<trkpt lat="20.906057" lon="107.028122">
<ele>-20.724869</ele>
<time>2011-04-30T08:29:30Z</time>
<desc>lat.=20.906057, lon.=107.028122, Alt.=-20.724869m. Speed=9.468000m/h.</desc>
<speed>2.630000</speed>
</trkpt>
<trkpt lat="20.906168" lon="107.028175">
<ele>-20.462662</ele>
<time>2011-04-30T08:29:35Z</time>
<desc>lat.=20.906168, lon.=107.028175, Alt.=-20.462662m. Speed=9.504000m/h.</desc>
<speed>2.640000</speed>
</trkpt>
<trkpt lat="20.906277" lon="107.028221">
<ele>-20.825455</ele>
<time>2011-04-30T08:29:40Z</time>
<desc>lat.=20.906277, lon.=107.028221, Alt.=-20.825455m. Speed=9.432000m/h.</desc>
<speed>2.620000</speed>
</trkpt>
<trkpt lat="20.906380" lon="107.028282">
<ele>-20.110611</ele>
<time>2011-04-30T08:29:45Z</time>
<desc>lat.=20.906380, lon.=107.028282, Alt.=-20.110611m. Speed=9.468000m/h.</desc>
<speed>2.630000</speed>
</trkpt>
<trkpt lat="20.906492" lon="107.028336">
<ele>-18.928482</ele>
<time>2011-04-30T08:29:50Z</time>
<desc>lat.=20.906492, lon.=107.028336, Alt.=-18.928482m. Speed=9.504000m/h.</desc>
<speed>2.640000</speed>
</trkpt>
<trkpt lat="20.906603" lon="107.028389">
<ele>-18.931412</ele>
<time>2011-04-30T08:29:55Z</time>
<desc>lat.=20.906603, lon.=107.028389, Alt.=-18.931412m. Speed=9.540000m/h.</desc>
<speed>2.650000</speed>
</trkpt>
<trkpt lat="20.906712" lon="107.028442">
<ele>-19.647232</ele>
<time>2011-04-30T08:30:00Z</time>
<desc>lat.=20.906712, lon.=107.028442, Alt.=-19.647232m. Speed=9.648000m/h.</desc>
<speed>2.680000</speed>
</trkpt>
<trkpt lat="20.906818" lon="107.028496">
<ele>-19.149673</ele>
<time>2011-04-30T08:30:05Z</time>
<desc>lat.=20.906818, lon.=107.028496, Alt.=-19.149673m. Speed=9.540000m/h.</desc>
<speed>2.650000</speed>
</trkpt>
<trkpt lat="20.906927" lon="107.028542">
<ele>-19.389908</ele>
<time>2011-04-30T08:30:10Z</time>
<desc>lat.=20.906927, lon.=107.028542, Alt.=-19.389908m. Speed=9.612000m/h.</desc>
<speed>2.670000</speed>
</trkpt>
<trkpt lat="20.907038" lon="107.028587">
<ele>-18.839615</ele>
<time>2011-04-30T08:30:15Z</time>
<desc>lat.=20.907038, lon.=107.028587, Alt.=-18.839615m. Speed=9.612000m/h.</desc>
<speed>2.670000</speed>
</trkpt>
<trkpt lat="20.907146" lon="107.028648">
<ele>-18.165787</ele>
<time>2011-04-30T08:30:20Z</time>
<desc>lat.=20.907146, lon.=107.028648, Alt.=-18.165787m. Speed=9.540000m/h.</desc>
<speed>2.650000</speed>
</trkpt>
<trkpt lat="20.907253" lon="107.028702">
<ele>-17.370377</ele>
<time>2011-04-30T08:30:25Z</time>
<desc>lat.=20.907253, lon.=107.028702, Alt.=-17.370377m. Speed=9.540000m/h.</desc>
<speed>2.650000</speed>
</trkpt>
<trkpt lat="20.907364" lon="107.028763">
<ele>-15.809944</ele>
<time>2011-04-30T08:30:30Z</time>
<desc>lat.=20.907364, lon.=107.028763, Alt.=-15.809944m. Speed=9.576000m/h.</desc>
<speed>2.660000</speed>
</trkpt>
<trkpt lat="20.907473" lon="107.028816">
<ele>-16.624283</ele>
<time>2011-04-30T08:30:35Z</time>
<desc>lat.=20.907473, lon.=107.028816, Alt.=-16.624283m. Speed=9.612000m/h.</desc>
<speed>2.670000</speed>
</trkpt>
<trkpt lat="20.907578" lon="107.028870">
<ele>-17.015884</ele>
<time>2011-04-30T08:30:40Z</time>
<desc>lat.=20.907578, lon.=107.028870, Alt.=-17.015884m. Speed=9.468000m/h.</desc>
<speed>2.630000</speed>
</trkpt>
<trkpt lat="20.907681" lon="107.028923">
<ele>-18.836685</ele>
<time>2011-04-30T08:30:45Z</time>
<desc>lat.=20.907681, lon.=107.028923, Alt.=-18.836685m. Speed=9.576000m/h.</desc>
<speed>2.660000</speed>
</trkpt>
<trkpt lat="20.907789" lon="107.028976">
<ele>-18.533463</ele>
<time>2011-04-30T08:30:50Z</time>
<desc>lat.=20.907789, lon.=107.028976, Alt.=-18.533463m. Speed=9.504000m/h.</desc>
<speed>2.640000</speed>
</trkpt>
<trkpt lat="20.907902" lon="107.029030">
<ele>-15.496712</ele>
<time>2011-04-30T08:30:55Z</time>
<desc>lat.=20.907902, lon.=107.029030, Alt.=-15.496712m. Speed=9.540000m/h.</desc>
<speed>2.650000</speed>
</trkpt>
<trkpt lat="20.908001" lon="107.029083">
<ele>-16.992447</ele>
<time>2011-04-30T08:31:00Z</time>
<desc>lat.=20.908001, lon.=107.029083, Alt.=-16.992447m. Speed=9.468000m/h.</desc>
<speed>2.630000</speed>
</trkpt>
<trkpt lat="20.908110" lon="107.029144">
<ele>-15.835335</ele>
<time>2011-04-30T08:31:05Z</time>
<desc>lat.=20.908110, lon.=107.029144, Alt.=-15.835335m. Speed=9.504000m/h.</desc>
<speed>2.640000</speed>
</trkpt>
<trkpt lat="20.908211" lon="107.029205">
<ele>-15.302620</ele>
<time>2011-04-30T08:31:10Z</time>
<desc>lat.=20.908211, lon.=107.029205, Alt.=-15.302620m. Speed=9.504000m/h.</desc>
<speed>2.640000</speed>
</trkpt>
<trkpt lat="20.908314" lon="107.029266">
<ele>-14.460579</ele>
<time>2011-04-30T08:31:15Z</time>
<desc>lat.=20.908314, lon.=107.029266, Alt.=-14.460579m. Speed=9.792000m/h.</desc>
<speed>2.720000</speed>
</trkpt>
<trkpt lat="20.908421" lon="107.029335">
<ele>-11.786263</ele>
<time>2011-04-30T08:31:20Z</time>
<desc>lat.=20.908421, lon.=107.029335, Alt.=-11.786263m. Speed=9.540000m/h.</desc>
<speed>2.650000</speed>
</trkpt>
<trkpt lat="20.908520" lon="107.029396">
<ele>-13.093880</ele>
<time>2011-04-30T08:31:25Z</time>
<desc>lat.=20.908520, lon.=107.029396, Alt.=-13.093880m. Speed=9.432000m/h.</desc>
<speed>2.620000</speed>
</trkpt>
<trkpt lat="20.908623" lon="107.029457">
<ele>-12.566292</ele>
<time>2011-04-30T08:31:30Z</time>
<desc>lat.=20.908623, lon.=107.029457, Alt.=-12.566292m. Speed=9.504000m/h.</desc>
<speed>2.640000</speed>
</trkpt>
<trkpt lat="20.908724" lon="107.029518">
<ele>-13.975227</ele>
<time>2011-04-30T08:31:35Z</time>
<desc>lat.=20.908724, lon.=107.029518, Alt.=-13.975227m. Speed=9.504000m/h.</desc>
<speed>2.640000</speed>
</trkpt>
<trkpt lat="20.908831" lon="107.029564">
<ele>-14.575813</ele>
<time>2011-04-30T08:31:40Z</time>
<desc>lat.=20.908831, lon.=107.029564, Alt.=-14.575813m. Speed=9.540000m/h.</desc>
<speed>2.650000</speed>
</trkpt>
<trkpt lat="20.908943" lon="107.029625">
<ele>-14.128304</ele>
<time>2011-04-30T08:31:45Z</time>
<desc>lat.=20.908943, lon.=107.029625, Alt.=-14.128304m. Speed=9.432000m/h.</desc>
<speed>2.620000</speed>
</trkpt>
<trkpt lat="20.909058" lon="107.029678">
<ele>-13.316780</ele>
<time>2011-04-30T08:31:50Z</time>
<desc>lat.=20.909058, lon.=107.029678, Alt.=-13.316780m. Speed=9.540000m/h.</desc>
<speed>2.650000</speed>
</trkpt>
<trkpt lat="20.909168" lon="107.029732">
<ele>-14.701302</ele>
<time>2011-04-30T08:31:55Z</time>
<desc>lat.=20.909168, lon.=107.029732, Alt.=-14.701302m. Speed=9.396000m/h.</desc>
<speed>2.610000</speed>
</trkpt>
<trkpt lat="20.909273" lon="107.029785">
<ele>-15.615852</ele>
<time>2011-04-30T08:32:00Z</time>
<desc>lat.=20.909273, lon.=107.029785, Alt.=-15.615852m. Speed=9.396000m/h.</desc>
<speed>2.610000</speed>
</trkpt>
<trkpt lat="20.909380" lon="107.029831">
<ele>-16.267349</ele>
<time>2011-04-30T08:32:05Z</time>
<desc>lat.=20.909380, lon.=107.029831, Alt.=-16.267349m. Speed=9.432000m/h.</desc>
<speed>2.620000</speed>
</trkpt>
<trkpt lat="20.909487" lon="107.029884">
<ele>-16.678970</ele>
<time>2011-04-30T08:32:10Z</time>
<desc>lat.=20.909487, lon.=107.029884, Alt.=-16.678970m. Speed=9.468000m/h.</desc>
<speed>2.630000</speed>
</trkpt>
<trkpt lat="20.909595" lon="107.029945">
<ele>-17.422623</ele>
<time>2011-04-30T08:32:15Z</time>
<desc>lat.=20.909595, lon.=107.029945, Alt.=-17.422623m. Speed=9.396000m/h.</desc>
<speed>2.610000</speed>
</trkpt>
<trkpt lat="20.909702" lon="107.029999">
<ele>-16.394302</ele>
<time>2011-04-30T08:32:20Z</time>
<desc>lat.=20.909702, lon.=107.029999, Alt.=-16.394302m. Speed=9.504000m/h.</desc>
<speed>2.640000</speed>
</trkpt>
<trkpt lat="20.909813" lon="107.030052">
<ele>-15.575813</ele>
<time>2011-04-30T08:32:25Z</time>
<desc>lat.=20.909813, lon.=107.030052, Alt.=-15.575813m. Speed=9.468000m/h.</desc>
<speed>2.630000</speed>
</trkpt>
<trkpt lat="20.909914" lon="107.030113">
<ele>-16.103287</ele>
<time>2011-04-30T08:32:30Z</time>
<desc>lat.=20.909914, lon.=107.030113, Alt.=-16.103287m. Speed=9.432000m/h.</desc>
<speed>2.620000</speed>
</trkpt>
<trkpt lat="20.910021" lon="107.030174">
<ele>-16.675552</ele>
<time>2011-04-30T08:32:35Z</time>
<desc>lat.=20.910021, lon.=107.030174, Alt.=-16.675552m. Speed=9.432000m/h.</desc>
<speed>2.620000</speed>
</trkpt>
<trkpt lat="20.910130" lon="107.030228">
<ele>-16.048599</ele>
<time>2011-04-30T08:32:40Z</time>
<desc>lat.=20.910130, lon.=107.030228, Alt.=-16.048599m. Speed=9.432000m/h.</desc>
<speed>2.620000</speed>
</trkpt>
<trkpt lat="20.910236" lon="107.030281">
<ele>-16.350845</ele>
<time>2011-04-30T08:32:45Z</time>
<desc>lat.=20.910236, lon.=107.030281, Alt.=-16.350845m. Speed=9.360000m/h.</desc>
<speed>2.600000</speed>
</trkpt>
<trkpt lat="20.910339" lon="107.030334">
<ele>-15.966194</ele>
<time>2011-04-30T08:32:50Z</time>
<desc>lat.=20.910339, lon.=107.030334, Alt.=-15.966194m. Speed=9.324000m/h.</desc>
<speed>2.590000</speed>
</trkpt>
<trkpt lat="20.910442" lon="107.030396">
<ele>-16.511490</ele>
<time>2011-04-30T08:32:55Z</time>
<desc>lat.=20.910442, lon.=107.030396, Alt.=-16.511490m. Speed=9.288000m/h.</desc>
<speed>2.580000</speed>
</trkpt>
<trkpt lat="20.910551" lon="107.030449">
<ele>-15.933479</ele>
<time>2011-04-30T08:33:00Z</time>
<desc>lat.=20.910551, lon.=107.030449, Alt.=-15.933479m. Speed=9.180000m/h.</desc>
<speed>2.550000</speed>
</trkpt>
<trkpt lat="20.910652" lon="107.030510">
<ele>-16.727798</ele>
<time>2011-04-30T08:33:05Z</time>
<desc>lat.=20.910652, lon.=107.030510, Alt.=-16.727798m. Speed=9.468000m/h.</desc>
<speed>2.630000</speed>
</trkpt>
<trkpt lat="20.910761" lon="107.030563">
<ele>-16.640884</ele>
<time>2011-04-30T08:33:10Z</time>
<desc>lat.=20.910761, lon.=107.030563, Alt.=-16.640884m. Speed=9.180000m/h.</desc>
<speed>2.550000</speed>
</trkpt>
<trkpt lat="20.910868" lon="107.030617">
<ele>-16.712173</ele>
<time>2011-04-30T08:33:15Z</time>
<desc>lat.=20.910868, lon.=107.030617, Alt.=-16.712173m. Speed=9.360000m/h.</desc>
<speed>2.600000</speed>
</trkpt>
<trkpt lat="20.910971" lon="107.030678">
<ele>-16.449478</ele>
<time>2011-04-30T08:33:20Z</time>
<desc>lat.=20.910971, lon.=107.030678, Alt.=-16.449478m. Speed=9.360000m/h.</desc>
<speed>2.600000</speed>
</trkpt>
<trkpt lat="20.911070" lon="107.030731">
<ele>-15.997444</ele>
<time>2011-04-30T08:33:25Z</time>
<desc>lat.=20.911070, lon.=107.030731, Alt.=-15.997444m. Speed=9.324000m/h.</desc>
<speed>2.590000</speed>
</trkpt>
<trkpt lat="20.911165" lon="107.030800">
<ele>-16.383560</ele>
<time>2011-04-30T08:33:30Z</time>
<desc>lat.=20.911165, lon.=107.030800, Alt.=-16.383560m. Speed=9.036000m/h.</desc>
<speed>2.510000</speed>
</trkpt>
<trkpt lat="20.911266" lon="107.030861">
<ele>-17.147232</ele>
<time>2011-04-30T08:33:35Z</time>
<desc>lat.=20.911266, lon.=107.030861, Alt.=-17.147232m. Speed=9.252000m/h.</desc>
<speed>2.570000</speed>
</trkpt>
<trkpt lat="20.911367" lon="107.030922">
<ele>-16.876236</ele>
<time>2011-04-30T08:33:40Z</time>
<desc>lat.=20.911367, lon.=107.030922, Alt.=-16.876236m. Speed=9.468000m/h.</desc>
<speed>2.630000</speed>
</trkpt>
<trkpt lat="20.911470" lon="107.030983">
<ele>-16.338150</ele>
<time>2011-04-30T08:33:45Z</time>
<desc>lat.=20.911470, lon.=107.030983, Alt.=-16.338150m. Speed=9.180000m/h.</desc>
<speed>2.550000</speed>
</trkpt>
<trkpt lat="20.911573" lon="107.031036">
<ele>-15.583382</ele>
<time>2011-04-30T08:33:50Z</time>
<desc>lat.=20.911573, lon.=107.031036, Alt.=-15.583382m. Speed=9.144000m/h.</desc>
<speed>2.540000</speed>
</trkpt>
<trkpt lat="20.911680" lon="107.031090">
<ele>-16.561783</ele>
<time>2011-04-30T08:33:55Z</time>
<desc>lat.=20.911680, lon.=107.031090, Alt.=-16.561783m. Speed=9.180000m/h.</desc>
<speed>2.550000</speed>
</trkpt>
<trkpt lat="20.911783" lon="107.031151">
<ele>-16.386002</ele>
<time>2011-04-30T08:34:00Z</time>
<desc>lat.=20.911783, lon.=107.031151, Alt.=-16.386002m. Speed=9.180000m/h.</desc>
<speed>2.550000</speed>
</trkpt>
<trkpt lat="20.911888" lon="107.031204">
<ele>-17.055923</ele>
<time>2011-04-30T08:34:05Z</time>
<desc>lat.=20.911888, lon.=107.031204, Alt.=-17.055923m. Speed=9.324000m/h.</desc>
<speed>2.590000</speed>
</trkpt>
<trkpt lat="20.911997" lon="107.031258">
<ele>-17.055435</ele>
<time>2011-04-30T08:34:10Z</time>
<desc>lat.=20.911997, lon.=107.031258, Alt.=-17.055435m. Speed=9.684000m/h.</desc>
<speed>2.690000</speed>
</trkpt>
<trkpt lat="20.912104" lon="107.031319">
<ele>-17.542252</ele>
<time>2011-04-30T08:34:15Z</time>
<desc>lat.=20.912104, lon.=107.031319, Alt.=-17.542252m. Speed=9.432000m/h.</desc>
<speed>2.620000</speed>
</trkpt>
<trkpt lat="20.912207" lon="107.031372">
<ele>-17.364517</ele>
<time>2011-04-30T08:34:20Z</time>
<desc>lat.=20.912207, lon.=107.031372, Alt.=-17.364517m. Speed=9.612000m/h.</desc>
<speed>2.670000</speed>
</trkpt>
<trkpt lat="20.912310" lon="107.031418">
<ele>-19.124771</ele>
<time>2011-04-30T08:34:25Z</time>
<desc>lat.=20.912310, lon.=107.031418, Alt.=-19.124771m. Speed=9.612000m/h.</desc>
<speed>2.670000</speed>
</trkpt>
<trkpt lat="20.912415" lon="107.031471">
<ele>-19.459732</ele>
<time>2011-04-30T08:34:30Z</time>
<desc>lat.=20.912415, lon.=107.031471, Alt.=-19.459732m. Speed=9.432000m/h.</desc>
<speed>2.620000</speed>
</trkpt>
<trkpt lat="20.912519" lon="107.031548">
<ele>-21.146744</ele>
<time>2011-04-30T08:34:35Z</time>
<desc>lat.=20.912519, lon.=107.031548, Alt.=-21.146744m. Speed=9.648000m/h.</desc>
<speed>2.680000</speed>
</trkpt>
<trkpt lat="20.912628" lon="107.031609">
<ele>-20.233170</ele>
<time>2011-04-30T08:34:40Z</time>
<desc>lat.=20.912628, lon.=107.031609, Alt.=-20.233170m. Speed=9.324000m/h.</desc>
<speed>2.590000</speed>
</trkpt>
<trkpt lat="20.912733" lon="107.031662">
<ele>-19.511002</ele>
<time>2011-04-30T08:34:45Z</time>
<desc>lat.=20.912733, lon.=107.031662, Alt.=-19.511002m. Speed=9.504000m/h.</desc>
<speed>2.640000</speed>
</trkpt>
<trkpt lat="20.912836" lon="107.031731">
<ele>-19.046158</ele>
<time>2011-04-30T08:34:50Z</time>
<desc>lat.=20.912836, lon.=107.031731, Alt.=-19.046158m. Speed=9.612000m/h.</desc>
<speed>2.670000</speed>
</trkpt>
<trkpt lat="20.912933" lon="107.031792">
<ele>-17.921646</ele>
<time>2011-04-30T08:34:55Z</time>
<desc>lat.=20.912933, lon.=107.031792, Alt.=-17.921646m. Speed=9.252000m/h.</desc>
<speed>2.570000</speed>
</trkpt>
<trkpt lat="20.913033" lon="107.031860">
<ele>-17.019791</ele>
<time>2011-04-30T08:35:00Z</time>
<desc>lat.=20.913033, lon.=107.031860, Alt.=-17.019791m. Speed=9.396000m/h.</desc>
<speed>2.610000</speed>
</trkpt>
<trkpt lat="20.913134" lon="107.031921">
<ele>-15.908089</ele>
<time>2011-04-30T08:35:05Z</time>
<desc>lat.=20.913134, lon.=107.031921, Alt.=-15.908089m. Speed=9.180000m/h.</desc>
<speed>2.550000</speed>
</trkpt>
<trkpt lat="20.913233" lon="107.031990">
<ele>-14.383919</ele>
<time>2011-04-30T08:35:10Z</time>
<desc>lat.=20.913233, lon.=107.031990, Alt.=-14.383919m. Speed=9.504000m/h.</desc>
<speed>2.640000</speed>
</trkpt>
<trkpt lat="20.913334" lon="107.032043">
<ele>-13.085823</ele>
<time>2011-04-30T08:35:15Z</time>
<desc>lat.=20.913334, lon.=107.032043, Alt.=-13.085823m. Speed=9.252000m/h.</desc>
<speed>2.570000</speed>
</trkpt>
<trkpt lat="20.913435" lon="107.032104">
<ele>-13.175667</ele>
<time>2011-04-30T08:35:20Z</time>
<desc>lat.=20.913435, lon.=107.032104, Alt.=-13.175667m. Speed=9.288000m/h.</desc>
<speed>2.580000</speed>
</trkpt>
<trkpt lat="20.913536" lon="107.032181">
<ele>-13.325813</ele>
<time>2011-04-30T08:35:25Z</time>
<desc>lat.=20.913536, lon.=107.032181, Alt.=-13.325813m. Speed=9.612000m/h.</desc>
<speed>2.670000</speed>
</trkpt>
<trkpt lat="20.913631" lon="107.032257">
<ele>-11.484505</ele>
<time>2011-04-30T08:35:30Z</time>
<desc>lat.=20.913631, lon.=107.032257, Alt.=-11.484505m. Speed=9.612000m/h.</desc>
<speed>2.670000</speed>
</trkpt>
<trkpt lat="20.913733" lon="107.032318">
<ele>-12.041634</ele>
<time>2011-04-30T08:35:35Z</time>
<desc>lat.=20.913733, lon.=107.032318, Alt.=-12.041634m. Speed=9.684000m/h.</desc>
<speed>2.690000</speed>
</trkpt>
<trkpt lat="20.913837" lon="107.032379">
<ele>-10.700569</ele>
<time>2011-04-30T08:35:40Z</time>
<desc>lat.=20.913837, lon.=107.032379, Alt.=-10.700569m. Speed=9.720000m/h.</desc>
<speed>2.700000</speed>
</trkpt>
<trkpt lat="20.913940" lon="107.032440">
<ele>-10.559212</ele>
<time>2011-04-30T08:35:45Z</time>
<desc>lat.=20.913940, lon.=107.032440, Alt.=-10.559212m. Speed=9.792000m/h.</desc>
<speed>2.720000</speed>
</trkpt>
<trkpt lat="20.914045" lon="107.032501">
<ele>-11.581673</ele>
<time>2011-04-30T08:35:50Z</time>
<desc>lat.=20.914045, lon.=107.032501, Alt.=-11.581673m. Speed=9.576000m/h.</desc>
<speed>2.660000</speed>
</trkpt>
<trkpt lat="20.914150" lon="107.032555">
<ele>-13.351936</ele>
<time>2011-04-30T08:35:55Z</time>
<desc>lat.=20.914150, lon.=107.032555, Alt.=-13.351936m. Speed=9.288000m/h.</desc>
<speed>2.580000</speed>
</trkpt>
<trkpt lat="20.914249" lon="107.032608">
<ele>-13.333626</ele>
<time>2011-04-30T08:36:00Z</time>
<desc>lat.=20.914249, lon.=107.032608, Alt.=-13.333626m. Speed=9.792000m/h.</desc>
<speed>2.720000</speed>
</trkpt>
<trkpt lat="20.914351" lon="107.032661">
<ele>-13.515511</ele>
<time>2011-04-30T08:36:05Z</time>
<desc>lat.=20.914351, lon.=107.032661, Alt.=-13.515511m. Speed=8.676000m/h.</desc>
<speed>2.410000</speed>
</trkpt>
<trkpt lat="20.914454" lon="107.032715">
<ele>-13.438362</ele>
<time>2011-04-30T08:36:10Z</time>
<desc>lat.=20.914454, lon.=107.032715, Alt.=-13.438362m. Speed=9.360000m/h.</desc>
<speed>2.600000</speed>
</trkpt>
<trkpt lat="20.914557" lon="107.032776">
<ele>-12.713509</ele>
<time>2011-04-30T08:36:15Z</time>
<desc>lat.=20.914557, lon.=107.032776, Alt.=-12.713509m. Speed=9.144000m/h.</desc>
<speed>2.540000</speed>
</trkpt>
<trkpt lat="20.914663" lon="107.032845">
<ele>-12.834846</ele>
<time>2011-04-30T08:36:20Z</time>
<desc>lat.=20.914663, lon.=107.032845, Alt.=-12.834846m. Speed=9.792000m/h.</desc>
<speed>2.720000</speed>
</trkpt>
<trkpt lat="20.914764" lon="107.032898">
<ele>-14.812386</ele>
<time>2011-04-30T08:36:25Z</time>
<desc>lat.=20.914764, lon.=107.032898, Alt.=-14.812386m. Speed=9.504000m/h.</desc>
<speed>2.640000</speed>
</trkpt>
<trkpt lat="20.914869" lon="107.032967">
<ele>-15.252083</ele>
<time>2011-04-30T08:36:30Z</time>
<desc>lat.=20.914869, lon.=107.032967, Alt.=-15.252083m. Speed=9.288000m/h.</desc>
<speed>2.580000</speed>
</trkpt>
<trkpt lat="20.914961" lon="107.033043">
<ele>-14.723274</ele>
<time>2011-04-30T08:36:35Z</time>
<desc>lat.=20.914961, lon.=107.033043, Alt.=-14.723274m. Speed=9.468000m/h.</desc>
<speed>2.630000</speed>
</trkpt>
<trkpt lat="20.915062" lon="107.033112">
<ele>-13.379280</ele>
<time>2011-04-30T08:36:40Z</time>
<desc>lat.=20.915062, lon.=107.033112, Alt.=-13.379280m. Speed=9.396000m/h.</desc>
<speed>2.610000</speed>
</trkpt>
<trkpt lat="20.915161" lon="107.033165">
<ele>-13.275520</ele>
<time>2011-04-30T08:36:45Z</time>
<desc>lat.=20.915161, lon.=107.033165, Alt.=-13.275520m. Speed=9.324000m/h.</desc>
<speed>2.590000</speed>
</trkpt>
<trkpt lat="20.915257" lon="107.033218">
<ele>-14.554329</ele>
<time>2011-04-30T08:36:50Z</time>
<desc>lat.=20.915257, lon.=107.033218, Alt.=-14.554329m. Speed=9.396000m/h.</desc>
<speed>2.610000</speed>
</trkpt>
<trkpt lat="20.915354" lon="107.033272">
<ele>-16.713638</ele>
<time>2011-04-30T08:36:55Z</time>
<desc>lat.=20.915354, lon.=107.033272, Alt.=-16.713638m. Speed=9.216000m/h.</desc>
<speed>2.560000</speed>
</trkpt>
<trkpt lat="20.915451" lon="107.033348">
<ele>-17.082779</ele>
<time>2011-04-30T08:37:00Z</time>
<desc>lat.=20.915451, lon.=107.033348, Alt.=-17.082779m. Speed=9.324000m/h.</desc>
<speed>2.590000</speed>
</trkpt>
<trkpt lat="20.915550" lon="107.033417">
<ele>-17.471451</ele>
<time>2011-04-30T08:37:05Z</time>
<desc>lat.=20.915550, lon.=107.033417, Alt.=-17.471451m. Speed=9.252000m/h.</desc>
<speed>2.570000</speed>
</trkpt>
<trkpt lat="20.915636" lon="107.033493">
<ele>-17.375748</ele>
<time>2011-04-30T08:37:10Z</time>
<desc>lat.=20.915636, lon.=107.033493, Alt.=-17.375748m. Speed=9.468000m/h.</desc>
<speed>2.630000</speed>
</trkpt>
<trkpt lat="20.915731" lon="107.033569">
<ele>-16.978287</ele>
<time>2011-04-30T08:37:15Z</time>
<desc>lat.=20.915731, lon.=107.033569, Alt.=-16.978287m. Speed=9.252000m/h.</desc>
<speed>2.570000</speed>
</trkpt>
<trkpt lat="20.915815" lon="107.033646">
<ele>-15.298714</ele>
<time>2011-04-30T08:37:20Z</time>
<desc>lat.=20.915815, lon.=107.033646, Alt.=-15.298714m. Speed=9.288000m/h.</desc>
<speed>2.580000</speed>
</trkpt>
<trkpt lat="20.915907" lon="107.033722">
<ele>-16.643814</ele>
<time>2011-04-30T08:37:25Z</time>
<desc>lat.=20.915907, lon.=107.033722, Alt.=-16.643814m. Speed=9.180000m/h.</desc>
<speed>2.550000</speed>
</trkpt>
<trkpt lat="20.915995" lon="107.033813">
<ele>-16.798599</ele>
<time>2011-04-30T08:37:30Z</time>
<desc>lat.=20.915995, lon.=107.033813, Alt.=-16.798599m. Speed=9.396000m/h.</desc>
<speed>2.610000</speed>
</trkpt>
<trkpt lat="20.916084" lon="107.033905">
<ele>-15.559700</ele>
<time>2011-04-30T08:37:35Z</time>
<desc>lat.=20.916084, lon.=107.033905, Alt.=-15.559700m. Speed=8.856000m/h.</desc>
<speed>2.460000</speed>
</trkpt>
<trkpt lat="20.916182" lon="107.033989">
<ele>-14.638069</ele>
<time>2011-04-30T08:37:40Z</time>
<desc>lat.=20.916182, lon.=107.033989, Alt.=-14.638069m. Speed=8.712000m/h.</desc>
<speed>2.420000</speed>
</trkpt>
<trkpt lat="20.916286" lon="107.034058">
<ele>-16.511002</ele>
<time>2011-04-30T08:37:45Z</time>
<desc>lat.=20.916286, lon.=107.034058, Alt.=-16.511002m. Speed=10.620000m/h.</desc>
<speed>2.950000</speed>
</trkpt>
<trkpt lat="20.916384" lon="107.034126">
<ele>-16.750259</ele>
<time>2011-04-30T08:37:50Z</time>
<desc>lat.=20.916384, lon.=107.034126, Alt.=-16.750259m. Speed=8.892000m/h.</desc>
<speed>2.470000</speed>
</trkpt>
<trkpt lat="20.916479" lon="107.034187">
<ele>-17.713638</ele>
<time>2011-04-30T08:37:55Z</time>
<desc>lat.=20.916479, lon.=107.034187, Alt.=-17.713638m. Speed=9.648000m/h.</desc>
<speed>2.680000</speed>
</trkpt>
<trkpt lat="20.916584" lon="107.034248">
<ele>-18.143814</ele>
<time>2011-04-30T08:38:00Z</time>
<desc>lat.=20.916584, lon.=107.034248, Alt.=-18.143814m. Speed=9.576000m/h.</desc>
<speed>2.660000</speed>
</trkpt>
<trkpt lat="20.916689" lon="107.034309">
<ele>-19.501724</ele>
<time>2011-04-30T08:38:05Z</time>
<desc>lat.=20.916689, lon.=107.034309, Alt.=-19.501724m. Speed=10.152000m/h.</desc>
<speed>2.820000</speed>
</trkpt>
<trkpt lat="20.916794" lon="107.034378">
<ele>-18.877701</ele>
<time>2011-04-30T08:38:10Z</time>
<desc>lat.=20.916794, lon.=107.034378, Alt.=-18.877701m. Speed=9.576000m/h.</desc>
<speed>2.660000</speed>
</trkpt>
<trkpt lat="20.916897" lon="107.034447">
<ele>-19.804459</ele>
<time>2011-04-30T08:38:15Z</time>
<desc>lat.=20.916897, lon.=107.034447, Alt.=-19.804459m. Speed=9.432000m/h.</desc>
<speed>2.620000</speed>
</trkpt>
<trkpt lat="20.916992" lon="107.034523">
<ele>-21.497330</ele>
<time>2011-04-30T08:38:20Z</time>
<desc>lat.=20.916992, lon.=107.034523, Alt.=-21.497330m. Speed=9.828000m/h.</desc>
<speed>2.730000</speed>
</trkpt>
<trkpt lat="20.917105" lon="107.034599">
<ele>-22.324966</ele>
<time>2011-04-30T08:38:25Z</time>
<desc>lat.=20.917105, lon.=107.034599, Alt.=-22.324966m. Speed=9.684000m/h.</desc>
<speed>2.690000</speed>
</trkpt>
<trkpt lat="20.917206" lon="107.034668">
<ele>-23.785904</ele>
<time>2011-04-30T08:38:30Z</time>
<desc>lat.=20.917206, lon.=107.034668, Alt.=-23.785904m. Speed=9.540000m/h.</desc>
<speed>2.650000</speed>
</trkpt>
<trkpt lat="20.917303" lon="107.034737">
<ele>-24.203384</ele>
<time>2011-04-30T08:38:35Z</time>
<desc>lat.=20.917303, lon.=107.034737, Alt.=-24.203384m. Speed=9.432000m/h.</desc>
<speed>2.620000</speed>
</trkpt>
<trkpt lat="20.917414" lon="107.034798">
<ele>-24.198013</ele>
<time>2011-04-30T08:38:40Z</time>
<desc>lat.=20.917414, lon.=107.034798, Alt.=-24.198013m. Speed=9.252000m/h.</desc>
<speed>2.570000</speed>
</trkpt>
<trkpt lat="20.917519" lon="107.034874">
<ele>-23.938248</ele>
<time>2011-04-30T08:38:45Z</time>
<desc>lat.=20.917519, lon.=107.034874, Alt.=-23.938248m. Speed=9.864000m/h.</desc>
<speed>2.740000</speed>
</trkpt>
<trkpt lat="20.917614" lon="107.034943">
<ele>-23.205338</ele>
<time>2011-04-30T08:38:50Z</time>
<desc>lat.=20.917614, lon.=107.034943, Alt.=-23.205338m. Speed=9.576000m/h.</desc>
<speed>2.660000</speed>
</trkpt>
<trkpt lat="20.917711" lon="107.035019">
<ele>-22.921158</ele>
<time>2011-04-30T08:38:55Z</time>
<desc>lat.=20.917711, lon.=107.035019, Alt.=-22.921158m. Speed=9.396000m/h.</desc>
<speed>2.610000</speed>
</trkpt>
<trkpt lat="20.917814" lon="107.035088">
<ele>-21.406509</ele>
<time>2011-04-30T08:39:00Z</time>
<desc>lat.=20.917814, lon.=107.035088, Alt.=-21.406509m. Speed=10.116000m/h.</desc>
<speed>2.810000</speed>
</trkpt>
<trkpt lat="20.917912" lon="107.035156">
<ele>-20.461685</ele>
<time>2011-04-30T08:39:05Z</time>
<desc>lat.=20.917912, lon.=107.035156, Alt.=-20.461685m. Speed=9.504000m/h.</desc>
<speed>2.640000</speed>
</trkpt>
<trkpt lat="20.918015" lon="107.035225">
<ele>-18.877213</ele>
<time>2011-04-30T08:39:10Z</time>
<desc>lat.=20.918015, lon.=107.035225, Alt.=-18.877213m. Speed=9.396000m/h.</desc>
<speed>2.610000</speed>
</trkpt>
<trkpt lat="20.918114" lon="107.035294">
<ele>-18.117935</ele>
<time>2011-04-30T08:39:15Z</time>
<desc>lat.=20.918114, lon.=107.035294, Alt.=-18.117935m. Speed=9.612000m/h.</desc>
<speed>2.670000</speed>
</trkpt>
<trkpt lat="20.918217" lon="107.035362">
<ele>-18.183365</ele>
<time>2011-04-30T08:39:20Z</time>
<desc>lat.=20.918217, lon.=107.035362, Alt.=-18.183365m. Speed=9.360000m/h.</desc>
<speed>2.600000</speed>
</trkpt>
<trkpt lat="20.918322" lon="107.035423">
<ele>-18.831802</ele>
<time>2011-04-30T08:39:25Z</time>
<desc>lat.=20.918322, lon.=107.035423, Alt.=-18.831802m. Speed=9.504000m/h.</desc>
<speed>2.640000</speed>
</trkpt>
<trkpt lat="20.918421" lon="107.035492">
<ele>-18.412857</ele>
<time>2011-04-30T08:39:30Z</time>
<desc>lat.=20.918421, lon.=107.035492, Alt.=-18.412857m. Speed=9.396000m/h.</desc>
<speed>2.610000</speed>
</trkpt>
<trkpt lat="20.918526" lon="107.035561">
<ele>-17.434341</ele>
<time>2011-04-30T08:39:35Z</time>
<desc>lat.=20.918526, lon.=107.035561, Alt.=-17.434341m. Speed=9.540000m/h.</desc>
<speed>2.650000</speed>
</trkpt>
<trkpt lat="20.918627" lon="107.035614">
<ele>-18.815689</ele>
<time>2011-04-30T08:39:40Z</time>
<desc>lat.=20.918627, lon.=107.035614, Alt.=-18.815689m. Speed=9.396000m/h.</desc>
<speed>2.610000</speed>
</trkpt>
<trkpt lat="20.918732" lon="107.035675">
<ele>-18.943130</ele>
<time>2011-04-30T08:39:45Z</time>
<desc>lat.=20.918732, lon.=107.035675, Alt.=-18.943130m. Speed=9.468000m/h.</desc>
<speed>2.630000</speed>
</trkpt>
<trkpt lat="20.918840" lon="107.035736">
<ele>-17.512466</ele>
<time>2011-04-30T08:39:50Z</time>
<desc>lat.=20.918840, lon.=107.035736, Alt.=-17.512466m. Speed=9.504000m/h.</desc>
<speed>2.640000</speed>
</trkpt>
<trkpt lat="20.918943" lon="107.035797">
<ele>-17.155045</ele>
<time>2011-04-30T08:39:55Z</time>
<desc>lat.=20.918943, lon.=107.035797, Alt.=-17.155045m. Speed=9.576000m/h.</desc>
<speed>2.660000</speed>
</trkpt>
<trkpt lat="20.919048" lon="107.035851">
<ele>-16.669205</ele>
<time>2011-04-30T08:40:00Z</time>
<desc>lat.=20.919048, lon.=107.035851, Alt.=-16.669205m. Speed=9.504000m/h.</desc>
<speed>2.640000</speed>
</trkpt>
<trkpt lat="20.919153" lon="107.035912">
<ele>-15.708138</ele>
<time>2011-04-30T08:40:05Z</time>
<desc>lat.=20.919153, lon.=107.035912, Alt.=-15.708138m. Speed=9.324000m/h.</desc>
<speed>2.590000</speed>
</trkpt>
<trkpt lat="20.919250" lon="107.035965">
<ele>-15.973274</ele>
<time>2011-04-30T08:40:10Z</time>
<desc>lat.=20.919250, lon.=107.035965, Alt.=-15.973274m. Speed=9.396000m/h.</desc>
<speed>2.610000</speed>
</trkpt>
<trkpt lat="20.919346" lon="107.036018">
<ele>-15.316780</ele>
<time>2011-04-30T08:40:15Z</time>
<desc>lat.=20.919346, lon.=107.036018, Alt.=-15.316780m. Speed=9.180000m/h.</desc>
<speed>2.550000</speed>
</trkpt>
<trkpt lat="20.919447" lon="107.036087">
<ele>-15.061897</ele>
<time>2011-04-30T08:40:20Z</time>
<desc>lat.=20.919447, lon.=107.036087, Alt.=-15.061897m. Speed=9.432000m/h.</desc>
<speed>2.620000</speed>
</trkpt>
<trkpt lat="20.919550" lon="107.036163">
<ele>-15.462044</ele>
<time>2011-04-30T08:40:25Z</time>
<desc>lat.=20.919550, lon.=107.036163, Alt.=-15.462044m. Speed=9.468000m/h.</desc>
<speed>2.630000</speed>
</trkpt>
<trkpt lat="20.919647" lon="107.036240">
<ele>-16.793228</ele>
<time>2011-04-30T08:40:30Z</time>
<desc>lat.=20.919647, lon.=107.036240, Alt.=-16.793228m. Speed=9.540000m/h.</desc>
<speed>2.650000</speed>
</trkpt>
<trkpt lat="20.919750" lon="107.036301">
<ele>-18.835220</ele>
<time>2011-04-30T08:40:35Z</time>
<desc>lat.=20.919750, lon.=107.036301, Alt.=-18.835220m. Speed=9.540000m/h.</desc>
<speed>2.650000</speed>
</trkpt>
<trkpt lat="20.919859" lon="107.036369">
<ele>-19.776627</ele>
<time>2011-04-30T08:40:40Z</time>
<desc>lat.=20.919859, lon.=107.036369, Alt.=-19.776627m. Speed=9.648000m/h.</desc>
<speed>2.680000</speed>
</trkpt>
<trkpt lat="20.919962" lon="107.036438">
<ele>-19.428482</ele>
<time>2011-04-30T08:40:45Z</time>
<desc>lat.=20.919962, lon.=107.036438, Alt.=-19.428482m. Speed=9.576000m/h.</desc>
<speed>2.660000</speed>
</trkpt>
<trkpt lat="20.920065" lon="107.036499">
<ele>-19.014908</ele>
<time>2011-04-30T08:40:50Z</time>
<desc>lat.=20.920065, lon.=107.036499, Alt.=-19.014908m. Speed=9.468000m/h.</desc>
<speed>2.630000</speed>
</trkpt>
<trkpt lat="20.920172" lon="107.036560">
<ele>-19.162369</ele>
<time>2011-04-30T08:40:55Z</time>
<desc>lat.=20.920172, lon.=107.036560, Alt.=-19.162369m. Speed=9.540000m/h.</desc>
<speed>2.650000</speed>
</trkpt>
<trkpt lat="20.920277" lon="107.036621">
<ele>-19.299088</ele>
<time>2011-04-30T08:41:00Z</time>
<desc>lat.=20.920277, lon.=107.036621, Alt.=-19.299088m. Speed=9.612000m/h.</desc>
<speed>2.670000</speed>
</trkpt>
<trkpt lat="20.920387" lon="107.036690">
<ele>-18.992447</ele>
<time>2011-04-30T08:41:05Z</time>
<desc>lat.=20.920387, lon.=107.036690, Alt.=-18.992447m. Speed=9.684000m/h.</desc>
<speed>2.690000</speed>
</trkpt>
<trkpt lat="20.920490" lon="107.036751">
<ele>-18.191177</ele>
<time>2011-04-30T08:41:10Z</time>
<desc>lat.=20.920490, lon.=107.036751, Alt.=-18.191177m. Speed=9.576000m/h.</desc>
<speed>2.660000</speed>
</trkpt>
<trkpt lat="20.920589" lon="107.036819">
<ele>-18.741470</ele>
<time>2011-04-30T08:41:15Z</time>
<desc>lat.=20.920589, lon.=107.036819, Alt.=-18.741470m. Speed=9.612000m/h.</desc>
<speed>2.670000</speed>
</trkpt>
<trkpt lat="20.920694" lon="107.036880">
<ele>-18.656021</ele>
<time>2011-04-30T08:41:20Z</time>
<desc>lat.=20.920694, lon.=107.036880, Alt.=-18.656021m. Speed=9.504000m/h.</desc>
<speed>2.640000</speed>
</trkpt>
<trkpt lat="20.920799" lon="107.036949">
<ele>-18.337173</ele>
<time>2011-04-30T08:41:25Z</time>
<desc>lat.=20.920799, lon.=107.036949, Alt.=-18.337173m. Speed=9.720000m/h.</desc>
<speed>2.700000</speed>
</trkpt>
<trkpt lat="20.920895" lon="107.037025">
<ele>-18.819107</ele>
<time>2011-04-30T08:41:30Z</time>
<desc>lat.=20.920895, lon.=107.037025, Alt.=-18.819107m. Speed=9.612000m/h.</desc>
<speed>2.670000</speed>
</trkpt>
<trkpt lat="20.920992" lon="107.037102">
<ele>-18.849380</ele>
<time>2011-04-30T08:41:35Z</time>
<desc>lat.=20.920992, lon.=107.037102, Alt.=-18.849380m. Speed=9.684000m/h.</desc>
<speed>2.690000</speed>
</trkpt>
<trkpt lat="20.921089" lon="107.037170">
<ele>-18.753189</ele>
<time>2011-04-30T08:41:40Z</time>
<desc>lat.=20.921089, lon.=107.037170, Alt.=-18.753189m. Speed=9.720000m/h.</desc>
<speed>2.700000</speed>
</trkpt>
<trkpt lat="20.921190" lon="107.037247">
<ele>-18.511002</ele>
<time>2011-04-30T08:41:45Z</time>
<desc>lat.=20.921190, lon.=107.037247, Alt.=-18.511002m. Speed=9.756000m/h.</desc>
<speed>2.710000</speed>
</trkpt>
<trkpt lat="20.921293" lon="107.037315">
<ele>-18.077896</ele>
<time>2011-04-30T08:41:50Z</time>
<desc>lat.=20.921293, lon.=107.037315, Alt.=-18.077896m. Speed=9.864000m/h.</desc>
<speed>2.740000</speed>
</trkpt>
<trkpt lat="20.921400" lon="107.037392">
<ele>-18.035904</ele>
<time>2011-04-30T08:41:55Z</time>
<desc>lat.=20.921400, lon.=107.037392, Alt.=-18.035904m. Speed=9.864000m/h.</desc>
<speed>2.740000</speed>
</trkpt>
<trkpt lat="20.921505" lon="107.037460">
<ele>-17.427017</ele>
<time>2011-04-30T08:42:00Z</time>
<desc>lat.=20.921505, lon.=107.037460, Alt.=-17.427017m. Speed=9.684000m/h.</desc>
<speed>2.690000</speed>
</trkpt>
<trkpt lat="20.921614" lon="107.037529">
<ele>-18.190689</ele>
<time>2011-04-30T08:42:05Z</time>
<desc>lat.=20.921614, lon.=107.037529, Alt.=-18.190689m. Speed=9.864000m/h.</desc>
<speed>2.740000</speed>
</trkpt>
<trkpt lat="20.921717" lon="107.037598">
<ele>-18.085220</ele>
<time>2011-04-30T08:42:10Z</time>
<desc>lat.=20.921717, lon.=107.037598, Alt.=-18.085220m. Speed=9.864000m/h.</desc>
<speed>2.740000</speed>
</trkpt>
<trkpt lat="20.921825" lon="107.037659">
<ele>-19.163345</ele>
<time>2011-04-30T08:42:15Z</time>
<desc>lat.=20.921825, lon.=107.037659, Alt.=-19.163345m. Speed=9.828000m/h.</desc>
<speed>2.730000</speed>
</trkpt>
<trkpt lat="20.921934" lon="107.037720">
<ele>-19.493912</ele>
<time>2011-04-30T08:42:20Z</time>
<desc>lat.=20.921934, lon.=107.037720, Alt.=-19.493912m. Speed=9.720000m/h.</desc>
<speed>2.700000</speed>
</trkpt>
<trkpt lat="20.922039" lon="107.037781">
<ele>-19.156021</ele>
<time>2011-04-30T08:42:25Z</time>
<desc>lat.=20.922039, lon.=107.037781, Alt.=-19.156021m. Speed=9.792000m/h.</desc>
<speed>2.720000</speed>
</trkpt>
<trkpt lat="20.922140" lon="107.037849">
<ele>-20.430923</ele>
<time>2011-04-30T08:42:30Z</time>
<desc>lat.=20.922140, lon.=107.037849, Alt.=-20.430923m. Speed=9.720000m/h.</desc>
<speed>2.700000</speed>
</trkpt>
<trkpt lat="20.922241" lon="107.037926">
<ele>-20.669693</ele>
<time>2011-04-30T08:42:35Z</time>
<desc>lat.=20.922241, lon.=107.037926, Alt.=-20.669693m. Speed=9.756000m/h.</desc>
<speed>2.710000</speed>
</trkpt>
<trkpt lat="20.922342" lon="107.038002">
<ele>-21.261490</ele>
<time>2011-04-30T08:42:40Z</time>
<desc>lat.=20.922342, lon.=107.038002, Alt.=-21.261490m. Speed=9.756000m/h.</desc>
<speed>2.710000</speed>
</trkpt>
<trkpt lat="20.922441" lon="107.038078">
<ele>-21.073502</ele>
<time>2011-04-30T08:42:45Z</time>
<desc>lat.=20.922441, lon.=107.038078, Alt.=-21.073502m. Speed=9.792000m/h.</desc>
<speed>2.720000</speed>
</trkpt>
<trkpt lat="20.922548" lon="107.038147">
<ele>-20.821548</ele>
<time>2011-04-30T08:42:50Z</time>
<desc>lat.=20.922548, lon.=107.038147, Alt.=-20.821548m. Speed=9.756000m/h.</desc>
<speed>2.710000</speed>
</trkpt>
<trkpt lat="20.922646" lon="107.038216">
<ele>-20.911392</ele>
<time>2011-04-30T08:42:55Z</time>
<desc>lat.=20.922646, lon.=107.038216, Alt.=-20.911392m. Speed=9.900000m/h.</desc>
<speed>2.750000</speed>
</trkpt>
<trkpt lat="20.922749" lon="107.038284">
<ele>-20.415787</ele>
<time>2011-04-30T08:43:00Z</time>
<desc>lat.=20.922749, lon.=107.038284, Alt.=-20.415787m. Speed=9.792000m/h.</desc>
<speed>2.720000</speed>
</trkpt>
<trkpt lat="20.922853" lon="107.038368">
<ele>-20.764908</ele>
<time>2011-04-30T08:43:05Z</time>
<desc>lat.=20.922853, lon.=107.038368, Alt.=-20.764908m. Speed=9.792000m/h.</desc>
<speed>2.720000</speed>
</trkpt>
<trkpt lat="20.922958" lon="107.038437">
<ele>-21.106705</ele>
<time>2011-04-30T08:43:10Z</time>
<desc>lat.=20.922958, lon.=107.038437, Alt.=-21.106705m. Speed=9.756000m/h.</desc>
<speed>2.710000</speed>
</trkpt>
<trkpt lat="20.923061" lon="107.038506">
<ele>-20.694595</ele>
<time>2011-04-30T08:43:15Z</time>
<desc>lat.=20.923061, lon.=107.038506, Alt.=-20.694595m. Speed=9.720000m/h.</desc>
<speed>2.700000</speed>
</trkpt>
<trkpt lat="20.923162" lon="107.038582">
<ele>-20.327408</ele>
<time>2011-04-30T08:43:20Z</time>
<desc>lat.=20.923162, lon.=107.038582, Alt.=-20.327408m. Speed=9.792000m/h.</desc>
<speed>2.720000</speed>
</trkpt>
<trkpt lat="20.923260" lon="107.038658">
<ele>-20.664810</ele>
<time>2011-04-30T08:43:25Z</time>
<desc>lat.=20.923260, lon.=107.038658, Alt.=-20.664810m. Speed=9.864000m/h.</desc>
<speed>2.740000</speed>
</trkpt>
<trkpt lat="20.923355" lon="107.038742">
<ele>-20.412369</ele>
<time>2011-04-30T08:43:30Z</time>
<desc>lat.=20.923355, lon.=107.038742, Alt.=-20.412369m. Speed=9.684000m/h.</desc>
<speed>2.690000</speed>
</trkpt>
<trkpt lat="20.923458" lon="107.038811">
<ele>-20.169205</ele>
<time>2011-04-30T08:43:35Z</time>
<desc>lat.=20.923458, lon.=107.038811, Alt.=-20.169205m. Speed=9.756000m/h.</desc>
<speed>2.710000</speed>
</trkpt>
<trkpt lat="20.923563" lon="107.038879">
<ele>-20.623795</ele>
<time>2011-04-30T08:43:40Z</time>
<desc>lat.=20.923563, lon.=107.038879, Alt.=-20.623795m. Speed=9.792000m/h.</desc>
<speed>2.720000</speed>
</trkpt>
<trkpt lat="20.923664" lon="107.038956">
<ele>-21.489029</ele>
<time>2011-04-30T08:43:45Z</time>
<desc>lat.=20.923664, lon.=107.038956, Alt.=-21.489029m. Speed=9.936000m/h.</desc>
<speed>2.760000</speed>
</trkpt>
<trkpt lat="20.923765" lon="107.039032">
<ele>-21.996841</ele>
<time>2011-04-30T08:43:50Z</time>
<desc>lat.=20.923765, lon.=107.039032, Alt.=-21.996841m. Speed=9.792000m/h.</desc>
<speed>2.720000</speed>
</trkpt>
<trkpt lat="20.923866" lon="107.039108">
<ele>-21.259537</ele>
<time>2011-04-30T08:43:55Z</time>
<desc>lat.=20.923866, lon.=107.039108, Alt.=-21.259537m. Speed=9.864000m/h.</desc>
<speed>2.740000</speed>
</trkpt>
<trkpt lat="20.923969" lon="107.039169">
<ele>-20.759048</ele>
<time>2011-04-30T08:44:00Z</time>
<desc>lat.=20.923969, lon.=107.039169, Alt.=-20.759048m. Speed=9.828000m/h.</desc>
<speed>2.730000</speed>
</trkpt>
<trkpt lat="20.924074" lon="107.039246">
<ele>-21.853775</ele>
<time>2011-04-30T08:44:05Z</time>
<desc>lat.=20.924074, lon.=107.039246, Alt.=-21.853775m. Speed=9.900000m/h.</desc>
<speed>2.750000</speed>
</trkpt>
<trkpt lat="20.924179" lon="107.039307">
<ele>-21.544205</ele>
<time>2011-04-30T08:44:10Z</time>
<desc>lat.=20.924179, lon.=107.039307, Alt.=-21.544205m. Speed=9.792000m/h.</desc>
<speed>2.720000</speed>
</trkpt>
<trkpt lat="20.924288" lon="107.039375">
<ele>-20.498306</ele>
<time>2011-04-30T08:44:15Z</time>
<desc>lat.=20.924288, lon.=107.039375, Alt.=-20.498306m. Speed=9.864000m/h.</desc>
<speed>2.740000</speed>
</trkpt>
<trkpt lat="20.924391" lon="107.039452">
<ele>-20.801041</ele>
<time>2011-04-30T08:44:20Z</time>
<desc>lat.=20.924391, lon.=107.039452, Alt.=-20.801041m. Speed=9.828000m/h.</desc>
<speed>2.730000</speed>
</trkpt>
<trkpt lat="20.924490" lon="107.039528">
<ele>-21.049576</ele>
<time>2011-04-30T08:44:25Z</time>
<desc>lat.=20.924490, lon.=107.039528, Alt.=-21.049576m. Speed=9.864000m/h.</desc>
<speed>2.740000</speed>
</trkpt>
<trkpt lat="20.924599" lon="107.039597">
<ele>-20.812759</ele>
<time>2011-04-30T08:44:30Z</time>
<desc>lat.=20.924599, lon.=107.039597, Alt.=-20.812759m. Speed=9.900000m/h.</desc>
<speed>2.750000</speed>
</trkpt>
<trkpt lat="20.924702" lon="107.039673">
<ele>-19.591568</ele>
<time>2011-04-30T08:44:35Z</time>
<desc>lat.=20.924702, lon.=107.039673, Alt.=-19.591568m. Speed=9.828000m/h.</desc>
<speed>2.730000</speed>
</trkpt>
<trkpt lat="20.924807" lon="107.039742">
<ele>-18.958755</ele>
<time>2011-04-30T08:44:40Z</time>
<desc>lat.=20.924807, lon.=107.039742, Alt.=-18.958755m. Speed=10.044000m/h.</desc>
<speed>2.790000</speed>
</trkpt>
<trkpt lat="20.924911" lon="107.039818">
<ele>-19.880630</ele>
<time>2011-04-30T08:44:45Z</time>
<desc>lat.=20.924911, lon.=107.039818, Alt.=-19.880630m. Speed=10.116000m/h.</desc>
<speed>2.810000</speed>
</trkpt>
<trkpt lat="20.925020" lon="107.039886">
<ele>-19.109146</ele>
<time>2011-04-30T08:44:50Z</time>
<desc>lat.=20.925020, lon.=107.039886, Alt.=-19.109146m. Speed=9.972000m/h.</desc>
<speed>2.770000</speed>
</trkpt>
<trkpt lat="20.925125" lon="107.039955">
<ele>-19.967545</ele>
<time>2011-04-30T08:44:55Z</time>
<desc>lat.=20.925125, lon.=107.039955, Alt.=-19.967545m. Speed=9.828000m/h.</desc>
<speed>2.730000</speed>
</trkpt>
<trkpt lat="20.925234" lon="107.040016">
<ele>-17.976334</ele>
<time>2011-04-30T08:45:00Z</time>
<desc>lat.=20.925234, lon.=107.040016, Alt.=-17.976334m. Speed=9.900000m/h.</desc>
<speed>2.750000</speed>
</trkpt>
<trkpt lat="20.925350" lon="107.040070">
<ele>-16.114029</ele>
<time>2011-04-30T08:45:05Z</time>
<desc>lat.=20.925350, lon.=107.040070, Alt.=-16.114029m. Speed=9.972000m/h.</desc>
<speed>2.770000</speed>
</trkpt>
<trkpt lat="20.925465" lon="107.040123">
<ele>-14.654427</ele>
<time>2011-04-30T08:45:10Z</time>
<desc>lat.=20.925465, lon.=107.040123, Alt.=-14.654427m. Speed=9.936000m/h.</desc>
<speed>2.760000</speed>
</trkpt>
<trkpt lat="20.925577" lon="107.040176">
<ele>-12.997688</ele>
<time>2011-04-30T08:45:15Z</time>
<desc>lat.=20.925577, lon.=107.040176, Alt.=-12.997688m. Speed=9.828000m/h.</desc>
<speed>2.730000</speed>
</trkpt>
<trkpt lat="20.925692" lon="107.040230">
<ele>-12.626595</ele>
<time>2011-04-30T08:45:20Z</time>
<desc>lat.=20.925692, lon.=107.040230, Alt.=-12.626595m. Speed=9.900000m/h.</desc>
<speed>2.750000</speed>
</trkpt>
<trkpt lat="20.925804" lon="107.040283">
<ele>-10.425911</ele>
<time>2011-04-30T08:45:25Z</time>
<desc>lat.=20.925804, lon.=107.040283, Alt.=-10.425911m. Speed=9.900000m/h.</desc>
<speed>2.750000</speed>
</trkpt>
<trkpt lat="20.925919" lon="107.040337">
<ele>-11.337288</ele>
<time>2011-04-30T08:45:30Z</time>
<desc>lat.=20.925919, lon.=107.040337, Alt.=-11.337288m. Speed=9.972000m/h.</desc>
<speed>2.770000</speed>
</trkpt>
<trkpt lat="20.926035" lon="107.040398">
<ele>-11.920296</ele>
<time>2011-04-30T08:45:35Z</time>
<desc>lat.=20.926035, lon.=107.040398, Alt.=-11.920296m. Speed=10.044000m/h.</desc>
<speed>2.790000</speed>
</trkpt>
<trkpt lat="20.926147" lon="107.040451">
<ele>-14.571419</ele>
<time>2011-04-30T08:45:40Z</time>
<desc>lat.=20.926147, lon.=107.040451, Alt.=-14.571419m. Speed=10.080000m/h.</desc>
<speed>2.800000</speed>
</trkpt>
<trkpt lat="20.926258" lon="107.040512">
<ele>-14.945930</ele>
<time>2011-04-30T08:45:45Z</time>
<desc>lat.=20.926258, lon.=107.040512, Alt.=-14.945930m. Speed=10.080000m/h.</desc>
<speed>2.800000</speed>
</trkpt>
<trkpt lat="20.926365" lon="107.040573">
<ele>-14.282356</ele>
<time>2011-04-30T08:45:50Z</time>
<desc>lat.=20.926365, lon.=107.040573, Alt.=-14.282356m. Speed=10.008000m/h.</desc>
<speed>2.780000</speed>
</trkpt>
<trkpt lat="20.926479" lon="107.040634">
<ele>-15.054329</ele>
<time>2011-04-30T08:45:55Z</time>
<desc>lat.=20.926479, lon.=107.040634, Alt.=-15.054329m. Speed=10.044000m/h.</desc>
<speed>2.790000</speed>
</trkpt>
<trkpt lat="20.926588" lon="107.040688">
<ele>-14.468391</ele>
<time>2011-04-30T08:46:00Z</time>
<desc>lat.=20.926588, lon.=107.040688, Alt.=-14.468391m. Speed=9.936000m/h.</desc>
<speed>2.760000</speed>
</trkpt>
<trkpt lat="20.926699" lon="107.040756">
<ele>-14.874641</ele>
<time>2011-04-30T08:46:05Z</time>
<desc>lat.=20.926699, lon.=107.040756, Alt.=-14.874641m. Speed=10.044000m/h.</desc>
<speed>2.790000</speed>
</trkpt>
<trkpt lat="20.926807" lon="107.040817">
<ele>-14.601692</ele>
<time>2011-04-30T08:46:10Z</time>
<desc>lat.=20.926807, lon.=107.040817, Alt.=-14.601692m. Speed=9.972000m/h.</desc>
<speed>2.770000</speed>
</trkpt>
<trkpt lat="20.926910" lon="107.040894">
<ele>-15.693245</ele>
<time>2011-04-30T08:46:15Z</time>
<desc>lat.=20.926910, lon.=107.040894, Alt.=-15.693245m. Speed=10.008000m/h.</desc>
<speed>2.780000</speed>
</trkpt>
<trkpt lat="20.927013" lon="107.040970">
<ele>-15.647835</ele>
<time>2011-04-30T08:46:20Z</time>
<desc>lat.=20.927013, lon.=107.040970, Alt.=-15.647835m. Speed=10.080000m/h.</desc>
<speed>2.800000</speed>
</trkpt>
<trkpt lat="20.927118" lon="107.041039">
<ele>-16.178970</ele>
<time>2011-04-30T08:46:25Z</time>
<desc>lat.=20.927118, lon.=107.041039, Alt.=-16.178970m. Speed=9.900000m/h.</desc>
<speed>2.750000</speed>
</trkpt>
<trkpt lat="20.927217" lon="107.041115">
<ele>-16.667740</ele>
<time>2011-04-30T08:46:30Z</time>
<desc>lat.=20.927217, lon.=107.041115, Alt.=-16.667740m. Speed=9.900000m/h.</desc>
<speed>2.750000</speed>
</trkpt>
<trkpt lat="20.927319" lon="107.041199">
<ele>-17.027603</ele>
<time>2011-04-30T08:46:35Z</time>
<desc>lat.=20.927319, lon.=107.041199, Alt.=-17.027603m. Speed=10.116000m/h.</desc>
<speed>2.810000</speed>
</trkpt>
<trkpt lat="20.927423" lon="107.041275">
<ele>-17.643814</ele>
<time>2011-04-30T08:46:40Z</time>
<desc>lat.=20.927423, lon.=107.041275, Alt.=-17.643814m. Speed=10.008000m/h.</desc>
<speed>2.780000</speed>
</trkpt>
<trkpt lat="20.927528" lon="107.041344">
<ele>-17.399185</ele>
<time>2011-04-30T08:46:45Z</time>
<desc>lat.=20.927528, lon.=107.041344, Alt.=-17.399185m. Speed=9.864000m/h.</desc>
<speed>2.740000</speed>
</trkpt>
<trkpt lat="20.927631" lon="107.041420">
<ele>-17.844986</ele>
<time>2011-04-30T08:46:50Z</time>
<desc>lat.=20.927631, lon.=107.041420, Alt.=-17.844986m. Speed=9.972000m/h.</desc>
<speed>2.770000</speed>
</trkpt>
<trkpt lat="20.927736" lon="107.041489">
<ele>-17.945084</ele>
<time>2011-04-30T08:46:55Z</time>
<desc>lat.=20.927736, lon.=107.041489, Alt.=-17.945084m. Speed=9.792000m/h.</desc>
<speed>2.720000</speed>
</trkpt>
<trkpt lat="20.927853" lon="107.041542">
<ele>-16.853775</ele>
<time>2011-04-30T08:47:00Z</time>
<desc>lat.=20.927853, lon.=107.041542, Alt.=-16.853775m. Speed=9.936000m/h.</desc>
<speed>2.760000</speed>
</trkpt>
<trkpt lat="20.927963" lon="107.041603">
<ele>-16.122330</ele>
<time>2011-04-30T08:47:05Z</time>
<desc>lat.=20.927963, lon.=107.041603, Alt.=-16.122330m. Speed=9.900000m/h.</desc>
<speed>2.750000</speed>
</trkpt>
<trkpt lat="20.928070" lon="107.041664">
<ele>-16.518326</ele>
<time>2011-04-30T08:47:10Z</time>
<desc>lat.=20.928070, lon.=107.041664, Alt.=-16.518326m. Speed=9.936000m/h.</desc>
<speed>2.760000</speed>
</trkpt>
<trkpt lat="20.928181" lon="107.041718">
<ele>-14.829964</ele>
<time>2011-04-30T08:47:15Z</time>
<desc>lat.=20.928181, lon.=107.041718, Alt.=-14.829964m. Speed=9.828000m/h.</desc>
<speed>2.730000</speed>
</trkpt>
<trkpt lat="20.928288" lon="107.041779">
<ele>-14.729622</ele>
<time>2011-04-30T08:47:20Z</time>
<desc>lat.=20.928288, lon.=107.041779, Alt.=-14.729622m. Speed=9.864000m/h.</desc>
<speed>2.740000</speed>
</trkpt>
<trkpt lat="20.928404" lon="107.041840">
<ele>-14.062630</ele>
<time>2011-04-30T08:47:25Z</time>
<desc>lat.=20.928404, lon.=107.041840, Alt.=-14.062630m. Speed=9.828000m/h.</desc>
<speed>2.730000</speed>
</trkpt>
<trkpt lat="20.928511" lon="107.041893">
<ele>-13.864632</ele>
<time>2011-04-30T08:47:30Z</time>
<desc>lat.=20.928511, lon.=107.041893, Alt.=-13.864632m. Speed=9.864000m/h.</desc>
<speed>2.740000</speed>
</trkpt>
<trkpt lat="20.928616" lon="107.041954">
<ele>-13.227425</ele>
<time>2011-04-30T08:47:35Z</time>
<desc>lat.=20.928616, lon.=107.041954, Alt.=-13.227425m. Speed=9.756000m/h.</desc>
<speed>2.710000</speed>
</trkpt>
<trkpt lat="20.928726" lon="107.042015">
<ele>-12.977425</ele>
<time>2011-04-30T08:47:40Z</time>
<desc>lat.=20.928726, lon.=107.042015, Alt.=-12.977425m. Speed=9.792000m/h.</desc>
<speed>2.720000</speed>
</trkpt>
<trkpt lat="20.928835" lon="107.042076">
<ele>-13.583626</ele>
<time>2011-04-30T08:47:45Z</time>
<desc>lat.=20.928835, lon.=107.042076, Alt.=-13.583626m. Speed=9.828000m/h.</desc>
<speed>2.730000</speed>
</trkpt>
<trkpt lat="20.928944" lon="107.042137">
<ele>-12.591927</ele>
<time>2011-04-30T08:47:50Z</time>
<desc>lat.=20.928944, lon.=107.042137, Alt.=-12.591927m. Speed=9.792000m/h.</desc>
<speed>2.720000</speed>
</trkpt>
<trkpt lat="20.929050" lon="107.042198">
<ele>-13.152718</ele>
<time>2011-04-30T08:47:55Z</time>
<desc>lat.=20.929050, lon.=107.042198, Alt.=-13.152718m. Speed=9.756000m/h.</desc>
<speed>2.710000</speed>
</trkpt>
<trkpt lat="20.929161" lon="107.042252">
<ele>-13.549690</ele>
<time>2011-04-30T08:48:00Z</time>
<desc>lat.=20.929161, lon.=107.042252, Alt.=-13.549690m. Speed=9.828000m/h.</desc>
<speed>2.730000</speed>
</trkpt>
<trkpt lat="20.929272" lon="107.042320">
<ele>-13.012093</ele>
<time>2011-04-30T08:48:05Z</time>
<desc>lat.=20.929272, lon.=107.042320, Alt.=-13.012093m. Speed=9.828000m/h.</desc>
<speed>2.730000</speed>
</trkpt>
<trkpt lat="20.929380" lon="107.042381">
<ele>-13.436897</ele>
<time>2011-04-30T08:48:10Z</time>
<desc>lat.=20.929380, lon.=107.042381, Alt.=-13.436897m. Speed=9.900000m/h.</desc>
<speed>2.750000</speed>
</trkpt>
<trkpt lat="20.929485" lon="107.042450">
<ele>-14.007454</ele>
<time>2011-04-30T08:48:15Z</time>
<desc>lat.=20.929485, lon.=107.042450, Alt.=-14.007454m. Speed=9.828000m/h.</desc>
<speed>2.730000</speed>
</trkpt>
<trkpt lat="20.929592" lon="107.042511">
<ele>-14.986458</ele>
<time>2011-04-30T08:48:20Z</time>
<desc>lat.=20.929592, lon.=107.042511, Alt.=-14.986458m. Speed=9.864000m/h.</desc>
<speed>2.740000</speed>
</trkpt>
<trkpt lat="20.929688" lon="107.042587">
<ele>-16.327408</ele>
<time>2011-04-30T08:48:25Z</time>
<desc>lat.=20.929688, lon.=107.042587, Alt.=-16.327408m. Speed=9.720000m/h.</desc>
<speed>2.700000</speed>
</trkpt>
<trkpt lat="20.929789" lon="107.042664">
<ele>-17.237076</ele>
<time>2011-04-30T08:48:30Z</time>
<desc>lat.=20.929789, lon.=107.042664, Alt.=-17.237076m. Speed=9.756000m/h.</desc>
<speed>2.710000</speed>
</trkpt>
<trkpt lat="20.929892" lon="107.042732">
<ele>-18.124283</ele>
<time>2011-04-30T08:48:35Z</time>
<desc>lat.=20.929892, lon.=107.042732, Alt.=-18.124283m. Speed=9.900000m/h.</desc>
<speed>2.750000</speed>
</trkpt>
<trkpt lat="20.929995" lon="107.042801">
<ele>-19.473892</ele>
<time>2011-04-30T08:48:40Z</time>
<desc>lat.=20.929995, lon.=107.042801, Alt.=-19.473892m. Speed=9.900000m/h.</desc>
<speed>2.750000</speed>
</trkpt>
<trkpt lat="20.930107" lon="107.042870">
<ele>-19.371353</ele>
<time>2011-04-30T08:48:45Z</time>
<desc>lat.=20.930107, lon.=107.042870, Alt.=-19.371353m. Speed=9.936000m/h.</desc>
<speed>2.760000</speed>
</trkpt>
<trkpt lat="20.930223" lon="107.042931">
<ele>-18.319595</ele>
<time>2011-04-30T08:48:50Z</time>
<desc>lat.=20.930223, lon.=107.042931, Alt.=-18.319595m. Speed=9.792000m/h.</desc>
<speed>2.720000</speed>
</trkpt>
<trkpt lat="20.930342" lon="107.042984">
<ele>-17.779068</ele>
<time>2011-04-30T08:48:55Z</time>
<desc>lat.=20.930342, lon.=107.042984, Alt.=-17.779068m. Speed=9.972000m/h.</desc>
<speed>2.770000</speed>
</trkpt>
<trkpt lat="20.930450" lon="107.043045">
<ele>-17.209732</ele>
<time>2011-04-30T08:49:00Z</time>
<desc>lat.=20.930450, lon.=107.043045, Alt.=-17.209732m. Speed=9.900000m/h.</desc>
<speed>2.750000</speed>
</trkpt>
<trkpt lat="20.930561" lon="107.043106">
<ele>-16.187271</ele>
<time>2011-04-30T08:49:05Z</time>
<desc>lat.=20.930561, lon.=107.043106, Alt.=-16.187271m. Speed=9.756000m/h.</desc>
<speed>2.710000</speed>
</trkpt>
<trkpt lat="20.930668" lon="107.043159">
<ele>-15.133186</ele>
<time>2011-04-30T08:49:10Z</time>
<desc>lat.=20.930668, lon.=107.043159, Alt.=-15.133186m. Speed=9.612000m/h.</desc>
<speed>2.670000</speed>
</trkpt>
<trkpt lat="20.930777" lon="107.043221">
<ele>-15.359505</ele>
<time>2011-04-30T08:49:15Z</time>
<desc>lat.=20.930777, lon.=107.043221, Alt.=-15.359505m. Speed=9.612000m/h.</desc>
<speed>2.670000</speed>
</trkpt>
<trkpt lat="20.930885" lon="107.043289">
<ele>-15.029182</ele>
<time>2011-04-30T08:49:20Z</time>
<desc>lat.=20.930885, lon.=107.043289, Alt.=-15.029182m. Speed=9.540000m/h.</desc>
<speed>2.650000</speed>
</trkpt>
<trkpt lat="20.930994" lon="107.043350">
<ele>-14.302864</ele>
<time>2011-04-30T08:49:25Z</time>
<desc>lat.=20.930994, lon.=107.043350, Alt.=-14.302864m. Speed=9.612000m/h.</desc>
<speed>2.670000</speed>
</trkpt>
<trkpt lat="20.931095" lon="107.043411">
<ele>-16.081314</ele>
<time>2011-04-30T08:49:30Z</time>
<desc>lat.=20.931095, lon.=107.043411, Alt.=-16.081314m. Speed=9.612000m/h.</desc>
<speed>2.670000</speed>
</trkpt>
<trkpt lat="20.931198" lon="107.043480">
<ele>-15.971809</ele>
<time>2011-04-30T08:49:35Z</time>
<desc>lat.=20.931198, lon.=107.043480, Alt.=-15.971809m. Speed=9.648000m/h.</desc>
<speed>2.680000</speed>
</trkpt>
<trkpt lat="20.931297" lon="107.043549">
<ele>-16.603775</ele>
<time>2011-04-30T08:49:40Z</time>
<desc>lat.=20.931297, lon.=107.043549, Alt.=-16.603775m. Speed=9.684000m/h.</desc>
<speed>2.690000</speed>
</trkpt>
<trkpt lat="20.931400" lon="107.043617">
<ele>-17.758560</ele>
<time>2011-04-30T08:49:45Z</time>
<desc>lat.=20.931400, lon.=107.043617, Alt.=-17.758560m. Speed=9.540000m/h.</desc>
<speed>2.650000</speed>
</trkpt>
<trkpt lat="20.931505" lon="107.043686">
<ele>-18.884537</ele>
<time>2011-04-30T08:49:50Z</time>
<desc>lat.=20.931505, lon.=107.043686, Alt.=-18.884537m. Speed=9.576000m/h.</desc>
<speed>2.660000</speed>
</trkpt>
<trkpt lat="20.931602" lon="107.043747">
<ele>-20.417252</ele>
<time>2011-04-30T08:49:55Z</time>
<desc>lat.=20.931602, lon.=107.043747, Alt.=-20.417252m. Speed=9.612000m/h.</desc>
<speed>2.670000</speed>
</trkpt>
<trkpt lat="20.931705" lon="107.043816">
<ele>-20.417252</ele>
<time>2011-04-30T08:50:00Z</time>
<desc>lat.=20.931705, lon.=107.043816, Alt.=-20.417252m. Speed=9.576000m/h.</desc>
<speed>2.660000</speed>
</trkpt>
<trkpt lat="20.931805" lon="107.043877">
<ele>-20.533463</ele>
<time>2011-04-30T08:50:05Z</time>
<desc>lat.=20.931805, lon.=107.043877, Alt.=-20.533463m. Speed=9.576000m/h.</desc>
<speed>2.660000</speed>
</trkpt>
<trkpt lat="20.931906" lon="107.043938">
<ele>-20.654556</ele>
<time>2011-04-30T08:50:10Z</time>
<desc>lat.=20.931906, lon.=107.043938, Alt.=-20.654556m. Speed=9.576000m/h.</desc>
<speed>2.660000</speed>
</trkpt>
<trkpt lat="20.932011" lon="107.044006">
<ele>-20.172623</ele>
<time>2011-04-30T08:50:15Z</time>
<desc>lat.=20.932011, lon.=107.044006, Alt.=-20.172623m. Speed=9.720000m/h.</desc>
<speed>2.700000</speed>
</trkpt>
<trkpt lat="20.932117" lon="107.044067">
<ele>-20.041275</ele>
<time>2011-04-30T08:50:20Z</time>
<desc>lat.=20.932117, lon.=107.044067, Alt.=-20.041275m. Speed=9.540000m/h.</desc>
<speed>2.650000</speed>
</trkpt>
<trkpt lat="20.932222" lon="107.044136">
<ele>-18.814224</ele>
<time>2011-04-30T08:50:25Z</time>
<desc>lat.=20.932222, lon.=107.044136, Alt.=-18.814224m. Speed=9.576000m/h.</desc>
<speed>2.660000</speed>
</trkpt>
<trkpt lat="20.932320" lon="107.044197">
<ele>-19.022232</ele>
<time>2011-04-30T08:50:30Z</time>
<desc>lat.=20.932320, lon.=107.044197, Alt.=-19.022232m. Speed=9.720000m/h.</desc>
<speed>2.700000</speed>
</trkpt>
<trkpt lat="20.932428" lon="107.044258">
<ele>-18.202896</ele>
<time>2011-04-30T08:50:35Z</time>
<desc>lat.=20.932428, lon.=107.044258, Alt.=-18.202896m. Speed=9.900000m/h.</desc>
<speed>2.750000</speed>
</trkpt>
<trkpt lat="20.932533" lon="107.044319">
<ele>-18.350845</ele>
<time>2011-04-30T08:50:40Z</time>
<desc>lat.=20.932533, lon.=107.044319, Alt.=-18.350845m. Speed=9.504000m/h.</desc>
<speed>2.640000</speed>
</trkpt>
<trkpt lat="20.932638" lon="107.044388">
<ele>-18.982193</ele>
<time>2011-04-30T08:50:45Z</time>
<desc>lat.=20.932638, lon.=107.044388, Alt.=-18.982193m. Speed=9.468000m/h.</desc>
<speed>2.630000</speed>
</trkpt>
<trkpt lat="20.932737" lon="107.044456">
<ele>-19.061783</ele>
<time>2011-04-30T08:50:50Z</time>
<desc>lat.=20.932737, lon.=107.044456, Alt.=-19.061783m. Speed=9.396000m/h.</desc>
<speed>2.610000</speed>
</trkpt>
<trkpt lat="20.932840" lon="107.044518">
<ele>-19.144791</ele>
<time>2011-04-30T08:50:55Z</time>
<desc>lat.=20.932840, lon.=107.044518, Alt.=-19.144791m. Speed=9.576000m/h.</desc>
<speed>2.660000</speed>
</trkpt>
<trkpt lat="20.932945" lon="107.044586">
<ele>-19.181900</ele>
<time>2011-04-30T08:51:00Z</time>
<desc>lat.=20.932945, lon.=107.044586, Alt.=-19.181900m. Speed=9.540000m/h.</desc>
<speed>2.650000</speed>
</trkpt>
<trkpt lat="20.933054" lon="107.044655">
<ele>-19.296646</ele>
<time>2011-04-30T08:51:05Z</time>
<desc>lat.=20.933054, lon.=107.044655, Alt.=-19.296646m. Speed=9.576000m/h.</desc>
<speed>2.660000</speed>
</trkpt>
<trkpt lat="20.933161" lon="107.044716">
<ele>-19.840591</ele>
<time>2011-04-30T08:51:10Z</time>
<desc>lat.=20.933161, lon.=107.044716, Alt.=-19.840591m. Speed=9.540000m/h.</desc>
<speed>2.650000</speed>
</trkpt>
<trkpt lat="20.933268" lon="107.044777">
<ele>-20.721939</ele>
<time>2011-04-30T08:51:15Z</time>
<desc>lat.=20.933268, lon.=107.044777, Alt.=-20.721939m. Speed=9.648000m/h.</desc>
<speed>2.680000</speed>
</trkpt>
<trkpt lat="20.933378" lon="107.044838">
<ele>-21.479752</ele>
<time>2011-04-30T08:51:20Z</time>
<desc>lat.=20.933378, lon.=107.044838, Alt.=-21.479752m. Speed=9.396000m/h.</desc>
<speed>2.610000</speed>
</trkpt>
<trkpt lat="20.933489" lon="107.044891">
<ele>-20.655533</ele>
<time>2011-04-30T08:51:25Z</time>
<desc>lat.=20.933489, lon.=107.044891, Alt.=-20.655533m. Speed=9.684000m/h.</desc>
<speed>2.690000</speed>
</trkpt>
<trkpt lat="20.933592" lon="107.044945">
<ele>-20.103287</ele>
<time>2011-04-30T08:51:30Z</time>
<desc>lat.=20.933592, lon.=107.044945, Alt.=-20.103287m. Speed=9.540000m/h.</desc>
<speed>2.650000</speed>
</trkpt>
<trkpt lat="20.933701" lon="107.044998">
<ele>-19.764420</ele>
<time>2011-04-30T08:51:35Z</time>
<desc>lat.=20.933701, lon.=107.044998, Alt.=-19.764420m. Speed=9.540000m/h.</desc>
<speed>2.650000</speed>
</trkpt>
<trkpt lat="20.933811" lon="107.045052">
<ele>-18.270279</ele>
<time>2011-04-30T08:51:40Z</time>
<desc>lat.=20.933811, lon.=107.045052, Alt.=-18.270279m. Speed=9.504000m/h.</desc>
<speed>2.640000</speed>
</trkpt>
<trkpt lat="20.933916" lon="107.045113">
<ele>-17.565201</ele>
<time>2011-04-30T08:51:45Z</time>
<desc>lat.=20.933916, lon.=107.045113, Alt.=-17.565201m. Speed=9.540000m/h.</desc>
<speed>2.650000</speed>
</trkpt>
<trkpt lat="20.934029" lon="107.045166">
<ele>-16.957779</ele>
<time>2011-04-30T08:51:50Z</time>
<desc>lat.=20.934029, lon.=107.045166, Alt.=-16.957779m. Speed=9.648000m/h.</desc>
<speed>2.680000</speed>
</trkpt>
<trkpt lat="20.934137" lon="107.045219">
<ele>-18.206314</ele>
<time>2011-04-30T08:51:55Z</time>
<desc>lat.=20.934137, lon.=107.045219, Alt.=-18.206314m. Speed=9.756000m/h.</desc>
<speed>2.710000</speed>
</trkpt>
<trkpt lat="20.934252" lon="107.045265">
<ele>-15.998177</ele>
<time>2011-04-30T08:52:00Z</time>
<desc>lat.=20.934252, lon.=107.045265, Alt.=-15.998177m. Speed=9.576000m/h.</desc>
<speed>2.660000</speed>
</trkpt>
<trkpt lat="20.934362" lon="107.045319">
<ele>-14.612434</ele>
<time>2011-04-30T08:52:05Z</time>
<desc>lat.=20.934362, lon.=107.045319, Alt.=-14.612434m. Speed=9.648000m/h.</desc>
<speed>2.680000</speed>
</trkpt>
<trkpt lat="20.934471" lon="107.045372">
<ele>-14.789925</ele>
<time>2011-04-30T08:52:10Z</time>
<desc>lat.=20.934471, lon.=107.045372, Alt.=-14.789925m. Speed=9.792000m/h.</desc>
<speed>2.720000</speed>
</trkpt>
<trkpt lat="20.934582" lon="107.045433">
<ele>-15.083870</ele>
<time>2011-04-30T08:52:15Z</time>
<desc>lat.=20.934582, lon.=107.045433, Alt.=-15.083870m. Speed=9.576000m/h.</desc>
<speed>2.660000</speed>
</trkpt>
<trkpt lat="20.934687" lon="107.045486">
<ele>-15.409309</ele>
<time>2011-04-30T08:52:20Z</time>
<desc>lat.=20.934687, lon.=107.045486, Alt.=-15.409309m. Speed=9.612000m/h.</desc>
<speed>2.670000</speed>
</trkpt>
<trkpt lat="20.934795" lon="107.045532">
<ele>-15.989388</ele>
<time>2011-04-30T08:52:25Z</time>
<desc>lat.=20.934795, lon.=107.045532, Alt.=-15.989388m. Speed=9.684000m/h.</desc>
<speed>2.690000</speed>
</trkpt>
<trkpt lat="20.934902" lon="107.045593">
<ele>-17.073502</ele>
<time>2011-04-30T08:52:30Z</time>
<desc>lat.=20.934902, lon.=107.045593, Alt.=-17.073502m. Speed=9.648000m/h.</desc>
<speed>2.680000</speed>
</trkpt>
<trkpt lat="20.935011" lon="107.045647">
<ele>-16.954361</ele>
<time>2011-04-30T08:52:35Z</time>
<desc>lat.=20.935011, lon.=107.045647, Alt.=-16.954361m. Speed=9.576000m/h.</desc>
<speed>2.660000</speed>
</trkpt>
<trkpt lat="20.935123" lon="107.045700">
<ele>-16.835709</ele>
<time>2011-04-30T08:52:40Z</time>
<desc>lat.=20.935123, lon.=107.045700, Alt.=-16.835709m. Speed=9.648000m/h.</desc>
<speed>2.680000</speed>
</trkpt>
<trkpt lat="20.935232" lon="107.045753">
<ele>-16.054459</ele>
<time>2011-04-30T08:52:45Z</time>
<desc>lat.=20.935232, lon.=107.045753, Alt.=-16.054459m. Speed=9.360000m/h.</desc>
<speed>2.600000</speed>
</trkpt>
<trkpt lat="20.935349" lon="107.045815">
<ele>-14.601936</ele>
<time>2011-04-30T08:52:50Z</time>
<desc>lat.=20.935349, lon.=107.045815, Alt.=-14.601936m. Speed=9.468000m/h.</desc>
<speed>2.630000</speed>
</trkpt>
<trkpt lat="20.935453" lon="107.045868">
<ele>-14.540413</ele>
<time>2011-04-30T08:52:55Z</time>
<desc>lat.=20.935453, lon.=107.045868, Alt.=-14.540413m. Speed=9.648000m/h.</desc>
<speed>2.680000</speed>
</trkpt>
<trkpt lat="20.935562" lon="107.045914">
<ele>-15.119514</ele>
<time>2011-04-30T08:53:00Z</time>
<desc>lat.=20.935562, lon.=107.045914, Alt.=-15.119514m. Speed=9.504000m/h.</desc>
<speed>2.640000</speed>
</trkpt>
<trkpt lat="20.935678" lon="107.045967">
<ele>-14.211800</ele>
<time>2011-04-30T08:53:05Z</time>
<desc>lat.=20.935678, lon.=107.045967, Alt.=-14.211800m. Speed=9.540000m/h.</desc>
<speed>2.650000</speed>
</trkpt>
<trkpt lat="20.935791" lon="107.046021">
<ele>-14.362434</ele>
<time>2011-04-30T08:53:10Z</time>
<desc>lat.=20.935791, lon.=107.046021, Alt.=-14.362434m. Speed=9.612000m/h.</desc>
<speed>2.670000</speed>
</trkpt>
<trkpt lat="20.935900" lon="107.046082">
<ele>-14.953499</ele>
<time>2011-04-30T08:53:15Z</time>
<desc>lat.=20.935900, lon.=107.046082, Alt.=-14.953499m. Speed=9.792000m/h.</desc>
<speed>2.720000</speed>
</trkpt>
<trkpt lat="20.936005" lon="107.046143">
<ele>-14.855354</ele>
<time>2011-04-30T08:53:20Z</time>
<desc>lat.=20.936005, lon.=107.046143, Alt.=-14.855354m. Speed=9.684000m/h.</desc>
<speed>2.690000</speed>
</trkpt>
<trkpt lat="20.936110" lon="107.046204">
<ele>-15.537239</ele>
<time>2011-04-30T08:53:25Z</time>
<desc>lat.=20.936110, lon.=107.046204, Alt.=-15.537239m. Speed=9.432000m/h.</desc>
<speed>2.620000</speed>
</trkpt>
<trkpt lat="20.936207" lon="107.046272">
<ele>-17.611588</ele>
<time>2011-04-30T08:53:30Z</time>
<desc>lat.=20.936207, lon.=107.046272, Alt.=-17.611588m. Speed=9.900000m/h.</desc>
<speed>2.750000</speed>
</trkpt>
<trkpt lat="20.936312" lon="107.046333">
<ele>-18.375259</ele>
<time>2011-04-30T08:53:35Z</time>
<desc>lat.=20.936312, lon.=107.046333, Alt.=-18.375259m. Speed=9.864000m/h.</desc>
<speed>2.740000</speed>
</trkpt>
<trkpt lat="20.936426" lon="107.046394">
<ele>-17.742935</ele>
<time>2011-04-30T08:53:40Z</time>
<desc>lat.=20.936426, lon.=107.046394, Alt.=-17.742935m. Speed=9.900000m/h.</desc>
<speed>2.750000</speed>
</trkpt>
<trkpt lat="20.936541" lon="107.046463">
<ele>-17.341568</ele>
<time>2011-04-30T08:53:45Z</time>
<desc>lat.=20.936541, lon.=107.046463, Alt.=-17.341568m. Speed=9.684000m/h.</desc>
<speed>2.690000</speed>
</trkpt>
<trkpt lat="20.936649" lon="107.046524">
<ele>-17.630630</ele>
<time>2011-04-30T08:53:50Z</time>
<desc>lat.=20.936649, lon.=107.046524, Alt.=-17.630630m. Speed=9.720000m/h.</desc>
<speed>2.700000</speed>
</trkpt>
<trkpt lat="20.936760" lon="107.046585">
<ele>-17.547134</ele>
<time>2011-04-30T08:53:55Z</time>
<desc>lat.=20.936760, lon.=107.046585, Alt.=-17.547134m. Speed=9.684000m/h.</desc>
<speed>2.690000</speed>
</trkpt>
<trkpt lat="20.936869" lon="107.046654">
<ele>-17.904068</ele>
<time>2011-04-30T08:54:00Z</time>
<desc>lat.=20.936869, lon.=107.046654, Alt.=-17.904068m. Speed=9.720000m/h.</desc>
<speed>2.700000</speed>
</trkpt>
<trkpt lat="20.936975" lon="107.046707">
<ele>-18.017838</ele>
<time>2011-04-30T08:54:05Z</time>
<desc>lat.=20.936975, lon.=107.046707, Alt.=-18.017838m. Speed=9.684000m/h.</desc>
<speed>2.690000</speed>
</trkpt>
<trkpt lat="20.937078" lon="107.046761">
<ele>-17.464127</ele>
<time>2011-04-30T08:54:10Z</time>
<desc>lat.=20.937078, lon.=107.046761, Alt.=-17.464127m. Speed=9.936000m/h.</desc>
<speed>2.760000</speed>
</trkpt>
<trkpt lat="20.937193" lon="107.046814">
<ele>-17.408463</ele>
<time>2011-04-30T08:54:15Z</time>
<desc>lat.=20.937193, lon.=107.046814, Alt.=-17.408463m. Speed=9.720000m/h.</desc>
<speed>2.700000</speed>
</trkpt>
<trkpt lat="20.937300" lon="107.046860">
<ele>-17.611588</ele>
<time>2011-04-30T08:54:20Z</time>
<desc>lat.=20.937300, lon.=107.046860, Alt.=-17.611588m. Speed=9.756000m/h.</desc>
<speed>2.710000</speed>
</trkpt>
<trkpt lat="20.937414" lon="107.046913">
<ele>-17.817154</ele>
<time>2011-04-30T08:54:25Z</time>
<desc>lat.=20.937414, lon.=107.046913, Alt.=-17.817154m. Speed=9.612000m/h.</desc>
<speed>2.670000</speed>
</trkpt>
<trkpt lat="20.937527" lon="107.046967">
<ele>-17.577896</ele>
<time>2011-04-30T08:54:30Z</time>
<desc>lat.=20.937527, lon.=107.046967, Alt.=-17.577896m. Speed=9.684000m/h.</desc>
<speed>2.690000</speed>
</trkpt>
<trkpt lat="20.937630" lon="107.047028">
<ele>-18.106216</ele>
<time>2011-04-30T08:54:35Z</time>
<desc>lat.=20.937630, lon.=107.047028, Alt.=-18.106216m. Speed=9.612000m/h.</desc>
<speed>2.670000</speed>
</trkpt>
<trkpt lat="20.937731" lon="107.047089">
<ele>-18.525162</ele>
<time>2011-04-30T08:54:40Z</time>
<desc>lat.=20.937731, lon.=107.047089, Alt.=-18.525162m. Speed=9.612000m/h.</desc>
<speed>2.670000</speed>
</trkpt>
<trkpt lat="20.937840" lon="107.047150">
<ele>-18.433365</ele>
<time>2011-04-30T08:54:45Z</time>
<desc>lat.=20.937840, lon.=107.047150, Alt.=-18.433365m. Speed=9.720000m/h.</desc>
<speed>2.700000</speed>
</trkpt>
<trkpt lat="20.937954" lon="107.047203">
<ele>-17.976822</ele>
<time>2011-04-30T08:54:50Z</time>
<desc>lat.=20.937954, lon.=107.047203, Alt.=-17.976822m. Speed=9.792000m/h.</desc>
<speed>2.720000</speed>
</trkpt>
<trkpt lat="20.938068" lon="107.047256">
<ele>-17.512955</ele>
<time>2011-04-30T08:54:55Z</time>
<desc>lat.=20.938068, lon.=107.047256, Alt.=-17.512955m. Speed=9.756000m/h.</desc>
<speed>2.710000</speed>
</trkpt>
<trkpt lat="20.938175" lon="107.047318">
<ele>-17.390884</ele>
<time>2011-04-30T08:55:00Z</time>
<desc>lat.=20.938175, lon.=107.047318, Alt.=-17.390884m. Speed=9.648000m/h.</desc>
<speed>2.680000</speed>
</trkpt>
<trkpt lat="20.938286" lon="107.047371">
<ele>-16.368423</ele>
<time>2011-04-30T08:55:05Z</time>
<desc>lat.=20.938286, lon.=107.047371, Alt.=-16.368423m. Speed=9.648000m/h.</desc>
<speed>2.680000</speed>
</trkpt>
<trkpt lat="20.938402" lon="107.047424">
<ele>-16.007095</ele>
<time>2011-04-30T08:55:10Z</time>
<desc>lat.=20.938402, lon.=107.047424, Alt.=-16.007095m. Speed=9.684000m/h.</desc>
<speed>2.690000</speed>
</trkpt>
<trkpt lat="20.938509" lon="107.047478">
<ele>-15.851936</ele>
<time>2011-04-30T08:55:15Z</time>
<desc>lat.=20.938509, lon.=107.047478, Alt.=-15.851936m. Speed=9.828000m/h.</desc>
<speed>2.730000</speed>
</trkpt>
<trkpt lat="20.938625" lon="107.047531">
<ele>-15.197639</ele>
<time>2011-04-30T08:55:20Z</time>
<desc>lat.=20.938625, lon.=107.047531, Alt.=-15.197639m. Speed=9.720000m/h.</desc>
<speed>2.700000</speed>
</trkpt>
<trkpt lat="20.938736" lon="107.047585">
<ele>-14.572151</ele>
<time>2011-04-30T08:55:25Z</time>
<desc>lat.=20.938736, lon.=107.047585, Alt.=-14.572151m. Speed=9.720000m/h.</desc>
<speed>2.700000</speed>
</trkpt>
<trkpt lat="20.938845" lon="107.047630">
<ele>-13.796028</ele>
<time>2011-04-30T08:55:30Z</time>
<desc>lat.=20.938845, lon.=107.047630, Alt.=-13.796028m. Speed=9.684000m/h.</desc>
<speed>2.690000</speed>
</trkpt>
<trkpt lat="20.938951" lon="107.047684">
<ele>-13.269173</ele>
<time>2011-04-30T08:55:35Z</time>
<desc>lat.=20.938951, lon.=107.047684, Alt.=-13.269173m. Speed=9.756000m/h.</desc>
<speed>2.710000</speed>
</trkpt>
<trkpt lat="20.939064" lon="107.047745">
<ele>-13.420784</ele>
<time>2011-04-30T08:55:40Z</time>
<desc>lat.=20.939064, lon.=107.047745, Alt.=-13.420784m. Speed=9.792000m/h.</desc>
<speed>2.720000</speed>
</trkpt>
<trkpt lat="20.939175" lon="107.047798">
<ele>-13.065071</ele>
<time>2011-04-30T08:55:45Z</time>
<desc>lat.=20.939175, lon.=107.047798, Alt.=-13.065071m. Speed=9.216000m/h.</desc>
<speed>2.560000</speed>
</trkpt>
<trkpt lat="20.939281" lon="107.047859">
<ele>-12.558723</ele>
<time>2011-04-30T08:55:50Z</time>
<desc>lat.=20.939281, lon.=107.047859, Alt.=-12.558723m. Speed=9.756000m/h.</desc>
<speed>2.710000</speed>
</trkpt>
<trkpt lat="20.939392" lon="107.047913">
<ele>-12.403206</ele>
<time>2011-04-30T08:55:55Z</time>
<desc>lat.=20.939392, lon.=107.047913, Alt.=-12.403206m. Speed=9.756000m/h.</desc>
<speed>2.710000</speed>
</trkpt>
<trkpt lat="20.939501" lon="107.047958">
<ele>-12.082649</ele>
<time>2011-04-30T08:56:00Z</time>
<desc>lat.=20.939501, lon.=107.047958, Alt.=-12.082649m. Speed=9.792000m/h.</desc>
<speed>2.720000</speed>
</trkpt>
<trkpt lat="20.939613" lon="107.048012">
<ele>-12.432747</ele>
<time>2011-04-30T08:56:05Z</time>
<desc>lat.=20.939613, lon.=107.048012, Alt.=-12.432747m. Speed=9.792000m/h.</desc>
<speed>2.720000</speed>
</trkpt>
<trkpt lat="20.939728" lon="107.048058">
<ele>-11.361458</ele>
<time>2011-04-30T08:56:10Z</time>
<desc>lat.=20.939728, lon.=107.048058, Alt.=-11.361458m. Speed=9.288000m/h.</desc>
<speed>2.580000</speed>
</trkpt>
<trkpt lat="20.939842" lon="107.048111">
<ele>-11.382454</ele>
<time>2011-04-30T08:56:15Z</time>
<desc>lat.=20.939842, lon.=107.048111, Alt.=-11.382454m. Speed=9.756000m/h.</desc>
<speed>2.710000</speed>
</trkpt>
<trkpt lat="20.939955" lon="107.048164">
<ele>-11.679329</ele>
<time>2011-04-30T08:56:20Z</time>
<desc>lat.=20.939955, lon.=107.048164, Alt.=-11.679329m. Speed=9.684000m/h.</desc>
<speed>2.690000</speed>
</trkpt>
<trkpt lat="20.940065" lon="107.048218">
<ele>-11.860970</ele>
<time>2011-04-30T08:56:25Z</time>
<desc>lat.=20.940065, lon.=107.048218, Alt.=-11.860970m. Speed=9.756000m/h.</desc>
<speed>2.710000</speed>
</trkpt>
<trkpt lat="20.940182" lon="107.048279">
<ele>-11.429329</ele>
<time>2011-04-30T08:56:30Z</time>
<desc>lat.=20.940182, lon.=107.048279, Alt.=-11.429329m. Speed=9.828000m/h.</desc>
<speed>2.730000</speed>
</trkpt>
<trkpt lat="20.940296" lon="107.048340">
<ele>-11.387093</ele>
<time>2011-04-30T08:56:35Z</time>
<desc>lat.=20.940296, lon.=107.048340, Alt.=-11.387093m. Speed=9.756000m/h.</desc>
<speed>2.710000</speed>
</trkpt>
<trkpt lat="20.940401" lon="107.048393">
<ele>-11.212776</ele>
<time>2011-04-30T08:56:40Z</time>
<desc>lat.=20.940401, lon.=107.048393, Alt.=-11.212776m. Speed=9.648000m/h.</desc>
<speed>2.680000</speed>
</trkpt>
<trkpt lat="20.940512" lon="107.048454">
<ele>-12.204964</ele>
<time>2011-04-30T08:56:45Z</time>
<desc>lat.=20.940512, lon.=107.048454, Alt.=-12.204964m. Speed=9.828000m/h.</desc>
<speed>2.730000</speed>
</trkpt>
<trkpt lat="20.940622" lon="107.048515">
<ele>-11.945442</ele>
<time>2011-04-30T08:56:50Z</time>
<desc>lat.=20.940622, lon.=107.048515, Alt.=-11.945442m. Speed=9.972000m/h.</desc>
<speed>2.770000</speed>
</trkpt>
<trkpt lat="20.940725" lon="107.048576">
<ele>-12.236702</ele>
<time>2011-04-30T08:56:55Z</time>
<desc>lat.=20.940725, lon.=107.048576, Alt.=-12.236702m. Speed=9.792000m/h.</desc>
<speed>2.720000</speed>
</trkpt>
<trkpt lat="20.940844" lon="107.048645">
<ele>-11.124641</ele>
<time>2011-04-30T08:57:00Z</time>
<desc>lat.=20.940844, lon.=107.048645, Alt.=-11.124641m. Speed=9.864000m/h.</desc>
<speed>2.740000</speed>
</trkpt>
<trkpt lat="20.940948" lon="107.048714">
<ele>-10.093880</ele>
<time>2011-04-30T08:57:05Z</time>
<desc>lat.=20.940948, lon.=107.048714, Alt.=-10.093880m. Speed=9.756000m/h.</desc>
<speed>2.710000</speed>
</trkpt>
<trkpt lat="20.941053" lon="107.048782">
<ele>-8.214241</ele>
<time>2011-04-30T08:57:10Z</time>
<desc>lat.=20.941053, lon.=107.048782, Alt.=-8.214241m. Speed=9.792000m/h.</desc>
<speed>2.720000</speed>
</trkpt>
<trkpt lat="20.941160" lon="107.048851">
<ele>-7.363590</ele>
<time>2011-04-30T08:57:15Z</time>
<desc>lat.=20.941160, lon.=107.048851, Alt.=-7.363590m. Speed=10.008000m/h.</desc>
<speed>2.780000</speed>
</trkpt>
<trkpt lat="20.941269" lon="107.048912">
<ele>-8.437630</ele>
<time>2011-04-30T08:57:20Z</time>
<desc>lat.=20.941269, lon.=107.048912, Alt.=-8.437630m. Speed=9.828000m/h.</desc>
<speed>2.730000</speed>
</trkpt>
<trkpt lat="20.941380" lon="107.048965">
<ele>-9.309212</ele>
<time>2011-04-30T08:57:25Z</time>
<desc>lat.=20.941380, lon.=107.048965, Alt.=-9.309212m. Speed=9.720000m/h.</desc>
<speed>2.700000</speed>
</trkpt>
<trkpt lat="20.941486" lon="107.049026">
<ele>-8.445686</ele>
<time>2011-04-30T08:57:30Z</time>
<desc>lat.=20.941486, lon.=107.049026, Alt.=-8.445686m. Speed=9.720000m/h.</desc>
<speed>2.700000</speed>
</trkpt>
<trkpt lat="20.941597" lon="107.049080">
<ele>-7.563175</ele>
<time>2011-04-30T08:57:35Z</time>
<desc>lat.=20.941597, lon.=107.049080, Alt.=-7.563175m. Speed=9.684000m/h.</desc>
<speed>2.690000</speed>
</trkpt>
<trkpt lat="20.941711" lon="107.049133">
<ele>-6.839787</ele>
<time>2011-04-30T08:57:40Z</time>
<desc>lat.=20.941711, lon.=107.049133, Alt.=-6.839787m. Speed=9.864000m/h.</desc>
<speed>2.740000</speed>
</trkpt>
<trkpt lat="20.941820" lon="107.049187">
<ele>-6.503971</ele>
<time>2011-04-30T08:57:45Z</time>
<desc>lat.=20.941820, lon.=107.049187, Alt.=-6.503971m. Speed=9.756000m/h.</desc>
<speed>2.710000</speed>
</trkpt>
<trkpt lat="20.941935" lon="107.049232">
<ele>-6.323551</ele>
<time>2011-04-30T08:57:50Z</time>
<desc>lat.=20.941935, lon.=107.049232, Alt.=-6.323551m. Speed=9.792000m/h.</desc>
<speed>2.720000</speed>
</trkpt>
<trkpt lat="20.942045" lon="107.049286">
<ele>-6.711124</ele>
<time>2011-04-30T08:57:55Z</time>
<desc>lat.=20.942045, lon.=107.049286, Alt.=-6.711124m. Speed=9.720000m/h.</desc>
<speed>2.700000</speed>
</trkpt>
<trkpt lat="20.942156" lon="107.049332">
<ele>-5.578312</ele>
<time>2011-04-30T08:58:00Z</time>
<desc>lat.=20.942156, lon.=107.049332, Alt.=-5.578312m. Speed=9.900000m/h.</desc>
<speed>2.750000</speed>
</trkpt>
<trkpt lat="20.942274" lon="107.049377">
<ele>-7.218937</ele>
<time>2011-04-30T08:58:05Z</time>
<desc>lat.=20.942274, lon.=107.049377, Alt.=-7.218937m. Speed=9.684000m/h.</desc>
<speed>2.690000</speed>
</trkpt>
<trkpt lat="20.942389" lon="107.049423">
<ele>-7.567692</ele>
<time>2011-04-30T08:58:10Z</time>
<desc>lat.=20.942389, lon.=107.049423, Alt.=-7.567692m. Speed=9.792000m/h.</desc>
<speed>2.720000</speed>
</trkpt>
<trkpt lat="20.942503" lon="107.049469">
<ele>-9.251106</ele>
<time>2011-04-30T08:58:15Z</time>
<desc>lat.=20.942503, lon.=107.049469, Alt.=-9.251106m. Speed=9.720000m/h.</desc>
<speed>2.700000</speed>
</trkpt>
<trkpt lat="20.942621" lon="107.049515">
<ele>-12.730843</ele>
<time>2011-04-30T08:58:20Z</time>
<desc>lat.=20.942621, lon.=107.049515, Alt.=-12.730843m. Speed=9.468000m/h.</desc>
<speed>2.630000</speed>
</trkpt>
<trkpt lat="20.942738" lon="107.049561">
<ele>-13.187874</ele>
<time>2011-04-30T08:58:25Z</time>
<desc>lat.=20.942738, lon.=107.049561, Alt.=-13.187874m. Speed=10.080000m/h.</desc>
<speed>2.800000</speed>
</trkpt>
<trkpt lat="20.942852" lon="107.049622">
<ele>-15.191292</ele>
<time>2011-04-30T08:58:30Z</time>
<desc>lat.=20.942852, lon.=107.049622, Alt.=-15.191292m. Speed=9.900000m/h.</desc>
<speed>2.750000</speed>
</trkpt>
<trkpt lat="20.942968" lon="107.049683">
<ele>-13.794075</ele>
<time>2011-04-30T08:58:35Z</time>
<desc>lat.=20.942968, lon.=107.049683, Alt.=-13.794075m. Speed=10.116000m/h.</desc>
<speed>2.810000</speed>
</trkpt>
<trkpt lat="20.943083" lon="107.049728">
<ele>-14.129768</ele>
<time>2011-04-30T08:58:40Z</time>
<desc>lat.=20.943083, lon.=107.049728, Alt.=-14.129768m. Speed=9.972000m/h.</desc>
<speed>2.770000</speed>
</trkpt>
<trkpt lat="20.943190" lon="107.049789">
<ele>-12.783089</ele>
<time>2011-04-30T08:58:45Z</time>
<desc>lat.=20.943190, lon.=107.049789, Alt.=-12.783089m. Speed=9.864000m/h.</desc>
<speed>2.740000</speed>
</trkpt>
<trkpt lat="20.943302" lon="107.049850">
<ele>-13.139778</ele>
<time>2011-04-30T08:58:50Z</time>
<desc>lat.=20.943302, lon.=107.049850, Alt.=-13.139778m. Speed=9.792000m/h.</desc>
<speed>2.720000</speed>
</trkpt>
<trkpt lat="20.943415" lon="107.049911">
<ele>-12.439827</ele>
<time>2011-04-30T08:58:55Z</time>
<desc>lat.=20.943415, lon.=107.049911, Alt.=-12.439827m. Speed=9.828000m/h.</desc>
<speed>2.730000</speed>
</trkpt>
<trkpt lat="20.943525" lon="107.049973">
<ele>-12.728401</ele>
<time>2011-04-30T08:59:00Z</time>
<desc>lat.=20.943525, lon.=107.049973, Alt.=-12.728401m. Speed=9.792000m/h.</desc>
<speed>2.720000</speed>
</trkpt>
<trkpt lat="20.943636" lon="107.050034">
<ele>-15.577522</ele>
<time>2011-04-30T08:59:05Z</time>
<desc>lat.=20.943636, lon.=107.050034, Alt.=-15.577522m. Speed=10.116000m/h.</desc>
<speed>2.810000</speed>
</trkpt>
<trkpt lat="20.943754" lon="107.050095">
<ele>-14.218391</ele>
<time>2011-04-30T08:59:10Z</time>
<desc>lat.=20.943754, lon.=107.050095, Alt.=-14.218391m. Speed=10.044000m/h.</desc>
<speed>2.790000</speed>
</trkpt>
<trkpt lat="20.943863" lon="107.050163">
<ele>-13.744514</ele>
<time>2011-04-30T08:59:15Z</time>
<desc>lat.=20.943863, lon.=107.050163, Alt.=-13.744514m. Speed=9.828000m/h.</desc>
<speed>2.730000</speed>
</trkpt>
<trkpt lat="20.943977" lon="107.050217">
<ele>-13.219612</ele>
<time>2011-04-30T08:59:20Z</time>
<desc>lat.=20.943977, lon.=107.050217, Alt.=-13.219612m. Speed=9.936000m/h.</desc>
<speed>2.760000</speed>
</trkpt>
<trkpt lat="20.944094" lon="107.050262">
<ele>-18.840103</ele>
<time>2011-04-30T08:59:25Z</time>
<desc>lat.=20.944094, lon.=107.050262, Alt.=-18.840103m. Speed=9.936000m/h.</desc>
<speed>2.760000</speed>
</trkpt>
<trkpt lat="20.944202" lon="107.050316">
<ele>-18.688248</ele>
<time>2011-04-30T08:59:30Z</time>
<desc>lat.=20.944202, lon.=107.050316, Alt.=-18.688248m. Speed=9.900000m/h.</desc>
<speed>2.750000</speed>
</trkpt>
<trkpt lat="20.944315" lon="107.050377">
<ele>-18.514908</ele>
<time>2011-04-30T08:59:35Z</time>
<desc>lat.=20.944315, lon.=107.050377, Alt.=-18.514908m. Speed=9.936000m/h.</desc>
<speed>2.760000</speed>
</trkpt>
<trkpt lat="20.944422" lon="107.050438">
<ele>-18.277115</ele>
<time>2011-04-30T08:59:40Z</time>
<desc>lat.=20.944422, lon.=107.050438, Alt.=-18.277115m. Speed=10.080000m/h.</desc>
<speed>2.800000</speed>
</trkpt>
<trkpt lat="20.944523" lon="107.050514">
<ele>-21.075943</ele>
<time>2011-04-30T08:59:45Z</time>
<desc>lat.=20.944523, lon.=107.050514, Alt.=-21.075943m. Speed=10.008000m/h.</desc>
<speed>2.780000</speed>
</trkpt>
<trkpt lat="20.944637" lon="107.050575">
<ele>-21.506607</ele>
<time>2011-04-30T08:59:50Z</time>
<desc>lat.=20.944637, lon.=107.050575, Alt.=-21.506607m. Speed=9.864000m/h.</desc>
<speed>2.740000</speed>
</trkpt>
<trkpt lat="20.944748" lon="107.050636">
<ele>-21.332779</ele>
<time>2011-04-30T08:59:55Z</time>
<desc>lat.=20.944748, lon.=107.050636, Alt.=-21.332779m. Speed=9.972000m/h.</desc>
<speed>2.770000</speed>
</trkpt>
<trkpt lat="20.944859" lon="107.050697">
<ele>-21.210220</ele>
<time>2011-04-30T09:00:00Z</time>
<desc>lat.=20.944859, lon.=107.050697, Alt.=-21.210220m. Speed=10.080000m/h.</desc>
<speed>2.800000</speed>
</trkpt>
<trkpt lat="20.944967" lon="107.050774">
<ele>-21.672623</ele>
<time>2011-04-30T09:00:05Z</time>
<desc>lat.=20.944967, lon.=107.050774, Alt.=-21.672623m. Speed=9.972000m/h.</desc>
<speed>2.770000</speed>
</trkpt>
<trkpt lat="20.945072" lon="107.050842">
<ele>-22.714127</ele>
<time>2011-04-30T09:00:10Z</time>
<desc>lat.=20.945072, lon.=107.050842, Alt.=-22.714127m. Speed=10.044000m/h.</desc>
<speed>2.790000</speed>
</trkpt>
<trkpt lat="20.945181" lon="107.050903">
<ele>-21.225357</ele>
<time>2011-04-30T09:00:15Z</time>
<desc>lat.=20.945181, lon.=107.050903, Alt.=-21.225357m. Speed=9.936000m/h.</desc>
<speed>2.760000</speed>
</trkpt>
<trkpt lat="20.945288" lon="107.050964">
<ele>-20.838638</ele>
<time>2011-04-30T09:00:20Z</time>
<desc>lat.=20.945288, lon.=107.050964, Alt.=-20.838638m. Speed=9.684000m/h.</desc>
<speed>2.690000</speed>
</trkpt>
<trkpt lat="20.945400" lon="107.051018">
<ele>-21.927994</ele>
<time>2011-04-30T09:00:25Z</time>
<desc>lat.=20.945400, lon.=107.051018, Alt.=-21.927994m. Speed=9.936000m/h.</desc>
<speed>2.760000</speed>
</trkpt>
<trkpt lat="20.945511" lon="107.051086">
<ele>-21.611588</ele>
<time>2011-04-30T09:00:30Z</time>
<desc>lat.=20.945511, lon.=107.051086, Alt.=-21.611588m. Speed=10.008000m/h.</desc>
<speed>2.780000</speed>
</trkpt>
<trkpt lat="20.945625" lon="107.051140">
<ele>-22.647720</ele>
<time>2011-04-30T09:00:35Z</time>
<desc>lat.=20.945625, lon.=107.051140, Alt.=-22.647720m. Speed=10.116000m/h.</desc>
<speed>2.810000</speed>
</trkpt>
<trkpt lat="20.945738" lon="107.051193">
<ele>-23.125748</ele>
<time>2011-04-30T09:00:40Z</time>
<desc>lat.=20.945738, lon.=107.051193, Alt.=-23.125748m. Speed=9.792000m/h.</desc>
<speed>2.720000</speed>
</trkpt>
<trkpt lat="20.945848" lon="107.051247">
<ele>-23.896255</ele>
<time>2011-04-30T09:00:45Z</time>
<desc>lat.=20.945848, lon.=107.051247, Alt.=-23.896255m. Speed=9.792000m/h.</desc>
<speed>2.720000</speed>
</trkpt>
<trkpt lat="20.945967" lon="107.051292">
<ele>-22.957779</ele>
<time>2011-04-30T09:00:50Z</time>
<desc>lat.=20.945967, lon.=107.051292, Alt.=-22.957779m. Speed=9.900000m/h.</desc>
<speed>2.750000</speed>
</trkpt>
<trkpt lat="20.946079" lon="107.051346">
<ele>-22.436295</ele>
<time>2011-04-30T09:00:55Z</time>
<desc>lat.=20.946079, lon.=107.051346, Alt.=-22.436295m. Speed=9.864000m/h.</desc>
<speed>2.740000</speed>
</trkpt>
<trkpt lat="20.946196" lon="107.051392">
<ele>-22.501724</ele>
<time>2011-04-30T09:01:00Z</time>
<desc>lat.=20.946196, lon.=107.051392, Alt.=-22.501724m. Speed=9.648000m/h.</desc>
<speed>2.680000</speed>
</trkpt>
<trkpt lat="20.946310" lon="107.051445">
<ele>-22.986099</ele>
<time>2011-04-30T09:01:05Z</time>
<desc>lat.=20.946310, lon.=107.051445, Alt.=-22.986099m. Speed=9.756000m/h.</desc>
<speed>2.710000</speed>
</trkpt>
<trkpt lat="20.946430" lon="107.051491">
<ele>-21.752213</ele>
<time>2011-04-30T09:01:10Z</time>
<desc>lat.=20.946430, lon.=107.051491, Alt.=-21.752213m. Speed=9.756000m/h.</desc>
<speed>2.710000</speed>
</trkpt>
<trkpt lat="20.946552" lon="107.051529">
<ele>-22.551529</ele>
<time>2011-04-30T09:01:15Z</time>
<desc>lat.=20.946552, lon.=107.051529, Alt.=-22.551529m. Speed=9.828000m/h.</desc>
<speed>2.730000</speed>
</trkpt>
<trkpt lat="20.946667" lon="107.051575">
<ele>-23.844986</ele>
<time>2011-04-30T09:01:20Z</time>
<desc>lat.=20.946667, lon.=107.051575, Alt.=-23.844986m. Speed=9.828000m/h.</desc>
<speed>2.730000</speed>
</trkpt>
<trkpt lat="20.946775" lon="107.051620">
<ele>-23.477798</ele>
<time>2011-04-30T09:01:25Z</time>
<desc>lat.=20.946775, lon.=107.051620, Alt.=-23.477798m. Speed=9.936000m/h.</desc>
<speed>2.760000</speed>
</trkpt>
<trkpt lat="20.946896" lon="107.051674">
<ele>-23.984634</ele>
<time>2011-04-30T09:01:30Z</time>
<desc>lat.=20.946896, lon.=107.051674, Alt.=-23.984634m. Speed=9.900000m/h.</desc>
<speed>2.750000</speed>
</trkpt>
<trkpt lat="20.947006" lon="107.051727">
<ele>-23.822525</ele>
<time>2011-04-30T09:01:35Z</time>
<desc>lat.=20.947006, lon.=107.051727, Alt.=-23.822525m. Speed=9.900000m/h.</desc>
<speed>2.750000</speed>
</trkpt>
<trkpt lat="20.947124" lon="107.051773">
<ele>-24.185318</ele>
<time>2011-04-30T09:01:40Z</time>
<desc>lat.=20.947124, lon.=107.051773, Alt.=-24.185318m. Speed=9.864000m/h.</desc>
<speed>2.740000</speed>
</trkpt>
<trkpt lat="20.947239" lon="107.051819">
<ele>-24.719009</ele>
<time>2011-04-30T09:01:45Z</time>
<desc>lat.=20.947239, lon.=107.051819, Alt.=-24.719009m. Speed=9.900000m/h.</desc>
<speed>2.750000</speed>
</trkpt>
<trkpt lat="20.947351" lon="107.051872">
<ele>-24.123795</ele>
<time>2011-04-30T09:01:50Z</time>
<desc>lat.=20.947351, lon.=107.051872, Alt.=-24.123795m. Speed=9.864000m/h.</desc>
<speed>2.740000</speed>
</trkpt>
<trkpt lat="20.947466" lon="107.051926">
<ele>-22.673111</ele>
<time>2011-04-30T09:01:55Z</time>
<desc>lat.=20.947466, lon.=107.051926, Alt.=-22.673111m. Speed=9.828000m/h.</desc>
<speed>2.730000</speed>
</trkpt>
<trkpt lat="20.947578" lon="107.051979">
<ele>-21.895767</ele>
<time>2011-04-30T09:02:00Z</time>
<desc>lat.=20.947578, lon.=107.051979, Alt.=-21.895767m. Speed=9.900000m/h.</desc>
<speed>2.750000</speed>
</trkpt>
<trkpt lat="20.947693" lon="107.052032">
<ele>-20.884537</ele>
<time>2011-04-30T09:02:05Z</time>
<desc>lat.=20.947693, lon.=107.052032, Alt.=-20.884537m. Speed=9.864000m/h.</desc>
<speed>2.740000</speed>
</trkpt>
<trkpt lat="20.947807" lon="107.052086">
<ele>-20.216568</ele>
<time>2011-04-30T09:02:10Z</time>
<desc>lat.=20.947807, lon.=107.052086, Alt.=-20.216568m. Speed=9.828000m/h.</desc>
<speed>2.730000</speed>
</trkpt>
<trkpt lat="20.947926" lon="107.052132">
<ele>-19.960709</ele>
<time>2011-04-30T09:02:15Z</time>
<desc>lat.=20.947926, lon.=107.052132, Alt.=-19.960709m. Speed=9.828000m/h.</desc>
<speed>2.730000</speed>
</trkpt>
<trkpt lat="20.948040" lon="107.052185">
<ele>-18.560806</ele>
<time>2011-04-30T09:02:20Z</time>
<desc>lat.=20.948040, lon.=107.052185, Alt.=-18.560806m. Speed=9.864000m/h.</desc>
<speed>2.740000</speed>
</trkpt>
<trkpt lat="20.948153" lon="107.052231">
<ele>-17.156509</ele>
<time>2011-04-30T09:02:25Z</time>
<desc>lat.=20.948153, lon.=107.052231, Alt.=-17.156509m. Speed=10.008000m/h.</desc>
<speed>2.780000</speed>
</trkpt>
<trkpt lat="20.948267" lon="107.052277">
<ele>-18.698990</ele>
<time>2011-04-30T09:02:30Z</time>
<desc>lat.=20.948267, lon.=107.052277, Alt.=-18.698990m. Speed=9.936000m/h.</desc>
<speed>2.760000</speed>
</trkpt>
<trkpt lat="20.948381" lon="107.052330">
<ele>-17.976334</ele>
<time>2011-04-30T09:02:35Z</time>
<desc>lat.=20.948381, lon.=107.052330, Alt.=-17.976334m. Speed=10.116000m/h.</desc>
<speed>2.810000</speed>
</trkpt>
<trkpt lat="20.948494" lon="107.052376">
<ele>-17.487564</ele>
<time>2011-04-30T09:02:40Z</time>
<desc>lat.=20.948494, lon.=107.052376, Alt.=-17.487564m. Speed=10.008000m/h.</desc>
<speed>2.780000</speed>
</trkpt>
<trkpt lat="20.948608" lon="107.052429">
<ele>-17.007584</ele>
<time>2011-04-30T09:02:45Z</time>
<desc>lat.=20.948608, lon.=107.052429, Alt.=-17.007584m. Speed=9.864000m/h.</desc>
<speed>2.740000</speed>
</trkpt>
<trkpt lat="20.948725" lon="107.052490">
<ele>-17.785904</ele>
<time>2011-04-30T09:02:50Z</time>
<desc>lat.=20.948725, lon.=107.052490, Alt.=-17.785904m. Speed=9.828000m/h.</desc>
<speed>2.730000</speed>
</trkpt>
<trkpt lat="20.948837" lon="107.052536">
<ele>-19.606705</ele>
<time>2011-04-30T09:02:55Z</time>
<desc>lat.=20.948837, lon.=107.052536, Alt.=-19.606705m. Speed=9.864000m/h.</desc>
<speed>2.740000</speed>
</trkpt>
<trkpt lat="20.948954" lon="107.052582">
<ele>-19.421158</ele>
<time>2011-04-30T09:03:00Z</time>
<desc>lat.=20.948954, lon.=107.052582, Alt.=-19.421158m. Speed=9.936000m/h.</desc>
<speed>2.760000</speed>
</trkpt>
<trkpt lat="20.949066" lon="107.052635">
<ele>-18.420670</ele>
<time>2011-04-30T09:03:05Z</time>
<desc>lat.=20.949066, lon.=107.052635, Alt.=-18.420670m. Speed=9.828000m/h.</desc>
<speed>2.730000</speed>
</trkpt>
<trkpt lat="20.949181" lon="107.052689">
<ele>-18.605728</ele>
<time>2011-04-30T09:03:10Z</time>
<desc>lat.=20.949181, lon.=107.052689, Alt.=-18.605728m. Speed=9.900000m/h.</desc>
<speed>2.750000</speed>
</trkpt>
<trkpt lat="20.949297" lon="107.052734">
<ele>-18.943130</ele>
<time>2011-04-30T09:03:15Z</time>
<desc>lat.=20.949297, lon.=107.052734, Alt.=-18.943130m. Speed=9.936000m/h.</desc>
<speed>2.760000</speed>
</trkpt>
<trkpt lat="20.949413" lon="107.052788">
<ele>-19.243912</ele>
<time>2011-04-30T09:03:20Z</time>
<desc>lat.=20.949413, lon.=107.052788, Alt.=-19.243912m. Speed=9.864000m/h.</desc>
<speed>2.740000</speed>
</trkpt>
<trkpt lat="20.949526" lon="107.052849">
<ele>-18.873795</ele>
<time>2011-04-30T09:03:25Z</time>
<desc>lat.=20.949526, lon.=107.052849, Alt.=-18.873795m. Speed=9.828000m/h.</desc>
<speed>2.730000</speed>
</trkpt>
<trkpt lat="20.949642" lon="107.052895">
<ele>-18.533463</ele>
<time>2011-04-30T09:03:30Z</time>
<desc>lat.=20.949642, lon.=107.052895, Alt.=-18.533463m. Speed=9.936000m/h.</desc>
<speed>2.760000</speed>
</trkpt>
<trkpt lat="20.949759" lon="107.052940">
<ele>-17.742447</ele>
<time>2011-04-30T09:03:35Z</time>
<desc>lat.=20.949759, lon.=107.052940, Alt.=-17.742447m. Speed=9.864000m/h.</desc>
<speed>2.740000</speed>
</trkpt>
<trkpt lat="20.949873" lon="107.052994">
<ele>-17.455826</ele>
<time>2011-04-30T09:03:40Z</time>
<desc>lat.=20.949873, lon.=107.052994, Alt.=-17.455826m. Speed=9.864000m/h.</desc>
<speed>2.740000</speed>
</trkpt>
<trkpt lat="20.949989" lon="107.053047">
<ele>-15.860725</ele>
<time>2011-04-30T09:03:45Z</time>
<desc>lat.=20.949989, lon.=107.053047, Alt.=-15.860725m. Speed=10.080000m/h.</desc>
<speed>2.800000</speed>
</trkpt>
<trkpt lat="20.950108" lon="107.053093">
<ele>-15.158821</ele>
<time>2011-04-30T09:03:50Z</time>
<desc>lat.=20.950108, lon.=107.053093, Alt.=-15.158821m. Speed=10.008000m/h.</desc>
<speed>2.780000</speed>
</trkpt>
<trkpt lat="20.950224" lon="107.053139">
<ele>-15.002327</ele>
<time>2011-04-30T09:03:55Z</time>
<desc>lat.=20.950224, lon.=107.053139, Alt.=-15.002327m. Speed=9.828000m/h.</desc>
<speed>2.730000</speed>
</trkpt>
<trkpt lat="20.950340" lon="107.053185">
<ele>-15.000374</ele>
<time>2011-04-30T09:04:00Z</time>
<desc>lat.=20.950340, lon.=107.053185, Alt.=-15.000374m. Speed=10.152000m/h.</desc>
<speed>2.820000</speed>
</trkpt>
<trkpt lat="20.950457" lon="107.053230">
<ele>-14.503548</ele>
<time>2011-04-30T09:04:05Z</time>
<desc>lat.=20.950457, lon.=107.053230, Alt.=-14.503548m. Speed=9.756000m/h.</desc>
<speed>2.710000</speed>
</trkpt>
<trkpt lat="20.950569" lon="107.053284">
<ele>-15.148811</ele>
<time>2011-04-30T09:04:10Z</time>
<desc>lat.=20.950569, lon.=107.053284, Alt.=-15.148811m. Speed=9.864000m/h.</desc>
<speed>2.740000</speed>
</trkpt>
<trkpt lat="20.950682" lon="107.053337">
<ele>-15.253548</ele>
<time>2011-04-30T09:04:15Z</time>
<desc>lat.=20.950682, lon.=107.053337, Alt.=-15.253548m. Speed=10.008000m/h.</desc>
<speed>2.780000</speed>
</trkpt>
<trkpt lat="20.950802" lon="107.053383">
<ele>-12.815071</ele>
<time>2011-04-30T09:04:20Z</time>
<desc>lat.=20.950802, lon.=107.053383, Alt.=-12.815071m. Speed=9.900000m/h.</desc>
<speed>2.750000</speed>
</trkpt>
<trkpt lat="20.950920" lon="107.053436">
<ele>-10.276497</ele>
<time>2011-04-30T09:04:25Z</time>
<desc>lat.=20.950920, lon.=107.053436, Alt.=-10.276497m. Speed=9.900000m/h.</desc>
<speed>2.750000</speed>
</trkpt>
<trkpt lat="20.951036" lon="107.053482">
<ele>-8.298470</ele>
<time>2011-04-30T09:04:30Z</time>
<desc>lat.=20.951036, lon.=107.053482, Alt.=-8.298470m. Speed=9.432000m/h.</desc>
<speed>2.620000</speed>
</trkpt>
<trkpt lat="20.951151" lon="107.053520">
<ele>-6.819035</ele>
<time>2011-04-30T09:04:35Z</time>
<desc>lat.=20.951151, lon.=107.053520, Alt.=-6.819035m. Speed=9.576000m/h.</desc>
<speed>2.660000</speed>
</trkpt>
<trkpt lat="20.951256" lon="107.053558">
<ele>-8.278938</ele>
<time>2011-04-30T09:04:40Z</time>
<desc>lat.=20.951256, lon.=107.053558, Alt.=-8.278938m. Speed=9.324000m/h.</desc>
<speed>2.590000</speed>
</trkpt>
<trkpt lat="20.951363" lon="107.053596">
<ele>-8.770638</ele>
<time>2011-04-30T09:04:45Z</time>
<desc>lat.=20.951363, lon.=107.053596, Alt.=-8.770638m. Speed=9.072000m/h.</desc>
<speed>2.520000</speed>
</trkpt>
<trkpt lat="20.951466" lon="107.053642">
<ele>-7.284245</ele>
<time>2011-04-30T09:04:50Z</time>
<desc>lat.=20.951466, lon.=107.053642, Alt.=-7.284245m. Speed=9.144000m/h.</desc>
<speed>2.540000</speed>
</trkpt>
<trkpt lat="20.951567" lon="107.053696">
<ele>-6.289494</ele>
<time>2011-04-30T09:04:55Z</time>
<desc>lat.=20.951567, lon.=107.053696, Alt.=-6.289494m. Speed=9.144000m/h.</desc>
<speed>2.540000</speed>
</trkpt>
<trkpt lat="20.951675" lon="107.053749">
<ele>-4.211369</ele>
<time>2011-04-30T09:05:00Z</time>
<desc>lat.=20.951675, lon.=107.053749, Alt.=-4.211369m. Speed=9.216000m/h.</desc>
<speed>2.560000</speed>
</trkpt>
<trkpt lat="20.951788" lon="107.053787">
<ele>-4.269108</ele>
<time>2011-04-30T09:05:05Z</time>
<desc>lat.=20.951788, lon.=107.053787, Alt.=-4.269108m. Speed=9.108000m/h.</desc>
<speed>2.530000</speed>
</trkpt>
<trkpt lat="20.951893" lon="107.053825">
<ele>-5.095036</ele>
<time>2011-04-30T09:05:10Z</time>
<desc>lat.=20.951893, lon.=107.053825, Alt.=-5.095036m. Speed=9.000000m/h.</desc>
<speed>2.500000</speed>
</trkpt>
<trkpt lat="20.951996" lon="107.053871">
<ele>-7.415836</ele>
<time>2011-04-30T09:05:15Z</time>
<desc>lat.=20.951996, lon.=107.053871, Alt.=-7.415836m. Speed=9.144000m/h.</desc>
<speed>2.540000</speed>
</trkpt>
<trkpt lat="20.952087" lon="107.053909">
<ele>-10.459114</ele>
<time>2011-04-30T09:05:20Z</time>
<desc>lat.=20.952087, lon.=107.053909, Alt.=-10.459114m. Speed=8.928000m/h.</desc>
<speed>2.480000</speed>
</trkpt>
<trkpt lat="20.952187" lon="107.053947">
<ele>-10.972298</ele>
<time>2011-04-30T09:05:25Z</time>
<desc>lat.=20.952187, lon.=107.053947, Alt.=-10.972298m. Speed=8.928000m/h.</desc>
<speed>2.480000</speed>
</trkpt>
<trkpt lat="20.952286" lon="107.053986">
<ele>-8.504768</ele>
<time>2011-04-30T09:05:30Z</time>
<desc>lat.=20.952286, lon.=107.053986, Alt.=-8.504768m. Speed=8.892000m/h.</desc>
<speed>2.470000</speed>
</trkpt>
<trkpt lat="20.952393" lon="107.054024">
<ele>-5.935246</ele>
<time>2011-04-30T09:05:35Z</time>
<desc>lat.=20.952393, lon.=107.054024, Alt.=-5.935246m. Speed=8.964000m/h.</desc>
<speed>2.490000</speed>
</trkpt>
<trkpt lat="20.952499" lon="107.054070">
<ele>-7.432438</ele>
<time>2011-04-30T09:05:40Z</time>
<desc>lat.=20.952499, lon.=107.054070, Alt.=-7.432438m. Speed=8.856000m/h.</desc>
<speed>2.460000</speed>
</trkpt>
<trkpt lat="20.952602" lon="107.054115">
<ele>-8.141243</ele>
<time>2011-04-30T09:05:45Z</time>
<desc>lat.=20.952602, lon.=107.054115, Alt.=-8.141243m. Speed=8.784000m/h.</desc>
<speed>2.440000</speed>
</trkpt>
<trkpt lat="20.952705" lon="107.054161">
<ele>-5.620426</ele>
<time>2011-04-30T09:05:50Z</time>
<desc>lat.=20.952705, lon.=107.054161, Alt.=-5.620426m. Speed=8.388000m/h.</desc>
<speed>2.330000</speed>
</trkpt>
<trkpt lat="20.952808" lon="107.054199">
<ele>-6.642521</ele>
<time>2011-04-30T09:05:55Z</time>
<desc>lat.=20.952808, lon.=107.054199, Alt.=-6.642521m. Speed=9.000000m/h.</desc>
<speed>2.500000</speed>
</trkpt>
<trkpt lat="20.952919" lon="107.054237">
<ele>-4.095646</ele>
<time>2011-04-30T09:06:00Z</time>
<desc>lat.=20.952919, lon.=107.054237, Alt.=-4.095646m. Speed=8.964000m/h.</desc>
<speed>2.490000</speed>
</trkpt>
<trkpt lat="20.953030" lon="107.054276">
<ele>-2.113192</ele>
<time>2011-04-30T09:06:05Z</time>
<desc>lat.=20.953030, lon.=107.054276, Alt.=-2.113192m. Speed=9.504000m/h.</desc>
<speed>2.640000</speed>
</trkpt>
<trkpt lat="20.953133" lon="107.054314">
<ele>-3.314058</ele>
<time>2011-04-30T09:06:10Z</time>
<desc>lat.=20.953133, lon.=107.054314, Alt.=-3.314058m. Speed=8.820000m/h.</desc>
<speed>2.450000</speed>
</trkpt>
<trkpt lat="20.953241" lon="107.054352">
<ele>-5.176701</ele>
<time>2011-04-30T09:06:15Z</time>
<desc>lat.=20.953241, lon.=107.054352, Alt.=-5.176701m. Speed=8.964000m/h.</desc>
<speed>2.490000</speed>
</trkpt>
<trkpt lat="20.953356" lon="107.054382">
<ele>-7.132389</ele>
<time>2011-04-30T09:06:20Z</time>
<desc>lat.=20.953356, lon.=107.054382, Alt.=-7.132389m. Speed=8.964000m/h.</desc>
<speed>2.490000</speed>
</trkpt>
<trkpt lat="20.953466" lon="107.054405">
<ele>-7.670475</ele>
<time>2011-04-30T09:06:25Z</time>
<desc>lat.=20.953466, lon.=107.054405, Alt.=-7.670475m. Speed=9.000000m/h.</desc>
<speed>2.500000</speed>
</trkpt>
<trkpt lat="20.953579" lon="107.054428">
<ele>-8.741341</ele>
<time>2011-04-30T09:06:30Z</time>
<desc>lat.=20.953579, lon.=107.054428, Alt.=-8.741341m. Speed=7.812000m/h.</desc>
<speed>2.170000</speed>
</trkpt>
<trkpt lat="20.953684" lon="107.054451">
<ele>-9.096565</ele>
<time>2011-04-30T09:06:35Z</time>
<desc>lat.=20.953684, lon.=107.054451, Alt.=-9.096565m. Speed=7.668000m/h.</desc>
<speed>2.130000</speed>
</trkpt>
<trkpt lat="20.953775" lon="107.054466">
<ele>-8.708138</ele>
<time>2011-04-30T09:06:40Z</time>
<desc>lat.=20.953775, lon.=107.054466, Alt.=-8.708138m. Speed=7.272000m/h.</desc>
<speed>2.020000</speed>
</trkpt>
<trkpt lat="20.953861" lon="107.054482">
<ele>-8.655403</ele>
<time>2011-04-30T09:06:45Z</time>
<desc>lat.=20.953861, lon.=107.054482, Alt.=-8.655403m. Speed=6.660000m/h.</desc>
<speed>1.850000</speed>
</trkpt>
<trkpt lat="20.953932" lon="107.054497">
<ele>-8.633919</ele>
<time>2011-04-30T09:06:50Z</time>
<desc>lat.=20.953932, lon.=107.054497, Alt.=-8.633919m. Speed=6.336000m/h.</desc>
<speed>1.760000</speed>
</trkpt>
<trkpt lat="20.954012" lon="107.054520">
<ele>-10.912971</ele>
<time>2011-04-30T09:06:55Z</time>
<desc>lat.=20.954012, lon.=107.054520, Alt.=-10.912971m. Speed=6.588000m/h.</desc>
<speed>1.830000</speed>
</trkpt>
<trkpt lat="20.954079" lon="107.054558">
<ele>-11.785530</ele>
<time>2011-04-30T09:07:00Z</time>
<desc>lat.=20.954079, lon.=107.054558, Alt.=-11.785530m. Speed=6.408000m/h.</desc>
<speed>1.780000</speed>
</trkpt>
<trkpt lat="20.954149" lon="107.054611">
<ele>-11.501595</ele>
<time>2011-04-30T09:07:05Z</time>
<desc>lat.=20.954149, lon.=107.054611, Alt.=-11.501595m. Speed=6.840000m/h.</desc>
<speed>1.900000</speed>
</trkpt>
<trkpt lat="20.954212" lon="107.054672">
<ele>-11.893929</ele>
<time>2011-04-30T09:07:10Z</time>
<desc>lat.=20.954212, lon.=107.054672, Alt.=-11.893929m. Speed=6.840000m/h.</desc>
<speed>1.900000</speed>
</trkpt>
<trkpt lat="20.954269" lon="107.054741">
<ele>-12.751839</ele>
<time>2011-04-30T09:07:15Z</time>
<desc>lat.=20.954269, lon.=107.054741, Alt.=-12.751839m. Speed=6.984000m/h.</desc>
<speed>1.940000</speed>
</trkpt>
<trkpt lat="20.954321" lon="107.054817">
<ele>-13.073616</ele>
<time>2011-04-30T09:07:20Z</time>
<desc>lat.=20.954321, lon.=107.054817, Alt.=-13.073616m. Speed=7.200000m/h.</desc>
<speed>2.000000</speed>
</trkpt>
<trkpt lat="20.954372" lon="107.054893">
<ele>-13.604378</ele>
<time>2011-04-30T09:07:25Z</time>
<desc>lat.=20.954372, lon.=107.054893, Alt.=-13.604378m. Speed=7.560000m/h.</desc>
<speed>2.100000</speed>
</trkpt>
<trkpt lat="20.954433" lon="107.054977">
<ele>-14.834358</ele>
<time>2011-04-30T09:07:30Z</time>
<desc>lat.=20.954433, lon.=107.054977, Alt.=-14.834358m. Speed=7.704000m/h.</desc>
<speed>2.140000</speed>
</trkpt>
<trkpt lat="20.954493" lon="107.055061">
<ele>-14.332649</ele>
<time>2011-04-30T09:07:35Z</time>
<desc>lat.=20.954493, lon.=107.055061, Alt.=-14.332649m. Speed=7.920000m/h.</desc>
<speed>2.200000</speed>
</trkpt>
<trkpt lat="20.954556" lon="107.055145">
<ele>-15.083870</ele>
<time>2011-04-30T09:07:40Z</time>
<desc>lat.=20.954556, lon.=107.055145, Alt.=-15.083870m. Speed=7.956000m/h.</desc>
<speed>2.210000</speed>
</trkpt>
<trkpt lat="20.954618" lon="107.055229">
<ele>-15.787239</ele>
<time>2011-04-30T09:07:45Z</time>
<desc>lat.=20.954618, lon.=107.055229, Alt.=-15.787239m. Speed=7.956000m/h.</desc>
<speed>2.210000</speed>
</trkpt>
<trkpt lat="20.954678" lon="107.055313">
<ele>-16.358170</ele>
<time>2011-04-30T09:07:50Z</time>
<desc>lat.=20.954678, lon.=107.055313, Alt.=-16.358170m. Speed=8.244000m/h.</desc>
<speed>2.290000</speed>
</trkpt>
<trkpt lat="20.954735" lon="107.055397">
<ele>-15.514290</ele>
<time>2011-04-30T09:07:55Z</time>
<desc>lat.=20.954735, lon.=107.055397, Alt.=-15.514290m. Speed=8.172000m/h.</desc>
<speed>2.270000</speed>
</trkpt>
<trkpt lat="20.954800" lon="107.055489">
<ele>-14.989876</ele>
<time>2011-04-30T09:08:00Z</time>
<desc>lat.=20.954800, lon.=107.055489, Alt.=-14.989876m. Speed=8.100000m/h.</desc>
<speed>2.250000</speed>
</trkpt>
<trkpt lat="20.954859" lon="107.055565">
<ele>-15.262825</ele>
<time>2011-04-30T09:08:05Z</time>
<desc>lat.=20.954859, lon.=107.055565, Alt.=-15.262825m. Speed=7.524000m/h.</desc>
<speed>2.090000</speed>
</trkpt>
<trkpt lat="20.954918" lon="107.055641">
<ele>-16.013443</ele>
<time>2011-04-30T09:08:10Z</time>
<desc>lat.=20.954918, lon.=107.055641, Alt.=-16.013443m. Speed=7.056000m/h.</desc>
<speed>1.960000</speed>
</trkpt>
<trkpt lat="20.954966" lon="107.055717">
<ele>-14.113411</ele>
<time>2011-04-30T09:08:15Z</time>
<desc>lat.=20.954966, lon.=107.055717, Alt.=-14.113411m. Speed=6.516000m/h.</desc>
<speed>1.810000</speed>
</trkpt>
<trkpt lat="20.955011" lon="107.055779">
<ele>-13.805794</ele>
<time>2011-04-30T09:08:20Z</time>
<desc>lat.=20.955011, lon.=107.055779, Alt.=-13.805794m. Speed=6.084000m/h.</desc>
<speed>1.690000</speed>
</trkpt>
<trkpt lat="20.955055" lon="107.055840">
<ele>-12.440804</ele>
<time>2011-04-30T09:08:25Z</time>
<desc>lat.=20.955055, lon.=107.055840, Alt.=-12.440804m. Speed=5.724000m/h.</desc>
<speed>1.590000</speed>
</trkpt>
<trkpt lat="20.955103" lon="107.055893">
<ele>-11.726204</ele>
<time>2011-04-30T09:08:30Z</time>
<desc>lat.=20.955103, lon.=107.055893, Alt.=-11.726204m. Speed=5.184000m/h.</desc>
<speed>1.440000</speed>
</trkpt>
<trkpt lat="20.955149" lon="107.055931">
<ele>-11.066292</ele>
<time>2011-04-30T09:08:35Z</time>
<desc>lat.=20.955149, lon.=107.055931, Alt.=-11.066292m. Speed=4.968000m/h.</desc>
<speed>1.380000</speed>
</trkpt>
<trkpt lat="20.955198" lon="107.055977">
<ele>-10.864632</ele>
<time>2011-04-30T09:08:40Z</time>
<desc>lat.=20.955198, lon.=107.055977, Alt.=-10.864632m. Speed=4.968000m/h.</desc>
<speed>1.380000</speed>
</trkpt>
<trkpt lat="20.955257" lon="107.056015">
<ele>-11.028206</ele>
<time>2011-04-30T09:08:45Z</time>
<desc>lat.=20.955257, lon.=107.056015, Alt.=-11.028206m. Speed=4.068000m/h.</desc>
<speed>1.130000</speed>
</trkpt>
<trkpt lat="20.955328" lon="107.056030">
<ele>-9.926155</ele>
<time>2011-04-30T09:08:50Z</time>
<desc>lat.=20.955328, lon.=107.056030, Alt.=-9.926155m. Speed=4.104000m/h.</desc>
<speed>1.140000</speed>
</trkpt>
<trkpt lat="20.955393" lon="107.056038">
<ele>-9.478889</ele>
<time>2011-04-30T09:08:55Z</time>
<desc>lat.=20.955393, lon.=107.056038, Alt.=-9.478889m. Speed=4.536000m/h.</desc>
<speed>1.260000</speed>
</trkpt>
<trkpt lat="20.955456" lon="107.056030">
<ele>-9.317757</ele>
<time>2011-04-30T09:09:00Z</time>
<desc>lat.=20.955456, lon.=107.056030, Alt.=-9.317757m. Speed=4.572000m/h.</desc>
<speed>1.270000</speed>
</trkpt>
<trkpt lat="20.955515" lon="107.056023">
<ele>-9.497932</ele>
<time>2011-04-30T09:09:05Z</time>
<desc>lat.=20.955515, lon.=107.056023, Alt.=-9.497932m. Speed=4.716000m/h.</desc>
<speed>1.310000</speed>
</trkpt>
<trkpt lat="20.955580" lon="107.056015">
<ele>-9.948372</ele>
<time>2011-04-30T09:09:10Z</time>
<desc>lat.=20.955580, lon.=107.056015, Alt.=-9.948372m. Speed=4.932000m/h.</desc>
<speed>1.370000</speed>
</trkpt>
<trkpt lat="20.955637" lon="107.055984">
<ele>-11.745491</ele>
<time>2011-04-30T09:09:15Z</time>
<desc>lat.=20.955637, lon.=107.055984, Alt.=-11.745491m. Speed=5.580000m/h.</desc>
<speed>1.550000</speed>
</trkpt>
<trkpt lat="20.955700" lon="107.055962">
<ele>-12.947639</ele>
<time>2011-04-30T09:09:20Z</time>
<desc>lat.=20.955700, lon.=107.055962, Alt.=-12.947639m. Speed=5.688000m/h.</desc>
<speed>1.580000</speed>
</trkpt>
<trkpt lat="20.955769" lon="107.055923">
<ele>-13.091438</ele>
<time>2011-04-30T09:09:25Z</time>
<desc>lat.=20.955769, lon.=107.055923, Alt.=-13.091438m. Speed=5.652000m/h.</desc>
<speed>1.570000</speed>
</trkpt>
<trkpt lat="20.955824" lon="107.055893">
<ele>-14.596809</ele>
<time>2011-04-30T09:09:30Z</time>
<desc>lat.=20.955824, lon.=107.055893, Alt.=-14.596809m. Speed=5.688000m/h.</desc>
<speed>1.580000</speed>
</trkpt>
<trkpt lat="20.955891" lon="107.055862">
<ele>-15.160042</ele>
<time>2011-04-30T09:09:35Z</time>
<desc>lat.=20.955891, lon.=107.055862, Alt.=-15.160042m. Speed=5.760000m/h.</desc>
<speed>1.600000</speed>
</trkpt>
<trkpt lat="20.955956" lon="107.055824">
<ele>-16.461685</ele>
<time>2011-04-30T09:09:40Z</time>
<desc>lat.=20.955956, lon.=107.055824, Alt.=-16.461685m. Speed=5.688000m/h.</desc>
<speed>1.580000</speed>
</trkpt>
<trkpt lat="20.956018" lon="107.055794">
<ele>-17.495865</ele>
<time>2011-04-30T09:09:45Z</time>
<desc>lat.=20.956018, lon.=107.055794, Alt.=-17.495865m. Speed=5.364000m/h.</desc>
<speed>1.490000</speed>
</trkpt>
<trkpt lat="20.956083" lon="107.055763">
<ele>-18.853775</ele>
<time>2011-04-30T09:09:50Z</time>
<desc>lat.=20.956083, lon.=107.055763, Alt.=-18.853775m. Speed=5.112000m/h.</desc>
<speed>1.420000</speed>
</trkpt>
<trkpt lat="20.956142" lon="107.055733">
<ele>-19.706802</ele>
<time>2011-04-30T09:09:55Z</time>
<desc>lat.=20.956142, lon.=107.055733, Alt.=-19.706802m. Speed=4.176000m/h.</desc>
<speed>1.160000</speed>
</trkpt>
<trkpt lat="20.956184" lon="107.055710">
<ele>-19.555435</ele>
<time>2011-04-30T09:10:00Z</time>
<desc>lat.=20.956184, lon.=107.055710, Alt.=-19.555435m. Speed=3.744000m/h.</desc>
<speed>1.040000</speed>
</trkpt>
<trkpt lat="20.956223" lon="107.055695">
<ele>-19.136978</ele>
<time>2011-04-30T09:10:05Z</time>
<desc>lat.=20.956223, lon.=107.055695, Alt.=-19.136978m. Speed=2.520000m/h.</desc>
<speed>0.700000</speed>
</trkpt>
<trkpt lat="20.956244" lon="107.055679">
<ele>-18.687759</ele>
<time>2011-04-30T09:10:10Z</time>
<desc>lat.=20.956244, lon.=107.055679, Alt.=-18.687759m. Speed=1.764000m/h.</desc>
<speed>0.490000</speed>
</trkpt>
<trkpt lat="20.956257" lon="107.055672">
<ele>-17.269302</ele>
<time>2011-04-30T09:10:15Z</time>
<desc>lat.=20.956257, lon.=107.055672, Alt.=-17.269302m. Speed=1.152000m/h.</desc>
<speed>0.320000</speed>
</trkpt>
<trkpt lat="20.956266" lon="107.055679">
<ele>-15.672737</ele>
<time>2011-04-30T09:10:20Z</time>
<desc>lat.=20.956266, lon.=107.055679, Alt.=-15.672737m. Speed=0.756000m/h.</desc>
<speed>0.210000</speed>
</trkpt>
<trkpt lat="20.956276" lon="107.055656">
<ele>-13.122932</ele>
<time>2011-04-30T09:10:25Z</time>
<desc>lat.=20.956276, lon.=107.055656, Alt.=-13.122932m. Speed=2.016000m/h.</desc>
<speed>0.560000</speed>
</trkpt>
<trkpt lat="20.956268" lon="107.055634">
<ele>-9.235970</ele>
<time>2011-04-30T09:10:30Z</time>
<desc>lat.=20.956268, lon.=107.055634, Alt.=-9.235970m. Speed=0.936000m/h.</desc>
<speed>0.260000</speed>
</trkpt>
<trkpt lat="20.956253" lon="107.055634">
<ele>-7.962589</ele>
<time>2011-04-30T09:10:35Z</time>
<desc>lat.=20.956253, lon.=107.055634, Alt.=-7.962589m. Speed=0.252000m/h.</desc>
<speed>0.070000</speed>
</trkpt>
<trkpt lat="20.956251" lon="107.055611">
<ele>-7.420719</ele>
<time>2011-04-30T09:10:40Z</time>
<desc>lat.=20.956251, lon.=107.055611, Alt.=-7.420719m. Speed=0.360000m/h.</desc>
<speed>0.100000</speed>
</trkpt>
<trkpt lat="20.956253" lon="107.055618">
<ele>-7.416569</ele>
<time>2011-04-30T09:10:45Z</time>
<desc>lat.=20.956253, lon.=107.055618, Alt.=-7.416569m. Speed=0.108000m/h.</desc>
<speed>0.030000</speed>
</trkpt>
<trkpt lat="20.956253" lon="107.055618">
<ele>-7.314762</ele>
<time>2011-04-30T09:10:50Z</time>
<desc>lat.=20.956253, lon.=107.055618, Alt.=-7.314762m. Speed=0.288000m/h.</desc>
<speed>0.080000</speed>
</trkpt>
<trkpt lat="20.956249" lon="107.055618">
<ele>-7.281559</ele>
<time>2011-04-30T09:10:55Z</time>
<desc>lat.=20.956249, lon.=107.055618, Alt.=-7.281559m. Speed=0.072000m/h.</desc>
<speed>0.020000</speed>
</trkpt>
<trkpt lat="20.956251" lon="107.055618">
<ele>-7.304996</ele>
<time>2011-04-30T09:11:00Z</time>
<desc>lat.=20.956251, lon.=107.055618, Alt.=-7.304996m. Speed=0.108000m/h.</desc>
<speed>0.030000</speed>
</trkpt>
<trkpt lat="20.956251" lon="107.055618">
<ele>-7.285831</ele>
<time>2011-04-30T09:11:05Z</time>
<desc>lat.=20.956251, lon.=107.055618, Alt.=-7.285831m. Speed=1.188000m/h.</desc>
<speed>0.330000</speed>
</trkpt>
<trkpt lat="20.956266" lon="107.055603">
<ele>-8.148567</ele>
<time>2011-04-30T09:11:10Z</time>
<desc>lat.=20.956266, lon.=107.055603, Alt.=-8.148567m. Speed=2.016000m/h.</desc>
<speed>0.560000</speed>
</trkpt>
<trkpt lat="20.956276" lon="107.055603">
<ele>-8.286751</ele>
<time>2011-04-30T09:11:15Z</time>
<desc>lat.=20.956276, lon.=107.055603, Alt.=-8.286751m. Speed=1.116000m/h.</desc>
<speed>0.310000</speed>
</trkpt>
<trkpt lat="20.956284" lon="107.055595">
<ele>-7.607731</ele>
<time>2011-04-30T09:11:20Z</time>
<desc>lat.=20.956284, lon.=107.055595, Alt.=-7.607731m. Speed=0.648000m/h.</desc>
<speed>0.180000</speed>
</trkpt>
<trkpt lat="20.956280" lon="107.055603">
<ele>-7.005924</ele>
<time>2011-04-30T09:11:25Z</time>
<desc>lat.=20.956280, lon.=107.055603, Alt.=-7.005924m. Speed=0.216000m/h.</desc>
<speed>0.060000</speed>
</trkpt>
<trkpt lat="20.956282" lon="107.055603">
<ele>-6.678165</ele>
<time>2011-04-30T09:11:30Z</time>
<desc>lat.=20.956282, lon.=107.055603, Alt.=-6.678165m. Speed=0.648000m/h.</desc>
<speed>0.180000</speed>
</trkpt>
<trkpt lat="20.956291" lon="107.055588">
<ele>-6.426945</ele>
<time>2011-04-30T09:11:35Z</time>
<desc>lat.=20.956291, lon.=107.055588, Alt.=-6.426945m. Speed=1.080000m/h.</desc>
<speed>0.300000</speed>
</trkpt>
<trkpt lat="20.956295" lon="107.055573">
<ele>-6.884464</ele>
<time>2011-04-30T09:11:40Z</time>
<desc>lat.=20.956295, lon.=107.055573, Alt.=-6.884464m. Speed=0.468000m/h.</desc>
<speed>0.130000</speed>
</trkpt>
<trkpt lat="20.956293" lon="107.055573">
<ele>-6.585270</ele>
<time>2011-04-30T09:11:45Z</time>
<desc>lat.=20.956293, lon.=107.055573, Alt.=-6.585270m. Speed=0.432000m/h.</desc>
<speed>0.120000</speed>
</trkpt>
<trkpt lat="20.956301" lon="107.055565">
<ele>-6.610416</ele>
<time>2011-04-30T09:11:50Z</time>
<desc>lat.=20.956301, lon.=107.055565, Alt.=-6.610416m. Speed=1.764000m/h.</desc>
<speed>0.490000</speed>
</trkpt>
<trkpt lat="20.956324" lon="107.055565">
<ele>-7.101383</ele>
<time>2011-04-30T09:11:55Z</time>
<desc>lat.=20.956324, lon.=107.055565, Alt.=-7.101383m. Speed=1.116000m/h.</desc>
<speed>0.310000</speed>
</trkpt>
<trkpt lat="20.956341" lon="107.055542">
<ele>-7.135197</ele>
<time>2011-04-30T09:12:00Z</time>
<desc>lat.=20.956341, lon.=107.055542, Alt.=-7.135197m. Speed=0.540000m/h.</desc>
<speed>0.150000</speed>
</trkpt>
<trkpt lat="20.956345" lon="107.055565">
<ele>-5.364811</ele>
<time>2011-04-30T09:12:05Z</time>
<desc>lat.=20.956345, lon.=107.055565, Alt.=-5.364811m. Speed=1.332000m/h.</desc>
<speed>0.370000</speed>
</trkpt>
<trkpt lat="20.956362" lon="107.055588">
<ele>-5.155460</ele>
<time>2011-04-30T09:12:10Z</time>
<desc>lat.=20.956362, lon.=107.055588, Alt.=-5.155460m. Speed=0.576000m/h.</desc>
<speed>0.160000</speed>
</trkpt>
<trkpt lat="20.956362" lon="107.055595">
<ele>-4.234928</ele>
<time>2011-04-30T09:12:15Z</time>
<desc>lat.=20.956362, lon.=107.055595, Alt.=-4.234928m. Speed=0.252000m/h.</desc>
<speed>0.070000</speed>
</trkpt>
<trkpt lat="20.956369" lon="107.055595">
<ele>-3.612520</ele>
<time>2011-04-30T09:12:20Z</time>
<desc>lat.=20.956369, lon.=107.055595, Alt.=-3.612520m. Speed=2.772000m/h.</desc>
<speed>0.770000</speed>
</trkpt>
<trkpt lat="20.956377" lon="107.055641">
<ele>-2.966036</ele>
<time>2011-04-30T09:12:25Z</time>
<desc>lat.=20.956377, lon.=107.055641, Alt.=-2.966036m. Speed=3.960000m/h.</desc>
<speed>1.100000</speed>
</trkpt>
<trkpt lat="20.956392" lon="107.055695">
<ele>0.457264</ele>
<time>2011-04-30T09:12:30Z</time>
<desc>lat.=20.956392, lon.=107.055695, Alt.=0.457264m. Speed=1.440000m/h.</desc>
<speed>0.400000</speed>
</trkpt>
<trkpt lat="20.956392" lon="107.055733">
<ele>1.667924</ele>
<time>2011-04-30T09:12:35Z</time>
<desc>lat.=20.956392, lon.=107.055733, Alt.=1.667924m. Speed=2.232000m/h.</desc>
<speed>0.620000</speed>
</trkpt>
<trkpt lat="20.956394" lon="107.055763">
<ele>2.080843</ele>
<time>2011-04-30T09:12:40Z</time>
<desc>lat.=20.956394, lon.=107.055763, Alt.=2.080843m. Speed=1.728000m/h.</desc>
<speed>0.480000</speed>
</trkpt>
<trkpt lat="20.956388" lon="107.055779">
<ele>2.695589</ele>
<time>2011-04-30T09:12:45Z</time>
<desc>lat.=20.956388, lon.=107.055779, Alt.=2.695589m. Speed=0.360000m/h.</desc>
<speed>0.100000</speed>
</trkpt>
<trkpt lat="20.956383" lon="107.055779">
<ele>2.837862</ele>
<time>2011-04-30T09:12:50Z</time>
<desc>lat.=20.956383, lon.=107.055779, Alt.=2.837862m. Speed=0.540000m/h.</desc>
<speed>0.150000</speed>
</trkpt>
<trkpt lat="20.956385" lon="107.055779">
<ele>2.738314</ele>
<time>2011-04-30T09:12:55Z</time>
<desc>lat.=20.956385, lon.=107.055779, Alt.=2.738314m. Speed=0.648000m/h.</desc>
<speed>0.180000</speed>
</trkpt>
<trkpt lat="20.956385" lon="107.055779">
<ele>2.861177</ele>
<time>2011-04-30T09:13:00Z</time>
<desc>lat.=20.956385, lon.=107.055779, Alt.=2.861177m. Speed=0.324000m/h.</desc>
<speed>0.090000</speed>
</trkpt>
<trkpt lat="20.956381" lon="107.055794">
<ele>3.155367</ele>
<time>2011-04-30T09:13:05Z</time>
<desc>lat.=20.956381, lon.=107.055794, Alt.=3.155367m. Speed=1.584000m/h.</desc>
<speed>0.440000</speed>
</trkpt>
<trkpt lat="20.956377" lon="107.055809">
<ele>3.673250</ele>
<time>2011-04-30T09:13:10Z</time>
<desc>lat.=20.956377, lon.=107.055809, Alt.=3.673250m. Speed=0.180000m/h.</desc>
<speed>0.050000</speed>
</trkpt>
<trkpt lat="20.956377" lon="107.055817">
<ele>3.569857</ele>
<time>2011-04-30T09:13:15Z</time>
<desc>lat.=20.956377, lon.=107.055817, Alt.=3.569857m. Speed=0.432000m/h.</desc>
<speed>0.120000</speed>
</trkpt>
<trkpt lat="20.956381" lon="107.055817">
<ele>3.807772</ele>
<time>2011-04-30T09:13:20Z</time>
<desc>lat.=20.956381, lon.=107.055817, Alt.=3.807772m. Speed=0.684000m/h.</desc>
<speed>0.190000</speed>
</trkpt>
<trkpt lat="20.956379" lon="107.055832">
<ele>3.968599</ele>
<time>2011-04-30T09:13:25Z</time>
<desc>lat.=20.956379, lon.=107.055832, Alt.=3.968599m. Speed=0.360000m/h.</desc>
<speed>0.100000</speed>
</trkpt>
<trkpt lat="20.956379" lon="107.055840">
<ele>4.007633</ele>
<time>2011-04-30T09:13:30Z</time>
<desc>lat.=20.956379, lon.=107.055840, Alt.=4.007633m. Speed=0.936000m/h.</desc>
<speed>0.260000</speed>
</trkpt>
<trkpt lat="20.956375" lon="107.055840">
<ele>4.153996</ele>
<time>2011-04-30T09:13:35Z</time>
<desc>lat.=20.956375, lon.=107.055840, Alt.=4.153996m. Speed=0.576000m/h.</desc>
<speed>0.160000</speed>
</trkpt>
<trkpt lat="20.956379" lon="107.055862">
<ele>3.630465</ele>
<time>2011-04-30T09:13:40Z</time>
<desc>lat.=20.956379, lon.=107.055862, Alt.=3.630465m. Speed=0.648000m/h.</desc>
<speed>0.180000</speed>
</trkpt>
<trkpt lat="20.956379" lon="107.055878">
<ele>3.248079</ele>
<time>2011-04-30T09:13:45Z</time>
<desc>lat.=20.956379, lon.=107.055878, Alt.=3.248079m. Speed=0.288000m/h.</desc>
<speed>0.080000</speed>
</trkpt>
<trkpt lat="20.956379" lon="107.055878">
<ele>3.242830</ele>
<time>2011-04-30T09:13:50Z</time>
<desc>lat.=20.956379, lon.=107.055878, Alt.=3.242830m. Speed=1.008000m/h.</desc>
<speed>0.280000</speed>
</trkpt>
<trkpt lat="20.956383" lon="107.055870">
<ele>2.592318</ele>
<time>2011-04-30T09:13:55Z</time>
<desc>lat.=20.956383, lon.=107.055870, Alt.=2.592318m. Speed=0.756000m/h.</desc>
<speed>0.210000</speed>
</trkpt>
<trkpt lat="20.956381" lon="107.055870">
<ele>2.481600</ele>
<time>2011-04-30T09:14:00Z</time>
<desc>lat.=20.956381, lon.=107.055870, Alt.=2.481600m. Speed=0.324000m/h.</desc>
<speed>0.090000</speed>
</trkpt>
<trkpt lat="20.956379" lon="107.055870">
<ele>2.438143</ele>
<time>2011-04-30T09:14:05Z</time>
<desc>lat.=20.956379, lon.=107.055870, Alt.=2.438143m. Speed=0.108000m/h.</desc>
<speed>0.030000</speed>
</trkpt>
<trkpt lat="20.956377" lon="107.055870">
<ele>2.394258</ele>
<time>2011-04-30T09:14:10Z</time>
<desc>lat.=20.956377, lon.=107.055870, Alt.=2.394258m. Speed=0.288000m/h.</desc>
<speed>0.080000</speed>
</trkpt>
<trkpt lat="20.956377" lon="107.055870">
<ele>2.354036</ele>
<time>2011-04-30T09:14:15Z</time>
<desc>lat.=20.956377, lon.=107.055870, Alt.=2.354036m. Speed=0.108000m/h.</desc>
<speed>0.030000</speed>
</trkpt>
<trkpt lat="20.956379" lon="107.055870">
<ele>2.335115</ele>
<time>2011-04-30T09:14:20Z</time>
<desc>lat.=20.956379, lon.=107.055870, Alt.=2.335115m. Speed=0.036000m/h.</desc>
<speed>0.010000</speed>
</trkpt>
<trkpt lat="20.956377" lon="107.055870">
<ele>2.342501</ele>
<time>2011-04-30T09:14:25Z</time>
<desc>lat.=20.956377, lon.=107.055870, Alt.=2.342501m. Speed=0.072000m/h.</desc>
<speed>0.020000</speed>
</trkpt>
<trkpt lat="20.956379" lon="107.055870">
<ele>2.329378</ele>
<time>2011-04-30T09:14:30Z</time>
<desc>lat.=20.956379, lon.=107.055870, Alt.=2.329378m. Speed=1.692000m/h.</desc>
<speed>0.470000</speed>
</trkpt>
<trkpt lat="20.956375" lon="107.055893">
<ele>2.563753</ele>
<time>2011-04-30T09:14:35Z</time>
<desc>lat.=20.956375, lon.=107.055893, Alt.=2.563753m. Speed=1.584000m/h.</desc>
<speed>0.440000</speed>
</trkpt>
<trkpt lat="20.956377" lon="107.055908">
<ele>1.343583</ele>
<time>2011-04-30T09:14:40Z</time>
<desc>lat.=20.956377, lon.=107.055908, Alt.=1.343583m. Speed=0.360000m/h.</desc>
<speed>0.100000</speed>
</trkpt>
<trkpt lat="20.956377" lon="107.055908">
<ele>1.340806</ele>
<time>2011-04-30T09:14:45Z</time>
<desc>lat.=20.956377, lon.=107.055908, Alt.=1.340806m. Speed=0.036000m/h.</desc>
<speed>0.010000</speed>
</trkpt>
<trkpt lat="20.956377" lon="107.055908">
<ele>1.283128</ele>
<time>2011-04-30T09:14:50Z</time>
<desc>lat.=20.956377, lon.=107.055908, Alt.=1.283128m. Speed=0.000000m/h.</desc>
<speed>0.000000</speed>
</trkpt>
<trkpt lat="20.956377" lon="107.055908">
<ele>1.281388</ele>
<time>2011-04-30T09:14:55Z</time>
<desc>lat.=20.956377, lon.=107.055908, Alt.=1.281388m. Speed=0.036000m/h.</desc>
<speed>0.010000</speed>
</trkpt>
<trkpt lat="20.956377" lon="107.055908">
<ele>1.280534</ele>
<time>2011-04-30T09:15:00Z</time>
<desc>lat.=20.956377, lon.=107.055908, Alt.=1.280534m. Speed=0.036000m/h.</desc>
<speed>0.010000</speed>
</trkpt>
<trkpt lat="20.956375" lon="107.055908">
<ele>1.281419</ele>
<time>2011-04-30T09:15:05Z</time>
<desc>lat.=20.956375, lon.=107.055908, Alt.=1.281419m. Speed=0.504000m/h.</desc>
<speed>0.140000</speed>
</trkpt>
<trkpt lat="20.956377" lon="107.055916">
<ele>1.298387</ele>
<time>2011-04-30T09:15:10Z</time>
<desc>lat.=20.956377, lon.=107.055916, Alt.=1.298387m. Speed=0.180000m/h.</desc>
<speed>0.050000</speed>
</trkpt>
<trkpt lat="20.956375" lon="107.055916">
<ele>1.299058</ele>
<time>2011-04-30T09:15:15Z</time>
<desc>lat.=20.956375, lon.=107.055916, Alt.=1.299058m. Speed=0.072000m/h.</desc>
<speed>0.020000</speed>
</trkpt>
<trkpt lat="20.956375" lon="107.055916">
<ele>1.315232</ele>
<time>2011-04-30T09:15:20Z</time>
<desc>lat.=20.956375, lon.=107.055916, Alt.=1.315232m. Speed=0.000000m/h.</desc>
<speed>0.000000</speed>
</trkpt>
<trkpt lat="20.956375" lon="107.055916">
<ele>1.317369</ele>
<time>2011-04-30T09:15:25Z</time>
<desc>lat.=20.956375, lon.=107.055916, Alt.=1.317369m. Speed=0.000000m/h.</desc>
<speed>0.000000</speed>
</trkpt>
<trkpt lat="20.956375" lon="107.055916">
<ele>1.310166</ele>
<time>2011-04-30T09:15:30Z</time>
<desc>lat.=20.956375, lon.=107.055916, Alt.=1.310166m. Speed=0.360000m/h.</desc>
<speed>0.100000</speed>
</trkpt>
<trkpt lat="20.956375" lon="107.055916">
<ele>1.285996</ele>
<time>2011-04-30T09:15:35Z</time>
<desc>lat.=20.956375, lon.=107.055916, Alt.=1.285996m. Speed=0.000000m/h.</desc>
<speed>0.000000</speed>
</trkpt>
<trkpt lat="20.956375" lon="107.055916">
<ele>1.276170</ele>
<time>2011-04-30T09:15:40Z</time>
<desc>lat.=20.956375, lon.=107.055916, Alt.=1.276170m. Speed=0.036000m/h.</desc>
<speed>0.010000</speed>
</trkpt>
<trkpt lat="20.956375" lon="107.055916">
<ele>1.276689</ele>
<time>2011-04-30T09:15:45Z</time>
<desc>lat.=20.956375, lon.=107.055916, Alt.=1.276689m. Speed=0.144000m/h.</desc>
<speed>0.040000</speed>
</trkpt>
<trkpt lat="20.956375" lon="107.055916">
<ele>1.279191</ele>
<time>2011-04-30T09:15:50Z</time>
<desc>lat.=20.956375, lon.=107.055916, Alt.=1.279191m. Speed=0.000000m/h.</desc>
<speed>0.000000</speed>
</trkpt>
<trkpt lat="20.956375" lon="107.055916">
<ele>1.285111</ele>
<time>2011-04-30T09:15:55Z</time>
<desc>lat.=20.956375, lon.=107.055916, Alt.=1.285111m. Speed=0.036000m/h.</desc>
<speed>0.010000</speed>
</trkpt>
<trkpt lat="20.956375" lon="107.055916">
<ele>1.278001</ele>
<time>2011-04-30T09:16:00Z</time>
<desc>lat.=20.956375, lon.=107.055916, Alt.=1.278001m. Speed=0.036000m/h.</desc>
<speed>0.010000</speed>
</trkpt>
<trkpt lat="20.956375" lon="107.055916">
<ele>1.272416</ele>
<time>2011-04-30T09:16:05Z</time>
<desc>lat.=20.956375, lon.=107.055916, Alt.=1.272416m. Speed=0.036000m/h.</desc>
<speed>0.010000</speed>
</trkpt>
<trkpt lat="20.956375" lon="107.055916">
<ele>1.281114</ele>
<time>2011-04-30T09:16:10Z</time>
<desc>lat.=20.956375, lon.=107.055916, Alt.=1.281114m. Speed=0.000000m/h.</desc>
<speed>0.000000</speed>
</trkpt>
<trkpt lat="20.956375" lon="107.055916">
<ele>1.291093</ele>
<time>2011-04-30T09:16:15Z</time>
<desc>lat.=20.956375, lon.=107.055916, Alt.=1.291093m. Speed=0.072000m/h.</desc>
<speed>0.020000</speed>
</trkpt>
<trkpt lat="20.956373" lon="107.055908">
<ele>1.265794</ele>
<time>2011-04-30T09:16:20Z</time>
<desc>lat.=20.956373, lon.=107.055908, Alt.=1.265794m. Speed=1.296000m/h.</desc>
<speed>0.360000</speed>
</trkpt>
<trkpt lat="20.956387" lon="107.055893">
<ele>0.621422</ele>
<time>2011-04-30T09:16:25Z</time>
<desc>lat.=20.956387, lon.=107.055893, Alt.=0.621422m. Speed=0.468000m/h.</desc>
<speed>0.130000</speed>
</trkpt>
<trkpt lat="20.956379" lon="107.055885">
<ele>0.675423</ele>
<time>2011-04-30T09:16:30Z</time>
<desc>lat.=20.956379, lon.=107.055885, Alt.=0.675423m. Speed=0.432000m/h.</desc>
<speed>0.120000</speed>
</trkpt>
<trkpt lat="20.956377" lon="107.055878">
<ele>0.695427</ele>
<time>2011-04-30T09:16:35Z</time>
<desc>lat.=20.956377, lon.=107.055878, Alt.=0.695427m. Speed=0.072000m/h.</desc>
<speed>0.020000</speed>
</trkpt>
<trkpt lat="20.956377" lon="107.055885">
<ele>0.685982</ele>
<time>2011-04-30T09:16:40Z</time>
<desc>lat.=20.956377, lon.=107.055885, Alt.=0.685982m. Speed=0.180000m/h.</desc>
<speed>0.050000</speed>
</trkpt>
<trkpt lat="20.956373" lon="107.055885">
<ele>0.467320</ele>
<time>2011-04-30T09:16:45Z</time>
<desc>lat.=20.956373, lon.=107.055885, Alt.=0.467320m. Speed=0.396000m/h.</desc>
<speed>0.110000</speed>
</trkpt>
<trkpt lat="20.956383" lon="107.055885">
<ele>-0.061681</ele>
<time>2011-04-30T09:16:50Z</time>
<desc>lat.=20.956383, lon.=107.055885, Alt.=-0.061681m. Speed=0.684000m/h.</desc>
<speed>0.190000</speed>
</trkpt>
<trkpt lat="20.956390" lon="107.055908">
<ele>0.972588</ele>
<time>2011-04-30T09:16:55Z</time>
<desc>lat.=20.956390, lon.=107.055908, Alt.=0.972588m. Speed=2.304000m/h.</desc>
<speed>0.640000</speed>
</trkpt>
<trkpt lat="20.956385" lon="107.055916">
<ele>1.779099</ele>
<time>2011-04-30T09:17:00Z</time>
<desc>lat.=20.956385, lon.=107.055916, Alt.=1.779099m. Speed=0.576000m/h.</desc>
<speed>0.160000</speed>
</trkpt>
<trkpt lat="20.956383" lon="107.055923">
<ele>2.007967</ele>
<time>2011-04-30T09:17:05Z</time>
<desc>lat.=20.956383, lon.=107.055923, Alt.=2.007967m. Speed=0.144000m/h.</desc>
<speed>0.040000</speed>
</trkpt>
<trkpt lat="20.956385" lon="107.055923">
<ele>2.075045</ele>
<time>2011-04-30T09:17:10Z</time>
<desc>lat.=20.956385, lon.=107.055923, Alt.=2.075045m. Speed=0.108000m/h.</desc>
<speed>0.030000</speed>
</trkpt>
<trkpt lat="20.956381" lon="107.055916">
<ele>2.194674</ele>
<time>2011-04-30T09:17:15Z</time>
<desc>lat.=20.956381, lon.=107.055916, Alt.=2.194674m. Speed=0.684000m/h.</desc>
<speed>0.190000</speed>
</trkpt>
<trkpt lat="20.956375" lon="107.055916">
<ele>2.377779</ele>
<time>2011-04-30T09:17:20Z</time>
<desc>lat.=20.956375, lon.=107.055916, Alt.=2.377779m. Speed=0.684000m/h.</desc>
<speed>0.190000</speed>
</trkpt>
<trkpt lat="20.956375" lon="107.055908">
<ele>2.443636</ele>
<time>2011-04-30T09:17:25Z</time>
<desc>lat.=20.956375, lon.=107.055908, Alt.=2.443636m. Speed=0.288000m/h.</desc>
<speed>0.080000</speed>
</trkpt>
<trkpt lat="20.956371" lon="107.055908">
<ele>2.370577</ele>
<time>2011-04-30T09:17:30Z</time>
<desc>lat.=20.956371, lon.=107.055908, Alt.=2.370577m. Speed=1.404000m/h.</desc>
<speed>0.390000</speed>
</trkpt>
<trkpt lat="20.956362" lon="107.055923">
<ele>2.662569</ele>
<time>2011-04-30T09:17:35Z</time>
<desc>lat.=20.956362, lon.=107.055923, Alt.=2.662569m. Speed=0.648000m/h.</desc>
<speed>0.180000</speed>
</trkpt>
<trkpt lat="20.956360" lon="107.055923">
<ele>2.978975</ele>
<time>2011-04-30T09:17:40Z</time>
<desc>lat.=20.956360, lon.=107.055923, Alt.=2.978975m. Speed=0.216000m/h.</desc>
<speed>0.060000</speed>
</trkpt>
<trkpt lat="20.956356" lon="107.055923">
<ele>3.154818</ele>
<time>2011-04-30T09:17:45Z</time>
<desc>lat.=20.956356, lon.=107.055923, Alt.=3.154818m. Speed=0.180000m/h.</desc>
<speed>0.050000</speed>
</trkpt>
<trkpt lat="20.956367" lon="107.055939">
<ele>3.337069</ele>
<time>2011-04-30T09:17:50Z</time>
<desc>lat.=20.956367, lon.=107.055939, Alt.=3.337069m. Speed=4.284000m/h.</desc>
<speed>1.190000</speed>
</trkpt>
<trkpt lat="20.956413" lon="107.055977">
<ele>2.655306</ele>
<time>2011-04-30T09:17:55Z</time>
<desc>lat.=20.956413, lon.=107.055977, Alt.=2.655306m. Speed=2.772000m/h.</desc>
<speed>0.770000</speed>
</trkpt>
<trkpt lat="20.956434" lon="107.056030">
<ele>2.386690</ele>
<time>2011-04-30T09:18:00Z</time>
<desc>lat.=20.956434, lon.=107.056030, Alt.=2.386690m. Speed=2.448000m/h.</desc>
<speed>0.680000</speed>
</trkpt>
<trkpt lat="20.956459" lon="107.056068">
<ele>3.201448</ele>
<time>2011-04-30T09:18:05Z</time>
<desc>lat.=20.956459, lon.=107.056068, Alt.=3.201448m. Speed=2.952000m/h.</desc>
<speed>0.820000</speed>
</trkpt>
<trkpt lat="20.956459" lon="107.056099">
<ele>4.188663</ele>
<time>2011-04-30T09:18:10Z</time>
<desc>lat.=20.956459, lon.=107.056099, Alt.=4.188663m. Speed=1.728000m/h.</desc>
<speed>0.480000</speed>
</trkpt>
<trkpt lat="20.956451" lon="107.056122">
<ele>4.780460</ele>
<time>2011-04-30T09:18:15Z</time>
<desc>lat.=20.956451, lon.=107.056122, Alt.=4.780460m. Speed=1.656000m/h.</desc>
<speed>0.460000</speed>
</trkpt>
<trkpt lat="20.956455" lon="107.056145">
<ele>3.879793</ele>
<time>2011-04-30T09:18:20Z</time>
<desc>lat.=20.956455, lon.=107.056145, Alt.=3.879793m. Speed=2.016000m/h.</desc>
<speed>0.560000</speed>
</trkpt>
<trkpt lat="20.956488" lon="107.056190">
<ele>2.475740</ele>
<time>2011-04-30T09:18:25Z</time>
<desc>lat.=20.956488, lon.=107.056190, Alt.=2.475740m. Speed=2.196000m/h.</desc>
<speed>0.610000</speed>
</trkpt>
<trkpt lat="20.956493" lon="107.056244">
<ele>0.978188</ele>
<time>2011-04-30T09:18:30Z</time>
<desc>lat.=20.956493, lon.=107.056244, Alt.=0.978188m. Speed=2.808000m/h.</desc>
<speed>0.780000</speed>
</trkpt>
<trkpt lat="20.956503" lon="107.056274">
<ele>0.331234</ele>
<time>2011-04-30T09:18:35Z</time>
<desc>lat.=20.956503, lon.=107.056274, Alt.=0.331234m. Speed=0.144000m/h.</desc>
<speed>0.040000</speed>
</trkpt>
<trkpt lat="20.956512" lon="107.056305">
<ele>-0.554207</ele>
<time>2011-04-30T09:18:40Z</time>
<desc>lat.=20.956512, lon.=107.056305, Alt.=-0.554207m. Speed=2.844000m/h.</desc>
<speed>0.790000</speed>
</trkpt>
<trkpt lat="20.956512" lon="107.056343">
<ele>-0.518227</ele>
<time>2011-04-30T09:18:45Z</time>
<desc>lat.=20.956512, lon.=107.056343, Alt.=-0.518227m. Speed=1.080000m/h.</desc>
<speed>0.300000</speed>
</trkpt>
<trkpt lat="20.956516" lon="107.056320">
<ele>-0.994576</ele>
<time>2011-04-30T09:18:50Z</time>
<desc>lat.=20.956516, lon.=107.056320, Alt.=-0.994576m. Speed=1.368000m/h.</desc>
<speed>0.380000</speed>
</trkpt>
<trkpt lat="20.956522" lon="107.056313">
<ele>-0.248739</ele>
<time>2011-04-30T09:18:55Z</time>
<desc>lat.=20.956522, lon.=107.056313, Alt.=-0.248739m. Speed=0.792000m/h.</desc>
<speed>0.220000</speed>
</trkpt>
<trkpt lat="20.956522" lon="107.056320">
<ele>-0.220663</ele>
<time>2011-04-30T09:19:00Z</time>
<desc>lat.=20.956522, lon.=107.056320, Alt.=-0.220663m. Speed=1.440000m/h.</desc>
<speed>0.400000</speed>
</trkpt>
<trkpt lat="20.956512" lon="107.056328">
<ele>-0.568963</ele>
<time>2011-04-30T09:19:05Z</time>
<desc>lat.=20.956512, lon.=107.056328, Alt.=-0.568963m. Speed=0.972000m/h.</desc>
<speed>0.270000</speed>
</trkpt>
<trkpt lat="20.956512" lon="107.056335">
<ele>-1.229753</ele>
<time>2011-04-30T09:19:10Z</time>
<desc>lat.=20.956512, lon.=107.056335, Alt.=-1.229753m. Speed=0.252000m/h.</desc>
<speed>0.070000</speed>
</trkpt>
<trkpt lat="20.956511" lon="107.056335">
<ele>-1.564164</ele>
<time>2011-04-30T09:19:15Z</time>
<desc>lat.=20.956511, lon.=107.056335, Alt.=-1.564164m. Speed=1.584000m/h.</desc>
<speed>0.440000</speed>
</trkpt>
<trkpt lat="20.956543" lon="107.056404">
<ele>-2.564730</ele>
<time>2011-04-30T09:19:20Z</time>
<desc>lat.=20.956543, lon.=107.056404, Alt.=-2.564730m. Speed=3.780000m/h.</desc>
<speed>1.050000</speed>
</trkpt>
<trkpt lat="20.956551" lon="107.056450">
<ele>-2.213228</ele>
<time>2011-04-30T09:19:25Z</time>
<desc>lat.=20.956551, lon.=107.056450, Alt.=-2.213228m. Speed=3.168000m/h.</desc>
<speed>0.880000</speed>
</trkpt>
<trkpt lat="20.956537" lon="107.056480">
<ele>-1.342301</ele>
<time>2011-04-30T09:19:30Z</time>
<desc>lat.=20.956537, lon.=107.056480, Alt.=-1.342301m. Speed=1.152000m/h.</desc>
<speed>0.320000</speed>
</trkpt>
<trkpt lat="20.956553" lon="107.056496">
<ele>-0.886544</ele>
<time>2011-04-30T09:19:35Z</time>
<desc>lat.=20.956553, lon.=107.056496, Alt.=-0.886544m. Speed=1.188000m/h.</desc>
<speed>0.330000</speed>
</trkpt>
<trkpt lat="20.956558" lon="107.056526">
<ele>0.770272</ele>
<time>2011-04-30T09:19:40Z</time>
<desc>lat.=20.956558, lon.=107.056526, Alt.=0.770272m. Speed=2.052000m/h.</desc>
<speed>0.570000</speed>
</trkpt>
<trkpt lat="20.956570" lon="107.056549">
<ele>0.336315</ele>
<time>2011-04-30T09:19:45Z</time>
<desc>lat.=20.956570, lon.=107.056549, Alt.=0.336315m. Speed=1.872000m/h.</desc>
<speed>0.520000</speed>
</trkpt>
<trkpt lat="20.956575" lon="107.056572">
<ele>-0.885338</ele>
<time>2011-04-30T09:19:50Z</time>
<desc>lat.=20.956575, lon.=107.056572, Alt.=-0.885338m. Speed=1.116000m/h.</desc>
<speed>0.310000</speed>
</trkpt>
<trkpt lat="20.956577" lon="107.056572">
<ele>-1.341325</ele>
<time>2011-04-30T09:19:55Z</time>
<desc>lat.=20.956577, lon.=107.056572, Alt.=-1.341325m. Speed=0.288000m/h.</desc>
<speed>0.080000</speed>
</trkpt>
<trkpt lat="20.956573" lon="107.056580">
<ele>-1.430558</ele>
<time>2011-04-30T09:20:00Z</time>
<desc>lat.=20.956573, lon.=107.056580, Alt.=-1.430558m. Speed=0.360000m/h.</desc>
<speed>0.100000</speed>
</trkpt>
<trkpt lat="20.956562" lon="107.056572">
<ele>-1.073808</ele>
<time>2011-04-30T09:20:05Z</time>
<desc>lat.=20.956562, lon.=107.056572, Alt.=-1.073808m. Speed=0.288000m/h.</desc>
<speed>0.080000</speed>
</trkpt>
<trkpt lat="20.956558" lon="107.056580">
<ele>-0.677590</ele>
<time>2011-04-30T09:20:10Z</time>
<desc>lat.=20.956558, lon.=107.056580, Alt.=-0.677590m. Speed=1.404000m/h.</desc>
<speed>0.390000</speed>
</trkpt>
<trkpt lat="20.956583" lon="107.056610">
<ele>-0.414845</ele>
<time>2011-04-30T09:20:15Z</time>
<desc>lat.=20.956583, lon.=107.056610, Alt.=-0.414845m. Speed=1.944000m/h.</desc>
<speed>0.540000</speed>
</trkpt>
<trkpt lat="20.956600" lon="107.056641">
<ele>-0.339100</ele>
<time>2011-04-30T09:20:20Z</time>
<desc>lat.=20.956600, lon.=107.056641, Alt.=-0.339100m. Speed=2.304000m/h.</desc>
<speed>0.640000</speed>
</trkpt>
<trkpt lat="20.956623" lon="107.056671">
<ele>-1.462388</ele>
<time>2011-04-30T09:20:25Z</time>
<desc>lat.=20.956623, lon.=107.056671, Alt.=-1.462388m. Speed=2.160000m/h.</desc>
<speed>0.600000</speed>
</trkpt>
<trkpt lat="20.956640" lon="107.056717">
<ele>-1.287217</ele>
<time>2011-04-30T09:20:30Z</time>
<desc>lat.=20.956640, lon.=107.056717, Alt.=-1.287217m. Speed=2.520000m/h.</desc>
<speed>0.700000</speed>
</trkpt>
<trkpt lat="20.956633" lon="107.056755">
<ele>-0.949486</ele>
<time>2011-04-30T09:20:35Z</time>
<desc>lat.=20.956633, lon.=107.056755, Alt.=-0.949486m. Speed=2.304000m/h.</desc>
<speed>0.640000</speed>
</trkpt>
<trkpt lat="20.956627" lon="107.056763">
<ele>-0.568459</ele>
<time>2011-04-30T09:20:40Z</time>
<desc>lat.=20.956627, lon.=107.056763, Alt.=-0.568459m. Speed=0.288000m/h.</desc>
<speed>0.080000</speed>
</trkpt>
<trkpt lat="20.956617" lon="107.056755">
<ele>-0.291058</ele>
<time>2011-04-30T09:20:45Z</time>
<desc>lat.=20.956617, lon.=107.056755, Alt.=-0.291058m. Speed=0.900000m/h.</desc>
<speed>0.250000</speed>
</trkpt>
<trkpt lat="20.956614" lon="107.056755">
<ele>-0.155634</ele>
<time>2011-04-30T09:20:50Z</time>
<desc>lat.=20.956614, lon.=107.056755, Alt.=-0.155634m. Speed=0.432000m/h.</desc>
<speed>0.120000</speed>
</trkpt>
<trkpt lat="20.956612" lon="107.056755">
<ele>-0.082149</ele>
<time>2011-04-30T09:20:55Z</time>
<desc>lat.=20.956612, lon.=107.056755, Alt.=-0.082149m. Speed=0.180000m/h.</desc>
<speed>0.050000</speed>
</trkpt>
<trkpt lat="20.956621" lon="107.056770">
<ele>-0.408062</ele>
<time>2011-04-30T09:21:00Z</time>
<desc>lat.=20.956621, lon.=107.056770, Alt.=-0.408062m. Speed=1.080000m/h.</desc>
<speed>0.300000</speed>
</trkpt>
<trkpt lat="20.956627" lon="107.056778">
<ele>-1.239335</ele>
<time>2011-04-30T09:21:05Z</time>
<desc>lat.=20.956627, lon.=107.056778, Alt.=-1.239335m. Speed=1.404000m/h.</desc>
<speed>0.390000</speed>
</trkpt>
<trkpt lat="20.956648" lon="107.056816">
<ele>-1.517228</ele>
<time>2011-04-30T09:21:10Z</time>
<desc>lat.=20.956648, lon.=107.056816, Alt.=-1.517228m. Speed=1.188000m/h.</desc>
<speed>0.330000</speed>
</trkpt>
<trkpt lat="20.956652" lon="107.056831">
<ele>-1.353929</ele>
<time>2011-04-30T09:21:15Z</time>
<desc>lat.=20.956652, lon.=107.056831, Alt.=-1.353929m. Speed=2.016000m/h.</desc>
<speed>0.560000</speed>
</trkpt>
<trkpt lat="20.956659" lon="107.056877">
<ele>-1.762681</ele>
<time>2011-04-30T09:21:20Z</time>
<desc>lat.=20.956659, lon.=107.056877, Alt.=-1.762681m. Speed=2.340000m/h.</desc>
<speed>0.650000</speed>
</trkpt>
<trkpt lat="20.956671" lon="107.056915">
<ele>-2.121798</ele>
<time>2011-04-30T09:21:25Z</time>
<desc>lat.=20.956671, lon.=107.056915, Alt.=-2.121798m. Speed=2.268000m/h.</desc>
<speed>0.630000</speed>
</trkpt>
<trkpt lat="20.956661" lon="107.056923">
<ele>-2.414705</ele>
<time>2011-04-30T09:21:30Z</time>
<desc>lat.=20.956661, lon.=107.056923, Alt.=-2.414705m. Speed=0.252000m/h.</desc>
<speed>0.070000</speed>
</trkpt>
<trkpt lat="20.956657" lon="107.056923">
<ele>-2.410494</ele>
<time>2011-04-30T09:21:35Z</time>
<desc>lat.=20.956657, lon.=107.056923, Alt.=-2.410494m. Speed=0.180000m/h.</desc>
<speed>0.050000</speed>
</trkpt>
<trkpt lat="20.956657" lon="107.056923">
<ele>-2.467867</ele>
<time>2011-04-30T09:21:40Z</time>
<desc>lat.=20.956657, lon.=107.056923, Alt.=-2.467867m. Speed=0.072000m/h.</desc>
<speed>0.020000</speed>
</trkpt>
<trkpt lat="20.956656" lon="107.056923">
<ele>-2.492037</ele>
<time>2011-04-30T09:21:45Z</time>
<desc>lat.=20.956656, lon.=107.056923, Alt.=-2.492037m. Speed=0.108000m/h.</desc>
<speed>0.030000</speed>
</trkpt>
<trkpt lat="20.956656" lon="107.056923">
<ele>-2.507845</ele>
<time>2011-04-30T09:21:50Z</time>
<desc>lat.=20.956656, lon.=107.056923, Alt.=-2.507845m. Speed=0.072000m/h.</desc>
<speed>0.020000</speed>
</trkpt>
<trkpt lat="20.956656" lon="107.056923">
<ele>-2.529451</ele>
<time>2011-04-30T09:21:55Z</time>
<desc>lat.=20.956656, lon.=107.056923, Alt.=-2.529451m. Speed=0.000000m/h.</desc>
<speed>0.000000</speed>
</trkpt>
<trkpt lat="20.956656" lon="107.056923">
<ele>-2.520418</ele>
<time>2011-04-30T09:22:00Z</time>
<desc>lat.=20.956656, lon.=107.056923, Alt.=-2.520418m. Speed=0.072000m/h.</desc>
<speed>0.020000</speed>
</trkpt>
<trkpt lat="20.956656" lon="107.056931">
<ele>-2.514193</ele>
<time>2011-04-30T09:22:05Z</time>
<desc>lat.=20.956656, lon.=107.056931, Alt.=-2.514193m. Speed=0.180000m/h.</desc>
<speed>0.050000</speed>
</trkpt>
<trkpt lat="20.956656" lon="107.056931">
<ele>-2.530977</ele>
<time>2011-04-30T09:22:10Z</time>
<desc>lat.=20.956656, lon.=107.056931, Alt.=-2.530977m. Speed=0.036000m/h.</desc>
<speed>0.010000</speed>
</trkpt>
<trkpt lat="20.956656" lon="107.056931">
<ele>-2.531160</ele>
<time>2011-04-30T09:22:15Z</time>
<desc>lat.=20.956656, lon.=107.056931, Alt.=-2.531160m. Speed=0.036000m/h.</desc>
<speed>0.010000</speed>
</trkpt>
<trkpt lat="20.956657" lon="107.056923">
<ele>-2.486666</ele>
<time>2011-04-30T09:22:20Z</time>
<desc>lat.=20.956657, lon.=107.056923, Alt.=-2.486666m. Speed=1.260000m/h.</desc>
<speed>0.350000</speed>
</trkpt>
<trkpt lat="20.956676" lon="107.056908">
<ele>-1.825364</ele>
<time>2011-04-30T09:22:25Z</time>
<desc>lat.=20.956676, lon.=107.056908, Alt.=-1.825364m. Speed=1.224000m/h.</desc>
<speed>0.340000</speed>
</trkpt>
<trkpt lat="20.956673" lon="107.056892">
<ele>-1.171189</ele>
<time>2011-04-30T09:22:30Z</time>
<desc>lat.=20.956673, lon.=107.056892, Alt.=-1.171189m. Speed=0.288000m/h.</desc>
<speed>0.080000</speed>
</trkpt>
<trkpt lat="20.956680" lon="107.056892">
<ele>-1.260880</ele>
<time>2011-04-30T09:22:35Z</time>
<desc>lat.=20.956680, lon.=107.056892, Alt.=-1.260880m. Speed=1.440000m/h.</desc>
<speed>0.400000</speed>
</trkpt>
<trkpt lat="20.956680" lon="107.056870">
<ele>-0.659508</ele>
<time>2011-04-30T09:22:40Z</time>
<desc>lat.=20.956680, lon.=107.056870, Alt.=-0.659508m. Speed=0.900000m/h.</desc>
<speed>0.250000</speed>
</trkpt>
<trkpt lat="20.956675" lon="107.056854">
<ele>-0.753975</ele>
<time>2011-04-30T09:22:45Z</time>
<desc>lat.=20.956675, lon.=107.056854, Alt.=-0.753975m. Speed=1.296000m/h.</desc>
<speed>0.360000</speed>
</trkpt>
<trkpt lat="20.956688" lon="107.056831">
<ele>-0.910408</ele>
<time>2011-04-30T09:22:50Z</time>
<desc>lat.=20.956688, lon.=107.056831, Alt.=-0.910408m. Speed=2.232000m/h.</desc>
<speed>0.620000</speed>
</trkpt>
<trkpt lat="20.956688" lon="107.056816">
<ele>-1.437242</ele>
<time>2011-04-30T09:22:55Z</time>
<desc>lat.=20.956688, lon.=107.056816, Alt.=-1.437242m. Speed=0.324000m/h.</desc>
<speed>0.090000</speed>
</trkpt>
<trkpt lat="20.956692" lon="107.056816">
<ele>-1.246293</ele>
<time>2011-04-30T09:23:00Z</time>
<desc>lat.=20.956692, lon.=107.056816, Alt.=-1.246293m. Speed=2.052000m/h.</desc>
<speed>0.570000</speed>
</trkpt>
<trkpt lat="20.956705" lon="107.056778">
<ele>-0.409603</ele>
<time>2011-04-30T09:23:05Z</time>
<desc>lat.=20.956705, lon.=107.056778, Alt.=-0.409603m. Speed=2.448000m/h.</desc>
<speed>0.680000</speed>
</trkpt>
<trkpt lat="20.956718" lon="107.056740">
<ele>0.755013</ele>
<time>2011-04-30T09:23:10Z</time>
<desc>lat.=20.956718, lon.=107.056740, Alt.=0.755013m. Speed=2.376000m/h.</desc>
<speed>0.660000</speed>
</trkpt>
<trkpt lat="20.956758" lon="107.056709">
<ele>0.862175</ele>
<time>2011-04-30T09:23:15Z</time>
<desc>lat.=20.956758, lon.=107.056709, Alt.=0.862175m. Speed=0.756000m/h.</desc>
<speed>0.210000</speed>
</trkpt>
<trkpt lat="20.956776" lon="107.056709">
<ele>0.248289</ele>
<time>2011-04-30T09:23:20Z</time>
<desc>lat.=20.956776, lon.=107.056709, Alt.=0.248289m. Speed=0.504000m/h.</desc>
<speed>0.140000</speed>
</trkpt>
<trkpt lat="20.956783" lon="107.056709">
<ele>0.384915</ele>
<time>2011-04-30T09:23:25Z</time>
<desc>lat.=20.956783, lon.=107.056709, Alt.=0.384915m. Speed=0.396000m/h.</desc>
<speed>0.110000</speed>
</trkpt>
<trkpt lat="20.956785" lon="107.056702">
<ele>0.319279</ele>
<time>2011-04-30T09:23:30Z</time>
<desc>lat.=20.956785, lon.=107.056702, Alt.=0.319279m. Speed=1.836000m/h.</desc>
<speed>0.510000</speed>
</trkpt>
<trkpt lat="20.956787" lon="107.056686">
<ele>-0.262310</ele>
<time>2011-04-30T09:23:35Z</time>
<desc>lat.=20.956787, lon.=107.056686, Alt.=-0.262310m. Speed=0.576000m/h.</desc>
<speed>0.160000</speed>
</trkpt>
<trkpt lat="20.956776" lon="107.056648">
<ele>-0.725396</ele>
<time>2011-04-30T09:23:40Z</time>
<desc>lat.=20.956776, lon.=107.056648, Alt.=-0.725396m. Speed=2.124000m/h.</desc>
<speed>0.590000</speed>
</trkpt>
<trkpt lat="20.956778" lon="107.056595">
<ele>-0.566063</ele>
<time>2011-04-30T09:23:45Z</time>
<desc>lat.=20.956778, lon.=107.056595, Alt.=-0.566063m. Speed=2.448000m/h.</desc>
<speed>0.680000</speed>
</trkpt>
<trkpt lat="20.956783" lon="107.056564">
<ele>-0.008613</ele>
<time>2011-04-30T09:23:50Z</time>
<desc>lat.=20.956783, lon.=107.056564, Alt.=-0.008613m. Speed=0.504000m/h.</desc>
<speed>0.140000</speed>
</trkpt>
<trkpt lat="20.956781" lon="107.056557">
<ele>0.734185</ele>
<time>2011-04-30T09:23:55Z</time>
<desc>lat.=20.956781, lon.=107.056557, Alt.=0.734185m. Speed=1.584000m/h.</desc>
<speed>0.440000</speed>
</trkpt>
<trkpt lat="20.956793" lon="107.056557">
<ele>1.370164</ele>
<time>2011-04-30T09:24:00Z</time>
<desc>lat.=20.956793, lon.=107.056557, Alt.=1.370164m. Speed=0.612000m/h.</desc>
<speed>0.170000</speed>
</trkpt>
<trkpt lat="20.956800" lon="107.056557">
<ele>1.515580</ele>
<time>2011-04-30T09:24:05Z</time>
<desc>lat.=20.956800, lon.=107.056557, Alt.=1.515580m. Speed=0.288000m/h.</desc>
<speed>0.080000</speed>
</trkpt>
<trkpt lat="20.956778" lon="107.056541">
<ele>1.675340</ele>
<time>2011-04-30T09:24:10Z</time>
<desc>lat.=20.956778, lon.=107.056541, Alt.=1.675340m. Speed=2.268000m/h.</desc>
<speed>0.630000</speed>
</trkpt>
<trkpt lat="20.956793" lon="107.056541">
<ele>2.037203</ele>
<time>2011-04-30T09:24:15Z</time>
<desc>lat.=20.956793, lon.=107.056541, Alt.=2.037203m. Speed=0.468000m/h.</desc>
<speed>0.130000</speed>
</trkpt>
<trkpt lat="20.956791" lon="107.056526">
<ele>2.479280</ele>
<time>2011-04-30T09:24:20Z</time>
<desc>lat.=20.956791, lon.=107.056526, Alt.=2.479280m. Speed=0.540000m/h.</desc>
<speed>0.150000</speed>
</trkpt>
<trkpt lat="20.956762" lon="107.056511">
<ele>3.880404</ele>
<time>2011-04-30T09:24:25Z</time>
<desc>lat.=20.956762, lon.=107.056511, Alt.=3.880404m. Speed=4.032000m/h.</desc>
<speed>1.120000</speed>
</trkpt>
<trkpt lat="20.956743" lon="107.056534">
<ele>5.459171</ele>
<time>2011-04-30T09:24:30Z</time>
<desc>lat.=20.956743, lon.=107.056534, Alt.=5.459171m. Speed=0.396000m/h.</desc>
<speed>0.110000</speed>
</trkpt>
<trkpt lat="20.956724" lon="107.056549">
<ele>6.439884</ele>
<time>2011-04-30T09:24:35Z</time>
<desc>lat.=20.956724, lon.=107.056549, Alt.=6.439884m. Speed=0.720000m/h.</desc>
<speed>0.200000</speed>
</trkpt>
<trkpt lat="20.956709" lon="107.056549">
<ele>6.535465</ele>
<time>2011-04-30T09:24:40Z</time>
<desc>lat.=20.956709, lon.=107.056549, Alt.=6.535465m. Speed=0.360000m/h.</desc>
<speed>0.100000</speed>
</trkpt>
<trkpt lat="20.956709" lon="107.056549">
<ele>6.778996</ele>
<time>2011-04-30T09:24:45Z</time>
<desc>lat.=20.956709, lon.=107.056549, Alt.=6.778996m. Speed=0.684000m/h.</desc>
<speed>0.190000</speed>
</trkpt>
<trkpt lat="20.956669" lon="107.056557">
<ele>6.764103</ele>
<time>2011-04-30T09:24:50Z</time>
<desc>lat.=20.956669, lon.=107.056557, Alt.=6.764103m. Speed=1.224000m/h.</desc>
<speed>0.340000</speed>
</trkpt>
<trkpt lat="20.956644" lon="107.056557">
<ele>6.395573</ele>
<time>2011-04-30T09:24:55Z</time>
<desc>lat.=20.956644, lon.=107.056557, Alt.=6.395573m. Speed=0.216000m/h.</desc>
<speed>0.060000</speed>
</trkpt>
<trkpt lat="20.956646" lon="107.056557">
<ele>6.458927</ele>
<time>2011-04-30T09:25:00Z</time>
<desc>lat.=20.956646, lon.=107.056557, Alt.=6.458927m. Speed=0.288000m/h.</desc>
<speed>0.080000</speed>
</trkpt>
<trkpt lat="20.956623" lon="107.056526">
<ele>5.894230</ele>
<time>2011-04-30T09:25:05Z</time>
<desc>lat.=20.956623, lon.=107.056526, Alt.=5.894230m. Speed=0.792000m/h.</desc>
<speed>0.220000</speed>
</trkpt>
<trkpt lat="20.956606" lon="107.056519">
<ele>6.094547</ele>
<time>2011-04-30T09:25:10Z</time>
<desc>lat.=20.956606, lon.=107.056519, Alt.=6.094547m. Speed=0.144000m/h.</desc>
<speed>0.040000</speed>
</trkpt>
<trkpt lat="20.956606" lon="107.056519">
<ele>6.063541</ele>
<time>2011-04-30T09:25:15Z</time>
<desc>lat.=20.956606, lon.=107.056519, Alt.=6.063541m. Speed=0.432000m/h.</desc>
<speed>0.120000</speed>
</trkpt>
<trkpt lat="20.956602" lon="107.056526">
<ele>6.038517</ele>
<time>2011-04-30T09:25:20Z</time>
<desc>lat.=20.956602, lon.=107.056526, Alt.=6.038517m. Speed=1.080000m/h.</desc>
<speed>0.300000</speed>
</trkpt>
<trkpt lat="20.956591" lon="107.056534">
<ele>5.756046</ele>
<time>2011-04-30T09:25:25Z</time>
<desc>lat.=20.956591, lon.=107.056534, Alt.=5.756046m. Speed=0.216000m/h.</desc>
<speed>0.060000</speed>
</trkpt>
<trkpt lat="20.956608" lon="107.056496">
<ele>4.529484</ele>
<time>2011-04-30T09:25:30Z</time>
<desc>lat.=20.956608, lon.=107.056496, Alt.=4.529484m. Speed=0.864000m/h.</desc>
<speed>0.240000</speed>
</trkpt>
<trkpt lat="20.956596" lon="107.056465">
<ele>4.020206</ele>
<time>2011-04-30T09:25:35Z</time>
<desc>lat.=20.956596, lon.=107.056465, Alt.=4.020206m. Speed=2.088000m/h.</desc>
<speed>0.580000</speed>
</trkpt>
<trkpt lat="20.956594" lon="107.056458">
<ele>3.112642</ele>
<time>2011-04-30T09:25:40Z</time>
<desc>lat.=20.956594, lon.=107.056458, Alt.=3.112642m. Speed=0.864000m/h.</desc>
<speed>0.240000</speed>
</trkpt>
<trkpt lat="20.956585" lon="107.056427">
<ele>2.471163</ele>
<time>2011-04-30T09:25:45Z</time>
<desc>lat.=20.956585, lon.=107.056427, Alt.=2.471163m. Speed=3.024000m/h.</desc>
<speed>0.840000</speed>
</trkpt>
<trkpt lat="20.956572" lon="107.056366">
<ele>1.905046</ele>
<time>2011-04-30T09:25:50Z</time>
<desc>lat.=20.956572, lon.=107.056366, Alt.=1.905046m. Speed=2.196000m/h.</desc>
<speed>0.610000</speed>
</trkpt>
<trkpt lat="20.956560" lon="107.056313">
<ele>1.885209</ele>
<time>2011-04-30T09:25:55Z</time>
<desc>lat.=20.956560, lon.=107.056313, Alt.=1.885209m. Speed=2.268000m/h.</desc>
<speed>0.630000</speed>
</trkpt>
<trkpt lat="20.956543" lon="107.056252">
<ele>2.030794</ele>
<time>2011-04-30T09:26:00Z</time>
<desc>lat.=20.956543, lon.=107.056252, Alt.=2.030794m. Speed=3.924000m/h.</desc>
<speed>1.090000</speed>
</trkpt>
<trkpt lat="20.956535" lon="107.056213">
<ele>2.075716</ele>
<time>2011-04-30T09:26:05Z</time>
<desc>lat.=20.956535, lon.=107.056213, Alt.=2.075716m. Speed=1.404000m/h.</desc>
<speed>0.390000</speed>
</trkpt>
<trkpt lat="20.956524" lon="107.056183">
<ele>1.837754</ele>
<time>2011-04-30T09:26:10Z</time>
<desc>lat.=20.956524, lon.=107.056183, Alt.=1.837754m. Speed=0.756000m/h.</desc>
<speed>0.210000</speed>
</trkpt>
<trkpt lat="20.956532" lon="107.056152">
<ele>3.743319</ele>
<time>2011-04-30T09:26:15Z</time>
<desc>lat.=20.956532, lon.=107.056152, Alt.=3.743319m. Speed=2.052000m/h.</desc>
<speed>0.570000</speed>
</trkpt>
<trkpt lat="20.956503" lon="107.056114">
<ele>6.037174</ele>
<time>2011-04-30T09:26:20Z</time>
<desc>lat.=20.956503, lon.=107.056114, Alt.=6.037174m. Speed=1.368000m/h.</desc>
<speed>0.380000</speed>
</trkpt>
<trkpt lat="20.956480" lon="107.056076">
<ele>7.940739</ele>
<time>2011-04-30T09:26:25Z</time>
<desc>lat.=20.956480, lon.=107.056076, Alt.=7.940739m. Speed=1.080000m/h.</desc>
<speed>0.300000</speed>
</trkpt>
<trkpt lat="20.956480" lon="107.056068">
<ele>7.498966</ele>
<time>2011-04-30T09:26:30Z</time>
<desc>lat.=20.956480, lon.=107.056068, Alt.=7.498966m. Speed=0.324000m/h.</desc>
<speed>0.090000</speed>
</trkpt>
<trkpt lat="20.956495" lon="107.056076">
<ele>7.841984</ele>
<time>2011-04-30T09:26:35Z</time>
<desc>lat.=20.956495, lon.=107.056076, Alt.=7.841984m. Speed=0.612000m/h.</desc>
<speed>0.170000</speed>
</trkpt>
<trkpt lat="20.956495" lon="107.056076">
<ele>7.836369</ele>
<time>2011-04-30T09:26:40Z</time>
<desc>lat.=20.956495, lon.=107.056076, Alt.=7.836369m. Speed=0.396000m/h.</desc>
<speed>0.110000</speed>
</trkpt>
<trkpt lat="20.956493" lon="107.056076">
<ele>7.611637</ele>
<time>2011-04-30T09:26:45Z</time>
<desc>lat.=20.956493, lon.=107.056076, Alt.=7.611637m. Speed=0.324000m/h.</desc>
<speed>0.090000</speed>
</trkpt>
<trkpt lat="20.956499" lon="107.056076">
<ele>7.538761</ele>
<time>2011-04-30T09:26:50Z</time>
<desc>lat.=20.956499, lon.=107.056076, Alt.=7.538761m. Speed=0.648000m/h.</desc>
<speed>0.180000</speed>
</trkpt>
<trkpt lat="20.956501" lon="107.056046">
<ele>7.907780</ele>
<time>2011-04-30T09:26:55Z</time>
<desc>lat.=20.956501, lon.=107.056046, Alt.=7.907780m. Speed=0.756000m/h.</desc>
<speed>0.210000</speed>
</trkpt>
<trkpt lat="20.956501" lon="107.056046">
<ele>7.958439</ele>
<time>2011-04-30T09:27:00Z</time>
<desc>lat.=20.956501, lon.=107.056046, Alt.=7.958439m. Speed=1.440000m/h.</desc>
<speed>0.400000</speed>
</trkpt>
<trkpt lat="20.956493" lon="107.056053">
<ele>7.162052</ele>
<time>2011-04-30T09:27:05Z</time>
<desc>lat.=20.956493, lon.=107.056053, Alt.=7.162052m. Speed=1.584000m/h.</desc>
<speed>0.440000</speed>
</trkpt>
<trkpt lat="20.956499" lon="107.056061">
<ele>6.947819</ele>
<time>2011-04-30T09:27:10Z</time>
<desc>lat.=20.956499, lon.=107.056061, Alt.=6.947819m. Speed=0.396000m/h.</desc>
<speed>0.110000</speed>
</trkpt>
<trkpt lat="20.956501" lon="107.056061">
<ele>6.916935</ele>
<time>2011-04-30T09:27:15Z</time>
<desc>lat.=20.956501, lon.=107.056061, Alt.=6.916935m. Speed=0.252000m/h.</desc>
<speed>0.070000</speed>
</trkpt>
<trkpt lat="20.956501" lon="107.056061">
<ele>6.894840</ele>
<time>2011-04-30T09:27:20Z</time>
<desc>lat.=20.956501, lon.=107.056061, Alt.=6.894840m. Speed=0.216000m/h.</desc>
<speed>0.060000</speed>
</trkpt>
<trkpt lat="20.956497" lon="107.056061">
<ele>6.919743</ele>
<time>2011-04-30T09:27:25Z</time>
<desc>lat.=20.956497, lon.=107.056061, Alt.=6.919743m. Speed=0.288000m/h.</desc>
<speed>0.080000</speed>
</trkpt>
<trkpt lat="20.956497" lon="107.056068">
<ele>6.876163</ele>
<time>2011-04-30T09:27:30Z</time>
<desc>lat.=20.956497, lon.=107.056068, Alt.=6.876163m. Speed=1.080000m/h.</desc>
<speed>0.300000</speed>
</trkpt>
<trkpt lat="20.956472" lon="107.056061">
<ele>5.584171</ele>
<time>2011-04-30T09:27:35Z</time>
<desc>lat.=20.956472, lon.=107.056061, Alt.=5.584171m. Speed=0.288000m/h.</desc>
<speed>0.080000</speed>
</trkpt>
<trkpt lat="20.956461" lon="107.056053">
<ele>5.756535</ele>
<time>2011-04-30T09:27:40Z</time>
<desc>lat.=20.956461, lon.=107.056053, Alt.=5.756535m. Speed=0.108000m/h.</desc>
<speed>0.030000</speed>
</trkpt>
<trkpt lat="20.956457" lon="107.056053">
<ele>6.035954</ele>
<time>2011-04-30T09:27:45Z</time>
<desc>lat.=20.956457, lon.=107.056053, Alt.=6.035954m. Speed=0.684000m/h.</desc>
<speed>0.190000</speed>
</trkpt>
<trkpt lat="20.956455" lon="107.056053">
<ele>6.198185</ele>
<time>2011-04-30T09:27:50Z</time>
<desc>lat.=20.956455, lon.=107.056053, Alt.=6.198185m. Speed=0.360000m/h.</desc>
<speed>0.100000</speed>
</trkpt>
<trkpt lat="20.956455" lon="107.056053">
<ele>6.137638</ele>
<time>2011-04-30T09:27:55Z</time>
<desc>lat.=20.956455, lon.=107.056053, Alt.=6.137638m. Speed=0.288000m/h.</desc>
<speed>0.080000</speed>
</trkpt>
<trkpt lat="20.956455" lon="107.056053">
<ele>6.124577</ele>
<time>2011-04-30T09:28:00Z</time>
<desc>lat.=20.956455, lon.=107.056053, Alt.=6.124577m. Speed=0.108000m/h.</desc>
<speed>0.030000</speed>
</trkpt>
<trkpt lat="20.956455" lon="107.056053">
<ele>6.106388</ele>
<time>2011-04-30T09:28:05Z</time>
<desc>lat.=20.956455, lon.=107.056053, Alt.=6.106388m. Speed=0.036000m/h.</desc>
<speed>0.010000</speed>
</trkpt>
<trkpt lat="20.956455" lon="107.056053">
<ele>6.112736</ele>
<time>2011-04-30T09:28:10Z</time>
<desc>lat.=20.956455, lon.=107.056053, Alt.=6.112736m. Speed=0.144000m/h.</desc>
<speed>0.040000</speed>
</trkpt>
<trkpt lat="20.956455" lon="107.056053">
<ele>6.117252</ele>
<time>2011-04-30T09:28:15Z</time>
<desc>lat.=20.956455, lon.=107.056053, Alt.=6.117252m. Speed=0.216000m/h.</desc>
<speed>0.060000</speed>
</trkpt>
<trkpt lat="20.956459" lon="107.056038">
<ele>5.792912</ele>
<time>2011-04-30T09:28:20Z</time>
<desc>lat.=20.956459, lon.=107.056038, Alt.=5.792912m. Speed=3.636000m/h.</desc>
<speed>1.010000</speed>
</trkpt>
<trkpt lat="20.956461" lon="107.055984">
<ele>6.739811</ele>
<time>2011-04-30T09:28:25Z</time>
<desc>lat.=20.956461, lon.=107.055984, Alt.=6.739811m. Speed=3.312000m/h.</desc>
<speed>0.920000</speed>
</trkpt>
<trkpt lat="20.956469" lon="107.055946">
<ele>7.092594</ele>
<time>2011-04-30T09:28:30Z</time>
<desc>lat.=20.956469, lon.=107.055946, Alt.=7.092594m. Speed=2.844000m/h.</desc>
<speed>0.790000</speed>
</trkpt>
<trkpt lat="20.956457" lon="107.055893">
<ele>7.127628</ele>
<time>2011-04-30T09:28:35Z</time>
<desc>lat.=20.956457, lon.=107.055893, Alt.=7.127628m. Speed=2.412000m/h.</desc>
<speed>0.670000</speed>
</trkpt>
<trkpt lat="20.956446" lon="107.055832">
<ele>6.925358</ele>
<time>2011-04-30T09:28:40Z</time>
<desc>lat.=20.956446, lon.=107.055832, Alt.=6.925358m. Speed=1.296000m/h.</desc>
<speed>0.360000</speed>
</trkpt>
<trkpt lat="20.956444" lon="107.055794">
<ele>8.177376</ele>
<time>2011-04-30T09:28:45Z</time>
<desc>lat.=20.956444, lon.=107.055794, Alt.=8.177376m. Speed=2.700000m/h.</desc>
<speed>0.750000</speed>
</trkpt>
<trkpt lat="20.956444" lon="107.055733">
<ele>8.910530</ele>
<time>2011-04-30T09:28:50Z</time>
<desc>lat.=20.956444, lon.=107.055733, Alt.=8.910530m. Speed=3.636000m/h.</desc>
<speed>1.010000</speed>
</trkpt>
<trkpt lat="20.956417" lon="107.055687">
<ele>11.736458</ele>
<time>2011-04-30T09:28:55Z</time>
<desc>lat.=20.956417, lon.=107.055687, Alt.=11.736458m. Speed=2.556000m/h.</desc>
<speed>0.710000</speed>
</trkpt>
<trkpt lat="20.956398" lon="107.055641">
<ele>13.645393</ele>
<time>2011-04-30T09:29:00Z</time>
<desc>lat.=20.956398, lon.=107.055641, Alt.=13.645393m. Speed=2.484000m/h.</desc>
<speed>0.690000</speed>
</trkpt>
<trkpt lat="20.956390" lon="107.055580">
<ele>14.340706</ele>
<time>2011-04-30T09:29:05Z</time>
<desc>lat.=20.956390, lon.=107.055580, Alt.=14.340706m. Speed=3.096000m/h.</desc>
<speed>0.860000</speed>
</trkpt>
<trkpt lat="20.956373" lon="107.055519">
<ele>14.691292</ele>
<time>2011-04-30T09:29:10Z</time>
<desc>lat.=20.956373, lon.=107.055519, Alt.=14.691292m. Speed=4.248000m/h.</desc>
<speed>1.180000</speed>
</trkpt>
<trkpt lat="20.956367" lon="107.055458">
<ele>14.569710</ele>
<time>2011-04-30T09:29:15Z</time>
<desc>lat.=20.956367, lon.=107.055458, Alt.=14.569710m. Speed=2.700000m/h.</desc>
<speed>0.750000</speed>
</trkpt>
<trkpt lat="20.956347" lon="107.055412">
<ele>14.759407</ele>
<time>2011-04-30T09:29:20Z</time>
<desc>lat.=20.956347, lon.=107.055412, Alt.=14.759407m. Speed=3.744000m/h.</desc>
<speed>1.040000</speed>
</trkpt>
<trkpt lat="20.956331" lon="107.055367">
<ele>15.795296</ele>
<time>2011-04-30T09:29:25Z</time>
<desc>lat.=20.956331, lon.=107.055367, Alt.=15.795296m. Speed=3.060000m/h.</desc>
<speed>0.850000</speed>
</trkpt>
<trkpt lat="20.956339" lon="107.055313">
<ele>15.988411</ele>
<time>2011-04-30T09:29:30Z</time>
<desc>lat.=20.956339, lon.=107.055313, Alt.=15.988411m. Speed=3.384000m/h.</desc>
<speed>0.940000</speed>
</trkpt>
<trkpt lat="20.956316" lon="107.055260">
<ele>16.472427</ele>
<time>2011-04-30T09:29:35Z</time>
<desc>lat.=20.956316, lon.=107.055260, Alt.=16.472427m. Speed=3.708000m/h.</desc>
<speed>1.030000</speed>
</trkpt>
<trkpt lat="20.956295" lon="107.055206">
<ele>16.651138</ele>
<time>2011-04-30T09:29:40Z</time>
<desc>lat.=20.956295, lon.=107.055206, Alt.=16.651138m. Speed=3.348000m/h.</desc>
<speed>0.930000</speed>
</trkpt>
<trkpt lat="20.956285" lon="107.055168">
<ele>15.607552</ele>
<time>2011-04-30T09:29:45Z</time>
<desc>lat.=20.956285, lon.=107.055168, Alt.=15.607552m. Speed=1.872000m/h.</desc>
<speed>0.520000</speed>
</trkpt>
<trkpt lat="20.956263" lon="107.055115">
<ele>16.918716</ele>
<time>2011-04-30T09:29:50Z</time>
<desc>lat.=20.956263, lon.=107.055115, Alt.=16.918716m. Speed=3.024000m/h.</desc>
<speed>0.840000</speed>
</trkpt>
<trkpt lat="20.956263" lon="107.055084">
<ele>15.972542</ele>
<time>2011-04-30T09:29:55Z</time>
<desc>lat.=20.956263, lon.=107.055084, Alt.=15.972542m. Speed=3.132000m/h.</desc>
<speed>0.870000</speed>
</trkpt>
<trkpt lat="20.956261" lon="107.055038">
<ele>16.095474</ele>
<time>2011-04-30T09:30:00Z</time>
<desc>lat.=20.956261, lon.=107.055038, Alt.=16.095474m. Speed=2.808000m/h.</desc>
<speed>0.780000</speed>
</trkpt>
<trkpt lat="20.956247" lon="107.054977">
<ele>16.338150</ele>
<time>2011-04-30T09:30:05Z</time>
<desc>lat.=20.956247, lon.=107.054977, Alt.=16.338150m. Speed=3.996000m/h.</desc>
<speed>1.110000</speed>
</trkpt>
<trkpt lat="20.956217" lon="107.054939">
<ele>16.663834</ele>
<time>2011-04-30T09:30:10Z</time>
<desc>lat.=20.956217, lon.=107.054939, Alt.=16.663834m. Speed=3.096000m/h.</desc>
<speed>0.860000</speed>
</trkpt>
<trkpt lat="20.956188" lon="107.054886">
<ele>16.941666</ele>
<time>2011-04-30T09:30:15Z</time>
<desc>lat.=20.956188, lon.=107.054886, Alt.=16.941666m. Speed=1.800000m/h.</desc>
<speed>0.500000</speed>
</trkpt>
<trkpt lat="20.956177" lon="107.054840">
<ele>19.822037</ele>
<time>2011-04-30T09:30:20Z</time>
<desc>lat.=20.956177, lon.=107.054840, Alt.=19.822037m. Speed=2.412000m/h.</desc>
<speed>0.670000</speed>
</trkpt>
<trkpt lat="20.956171" lon="107.054817">
<ele>19.488052</ele>
<time>2011-04-30T09:30:25Z</time>
<desc>lat.=20.956171, lon.=107.054817, Alt.=19.488052m. Speed=0.828000m/h.</desc>
<speed>0.230000</speed>
</trkpt>
<trkpt lat="20.956152" lon="107.054764">
<ele>19.956802</ele>
<time>2011-04-30T09:30:30Z</time>
<desc>lat.=20.956152, lon.=107.054764, Alt.=19.956802m. Speed=3.528000m/h.</desc>
<speed>0.980000</speed>
</trkpt>
<trkpt lat="20.956137" lon="107.054710">
<ele>21.281021</ele>
<time>2011-04-30T09:30:35Z</time>
<desc>lat.=20.956137, lon.=107.054710, Alt.=21.281021m. Speed=3.636000m/h.</desc>
<speed>1.010000</speed>
</trkpt>
<trkpt lat="20.956125" lon="107.054657">
<ele>22.795670</ele>
<time>2011-04-30T09:30:40Z</time>
<desc>lat.=20.956125, lon.=107.054657, Alt.=22.795670m. Speed=3.096000m/h.</desc>
<speed>0.860000</speed>
</trkpt>
<trkpt lat="20.956121" lon="107.054619">
<ele>24.270279</ele>
<time>2011-04-30T09:30:45Z</time>
<desc>lat.=20.956121, lon.=107.054619, Alt.=24.270279m. Speed=1.008000m/h.</desc>
<speed>0.280000</speed>
</trkpt>
<trkpt lat="20.956110" lon="107.054573">
<ele>23.872330</ele>
<time>2011-04-30T09:30:50Z</time>
<desc>lat.=20.956110, lon.=107.054573, Alt.=23.872330m. Speed=2.736000m/h.</desc>
<speed>0.760000</speed>
</trkpt>
<trkpt lat="20.956097" lon="107.054527">
<ele>23.933853</ele>
<time>2011-04-30T09:30:55Z</time>
<desc>lat.=20.956097, lon.=107.054527, Alt.=23.933853m. Speed=2.916000m/h.</desc>
<speed>0.810000</speed>
</trkpt>
<trkpt lat="20.956085" lon="107.054482">
<ele>24.871353</ele>
<time>2011-04-30T09:31:00Z</time>
<desc>lat.=20.956085, lon.=107.054482, Alt.=24.871353m. Speed=2.304000m/h.</desc>
<speed>0.640000</speed>
</trkpt>
<trkpt lat="20.956068" lon="107.054428">
<ele>24.476334</ele>
<time>2011-04-30T09:31:05Z</time>
<desc>lat.=20.956068, lon.=107.054428, Alt.=24.476334m. Speed=1.728000m/h.</desc>
<speed>0.480000</speed>
</trkpt>
<trkpt lat="20.956068" lon="107.054382">
<ele>25.011490</ele>
<time>2011-04-30T09:31:10Z</time>
<desc>lat.=20.956068, lon.=107.054382, Alt.=25.011490m. Speed=2.556000m/h.</desc>
<speed>0.710000</speed>
</trkpt>
<trkpt lat="20.956072" lon="107.054314">
<ele>24.543716</ele>
<time>2011-04-30T09:31:15Z</time>
<desc>lat.=20.956072, lon.=107.054314, Alt.=24.543716m. Speed=3.564000m/h.</desc>
<speed>0.990000</speed>
</trkpt>
<trkpt lat="20.956062" lon="107.054260">
<ele>25.344498</ele>
<time>2011-04-30T09:31:20Z</time>
<desc>lat.=20.956062, lon.=107.054260, Alt.=25.344498m. Speed=3.528000m/h.</desc>
<speed>0.980000</speed>
</trkpt>
<trkpt lat="20.956060" lon="107.054214">
<ele>27.046646</ele>
<time>2011-04-30T09:31:25Z</time>
<desc>lat.=20.956060, lon.=107.054214, Alt.=27.046646m. Speed=1.908000m/h.</desc>
<speed>0.530000</speed>
</trkpt>
<trkpt lat="20.956074" lon="107.054161">
<ele>26.591568</ele>
<time>2011-04-30T09:31:30Z</time>
<desc>lat.=20.956074, lon.=107.054161, Alt.=26.591568m. Speed=3.348000m/h.</desc>
<speed>0.930000</speed>
</trkpt>
<trkpt lat="20.956072" lon="107.054108">
<ele>25.972916</ele>
<time>2011-04-30T09:31:35Z</time>
<desc>lat.=20.956072, lon.=107.054108, Alt.=25.972916m. Speed=3.240000m/h.</desc>
<speed>0.900000</speed>
</trkpt>
<trkpt lat="20.956066" lon="107.054054">
<ele>26.923111</ele>
<time>2011-04-30T09:31:40Z</time>
<desc>lat.=20.956066, lon.=107.054054, Alt.=26.923111m. Speed=3.708000m/h.</desc>
<speed>1.030000</speed>
</trkpt>
<trkpt lat="20.956068" lon="107.054016">
<ele>27.912857</ele>
<time>2011-04-30T09:31:45Z</time>
<desc>lat.=20.956068, lon.=107.054016, Alt.=27.912857m. Speed=4.392000m/h.</desc>
<speed>1.220000</speed>
</trkpt>
<trkpt lat="20.956078" lon="107.053970">
<ele>28.139908</ele>
<time>2011-04-30T09:31:50Z</time>
<desc>lat.=20.956078, lon.=107.053970, Alt.=28.139908m. Speed=2.340000m/h.</desc>
<speed>0.650000</speed>
</trkpt>
<trkpt lat="20.956081" lon="107.053902">
<ele>28.308365</ele>
<time>2011-04-30T09:31:55Z</time>
<desc>lat.=20.956081, lon.=107.053902, Alt.=28.308365m. Speed=3.384000m/h.</desc>
<speed>0.940000</speed>
</trkpt>
<trkpt lat="20.956087" lon="107.053825">
<ele>24.949478</ele>
<time>2011-04-30T09:32:00Z</time>
<desc>lat.=20.956087, lon.=107.053825, Alt.=24.949478m. Speed=4.320000m/h.</desc>
<speed>1.200000</speed>
</trkpt>
<trkpt lat="20.956102" lon="107.053780">
<ele>24.902115</ele>
<time>2011-04-30T09:32:05Z</time>
<desc>lat.=20.956102, lon.=107.053780, Alt.=24.902115m. Speed=2.700000m/h.</desc>
<speed>0.750000</speed>
</trkpt>
<trkpt lat="20.956110" lon="107.053711">
<ele>23.864517</ele>
<time>2011-04-30T09:32:10Z</time>
<desc>lat.=20.956110, lon.=107.053711, Alt.=23.864517m. Speed=4.572000m/h.</desc>
<speed>1.270000</speed>
</trkpt>
<trkpt lat="20.956121" lon="107.053665">
<ele>23.734146</ele>
<time>2011-04-30T09:32:15Z</time>
<desc>lat.=20.956121, lon.=107.053665, Alt.=23.734146m. Speed=3.060000m/h.</desc>
<speed>0.850000</speed>
</trkpt>
<trkpt lat="20.956118" lon="107.053589">
<ele>21.699478</ele>
<time>2011-04-30T09:32:20Z</time>
<desc>lat.=20.956118, lon.=107.053589, Alt.=21.699478m. Speed=3.564000m/h.</desc>
<speed>0.990000</speed>
</trkpt>
<trkpt lat="20.956114" lon="107.053528">
<ele>19.297134</ele>
<time>2011-04-30T09:32:25Z</time>
<desc>lat.=20.956114, lon.=107.053528, Alt.=19.297134m. Speed=2.880000m/h.</desc>
<speed>0.800000</speed>
</trkpt>
<trkpt lat="20.956116" lon="107.053474">
<ele>19.018814</ele>
<time>2011-04-30T09:32:30Z</time>
<desc>lat.=20.956116, lon.=107.053474, Alt.=19.018814m. Speed=2.592000m/h.</desc>
<speed>0.720000</speed>
</trkpt>
<trkpt lat="20.956116" lon="107.053406">
<ele>18.727798</ele>
<time>2011-04-30T09:32:35Z</time>
<desc>lat.=20.956116, lon.=107.053406, Alt.=18.727798m. Speed=3.312000m/h.</desc>
<speed>0.920000</speed>
</trkpt>
<trkpt lat="20.956114" lon="107.053329">
<ele>16.505630</ele>
<time>2011-04-30T09:32:40Z</time>
<desc>lat.=20.956114, lon.=107.053329, Alt.=16.505630m. Speed=4.284000m/h.</desc>
<speed>1.190000</speed>
</trkpt>
<trkpt lat="20.956123" lon="107.053284">
<ele>16.329361</ele>
<time>2011-04-30T09:32:45Z</time>
<desc>lat.=20.956123, lon.=107.053284, Alt.=16.329361m. Speed=2.916000m/h.</desc>
<speed>0.810000</speed>
</trkpt>
<trkpt lat="20.956129" lon="107.053223">
<ele>15.709358</ele>
<time>2011-04-30T09:32:50Z</time>
<desc>lat.=20.956129, lon.=107.053223, Alt.=15.709358m. Speed=3.744000m/h.</desc>
<speed>1.040000</speed>
</trkpt>
<trkpt lat="20.956146" lon="107.053185">
<ele>15.912483</ele>
<time>2011-04-30T09:32:55Z</time>
<desc>lat.=20.956146, lon.=107.053185, Alt.=15.912483m. Speed=3.672000m/h.</desc>
<speed>1.020000</speed>
</trkpt>
<trkpt lat="20.956150" lon="107.053123">
<ele>15.373909</ele>
<time>2011-04-30T09:33:00Z</time>
<desc>lat.=20.956150, lon.=107.053123, Alt.=15.373909m. Speed=3.600000m/h.</desc>
<speed>1.000000</speed>
</trkpt>
<trkpt lat="20.956160" lon="107.053085">
<ele>15.298470</ele>
<time>2011-04-30T09:33:05Z</time>
<desc>lat.=20.956160, lon.=107.053085, Alt.=15.298470m. Speed=2.592000m/h.</desc>
<speed>0.720000</speed>
</trkpt>
<trkpt lat="20.956165" lon="107.053040">
<ele>15.142220</ele>
<time>2011-04-30T09:33:10Z</time>
<desc>lat.=20.956165, lon.=107.053040, Alt.=15.142220m. Speed=3.528000m/h.</desc>
<speed>0.980000</speed>
</trkpt>
<trkpt lat="20.956160" lon="107.052971">
<ele>14.905159</ele>
<time>2011-04-30T09:33:15Z</time>
<desc>lat.=20.956160, lon.=107.052971, Alt.=14.905159m. Speed=3.672000m/h.</desc>
<speed>1.020000</speed>
</trkpt>
<trkpt lat="20.956173" lon="107.052925">
<ele>14.277473</ele>
<time>2011-04-30T09:33:20Z</time>
<desc>lat.=20.956173, lon.=107.052925, Alt.=14.277473m. Speed=2.628000m/h.</desc>
<speed>0.730000</speed>
</trkpt>
<trkpt lat="20.956177" lon="107.052849">
<ele>14.346565</ele>
<time>2011-04-30T09:33:25Z</time>
<desc>lat.=20.956177, lon.=107.052849, Alt.=14.346565m. Speed=3.168000m/h.</desc>
<speed>0.880000</speed>
</trkpt>
<trkpt lat="20.956190" lon="107.052803">
<ele>13.495979</ele>
<time>2011-04-30T09:33:30Z</time>
<desc>lat.=20.956190, lon.=107.052803, Alt.=13.495979m. Speed=2.628000m/h.</desc>
<speed>0.730000</speed>
</trkpt>
<trkpt lat="20.956194" lon="107.052734">
<ele>13.345833</ele>
<time>2011-04-30T09:33:35Z</time>
<desc>lat.=20.956194, lon.=107.052734, Alt.=13.345833m. Speed=2.700000m/h.</desc>
<speed>0.750000</speed>
</trkpt>
<trkpt lat="20.956194" lon="107.052696">
<ele>14.188362</ele>
<time>2011-04-30T09:33:40Z</time>
<desc>lat.=20.956194, lon.=107.052696, Alt.=14.188362m. Speed=2.880000m/h.</desc>
<speed>0.800000</speed>
</trkpt>
<trkpt lat="20.956200" lon="107.052643">
<ele>13.443001</ele>
<time>2011-04-30T09:33:45Z</time>
<desc>lat.=20.956200, lon.=107.052643, Alt.=13.443001m. Speed=2.772000m/h.</desc>
<speed>0.770000</speed>
</trkpt>
<trkpt lat="20.956192" lon="107.052605">
<ele>12.218391</ele>
<time>2011-04-30T09:33:50Z</time>
<desc>lat.=20.956192, lon.=107.052605, Alt.=12.218391m. Speed=3.060000m/h.</desc>
<speed>0.850000</speed>
</trkpt>
<trkpt lat="20.956211" lon="107.052567">
<ele>11.083626</ele>
<time>2011-04-30T09:33:55Z</time>
<desc>lat.=20.956211, lon.=107.052567, Alt.=11.083626m. Speed=1.368000m/h.</desc>
<speed>0.380000</speed>
</trkpt>
<trkpt lat="20.956228" lon="107.052536">
<ele>9.898567</ele>
<time>2011-04-30T09:34:00Z</time>
<desc>lat.=20.956228, lon.=107.052536, Alt.=9.898567m. Speed=1.692000m/h.</desc>
<speed>0.470000</speed>
</trkpt>
<trkpt lat="20.956234" lon="107.052483">
<ele>8.548225</ele>
<time>2011-04-30T09:34:05Z</time>
<desc>lat.=20.956234, lon.=107.052483, Alt.=8.548225m. Speed=4.320000m/h.</desc>
<speed>1.200000</speed>
</trkpt>
<trkpt lat="20.956230" lon="107.052422">
<ele>8.390755</ele>
<time>2011-04-30T09:34:10Z</time>
<desc>lat.=20.956230, lon.=107.052422, Alt.=8.390755m. Speed=1.980000m/h.</desc>
<speed>0.550000</speed>
</trkpt>
<trkpt lat="20.956238" lon="107.052368">
<ele>8.068733</ele>
<time>2011-04-30T09:34:15Z</time>
<desc>lat.=20.956238, lon.=107.052368, Alt.=8.068733m. Speed=3.960000m/h.</desc>
<speed>1.100000</speed>
</trkpt>
<trkpt lat="20.956240" lon="107.052315">
<ele>8.772346</ele>
<time>2011-04-30T09:34:20Z</time>
<desc>lat.=20.956240, lon.=107.052315, Alt.=8.772346m. Speed=2.592000m/h.</desc>
<speed>0.720000</speed>
</trkpt>
<trkpt lat="20.956238" lon="107.052277">
<ele>9.656868</ele>
<time>2011-04-30T09:34:25Z</time>
<desc>lat.=20.956238, lon.=107.052277, Alt.=9.656868m. Speed=2.988000m/h.</desc>
<speed>0.830000</speed>
</trkpt>
<trkpt lat="20.956249" lon="107.052216">
<ele>9.451546</ele>
<time>2011-04-30T09:34:30Z</time>
<desc>lat.=20.956249, lon.=107.052216, Alt.=9.451546m. Speed=3.384000m/h.</desc>
<speed>0.940000</speed>
</trkpt>
<trkpt lat="20.956249" lon="107.052177">
<ele>10.114632</ele>
<time>2011-04-30T09:34:35Z</time>
<desc>lat.=20.956249, lon.=107.052177, Alt.=10.114632m. Speed=1.404000m/h.</desc>
<speed>0.390000</speed>
</trkpt>
<trkpt lat="20.956257" lon="107.052116">
<ele>10.620735</ele>
<time>2011-04-30T09:34:40Z</time>
<desc>lat.=20.956257, lon.=107.052116, Alt.=10.620735m. Speed=3.060000m/h.</desc>
<speed>0.850000</speed>
</trkpt>
<trkpt lat="20.956268" lon="107.052055">
<ele>11.769661</ele>
<time>2011-04-30T09:34:45Z</time>
<desc>lat.=20.956268, lon.=107.052055, Alt.=11.769661m. Speed=3.564000m/h.</desc>
<speed>0.990000</speed>
</trkpt>
<trkpt lat="20.956272" lon="107.052002">
<ele>11.880257</ele>
<time>2011-04-30T09:34:50Z</time>
<desc>lat.=20.956272, lon.=107.052002, Alt.=11.880257m. Speed=3.708000m/h.</desc>
<speed>1.030000</speed>
</trkpt>
<trkpt lat="20.956278" lon="107.051933">
<ele>11.974983</ele>
<time>2011-04-30T09:34:55Z</time>
<desc>lat.=20.956278, lon.=107.051933, Alt.=11.974983m. Speed=2.628000m/h.</desc>
<speed>0.730000</speed>
</trkpt>
<trkpt lat="20.956278" lon="107.051872">
<ele>12.462532</ele>
<time>2011-04-30T09:35:00Z</time>
<desc>lat.=20.956278, lon.=107.051872, Alt.=12.462532m. Speed=2.628000m/h.</desc>
<speed>0.730000</speed>
</trkpt>
<trkpt lat="20.956278" lon="107.051826">
<ele>11.776253</ele>
<time>2011-04-30T09:35:05Z</time>
<desc>lat.=20.956278, lon.=107.051826, Alt.=11.776253m. Speed=2.232000m/h.</desc>
<speed>0.620000</speed>
</trkpt>
<trkpt lat="20.956280" lon="107.051765">
<ele>11.758186</ele>
<time>2011-04-30T09:35:10Z</time>
<desc>lat.=20.956280, lon.=107.051765, Alt.=11.758186m. Speed=2.700000m/h.</desc>
<speed>0.750000</speed>
</trkpt>
<trkpt lat="20.956284" lon="107.051720">
<ele>12.225227</ele>
<time>2011-04-30T09:35:15Z</time>
<desc>lat.=20.956284, lon.=107.051720, Alt.=12.225227m. Speed=2.448000m/h.</desc>
<speed>0.680000</speed>
</trkpt>
<trkpt lat="20.956291" lon="107.051659">
<ele>13.245735</ele>
<time>2011-04-30T09:35:20Z</time>
<desc>lat.=20.956291, lon.=107.051659, Alt.=13.245735m. Speed=2.952000m/h.</desc>
<speed>0.820000</speed>
</trkpt>
<trkpt lat="20.956308" lon="107.051605">
<ele>13.913216</ele>
<time>2011-04-30T09:35:25Z</time>
<desc>lat.=20.956308, lon.=107.051605, Alt.=13.913216m. Speed=3.348000m/h.</desc>
<speed>0.930000</speed>
</trkpt>
<trkpt lat="20.956322" lon="107.051544">
<ele>15.528938</ele>
<time>2011-04-30T09:35:30Z</time>
<desc>lat.=20.956322, lon.=107.051544, Alt.=15.528938m. Speed=3.420000m/h.</desc>
<speed>0.950000</speed>
</trkpt>
<trkpt lat="20.956331" lon="107.051498">
<ele>15.526253</ele>
<time>2011-04-30T09:35:35Z</time>
<desc>lat.=20.956331, lon.=107.051498, Alt.=15.526253m. Speed=3.024000m/h.</desc>
<speed>0.840000</speed>
</trkpt>
<trkpt lat="20.956333" lon="107.051445">
<ele>15.657600</ele>
<time>2011-04-30T09:35:40Z</time>
<desc>lat.=20.956333, lon.=107.051445, Alt.=15.657600m. Speed=2.484000m/h.</desc>
<speed>0.690000</speed>
</trkpt>
<trkpt lat="20.956345" lon="107.051407">
<ele>15.601204</ele>
<time>2011-04-30T09:35:45Z</time>
<desc>lat.=20.956345, lon.=107.051407, Alt.=15.601204m. Speed=2.448000m/h.</desc>
<speed>0.680000</speed>
</trkpt>
<trkpt lat="20.956347" lon="107.051369">
<ele>14.672981</ele>
<time>2011-04-30T09:35:50Z</time>
<desc>lat.=20.956347, lon.=107.051369, Alt.=14.672981m. Speed=2.808000m/h.</desc>
<speed>0.780000</speed>
</trkpt>
<trkpt lat="20.956352" lon="107.051323">
<ele>12.643684</ele>
<time>2011-04-30T09:35:55Z</time>
<desc>lat.=20.956352, lon.=107.051323, Alt.=12.643684m. Speed=2.232000m/h.</desc>
<speed>0.620000</speed>
</trkpt>
<trkpt lat="20.956364" lon="107.051292">
<ele>11.454964</ele>
<time>2011-04-30T09:36:00Z</time>
<desc>lat.=20.956364, lon.=107.051292, Alt.=11.454964m. Speed=3.888000m/h.</desc>
<speed>1.080000</speed>
</trkpt>
<trkpt lat="20.956377" lon="107.051254">
<ele>12.925179</ele>
<time>2011-04-30T09:36:05Z</time>
<desc>lat.=20.956377, lon.=107.051254, Alt.=12.925179m. Speed=2.736000m/h.</desc>
<speed>0.760000</speed>
</trkpt>
<trkpt lat="20.956385" lon="107.051216">
<ele>15.165901</ele>
<time>2011-04-30T09:36:10Z</time>
<desc>lat.=20.956385, lon.=107.051216, Alt.=15.165901m. Speed=2.340000m/h.</desc>
<speed>0.650000</speed>
</trkpt>
<trkpt lat="20.956358" lon="107.051178">
<ele>15.592903</ele>
<time>2011-04-30T09:36:15Z</time>
<desc>lat.=20.956358, lon.=107.051178, Alt.=15.592903m. Speed=1.512000m/h.</desc>
<speed>0.420000</speed>
</trkpt>
<trkpt lat="20.956347" lon="107.051147">
<ele>16.317642</ele>
<time>2011-04-30T09:36:20Z</time>
<desc>lat.=20.956347, lon.=107.051147, Alt.=16.317642m. Speed=2.232000m/h.</desc>
<speed>0.620000</speed>
</trkpt>
<trkpt lat="20.956356" lon="107.051125">
<ele>17.777603</ele>
<time>2011-04-30T09:36:25Z</time>
<desc>lat.=20.956356, lon.=107.051125, Alt.=17.777603m. Speed=2.916000m/h.</desc>
<speed>0.810000</speed>
</trkpt>
<trkpt lat="20.956367" lon="107.051094">
<ele>18.476822</ele>
<time>2011-04-30T09:36:30Z</time>
<desc>lat.=20.956367, lon.=107.051094, Alt.=18.476822m. Speed=2.880000m/h.</desc>
<speed>0.800000</speed>
</trkpt>
<trkpt lat="20.956364" lon="107.051064">
<ele>19.774673</ele>
<time>2011-04-30T09:36:35Z</time>
<desc>lat.=20.956364, lon.=107.051064, Alt.=19.774673m. Speed=2.592000m/h.</desc>
<speed>0.720000</speed>
</trkpt>
<trkpt lat="20.956360" lon="107.051010">
<ele>21.171158</ele>
<time>2011-04-30T09:36:40Z</time>
<desc>lat.=20.956360, lon.=107.051010, Alt.=21.171158m. Speed=2.376000m/h.</desc>
<speed>0.660000</speed>
</trkpt>
<trkpt lat="20.956377" lon="107.050949">
<ele>22.664322</ele>
<time>2011-04-30T09:36:45Z</time>
<desc>lat.=20.956377, lon.=107.050949, Alt.=22.664322m. Speed=2.124000m/h.</desc>
<speed>0.590000</speed>
</trkpt>
<trkpt lat="20.956379" lon="107.050873">
<ele>23.205338</ele>
<time>2011-04-30T09:36:50Z</time>
<desc>lat.=20.956379, lon.=107.050873, Alt.=23.205338m. Speed=4.284000m/h.</desc>
<speed>1.190000</speed>
</trkpt>
<trkpt lat="20.956394" lon="107.050797">
<ele>21.318619</ele>
<time>2011-04-30T09:36:55Z</time>
<desc>lat.=20.956394, lon.=107.050797, Alt.=21.318619m. Speed=3.564000m/h.</desc>
<speed>0.990000</speed>
</trkpt>
<trkpt lat="20.956417" lon="107.050728">
<ele>20.021744</ele>
<time>2011-04-30T09:37:00Z</time>
<desc>lat.=20.956417, lon.=107.050728, Alt.=20.021744m. Speed=2.232000m/h.</desc>
<speed>0.620000</speed>
</trkpt>
<trkpt lat="20.956425" lon="107.050674">
<ele>18.724869</ele>
<time>2011-04-30T09:37:05Z</time>
<desc>lat.=20.956425, lon.=107.050674, Alt.=18.724869m. Speed=2.628000m/h.</desc>
<speed>0.730000</speed>
</trkpt>
<trkpt lat="20.956430" lon="107.050606">
<ele>17.679947</ele>
<time>2011-04-30T09:37:10Z</time>
<desc>lat.=20.956430, lon.=107.050606, Alt.=17.679947m. Speed=3.384000m/h.</desc>
<speed>0.940000</speed>
</trkpt>
<trkpt lat="20.956442" lon="107.050537">
<ele>17.082779</ele>
<time>2011-04-30T09:37:15Z</time>
<desc>lat.=20.956442, lon.=107.050537, Alt.=17.082779m. Speed=3.168000m/h.</desc>
<speed>0.880000</speed>
</trkpt>
<trkpt lat="20.956427" lon="107.050484">
<ele>17.248795</ele>
<time>2011-04-30T09:37:20Z</time>
<desc>lat.=20.956427, lon.=107.050484, Alt.=17.248795m. Speed=2.628000m/h.</desc>
<speed>0.730000</speed>
</trkpt>
<trkpt lat="20.956415" lon="107.050438">
<ele>17.929459</ele>
<time>2011-04-30T09:37:25Z</time>
<desc>lat.=20.956415, lon.=107.050438, Alt.=17.929459m. Speed=3.492000m/h.</desc>
<speed>0.970000</speed>
</trkpt>
<trkpt lat="20.956388" lon="107.050369">
<ele>18.927505</ele>
<time>2011-04-30T09:37:30Z</time>
<desc>lat.=20.956388, lon.=107.050369, Alt.=18.927505m. Speed=4.140000m/h.</desc>
<speed>1.150000</speed>
</trkpt>
<trkpt lat="20.956377" lon="107.050323">
<ele>19.318619</ele>
<time>2011-04-30T09:37:35Z</time>
<desc>lat.=20.956377, lon.=107.050323, Alt.=19.318619m. Speed=1.080000m/h.</desc>
<speed>0.300000</speed>
</trkpt>
<trkpt lat="20.956373" lon="107.050316">
<ele>18.454361</ele>
<time>2011-04-30T09:37:40Z</time>
<desc>lat.=20.956373, lon.=107.050316, Alt.=18.454361m. Speed=0.540000m/h.</desc>
<speed>0.150000</speed>
</trkpt>
<trkpt lat="20.956371" lon="107.050301">
<ele>18.874283</ele>
<time>2011-04-30T09:37:45Z</time>
<desc>lat.=20.956371, lon.=107.050301, Alt.=18.874283m. Speed=0.756000m/h.</desc>
<speed>0.210000</speed>
</trkpt>
<trkpt lat="20.956371" lon="107.050270">
<ele>18.440201</ele>
<time>2011-04-30T09:37:50Z</time>
<desc>lat.=20.956371, lon.=107.050270, Alt.=18.440201m. Speed=1.116000m/h.</desc>
<speed>0.310000</speed>
</trkpt>
<trkpt lat="20.956339" lon="107.050285">
<ele>19.315689</ele>
<time>2011-04-30T09:37:55Z</time>
<desc>lat.=20.956339, lon.=107.050285, Alt.=19.315689m. Speed=0.612000m/h.</desc>
<speed>0.170000</speed>
</trkpt>
<trkpt lat="20.956318" lon="107.050278">
<ele>19.117447</ele>
<time>2011-04-30T09:38:00Z</time>
<desc>lat.=20.956318, lon.=107.050278, Alt.=19.117447m. Speed=0.108000m/h.</desc>
<speed>0.030000</speed>
</trkpt>
<trkpt lat="20.956305" lon="107.050293">
<ele>18.961197</ele>
<time>2011-04-30T09:38:05Z</time>
<desc>lat.=20.956305, lon.=107.050293, Alt.=18.961197m. Speed=0.216000m/h.</desc>
<speed>0.060000</speed>
</trkpt>
<trkpt lat="20.956305" lon="107.050293">
<ele>18.882584</ele>
<time>2011-04-30T09:38:10Z</time>
<desc>lat.=20.956305, lon.=107.050293, Alt.=18.882584m. Speed=0.036000m/h.</desc>
<speed>0.010000</speed>
</trkpt>
<trkpt lat="20.956305" lon="107.050293">
<ele>18.877213</ele>
<time>2011-04-30T09:38:15Z</time>
<desc>lat.=20.956305, lon.=107.050293, Alt.=18.877213m. Speed=0.036000m/h.</desc>
<speed>0.010000</speed>
</trkpt>
<trkpt lat="20.956305" lon="107.050293">
<ele>18.875259</ele>
<time>2011-04-30T09:38:20Z</time>
<desc>lat.=20.956305, lon.=107.050293, Alt.=18.875259m. Speed=0.000000m/h.</desc>
<speed>0.000000</speed>
</trkpt>
<trkpt lat="20.956305" lon="107.050293">
<ele>18.861588</ele>
<time>2011-04-30T09:38:25Z</time>
<desc>lat.=20.956305, lon.=107.050293, Alt.=18.861588m. Speed=0.000000m/h.</desc>
<speed>0.000000</speed>
</trkpt>
<trkpt lat="20.956303" lon="107.050293">
<ele>18.863052</ele>
<time>2011-04-30T09:38:30Z</time>
<desc>lat.=20.956303, lon.=107.050293, Alt.=18.863052m. Speed=0.036000m/h.</desc>
<speed>0.010000</speed>
</trkpt>
<trkpt lat="20.956303" lon="107.050293">
<ele>18.823013</ele>
<time>2011-04-30T09:38:35Z</time>
<desc>lat.=20.956303, lon.=107.050293, Alt.=18.823013m. Speed=0.036000m/h.</desc>
<speed>0.010000</speed>
</trkpt>
<trkpt lat="20.956303" lon="107.050293">
<ele>18.781998</ele>
<time>2011-04-30T09:38:40Z</time>
<desc>lat.=20.956303, lon.=107.050293, Alt.=18.781998m. Speed=0.000000m/h.</desc>
<speed>0.000000</speed>
</trkpt>
<trkpt lat="20.956303" lon="107.050293">
<ele>18.742447</ele>
<time>2011-04-30T09:38:45Z</time>
<desc>lat.=20.956303, lon.=107.050293, Alt.=18.742447m. Speed=0.000000m/h.</desc>
<speed>0.000000</speed>
</trkpt>
<trkpt lat="20.956303" lon="107.050293">
<ele>18.713638</ele>
<time>2011-04-30T09:38:50Z</time>
<desc>lat.=20.956303, lon.=107.050293, Alt.=18.713638m. Speed=0.036000m/h.</desc>
<speed>0.010000</speed>
</trkpt>
<trkpt lat="20.956303" lon="107.050293">
<ele>18.604263</ele>
<time>2011-04-30T09:38:55Z</time>
<desc>lat.=20.956303, lon.=107.050293, Alt.=18.604263m. Speed=0.072000m/h.</desc>
<speed>0.020000</speed>
</trkpt>
<trkpt lat="20.956303" lon="107.050293">
<ele>18.399185</ele>
<time>2011-04-30T09:39:00Z</time>
<desc>lat.=20.956303, lon.=107.050293, Alt.=18.399185m. Speed=0.108000m/h.</desc>
<speed>0.030000</speed>
</trkpt>
<trkpt lat="20.956306" lon="107.050301">
<ele>18.388931</ele>
<time>2011-04-30T09:39:05Z</time>
<desc>lat.=20.956306, lon.=107.050301, Alt.=18.388931m. Speed=0.468000m/h.</desc>
<speed>0.130000</speed>
</trkpt>
<trkpt lat="20.956306" lon="107.050301">
<ele>18.339127</ele>
<time>2011-04-30T09:39:10Z</time>
<desc>lat.=20.956306, lon.=107.050301, Alt.=18.339127m. Speed=0.324000m/h.</desc>
<speed>0.090000</speed>
</trkpt>
<trkpt lat="20.956308" lon="107.050301">
<ele>18.322525</ele>
<time>2011-04-30T09:39:15Z</time>
<desc>lat.=20.956308, lon.=107.050301, Alt.=18.322525m. Speed=0.036000m/h.</desc>
<speed>0.010000</speed>
</trkpt>
<trkpt lat="20.956310" lon="107.050301">
<ele>18.276627</ele>
<time>2011-04-30T09:39:20Z</time>
<desc>lat.=20.956310, lon.=107.050301, Alt.=18.276627m. Speed=0.180000m/h.</desc>
<speed>0.050000</speed>
</trkpt>
<trkpt lat="20.956310" lon="107.050308">
<ele>18.254166</ele>
<time>2011-04-30T09:39:25Z</time>
<desc>lat.=20.956310, lon.=107.050308, Alt.=18.254166m. Speed=0.036000m/h.</desc>
<speed>0.010000</speed>
</trkpt>
<trkpt lat="20.956312" lon="107.050308">
<ele>18.240494</ele>
<time>2011-04-30T09:39:30Z</time>
<desc>lat.=20.956312, lon.=107.050308, Alt.=18.240494m. Speed=0.000000m/h.</desc>
<speed>0.000000</speed>
</trkpt>
<trkpt lat="20.956312" lon="107.050308">
<ele>18.235611</ele>
<time>2011-04-30T09:39:35Z</time>
<desc>lat.=20.956312, lon.=107.050308, Alt.=18.235611m. Speed=0.000000m/h.</desc>
<speed>0.000000</speed>
</trkpt>
<trkpt lat="20.956312" lon="107.050308">
<ele>18.229752</ele>
<time>2011-04-30T09:39:40Z</time>
<desc>lat.=20.956312, lon.=107.050308, Alt.=18.229752m. Speed=0.000000m/h.</desc>
<speed>0.000000</speed>
</trkpt>
<trkpt lat="20.956312" lon="107.050308">
<ele>18.226822</ele>
<time>2011-04-30T09:39:45Z</time>
<desc>lat.=20.956312, lon.=107.050308, Alt.=18.226822m. Speed=0.036000m/h.</desc>
<speed>0.010000</speed>
</trkpt>
<trkpt lat="20.956312" lon="107.050308">
<ele>18.213638</ele>
<time>2011-04-30T09:39:50Z</time>
<desc>lat.=20.956312, lon.=107.050308, Alt.=18.213638m. Speed=0.000000m/h.</desc>
<speed>0.000000</speed>
</trkpt>
<trkpt lat="20.956312" lon="107.050308">
<ele>18.183853</ele>
<time>2011-04-30T09:39:55Z</time>
<desc>lat.=20.956312, lon.=107.050308, Alt.=18.183853m. Speed=0.036000m/h.</desc>
<speed>0.010000</speed>
</trkpt>
<trkpt lat="20.956312" lon="107.050308">
<ele>18.175064</ele>
<time>2011-04-30T09:40:00Z</time>
<desc>lat.=20.956312, lon.=107.050308, Alt.=18.175064m. Speed=0.072000m/h.</desc>
<speed>0.020000</speed>
</trkpt>
<trkpt lat="20.956312" lon="107.050308">
<ele>18.144302</ele>
<time>2011-04-30T09:40:05Z</time>
<desc>lat.=20.956312, lon.=107.050308, Alt.=18.144302m. Speed=0.036000m/h.</desc>
<speed>0.010000</speed>
</trkpt>
<trkpt lat="20.956312" lon="107.050308">
<ele>18.114517</ele>
<time>2011-04-30T09:40:10Z</time>
<desc>lat.=20.956312, lon.=107.050308, Alt.=18.114517m. Speed=0.036000m/h.</desc>
<speed>0.010000</speed>
</trkpt>
<trkpt lat="20.956312" lon="107.050308">
<ele>18.105728</ele>
<time>2011-04-30T09:40:15Z</time>
<desc>lat.=20.956312, lon.=107.050308, Alt.=18.105728m. Speed=0.000000m/h.</desc>
<speed>0.000000</speed>
</trkpt>
<trkpt lat="20.956312" lon="107.050308">
<ele>18.109146</ele>
<time>2011-04-30T09:40:20Z</time>
<desc>lat.=20.956312, lon.=107.050308, Alt.=18.109146m. Speed=0.000000m/h.</desc>
<speed>0.000000</speed>
</trkpt>
<trkpt lat="20.956312" lon="107.050308">
<ele>18.121353</ele>
<time>2011-04-30T09:40:25Z</time>
<desc>lat.=20.956312, lon.=107.050308, Alt.=18.121353m. Speed=0.180000m/h.</desc>
<speed>0.050000</speed>
</trkpt>
<trkpt lat="20.956316" lon="107.050316">
<ele>18.130142</ele>
<time>2011-04-30T09:40:30Z</time>
<desc>lat.=20.956316, lon.=107.050316, Alt.=18.130142m. Speed=0.756000m/h.</desc>
<speed>0.210000</speed>
</trkpt>
<trkpt lat="20.956322" lon="107.050323">
<ele>18.105240</ele>
<time>2011-04-30T09:40:35Z</time>
<desc>lat.=20.956322, lon.=107.050323, Alt.=18.105240m. Speed=0.504000m/h.</desc>
<speed>0.140000</speed>
</trkpt>
<trkpt lat="20.956327" lon="107.050323">
<ele>18.043716</ele>
<time>2011-04-30T09:40:40Z</time>
<desc>lat.=20.956327, lon.=107.050323, Alt.=18.043716m. Speed=0.216000m/h.</desc>
<speed>0.060000</speed>
</trkpt>
<trkpt lat="20.956331" lon="107.050323">
<ele>17.980240</ele>
<time>2011-04-30T09:40:45Z</time>
<desc>lat.=20.956331, lon.=107.050323, Alt.=17.980240m. Speed=0.396000m/h.</desc>
<speed>0.110000</speed>
</trkpt>
<trkpt lat="20.956337" lon="107.050323">
<ele>17.872818</ele>
<time>2011-04-30T09:40:50Z</time>
<desc>lat.=20.956337, lon.=107.050323, Alt.=17.872818m. Speed=0.396000m/h.</desc>
<speed>0.110000</speed>
</trkpt>
<trkpt lat="20.956341" lon="107.050323">
<ele>17.683365</ele>
<time>2011-04-30T09:40:55Z</time>
<desc>lat.=20.956341, lon.=107.050323, Alt.=17.683365m. Speed=0.252000m/h.</desc>
<speed>0.070000</speed>
</trkpt>
<trkpt lat="20.956345" lon="107.050323">
<ele>17.469009</ele>
<time>2011-04-30T09:41:00Z</time>
<desc>lat.=20.956345, lon.=107.050323, Alt.=17.469009m. Speed=0.144000m/h.</desc>
<speed>0.040000</speed>
</trkpt>
<trkpt lat="20.956347" lon="107.050316">
<ele>17.242935</ele>
<time>2011-04-30T09:41:05Z</time>
<desc>lat.=20.956347, lon.=107.050316, Alt.=17.242935m. Speed=0.180000m/h.</desc>
<speed>0.050000</speed>
</trkpt>
<trkpt lat="20.956347" lon="107.050316">
<ele>17.096939</ele>
<time>2011-04-30T09:41:10Z</time>
<desc>lat.=20.956347, lon.=107.050316, Alt.=17.096939m. Speed=0.972000m/h.</desc>
<speed>0.270000</speed>
</trkpt>
<trkpt lat="20.956347" lon="107.050316">
<ele>16.269302</ele>
<time>2011-04-30T09:41:15Z</time>
<desc>lat.=20.956347, lon.=107.050316, Alt.=16.269302m. Speed=0.468000m/h.</desc>
<speed>0.130000</speed>
</trkpt>
<trkpt lat="20.956360" lon="107.050308">
<ele>16.197525</ele>
<time>2011-04-30T09:41:20Z</time>
<desc>lat.=20.956360, lon.=107.050308, Alt.=16.197525m. Speed=0.252000m/h.</desc>
<speed>0.070000</speed>
</trkpt>
<trkpt lat="20.956360" lon="107.050301">
<ele>16.301529</ele>
<time>2011-04-30T09:41:25Z</time>
<desc>lat.=20.956360, lon.=107.050301, Alt.=16.301529m. Speed=0.360000m/h.</desc>
<speed>0.100000</speed>
</trkpt>
<trkpt lat="20.956373" lon="107.050308">
<ele>15.672737</ele>
<time>2011-04-30T09:41:30Z</time>
<desc>lat.=20.956373, lon.=107.050308, Alt.=15.672737m. Speed=0.072000m/h.</desc>
<speed>0.020000</speed>
</trkpt>
<trkpt lat="20.956373" lon="107.050308">
<ele>15.723518</ele>
<time>2011-04-30T09:41:35Z</time>
<desc>lat.=20.956373, lon.=107.050308, Alt.=15.723518m. Speed=0.108000m/h.</desc>
<speed>0.030000</speed>
</trkpt>
<trkpt lat="20.956375" lon="107.050308">
<ele>15.790169</ele>
<time>2011-04-30T09:41:40Z</time>
<desc>lat.=20.956375, lon.=107.050308, Alt.=15.790169m. Speed=0.180000m/h.</desc>
<speed>0.050000</speed>
</trkpt>
<trkpt lat="20.956375" lon="107.050301">
<ele>15.820442</ele>
<time>2011-04-30T09:41:45Z</time>
<desc>lat.=20.956375, lon.=107.050301, Alt.=15.820442m. Speed=0.252000m/h.</desc>
<speed>0.070000</speed>
</trkpt>
<trkpt lat="20.956385" lon="107.050301">
<ele>15.745003</ele>
<time>2011-04-30T09:41:50Z</time>
<desc>lat.=20.956385, lon.=107.050301, Alt.=15.745003m. Speed=0.468000m/h.</desc>
<speed>0.130000</speed>
</trkpt>
<trkpt lat="20.956388" lon="107.050301">
<ele>15.711555</ele>
<time>2011-04-30T09:41:55Z</time>
<desc>lat.=20.956388, lon.=107.050301, Alt.=15.711555m. Speed=0.072000m/h.</desc>
<speed>0.020000</speed>
</trkpt>
<trkpt lat="20.956390" lon="107.050301">
<ele>15.704475</ele>
<time>2011-04-30T09:42:00Z</time>
<desc>lat.=20.956390, lon.=107.050301, Alt.=15.704475m. Speed=0.540000m/h.</desc>
<speed>0.150000</speed>
</trkpt>
<trkpt lat="20.956392" lon="107.050293">
<ele>15.716438</ele>
<time>2011-04-30T09:42:05Z</time>
<desc>lat.=20.956392, lon.=107.050293, Alt.=15.716438m. Speed=0.324000m/h.</desc>
<speed>0.090000</speed>
</trkpt>
<trkpt lat="20.956396" lon="107.050301">
<ele>15.707649</ele>
<time>2011-04-30T09:42:10Z</time>
<desc>lat.=20.956396, lon.=107.050301, Alt.=15.707649m. Speed=0.000000m/h.</desc>
<speed>0.000000</speed>
</trkpt>
<trkpt lat="20.956398" lon="107.050293">
<ele>15.678596</ele>
<time>2011-04-30T09:42:15Z</time>
<desc>lat.=20.956398, lon.=107.050293, Alt.=15.678596m. Speed=0.216000m/h.</desc>
<speed>0.060000</speed>
</trkpt>
<trkpt lat="20.956400" lon="107.050293">
<ele>15.676643</ele>
<time>2011-04-30T09:42:20Z</time>
<desc>lat.=20.956400, lon.=107.050293, Alt.=15.676643m. Speed=0.216000m/h.</desc>
<speed>0.060000</speed>
</trkpt>
<trkpt lat="20.956400" lon="107.050293">
<ele>15.698616</ele>
<time>2011-04-30T09:42:25Z</time>
<desc>lat.=20.956400, lon.=107.050293, Alt.=15.698616m. Speed=0.180000m/h.</desc>
<speed>0.050000</speed>
</trkpt>
<trkpt lat="20.956400" lon="107.050293">
<ele>15.711311</ele>
<time>2011-04-30T09:42:30Z</time>
<desc>lat.=20.956400, lon.=107.050293, Alt.=15.711311m. Speed=0.180000m/h.</desc>
<speed>0.050000</speed>
</trkpt>
<trkpt lat="20.956398" lon="107.050293">
<ele>15.703743</ele>
<time>2011-04-30T09:42:35Z</time>
<desc>lat.=20.956398, lon.=107.050293, Alt.=15.703743m. Speed=0.324000m/h.</desc>
<speed>0.090000</speed>
</trkpt>
<trkpt lat="20.956398" lon="107.050285">
<ele>15.732063</ele>
<time>2011-04-30T09:42:40Z</time>
<desc>lat.=20.956398, lon.=107.050285, Alt.=15.732063m. Speed=0.180000m/h.</desc>
<speed>0.050000</speed>
</trkpt>
<trkpt lat="20.956400" lon="107.050285">
<ele>15.782356</ele>
<time>2011-04-30T09:42:45Z</time>
<desc>lat.=20.956400, lon.=107.050285, Alt.=15.782356m. Speed=0.360000m/h.</desc>
<speed>0.100000</speed>
</trkpt>
<trkpt lat="20.956400" lon="107.050285">
<ele>15.830940</ele>
<time>2011-04-30T09:42:50Z</time>
<desc>lat.=20.956400, lon.=107.050285, Alt.=15.830940m. Speed=0.180000m/h.</desc>
<speed>0.050000</speed>
</trkpt>
<trkpt lat="20.956396" lon="107.050285">
<ele>15.877327</ele>
<time>2011-04-30T09:42:55Z</time>
<desc>lat.=20.956396, lon.=107.050285, Alt.=15.877327m. Speed=0.468000m/h.</desc>
<speed>0.130000</speed>
</trkpt>
<trkpt lat="20.956394" lon="107.050278">
<ele>15.932503</ele>
<time>2011-04-30T09:43:00Z</time>
<desc>lat.=20.956394, lon.=107.050278, Alt.=15.932503m. Speed=0.648000m/h.</desc>
<speed>0.180000</speed>
</trkpt>
<trkpt lat="20.956392" lon="107.050270">
<ele>15.950813</ele>
<time>2011-04-30T09:43:05Z</time>
<desc>lat.=20.956392, lon.=107.050270, Alt.=15.950813m. Speed=0.216000m/h.</desc>
<speed>0.060000</speed>
</trkpt>
<trkpt lat="20.956390" lon="107.050278">
<ele>15.925911</ele>
<time>2011-04-30T09:43:10Z</time>
<desc>lat.=20.956390, lon.=107.050278, Alt.=15.925911m. Speed=0.324000m/h.</desc>
<speed>0.090000</speed>
</trkpt>
<trkpt lat="20.956390" lon="107.050278">
<ele>15.906624</ele>
<time>2011-04-30T09:43:15Z</time>
<desc>lat.=20.956390, lon.=107.050278, Alt.=15.906624m. Speed=0.324000m/h.</desc>
<speed>0.090000</speed>
</trkpt>
<trkpt lat="20.956392" lon="107.050278">
<ele>15.910530</ele>
<time>2011-04-30T09:43:20Z</time>
<desc>lat.=20.956392, lon.=107.050278, Alt.=15.910530m. Speed=0.288000m/h.</desc>
<speed>0.080000</speed>
</trkpt>
<trkpt lat="20.956390" lon="107.050278">
<ele>15.907112</ele>
<time>2011-04-30T09:43:25Z</time>
<desc>lat.=20.956390, lon.=107.050278, Alt.=15.907112m. Speed=0.324000m/h.</desc>
<speed>0.090000</speed>
</trkpt>
<trkpt lat="20.956388" lon="107.050278">
<ele>15.944954</ele>
<time>2011-04-30T09:43:30Z</time>
<desc>lat.=20.956388, lon.=107.050278, Alt.=15.944954m. Speed=0.288000m/h.</desc>
<speed>0.080000</speed>
</trkpt>
<trkpt lat="20.956390" lon="107.050278">
<ele>15.945930</ele>
<time>2011-04-30T09:43:35Z</time>
<desc>lat.=20.956390, lon.=107.050278, Alt.=15.945930m. Speed=0.180000m/h.</desc>
<speed>0.050000</speed>
</trkpt>
<trkpt lat="20.956390" lon="107.050278">
<ele>15.936409</ele>
<time>2011-04-30T09:43:40Z</time>
<desc>lat.=20.956390, lon.=107.050278, Alt.=15.936409m. Speed=0.036000m/h.</desc>
<speed>0.010000</speed>
</trkpt>
<trkpt lat="20.956371" lon="107.050293">
<ele>17.208755</ele>
<time>2011-04-30T09:43:45Z</time>
<desc>lat.=20.956371, lon.=107.050293, Alt.=17.208755m. Speed=0.180000m/h.</desc>
<speed>0.050000</speed>
</trkpt>
<trkpt lat="20.956356" lon="107.050301">
<ele>16.270767</ele>
<time>2011-04-30T09:43:50Z</time>
<desc>lat.=20.956356, lon.=107.050301, Alt.=16.270767m. Speed=0.612000m/h.</desc>
<speed>0.170000</speed>
</trkpt>
<trkpt lat="20.956366" lon="107.050301">
<ele>16.411392</ele>
<time>2011-04-30T09:43:55Z</time>
<desc>lat.=20.956366, lon.=107.050301, Alt.=16.411392m. Speed=1.044000m/h.</desc>
<speed>0.290000</speed>
</trkpt>
<trkpt lat="20.956350" lon="107.050293">
<ele>16.679459</ele>
<time>2011-04-30T09:44:00Z</time>
<desc>lat.=20.956350, lon.=107.050293, Alt.=16.679459m. Speed=1.512000m/h.</desc>
<speed>0.420000</speed>
</trkpt>
<trkpt lat="20.956350" lon="107.050270">
<ele>16.741470</ele>
<time>2011-04-30T09:44:05Z</time>
<desc>lat.=20.956350, lon.=107.050270, Alt.=16.741470m. Speed=1.764000m/h.</desc>
<speed>0.490000</speed>
</trkpt>
<trkpt lat="20.956324" lon="107.050255">
<ele>16.503189</ele>
<time>2011-04-30T09:44:10Z</time>
<desc>lat.=20.956324, lon.=107.050255, Alt.=16.503189m. Speed=1.728000m/h.</desc>
<speed>0.480000</speed>
</trkpt>
<trkpt lat="20.956303" lon="107.050240">
<ele>16.594009</ele>
<time>2011-04-30T09:44:15Z</time>
<desc>lat.=20.956303, lon.=107.050240, Alt.=16.594009m. Speed=0.216000m/h.</desc>
<speed>0.060000</speed>
</trkpt>
<trkpt lat="20.956291" lon="107.050232">
<ele>16.457291</ele>
<time>2011-04-30T09:44:20Z</time>
<desc>lat.=20.956291, lon.=107.050232, Alt.=16.457291m. Speed=0.900000m/h.</desc>
<speed>0.250000</speed>
</trkpt>
<trkpt lat="20.956268" lon="107.050209">
<ele>16.052994</ele>
<time>2011-04-30T09:44:25Z</time>
<desc>lat.=20.956268, lon.=107.050209, Alt.=16.052994m. Speed=0.756000m/h.</desc>
<speed>0.210000</speed>
</trkpt>
<trkpt lat="20.956240" lon="107.050194">
<ele>16.342545</ele>
<time>2011-04-30T09:44:30Z</time>
<desc>lat.=20.956240, lon.=107.050194, Alt.=16.342545m. Speed=1.296000m/h.</desc>
<speed>0.360000</speed>
</trkpt>
<trkpt lat="20.956211" lon="107.050163">
<ele>16.360611</ele>
<time>2011-04-30T09:44:35Z</time>
<desc>lat.=20.956211, lon.=107.050163, Alt.=16.360611m. Speed=1.800000m/h.</desc>
<speed>0.500000</speed>
</trkpt>
<trkpt lat="20.956163" lon="107.050148">
<ele>16.073013</ele>
<time>2011-04-30T09:44:40Z</time>
<desc>lat.=20.956163, lon.=107.050148, Alt.=16.073013m. Speed=1.836000m/h.</desc>
<speed>0.510000</speed>
</trkpt>
<trkpt lat="20.956158" lon="107.050125">
<ele>16.076431</ele>
<time>2011-04-30T09:44:45Z</time>
<desc>lat.=20.956158, lon.=107.050125, Alt.=16.076431m. Speed=0.216000m/h.</desc>
<speed>0.060000</speed>
</trkpt>
<trkpt lat="20.956163" lon="107.050117">
<ele>16.068619</ele>
<time>2011-04-30T09:44:50Z</time>
<desc>lat.=20.956163, lon.=107.050117, Alt.=16.068619m. Speed=0.072000m/h.</desc>
<speed>0.020000</speed>
</trkpt>
<trkpt lat="20.956144" lon="107.050117">
<ele>15.797005</ele>
<time>2011-04-30T09:44:55Z</time>
<desc>lat.=20.956144, lon.=107.050117, Alt.=15.797005m. Speed=1.044000m/h.</desc>
<speed>0.290000</speed>
</trkpt>
<trkpt lat="20.956142" lon="107.050102">
<ele>15.869759</ele>
<time>2011-04-30T09:45:00Z</time>
<desc>lat.=20.956142, lon.=107.050102, Alt.=15.869759m. Speed=0.900000m/h.</desc>
<speed>0.250000</speed>
</trkpt>
<trkpt lat="20.956125" lon="107.050087">
<ele>16.833755</ele>
<time>2011-04-30T09:45:05Z</time>
<desc>lat.=20.956125, lon.=107.050087, Alt.=16.833755m. Speed=1.008000m/h.</desc>
<speed>0.280000</speed>
</trkpt>
<trkpt lat="20.956110" lon="107.050087">
<ele>16.280045</ele>
<time>2011-04-30T09:45:10Z</time>
<desc>lat.=20.956110, lon.=107.050087, Alt.=16.280045m. Speed=0.936000m/h.</desc>
<speed>0.260000</speed>
</trkpt>
<trkpt lat="20.956099" lon="107.050056">
<ele>15.734749</ele>
<time>2011-04-30T09:45:15Z</time>
<desc>lat.=20.956099, lon.=107.050056, Alt.=15.734749m. Speed=1.296000m/h.</desc>
<speed>0.360000</speed>
</trkpt>
<trkpt lat="20.956091" lon="107.050026">
<ele>15.038216</ele>
<time>2011-04-30T09:45:20Z</time>
<desc>lat.=20.956091, lon.=107.050026, Alt.=15.038216m. Speed=1.620000m/h.</desc>
<speed>0.450000</speed>
</trkpt>
<trkpt lat="20.956091" lon="107.049995">
<ele>14.536263</ele>
<time>2011-04-30T09:45:25Z</time>
<desc>lat.=20.956091, lon.=107.049995, Alt.=14.536263m. Speed=0.432000m/h.</desc>
<speed>0.120000</speed>
</trkpt>
<trkpt lat="20.956091" lon="107.049995">
<ele>14.535530</ele>
<time>2011-04-30T09:45:30Z</time>
<desc>lat.=20.956091, lon.=107.049995, Alt.=14.535530m. Speed=1.260000m/h.</desc>
<speed>0.350000</speed>
</trkpt>
<trkpt lat="20.956081" lon="107.049957">
<ele>13.993050</ele>
<time>2011-04-30T09:45:35Z</time>
<desc>lat.=20.956081, lon.=107.049957, Alt.=13.993050m. Speed=0.504000m/h.</desc>
<speed>0.140000</speed>
</trkpt>
<trkpt lat="20.956049" lon="107.049934">
<ele>13.665169</ele>
<time>2011-04-30T09:45:40Z</time>
<desc>lat.=20.956049, lon.=107.049934, Alt.=13.665169m. Speed=1.800000m/h.</desc>
<speed>0.500000</speed>
</trkpt>
<trkpt lat="20.956051" lon="107.049934">
<ele>13.272346</ele>
<time>2011-04-30T09:45:45Z</time>
<desc>lat.=20.956051, lon.=107.049934, Alt.=13.272346m. Speed=0.576000m/h.</desc>
<speed>0.160000</speed>
</trkpt>
<trkpt lat="20.956041" lon="107.049927">
<ele>12.758430</ele>
<time>2011-04-30T09:45:50Z</time>
<desc>lat.=20.956041, lon.=107.049927, Alt.=12.758430m. Speed=0.288000m/h.</desc>
<speed>0.080000</speed>
</trkpt>
<trkpt lat="20.956045" lon="107.049919">
<ele>12.888313</ele>
<time>2011-04-30T09:45:55Z</time>
<desc>lat.=20.956045, lon.=107.049919, Alt.=12.888313m. Speed=0.540000m/h.</desc>
<speed>0.150000</speed>
</trkpt>
<trkpt lat="20.956045" lon="107.049919">
<ele>12.782112</ele>
<time>2011-04-30T09:46:00Z</time>
<desc>lat.=20.956045, lon.=107.049919, Alt.=12.782112m. Speed=0.396000m/h.</desc>
<speed>0.110000</speed>
</trkpt>
<trkpt lat="20.956043" lon="107.049911">
<ele>12.547981</ele>
<time>2011-04-30T09:46:05Z</time>
<desc>lat.=20.956043, lon.=107.049911, Alt.=12.547981m. Speed=1.656000m/h.</desc>
<speed>0.460000</speed>
</trkpt>
<trkpt lat="20.956026" lon="107.049904">
<ele>12.345100</ele>
<time>2011-04-30T09:46:10Z</time>
<desc>lat.=20.956026, lon.=107.049904, Alt.=12.345100m. Speed=1.008000m/h.</desc>
<speed>0.280000</speed>
</trkpt>
<trkpt lat="20.956017" lon="107.049896">
<ele>13.025032</ele>
<time>2011-04-30T09:46:15Z</time>
<desc>lat.=20.956017, lon.=107.049896, Alt.=13.025032m. Speed=1.080000m/h.</desc>
<speed>0.300000</speed>
</trkpt>
<trkpt lat="20.956011" lon="107.049889">
<ele>13.492073</ele>
<time>2011-04-30T09:46:20Z</time>
<desc>lat.=20.956011, lon.=107.049889, Alt.=13.492073m. Speed=0.288000m/h.</desc>
<speed>0.080000</speed>
</trkpt>
<trkpt lat="20.956005" lon="107.049881">
<ele>14.312141</ele>
<time>2011-04-30T09:46:25Z</time>
<desc>lat.=20.956005, lon.=107.049881, Alt.=14.312141m. Speed=1.152000m/h.</desc>
<speed>0.320000</speed>
</trkpt>
<trkpt lat="20.955986" lon="107.049850">
<ele>15.312874</ele>
<time>2011-04-30T09:46:30Z</time>
<desc>lat.=20.955986, lon.=107.049850, Alt.=15.312874m. Speed=1.764000m/h.</desc>
<speed>0.490000</speed>
</trkpt>
<trkpt lat="20.955980" lon="107.049828">
<ele>14.621468</ele>
<time>2011-04-30T09:46:35Z</time>
<desc>lat.=20.955980, lon.=107.049828, Alt.=14.621468m. Speed=2.448000m/h.</desc>
<speed>0.680000</speed>
</trkpt>
<trkpt lat="20.955988" lon="107.049789">
<ele>15.645393</ele>
<time>2011-04-30T09:46:40Z</time>
<desc>lat.=20.955988, lon.=107.049789, Alt.=15.645393m. Speed=2.088000m/h.</desc>
<speed>0.580000</speed>
</trkpt>
<trkpt lat="20.955969" lon="107.049759">
<ele>16.032486</ele>
<time>2011-04-30T09:46:45Z</time>
<desc>lat.=20.955969, lon.=107.049759, Alt.=16.032486m. Speed=1.548000m/h.</desc>
<speed>0.430000</speed>
</trkpt>
<trkpt lat="20.955936" lon="107.049759">
<ele>16.403580</ele>
<time>2011-04-30T09:46:50Z</time>
<desc>lat.=20.955936, lon.=107.049759, Alt.=16.403580m. Speed=1.224000m/h.</desc>
<speed>0.340000</speed>
</trkpt>
<trkpt lat="20.955919" lon="107.049744">
<ele>16.382584</ele>
<time>2011-04-30T09:46:55Z</time>
<desc>lat.=20.955919, lon.=107.049744, Alt.=16.382584m. Speed=0.288000m/h.</desc>
<speed>0.080000</speed>
</trkpt>
<trkpt lat="20.955915" lon="107.049736">
<ele>16.461197</ele>
<time>2011-04-30T09:47:00Z</time>
<desc>lat.=20.955915, lon.=107.049736, Alt.=16.461197m. Speed=0.000000m/h.</desc>
<speed>0.000000</speed>
</trkpt>
<trkpt lat="20.955912" lon="107.049728">
<ele>16.452896</ele>
<time>2011-04-30T09:47:05Z</time>
<desc>lat.=20.955912, lon.=107.049728, Alt.=16.452896m. Speed=1.332000m/h.</desc>
<speed>0.370000</speed>
</trkpt>
<trkpt lat="20.955879" lon="107.049721">
<ele>16.271744</ele>
<time>2011-04-30T09:47:10Z</time>
<desc>lat.=20.955879, lon.=107.049721, Alt.=16.271744m. Speed=1.944000m/h.</desc>
<speed>0.540000</speed>
</trkpt>
<trkpt lat="20.955826" lon="107.049706">
<ele>16.596939</ele>
<time>2011-04-30T09:47:15Z</time>
<desc>lat.=20.955826, lon.=107.049706, Alt.=16.596939m. Speed=2.160000m/h.</desc>
<speed>0.600000</speed>
</trkpt>
<trkpt lat="20.955795" lon="107.049721">
<ele>16.096451</ele>
<time>2011-04-30T09:47:20Z</time>
<desc>lat.=20.955795, lon.=107.049721, Alt.=16.096451m. Speed=3.096000m/h.</desc>
<speed>0.860000</speed>
</trkpt>
<trkpt lat="20.955772" lon="107.049759">
<ele>17.123306</ele>
<time>2011-04-30T09:47:25Z</time>
<desc>lat.=20.955772, lon.=107.049759, Alt.=17.123306m. Speed=2.016000m/h.</desc>
<speed>0.560000</speed>
</trkpt>
<trkpt lat="20.955730" lon="107.049774">
<ele>16.768326</ele>
<time>2011-04-30T09:47:30Z</time>
<desc>lat.=20.955730, lon.=107.049774, Alt.=16.768326m. Speed=2.412000m/h.</desc>
<speed>0.670000</speed>
</trkpt>
<trkpt lat="20.955698" lon="107.049774">
<ele>16.053970</ele>
<time>2011-04-30T09:47:35Z</time>
<desc>lat.=20.955698, lon.=107.049774, Alt.=16.053970m. Speed=1.512000m/h.</desc>
<speed>0.420000</speed>
</trkpt>
<trkpt lat="20.955664" lon="107.049767">
<ele>15.673225</ele>
<time>2011-04-30T09:47:40Z</time>
<desc>lat.=20.955664, lon.=107.049767, Alt.=15.673225m. Speed=1.584000m/h.</desc>
<speed>0.440000</speed>
</trkpt>
<trkpt lat="20.955654" lon="107.049744">
<ele>15.613899</ele>
<time>2011-04-30T09:47:45Z</time>
<desc>lat.=20.955654, lon.=107.049744, Alt.=15.613899m. Speed=1.908000m/h.</desc>
<speed>0.530000</speed>
</trkpt>
<trkpt lat="20.955645" lon="107.049728">
<ele>14.855843</ele>
<time>2011-04-30T09:47:50Z</time>
<desc>lat.=20.955645, lon.=107.049728, Alt.=14.855843m. Speed=0.612000m/h.</desc>
<speed>0.170000</speed>
</trkpt>
<trkpt lat="20.955641" lon="107.049728">
<ele>14.561409</ele>
<time>2011-04-30T09:47:55Z</time>
<desc>lat.=20.955641, lon.=107.049728, Alt.=14.561409m. Speed=0.720000m/h.</desc>
<speed>0.200000</speed>
</trkpt>
<trkpt lat="20.955637" lon="107.049713">
<ele>13.905159</ele>
<time>2011-04-30T09:48:00Z</time>
<desc>lat.=20.955637, lon.=107.049713, Alt.=13.905159m. Speed=1.548000m/h.</desc>
<speed>0.430000</speed>
</trkpt>
<trkpt lat="20.955614" lon="107.049706">
<ele>13.595100</ele>
<time>2011-04-30T09:48:05Z</time>
<desc>lat.=20.955614, lon.=107.049706, Alt.=13.595100m. Speed=1.836000m/h.</desc>
<speed>0.510000</speed>
</trkpt>
<trkpt lat="20.955591" lon="107.049690">
<ele>13.831429</ele>
<time>2011-04-30T09:48:10Z</time>
<desc>lat.=20.955591, lon.=107.049690, Alt.=13.831429m. Speed=2.052000m/h.</desc>
<speed>0.570000</speed>
</trkpt>
<trkpt lat="20.955576" lon="107.049660">
<ele>13.411995</ele>
<time>2011-04-30T09:48:15Z</time>
<desc>lat.=20.955576, lon.=107.049660, Alt.=13.411995m. Speed=2.160000m/h.</desc>
<speed>0.600000</speed>
</trkpt>
<trkpt lat="20.955568" lon="107.049637">
<ele>13.534065</ele>
<time>2011-04-30T09:48:20Z</time>
<desc>lat.=20.955568, lon.=107.049637, Alt.=13.534065m. Speed=1.584000m/h.</desc>
<speed>0.440000</speed>
</trkpt>
<trkpt lat="20.955561" lon="107.049629">
<ele>12.936409</ele>
<time>2011-04-30T09:48:25Z</time>
<desc>lat.=20.955561, lon.=107.049629, Alt.=12.936409m. Speed=0.540000m/h.</desc>
<speed>0.150000</speed>
</trkpt>
<trkpt lat="20.955574" lon="107.049614">
<ele>12.824837</ele>
<time>2011-04-30T09:48:30Z</time>
<desc>lat.=20.955574, lon.=107.049614, Alt.=12.824837m. Speed=0.324000m/h.</desc>
<speed>0.090000</speed>
</trkpt>
<trkpt lat="20.955566" lon="107.049591">
<ele>12.764534</ele>
<time>2011-04-30T09:48:35Z</time>
<desc>lat.=20.955566, lon.=107.049591, Alt.=12.764534m. Speed=2.196000m/h.</desc>
<speed>0.610000</speed>
</trkpt>
<trkpt lat="20.955532" lon="107.049561">
<ele>12.667366</ele>
<time>2011-04-30T09:48:40Z</time>
<desc>lat.=20.955532, lon.=107.049561, Alt.=12.667366m. Speed=2.376000m/h.</desc>
<speed>0.660000</speed>
</trkpt>
<trkpt lat="20.955494" lon="107.049553">
<ele>13.117805</ele>
<time>2011-04-30T09:48:45Z</time>
<desc>lat.=20.955494, lon.=107.049553, Alt.=13.117805m. Speed=1.512000m/h.</desc>
<speed>0.420000</speed>
</trkpt>
<trkpt lat="20.955458" lon="107.049561">
<ele>14.602669</ele>
<time>2011-04-30T09:48:50Z</time>
<desc>lat.=20.955458, lon.=107.049561, Alt.=14.602669m. Speed=0.504000m/h.</desc>
<speed>0.140000</speed>
</trkpt>
<trkpt lat="20.955429" lon="107.049538">
<ele>13.283089</ele>
<time>2011-04-30T09:48:55Z</time>
<desc>lat.=20.955429, lon.=107.049538, Alt.=13.283089m. Speed=0.144000m/h.</desc>
<speed>0.040000</speed>
</trkpt>
<trkpt lat="20.955427" lon="107.049515">
<ele>13.283089</ele>
<time>2011-04-30T09:49:00Z</time>
<desc>lat.=20.955427, lon.=107.049515, Alt.=13.283089m. Speed=0.792000m/h.</desc>
<speed>0.220000</speed>
</trkpt>
<trkpt lat="20.955427" lon="107.049507">
<ele>13.719856</ele>
<time>2011-04-30T09:49:05Z</time>
<desc>lat.=20.955427, lon.=107.049507, Alt.=13.719856m. Speed=1.296000m/h.</desc>
<speed>0.360000</speed>
</trkpt>
<trkpt lat="20.955427" lon="107.049461">
<ele>12.226692</ele>
<time>2011-04-30T09:49:10Z</time>
<desc>lat.=20.955427, lon.=107.049461, Alt.=12.226692m. Speed=1.224000m/h.</desc>
<speed>0.340000</speed>
</trkpt>
<trkpt lat="20.955437" lon="107.049438">
<ele>10.933235</ele>
<time>2011-04-30T09:49:15Z</time>
<desc>lat.=20.955437, lon.=107.049438, Alt.=10.933235m. Speed=0.864000m/h.</desc>
<speed>0.240000</speed>
</trkpt>
<trkpt lat="20.955427" lon="107.049431">
<ele>10.650520</ele>
<time>2011-04-30T09:49:20Z</time>
<desc>lat.=20.955427, lon.=107.049431, Alt.=10.650520m. Speed=1.080000m/h.</desc>
<speed>0.300000</speed>
</trkpt>
<trkpt lat="20.955427" lon="107.049400">
<ele>9.936897</ele>
<time>2011-04-30T09:49:25Z</time>
<desc>lat.=20.955427, lon.=107.049400, Alt.=9.936897m. Speed=0.360000m/h.</desc>
<speed>0.100000</speed>
</trkpt>
<trkpt lat="20.955416" lon="107.049400">
<ele>9.668343</ele>
<time>2011-04-30T09:49:30Z</time>
<desc>lat.=20.955416, lon.=107.049400, Alt.=9.668343m. Speed=2.340000m/h.</desc>
<speed>0.650000</speed>
</trkpt>
<trkpt lat="20.955402" lon="107.049370">
<ele>9.935677</ele>
<time>2011-04-30T09:49:35Z</time>
<desc>lat.=20.955402, lon.=107.049370, Alt.=9.935677m. Speed=1.548000m/h.</desc>
<speed>0.430000</speed>
</trkpt>
<trkpt lat="20.955397" lon="107.049339">
<ele>9.106575</ele>
<time>2011-04-30T09:49:40Z</time>
<desc>lat.=20.955397, lon.=107.049339, Alt.=9.106575m. Speed=1.728000m/h.</desc>
<speed>0.480000</speed>
</trkpt>
<trkpt lat="20.955391" lon="107.049324">
<ele>9.452522</ele>
<time>2011-04-30T09:49:45Z</time>
<desc>lat.=20.955391, lon.=107.049324, Alt.=9.452522m. Speed=0.828000m/h.</desc>
<speed>0.230000</speed>
</trkpt>
<trkpt lat="20.955383" lon="107.049301">
<ele>9.774300</ele>
<time>2011-04-30T09:49:50Z</time>
<desc>lat.=20.955383, lon.=107.049301, Alt.=9.774300m. Speed=2.196000m/h.</desc>
<speed>0.610000</speed>
</trkpt>
<trkpt lat="20.955374" lon="107.049278">
<ele>9.282356</ele>
<time>2011-04-30T09:49:55Z</time>
<desc>lat.=20.955374, lon.=107.049278, Alt.=9.282356m. Speed=0.540000m/h.</desc>
<speed>0.150000</speed>
</trkpt>
<trkpt lat="20.955379" lon="107.049263">
<ele>8.819954</ele>
<time>2011-04-30T09:50:00Z</time>
<desc>lat.=20.955379, lon.=107.049263, Alt.=8.819954m. Speed=1.296000m/h.</desc>
<speed>0.360000</speed>
</trkpt>
<trkpt lat="20.955372" lon="107.049248">
<ele>8.569221</ele>
<time>2011-04-30T09:50:05Z</time>
<desc>lat.=20.955372, lon.=107.049248, Alt.=8.569221m. Speed=0.288000m/h.</desc>
<speed>0.080000</speed>
</trkpt>
<trkpt lat="20.955376" lon="107.049248">
<ele>8.538460</ele>
<time>2011-04-30T09:50:10Z</time>
<desc>lat.=20.955376, lon.=107.049248, Alt.=8.538460m. Speed=0.360000m/h.</desc>
<speed>0.100000</speed>
</trkpt>
<trkpt lat="20.955374" lon="107.049248">
<ele>8.443977</ele>
<time>2011-04-30T09:50:15Z</time>
<desc>lat.=20.955374, lon.=107.049248, Alt.=8.443977m. Speed=1.296000m/h.</desc>
<speed>0.360000</speed>
</trkpt>
<trkpt lat="20.955372" lon="107.049232">
<ele>8.378548</ele>
<time>2011-04-30T09:50:20Z</time>
<desc>lat.=20.955372, lon.=107.049232, Alt.=8.378548m. Speed=0.936000m/h.</desc>
<speed>0.260000</speed>
</trkpt>
<trkpt lat="20.955378" lon="107.049232">
<ele>8.377815</ele>
<time>2011-04-30T09:50:25Z</time>
<desc>lat.=20.955378, lon.=107.049232, Alt.=8.377815m. Speed=2.160000m/h.</desc>
<speed>0.600000</speed>
</trkpt>
<trkpt lat="20.955378" lon="107.049217">
<ele>8.221809</ele>
<time>2011-04-30T09:50:30Z</time>
<desc>lat.=20.955378, lon.=107.049217, Alt.=8.221809m. Speed=0.936000m/h.</desc>
<speed>0.260000</speed>
</trkpt>
<trkpt lat="20.955395" lon="107.049210">
<ele>7.795719</ele>
<time>2011-04-30T09:50:35Z</time>
<desc>lat.=20.955395, lon.=107.049210, Alt.=7.795719m. Speed=0.144000m/h.</desc>
<speed>0.040000</speed>
</trkpt>
<trkpt lat="20.955395" lon="107.049210">
<ele>7.716740</ele>
<time>2011-04-30T09:50:40Z</time>
<desc>lat.=20.955395, lon.=107.049210, Alt.=7.716740m. Speed=0.288000m/h.</desc>
<speed>0.080000</speed>
</trkpt>
<trkpt lat="20.955402" lon="107.049210">
<ele>7.475163</ele>
<time>2011-04-30T09:50:45Z</time>
<desc>lat.=20.955402, lon.=107.049210, Alt.=7.475163m. Speed=1.116000m/h.</desc>
<speed>0.310000</speed>
</trkpt>
<trkpt lat="20.955425" lon="107.049210">
<ele>8.901009</ele>
<time>2011-04-30T09:50:50Z</time>
<desc>lat.=20.955425, lon.=107.049210, Alt.=8.901009m. Speed=0.108000m/h.</desc>
<speed>0.030000</speed>
</trkpt>
<trkpt lat="20.955427" lon="107.049210">
<ele>9.150764</ele>
<time>2011-04-30T09:50:55Z</time>
<desc>lat.=20.955427, lon.=107.049210, Alt.=9.150764m. Speed=0.144000m/h.</desc>
<speed>0.040000</speed>
</trkpt>
<trkpt lat="20.955431" lon="107.049210">
<ele>9.342903</ele>
<time>2011-04-30T09:51:00Z</time>
<desc>lat.=20.955431, lon.=107.049210, Alt.=9.342903m. Speed=0.108000m/h.</desc>
<speed>0.030000</speed>
</trkpt>
<trkpt lat="20.955431" lon="107.049202">
<ele>9.390511</ele>
<time>2011-04-30T09:51:05Z</time>
<desc>lat.=20.955431, lon.=107.049202, Alt.=9.390511m. Speed=0.756000m/h.</desc>
<speed>0.210000</speed>
</trkpt>
<trkpt lat="20.955437" lon="107.049210">
<ele>9.591438</ele>
<time>2011-04-30T09:51:10Z</time>
<desc>lat.=20.955437, lon.=107.049210, Alt.=9.591438m. Speed=0.180000m/h.</desc>
<speed>0.050000</speed>
</trkpt>
<trkpt lat="20.955444" lon="107.049217">
<ele>9.494270</ele>
<time>2011-04-30T09:51:15Z</time>
<desc>lat.=20.955444, lon.=107.049217, Alt.=9.494270m. Speed=0.252000m/h.</desc>
<speed>0.070000</speed>
</trkpt>
<trkpt lat="20.955444" lon="107.049217">
<ele>9.425423</ele>
<time>2011-04-30T09:51:20Z</time>
<desc>lat.=20.955444, lon.=107.049217, Alt.=9.425423m. Speed=0.216000m/h.</desc>
<speed>0.060000</speed>
</trkpt>
<trkpt lat="20.955444" lon="107.049217">
<ele>9.401009</ele>
<time>2011-04-30T09:51:25Z</time>
<desc>lat.=20.955444, lon.=107.049217, Alt.=9.401009m. Speed=0.720000m/h.</desc>
<speed>0.200000</speed>
</trkpt>
<trkpt lat="20.955450" lon="107.049217">
<ele>9.537483</ele>
<time>2011-04-30T09:51:30Z</time>
<desc>lat.=20.955450, lon.=107.049217, Alt.=9.537483m. Speed=0.036000m/h.</desc>
<speed>0.010000</speed>
</trkpt>
<trkpt lat="20.955448" lon="107.049217">
<ele>9.778938</ele>
<time>2011-04-30T09:51:35Z</time>
<desc>lat.=20.955448, lon.=107.049217, Alt.=9.778938m. Speed=0.036000m/h.</desc>
<speed>0.010000</speed>
</trkpt>
<trkpt lat="20.955446" lon="107.049217">
<ele>9.939827</ele>
<time>2011-04-30T09:51:40Z</time>
<desc>lat.=20.955446, lon.=107.049217, Alt.=9.939827m. Speed=0.072000m/h.</desc>
<speed>0.020000</speed>
</trkpt>
<trkpt lat="20.955446" lon="107.049217">
<ele>9.932259</ele>
<time>2011-04-30T09:51:45Z</time>
<desc>lat.=20.955446, lon.=107.049217, Alt.=9.932259m. Speed=0.216000m/h.</desc>
<speed>0.060000</speed>
</trkpt>
<trkpt lat="20.955448" lon="107.049210">
<ele>9.935188</ele>
<time>2011-04-30T09:51:50Z</time>
<desc>lat.=20.955448, lon.=107.049210, Alt.=9.935188m. Speed=0.288000m/h.</desc>
<speed>0.080000</speed>
</trkpt>
<trkpt lat="20.955450" lon="107.049202">
<ele>9.922249</ele>
<time>2011-04-30T09:51:55Z</time>
<desc>lat.=20.955450, lon.=107.049202, Alt.=9.922249m. Speed=0.684000m/h.</desc>
<speed>0.190000</speed>
</trkpt>
<trkpt lat="20.955448" lon="107.049210">
<ele>9.927864</ele>
<time>2011-04-30T09:52:00Z</time>
<desc>lat.=20.955448, lon.=107.049210, Alt.=9.927864m. Speed=0.324000m/h.</desc>
<speed>0.090000</speed>
</trkpt>
<trkpt lat="20.955460" lon="107.049210">
<ele>9.658821</ele>
<time>2011-04-30T09:52:05Z</time>
<desc>lat.=20.955460, lon.=107.049210, Alt.=9.658821m. Speed=0.720000m/h.</desc>
<speed>0.200000</speed>
</trkpt>
<trkpt lat="20.955473" lon="107.049210">
<ele>9.581429</ele>
<time>2011-04-30T09:52:10Z</time>
<desc>lat.=20.955473, lon.=107.049210, Alt.=9.581429m. Speed=0.144000m/h.</desc>
<speed>0.040000</speed>
</trkpt>
<trkpt lat="20.955473" lon="107.049225">
<ele>9.936165</ele>
<time>2011-04-30T09:52:15Z</time>
<desc>lat.=20.955473, lon.=107.049225, Alt.=9.936165m. Speed=0.360000m/h.</desc>
<speed>0.100000</speed>
</trkpt>
<trkpt lat="20.955490" lon="107.049232">
<ele>9.375130</ele>
<time>2011-04-30T09:52:20Z</time>
<desc>lat.=20.955490, lon.=107.049232, Alt.=9.375130m. Speed=0.216000m/h.</desc>
<speed>0.060000</speed>
</trkpt>
<trkpt lat="20.955496" lon="107.049232">
<ele>8.877327</ele>
<time>2011-04-30T09:52:25Z</time>
<desc>lat.=20.955496, lon.=107.049232, Alt.=8.877327m. Speed=0.072000m/h.</desc>
<speed>0.020000</speed>
</trkpt>
<trkpt lat="20.955500" lon="107.049225">
<ele>7.879215</ele>
<time>2011-04-30T09:52:30Z</time>
<desc>lat.=20.955500, lon.=107.049225, Alt.=7.879215m. Speed=0.036000m/h.</desc>
<speed>0.010000</speed>
</trkpt>
<trkpt lat="20.955507" lon="107.049240">
<ele>6.979435</ele>
<time>2011-04-30T09:52:35Z</time>
<desc>lat.=20.955507, lon.=107.049240, Alt.=6.979435m. Speed=0.000000m/h.</desc>
<speed>0.000000</speed>
</trkpt>
<trkpt lat="20.955511" lon="107.049255">
<ele>6.240788</ele>
<time>2011-04-30T09:52:40Z</time>
<desc>lat.=20.955511, lon.=107.049255, Alt.=6.240788m. Speed=0.000000m/h.</desc>
<speed>0.000000</speed>
</trkpt>
<trkpt lat="20.955511" lon="107.049263">
<ele>5.010685</ele>
<time>2011-04-30T09:52:45Z</time>
<desc>lat.=20.955511, lon.=107.049263, Alt.=5.010685m. Speed=0.072000m/h.</desc>
<speed>0.020000</speed>
</trkpt>
<trkpt lat="20.955502" lon="107.049263">
<ele>5.025578</ele>
<time>2011-04-30T09:52:50Z</time>
<desc>lat.=20.955502, lon.=107.049263, Alt.=5.025578m. Speed=0.000000m/h.</desc>
<speed>0.000000</speed>
</trkpt>
<trkpt lat="20.955505" lon="107.049263">
<ele>4.851017</ele>
<time>2011-04-30T09:52:55Z</time>
<desc>lat.=20.955505, lon.=107.049263, Alt.=4.851017m. Speed=0.144000m/h.</desc>
<speed>0.040000</speed>
</trkpt>
<trkpt lat="20.955505" lon="107.049263">
<ele>4.814396</ele>
<time>2011-04-30T09:53:00Z</time>
<desc>lat.=20.955505, lon.=107.049263, Alt.=4.814396m. Speed=0.036000m/h.</desc>
<speed>0.010000</speed>
</trkpt>
<trkpt lat="20.955505" lon="107.049263">
<ele>4.800602</ele>
<time>2011-04-30T09:53:05Z</time>
<desc>lat.=20.955505, lon.=107.049263, Alt.=4.800602m. Speed=0.000000m/h.</desc>
<speed>0.000000</speed>
</trkpt>
<trkpt lat="20.955509" lon="107.049263">
<ele>4.505680</ele>
<time>2011-04-30T09:53:10Z</time>
<desc>lat.=20.955509, lon.=107.049263, Alt.=4.505680m. Speed=1.584000m/h.</desc>
<speed>0.440000</speed>
</trkpt>
<trkpt lat="20.955513" lon="107.049232">
<ele>5.054142</ele>
<time>2011-04-30T09:53:15Z</time>
<desc>lat.=20.955513, lon.=107.049232, Alt.=5.054142m. Speed=1.656000m/h.</desc>
<speed>0.460000</speed>
</trkpt>
<trkpt lat="20.955513" lon="107.049217">
<ele>6.233463</ele>
<time>2011-04-30T09:53:20Z</time>
<desc>lat.=20.955513, lon.=107.049217, Alt.=6.233463m. Speed=1.080000m/h.</desc>
<speed>0.300000</speed>
</trkpt>
<trkpt lat="20.955524" lon="107.049217">
<ele>6.806461</ele>
<time>2011-04-30T09:53:25Z</time>
<desc>lat.=20.955524, lon.=107.049217, Alt.=6.806461m. Speed=0.540000m/h.</desc>
<speed>0.150000</speed>
</trkpt>
<trkpt lat="20.955530" lon="107.049202">
<ele>6.924503</ele>
<time>2011-04-30T09:53:30Z</time>
<desc>lat.=20.955530, lon.=107.049202, Alt.=6.924503m. Speed=1.188000m/h.</desc>
<speed>0.330000</speed>
</trkpt>
<trkpt lat="20.955532" lon="107.049194">
<ele>7.349186</ele>
<time>2011-04-30T09:53:35Z</time>
<desc>lat.=20.955532, lon.=107.049194, Alt.=7.349186m. Speed=0.576000m/h.</desc>
<speed>0.160000</speed>
</trkpt>
<trkpt lat="20.955530" lon="107.049194">
<ele>7.424137</ele>
<time>2011-04-30T09:53:40Z</time>
<desc>lat.=20.955530, lon.=107.049194, Alt.=7.424137m. Speed=0.036000m/h.</desc>
<speed>0.010000</speed>
</trkpt>
<trkpt lat="20.955530" lon="107.049194">
<ele>7.432438</ele>
<time>2011-04-30T09:53:45Z</time>
<desc>lat.=20.955530, lon.=107.049194, Alt.=7.432438m. Speed=0.072000m/h.</desc>
<speed>0.020000</speed>
</trkpt>
<trkpt lat="20.955530" lon="107.049194">
<ele>7.413517</ele>
<time>2011-04-30T09:53:50Z</time>
<desc>lat.=20.955530, lon.=107.049194, Alt.=7.413517m. Speed=0.036000m/h.</desc>
<speed>0.010000</speed>
</trkpt>
<trkpt lat="20.955530" lon="107.049194">
<ele>7.440983</ele>
<time>2011-04-30T09:53:55Z</time>
<desc>lat.=20.955530, lon.=107.049194, Alt.=7.440983m. Speed=0.072000m/h.</desc>
<speed>0.020000</speed>
</trkpt>
<trkpt lat="20.955530" lon="107.049194">
<ele>7.473331</ele>
<time>2011-04-30T09:54:00Z</time>
<desc>lat.=20.955530, lon.=107.049194, Alt.=7.473331m. Speed=1.152000m/h.</desc>
<speed>0.320000</speed>
</trkpt>
<trkpt lat="20.955544" lon="107.049164">
<ele>7.544254</ele>
<time>2011-04-30T09:54:05Z</time>
<desc>lat.=20.955544, lon.=107.049164, Alt.=7.544254m. Speed=0.972000m/h.</desc>
<speed>0.270000</speed>
</trkpt>
<trkpt lat="20.955545" lon="107.049141">
<ele>8.388557</ele>
<time>2011-04-30T09:54:10Z</time>
<desc>lat.=20.955545, lon.=107.049141, Alt.=8.388557m. Speed=0.468000m/h.</desc>
<speed>0.130000</speed>
</trkpt>
<trkpt lat="20.955536" lon="107.049133">
<ele>8.699593</ele>
<time>2011-04-30T09:54:15Z</time>
<desc>lat.=20.955536, lon.=107.049133, Alt.=8.699593m. Speed=0.288000m/h.</desc>
<speed>0.080000</speed>
</trkpt>
<trkpt lat="20.955534" lon="107.049133">
<ele>8.754768</ele>
<time>2011-04-30T09:54:20Z</time>
<desc>lat.=20.955534, lon.=107.049133, Alt.=8.754768m. Speed=0.360000m/h.</desc>
<speed>0.100000</speed>
</trkpt>
<trkpt lat="20.955532" lon="107.049126">
<ele>8.863655</ele>
<time>2011-04-30T09:54:25Z</time>
<desc>lat.=20.955532, lon.=107.049126, Alt.=8.863655m. Speed=0.000000m/h.</desc>
<speed>0.000000</speed>
</trkpt>
<trkpt lat="20.955532" lon="107.049126">
<ele>8.956673</ele>
<time>2011-04-30T09:54:30Z</time>
<desc>lat.=20.955532, lon.=107.049126, Alt.=8.956673m. Speed=0.072000m/h.</desc>
<speed>0.020000</speed>
</trkpt>
<trkpt lat="20.955532" lon="107.049126">
<ele>8.978645</ele>
<time>2011-04-30T09:54:35Z</time>
<desc>lat.=20.955532, lon.=107.049126, Alt.=8.978645m. Speed=0.072000m/h.</desc>
<speed>0.020000</speed>
</trkpt>
<trkpt lat="20.955532" lon="107.049126">
<ele>9.019661</ele>
<time>2011-04-30T09:54:40Z</time>
<desc>lat.=20.955532, lon.=107.049126, Alt.=9.019661m. Speed=1.476000m/h.</desc>
<speed>0.410000</speed>
</trkpt>
<trkpt lat="20.955564" lon="107.049126">
<ele>9.250130</ele>
<time>2011-04-30T09:54:45Z</time>
<desc>lat.=20.955564, lon.=107.049126, Alt.=9.250130m. Speed=0.864000m/h.</desc>
<speed>0.240000</speed>
</trkpt>
<trkpt lat="20.955580" lon="107.049118">
<ele>8.770638</ele>
<time>2011-04-30T09:54:50Z</time>
<desc>lat.=20.955580, lon.=107.049118, Alt.=8.770638m. Speed=1.728000m/h.</desc>
<speed>0.480000</speed>
</trkpt>
<trkpt lat="20.955578" lon="107.049110">
<ele>9.379280</ele>
<time>2011-04-30T09:54:55Z</time>
<desc>lat.=20.955578, lon.=107.049110, Alt.=9.379280m. Speed=0.612000m/h.</desc>
<speed>0.170000</speed>
</trkpt>
<trkpt lat="20.955572" lon="107.049080">
<ele>12.203499</ele>
<time>2011-04-30T09:55:00Z</time>
<desc>lat.=20.955572, lon.=107.049080, Alt.=12.203499m. Speed=2.880000m/h.</desc>
<speed>0.800000</speed>
</trkpt>
<trkpt lat="20.955570" lon="107.049088">
<ele>13.155403</ele>
<time>2011-04-30T09:55:05Z</time>
<desc>lat.=20.955570, lon.=107.049088, Alt.=13.155403m. Speed=1.368000m/h.</desc>
<speed>0.380000</speed>
</trkpt>
<trkpt lat="20.955570" lon="107.049095">
<ele>13.559212</ele>
<time>2011-04-30T09:55:10Z</time>
<desc>lat.=20.955570, lon.=107.049095, Alt.=13.559212m. Speed=0.252000m/h.</desc>
<speed>0.070000</speed>
</trkpt>
<trkpt lat="20.955572" lon="107.049095">
<ele>13.558723</ele>
<time>2011-04-30T09:55:15Z</time>
<desc>lat.=20.955572, lon.=107.049095, Alt.=13.558723m. Speed=0.360000m/h.</desc>
<speed>0.100000</speed>
</trkpt>
<trkpt lat="20.955572" lon="107.049095">
<ele>13.614388</ele>
<time>2011-04-30T09:55:20Z</time>
<desc>lat.=20.955572, lon.=107.049095, Alt.=13.614388m. Speed=0.216000m/h.</desc>
<speed>0.060000</speed>
</trkpt>
<trkpt lat="20.955574" lon="107.049095">
<ele>13.627327</ele>
<time>2011-04-30T09:55:25Z</time>
<desc>lat.=20.955574, lon.=107.049095, Alt.=13.627327m. Speed=0.864000m/h.</desc>
<speed>0.240000</speed>
</trkpt>
<trkpt lat="20.955585" lon="107.049103">
<ele>13.503792</ele>
<time>2011-04-30T09:55:30Z</time>
<desc>lat.=20.955585, lon.=107.049103, Alt.=13.503792m. Speed=0.792000m/h.</desc>
<speed>0.220000</speed>
</trkpt>
<trkpt lat="20.955589" lon="107.049095">
<ele>14.285530</ele>
<time>2011-04-30T09:55:35Z</time>
<desc>lat.=20.955589, lon.=107.049095, Alt.=14.285530m. Speed=0.216000m/h.</desc>
<speed>0.060000</speed>
</trkpt>
<trkpt lat="20.955576" lon="107.049103">
<ele>14.072151</ele>
<time>2011-04-30T09:55:40Z</time>
<desc>lat.=20.955576, lon.=107.049103, Alt.=14.072151m. Speed=1.080000m/h.</desc>
<speed>0.300000</speed>
</trkpt>
<trkpt lat="20.955549" lon="107.049103">
<ele>14.875130</ele>
<time>2011-04-30T09:55:45Z</time>
<desc>lat.=20.955549, lon.=107.049103, Alt.=14.875130m. Speed=0.252000m/h.</desc>
<speed>0.070000</speed>
</trkpt>
<trkpt lat="20.955549" lon="107.049103">
<ele>14.852913</ele>
<time>2011-04-30T09:55:50Z</time>
<desc>lat.=20.955549, lon.=107.049103, Alt.=14.852913m. Speed=0.684000m/h.</desc>
<speed>0.190000</speed>
</trkpt>
<trkpt lat="20.955540" lon="107.049095">
<ele>15.676888</ele>
<time>2011-04-30T09:55:55Z</time>
<desc>lat.=20.955540, lon.=107.049095, Alt.=15.676888m. Speed=1.008000m/h.</desc>
<speed>0.280000</speed>
</trkpt>
<trkpt lat="20.955521" lon="107.049095">
<ele>15.895882</ele>
<time>2011-04-30T09:56:00Z</time>
<desc>lat.=20.955521, lon.=107.049095, Alt.=15.895882m. Speed=0.576000m/h.</desc>
<speed>0.160000</speed>
</trkpt>
<trkpt lat="20.955513" lon="107.049095">
<ele>15.792610</ele>
<time>2011-04-30T09:56:05Z</time>
<desc>lat.=20.955513, lon.=107.049095, Alt.=15.792610m. Speed=1.656000m/h.</desc>
<speed>0.460000</speed>
</trkpt>
<trkpt lat="20.955500" lon="107.049103">
<ele>15.565559</ele>
<time>2011-04-30T09:56:10Z</time>
<desc>lat.=20.955500, lon.=107.049103, Alt.=15.565559m. Speed=0.144000m/h.</desc>
<speed>0.040000</speed>
</trkpt>
<trkpt lat="20.955492" lon="107.049095">
<ele>15.214729</ele>
<time>2011-04-30T09:56:15Z</time>
<desc>lat.=20.955492, lon.=107.049095, Alt.=15.214729m. Speed=0.720000m/h.</desc>
<speed>0.200000</speed>
</trkpt>
<trkpt lat="20.955484" lon="107.049095">
<ele>14.493050</ele>
<time>2011-04-30T09:56:20Z</time>
<desc>lat.=20.955484, lon.=107.049095, Alt.=14.493050m. Speed=0.720000m/h.</desc>
<speed>0.200000</speed>
</trkpt>
<trkpt lat="20.955484" lon="107.049095">
<ele>14.392708</ele>
<time>2011-04-30T09:56:25Z</time>
<desc>lat.=20.955484, lon.=107.049095, Alt.=14.392708m. Speed=0.072000m/h.</desc>
<speed>0.020000</speed>
</trkpt>
<trkpt lat="20.955486" lon="107.049095">
<ele>14.270393</ele>
<time>2011-04-30T09:56:30Z</time>
<desc>lat.=20.955486, lon.=107.049095, Alt.=14.270393m. Speed=0.360000m/h.</desc>
<speed>0.100000</speed>
</trkpt>
<trkpt lat="20.955488" lon="107.049088">
<ele>14.151497</ele>
<time>2011-04-30T09:56:35Z</time>
<desc>lat.=20.955488, lon.=107.049088, Alt.=14.151497m. Speed=0.360000m/h.</desc>
<speed>0.100000</speed>
</trkpt>
<trkpt lat="20.955492" lon="107.049095">
<ele>13.961555</ele>
<time>2011-04-30T09:56:40Z</time>
<desc>lat.=20.955492, lon.=107.049095, Alt.=13.961555m. Speed=0.144000m/h.</desc>
<speed>0.040000</speed>
</trkpt>
<trkpt lat="20.955490" lon="107.049088">
<ele>13.880745</ele>
<time>2011-04-30T09:56:45Z</time>
<desc>lat.=20.955490, lon.=107.049088, Alt.=13.880745m. Speed=1.152000m/h.</desc>
<speed>0.320000</speed>
</trkpt>
<trkpt lat="20.955488" lon="107.049095">
<ele>14.204231</ele>
<time>2011-04-30T09:56:50Z</time>
<desc>lat.=20.955488, lon.=107.049095, Alt.=14.204231m. Speed=0.468000m/h.</desc>
<speed>0.130000</speed>
</trkpt>
<trkpt lat="20.955494" lon="107.049088">
<ele>14.117317</ele>
<time>2011-04-30T09:56:55Z</time>
<desc>lat.=20.955494, lon.=107.049088, Alt.=14.117317m. Speed=0.036000m/h.</desc>
<speed>0.010000</speed>
</trkpt>
<trkpt lat="20.955494" lon="107.049088">
<ele>14.146614</ele>
<time>2011-04-30T09:57:00Z</time>
<desc>lat.=20.955494, lon.=107.049088, Alt.=14.146614m. Speed=0.144000m/h.</desc>
<speed>0.040000</speed>
</trkpt>
<trkpt lat="20.955494" lon="107.049088">
<ele>14.180061</ele>
<time>2011-04-30T09:57:05Z</time>
<desc>lat.=20.955494, lon.=107.049088, Alt.=14.180061m. Speed=0.648000m/h.</desc>
<speed>0.180000</speed>
</trkpt>
<trkpt lat="20.955492" lon="107.049095">
<ele>14.100960</ele>
<time>2011-04-30T09:57:10Z</time>
<desc>lat.=20.955492, lon.=107.049095, Alt.=14.100960m. Speed=0.792000m/h.</desc>
<speed>0.220000</speed>
</trkpt>
<trkpt lat="20.955471" lon="107.049141">
<ele>14.239143</ele>
<time>2011-04-30T09:57:15Z</time>
<desc>lat.=20.955471, lon.=107.049141, Alt.=14.239143m. Speed=2.952000m/h.</desc>
<speed>0.820000</speed>
</trkpt>
<trkpt lat="20.955482" lon="107.049141">
<ele>14.170052</ele>
<time>2011-04-30T09:57:20Z</time>
<desc>lat.=20.955482, lon.=107.049141, Alt.=14.170052m. Speed=0.756000m/h.</desc>
<speed>0.210000</speed>
</trkpt>
<trkpt lat="20.955482" lon="107.049133">
<ele>14.349495</ele>
<time>2011-04-30T09:57:25Z</time>
<desc>lat.=20.955482, lon.=107.049133, Alt.=14.349495m. Speed=0.252000m/h.</desc>
<speed>0.070000</speed>
</trkpt>
<trkpt lat="20.955486" lon="107.049133">
<ele>14.443489</ele>
<time>2011-04-30T09:57:30Z</time>
<desc>lat.=20.955486, lon.=107.049133, Alt.=14.443489m. Speed=0.612000m/h.</desc>
<speed>0.170000</speed>
</trkpt>
<trkpt lat="20.955486" lon="107.049126">
<ele>14.498177</ele>
<time>2011-04-30T09:57:35Z</time>
<desc>lat.=20.955486, lon.=107.049126, Alt.=14.498177m. Speed=0.792000m/h.</desc>
<speed>0.220000</speed>
</trkpt>
<trkpt lat="20.955462" lon="107.049141">
<ele>13.343147</ele>
<time>2011-04-30T09:57:40Z</time>
<desc>lat.=20.955462, lon.=107.049141, Alt.=13.343147m. Speed=0.396000m/h.</desc>
<speed>0.110000</speed>
</trkpt>
<trkpt lat="20.955471" lon="107.049149">
<ele>13.294319</ele>
<time>2011-04-30T09:57:45Z</time>
<desc>lat.=20.955471, lon.=107.049149, Alt.=13.294319m. Speed=1.080000m/h.</desc>
<speed>0.300000</speed>
</trkpt>
<trkpt lat="20.955471" lon="107.049141">
<ele>13.431770</ele>
<time>2011-04-30T09:57:50Z</time>
<desc>lat.=20.955471, lon.=107.049141, Alt.=13.431770m. Speed=0.540000m/h.</desc>
<speed>0.150000</speed>
</trkpt>
<trkpt lat="20.955463" lon="107.049133">
<ele>13.592415</ele>
<time>2011-04-30T09:57:55Z</time>
<desc>lat.=20.955463, lon.=107.049133, Alt.=13.592415m. Speed=1.044000m/h.</desc>
<speed>0.290000</speed>
</trkpt>
<trkpt lat="20.955452" lon="107.049126">
<ele>13.942024</ele>
<time>2011-04-30T09:58:00Z</time>
<desc>lat.=20.955452, lon.=107.049126, Alt.=13.942024m. Speed=0.144000m/h.</desc>
<speed>0.040000</speed>
</trkpt>
<trkpt lat="20.955444" lon="107.049133">
<ele>13.979378</ele>
<time>2011-04-30T09:58:05Z</time>
<desc>lat.=20.955444, lon.=107.049133, Alt.=13.979378m. Speed=0.972000m/h.</desc>
<speed>0.270000</speed>
</trkpt>
<trkpt lat="20.955441" lon="107.049126">
<ele>13.938850</ele>
<time>2011-04-30T09:58:10Z</time>
<desc>lat.=20.955441, lon.=107.049126, Alt.=13.938850m. Speed=0.432000m/h.</desc>
<speed>0.120000</speed>
</trkpt>
<trkpt lat="20.955442" lon="107.049126">
<ele>13.723763</ele>
<time>2011-04-30T09:58:15Z</time>
<desc>lat.=20.955442, lon.=107.049126, Alt.=13.723763m. Speed=1.188000m/h.</desc>
<speed>0.330000</speed>
</trkpt>
<trkpt lat="20.955406" lon="107.049126">
<ele>12.994026</ele>
<time>2011-04-30T09:58:20Z</time>
<desc>lat.=20.955406, lon.=107.049126, Alt.=12.994026m. Speed=1.872000m/h.</desc>
<speed>0.520000</speed>
</trkpt>
<trkpt lat="20.955378" lon="107.049126">
<ele>12.038460</ele>
<time>2011-04-30T09:58:25Z</time>
<desc>lat.=20.955378, lon.=107.049126, Alt.=12.038460m. Speed=0.792000m/h.</desc>
<speed>0.220000</speed>
</trkpt>
<trkpt lat="20.955374" lon="107.049126">
<ele>11.756966</ele>
<time>2011-04-30T09:58:30Z</time>
<desc>lat.=20.955374, lon.=107.049126, Alt.=11.756966m. Speed=0.324000m/h.</desc>
<speed>0.090000</speed>
</trkpt>
<trkpt lat="20.955372" lon="107.049133">
<ele>11.717903</ele>
<time>2011-04-30T09:58:35Z</time>
<desc>lat.=20.955372, lon.=107.049133, Alt.=11.717903m. Speed=0.072000m/h.</desc>
<speed>0.020000</speed>
</trkpt>
<trkpt lat="20.955372" lon="107.049133">
<ele>11.683235</ele>
<time>2011-04-30T09:58:40Z</time>
<desc>lat.=20.955372, lon.=107.049133, Alt.=11.683235m. Speed=0.468000m/h.</desc>
<speed>0.130000</speed>
</trkpt>
<trkpt lat="20.955368" lon="107.049141">
<ele>11.674934</ele>
<time>2011-04-30T09:58:45Z</time>
<desc>lat.=20.955368, lon.=107.049141, Alt.=11.674934m. Speed=1.044000m/h.</desc>
<speed>0.290000</speed>
</trkpt>
<trkpt lat="20.955370" lon="107.049133">
<ele>11.695198</ele>
<time>2011-04-30T09:58:50Z</time>
<desc>lat.=20.955370, lon.=107.049133, Alt.=11.695198m. Speed=1.620000m/h.</desc>
<speed>0.450000</speed>
</trkpt>
<trkpt lat="20.955353" lon="107.049141">
<ele>11.787971</ele>
<time>2011-04-30T09:58:55Z</time>
<desc>lat.=20.955353, lon.=107.049141, Alt.=11.787971m. Speed=1.440000m/h.</desc>
<speed>0.400000</speed>
</trkpt>
<trkpt lat="20.955320" lon="107.049141">
<ele>12.611214</ele>
<time>2011-04-30T09:59:00Z</time>
<desc>lat.=20.955320, lon.=107.049141, Alt.=12.611214m. Speed=0.216000m/h.</desc>
<speed>0.060000</speed>
</trkpt>
<trkpt lat="20.955297" lon="107.049149">
<ele>12.888802</ele>
<time>2011-04-30T09:59:05Z</time>
<desc>lat.=20.955297, lon.=107.049149, Alt.=12.888802m. Speed=0.108000m/h.</desc>
<speed>0.030000</speed>
</trkpt>
<trkpt lat="20.955297" lon="107.049149">
<ele>12.915169</ele>
<time>2011-04-30T09:59:10Z</time>
<desc>lat.=20.955297, lon.=107.049149, Alt.=12.915169m. Speed=0.900000m/h.</desc>
<speed>0.250000</speed>
</trkpt>
<trkpt lat="20.955292" lon="107.049179">
<ele>13.678108</ele>
<time>2011-04-30T09:59:15Z</time>
<desc>lat.=20.955292, lon.=107.049179, Alt.=13.678108m. Speed=0.468000m/h.</desc>
<speed>0.130000</speed>
</trkpt>
<trkpt lat="20.955286" lon="107.049179">
<ele>13.636848</ele>
<time>2011-04-30T09:59:20Z</time>
<desc>lat.=20.955286, lon.=107.049179, Alt.=13.636848m. Speed=0.396000m/h.</desc>
<speed>0.110000</speed>
</trkpt>
<trkpt lat="20.955284" lon="107.049179">
<ele>13.599983</ele>
<time>2011-04-30T09:59:25Z</time>
<desc>lat.=20.955284, lon.=107.049179, Alt.=13.599983m. Speed=1.404000m/h.</desc>
<speed>0.390000</speed>
</trkpt>
<trkpt lat="20.955292" lon="107.049179">
<ele>13.699837</ele>
<time>2011-04-30T09:59:30Z</time>
<desc>lat.=20.955292, lon.=107.049179, Alt.=13.699837m. Speed=1.044000m/h.</desc>
<speed>0.290000</speed>
</trkpt>
<trkpt lat="20.955288" lon="107.049171">
<ele>13.822884</ele>
<time>2011-04-30T09:59:35Z</time>
<desc>lat.=20.955288, lon.=107.049171, Alt.=13.822884m. Speed=0.828000m/h.</desc>
<speed>0.230000</speed>
</trkpt>
<trkpt lat="20.955280" lon="107.049164">
<ele>13.876106</ele>
<time>2011-04-30T09:59:40Z</time>
<desc>lat.=20.955280, lon.=107.049164, Alt.=13.876106m. Speed=0.216000m/h.</desc>
<speed>0.060000</speed>
</trkpt>
<trkpt lat="20.955261" lon="107.049179">
<ele>14.173714</ele>
<time>2011-04-30T09:59:45Z</time>
<desc>lat.=20.955261, lon.=107.049179, Alt.=14.173714m. Speed=0.756000m/h.</desc>
<speed>0.210000</speed>
</trkpt>
<trkpt lat="20.955267" lon="107.049202">
<ele>12.457161</ele>
<time>2011-04-30T09:59:50Z</time>
<desc>lat.=20.955267, lon.=107.049202, Alt.=12.457161m. Speed=0.288000m/h.</desc>
<speed>0.080000</speed>
</trkpt>
<trkpt lat="20.955261" lon="107.049210">
<ele>11.636116</ele>
<time>2011-04-30T09:59:55Z</time>
<desc>lat.=20.955261, lon.=107.049210, Alt.=11.636116m. Speed=0.288000m/h.</desc>
<speed>0.080000</speed>
</trkpt>
<trkpt lat="20.955259" lon="107.049202">
<ele>11.538948</ele>
<time>2011-04-30T10:00:00Z</time>
<desc>lat.=20.955259, lon.=107.049202, Alt.=11.538948m. Speed=0.252000m/h.</desc>
<speed>0.070000</speed>
</trkpt>
<trkpt lat="20.955259" lon="107.049202">
<ele>11.456429</ele>
<time>2011-04-30T10:00:05Z</time>
<desc>lat.=20.955259, lon.=107.049202, Alt.=11.456429m. Speed=0.144000m/h.</desc>
<speed>0.040000</speed>
</trkpt>
<trkpt lat="20.955263" lon="107.049202">
<ele>11.431770</ele>
<time>2011-04-30T10:00:10Z</time>
<desc>lat.=20.955263, lon.=107.049202, Alt.=11.431770m. Speed=0.540000m/h.</desc>
<speed>0.150000</speed>
</trkpt>
<trkpt lat="20.955265" lon="107.049194">
<ele>11.560677</ele>
<time>2011-04-30T10:00:15Z</time>
<desc>lat.=20.955265, lon.=107.049194, Alt.=11.560677m. Speed=1.404000m/h.</desc>
<speed>0.390000</speed>
</trkpt>
<trkpt lat="20.955267" lon="107.049179">
<ele>12.114632</ele>
<time>2011-04-30T10:00:20Z</time>
<desc>lat.=20.955267, lon.=107.049179, Alt.=12.114632m. Speed=1.368000m/h.</desc>
<speed>0.380000</speed>
</trkpt>
<trkpt lat="20.955267" lon="107.049164">
<ele>12.552132</ele>
<time>2011-04-30T10:00:25Z</time>
<desc>lat.=20.955267, lon.=107.049164, Alt.=12.552132m. Speed=0.360000m/h.</desc>
<speed>0.100000</speed>
</trkpt>
<trkpt lat="20.955269" lon="107.049171">
<ele>12.612923</ele>
<time>2011-04-30T10:00:30Z</time>
<desc>lat.=20.955269, lon.=107.049171, Alt.=12.612923m. Speed=0.972000m/h.</desc>
<speed>0.270000</speed>
</trkpt>
<trkpt lat="20.955269" lon="107.049171">
<ele>12.706184</ele>
<time>2011-04-30T10:00:35Z</time>
<desc>lat.=20.955269, lon.=107.049171, Alt.=12.706184m. Speed=0.612000m/h.</desc>
<speed>0.170000</speed>
</trkpt>
<trkpt lat="20.955269" lon="107.049164">
<ele>12.956673</ele>
<time>2011-04-30T10:00:40Z</time>
<desc>lat.=20.955269, lon.=107.049164, Alt.=12.956673m. Speed=1.080000m/h.</desc>
<speed>0.300000</speed>
</trkpt>
<trkpt lat="20.955269" lon="107.049164">
<ele>13.417610</ele>
<time>2011-04-30T10:00:45Z</time>
<desc>lat.=20.955269, lon.=107.049164, Alt.=13.417610m. Speed=0.972000m/h.</desc>
<speed>0.270000</speed>
</trkpt>
<trkpt lat="20.955269" lon="107.049164">
<ele>13.685188</ele>
<time>2011-04-30T10:00:50Z</time>
<desc>lat.=20.955269, lon.=107.049164, Alt.=13.685188m. Speed=0.216000m/h.</desc>
<speed>0.060000</speed>
</trkpt>
<trkpt lat="20.955276" lon="107.049156">
<ele>13.737190</ele>
<time>2011-04-30T10:00:55Z</time>
<desc>lat.=20.955276, lon.=107.049156, Alt.=13.737190m. Speed=1.188000m/h.</desc>
<speed>0.330000</speed>
</trkpt>
<trkpt lat="20.955286" lon="107.049133">
<ele>13.613167</ele>
<time>2011-04-30T10:01:00Z</time>
<desc>lat.=20.955286, lon.=107.049133, Alt.=13.613167m. Speed=0.288000m/h.</desc>
<speed>0.080000</speed>
</trkpt>
<trkpt lat="20.955282" lon="107.049133">
<ele>13.905403</ele>
<time>2011-04-30T10:01:05Z</time>
<desc>lat.=20.955282, lon.=107.049133, Alt.=13.905403m. Speed=0.432000m/h.</desc>
<speed>0.120000</speed>
</trkpt>
<trkpt lat="20.955280" lon="107.049141">
<ele>13.867561</ele>
<time>2011-04-30T10:01:10Z</time>
<desc>lat.=20.955280, lon.=107.049141, Alt.=13.867561m. Speed=0.072000m/h.</desc>
<speed>0.020000</speed>
</trkpt>
<trkpt lat="20.955282" lon="107.049141">
<ele>13.706184</ele>
<time>2011-04-30T10:01:15Z</time>
<desc>lat.=20.955282, lon.=107.049141, Alt.=13.706184m. Speed=0.288000m/h.</desc>
<speed>0.080000</speed>
</trkpt>
<trkpt lat="20.955305" lon="107.049141">
<ele>13.534065</ele>
<time>2011-04-30T10:01:20Z</time>
<desc>lat.=20.955305, lon.=107.049141, Alt.=13.534065m. Speed=1.260000m/h.</desc>
<speed>0.350000</speed>
</trkpt>
<trkpt lat="20.955320" lon="107.049118">
<ele>13.289680</ele>
<time>2011-04-30T10:01:25Z</time>
<desc>lat.=20.955320, lon.=107.049118, Alt.=13.289680m. Speed=0.360000m/h.</desc>
<speed>0.100000</speed>
</trkpt>
<trkpt lat="20.955336" lon="107.049103">
<ele>12.515266</ele>
<time>2011-04-30T10:01:30Z</time>
<desc>lat.=20.955336, lon.=107.049103, Alt.=12.515266m. Speed=0.288000m/h.</desc>
<speed>0.080000</speed>
</trkpt>
<trkpt lat="20.955332" lon="107.049095">
<ele>12.496223</ele>
<time>2011-04-30T10:01:35Z</time>
<desc>lat.=20.955332, lon.=107.049095, Alt.=12.496223m. Speed=0.324000m/h.</desc>
<speed>0.090000</speed>
</trkpt>
<trkpt lat="20.955349" lon="107.049088">
<ele>12.431038</ele>
<time>2011-04-30T10:01:40Z</time>
<desc>lat.=20.955349, lon.=107.049088, Alt.=12.431038m. Speed=1.332000m/h.</desc>
<speed>0.370000</speed>
</trkpt>
<trkpt lat="20.955368" lon="107.049080">
<ele>12.348274</ele>
<time>2011-04-30T10:01:45Z</time>
<desc>lat.=20.955368, lon.=107.049080, Alt.=12.348274m. Speed=1.368000m/h.</desc>
<speed>0.380000</speed>
</trkpt>
<trkpt lat="20.955397" lon="107.049065">
<ele>11.851936</ele>
<time>2011-04-30T10:01:50Z</time>
<desc>lat.=20.955397, lon.=107.049065, Alt.=11.851936m. Speed=0.504000m/h.</desc>
<speed>0.140000</speed>
</trkpt>
<trkpt lat="20.955427" lon="107.049042">
<ele>12.066780</ele>
<time>2011-04-30T10:01:55Z</time>
<desc>lat.=20.955427, lon.=107.049042, Alt.=12.066780m. Speed=0.504000m/h.</desc>
<speed>0.140000</speed>
</trkpt>
<trkpt lat="20.955450" lon="107.049042">
<ele>12.187141</ele>
<time>2011-04-30T10:02:00Z</time>
<desc>lat.=20.955450, lon.=107.049042, Alt.=12.187141m. Speed=1.512000m/h.</desc>
<speed>0.420000</speed>
</trkpt>
<trkpt lat="20.955456" lon="107.049034">
<ele>12.121956</ele>
<time>2011-04-30T10:02:05Z</time>
<desc>lat.=20.955456, lon.=107.049034, Alt.=12.121956m. Speed=0.360000m/h.</desc>
<speed>0.100000</speed>
</trkpt>
<trkpt lat="20.955463" lon="107.049026">
<ele>12.132454</ele>
<time>2011-04-30T10:02:10Z</time>
<desc>lat.=20.955463, lon.=107.049026, Alt.=12.132454m. Speed=0.288000m/h.</desc>
<speed>0.080000</speed>
</trkpt>
<trkpt lat="20.955454" lon="107.049042">
<ele>12.142708</ele>
<time>2011-04-30T10:02:15Z</time>
<desc>lat.=20.955454, lon.=107.049042, Alt.=12.142708m. Speed=1.728000m/h.</desc>
<speed>0.480000</speed>
</trkpt>
<trkpt lat="20.955462" lon="107.049034">
<ele>11.687386</ele>
<time>2011-04-30T10:02:20Z</time>
<desc>lat.=20.955462, lon.=107.049034, Alt.=11.687386m. Speed=0.432000m/h.</desc>
<speed>0.120000</speed>
</trkpt>
<trkpt lat="20.955465" lon="107.049034">
<ele>11.441780</ele>
<time>2011-04-30T10:02:25Z</time>
<desc>lat.=20.955465, lon.=107.049034, Alt.=11.441780m. Speed=0.108000m/h.</desc>
<speed>0.030000</speed>
</trkpt>
<trkpt lat="20.955463" lon="107.049034">
<ele>11.369514</ele>
<time>2011-04-30T10:02:30Z</time>
<desc>lat.=20.955463, lon.=107.049034, Alt.=11.369514m. Speed=0.252000m/h.</desc>
<speed>0.070000</speed>
</trkpt>
<trkpt lat="20.955460" lon="107.049034">
<ele>11.315804</ele>
<time>2011-04-30T10:02:35Z</time>
<desc>lat.=20.955460, lon.=107.049034, Alt.=11.315804m. Speed=0.360000m/h.</desc>
<speed>0.100000</speed>
</trkpt>
<trkpt lat="20.955454" lon="107.049034">
<ele>11.284798</ele>
<time>2011-04-30T10:02:40Z</time>
<desc>lat.=20.955454, lon.=107.049034, Alt.=11.284798m. Speed=1.440000m/h.</desc>
<speed>0.400000</speed>
</trkpt>
<trkpt lat="20.955471" lon="107.049049">
<ele>10.063362</ele>
<time>2011-04-30T10:02:45Z</time>
<desc>lat.=20.955471, lon.=107.049049, Alt.=10.063362m. Speed=0.396000m/h.</desc>
<speed>0.110000</speed>
</trkpt>
<trkpt lat="20.955473" lon="107.049057">
<ele>9.634407</ele>
<time>2011-04-30T10:02:50Z</time>
<desc>lat.=20.955473, lon.=107.049057, Alt.=9.634407m. Speed=1.296000m/h.</desc>
<speed>0.360000</speed>
</trkpt>
<trkpt lat="20.955479" lon="107.049034">
<ele>9.916634</ele>
<time>2011-04-30T10:02:55Z</time>
<desc>lat.=20.955479, lon.=107.049034, Alt.=9.916634m. Speed=0.396000m/h.</desc>
<speed>0.110000</speed>
</trkpt>
<trkpt lat="20.955479" lon="107.049026">
<ele>9.866341</ele>
<time>2011-04-30T10:03:00Z</time>
<desc>lat.=20.955479, lon.=107.049026, Alt.=9.866341m. Speed=0.792000m/h.</desc>
<speed>0.220000</speed>
</trkpt>
<trkpt lat="20.955471" lon="107.049019">
<ele>10.095345</ele>
<time>2011-04-30T10:03:05Z</time>
<desc>lat.=20.955471, lon.=107.049019, Alt.=10.095345m. Speed=1.476000m/h.</desc>
<speed>0.410000</speed>
</trkpt>
<trkpt lat="20.955475" lon="107.049004">
<ele>10.628792</ele>
<time>2011-04-30T10:03:10Z</time>
<desc>lat.=20.955475, lon.=107.049004, Alt.=10.628792m. Speed=0.360000m/h.</desc>
<speed>0.100000</speed>
</trkpt>
<trkpt lat="20.955479" lon="107.048996">
<ele>10.705696</ele>
<time>2011-04-30T10:03:15Z</time>
<desc>lat.=20.955479, lon.=107.048996, Alt.=10.705696m. Speed=0.432000m/h.</desc>
<speed>0.120000</speed>
</trkpt>
<trkpt lat="20.955479" lon="107.048996">
<ele>10.981331</ele>
<time>2011-04-30T10:03:20Z</time>
<desc>lat.=20.955479, lon.=107.048996, Alt.=10.981331m. Speed=0.396000m/h.</desc>
<speed>0.110000</speed>
</trkpt>
<trkpt lat="20.955477" lon="107.048996">
<ele>11.138557</ele>
<time>2011-04-30T10:03:25Z</time>
<desc>lat.=20.955477, lon.=107.048996, Alt.=11.138557m. Speed=0.720000m/h.</desc>
<speed>0.200000</speed>
</trkpt>
<trkpt lat="20.955475" lon="107.048996">
<ele>11.309212</ele>
<time>2011-04-30T10:03:30Z</time>
<desc>lat.=20.955475, lon.=107.048996, Alt.=11.309212m. Speed=0.216000m/h.</desc>
<speed>0.060000</speed>
</trkpt>
<trkpt lat="20.955475" lon="107.048996">
<ele>11.381966</ele>
<time>2011-04-30T10:03:35Z</time>
<desc>lat.=20.955475, lon.=107.048996, Alt.=11.381966m. Speed=0.360000m/h.</desc>
<speed>0.100000</speed>
</trkpt>
<trkpt lat="20.955475" lon="107.048996">
<ele>11.386360</ele>
<time>2011-04-30T10:03:40Z</time>
<desc>lat.=20.955475, lon.=107.048996, Alt.=11.386360m. Speed=0.000000m/h.</desc>
<speed>0.000000</speed>
</trkpt>
<trkpt lat="20.955475" lon="107.048988">
<ele>11.432503</ele>
<time>2011-04-30T10:03:45Z</time>
<desc>lat.=20.955475, lon.=107.048988, Alt.=11.432503m. Speed=0.072000m/h.</desc>
<speed>0.020000</speed>
</trkpt>
<trkpt lat="20.955475" lon="107.048988">
<ele>11.479134</ele>
<time>2011-04-30T10:03:50Z</time>
<desc>lat.=20.955475, lon.=107.048988, Alt.=11.479134m. Speed=0.036000m/h.</desc>
<speed>0.010000</speed>
</trkpt>
<trkpt lat="20.955475" lon="107.048988">
<ele>11.539436</ele>
<time>2011-04-30T10:03:55Z</time>
<desc>lat.=20.955475, lon.=107.048988, Alt.=11.539436m. Speed=0.036000m/h.</desc>
<speed>0.010000</speed>
</trkpt>
<trkpt lat="20.955475" lon="107.048988">
<ele>11.566048</ele>
<time>2011-04-30T10:04:00Z</time>
<desc>lat.=20.955475, lon.=107.048988, Alt.=11.566048m. Speed=0.000000m/h.</desc>
<speed>0.000000</speed>
</trkpt>
<trkpt lat="20.955475" lon="107.048988">
<ele>11.544075</ele>
<time>2011-04-30T10:04:05Z</time>
<desc>lat.=20.955475, lon.=107.048988, Alt.=11.544075m. Speed=0.216000m/h.</desc>
<speed>0.060000</speed>
</trkpt>
<trkpt lat="20.955475" lon="107.048988">
<ele>11.570442</ele>
<time>2011-04-30T10:04:10Z</time>
<desc>lat.=20.955475, lon.=107.048988, Alt.=11.570442m. Speed=0.072000m/h.</desc>
<speed>0.020000</speed>
</trkpt>
<trkpt lat="20.955473" lon="107.048988">
<ele>11.605843</ele>
<time>2011-04-30T10:04:15Z</time>
<desc>lat.=20.955473, lon.=107.048988, Alt.=11.605843m. Speed=0.252000m/h.</desc>
<speed>0.070000</speed>
</trkpt>
<trkpt lat="20.955471" lon="107.048988">
<ele>11.667610</ele>
<time>2011-04-30T10:04:20Z</time>
<desc>lat.=20.955471, lon.=107.048988, Alt.=11.667610m. Speed=0.108000m/h.</desc>
<speed>0.030000</speed>
</trkpt>
<trkpt lat="20.955471" lon="107.048996">
<ele>11.755257</ele>
<time>2011-04-30T10:04:25Z</time>
<desc>lat.=20.955471, lon.=107.048996, Alt.=11.755257m. Speed=0.360000m/h.</desc>
<speed>0.100000</speed>
</trkpt>
<trkpt lat="20.955467" lon="107.048996">
<ele>11.884895</ele>
<time>2011-04-30T10:04:30Z</time>
<desc>lat.=20.955467, lon.=107.048996, Alt.=11.884895m. Speed=0.648000m/h.</desc>
<speed>0.180000</speed>
</trkpt>
<trkpt lat="20.955463" lon="107.049004">
<ele>12.133430</ele>
<time>2011-04-30T10:04:35Z</time>
<desc>lat.=20.955463, lon.=107.049004, Alt.=12.133430m. Speed=0.432000m/h.</desc>
<speed>0.120000</speed>
</trkpt>
<trkpt lat="20.955462" lon="107.049011">
<ele>12.497688</ele>
<time>2011-04-30T10:04:40Z</time>
<desc>lat.=20.955462, lon.=107.049011, Alt.=12.497688m. Speed=0.432000m/h.</desc>
<speed>0.120000</speed>
</trkpt>
<trkpt lat="20.955460" lon="107.049019">
<ele>13.066536</ele>
<time>2011-04-30T10:04:45Z</time>
<desc>lat.=20.955460, lon.=107.049019, Alt.=13.066536m. Speed=0.360000m/h.</desc>
<speed>0.100000</speed>
</trkpt>
<trkpt lat="20.955460" lon="107.049011">
<ele>13.678352</ele>
<time>2011-04-30T10:04:50Z</time>
<desc>lat.=20.955460, lon.=107.049011, Alt.=13.678352m. Speed=0.360000m/h.</desc>
<speed>0.100000</speed>
</trkpt>
<trkpt lat="20.955458" lon="107.049011">
<ele>14.329475</ele>
<time>2011-04-30T10:04:55Z</time>
<desc>lat.=20.955458, lon.=107.049011, Alt.=14.329475m. Speed=0.216000m/h.</desc>
<speed>0.060000</speed>
</trkpt>
<trkpt lat="20.955448" lon="107.049011">
<ele>14.885384</ele>
<time>2011-04-30T10:05:00Z</time>
<desc>lat.=20.955448, lon.=107.049011, Alt.=14.885384m. Speed=1.044000m/h.</desc>
<speed>0.290000</speed>
</trkpt>
<trkpt lat="20.955442" lon="107.049011">
<ele>15.126839</ele>
<time>2011-04-30T10:05:05Z</time>
<desc>lat.=20.955442, lon.=107.049011, Alt.=15.126839m. Speed=1.008000m/h.</desc>
<speed>0.280000</speed>
</trkpt>
<trkpt lat="20.955429" lon="107.049049">
<ele>13.579964</ele>
<time>2011-04-30T10:05:10Z</time>
<desc>lat.=20.955429, lon.=107.049049, Alt.=13.579964m. Speed=0.144000m/h.</desc>
<speed>0.040000</speed>
</trkpt>
<trkpt lat="20.955425" lon="107.049049">
<ele>13.574837</ele>
<time>2011-04-30T10:05:15Z</time>
<desc>lat.=20.955425, lon.=107.049049, Alt.=13.574837m. Speed=1.872000m/h.</desc>
<speed>0.520000</speed>
</trkpt>
<trkpt lat="20.955397" lon="107.049103">
<ele>12.516975</ele>
<time>2011-04-30T10:05:20Z</time>
<desc>lat.=20.955397, lon.=107.049103, Alt.=12.516975m. Speed=0.540000m/h.</desc>
<speed>0.150000</speed>
</trkpt>
<trkpt lat="20.955395" lon="107.049118">
<ele>12.583382</ele>
<time>2011-04-30T10:05:25Z</time>
<desc>lat.=20.955395, lon.=107.049118, Alt.=12.583382m. Speed=0.864000m/h.</desc>
<speed>0.240000</speed>
</trkpt>
<trkpt lat="20.955391" lon="107.049126">
<ele>12.574104</ele>
<time>2011-04-30T10:05:30Z</time>
<desc>lat.=20.955391, lon.=107.049126, Alt.=12.574104m. Speed=0.684000m/h.</desc>
<speed>0.190000</speed>
</trkpt>
<trkpt lat="20.955387" lon="107.049133">
<ele>12.560432</ele>
<time>2011-04-30T10:05:35Z</time>
<desc>lat.=20.955387, lon.=107.049133, Alt.=12.560432m. Speed=0.684000m/h.</desc>
<speed>0.190000</speed>
</trkpt>
<trkpt lat="20.955387" lon="107.049141">
<ele>12.547249</ele>
<time>2011-04-30T10:05:40Z</time>
<desc>lat.=20.955387, lon.=107.049141, Alt.=12.547249m. Speed=0.864000m/h.</desc>
<speed>0.240000</speed>
</trkpt>
<trkpt lat="20.955288" lon="107.049202">
<ele>13.136116</ele>
<time>2011-04-30T10:05:45Z</time>
<desc>lat.=20.955288, lon.=107.049202, Alt.=13.136116m. Speed=0.684000m/h.</desc>
<speed>0.190000</speed>
</trkpt>
<trkpt lat="20.955276" lon="107.049210">
<ele>14.002083</ele>
<time>2011-04-30T10:05:50Z</time>
<desc>lat.=20.955276, lon.=107.049210, Alt.=14.002083m. Speed=1.404000m/h.</desc>
<speed>0.390000</speed>
</trkpt>
<trkpt lat="20.955303" lon="107.049217">
<ele>14.451057</ele>
<time>2011-04-30T10:05:55Z</time>
<desc>lat.=20.955303, lon.=107.049217, Alt.=14.451057m. Speed=0.252000m/h.</desc>
<speed>0.070000</speed>
</trkpt>
<trkpt lat="20.955309" lon="107.049217">
<ele>14.351204</ele>
<time>2011-04-30T10:06:00Z</time>
<desc>lat.=20.955309, lon.=107.049217, Alt.=14.351204m. Speed=1.764000m/h.</desc>
<speed>0.490000</speed>
</trkpt>
<trkpt lat="20.955313" lon="107.049202">
<ele>15.022591</ele>
<time>2011-04-30T10:06:05Z</time>
<desc>lat.=20.955313, lon.=107.049202, Alt.=15.022591m. Speed=0.396000m/h.</desc>
<speed>0.110000</speed>
</trkpt>
<trkpt lat="20.955307" lon="107.049210">
<ele>15.066780</ele>
<time>2011-04-30T10:06:10Z</time>
<desc>lat.=20.955307, lon.=107.049210, Alt.=15.066780m. Speed=1.188000m/h.</desc>
<speed>0.330000</speed>
</trkpt>
<trkpt lat="20.955282" lon="107.049187">
<ele>15.247444</ele>
<time>2011-04-30T10:06:15Z</time>
<desc>lat.=20.955282, lon.=107.049187, Alt.=15.247444m. Speed=0.504000m/h.</desc>
<speed>0.140000</speed>
</trkpt>
<trkpt lat="20.955288" lon="107.049149">
<ele>15.500130</ele>
<time>2011-04-30T10:06:20Z</time>
<desc>lat.=20.955288, lon.=107.049149, Alt.=15.500130m. Speed=0.576000m/h.</desc>
<speed>0.160000</speed>
</trkpt>
<trkpt lat="20.955313" lon="107.049141">
<ele>15.935432</ele>
<time>2011-04-30T10:06:25Z</time>
<desc>lat.=20.955313, lon.=107.049141, Alt.=15.935432m. Speed=1.260000m/h.</desc>
<speed>0.350000</speed>
</trkpt>
<trkpt lat="20.955315" lon="107.049149">
<ele>16.556412</ele>
<time>2011-04-30T10:06:30Z</time>
<desc>lat.=20.955315, lon.=107.049149, Alt.=16.556412m. Speed=0.540000m/h.</desc>
<speed>0.150000</speed>
</trkpt>
<trkpt lat="20.955315" lon="107.049156">
<ele>16.629654</ele>
<time>2011-04-30T10:06:35Z</time>
<desc>lat.=20.955315, lon.=107.049156, Alt.=16.629654m. Speed=0.288000m/h.</desc>
<speed>0.080000</speed>
</trkpt>
<trkpt lat="20.955313" lon="107.049156">
<ele>16.444107</ele>
<time>2011-04-30T10:06:40Z</time>
<desc>lat.=20.955313, lon.=107.049156, Alt.=16.444107m. Speed=1.548000m/h.</desc>
<speed>0.430000</speed>
</trkpt>
<trkpt lat="20.955307" lon="107.049202">
<ele>16.401627</ele>
<time>2011-04-30T10:06:45Z</time>
<desc>lat.=20.955307, lon.=107.049202, Alt.=16.401627m. Speed=1.116000m/h.</desc>
<speed>0.310000</speed>
</trkpt>
<trkpt lat="20.955301" lon="107.049225">
<ele>16.990982</ele>
<time>2011-04-30T10:06:50Z</time>
<desc>lat.=20.955301, lon.=107.049225, Alt.=16.990982m. Speed=0.648000m/h.</desc>
<speed>0.180000</speed>
</trkpt>
<trkpt lat="20.955299" lon="107.049225">
<ele>17.164810</ele>
<time>2011-04-30T10:06:55Z</time>
<desc>lat.=20.955299, lon.=107.049225, Alt.=17.164810m. Speed=0.216000m/h.</desc>
<speed>0.060000</speed>
</trkpt>
<trkpt lat="20.955299" lon="107.049232">
<ele>17.101822</ele>
<time>2011-04-30T10:07:00Z</time>
<desc>lat.=20.955299, lon.=107.049232, Alt.=17.101822m. Speed=0.036000m/h.</desc>
<speed>0.010000</speed>
</trkpt>
<trkpt lat="20.955299" lon="107.049232">
<ele>16.908951</ele>
<time>2011-04-30T10:07:05Z</time>
<desc>lat.=20.955299, lon.=107.049232, Alt.=16.908951m. Speed=0.036000m/h.</desc>
<speed>0.010000</speed>
</trkpt>
<trkpt lat="20.955299" lon="107.049232">
<ele>16.885025</ele>
<time>2011-04-30T10:07:10Z</time>
<desc>lat.=20.955299, lon.=107.049232, Alt.=16.885025m. Speed=0.000000m/h.</desc>
<speed>0.000000</speed>
</trkpt>
<trkpt lat="20.955297" lon="107.049232">
<ele>17.069107</ele>
<time>2011-04-30T10:07:15Z</time>
<desc>lat.=20.955297, lon.=107.049232, Alt.=17.069107m. Speed=0.000000m/h.</desc>
<speed>0.000000</speed>
</trkpt>
<trkpt lat="20.955294" lon="107.049240">
<ele>17.296646</ele>
<time>2011-04-30T10:07:20Z</time>
<desc>lat.=20.955294, lon.=107.049240, Alt.=17.296646m. Speed=0.000000m/h.</desc>
<speed>0.000000</speed>
</trkpt>
<trkpt lat="20.955288" lon="107.049232">
<ele>16.926041</ele>
<time>2011-04-30T10:07:25Z</time>
<desc>lat.=20.955288, lon.=107.049232, Alt.=16.926041m. Speed=0.576000m/h.</desc>
<speed>0.160000</speed>
</trkpt>
<trkpt lat="20.955275" lon="107.049232">
<ele>17.305923</ele>
<time>2011-04-30T10:07:30Z</time>
<desc>lat.=20.955275, lon.=107.049232, Alt.=17.305923m. Speed=0.108000m/h.</desc>
<speed>0.030000</speed>
</trkpt>
<trkpt lat="20.955254" lon="107.049232">
<ele>18.443130</ele>
<time>2011-04-30T10:07:35Z</time>
<desc>lat.=20.955254, lon.=107.049232, Alt.=18.443130m. Speed=1.008000m/h.</desc>
<speed>0.280000</speed>
</trkpt>
<trkpt lat="20.955250" lon="107.049255">
<ele>18.795670</ele>
<time>2011-04-30T10:07:40Z</time>
<desc>lat.=20.955250, lon.=107.049255, Alt.=18.795670m. Speed=0.576000m/h.</desc>
<speed>0.160000</speed>
</trkpt>
<trkpt lat="20.955252" lon="107.049263">
<ele>19.505142</ele>
<time>2011-04-30T10:07:45Z</time>
<desc>lat.=20.955252, lon.=107.049263, Alt.=19.505142m. Speed=2.484000m/h.</desc>
<speed>0.690000</speed>
</trkpt>
<trkpt lat="20.955233" lon="107.049255">
<ele>20.365982</ele>
<time>2011-04-30T10:07:50Z</time>
<desc>lat.=20.955233, lon.=107.049255, Alt.=20.365982m. Speed=1.404000m/h.</desc>
<speed>0.390000</speed>
</trkpt>
<trkpt lat="20.955185" lon="107.049255">
<ele>21.430435</ele>
<time>2011-04-30T10:07:55Z</time>
<desc>lat.=20.955185, lon.=107.049255, Alt.=21.430435m. Speed=0.576000m/h.</desc>
<speed>0.160000</speed>
</trkpt>
<trkpt lat="20.955177" lon="107.049263">
<ele>21.790787</ele>
<time>2011-04-30T10:08:00Z</time>
<desc>lat.=20.955177, lon.=107.049263, Alt.=21.790787m. Speed=2.268000m/h.</desc>
<speed>0.630000</speed>
</trkpt>
<trkpt lat="20.955170" lon="107.049271">
<ele>21.759537</ele>
<time>2011-04-30T10:08:05Z</time>
<desc>lat.=20.955170, lon.=107.049271, Alt.=21.759537m. Speed=0.468000m/h.</desc>
<speed>0.130000</speed>
</trkpt>
<trkpt lat="20.955172" lon="107.049278">
<ele>21.645279</ele>
<time>2011-04-30T10:08:10Z</time>
<desc>lat.=20.955172, lon.=107.049278, Alt.=21.645279m. Speed=0.324000m/h.</desc>
<speed>0.090000</speed>
</trkpt>
<trkpt lat="20.955172" lon="107.049271">
<ele>21.529068</ele>
<time>2011-04-30T10:08:15Z</time>
<desc>lat.=20.955172, lon.=107.049271, Alt.=21.529068m. Speed=0.612000m/h.</desc>
<speed>0.170000</speed>
</trkpt>
<trkpt lat="20.955172" lon="107.049271">
<ele>21.484146</ele>
<time>2011-04-30T10:08:20Z</time>
<desc>lat.=20.955172, lon.=107.049271, Alt.=21.484146m. Speed=0.720000m/h.</desc>
<speed>0.200000</speed>
</trkpt>
<trkpt lat="20.955168" lon="107.049271">
<ele>21.554459</ele>
<time>2011-04-30T10:08:25Z</time>
<desc>lat.=20.955168, lon.=107.049271, Alt.=21.554459m. Speed=0.432000m/h.</desc>
<speed>0.120000</speed>
</trkpt>
<trkpt lat="20.955168" lon="107.049271">
<ele>21.563736</ele>
<time>2011-04-30T10:08:30Z</time>
<desc>lat.=20.955168, lon.=107.049271, Alt.=21.563736m. Speed=0.324000m/h.</desc>
<speed>0.090000</speed>
</trkpt>
<trkpt lat="20.955166" lon="107.049278">
<ele>21.506119</ele>
<time>2011-04-30T10:08:35Z</time>
<desc>lat.=20.955166, lon.=107.049278, Alt.=21.506119m. Speed=1.656000m/h.</desc>
<speed>0.460000</speed>
</trkpt>
<trkpt lat="20.955153" lon="107.049263">
<ele>22.086197</ele>
<time>2011-04-30T10:08:40Z</time>
<desc>lat.=20.955153, lon.=107.049263, Alt.=22.086197m. Speed=0.180000m/h.</desc>
<speed>0.050000</speed>
</trkpt>
<trkpt lat="20.955156" lon="107.049263">
<ele>22.094498</ele>
<time>2011-04-30T10:08:45Z</time>
<desc>lat.=20.955156, lon.=107.049263, Alt.=22.094498m. Speed=0.612000m/h.</desc>
<speed>0.170000</speed>
</trkpt>
<trkpt lat="20.955151" lon="107.049263">
<ele>21.999771</ele>
<time>2011-04-30T10:08:50Z</time>
<desc>lat.=20.955151, lon.=107.049263, Alt.=21.999771m. Speed=0.468000m/h.</desc>
<speed>0.130000</speed>
</trkpt>
<trkpt lat="20.955141" lon="107.049263">
<ele>22.032974</ele>
<time>2011-04-30T10:08:55Z</time>
<desc>lat.=20.955141, lon.=107.049263, Alt.=22.032974m. Speed=1.332000m/h.</desc>
<speed>0.370000</speed>
</trkpt>
<trkpt lat="20.955143" lon="107.049271">
<ele>21.718521</ele>
<time>2011-04-30T10:09:00Z</time>
<desc>lat.=20.955143, lon.=107.049271, Alt.=21.718521m. Speed=0.252000m/h.</desc>
<speed>0.070000</speed>
</trkpt>
<trkpt lat="20.955145" lon="107.049278">
<ele>21.719009</ele>
<time>2011-04-30T10:09:05Z</time>
<desc>lat.=20.955145, lon.=107.049278, Alt.=21.719009m. Speed=0.036000m/h.</desc>
<speed>0.010000</speed>
</trkpt>
<trkpt lat="20.955143" lon="107.049278">
<ele>21.623795</ele>
<time>2011-04-30T10:09:10Z</time>
<desc>lat.=20.955143, lon.=107.049278, Alt.=21.623795m. Speed=0.432000m/h.</desc>
<speed>0.120000</speed>
</trkpt>
<trkpt lat="20.955143" lon="107.049278">
<ele>21.591080</ele>
<time>2011-04-30T10:09:15Z</time>
<desc>lat.=20.955143, lon.=107.049278, Alt.=21.591080m. Speed=0.288000m/h.</desc>
<speed>0.080000</speed>
</trkpt>
<trkpt lat="20.955143" lon="107.049278">
<ele>21.681412</ele>
<time>2011-04-30T10:09:20Z</time>
<desc>lat.=20.955143, lon.=107.049278, Alt.=21.681412m. Speed=0.144000m/h.</desc>
<speed>0.040000</speed>
</trkpt>
<trkpt lat="20.955145" lon="107.049286">
<ele>21.472427</ele>
<time>2011-04-30T10:09:25Z</time>
<desc>lat.=20.955145, lon.=107.049286, Alt.=21.472427m. Speed=1.116000m/h.</desc>
<speed>0.310000</speed>
</trkpt>
<trkpt lat="20.955151" lon="107.049309">
<ele>21.874771</ele>
<time>2011-04-30T10:09:30Z</time>
<desc>lat.=20.955151, lon.=107.049309, Alt.=21.874771m. Speed=0.108000m/h.</desc>
<speed>0.030000</speed>
</trkpt>
<trkpt lat="20.955151" lon="107.049309">
<ele>21.853775</ele>
<time>2011-04-30T10:09:35Z</time>
<desc>lat.=20.955151, lon.=107.049309, Alt.=21.853775m. Speed=0.144000m/h.</desc>
<speed>0.040000</speed>
</trkpt>
<trkpt lat="20.955133" lon="107.049309">
<ele>21.128189</ele>
<time>2011-04-30T10:09:40Z</time>
<desc>lat.=20.955133, lon.=107.049309, Alt.=21.128189m. Speed=1.764000m/h.</desc>
<speed>0.490000</speed>
</trkpt>
<trkpt lat="20.955130" lon="107.049316">
<ele>19.084244</ele>
<time>2011-04-30T10:09:45Z</time>
<desc>lat.=20.955130, lon.=107.049316, Alt.=19.084244m. Speed=0.324000m/h.</desc>
<speed>0.090000</speed>
</trkpt>
<trkpt lat="20.955122" lon="107.049316">
<ele>19.476334</ele>
<time>2011-04-30T10:09:50Z</time>
<desc>lat.=20.955122, lon.=107.049316, Alt.=19.476334m. Speed=0.576000m/h.</desc>
<speed>0.160000</speed>
</trkpt>
<trkpt lat="20.955097" lon="107.049301">
<ele>20.077408</ele>
<time>2011-04-30T10:09:55Z</time>
<desc>lat.=20.955097, lon.=107.049301, Alt.=20.077408m. Speed=0.468000m/h.</desc>
<speed>0.130000</speed>
</trkpt>
<trkpt lat="20.955091" lon="107.049301">
<ele>20.096451</ele>
<time>2011-04-30T10:10:00Z</time>
<desc>lat.=20.955091, lon.=107.049301, Alt.=20.096451m. Speed=0.936000m/h.</desc>
<speed>0.260000</speed>
</trkpt>
<trkpt lat="20.955103" lon="107.049286">
<ele>20.638443</ele>
<time>2011-04-30T10:10:05Z</time>
<desc>lat.=20.955103, lon.=107.049286, Alt.=20.638443m. Speed=1.152000m/h.</desc>
<speed>0.320000</speed>
</trkpt>
<trkpt lat="20.955118" lon="107.049271">
<ele>21.256119</ele>
<time>2011-04-30T10:10:10Z</time>
<desc>lat.=20.955118, lon.=107.049271, Alt.=21.256119m. Speed=0.828000m/h.</desc>
<speed>0.230000</speed>
</trkpt>
<trkpt lat="20.955122" lon="107.049263">
<ele>21.659927</ele>
<time>2011-04-30T10:10:15Z</time>
<desc>lat.=20.955122, lon.=107.049263, Alt.=21.659927m. Speed=0.504000m/h.</desc>
<speed>0.140000</speed>
</trkpt>
<trkpt lat="20.955122" lon="107.049263">
<ele>21.720474</ele>
<time>2011-04-30T10:10:20Z</time>
<desc>lat.=20.955122, lon.=107.049263, Alt.=21.720474m. Speed=0.432000m/h.</desc>
<speed>0.120000</speed>
</trkpt>
<trkpt lat="20.955120" lon="107.049263">
<ele>21.804947</ele>
<time>2011-04-30T10:10:25Z</time>
<desc>lat.=20.955120, lon.=107.049263, Alt.=21.804947m. Speed=0.936000m/h.</desc>
<speed>0.260000</speed>
</trkpt>
<trkpt lat="20.955107" lon="107.049255">
<ele>21.387955</ele>
<time>2011-04-30T10:10:30Z</time>
<desc>lat.=20.955107, lon.=107.049255, Alt.=21.387955m. Speed=1.044000m/h.</desc>
<speed>0.290000</speed>
</trkpt>
<trkpt lat="20.955109" lon="107.049255">
<ele>21.010025</ele>
<time>2011-04-30T10:10:35Z</time>
<desc>lat.=20.955109, lon.=107.049255, Alt.=21.010025m. Speed=0.576000m/h.</desc>
<speed>0.160000</speed>
</trkpt>
<trkpt lat="20.955112" lon="107.049263">
<ele>19.469009</ele>
<time>2011-04-30T10:10:40Z</time>
<desc>lat.=20.955112, lon.=107.049263, Alt.=19.469009m. Speed=0.468000m/h.</desc>
<speed>0.130000</speed>
</trkpt>
<trkpt lat="20.955118" lon="107.049271">
<ele>19.227310</ele>
<time>2011-04-30T10:10:45Z</time>
<desc>lat.=20.955118, lon.=107.049271, Alt.=19.227310m. Speed=0.468000m/h.</desc>
<speed>0.130000</speed>
</trkpt>
<trkpt lat="20.955120" lon="107.049271">
<ele>19.144791</ele>
<time>2011-04-30T10:10:50Z</time>
<desc>lat.=20.955120, lon.=107.049271, Alt.=19.144791m. Speed=0.036000m/h.</desc>
<speed>0.010000</speed>
</trkpt>
<trkpt lat="20.955124" lon="107.049263">
<ele>19.014908</ele>
<time>2011-04-30T10:10:55Z</time>
<desc>lat.=20.955124, lon.=107.049263, Alt.=19.014908m. Speed=1.224000m/h.</desc>
<speed>0.340000</speed>
</trkpt>
<trkpt lat="20.955137" lon="107.049263">
<ele>18.947525</ele>
<time>2011-04-30T10:11:00Z</time>
<desc>lat.=20.955137, lon.=107.049263, Alt.=18.947525m. Speed=0.756000m/h.</desc>
<speed>0.210000</speed>
</trkpt>
<trkpt lat="20.955137" lon="107.049263">
<ele>19.325455</ele>
<time>2011-04-30T10:11:05Z</time>
<desc>lat.=20.955137, lon.=107.049263, Alt.=19.325455m. Speed=0.396000m/h.</desc>
<speed>0.110000</speed>
</trkpt>
<trkpt lat="20.955139" lon="107.049271">
<ele>19.356705</ele>
<time>2011-04-30T10:11:10Z</time>
<desc>lat.=20.955139, lon.=107.049271, Alt.=19.356705m. Speed=0.756000m/h.</desc>
<speed>0.210000</speed>
</trkpt>
<trkpt lat="20.955139" lon="107.049271">
<ele>19.166763</ele>
<time>2011-04-30T10:11:15Z</time>
<desc>lat.=20.955139, lon.=107.049271, Alt.=19.166763m. Speed=0.324000m/h.</desc>
<speed>0.090000</speed>
</trkpt>
<trkpt lat="20.955137" lon="107.049271">
<ele>19.086197</ele>
<time>2011-04-30T10:11:20Z</time>
<desc>lat.=20.955137, lon.=107.049271, Alt.=19.086197m. Speed=0.144000m/h.</desc>
<speed>0.040000</speed>
</trkpt>
<trkpt lat="20.955145" lon="107.049263">
<ele>19.011978</ele>
<time>2011-04-30T10:11:25Z</time>
<desc>lat.=20.955145, lon.=107.049263, Alt.=19.011978m. Speed=1.152000m/h.</desc>
<speed>0.320000</speed>
</trkpt>
<trkpt lat="20.955149" lon="107.049263">
<ele>18.612564</ele>
<time>2011-04-30T10:11:30Z</time>
<desc>lat.=20.955149, lon.=107.049263, Alt.=18.612564m. Speed=1.728000m/h.</desc>
<speed>0.480000</speed>
</trkpt>
<trkpt lat="20.955135" lon="107.049240">
<ele>17.956314</ele>
<time>2011-04-30T10:11:35Z</time>
<desc>lat.=20.955135, lon.=107.049240, Alt.=17.956314m. Speed=0.468000m/h.</desc>
<speed>0.130000</speed>
</trkpt>
<trkpt lat="20.955135" lon="107.049225">
<ele>18.156998</ele>
<time>2011-04-30T10:11:40Z</time>
<desc>lat.=20.955135, lon.=107.049225, Alt.=18.156998m. Speed=1.080000m/h.</desc>
<speed>0.300000</speed>
</trkpt>
<trkpt lat="20.955141" lon="107.049210">
<ele>17.653580</ele>
<time>2011-04-30T10:11:45Z</time>
<desc>lat.=20.955141, lon.=107.049210, Alt.=17.653580m. Speed=0.756000m/h.</desc>
<speed>0.210000</speed>
</trkpt>
<trkpt lat="20.955147" lon="107.049210">
<ele>17.026627</ele>
<time>2011-04-30T10:11:50Z</time>
<desc>lat.=20.955147, lon.=107.049210, Alt.=17.026627m. Speed=1.260000m/h.</desc>
<speed>0.350000</speed>
</trkpt>
<trkpt lat="20.955154" lon="107.049217">
<ele>16.432877</ele>
<time>2011-04-30T10:11:55Z</time>
<desc>lat.=20.955154, lon.=107.049217, Alt.=16.432877m. Speed=0.360000m/h.</desc>
<speed>0.100000</speed>
</trkpt>
<trkpt lat="20.955160" lon="107.049217">
<ele>16.772720</ele>
<time>2011-04-30T10:12:00Z</time>
<desc>lat.=20.955160, lon.=107.049217, Alt.=16.772720m. Speed=0.684000m/h.</desc>
<speed>0.190000</speed>
</trkpt>
<trkpt lat="20.955173" lon="107.049232">
<ele>16.709732</ele>
<time>2011-04-30T10:12:05Z</time>
<desc>lat.=20.955173, lon.=107.049232, Alt.=16.709732m. Speed=0.648000m/h.</desc>
<speed>0.180000</speed>
</trkpt>
<trkpt lat="20.955172" lon="107.049232">
<ele>16.870377</ele>
<time>2011-04-30T10:12:10Z</time>
<desc>lat.=20.955172, lon.=107.049232, Alt.=16.870377m. Speed=0.576000m/h.</desc>
<speed>0.160000</speed>
</trkpt>
<trkpt lat="20.955181" lon="107.049232">
<ele>16.725845</ele>
<time>2011-04-30T10:12:15Z</time>
<desc>lat.=20.955181, lon.=107.049232, Alt.=16.725845m. Speed=0.684000m/h.</desc>
<speed>0.190000</speed>
</trkpt>
<trkpt lat="20.955173" lon="107.049232">
<ele>16.319595</ele>
<time>2011-04-30T10:12:20Z</time>
<desc>lat.=20.955173, lon.=107.049232, Alt.=16.319595m. Speed=1.548000m/h.</desc>
<speed>0.430000</speed>
</trkpt>
<trkpt lat="20.955175" lon="107.049225">
<ele>15.187874</ele>
<time>2011-04-30T10:12:25Z</time>
<desc>lat.=20.955175, lon.=107.049225, Alt.=15.187874m. Speed=1.188000m/h.</desc>
<speed>0.330000</speed>
</trkpt>
<trkpt lat="20.955193" lon="107.049210">
<ele>15.185677</ele>
<time>2011-04-30T10:12:30Z</time>
<desc>lat.=20.955193, lon.=107.049210, Alt.=15.185677m. Speed=0.540000m/h.</desc>
<speed>0.150000</speed>
</trkpt>
<trkpt lat="20.955206" lon="107.049210">
<ele>15.039192</ele>
<time>2011-04-30T10:12:35Z</time>
<desc>lat.=20.955206, lon.=107.049210, Alt.=15.039192m. Speed=1.008000m/h.</desc>
<speed>0.280000</speed>
</trkpt>
<trkpt lat="20.955215" lon="107.049202">
<ele>15.127327</ele>
<time>2011-04-30T10:12:40Z</time>
<desc>lat.=20.955215, lon.=107.049202, Alt.=15.127327m. Speed=0.216000m/h.</desc>
<speed>0.060000</speed>
</trkpt>
<trkpt lat="20.955214" lon="107.049202">
<ele>15.157845</ele>
<time>2011-04-30T10:12:45Z</time>
<desc>lat.=20.955214, lon.=107.049202, Alt.=15.157845m. Speed=0.396000m/h.</desc>
<speed>0.110000</speed>
</trkpt>
<trkpt lat="20.955215" lon="107.049202">
<ele>15.182747</ele>
<time>2011-04-30T10:12:50Z</time>
<desc>lat.=20.955215, lon.=107.049202, Alt.=15.182747m. Speed=0.144000m/h.</desc>
<speed>0.040000</speed>
</trkpt>
<trkpt lat="20.955212" lon="107.049194">
<ele>15.209846</ele>
<time>2011-04-30T10:12:55Z</time>
<desc>lat.=20.955212, lon.=107.049194, Alt.=15.209846m. Speed=0.504000m/h.</desc>
<speed>0.140000</speed>
</trkpt>
<trkpt lat="20.955196" lon="107.049187">
<ele>15.691048</ele>
<time>2011-04-30T10:13:00Z</time>
<desc>lat.=20.955196, lon.=107.049187, Alt.=15.691048m. Speed=0.900000m/h.</desc>
<speed>0.250000</speed>
</trkpt>
<trkpt lat="20.955194" lon="107.049187">
<ele>15.776497</ele>
<time>2011-04-30T10:13:05Z</time>
<desc>lat.=20.955194, lon.=107.049187, Alt.=15.776497m. Speed=0.072000m/h.</desc>
<speed>0.020000</speed>
</trkpt>
<trkpt lat="20.955191" lon="107.049179">
<ele>15.869026</ele>
<time>2011-04-30T10:13:10Z</time>
<desc>lat.=20.955191, lon.=107.049179, Alt.=15.869026m. Speed=1.008000m/h.</desc>
<speed>0.280000</speed>
</trkpt>
<trkpt lat="20.955193" lon="107.049187">
<ele>15.957161</ele>
<time>2011-04-30T10:13:15Z</time>
<desc>lat.=20.955193, lon.=107.049187, Alt.=15.957161m. Speed=0.324000m/h.</desc>
<speed>0.090000</speed>
</trkpt>
<trkpt lat="20.955194" lon="107.049187">
<ele>16.092056</ele>
<time>2011-04-30T10:13:20Z</time>
<desc>lat.=20.955194, lon.=107.049187, Alt.=16.092056m. Speed=0.648000m/h.</desc>
<speed>0.180000</speed>
</trkpt>
<trkpt lat="20.955212" lon="107.049194">
<ele>15.897346</ele>
<time>2011-04-30T10:13:25Z</time>
<desc>lat.=20.955212, lon.=107.049194, Alt.=15.897346m. Speed=1.008000m/h.</desc>
<speed>0.280000</speed>
</trkpt>
<trkpt lat="20.955214" lon="107.049194">
<ele>15.659798</ele>
<time>2011-04-30T10:13:30Z</time>
<desc>lat.=20.955214, lon.=107.049194, Alt.=15.659798m. Speed=0.576000m/h.</desc>
<speed>0.160000</speed>
</trkpt>
<trkpt lat="20.955221" lon="107.049179">
<ele>16.603775</ele>
<time>2011-04-30T10:13:35Z</time>
<desc>lat.=20.955221, lon.=107.049179, Alt.=16.603775m. Speed=0.072000m/h.</desc>
<speed>0.020000</speed>
</trkpt>
<trkpt lat="20.955223" lon="107.049171">
<ele>16.854752</ele>
<time>2011-04-30T10:13:40Z</time>
<desc>lat.=20.955223, lon.=107.049171, Alt.=16.854752m. Speed=0.072000m/h.</desc>
<speed>0.020000</speed>
</trkpt>
<trkpt lat="20.955223" lon="107.049171">
<ele>16.833755</ele>
<time>2011-04-30T10:13:45Z</time>
<desc>lat.=20.955223, lon.=107.049171, Alt.=16.833755m. Speed=0.108000m/h.</desc>
<speed>0.030000</speed>
</trkpt>
<trkpt lat="20.955225" lon="107.049171">
<ele>16.843033</ele>
<time>2011-04-30T10:13:50Z</time>
<desc>lat.=20.955225, lon.=107.049171, Alt.=16.843033m. Speed=0.288000m/h.</desc>
<speed>0.080000</speed>
</trkpt>
<trkpt lat="20.955225" lon="107.049171">
<ele>16.831802</ele>
<time>2011-04-30T10:13:55Z</time>
<desc>lat.=20.955225, lon.=107.049171, Alt.=16.831802m. Speed=0.144000m/h.</desc>
<speed>0.040000</speed>
</trkpt>
<trkpt lat="20.955225" lon="107.049171">
<ele>16.761978</ele>
<time>2011-04-30T10:14:00Z</time>
<desc>lat.=20.955225, lon.=107.049171, Alt.=16.761978m. Speed=0.036000m/h.</desc>
<speed>0.010000</speed>
</trkpt>
<trkpt lat="20.955225" lon="107.049171">
<ele>16.698990</ele>
<time>2011-04-30T10:14:05Z</time>
<desc>lat.=20.955225, lon.=107.049171, Alt.=16.698990m. Speed=0.108000m/h.</desc>
<speed>0.030000</speed>
</trkpt>
<trkpt lat="20.955225" lon="107.049171">
<ele>16.689713</ele>
<time>2011-04-30T10:14:10Z</time>
<desc>lat.=20.955225, lon.=107.049171, Alt.=16.689713m. Speed=0.252000m/h.</desc>
<speed>0.070000</speed>
</trkpt>
<trkpt lat="20.955229" lon="107.049171">
<ele>16.721939</ele>
<time>2011-04-30T10:14:15Z</time>
<desc>lat.=20.955229, lon.=107.049171, Alt.=16.721939m. Speed=0.828000m/h.</desc>
<speed>0.230000</speed>
</trkpt>
<trkpt lat="20.955217" lon="107.049164">
<ele>16.868912</ele>
<time>2011-04-30T10:14:20Z</time>
<desc>lat.=20.955217, lon.=107.049164, Alt.=16.868912m. Speed=0.432000m/h.</desc>
<speed>0.120000</speed>
</trkpt>
<trkpt lat="20.955221" lon="107.049156">
<ele>17.587173</ele>
<time>2011-04-30T10:14:25Z</time>
<desc>lat.=20.955221, lon.=107.049156, Alt.=17.587173m. Speed=0.936000m/h.</desc>
<speed>0.260000</speed>
</trkpt>
<trkpt lat="20.955229" lon="107.049179">
<ele>17.272232</ele>
<time>2011-04-30T10:14:30Z</time>
<desc>lat.=20.955229, lon.=107.049179, Alt.=17.272232m. Speed=0.360000m/h.</desc>
<speed>0.100000</speed>
</trkpt>
<trkpt lat="20.955221" lon="107.049194">
<ele>17.381607</ele>
<time>2011-04-30T10:14:35Z</time>
<desc>lat.=20.955221, lon.=107.049194, Alt.=17.381607m. Speed=0.540000m/h.</desc>
<speed>0.150000</speed>
</trkpt>
<trkpt lat="20.955221" lon="107.049194">
<ele>17.456314</ele>
<time>2011-04-30T10:14:40Z</time>
<desc>lat.=20.955221, lon.=107.049194, Alt.=17.456314m. Speed=0.432000m/h.</desc>
<speed>0.120000</speed>
</trkpt>
<trkpt lat="20.955219" lon="107.049210">
<ele>18.258560</ele>
<time>2011-04-30T10:14:45Z</time>
<desc>lat.=20.955219, lon.=107.049210, Alt.=18.258560m. Speed=0.288000m/h.</desc>
<speed>0.080000</speed>
</trkpt>
<trkpt lat="20.955173" lon="107.049232">
<ele>17.547134</ele>
<time>2011-04-30T10:14:50Z</time>
<desc>lat.=20.955173, lon.=107.049232, Alt.=17.547134m. Speed=0.468000m/h.</desc>
<speed>0.130000</speed>
</trkpt>
<trkpt lat="20.955151" lon="107.049248">
<ele>18.251236</ele>
<time>2011-04-30T10:14:55Z</time>
<desc>lat.=20.955151, lon.=107.049248, Alt.=18.251236m. Speed=0.180000m/h.</desc>
<speed>0.050000</speed>
</trkpt>
<trkpt lat="20.955128" lon="107.049255">
<ele>18.511002</ele>
<time>2011-04-30T10:15:00Z</time>
<desc>lat.=20.955128, lon.=107.049255, Alt.=18.511002m. Speed=0.828000m/h.</desc>
<speed>0.230000</speed>
</trkpt>
<trkpt lat="20.955116" lon="107.049278">
<ele>17.918228</ele>
<time>2011-04-30T10:15:05Z</time>
<desc>lat.=20.955116, lon.=107.049278, Alt.=17.918228m. Speed=0.252000m/h.</desc>
<speed>0.070000</speed>
</trkpt>
<trkpt lat="20.955116" lon="107.049271">
<ele>17.758072</ele>
<time>2011-04-30T10:15:10Z</time>
<desc>lat.=20.955116, lon.=107.049271, Alt.=17.758072m. Speed=0.108000m/h.</desc>
<speed>0.030000</speed>
</trkpt>
<trkpt lat="20.955114" lon="107.049278">
<ele>17.770279</ele>
<time>2011-04-30T10:15:15Z</time>
<desc>lat.=20.955114, lon.=107.049278, Alt.=17.770279m. Speed=0.180000m/h.</desc>
<speed>0.050000</speed>
</trkpt>
<trkpt lat="20.955130" lon="107.049271">
<ele>17.905533</ele>
<time>2011-04-30T10:15:20Z</time>
<desc>lat.=20.955130, lon.=107.049271, Alt.=17.905533m. Speed=0.072000m/h.</desc>
<speed>0.020000</speed>
</trkpt>
<trkpt lat="20.955147" lon="107.049263">
<ele>17.891373</ele>
<time>2011-04-30T10:15:25Z</time>
<desc>lat.=20.955147, lon.=107.049263, Alt.=17.891373m. Speed=0.360000m/h.</desc>
<speed>0.100000</speed>
</trkpt>
<trkpt lat="20.955149" lon="107.049263">
<ele>17.910904</ele>
<time>2011-04-30T10:15:30Z</time>
<desc>lat.=20.955149, lon.=107.049263, Alt.=17.910904m. Speed=0.144000m/h.</desc>
<speed>0.040000</speed>
</trkpt>
<trkpt lat="20.955147" lon="107.049255">
<ele>18.364029</ele>
<time>2011-04-30T10:15:35Z</time>
<desc>lat.=20.955147, lon.=107.049255, Alt.=18.364029m. Speed=0.000000m/h.</desc>
<speed>0.000000</speed>
</trkpt>
<trkpt lat="20.955145" lon="107.049240">
<ele>17.924576</ele>
<time>2011-04-30T10:15:40Z</time>
<desc>lat.=20.955145, lon.=107.049240, Alt.=17.924576m. Speed=0.000000m/h.</desc>
<speed>0.000000</speed>
</trkpt>
<trkpt lat="20.955139" lon="107.049248">
<ele>17.596939</ele>
<time>2011-04-30T10:15:45Z</time>
<desc>lat.=20.955139, lon.=107.049248, Alt.=17.596939m. Speed=0.000000m/h.</desc>
<speed>0.000000</speed>
</trkpt>
<trkpt lat="20.955141" lon="107.049255">
<ele>18.863052</ele>
<time>2011-04-30T10:15:50Z</time>
<desc>lat.=20.955141, lon.=107.049255, Alt.=18.863052m. Speed=0.036000m/h.</desc>
<speed>0.010000</speed>
</trkpt>
<trkpt lat="20.955145" lon="107.049263">
<ele>18.126236</ele>
<time>2011-04-30T10:15:55Z</time>
<desc>lat.=20.955145, lon.=107.049263, Alt.=18.126236m. Speed=0.180000m/h.</desc>
<speed>0.050000</speed>
</trkpt>
<trkpt lat="20.955145" lon="107.049255">
<ele>18.202896</ele>
<time>2011-04-30T10:16:00Z</time>
<desc>lat.=20.955145, lon.=107.049255, Alt.=18.202896m. Speed=0.216000m/h.</desc>
<speed>0.060000</speed>
</trkpt>
<trkpt lat="20.955137" lon="107.049255">
<ele>17.974380</ele>
<time>2011-04-30T10:16:05Z</time>
<desc>lat.=20.955137, lon.=107.049255, Alt.=17.974380m. Speed=1.008000m/h.</desc>
<speed>0.280000</speed>
</trkpt>
<trkpt lat="20.955141" lon="107.049263">
<ele>18.102798</ele>
<time>2011-04-30T10:16:10Z</time>
<desc>lat.=20.955141, lon.=107.049263, Alt.=18.102798m. Speed=0.576000m/h.</desc>
<speed>0.160000</speed>
</trkpt>
<trkpt lat="20.955164" lon="107.049248">
<ele>17.803482</ele>
<time>2011-04-30T10:16:15Z</time>
<desc>lat.=20.955164, lon.=107.049248, Alt.=17.803482m. Speed=2.196000m/h.</desc>
<speed>0.610000</speed>
</trkpt>
<trkpt lat="20.955183" lon="107.049217">
<ele>18.055923</ele>
<time>2011-04-30T10:16:20Z</time>
<desc>lat.=20.955183, lon.=107.049217, Alt.=18.055923m. Speed=1.800000m/h.</desc>
<speed>0.500000</speed>
</trkpt>
<trkpt lat="20.955202" lon="107.049194">
<ele>18.061783</ele>
<time>2011-04-30T10:16:25Z</time>
<desc>lat.=20.955202, lon.=107.049194, Alt.=18.061783m. Speed=1.224000m/h.</desc>
<speed>0.340000</speed>
</trkpt>
<trkpt lat="20.955217" lon="107.049171">
<ele>18.421158</ele>
<time>2011-04-30T10:16:30Z</time>
<desc>lat.=20.955217, lon.=107.049171, Alt.=18.421158m. Speed=0.180000m/h.</desc>
<speed>0.050000</speed>
</trkpt>
<trkpt lat="20.955219" lon="107.049164">
<ele>18.372330</ele>
<time>2011-04-30T10:16:35Z</time>
<desc>lat.=20.955219, lon.=107.049164, Alt.=18.372330m. Speed=1.584000m/h.</desc>
<speed>0.440000</speed>
</trkpt>
<trkpt lat="20.955217" lon="107.049156">
<ele>18.309341</ele>
<time>2011-04-30T10:16:40Z</time>
<desc>lat.=20.955217, lon.=107.049156, Alt.=18.309341m. Speed=1.188000m/h.</desc>
<speed>0.330000</speed>
</trkpt>
<trkpt lat="20.955206" lon="107.049126">
<ele>18.649185</ele>
<time>2011-04-30T10:16:45Z</time>
<desc>lat.=20.955206, lon.=107.049126, Alt.=18.649185m. Speed=0.900000m/h.</desc>
<speed>0.250000</speed>
</trkpt>
<trkpt lat="20.955194" lon="107.049110">
<ele>18.804947</ele>
<time>2011-04-30T10:16:50Z</time>
<desc>lat.=20.955194, lon.=107.049110, Alt.=18.804947m. Speed=0.936000m/h.</desc>
<speed>0.260000</speed>
</trkpt>
<trkpt lat="20.955193" lon="107.049095">
<ele>18.868912</ele>
<time>2011-04-30T10:16:55Z</time>
<desc>lat.=20.955193, lon.=107.049095, Alt.=18.868912m. Speed=1.008000m/h.</desc>
<speed>0.280000</speed>
</trkpt>
<trkpt lat="20.955172" lon="107.049110">
<ele>19.268326</ele>
<time>2011-04-30T10:17:00Z</time>
<desc>lat.=20.955172, lon.=107.049110, Alt.=19.268326m. Speed=0.540000m/h.</desc>
<speed>0.150000</speed>
</trkpt>
<trkpt lat="20.955164" lon="107.049118">
<ele>19.507584</ele>
<time>2011-04-30T10:17:05Z</time>
<desc>lat.=20.955164, lon.=107.049118, Alt.=19.507584m. Speed=0.792000m/h.</desc>
<speed>0.220000</speed>
</trkpt>
<trkpt lat="20.955162" lon="107.049118">
<ele>19.751236</ele>
<time>2011-04-30T10:17:10Z</time>
<desc>lat.=20.955162, lon.=107.049118, Alt.=19.751236m. Speed=1.260000m/h.</desc>
<speed>0.350000</speed>
</trkpt>
<trkpt lat="20.955143" lon="107.049118">
<ele>20.157974</ele>
<time>2011-04-30T10:17:15Z</time>
<desc>lat.=20.955143, lon.=107.049118, Alt.=20.157974m. Speed=1.008000m/h.</desc>
<speed>0.280000</speed>
</trkpt>
<trkpt lat="20.955126" lon="107.049141">
<ele>20.827408</ele>
<time>2011-04-30T10:17:20Z</time>
<desc>lat.=20.955126, lon.=107.049141, Alt.=20.827408m. Speed=0.720000m/h.</desc>
<speed>0.200000</speed>
</trkpt>
<trkpt lat="20.955122" lon="107.049149">
<ele>21.499283</ele>
<time>2011-04-30T10:17:25Z</time>
<desc>lat.=20.955122, lon.=107.049149, Alt.=21.499283m. Speed=1.152000m/h.</desc>
<speed>0.320000</speed>
</trkpt>
<trkpt lat="20.955126" lon="107.049171">
<ele>23.898697</ele>
<time>2011-04-30T10:17:30Z</time>
<desc>lat.=20.955126, lon.=107.049171, Alt.=23.898697m. Speed=1.476000m/h.</desc>
<speed>0.410000</speed>
</trkpt>
<trkpt lat="20.955111" lon="107.049187">
<ele>25.893814</ele>
<time>2011-04-30T10:17:35Z</time>
<desc>lat.=20.955111, lon.=107.049187, Alt.=25.893814m. Speed=0.684000m/h.</desc>
<speed>0.190000</speed>
</trkpt>
<trkpt lat="20.955105" lon="107.049187">
<ele>25.765396</ele>
<time>2011-04-30T10:17:40Z</time>
<desc>lat.=20.955105, lon.=107.049187, Alt.=25.765396m. Speed=1.260000m/h.</desc>
<speed>0.350000</speed>
</trkpt>
<trkpt lat="20.955080" lon="107.049179">
<ele>27.084732</ele>
<time>2011-04-30T10:17:45Z</time>
<desc>lat.=20.955080, lon.=107.049179, Alt.=27.084732m. Speed=0.504000m/h.</desc>
<speed>0.140000</speed>
</trkpt>
<trkpt lat="20.955076" lon="107.049171">
<ele>27.095474</ele>
<time>2011-04-30T10:17:50Z</time>
<desc>lat.=20.955076, lon.=107.049171, Alt.=27.095474m. Speed=1.332000m/h.</desc>
<speed>0.370000</speed>
</trkpt>
<trkpt lat="20.955072" lon="107.049141">
<ele>25.501724</ele>
<time>2011-04-30T10:17:55Z</time>
<desc>lat.=20.955072, lon.=107.049141, Alt.=25.501724m. Speed=1.296000m/h.</desc>
<speed>0.360000</speed>
</trkpt>
<trkpt lat="20.955069" lon="107.049110">
<ele>24.241959</ele>
<time>2011-04-30T10:18:00Z</time>
<desc>lat.=20.955069, lon.=107.049110, Alt.=24.241959m. Speed=1.764000m/h.</desc>
<speed>0.490000</speed>
</trkpt>
<trkpt lat="20.955055" lon="107.049103">
<ele>23.852798</ele>
<time>2011-04-30T10:18:05Z</time>
<desc>lat.=20.955055, lon.=107.049103, Alt.=23.852798m. Speed=0.684000m/h.</desc>
<speed>0.190000</speed>
</trkpt>
<trkpt lat="20.955057" lon="107.049095">
<ele>24.029556</ele>
<time>2011-04-30T10:18:10Z</time>
<desc>lat.=20.955057, lon.=107.049095, Alt.=24.029556m. Speed=1.620000m/h.</desc>
<speed>0.450000</speed>
</trkpt>
<trkpt lat="20.955070" lon="107.049110">
<ele>23.534439</ele>
<time>2011-04-30T10:18:15Z</time>
<desc>lat.=20.955070, lon.=107.049110, Alt.=23.534439m. Speed=0.324000m/h.</desc>
<speed>0.090000</speed>
</trkpt>
<trkpt lat="20.955076" lon="107.049118">
<ele>23.890396</ele>
<time>2011-04-30T10:18:20Z</time>
<desc>lat.=20.955076, lon.=107.049118, Alt.=23.890396m. Speed=0.684000m/h.</desc>
<speed>0.190000</speed>
</trkpt>
<trkpt lat="20.955074" lon="107.049126">
<ele>23.978287</ele>
<time>2011-04-30T10:18:25Z</time>
<desc>lat.=20.955074, lon.=107.049126, Alt.=23.978287m. Speed=0.144000m/h.</desc>
<speed>0.040000</speed>
</trkpt>
<trkpt lat="20.955080" lon="107.049126">
<ele>23.970963</ele>
<time>2011-04-30T10:18:30Z</time>
<desc>lat.=20.955080, lon.=107.049126, Alt.=23.970963m. Speed=0.828000m/h.</desc>
<speed>0.230000</speed>
</trkpt>
<trkpt lat="20.955086" lon="107.049118">
<ele>23.979752</ele>
<time>2011-04-30T10:18:35Z</time>
<desc>lat.=20.955086, lon.=107.049118, Alt.=23.979752m. Speed=0.504000m/h.</desc>
<speed>0.140000</speed>
</trkpt>
<trkpt lat="20.955090" lon="107.049095">
<ele>24.623306</ele>
<time>2011-04-30T10:18:40Z</time>
<desc>lat.=20.955090, lon.=107.049095, Alt.=24.623306m. Speed=1.944000m/h.</desc>
<speed>0.540000</speed>
</trkpt>
<trkpt lat="20.955107" lon="107.049042">
<ele>25.799088</ele>
<time>2011-04-30T10:18:45Z</time>
<desc>lat.=20.955107, lon.=107.049042, Alt.=25.799088m. Speed=0.612000m/h.</desc>
<speed>0.170000</speed>
</trkpt>
<trkpt lat="20.955120" lon="107.049019">
<ele>25.206802</ele>
<time>2011-04-30T10:18:50Z</time>
<desc>lat.=20.955120, lon.=107.049019, Alt.=25.206802m. Speed=1.548000m/h.</desc>
<speed>0.430000</speed>
</trkpt>
<trkpt lat="20.955097" lon="107.049019">
<ele>24.762466</ele>
<time>2011-04-30T10:18:55Z</time>
<desc>lat.=20.955097, lon.=107.049019, Alt.=24.762466m. Speed=1.584000m/h.</desc>
<speed>0.440000</speed>
</trkpt>
<trkpt lat="20.955105" lon="107.049034">
<ele>24.887955</ele>
<time>2011-04-30T10:19:00Z</time>
<desc>lat.=20.955105, lon.=107.049034, Alt.=24.887955m. Speed=2.196000m/h.</desc>
<speed>0.610000</speed>
</trkpt>
<trkpt lat="20.955118" lon="107.049057">
<ele>25.356705</ele>
<time>2011-04-30T10:19:05Z</time>
<desc>lat.=20.955118, lon.=107.049057, Alt.=25.356705m. Speed=2.484000m/h.</desc>
<speed>0.690000</speed>
</trkpt>
<trkpt lat="20.955147" lon="107.049088">
<ele>26.256607</ele>
<time>2011-04-30T10:19:10Z</time>
<desc>lat.=20.955147, lon.=107.049088, Alt.=26.256607m. Speed=3.096000m/h.</desc>
<speed>0.860000</speed>
</trkpt>
<trkpt lat="20.955181" lon="107.049126">
<ele>27.025650</ele>
<time>2011-04-30T10:19:15Z</time>
<desc>lat.=20.955181, lon.=107.049126, Alt.=27.025650m. Speed=2.196000m/h.</desc>
<speed>0.610000</speed>
</trkpt>
<trkpt lat="20.955259" lon="107.049126">
<ele>30.873795</ele>
<time>2011-04-30T10:19:20Z</time>
<desc>lat.=20.955259, lon.=107.049126, Alt.=30.873795m. Speed=2.052000m/h.</desc>
<speed>0.570000</speed>
</trkpt>
<trkpt lat="20.955301" lon="107.049164">
<ele>33.348175</ele>
<time>2011-04-30T10:19:25Z</time>
<desc>lat.=20.955301, lon.=107.049164, Alt.=33.348175m. Speed=2.520000m/h.</desc>
<speed>0.700000</speed>
</trkpt>
<trkpt lat="20.955313" lon="107.049217">
<ele>34.629425</ele>
<time>2011-04-30T10:19:30Z</time>
<desc>lat.=20.955313, lon.=107.049217, Alt.=34.629425m. Speed=1.188000m/h.</desc>
<speed>0.330000</speed>
</trkpt>
<trkpt lat="20.955334" lon="107.049271">
<ele>34.093292</ele>
<time>2011-04-30T10:19:35Z</time>
<desc>lat.=20.955334, lon.=107.049271, Alt.=34.093292m. Speed=2.808000m/h.</desc>
<speed>0.780000</speed>
</trkpt>
<trkpt lat="20.955374" lon="107.049263">
<ele>35.394073</ele>
<time>2011-04-30T10:19:40Z</time>
<desc>lat.=20.955374, lon.=107.049263, Alt.=35.394073m. Speed=2.160000m/h.</desc>
<speed>0.600000</speed>
</trkpt>
<trkpt lat="20.955362" lon="107.049255">
<ele>37.578644</ele>
<time>2011-04-30T10:19:45Z</time>
<desc>lat.=20.955362, lon.=107.049255, Alt.=37.578644m. Speed=1.548000m/h.</desc>
<speed>0.430000</speed>
</trkpt>
<trkpt lat="20.955359" lon="107.049248">
<ele>38.363800</ele>
<time>2011-04-30T10:19:50Z</time>
<desc>lat.=20.955359, lon.=107.049248, Alt.=38.363800m. Speed=0.936000m/h.</desc>
<speed>0.260000</speed>
</trkpt>
<trkpt lat="20.955357" lon="107.049248">
<ele>38.602081</ele>
<time>2011-04-30T10:19:55Z</time>
<desc>lat.=20.955357, lon.=107.049248, Alt.=38.602081m. Speed=0.468000m/h.</desc>
<speed>0.130000</speed>
</trkpt>
<trkpt lat="20.955355" lon="107.049248">
<ele>38.849152</ele>
<time>2011-04-30T10:20:00Z</time>
<desc>lat.=20.955355, lon.=107.049248, Alt.=38.849152m. Speed=0.864000m/h.</desc>
<speed>0.240000</speed>
</trkpt>
<trkpt lat="20.955355" lon="107.049255">
<ele>38.937042</ele>
<time>2011-04-30T10:20:05Z</time>
<desc>lat.=20.955355, lon.=107.049255, Alt.=38.937042m. Speed=0.756000m/h.</desc>
<speed>0.210000</speed>
</trkpt>
<trkpt lat="20.955311" lon="107.049294">
<ele>39.014191</ele>
<time>2011-04-30T10:20:10Z</time>
<desc>lat.=20.955311, lon.=107.049294, Alt.=39.014191m. Speed=1.980000m/h.</desc>
<speed>0.550000</speed>
</trkpt>
<trkpt lat="20.955336" lon="107.049286">
<ele>39.158722</ele>
<time>2011-04-30T10:20:15Z</time>
<desc>lat.=20.955336, lon.=107.049286, Alt.=39.158722m. Speed=1.548000m/h.</desc>
<speed>0.430000</speed>
</trkpt>
<trkpt lat="20.955412" lon="107.049332">
<ele>40.218292</ele>
<time>2011-04-30T10:20:20Z</time>
<desc>lat.=20.955412, lon.=107.049332, Alt.=40.218292m. Speed=1.044000m/h.</desc>
<speed>0.290000</speed>
</trkpt>
<trkpt lat="20.955460" lon="107.049339">
<ele>38.554230</ele>
<time>2011-04-30T10:20:25Z</time>
<desc>lat.=20.955460, lon.=107.049339, Alt.=38.554230m. Speed=1.152000m/h.</desc>
<speed>0.320000</speed>
</trkpt>
<trkpt lat="20.955467" lon="107.049332">
<ele>37.559113</ele>
<time>2011-04-30T10:20:30Z</time>
<desc>lat.=20.955467, lon.=107.049332, Alt.=37.559113m. Speed=0.756000m/h.</desc>
<speed>0.210000</speed>
</trkpt>
<trkpt lat="20.955458" lon="107.049324">
<ele>36.038605</ele>
<time>2011-04-30T10:20:35Z</time>
<desc>lat.=20.955458, lon.=107.049324, Alt.=36.038605m. Speed=1.404000m/h.</desc>
<speed>0.390000</speed>
</trkpt>
<trkpt lat="20.955433" lon="107.049309">
<ele>35.912628</ele>
<time>2011-04-30T10:20:40Z</time>
<desc>lat.=20.955433, lon.=107.049309, Alt.=35.912628m. Speed=0.612000m/h.</desc>
<speed>0.170000</speed>
</trkpt>
<trkpt lat="20.955423" lon="107.049309">
<ele>35.750519</ele>
<time>2011-04-30T10:20:45Z</time>
<desc>lat.=20.955423, lon.=107.049309, Alt.=35.750519m. Speed=0.288000m/h.</desc>
<speed>0.080000</speed>
</trkpt>
<trkpt lat="20.955425" lon="107.049309">
<ele>35.672394</ele>
<time>2011-04-30T10:20:50Z</time>
<desc>lat.=20.955425, lon.=107.049309, Alt.=35.672394m. Speed=0.324000m/h.</desc>
<speed>0.090000</speed>
</trkpt>
<trkpt lat="20.955414" lon="107.049316">
<ele>35.020050</ele>
<time>2011-04-30T10:20:55Z</time>
<desc>lat.=20.955414, lon.=107.049316, Alt.=35.020050m. Speed=1.692000m/h.</desc>
<speed>0.470000</speed>
</trkpt>
<trkpt lat="20.955406" lon="107.049339">
<ele>34.291534</ele>
<time>2011-04-30T10:21:00Z</time>
<desc>lat.=20.955406, lon.=107.049339, Alt.=34.291534m. Speed=2.556000m/h.</desc>
<speed>0.710000</speed>
</trkpt>
<trkpt lat="20.955402" lon="107.049370">
<ele>34.292511</ele>
<time>2011-04-30T10:21:05Z</time>
<desc>lat.=20.955402, lon.=107.049370, Alt.=34.292511m. Speed=3.924000m/h.</desc>
<speed>1.090000</speed>
</trkpt>
<trkpt lat="20.955406" lon="107.049416">
<ele>33.928253</ele>
<time>2011-04-30T10:21:10Z</time>
<desc>lat.=20.955406, lon.=107.049416, Alt.=33.928253m. Speed=2.592000m/h.</desc>
<speed>0.720000</speed>
</trkpt>
<trkpt lat="20.955462" lon="107.049438">
<ele>34.046417</ele>
<time>2011-04-30T10:21:15Z</time>
<desc>lat.=20.955462, lon.=107.049438, Alt.=34.046417m. Speed=2.484000m/h.</desc>
<speed>0.690000</speed>
</trkpt>
<trkpt lat="20.955492" lon="107.049492">
<ele>34.387238</ele>
<time>2011-04-30T10:21:20Z</time>
<desc>lat.=20.955492, lon.=107.049492, Alt.=34.387238m. Speed=2.160000m/h.</desc>
<speed>0.600000</speed>
</trkpt>
<trkpt lat="20.955479" lon="107.049530">
<ele>32.115753</ele>
<time>2011-04-30T10:21:25Z</time>
<desc>lat.=20.955479, lon.=107.049530, Alt.=32.115753m. Speed=1.440000m/h.</desc>
<speed>0.400000</speed>
</trkpt>
<trkpt lat="20.955463" lon="107.049568">
<ele>30.747818</ele>
<time>2011-04-30T10:21:30Z</time>
<desc>lat.=20.955463, lon.=107.049568, Alt.=30.747818m. Speed=1.260000m/h.</desc>
<speed>0.350000</speed>
</trkpt>
<trkpt lat="20.955452" lon="107.049591">
<ele>30.890884</ele>
<time>2011-04-30T10:21:35Z</time>
<desc>lat.=20.955452, lon.=107.049591, Alt.=30.890884m. Speed=2.520000m/h.</desc>
<speed>0.700000</speed>
</trkpt>
<trkpt lat="20.955435" lon="107.049606">
<ele>31.332291</ele>
<time>2011-04-30T10:21:40Z</time>
<desc>lat.=20.955435, lon.=107.049606, Alt.=31.332291m. Speed=4.356000m/h.</desc>
<speed>1.210000</speed>
</trkpt>
<trkpt lat="20.955473" lon="107.049591">
<ele>30.096451</ele>
<time>2011-04-30T10:21:45Z</time>
<desc>lat.=20.955473, lon.=107.049591, Alt.=30.096451m. Speed=5.256000m/h.</desc>
<speed>1.460000</speed>
</trkpt>
<trkpt lat="20.955509" lon="107.049583">
<ele>28.701920</ele>
<time>2011-04-30T10:21:50Z</time>
<desc>lat.=20.955509, lon.=107.049583, Alt.=28.701920m. Speed=1.548000m/h.</desc>
<speed>0.430000</speed>
</trkpt>
<trkpt lat="20.955563" lon="107.049591">
<ele>28.052994</ele>
<time>2011-04-30T10:21:55Z</time>
<desc>lat.=20.955563, lon.=107.049591, Alt.=28.052994m. Speed=5.436000m/h.</desc>
<speed>1.510000</speed>
</trkpt>
<trkpt lat="20.955616" lon="107.049576">
<ele>28.421158</ele>
<time>2011-04-30T10:22:00Z</time>
<desc>lat.=20.955616, lon.=107.049576, Alt.=28.421158m. Speed=5.184000m/h.</desc>
<speed>1.440000</speed>
</trkpt>
<trkpt lat="20.955677" lon="107.049568">
<ele>27.729263</ele>
<time>2011-04-30T10:22:05Z</time>
<desc>lat.=20.955677, lon.=107.049568, Alt.=27.729263m. Speed=4.248000m/h.</desc>
<speed>1.180000</speed>
</trkpt>
<trkpt lat="20.955706" lon="107.049545">
<ele>26.984146</ele>
<time>2011-04-30T10:22:10Z</time>
<desc>lat.=20.955706, lon.=107.049545, Alt.=26.984146m. Speed=3.600000m/h.</desc>
<speed>1.000000</speed>
</trkpt>
<trkpt lat="20.955736" lon="107.049553">
<ele>25.550552</ele>
<time>2011-04-30T10:22:15Z</time>
<desc>lat.=20.955736, lon.=107.049553, Alt.=25.550552m. Speed=1.980000m/h.</desc>
<speed>0.550000</speed>
</trkpt>
<trkpt lat="20.955776" lon="107.049545">
<ele>25.557388</ele>
<time>2011-04-30T10:22:20Z</time>
<desc>lat.=20.955776, lon.=107.049545, Alt.=25.557388m. Speed=1.080000m/h.</desc>
<speed>0.300000</speed>
</trkpt>
<trkpt lat="20.955828" lon="107.049538">
<ele>26.232681</ele>
<time>2011-04-30T10:22:25Z</time>
<desc>lat.=20.955828, lon.=107.049538, Alt.=26.232681m. Speed=2.412000m/h.</desc>
<speed>0.670000</speed>
</trkpt>
<trkpt lat="20.955864" lon="107.049484">
<ele>25.429947</ele>
<time>2011-04-30T10:22:30Z</time>
<desc>lat.=20.955864, lon.=107.049484, Alt.=25.429947m. Speed=1.872000m/h.</desc>
<speed>0.520000</speed>
</trkpt>
<trkpt lat="20.955917" lon="107.049461">
<ele>27.251724</ele>
<time>2011-04-30T10:22:35Z</time>
<desc>lat.=20.955917, lon.=107.049461, Alt.=27.251724m. Speed=2.016000m/h.</desc>
<speed>0.560000</speed>
</trkpt>
<trkpt lat="20.955959" lon="107.049469">
<ele>27.770767</ele>
<time>2011-04-30T10:22:40Z</time>
<desc>lat.=20.955959, lon.=107.049469, Alt.=27.770767m. Speed=2.412000m/h.</desc>
<speed>0.670000</speed>
</trkpt>
<trkpt lat="20.955976" lon="107.049492">
<ele>29.364517</ele>
<time>2011-04-30T10:22:45Z</time>
<desc>lat.=20.955976, lon.=107.049492, Alt.=29.364517m. Speed=2.088000m/h.</desc>
<speed>0.580000</speed>
</trkpt>
<trkpt lat="20.956011" lon="107.049522">
<ele>30.161392</ele>
<time>2011-04-30T10:22:50Z</time>
<desc>lat.=20.956011, lon.=107.049522, Alt.=30.161392m. Speed=1.584000m/h.</desc>
<speed>0.440000</speed>
</trkpt>
<trkpt lat="20.956032" lon="107.049553">
<ele>30.222916</ele>
<time>2011-04-30T10:22:55Z</time>
<desc>lat.=20.956032, lon.=107.049553, Alt.=30.222916m. Speed=3.744000m/h.</desc>
<speed>1.040000</speed>
</trkpt>
<trkpt lat="20.956055" lon="107.049599">
<ele>32.322784</ele>
<time>2011-04-30T10:23:00Z</time>
<desc>lat.=20.956055, lon.=107.049599, Alt.=32.322784m. Speed=3.456000m/h.</desc>
<speed>0.960000</speed>
</trkpt>
<trkpt lat="20.956068" lon="107.049667">
<ele>33.556183</ele>
<time>2011-04-30T10:23:05Z</time>
<desc>lat.=20.956068, lon.=107.049667, Alt.=33.556183m. Speed=2.160000m/h.</desc>
<speed>0.600000</speed>
</trkpt>
<trkpt lat="20.956106" lon="107.049706">
<ele>34.853058</ele>
<time>2011-04-30T10:23:10Z</time>
<desc>lat.=20.956106, lon.=107.049706, Alt.=34.853058m. Speed=2.016000m/h.</desc>
<speed>0.560000</speed>
</trkpt>
<trkpt lat="20.956152" lon="107.049751">
<ele>35.683136</ele>
<time>2011-04-30T10:23:15Z</time>
<desc>lat.=20.956152, lon.=107.049751, Alt.=35.683136m. Speed=4.896000m/h.</desc>
<speed>1.360000</speed>
</trkpt>
<trkpt lat="20.956263" lon="107.049789">
<ele>36.389191</ele>
<time>2011-04-30T10:23:20Z</time>
<desc>lat.=20.956263, lon.=107.049789, Alt.=36.389191m. Speed=5.400000m/h.</desc>
<speed>1.500000</speed>
</trkpt>
<trkpt lat="20.956314" lon="107.049812">
<ele>32.866730</ele>
<time>2011-04-30T10:23:25Z</time>
<desc>lat.=20.956314, lon.=107.049812, Alt.=32.866730m. Speed=2.916000m/h.</desc>
<speed>0.810000</speed>
</trkpt>
<trkpt lat="20.956379" lon="107.049805">
<ele>31.646255</ele>
<time>2011-04-30T10:23:30Z</time>
<desc>lat.=20.956379, lon.=107.049805, Alt.=31.646255m. Speed=5.868000m/h.</desc>
<speed>1.630000</speed>
</trkpt>
<trkpt lat="20.956446" lon="107.049812">
<ele>31.569595</ele>
<time>2011-04-30T10:23:35Z</time>
<desc>lat.=20.956446, lon.=107.049812, Alt.=31.569595m. Speed=5.616000m/h.</desc>
<speed>1.560000</speed>
</trkpt>
<trkpt lat="20.956507" lon="107.049850">
<ele>32.330597</ele>
<time>2011-04-30T10:23:40Z</time>
<desc>lat.=20.956507, lon.=107.049850, Alt.=32.330597m. Speed=5.760000m/h.</desc>
<speed>1.600000</speed>
</trkpt>
<trkpt lat="20.956587" lon="107.049873">
<ele>32.686066</ele>
<time>2011-04-30T10:23:45Z</time>
<desc>lat.=20.956587, lon.=107.049873, Alt.=32.686066m. Speed=6.336000m/h.</desc>
<speed>1.760000</speed>
</trkpt>
<trkpt lat="20.956656" lon="107.049896">
<ele>32.822784</ele>
<time>2011-04-30T10:23:50Z</time>
<desc>lat.=20.956656, lon.=107.049896, Alt.=32.822784m. Speed=5.688000m/h.</desc>
<speed>1.580000</speed>
</trkpt>
<trkpt lat="20.956734" lon="107.049904">
<ele>34.293488</ele>
<time>2011-04-30T10:23:55Z</time>
<desc>lat.=20.956734, lon.=107.049904, Alt.=34.293488m. Speed=5.364000m/h.</desc>
<speed>1.490000</speed>
</trkpt>
<trkpt lat="20.956791" lon="107.049919">
<ele>35.474152</ele>
<time>2011-04-30T10:24:00Z</time>
<desc>lat.=20.956791, lon.=107.049919, Alt.=35.474152m. Speed=2.988000m/h.</desc>
<speed>0.830000</speed>
</trkpt>
<trkpt lat="20.956861" lon="107.049957">
<ele>36.043488</ele>
<time>2011-04-30T10:24:05Z</time>
<desc>lat.=20.956861, lon.=107.049957, Alt.=36.043488m. Speed=2.556000m/h.</desc>
<speed>0.710000</speed>
</trkpt>
<trkpt lat="20.956913" lon="107.049942">
<ele>37.521027</ele>
<time>2011-04-30T10:24:10Z</time>
<desc>lat.=20.956913, lon.=107.049942, Alt.=37.521027m. Speed=5.040000m/h.</desc>
<speed>1.400000</speed>
</trkpt>
<trkpt lat="20.956964" lon="107.049957">
<ele>40.085480</ele>
<time>2011-04-30T10:24:15Z</time>
<desc>lat.=20.956964, lon.=107.049957, Alt.=40.085480m. Speed=4.536000m/h.</desc>
<speed>1.260000</speed>
</trkpt>
<trkpt lat="20.956985" lon="107.050003">
<ele>40.121613</ele>
<time>2011-04-30T10:24:20Z</time>
<desc>lat.=20.956985, lon.=107.050003, Alt.=40.121613m. Speed=3.780000m/h.</desc>
<speed>1.050000</speed>
</trkpt>
<trkpt lat="20.957026" lon="107.050049">
<ele>36.107941</ele>
<time>2011-04-30T10:24:25Z</time>
<desc>lat.=20.957026, lon.=107.050049, Alt.=36.107941m. Speed=2.520000m/h.</desc>
<speed>0.700000</speed>
</trkpt>
<trkpt lat="20.957056" lon="107.050095">
<ele>32.531769</ele>
<time>2011-04-30T10:24:30Z</time>
<desc>lat.=20.957056, lon.=107.050095, Alt.=32.531769m. Speed=2.016000m/h.</desc>
<speed>0.560000</speed>
</trkpt>
<trkpt lat="20.957098" lon="107.050133">
<ele>35.305206</ele>
<time>2011-04-30T10:24:35Z</time>
<desc>lat.=20.957098, lon.=107.050133, Alt.=35.305206m. Speed=2.628000m/h.</desc>
<speed>0.730000</speed>
</trkpt>
<trkpt lat="20.957108" lon="107.050171">
<ele>36.033722</ele>
<time>2011-04-30T10:24:40Z</time>
<desc>lat.=20.957108, lon.=107.050171, Alt.=36.033722m. Speed=2.376000m/h.</desc>
<speed>0.660000</speed>
</trkpt>
<trkpt lat="20.957104" lon="107.050209">
<ele>36.868683</ele>
<time>2011-04-30T10:24:45Z</time>
<desc>lat.=20.957104, lon.=107.050209, Alt.=36.868683m. Speed=1.692000m/h.</desc>
<speed>0.470000</speed>
</trkpt>
<trkpt lat="20.957134" lon="107.050278">
<ele>37.105011</ele>
<time>2011-04-30T10:24:50Z</time>
<desc>lat.=20.957134, lon.=107.050278, Alt.=37.105011m. Speed=1.620000m/h.</desc>
<speed>0.450000</speed>
</trkpt>
<trkpt lat="20.957155" lon="107.050339">
<ele>38.529816</ele>
<time>2011-04-30T10:24:55Z</time>
<desc>lat.=20.957155, lon.=107.050339, Alt.=38.529816m. Speed=0.864000m/h.</desc>
<speed>0.240000</speed>
</trkpt>
<trkpt lat="20.957157" lon="107.050354">
<ele>39.132355</ele>
<time>2011-04-30T10:25:00Z</time>
<desc>lat.=20.957157, lon.=107.050354, Alt.=39.132355m. Speed=0.252000m/h.</desc>
<speed>0.070000</speed>
</trkpt>
<trkpt lat="20.957151" lon="107.050392">
<ele>39.088409</ele>
<time>2011-04-30T10:25:05Z</time>
<desc>lat.=20.957151, lon.=107.050392, Alt.=39.088409m. Speed=2.304000m/h.</desc>
<speed>0.640000</speed>
</trkpt>
<trkpt lat="20.957140" lon="107.050468">
<ele>38.760284</ele>
<time>2011-04-30T10:25:10Z</time>
<desc>lat.=20.957140, lon.=107.050468, Alt.=38.760284m. Speed=3.420000m/h.</desc>
<speed>0.950000</speed>
</trkpt>
<trkpt lat="20.957130" lon="107.050522">
<ele>38.917511</ele>
<time>2011-04-30T10:25:15Z</time>
<desc>lat.=20.957130, lon.=107.050522, Alt.=38.917511m. Speed=3.744000m/h.</desc>
<speed>1.040000</speed>
</trkpt>
<trkpt lat="20.957142" lon="107.050560">
<ele>39.034698</ele>
<time>2011-04-30T10:25:20Z</time>
<desc>lat.=20.957142, lon.=107.050560, Alt.=39.034698m. Speed=2.196000m/h.</desc>
<speed>0.610000</speed>
</trkpt>
<trkpt lat="20.957136" lon="107.050598">
<ele>39.269073</ele>
<time>2011-04-30T10:25:25Z</time>
<desc>lat.=20.957136, lon.=107.050598, Alt.=39.269073m. Speed=3.204000m/h.</desc>
<speed>0.890000</speed>
</trkpt>
<trkpt lat="20.957142" lon="107.050652">
<ele>39.561066</ele>
<time>2011-04-30T10:25:30Z</time>
<desc>lat.=20.957142, lon.=107.050652, Alt.=39.561066m. Speed=3.780000m/h.</desc>
<speed>1.050000</speed>
</trkpt>
<trkpt lat="20.956970" lon="107.050583">
<ele>41.620636</ele>
<time>2011-04-30T10:25:47Z</time>
<desc>lat.=20.956970, lon.=107.050583, Alt.=41.620636m. Speed=0.324000m/h.</desc>
<speed>0.090000</speed>
</trkpt>
<trkpt lat="20.957008" lon="107.050705">
<ele>46.028839</ele>
<time>2011-04-30T10:25:52Z</time>
<desc>lat.=20.957008, lon.=107.050705, Alt.=46.028839m. Speed=1.908000m/h.</desc>
<speed>0.530000</speed>
</trkpt>
<trkpt lat="20.957262" lon="107.050552">
<ele>53.424347</ele>
<time>2011-04-30T10:25:57Z</time>
<desc>lat.=20.957262, lon.=107.050552, Alt.=53.424347m. Speed=1.728000m/h.</desc>
<speed>0.480000</speed>
</trkpt>
<trkpt lat="20.957394" lon="107.050369">
<ele>53.184113</ele>
<time>2011-04-30T10:26:02Z</time>
<desc>lat.=20.957394, lon.=107.050369, Alt.=53.184113m. Speed=1.332000m/h.</desc>
<speed>0.370000</speed>
</trkpt>
<trkpt lat="20.957405" lon="107.050362">
<ele>53.259308</ele>
<time>2011-04-30T10:26:07Z</time>
<desc>lat.=20.957405, lon.=107.050362, Alt.=53.259308m. Speed=0.504000m/h.</desc>
<speed>0.140000</speed>
</trkpt>
<trkpt lat="20.957403" lon="107.050377">
<ele>53.425323</ele>
<time>2011-04-30T10:26:12Z</time>
<desc>lat.=20.957403, lon.=107.050377, Alt.=53.425323m. Speed=2.052000m/h.</desc>
<speed>0.570000</speed>
</trkpt>
<trkpt lat="20.957403" lon="107.050407">
<ele>53.564972</ele>
<time>2011-04-30T10:26:17Z</time>
<desc>lat.=20.957403, lon.=107.050407, Alt.=53.564972m. Speed=2.412000m/h.</desc>
<speed>0.670000</speed>
</trkpt>
<trkpt lat="20.957390" lon="107.050476">
<ele>53.588409</ele>
<time>2011-04-30T10:26:22Z</time>
<desc>lat.=20.957390, lon.=107.050476, Alt.=53.588409m. Speed=3.564000m/h.</desc>
<speed>0.990000</speed>
</trkpt>
<trkpt lat="20.957352" lon="107.050522">
<ele>53.616730</ele>
<time>2011-04-30T10:26:27Z</time>
<desc>lat.=20.957352, lon.=107.050522, Alt.=53.616730m. Speed=3.564000m/h.</desc>
<speed>0.990000</speed>
</trkpt>
<trkpt lat="20.957317" lon="107.050537">
<ele>53.616730</ele>
<time>2011-04-30T10:26:32Z</time>
<desc>lat.=20.957317, lon.=107.050537, Alt.=53.616730m. Speed=2.952000m/h.</desc>
<speed>0.820000</speed>
</trkpt>
<trkpt lat="20.957296" lon="107.050537">
<ele>53.647003</ele>
<time>2011-04-30T10:26:37Z</time>
<desc>lat.=20.957296, lon.=107.050537, Alt.=53.647003m. Speed=1.800000m/h.</desc>
<speed>0.500000</speed>
</trkpt>
<trkpt lat="20.957306" lon="107.050514">
<ele>53.677277</ele>
<time>2011-04-30T10:26:42Z</time>
<desc>lat.=20.957306, lon.=107.050514, Alt.=53.677277m. Speed=1.296000m/h.</desc>
<speed>0.360000</speed>
</trkpt>
<trkpt lat="20.957302" lon="107.050514">
<ele>53.773956</ele>
<time>2011-04-30T10:26:47Z</time>
<desc>lat.=20.957302, lon.=107.050514, Alt.=53.773956m. Speed=0.576000m/h.</desc>
<speed>0.160000</speed>
</trkpt>
<trkpt lat="20.957302" lon="107.050514">
<ele>53.784698</ele>
<time>2011-04-30T10:26:52Z</time>
<desc>lat.=20.957302, lon.=107.050514, Alt.=53.784698m. Speed=0.180000m/h.</desc>
<speed>0.050000</speed>
</trkpt>
<trkpt lat="20.957302" lon="107.050514">
<ele>53.791534</ele>
<time>2011-04-30T10:26:57Z</time>
<desc>lat.=20.957302, lon.=107.050514, Alt.=53.791534m. Speed=0.180000m/h.</desc>
<speed>0.050000</speed>
</trkpt>
<trkpt lat="20.957304" lon="107.050491">
<ele>53.747589</ele>
<time>2011-04-30T10:27:02Z</time>
<desc>lat.=20.957304, lon.=107.050491, Alt.=53.747589m. Speed=1.404000m/h.</desc>
<speed>0.390000</speed>
</trkpt>
<trkpt lat="20.957340" lon="107.050407">
<ele>53.700714</ele>
<time>2011-04-30T10:27:07Z</time>
<desc>lat.=20.957340, lon.=107.050407, Alt.=53.700714m. Speed=1.728000m/h.</desc>
<speed>0.480000</speed>
</trkpt>
<trkpt lat="20.957348" lon="107.050385">
<ele>53.602081</ele>
<time>2011-04-30T10:27:12Z</time>
<desc>lat.=20.957348, lon.=107.050385, Alt.=53.602081m. Speed=1.584000m/h.</desc>
<speed>0.440000</speed>
</trkpt>
<trkpt lat="20.957359" lon="107.050385">
<ele>53.493683</ele>
<time>2011-04-30T10:27:17Z</time>
<desc>lat.=20.957359, lon.=107.050385, Alt.=53.493683m. Speed=0.864000m/h.</desc>
<speed>0.240000</speed>
</trkpt>
<trkpt lat="20.957371" lon="107.050346">
<ele>53.396027</ele>
<time>2011-04-30T10:27:22Z</time>
<desc>lat.=20.957371, lon.=107.050346, Alt.=53.396027m. Speed=1.296000m/h.</desc>
<speed>0.360000</speed>
</trkpt>
<trkpt lat="20.957373" lon="107.050346">
<ele>53.170441</ele>
<time>2011-04-30T10:27:27Z</time>
<desc>lat.=20.957373, lon.=107.050346, Alt.=53.170441m. Speed=0.936000m/h.</desc>
<speed>0.260000</speed>
</trkpt>
<trkpt lat="20.957396" lon="107.050301">
<ele>53.008331</ele>
<time>2011-04-30T10:27:32Z</time>
<desc>lat.=20.957396, lon.=107.050301, Alt.=53.008331m. Speed=0.900000m/h.</desc>
<speed>0.250000</speed>
</trkpt>
<trkpt lat="20.957392" lon="107.050301">
<ele>52.913605</ele>
<time>2011-04-30T10:27:37Z</time>
<desc>lat.=20.957392, lon.=107.050301, Alt.=52.913605m. Speed=0.000000m/h.</desc>
<speed>0.000000</speed>
</trkpt>
<trkpt lat="20.957396" lon="107.050301">
<ele>52.905792</ele>
<time>2011-04-30T10:27:42Z</time>
<desc>lat.=20.957396, lon.=107.050301, Alt.=52.905792m. Speed=0.864000m/h.</desc>
<speed>0.240000</speed>
</trkpt>
<trkpt lat="20.957426" lon="107.050278">
<ele>52.650909</ele>
<time>2011-04-30T10:27:47Z</time>
<desc>lat.=20.957426, lon.=107.050278, Alt.=52.650909m. Speed=1.692000m/h.</desc>
<speed>0.470000</speed>
</trkpt>
<trkpt lat="20.957439" lon="107.050270">
<ele>52.356964</ele>
<time>2011-04-30T10:27:52Z</time>
<desc>lat.=20.957439, lon.=107.050270, Alt.=52.356964m. Speed=1.260000m/h.</desc>
<speed>0.350000</speed>
</trkpt>
<trkpt lat="20.957457" lon="107.050255">
<ele>52.146027</ele>
<time>2011-04-30T10:27:57Z</time>
<desc>lat.=20.957457, lon.=107.050255, Alt.=52.146027m. Speed=1.008000m/h.</desc>
<speed>0.280000</speed>
</trkpt>
<trkpt lat="20.957474" lon="107.050247">
<ele>52.115753</ele>
<time>2011-04-30T10:28:02Z</time>
<desc>lat.=20.957474, lon.=107.050247, Alt.=52.115753m. Speed=1.440000m/h.</desc>
<speed>0.400000</speed>
</trkpt>
<trkpt lat="20.957481" lon="107.050240">
<ele>52.023956</ele>
<time>2011-04-30T10:28:07Z</time>
<desc>lat.=20.957481, lon.=107.050240, Alt.=52.023956m. Speed=1.548000m/h.</desc>
<speed>0.430000</speed>
</trkpt>
<trkpt lat="20.957455" lon="107.050270">
<ele>51.906769</ele>
<time>2011-04-30T10:28:12Z</time>
<desc>lat.=20.957455, lon.=107.050270, Alt.=51.906769m. Speed=0.252000m/h.</desc>
<speed>0.070000</speed>
</trkpt>
<trkpt lat="20.957453" lon="107.050270">
<ele>51.886261</ele>
<time>2011-04-30T10:28:17Z</time>
<desc>lat.=20.957453, lon.=107.050270, Alt.=51.886261m. Speed=1.224000m/h.</desc>
<speed>0.340000</speed>
</trkpt>
<trkpt lat="20.957428" lon="107.050301">
<ele>51.802277</ele>
<time>2011-04-30T10:28:22Z</time>
<desc>lat.=20.957428, lon.=107.050301, Alt.=51.802277m. Speed=0.936000m/h.</desc>
<speed>0.260000</speed>
</trkpt>
<trkpt lat="20.957405" lon="107.050323">
<ele>51.741730</ele>
<time>2011-04-30T10:28:27Z</time>
<desc>lat.=20.957405, lon.=107.050323, Alt.=51.741730m. Speed=1.548000m/h.</desc>
<speed>0.430000</speed>
</trkpt>
<trkpt lat="20.957394" lon="107.050377">
<ele>51.543488</ele>
<time>2011-04-30T10:28:32Z</time>
<desc>lat.=20.957394, lon.=107.050377, Alt.=51.543488m. Speed=1.404000m/h.</desc>
<speed>0.390000</speed>
</trkpt>
<trkpt lat="20.957405" lon="107.050407">
<ele>51.300323</ele>
<time>2011-04-30T10:28:37Z</time>
<desc>lat.=20.957405, lon.=107.050407, Alt.=51.300323m. Speed=1.476000m/h.</desc>
<speed>0.410000</speed>
</trkpt>
<trkpt lat="20.957426" lon="107.050446">
<ele>51.291534</ele>
<time>2011-04-30T10:28:42Z</time>
<desc>lat.=20.957426, lon.=107.050446, Alt.=51.291534m. Speed=0.900000m/h.</desc>
<speed>0.250000</speed>
</trkpt>
<trkpt lat="20.957418" lon="107.050491">
<ele>51.174347</ele>
<time>2011-04-30T10:28:47Z</time>
<desc>lat.=20.957418, lon.=107.050491, Alt.=51.174347m. Speed=1.476000m/h.</desc>
<speed>0.410000</speed>
</trkpt>
<trkpt lat="20.957415" lon="107.050507">
<ele>51.094269</ele>
<time>2011-04-30T10:28:52Z</time>
<desc>lat.=20.957415, lon.=107.050507, Alt.=51.094269m. Speed=0.936000m/h.</desc>
<speed>0.260000</speed>
</trkpt>
<trkpt lat="20.957397" lon="107.050499">
<ele>50.998566</ele>
<time>2011-04-30T10:28:57Z</time>
<desc>lat.=20.957397, lon.=107.050499, Alt.=50.998566m. Speed=0.432000m/h.</desc>
<speed>0.120000</speed>
</trkpt>
<trkpt lat="20.957396" lon="107.050499">
<ele>50.975128</ele>
<time>2011-04-30T10:29:02Z</time>
<desc>lat.=20.957396, lon.=107.050499, Alt.=50.975128m. Speed=0.540000m/h.</desc>
<speed>0.150000</speed>
</trkpt>
<trkpt lat="20.957403" lon="107.050461">
<ele>50.941925</ele>
<time>2011-04-30T10:29:07Z</time>
<desc>lat.=20.957403, lon.=107.050461, Alt.=50.941925m. Speed=1.692000m/h.</desc>
<speed>0.470000</speed>
</trkpt>
<trkpt lat="20.957407" lon="107.050415">
<ele>50.900909</ele>
<time>2011-04-30T10:29:12Z</time>
<desc>lat.=20.957407, lon.=107.050415, Alt.=50.900909m. Speed=1.512000m/h.</desc>
<speed>0.420000</speed>
</trkpt>
<trkpt lat="20.957420" lon="107.050392">
<ele>50.955597</ele>
<time>2011-04-30T10:29:17Z</time>
<desc>lat.=20.957420, lon.=107.050392, Alt.=50.955597m. Speed=0.504000m/h.</desc>
<speed>0.140000</speed>
</trkpt>
<trkpt lat="20.957430" lon="107.050369">
<ele>50.953644</ele>
<time>2011-04-30T10:29:22Z</time>
<desc>lat.=20.957430, lon.=107.050369, Alt.=50.953644m. Speed=0.972000m/h.</desc>
<speed>0.270000</speed>
</trkpt>
<trkpt lat="20.957434" lon="107.050346">
<ele>50.887238</ele>
<time>2011-04-30T10:29:27Z</time>
<desc>lat.=20.957434, lon.=107.050346, Alt.=50.887238m. Speed=1.044000m/h.</desc>
<speed>0.290000</speed>
</trkpt>
<trkpt lat="20.957430" lon="107.050339">
<ele>50.834503</ele>
<time>2011-04-30T10:29:32Z</time>
<desc>lat.=20.957430, lon.=107.050339, Alt.=50.834503m. Speed=0.612000m/h.</desc>
<speed>0.170000</speed>
</trkpt>
<trkpt lat="20.957422" lon="107.050339">
<ele>50.838409</ele>
<time>2011-04-30T10:29:37Z</time>
<desc>lat.=20.957422, lon.=107.050339, Alt.=50.838409m. Speed=0.936000m/h.</desc>
<speed>0.260000</speed>
</trkpt>
<trkpt lat="20.957409" lon="107.050331">
<ele>50.749542</ele>
<time>2011-04-30T10:29:42Z</time>
<desc>lat.=20.957409, lon.=107.050331, Alt.=50.749542m. Speed=1.224000m/h.</desc>
<speed>0.340000</speed>
</trkpt>
<trkpt lat="20.957415" lon="107.050323">
<ele>50.693878</ele>
<time>2011-04-30T10:29:47Z</time>
<desc>lat.=20.957415, lon.=107.050323, Alt.=50.693878m. Speed=0.216000m/h.</desc>
<speed>0.060000</speed>
</trkpt>
<trkpt lat="20.957415" lon="107.050316">
<ele>50.691925</ele>
<time>2011-04-30T10:29:52Z</time>
<desc>lat.=20.957415, lon.=107.050316, Alt.=50.691925m. Speed=0.432000m/h.</desc>
<speed>0.120000</speed>
</trkpt>
<trkpt lat="20.957430" lon="107.050316">
<ele>50.654816</ele>
<time>2011-04-30T10:29:57Z</time>
<desc>lat.=20.957430, lon.=107.050316, Alt.=50.654816m. Speed=1.260000m/h.</desc>
<speed>0.350000</speed>
</trkpt>
<trkpt lat="20.957464" lon="107.050316">
<ele>51.020050</ele>
<time>2011-04-30T10:30:02Z</time>
<desc>lat.=20.957464, lon.=107.050316, Alt.=51.020050m. Speed=1.080000m/h.</desc>
<speed>0.300000</speed>
</trkpt>
<trkpt lat="20.957508" lon="107.050323">
<ele>51.534698</ele>
<time>2011-04-30T10:30:07Z</time>
<desc>lat.=20.957508, lon.=107.050323, Alt.=51.534698m. Speed=1.620000m/h.</desc>
<speed>0.450000</speed>
</trkpt>
<trkpt lat="20.957527" lon="107.050323">
<ele>51.991730</ele>
<time>2011-04-30T10:30:12Z</time>
<desc>lat.=20.957527, lon.=107.050323, Alt.=51.991730m. Speed=0.936000m/h.</desc>
<speed>0.260000</speed>
</trkpt>
<trkpt lat="20.957531" lon="107.050339">
<ele>52.480011</ele>
<time>2011-04-30T10:30:17Z</time>
<desc>lat.=20.957531, lon.=107.050339, Alt.=52.480011m. Speed=0.864000m/h.</desc>
<speed>0.240000</speed>
</trkpt>
<trkpt lat="20.957510" lon="107.050354">
<ele>52.706573</ele>
<time>2011-04-30T10:30:22Z</time>
<desc>lat.=20.957510, lon.=107.050354, Alt.=52.706573m. Speed=1.152000m/h.</desc>
<speed>0.320000</speed>
</trkpt>
<trkpt lat="20.957491" lon="107.050354">
<ele>53.020050</ele>
<time>2011-04-30T10:30:27Z</time>
<desc>lat.=20.957491, lon.=107.050354, Alt.=53.020050m. Speed=0.576000m/h.</desc>
<speed>0.160000</speed>
</trkpt>
<trkpt lat="20.957478" lon="107.050346">
<ele>53.096222</ele>
<time>2011-04-30T10:30:32Z</time>
<desc>lat.=20.957478, lon.=107.050346, Alt.=53.096222m. Speed=0.504000m/h.</desc>
<speed>0.140000</speed>
</trkpt>
<trkpt lat="20.957472" lon="107.050339">
<ele>53.109894</ele>
<time>2011-04-30T10:30:37Z</time>
<desc>lat.=20.957472, lon.=107.050339, Alt.=53.109894m. Speed=0.648000m/h.</desc>
<speed>0.180000</speed>
</trkpt>
<trkpt lat="20.957458" lon="107.050331">
<ele>53.137238</ele>
<time>2011-04-30T10:30:42Z</time>
<desc>lat.=20.957458, lon.=107.050331, Alt.=53.137238m. Speed=0.972000m/h.</desc>
<speed>0.270000</speed>
</trkpt>
<trkpt lat="20.957443" lon="107.050323">
<ele>53.189972</ele>
<time>2011-04-30T10:30:47Z</time>
<desc>lat.=20.957443, lon.=107.050323, Alt.=53.189972m. Speed=1.116000m/h.</desc>
<speed>0.310000</speed>
</trkpt>
<trkpt lat="20.957436" lon="107.050301">
<ele>53.256378</ele>
<time>2011-04-30T10:30:52Z</time>
<desc>lat.=20.957436, lon.=107.050301, Alt.=53.256378m. Speed=0.756000m/h.</desc>
<speed>0.210000</speed>
</trkpt>
<trkpt lat="20.957426" lon="107.050308">
<ele>53.243683</ele>
<time>2011-04-30T10:30:57Z</time>
<desc>lat.=20.957426, lon.=107.050308, Alt.=53.243683m. Speed=0.360000m/h.</desc>
<speed>0.100000</speed>
</trkpt>
<trkpt lat="20.957417" lon="107.050308">
<ele>53.237823</ele>
<time>2011-04-30T10:31:02Z</time>
<desc>lat.=20.957417, lon.=107.050308, Alt.=53.237823m. Speed=1.188000m/h.</desc>
<speed>0.330000</speed>
</trkpt>
<trkpt lat="20.957411" lon="107.050316">
<ele>53.175323</ele>
<time>2011-04-30T10:31:07Z</time>
<desc>lat.=20.957411, lon.=107.050316, Alt.=53.175323m. Speed=0.540000m/h.</desc>
<speed>0.150000</speed>
</trkpt>
<trkpt lat="20.957397" lon="107.050308">
<ele>53.152863</ele>
<time>2011-04-30T10:31:12Z</time>
<desc>lat.=20.957397, lon.=107.050308, Alt.=53.152863m. Speed=1.440000m/h.</desc>
<speed>0.400000</speed>
</trkpt>
<trkpt lat="20.957378" lon="107.050323">
<ele>53.285675</ele>
<time>2011-04-30T10:31:17Z</time>
<desc>lat.=20.957378, lon.=107.050323, Alt.=53.285675m. Speed=1.764000m/h.</desc>
<speed>0.490000</speed>
</trkpt>
<trkpt lat="20.957384" lon="107.050301">
<ele>53.397980</ele>
<time>2011-04-30T10:31:22Z</time>
<desc>lat.=20.957384, lon.=107.050301, Alt.=53.397980m. Speed=0.612000m/h.</desc>
<speed>0.170000</speed>
</trkpt>
<trkpt lat="20.957384" lon="107.050301">
<ele>53.393097</ele>
<time>2011-04-30T10:31:27Z</time>
<desc>lat.=20.957384, lon.=107.050301, Alt.=53.393097m. Speed=0.900000m/h.</desc>
<speed>0.250000</speed>
</trkpt>
<trkpt lat="20.957378" lon="107.050308">
<ele>53.402863</ele>
<time>2011-04-30T10:31:32Z</time>
<desc>lat.=20.957378, lon.=107.050308, Alt.=53.402863m. Speed=1.296000m/h.</desc>
<speed>0.360000</speed>
</trkpt>
<trkpt lat="20.957371" lon="107.050346">
<ele>53.420441</ele>
<time>2011-04-30T10:31:37Z</time>
<desc>lat.=20.957371, lon.=107.050346, Alt.=53.420441m. Speed=1.692000m/h.</desc>
<speed>0.470000</speed>
</trkpt>
<trkpt lat="20.957369" lon="107.050369">
<ele>53.530792</ele>
<time>2011-04-30T10:31:42Z</time>
<desc>lat.=20.957369, lon.=107.050369, Alt.=53.530792m. Speed=1.116000m/h.</desc>
<speed>0.310000</speed>
</trkpt>
<trkpt lat="20.957382" lon="107.050415">
<ele>53.705597</ele>
<time>2011-04-30T10:31:47Z</time>
<desc>lat.=20.957382, lon.=107.050415, Alt.=53.705597m. Speed=1.368000m/h.</desc>
<speed>0.380000</speed>
</trkpt>
<trkpt lat="20.957380" lon="107.050423">
<ele>53.559113</ele>
<time>2011-04-30T10:31:52Z</time>
<desc>lat.=20.957380, lon.=107.050423, Alt.=53.559113m. Speed=0.792000m/h.</desc>
<speed>0.220000</speed>
</trkpt>
<trkpt lat="20.957376" lon="107.050438">
<ele>53.531769</ele>
<time>2011-04-30T10:31:57Z</time>
<desc>lat.=20.957376, lon.=107.050438, Alt.=53.531769m. Speed=1.512000m/h.</desc>
<speed>0.420000</speed>
</trkpt>
<trkpt lat="20.957397" lon="107.050461">
<ele>53.987823</ele>
<time>2011-04-30T10:32:02Z</time>
<desc>lat.=20.957397, lon.=107.050461, Alt.=53.987823m. Speed=1.116000m/h.</desc>
<speed>0.310000</speed>
</trkpt>
<trkpt lat="20.957420" lon="107.050461">
<ele>54.834503</ele>
<time>2011-04-30T10:32:07Z</time>
<desc>lat.=20.957420, lon.=107.050461, Alt.=54.834503m. Speed=1.080000m/h.</desc>
<speed>0.300000</speed>
</trkpt>
<trkpt lat="20.957420" lon="107.050468">
<ele>55.267120</ele>
<time>2011-04-30T10:32:12Z</time>
<desc>lat.=20.957420, lon.=107.050468, Alt.=55.267120m. Speed=0.288000m/h.</desc>
<speed>0.080000</speed>
</trkpt>
<trkpt lat="20.957420" lon="107.050476">
<ele>55.261261</ele>
<time>2011-04-30T10:32:17Z</time>
<desc>lat.=20.957420, lon.=107.050476, Alt.=55.261261m. Speed=0.216000m/h.</desc>
<speed>0.060000</speed>
</trkpt>
<trkpt lat="20.957418" lon="107.050468">
<ele>55.239777</ele>
<time>2011-04-30T10:32:22Z</time>
<desc>lat.=20.957418, lon.=107.050468, Alt.=55.239777m. Speed=0.972000m/h.</desc>
<speed>0.270000</speed>
</trkpt>
<trkpt lat="20.957428" lon="107.050461">
<ele>55.239777</ele>
<time>2011-04-30T10:32:27Z</time>
<desc>lat.=20.957428, lon.=107.050461, Alt.=55.239777m. Speed=0.504000m/h.</desc>
<speed>0.140000</speed>
</trkpt>
<trkpt lat="20.957426" lon="107.050461">
<ele>55.238800</ele>
<time>2011-04-30T10:32:32Z</time>
<desc>lat.=20.957426, lon.=107.050461, Alt.=55.238800m. Speed=0.828000m/h.</desc>
<speed>0.230000</speed>
</trkpt>
<trkpt lat="20.957411" lon="107.050438">
<ele>54.980011</ele>
<time>2011-04-30T10:32:37Z</time>
<desc>lat.=20.957411, lon.=107.050438, Alt.=54.980011m. Speed=1.620000m/h.</desc>
<speed>0.450000</speed>
</trkpt>
<trkpt lat="20.957401" lon="107.050446">
<ele>54.721222</ele>
<time>2011-04-30T10:32:42Z</time>
<desc>lat.=20.957401, lon.=107.050446, Alt.=54.721222m. Speed=0.720000m/h.</desc>
<speed>0.200000</speed>
</trkpt>
<trkpt lat="20.957411" lon="107.050423">
<ele>54.665558</ele>
<time>2011-04-30T10:32:47Z</time>
<desc>lat.=20.957411, lon.=107.050423, Alt.=54.665558m. Speed=0.900000m/h.</desc>
<speed>0.250000</speed>
</trkpt>
<trkpt lat="20.957407" lon="107.050446">
<ele>54.856964</ele>
<time>2011-04-30T10:32:52Z</time>
<desc>lat.=20.957407, lon.=107.050446, Alt.=54.856964m. Speed=1.440000m/h.</desc>
<speed>0.400000</speed>
</trkpt>
<trkpt lat="20.957409" lon="107.050446">
<ele>54.791534</ele>
<time>2011-04-30T10:32:57Z</time>
<desc>lat.=20.957409, lon.=107.050446, Alt.=54.791534m. Speed=0.900000m/h.</desc>
<speed>0.250000</speed>
</trkpt>
<trkpt lat="20.957403" lon="107.050438">
<ele>54.835480</ele>
<time>2011-04-30T10:33:02Z</time>
<desc>lat.=20.957403, lon.=107.050438, Alt.=54.835480m. Speed=0.504000m/h.</desc>
<speed>0.140000</speed>
</trkpt>
<trkpt lat="20.957457" lon="107.050453">
<ele>54.951691</ele>
<time>2011-04-30T10:33:07Z</time>
<desc>lat.=20.957457, lon.=107.050453, Alt.=54.951691m. Speed=3.960000m/h.</desc>
<speed>1.100000</speed>
</trkpt>
<trkpt lat="20.957476" lon="107.050484">
<ele>55.166534</ele>
<time>2011-04-30T10:33:12Z</time>
<desc>lat.=20.957476, lon.=107.050484, Alt.=55.166534m. Speed=3.492000m/h.</desc>
<speed>0.970000</speed>
</trkpt>
<trkpt lat="20.957504" lon="107.050491">
<ele>55.480988</ele>
<time>2011-04-30T10:33:17Z</time>
<desc>lat.=20.957504, lon.=107.050491, Alt.=55.480988m. Speed=2.340000m/h.</desc>
<speed>0.650000</speed>
</trkpt>
<trkpt lat="20.957495" lon="107.050484">
<ele>55.634308</ele>
<time>2011-04-30T10:33:22Z</time>
<desc>lat.=20.957495, lon.=107.050484, Alt.=55.634308m. Speed=0.936000m/h.</desc>
<speed>0.260000</speed>
</trkpt>
<trkpt lat="20.957497" lon="107.050468">
<ele>55.782745</ele>
<time>2011-04-30T10:33:27Z</time>
<desc>lat.=20.957497, lon.=107.050468, Alt.=55.782745m. Speed=0.432000m/h.</desc>
<speed>0.120000</speed>
</trkpt>
<trkpt lat="20.957495" lon="107.050468">
<ele>55.806183</ele>
<time>2011-04-30T10:33:32Z</time>
<desc>lat.=20.957495, lon.=107.050468, Alt.=55.806183m. Speed=0.216000m/h.</desc>
<speed>0.060000</speed>
</trkpt>
<trkpt lat="20.957489" lon="107.050476">
<ele>55.835480</ele>
<time>2011-04-30T10:33:37Z</time>
<desc>lat.=20.957489, lon.=107.050476, Alt.=55.835480m. Speed=0.972000m/h.</desc>
<speed>0.270000</speed>
</trkpt>
<trkpt lat="20.957485" lon="107.050476">
<ele>55.867706</ele>
<time>2011-04-30T10:33:42Z</time>
<desc>lat.=20.957485, lon.=107.050476, Alt.=55.867706m. Speed=0.144000m/h.</desc>
<speed>0.040000</speed>
</trkpt>
<trkpt lat="20.957489" lon="107.050453">
<ele>55.851105</ele>
<time>2011-04-30T10:33:47Z</time>
<desc>lat.=20.957489, lon.=107.050453, Alt.=55.851105m. Speed=1.260000m/h.</desc>
<speed>0.350000</speed>
</trkpt>
<trkpt lat="20.957483" lon="107.050415">
<ele>55.490753</ele>
<time>2011-04-30T10:33:52Z</time>
<desc>lat.=20.957483, lon.=107.050415, Alt.=55.490753m. Speed=0.540000m/h.</desc>
<speed>0.150000</speed>
</trkpt>
<trkpt lat="20.957499" lon="107.050407">
<ele>54.971222</ele>
<time>2011-04-30T10:33:57Z</time>
<desc>lat.=20.957499, lon.=107.050407, Alt.=54.971222m. Speed=0.720000m/h.</desc>
<speed>0.200000</speed>
</trkpt>
<trkpt lat="20.957539" lon="107.050385">
<ele>53.802277</ele>
<time>2011-04-30T10:34:02Z</time>
<desc>lat.=20.957539, lon.=107.050385, Alt.=53.802277m. Speed=1.332000m/h.</desc>
<speed>0.370000</speed>
</trkpt>
<trkpt lat="20.957546" lon="107.050415">
<ele>52.774933</ele>
<time>2011-04-30T10:34:07Z</time>
<desc>lat.=20.957546, lon.=107.050415, Alt.=52.774933m. Speed=2.196000m/h.</desc>
<speed>0.610000</speed>
</trkpt>
<trkpt lat="20.957546" lon="107.050407">
<ele>51.986847</ele>
<time>2011-04-30T10:34:12Z</time>
<desc>lat.=20.957546, lon.=107.050407, Alt.=51.986847m. Speed=1.368000m/h.</desc>
<speed>0.380000</speed>
</trkpt>
<trkpt lat="20.957542" lon="107.050407">
<ele>51.633331</ele>
<time>2011-04-30T10:34:17Z</time>
<desc>lat.=20.957542, lon.=107.050407, Alt.=51.633331m. Speed=0.504000m/h.</desc>
<speed>0.140000</speed>
</trkpt>
<trkpt lat="20.957542" lon="107.050415">
<ele>51.661652</ele>
<time>2011-04-30T10:34:22Z</time>
<desc>lat.=20.957542, lon.=107.050415, Alt.=51.661652m. Speed=0.684000m/h.</desc>
<speed>0.190000</speed>
</trkpt>
<trkpt lat="20.957542" lon="107.050423">
<ele>51.691925</ele>
<time>2011-04-30T10:34:27Z</time>
<desc>lat.=20.957542, lon.=107.050423, Alt.=51.691925m. Speed=0.900000m/h.</desc>
<speed>0.250000</speed>
</trkpt>
<trkpt lat="20.957537" lon="107.050430">
<ele>51.688019</ele>
<time>2011-04-30T10:34:32Z</time>
<desc>lat.=20.957537, lon.=107.050430, Alt.=51.688019m. Speed=0.900000m/h.</desc>
<speed>0.250000</speed>
</trkpt>
<trkpt lat="20.957525" lon="107.050446">
<ele>51.400909</ele>
<time>2011-04-30T10:34:37Z</time>
<desc>lat.=20.957525, lon.=107.050446, Alt.=51.400909m. Speed=1.692000m/h.</desc>
<speed>0.470000</speed>
</trkpt>
<trkpt lat="20.957527" lon="107.050430">
<ele>50.832550</ele>
<time>2011-04-30T10:34:42Z</time>
<desc>lat.=20.957527, lon.=107.050430, Alt.=50.832550m. Speed=0.252000m/h.</desc>
<speed>0.070000</speed>
</trkpt>
<trkpt lat="20.957523" lon="107.050423">
<ele>50.807159</ele>
<time>2011-04-30T10:34:47Z</time>
<desc>lat.=20.957523, lon.=107.050423, Alt.=50.807159m. Speed=0.900000m/h.</desc>
<speed>0.250000</speed>
</trkpt>
<trkpt lat="20.957500" lon="107.050377">
<ele>49.998566</ele>
<time>2011-04-30T10:34:52Z</time>
<desc>lat.=20.957500, lon.=107.050377, Alt.=49.998566m. Speed=1.224000m/h.</desc>
<speed>0.340000</speed>
</trkpt>
<trkpt lat="20.957504" lon="107.050323">
<ele>48.676300</ele>
<time>2011-04-30T10:34:57Z</time>
<desc>lat.=20.957504, lon.=107.050323, Alt.=48.676300m. Speed=1.116000m/h.</desc>
<speed>0.310000</speed>
</trkpt>
<trkpt lat="20.957512" lon="107.050293">
<ele>47.597198</ele>
<time>2011-04-30T10:35:02Z</time>
<desc>lat.=20.957512, lon.=107.050293, Alt.=47.597198m. Speed=0.360000m/h.</desc>
<speed>0.100000</speed>
</trkpt>
<trkpt lat="20.957500" lon="107.050270">
<ele>46.346222</ele>
<time>2011-04-30T10:35:07Z</time>
<desc>lat.=20.957500, lon.=107.050270, Alt.=46.346222m. Speed=0.864000m/h.</desc>
<speed>0.240000</speed>
</trkpt>
<trkpt lat="20.957506" lon="107.050278">
<ele>45.148956</ele>
<time>2011-04-30T10:35:12Z</time>
<desc>lat.=20.957506, lon.=107.050278, Alt.=45.148956m. Speed=1.188000m/h.</desc>
<speed>0.330000</speed>
</trkpt>
<trkpt lat="20.957491" lon="107.050293">
<ele>45.123566</ele>
<time>2011-04-30T10:35:17Z</time>
<desc>lat.=20.957491, lon.=107.050293, Alt.=45.123566m. Speed=0.540000m/h.</desc>
<speed>0.150000</speed>
</trkpt>
<trkpt lat="20.957485" lon="107.050285">
<ele>45.127472</ele>
<time>2011-04-30T10:35:22Z</time>
<desc>lat.=20.957485, lon.=107.050285, Alt.=45.127472m. Speed=0.396000m/h.</desc>
<speed>0.110000</speed>
</trkpt>
<trkpt lat="20.957481" lon="107.050293">
<ele>45.131378</ele>
<time>2011-04-30T10:35:27Z</time>
<desc>lat.=20.957481, lon.=107.050293, Alt.=45.131378m. Speed=0.756000m/h.</desc>
<speed>0.210000</speed>
</trkpt>
<trkpt lat="20.957472" lon="107.050293">
<ele>45.159698</ele>
<time>2011-04-30T10:35:32Z</time>
<desc>lat.=20.957472, lon.=107.050293, Alt.=45.159698m. Speed=0.468000m/h.</desc>
<speed>0.130000</speed>
</trkpt>
<trkpt lat="20.957472" lon="107.050293">
<ele>45.187042</ele>
<time>2011-04-30T10:35:37Z</time>
<desc>lat.=20.957472, lon.=107.050293, Alt.=45.187042m. Speed=0.144000m/h.</desc>
<speed>0.040000</speed>
</trkpt>
<trkpt lat="20.957472" lon="107.050301">
<ele>45.227081</ele>
<time>2011-04-30T10:35:42Z</time>
<desc>lat.=20.957472, lon.=107.050301, Alt.=45.227081m. Speed=0.144000m/h.</desc>
<speed>0.040000</speed>
</trkpt>
<trkpt lat="20.957472" lon="107.050301">
<ele>45.249542</ele>
<time>2011-04-30T10:35:47Z</time>
<desc>lat.=20.957472, lon.=107.050301, Alt.=45.249542m. Speed=0.900000m/h.</desc>
<speed>0.250000</speed>
</trkpt>
<trkpt lat="20.957468" lon="107.050323">
<ele>45.796417</ele>
<time>2011-04-30T10:35:52Z</time>
<desc>lat.=20.957468, lon.=107.050323, Alt.=45.796417m. Speed=1.512000m/h.</desc>
<speed>0.420000</speed>
</trkpt>
<trkpt lat="20.957455" lon="107.050346">
<ele>46.358917</ele>
<time>2011-04-30T10:35:57Z</time>
<desc>lat.=20.957455, lon.=107.050346, Alt.=46.358917m. Speed=1.260000m/h.</desc>
<speed>0.350000</speed>
</trkpt>
<trkpt lat="20.957451" lon="107.050362">
<ele>46.348175</ele>
<time>2011-04-30T10:36:02Z</time>
<desc>lat.=20.957451, lon.=107.050362, Alt.=46.348175m. Speed=1.044000m/h.</desc>
<speed>0.290000</speed>
</trkpt>
<trkpt lat="20.957438" lon="107.050346">
<ele>46.397980</ele>
<time>2011-04-30T10:36:07Z</time>
<desc>lat.=20.957438, lon.=107.050346, Alt.=46.397980m. Speed=0.036000m/h.</desc>
<speed>0.010000</speed>
</trkpt>
<trkpt lat="20.957436" lon="107.050346">
<ele>46.407745</ele>
<time>2011-04-30T10:36:12Z</time>
<desc>lat.=20.957436, lon.=107.050346, Alt.=46.407745m. Speed=0.504000m/h.</desc>
<speed>0.140000</speed>
</trkpt>
<trkpt lat="20.957441" lon="107.050346">
<ele>46.398956</ele>
<time>2011-04-30T10:36:17Z</time>
<desc>lat.=20.957441, lon.=107.050346, Alt.=46.398956m. Speed=1.044000m/h.</desc>
<speed>0.290000</speed>
</trkpt>
<trkpt lat="20.957439" lon="107.050362">
<ele>47.145050</ele>
<time>2011-04-30T10:36:22Z</time>
<desc>lat.=20.957439, lon.=107.050362, Alt.=47.145050m. Speed=1.080000m/h.</desc>
<speed>0.300000</speed>
</trkpt>
<trkpt lat="20.957443" lon="107.050400">
<ele>47.978058</ele>
<time>2011-04-30T10:36:27Z</time>
<desc>lat.=20.957443, lon.=107.050400, Alt.=47.978058m. Speed=1.008000m/h.</desc>
<speed>0.280000</speed>
</trkpt>
<trkpt lat="20.957462" lon="107.050423">
<ele>48.619659</ele>
<time>2011-04-30T10:36:32Z</time>
<desc>lat.=20.957462, lon.=107.050423, Alt.=48.619659m. Speed=0.936000m/h.</desc>
<speed>0.260000</speed>
</trkpt>
<trkpt lat="20.957460" lon="107.050423">
<ele>49.327667</ele>
<time>2011-04-30T10:36:37Z</time>
<desc>lat.=20.957460, lon.=107.050423, Alt.=49.327667m. Speed=0.000000m/h.</desc>
<speed>0.000000</speed>
</trkpt>
<trkpt lat="20.957468" lon="107.050407">
<ele>49.913605</ele>
<time>2011-04-30T10:36:42Z</time>
<desc>lat.=20.957468, lon.=107.050407, Alt.=49.913605m. Speed=1.224000m/h.</desc>
<speed>0.340000</speed>
</trkpt>
<trkpt lat="20.957460" lon="107.050392">
<ele>51.254425</ele>
<time>2011-04-30T10:36:47Z</time>
<desc>lat.=20.957460, lon.=107.050392, Alt.=51.254425m. Speed=1.116000m/h.</desc>
<speed>0.310000</speed>
</trkpt>
<trkpt lat="20.957462" lon="107.050385">
<ele>52.323761</ele>
<time>2011-04-30T10:36:52Z</time>
<desc>lat.=20.957462, lon.=107.050385, Alt.=52.323761m. Speed=0.828000m/h.</desc>
<speed>0.230000</speed>
</trkpt>
<trkpt lat="20.957460" lon="107.050385">
<ele>52.528839</ele>
<time>2011-04-30T10:36:57Z</time>
<desc>lat.=20.957460, lon.=107.050385, Alt.=52.528839m. Speed=0.612000m/h.</desc>
<speed>0.170000</speed>
</trkpt>
<trkpt lat="20.957464" lon="107.050377">
<ele>52.576691</ele>
<time>2011-04-30T10:37:02Z</time>
<desc>lat.=20.957464, lon.=107.050377, Alt.=52.576691m. Speed=0.648000m/h.</desc>
<speed>0.180000</speed>
</trkpt>
<trkpt lat="20.957462" lon="107.050369">
<ele>52.642120</ele>
<time>2011-04-30T10:37:07Z</time>
<desc>lat.=20.957462, lon.=107.050369, Alt.=52.642120m. Speed=0.324000m/h.</desc>
<speed>0.090000</speed>
</trkpt>
<trkpt lat="20.957460" lon="107.050362">
<ele>52.701691</ele>
<time>2011-04-30T10:37:12Z</time>
<desc>lat.=20.957460, lon.=107.050362, Alt.=52.701691m. Speed=0.360000m/h.</desc>
<speed>0.100000</speed>
</trkpt>
<trkpt lat="20.957462" lon="107.050362">
<ele>52.751495</ele>
<time>2011-04-30T10:37:17Z</time>
<desc>lat.=20.957462, lon.=107.050362, Alt.=52.751495m. Speed=0.360000m/h.</desc>
<speed>0.100000</speed>
</trkpt>
<trkpt lat="20.957460" lon="107.050362">
<ele>52.763214</ele>
<time>2011-04-30T10:37:22Z</time>
<desc>lat.=20.957460, lon.=107.050362, Alt.=52.763214m. Speed=0.612000m/h.</desc>
<speed>0.170000</speed>
</trkpt>
<trkpt lat="20.957458" lon="107.050369">
<ele>52.760284</ele>
<time>2011-04-30T10:37:27Z</time>
<desc>lat.=20.957458, lon.=107.050369, Alt.=52.760284m. Speed=1.080000m/h.</desc>
<speed>0.300000</speed>
</trkpt>
<trkpt lat="20.957483" lon="107.050346">
<ele>52.152863</ele>
<time>2011-04-30T10:37:32Z</time>
<desc>lat.=20.957483, lon.=107.050346, Alt.=52.152863m. Speed=0.216000m/h.</desc>
<speed>0.060000</speed>
</trkpt>
<trkpt lat="20.957485" lon="107.050346">
<ele>52.100128</ele>
<time>2011-04-30T10:37:37Z</time>
<desc>lat.=20.957485, lon.=107.050346, Alt.=52.100128m. Speed=0.288000m/h.</desc>
<speed>0.080000</speed>
</trkpt>
<trkpt lat="20.957483" lon="107.050346">
<ele>52.047394</ele>
<time>2011-04-30T10:37:42Z</time>
<desc>lat.=20.957483, lon.=107.050346, Alt.=52.047394m. Speed=1.152000m/h.</desc>
<speed>0.320000</speed>
</trkpt>
<trkpt lat="20.957478" lon="107.050362">
<ele>53.029816</ele>
<time>2011-04-30T10:37:47Z</time>
<desc>lat.=20.957478, lon.=107.050362, Alt.=53.029816m. Speed=0.360000m/h.</desc>
<speed>0.100000</speed>
</trkpt>
<trkpt lat="20.957491" lon="107.050362">
<ele>53.506378</ele>
<time>2011-04-30T10:37:52Z</time>
<desc>lat.=20.957491, lon.=107.050362, Alt.=53.506378m. Speed=0.252000m/h.</desc>
<speed>0.070000</speed>
</trkpt>
<trkpt lat="20.957495" lon="107.050362">
<ele>53.535675</ele>
<time>2011-04-30T10:37:57Z</time>
<desc>lat.=20.957495, lon.=107.050362, Alt.=53.535675m. Speed=0.792000m/h.</desc>
<speed>0.220000</speed>
</trkpt>
<trkpt lat="20.957502" lon="107.050354">
<ele>53.610870</ele>
<time>2011-04-30T10:38:02Z</time>
<desc>lat.=20.957502, lon.=107.050354, Alt.=53.610870m. Speed=0.468000m/h.</desc>
<speed>0.130000</speed>
</trkpt>
<trkpt lat="20.957493" lon="107.050354">
<ele>53.515167</ele>
<time>2011-04-30T10:38:07Z</time>
<desc>lat.=20.957493, lon.=107.050354, Alt.=53.515167m. Speed=0.612000m/h.</desc>
<speed>0.170000</speed>
</trkpt>
<trkpt lat="20.957491" lon="107.050346">
<ele>53.509308</ele>
<time>2011-04-30T10:38:12Z</time>
<desc>lat.=20.957491, lon.=107.050346, Alt.=53.509308m. Speed=0.360000m/h.</desc>
<speed>0.100000</speed>
</trkpt>
<trkpt lat="20.957476" lon="107.050369">
<ele>53.574738</ele>
<time>2011-04-30T10:38:17Z</time>
<desc>lat.=20.957476, lon.=107.050369, Alt.=53.574738m. Speed=1.692000m/h.</desc>
<speed>0.470000</speed>
</trkpt>
<trkpt lat="20.957457" lon="107.050430">
<ele>52.631378</ele>
<time>2011-04-30T10:38:22Z</time>
<desc>lat.=20.957457, lon.=107.050430, Alt.=52.631378m. Speed=1.980000m/h.</desc>
<speed>0.550000</speed>
</trkpt>
<trkpt lat="20.957443" lon="107.050468">
<ele>52.209503</ele>
<time>2011-04-30T10:38:27Z</time>
<desc>lat.=20.957443, lon.=107.050468, Alt.=52.209503m. Speed=1.476000m/h.</desc>
<speed>0.410000</speed>
</trkpt>
<trkpt lat="20.957447" lon="107.050484">
<ele>51.417511</ele>
<time>2011-04-30T10:38:32Z</time>
<desc>lat.=20.957447, lon.=107.050484, Alt.=51.417511m. Speed=0.036000m/h.</desc>
<speed>0.010000</speed>
</trkpt>
<trkpt lat="20.957455" lon="107.050468">
<ele>51.293488</ele>
<time>2011-04-30T10:38:37Z</time>
<desc>lat.=20.957455, lon.=107.050468, Alt.=51.293488m. Speed=1.512000m/h.</desc>
<speed>0.420000</speed>
</trkpt>
<trkpt lat="20.957458" lon="107.050453">
<ele>50.735870</ele>
<time>2011-04-30T10:38:42Z</time>
<desc>lat.=20.957458, lon.=107.050453, Alt.=50.735870m. Speed=0.396000m/h.</desc>
<speed>0.110000</speed>
</trkpt>
<trkpt lat="20.957460" lon="107.050446">
<ele>50.715363</ele>
<time>2011-04-30T10:38:47Z</time>
<desc>lat.=20.957460, lon.=107.050446, Alt.=50.715363m. Speed=0.864000m/h.</desc>
<speed>0.240000</speed>
</trkpt>
<trkpt lat="20.957466" lon="107.050438">
<ele>50.715363</ele>
<time>2011-04-30T10:38:52Z</time>
<desc>lat.=20.957466, lon.=107.050438, Alt.=50.715363m. Speed=0.612000m/h.</desc>
<speed>0.170000</speed>
</trkpt>
<trkpt lat="20.957479" lon="107.050400">
<ele>50.767120</ele>
<time>2011-04-30T10:38:57Z</time>
<desc>lat.=20.957479, lon.=107.050400, Alt.=50.767120m. Speed=1.368000m/h.</desc>
<speed>0.380000</speed>
</trkpt>
<trkpt lat="20.957491" lon="107.050354">
<ele>50.939972</ele>
<time>2011-04-30T10:39:02Z</time>
<desc>lat.=20.957491, lon.=107.050354, Alt.=50.939972m. Speed=1.044000m/h.</desc>
<speed>0.290000</speed>
</trkpt>
<trkpt lat="20.957493" lon="107.050308">
<ele>51.448761</ele>
<time>2011-04-30T10:39:07Z</time>
<desc>lat.=20.957493, lon.=107.050308, Alt.=51.448761m. Speed=0.468000m/h.</desc>
<speed>0.130000</speed>
</trkpt>
<trkpt lat="20.957493" lon="107.050301">
<ele>51.362823</ele>
<time>2011-04-30T10:39:12Z</time>
<desc>lat.=20.957493, lon.=107.050301, Alt.=51.362823m. Speed=0.720000m/h.</desc>
<speed>0.200000</speed>
</trkpt>
<trkpt lat="20.957500" lon="107.050293">
<ele>51.309113</ele>
<time>2011-04-30T10:39:17Z</time>
<desc>lat.=20.957500, lon.=107.050293, Alt.=51.309113m. Speed=0.540000m/h.</desc>
<speed>0.150000</speed>
</trkpt>
<trkpt lat="20.957497" lon="107.050285">
<ele>51.265167</ele>
<time>2011-04-30T10:39:22Z</time>
<desc>lat.=20.957497, lon.=107.050285, Alt.=51.265167m. Speed=0.432000m/h.</desc>
<speed>0.120000</speed>
</trkpt>
<trkpt lat="20.957491" lon="107.050285">
<ele>51.222198</ele>
<time>2011-04-30T10:39:27Z</time>
<desc>lat.=20.957491, lon.=107.050285, Alt.=51.222198m. Speed=0.792000m/h.</desc>
<speed>0.220000</speed>
</trkpt>
<trkpt lat="20.957487" lon="107.050285">
<ele>51.213409</ele>
<time>2011-04-30T10:39:32Z</time>
<desc>lat.=20.957487, lon.=107.050285, Alt.=51.213409m. Speed=0.576000m/h.</desc>
<speed>0.160000</speed>
</trkpt>
<trkpt lat="20.957485" lon="107.050293">
<ele>51.224152</ele>
<time>2011-04-30T10:39:37Z</time>
<desc>lat.=20.957485, lon.=107.050293, Alt.=51.224152m. Speed=0.216000m/h.</desc>
<speed>0.060000</speed>
</trkpt>
<trkpt lat="20.957489" lon="107.050301">
<ele>51.239777</ele>
<time>2011-04-30T10:39:42Z</time>
<desc>lat.=20.957489, lon.=107.050301, Alt.=51.239777m. Speed=1.152000m/h.</desc>
<speed>0.320000</speed>
</trkpt>
<trkpt lat="20.957485" lon="107.050293">
<ele>50.897003</ele>
<time>2011-04-30T10:39:47Z</time>
<desc>lat.=20.957485, lon.=107.050293, Alt.=50.897003m. Speed=0.324000m/h.</desc>
<speed>0.090000</speed>
</trkpt>
<trkpt lat="20.957479" lon="107.050293">
<ele>50.912628</ele>
<time>2011-04-30T10:39:52Z</time>
<desc>lat.=20.957479, lon.=107.050293, Alt.=50.912628m. Speed=0.108000m/h.</desc>
<speed>0.030000</speed>
</trkpt>
<trkpt lat="20.957479" lon="107.050293">
<ele>50.871613</ele>
<time>2011-04-30T10:39:57Z</time>
<desc>lat.=20.957479, lon.=107.050293, Alt.=50.871613m. Speed=0.360000m/h.</desc>
<speed>0.100000</speed>
</trkpt>
<trkpt lat="20.957481" lon="107.050293">
<ele>50.815948</ele>
<time>2011-04-30T10:40:02Z</time>
<desc>lat.=20.957481, lon.=107.050293, Alt.=50.815948m. Speed=0.360000m/h.</desc>
<speed>0.100000</speed>
</trkpt>
<trkpt lat="20.957481" lon="107.050293">
<ele>50.822784</ele>
<time>2011-04-30T10:40:07Z</time>
<desc>lat.=20.957481, lon.=107.050293, Alt.=50.822784m. Speed=0.324000m/h.</desc>
<speed>0.090000</speed>
</trkpt>
<trkpt lat="20.957478" lon="107.050293">
<ele>50.841339</ele>
<time>2011-04-30T10:40:12Z</time>
<desc>lat.=20.957478, lon.=107.050293, Alt.=50.841339m. Speed=0.144000m/h.</desc>
<speed>0.040000</speed>
</trkpt>
<trkpt lat="20.957479" lon="107.050293">
<ele>50.867706</ele>
<time>2011-04-30T10:40:17Z</time>
<desc>lat.=20.957479, lon.=107.050293, Alt.=50.867706m. Speed=0.288000m/h.</desc>
<speed>0.080000</speed>
</trkpt>
<trkpt lat="20.957481" lon="107.050301">
<ele>50.854034</ele>
<time>2011-04-30T10:40:22Z</time>
<desc>lat.=20.957481, lon.=107.050301, Alt.=50.854034m. Speed=0.216000m/h.</desc>
<speed>0.060000</speed>
</trkpt>
<trkpt lat="20.957481" lon="107.050308">
<ele>50.832550</ele>
<time>2011-04-30T10:40:27Z</time>
<desc>lat.=20.957481, lon.=107.050308, Alt.=50.832550m. Speed=0.648000m/h.</desc>
<speed>0.180000</speed>
</trkpt>
<trkpt lat="20.957481" lon="107.050331">
<ele>51.127472</ele>
<time>2011-04-30T10:40:32Z</time>
<desc>lat.=20.957481, lon.=107.050331, Alt.=51.127472m. Speed=0.900000m/h.</desc>
<speed>0.250000</speed>
</trkpt>
<trkpt lat="20.957478" lon="107.050354">
<ele>51.413605</ele>
<time>2011-04-30T10:40:37Z</time>
<desc>lat.=20.957478, lon.=107.050354, Alt.=51.413605m. Speed=0.252000m/h.</desc>
<speed>0.070000</speed>
</trkpt>
<trkpt lat="20.957478" lon="107.050354">
<ele>51.567902</ele>
<time>2011-04-30T10:40:42Z</time>
<desc>lat.=20.957478, lon.=107.050354, Alt.=51.567902m. Speed=0.648000m/h.</desc>
<speed>0.180000</speed>
</trkpt>
<trkpt lat="20.957479" lon="107.050362">
<ele>51.606964</ele>
<time>2011-04-30T10:40:47Z</time>
<desc>lat.=20.957479, lon.=107.050362, Alt.=51.606964m. Speed=0.360000m/h.</desc>
<speed>0.100000</speed>
</trkpt>
<trkpt lat="20.957479" lon="107.050362">
<ele>51.641144</ele>
<time>2011-04-30T10:40:52Z</time>
<desc>lat.=20.957479, lon.=107.050362, Alt.=51.641144m. Speed=0.216000m/h.</desc>
<speed>0.060000</speed>
</trkpt>
<trkpt lat="20.957479" lon="107.050362">
<ele>51.688019</ele>
<time>2011-04-30T10:40:57Z</time>
<desc>lat.=20.957479, lon.=107.050362, Alt.=51.688019m. Speed=0.288000m/h.</desc>
<speed>0.080000</speed>
</trkpt>
<trkpt lat="20.957474" lon="107.050362">
<ele>51.726105</ele>
<time>2011-04-30T10:41:02Z</time>
<desc>lat.=20.957474, lon.=107.050362, Alt.=51.726105m. Speed=0.324000m/h.</desc>
<speed>0.090000</speed>
</trkpt>
<trkpt lat="20.957478" lon="107.050362">
<ele>51.748566</ele>
<time>2011-04-30T10:41:07Z</time>
<desc>lat.=20.957478, lon.=107.050362, Alt.=51.748566m. Speed=0.828000m/h.</desc>
<speed>0.230000</speed>
</trkpt>
<trkpt lat="20.957483" lon="107.050377">
<ele>51.767120</ele>
<time>2011-04-30T10:41:12Z</time>
<desc>lat.=20.957483, lon.=107.050377, Alt.=51.767120m. Speed=0.756000m/h.</desc>
<speed>0.210000</speed>
</trkpt>
<trkpt lat="20.957487" lon="107.050385">
<ele>51.815948</ele>
<time>2011-04-30T10:41:17Z</time>
<desc>lat.=20.957487, lon.=107.050385, Alt.=51.815948m. Speed=0.648000m/h.</desc>
<speed>0.180000</speed>
</trkpt>
<trkpt lat="20.957487" lon="107.050385">
<ele>51.860870</ele>
<time>2011-04-30T10:41:22Z</time>
<desc>lat.=20.957487, lon.=107.050385, Alt.=51.860870m. Speed=0.324000m/h.</desc>
<speed>0.090000</speed>
</trkpt>
<trkpt lat="20.957483" lon="107.050392">
<ele>51.948761</ele>
<time>2011-04-30T10:41:27Z</time>
<desc>lat.=20.957483, lon.=107.050392, Alt.=51.948761m. Speed=0.144000m/h.</desc>
<speed>0.040000</speed>
</trkpt>
<trkpt lat="20.957481" lon="107.050392">
<ele>52.014191</ele>
<time>2011-04-30T10:41:32Z</time>
<desc>lat.=20.957481, lon.=107.050392, Alt.=52.014191m. Speed=0.180000m/h.</desc>
<speed>0.050000</speed>
</trkpt>
<trkpt lat="20.957479" lon="107.050400">
<ele>52.089386</ele>
<time>2011-04-30T10:41:37Z</time>
<desc>lat.=20.957479, lon.=107.050400, Alt.=52.089386m. Speed=0.252000m/h.</desc>
<speed>0.070000</speed>
</trkpt>
<trkpt lat="20.957479" lon="107.050400">
<ele>52.173370</ele>
<time>2011-04-30T10:41:42Z</time>
<desc>lat.=20.957479, lon.=107.050400, Alt.=52.173370m. Speed=0.180000m/h.</desc>
<speed>0.050000</speed>
</trkpt>
<trkpt lat="20.957478" lon="107.050400">
<ele>52.244659</ele>
<time>2011-04-30T10:41:47Z</time>
<desc>lat.=20.957478, lon.=107.050400, Alt.=52.244659m. Speed=0.216000m/h.</desc>
<speed>0.060000</speed>
</trkpt>
<trkpt lat="20.957478" lon="107.050392">
<ele>52.302277</ele>
<time>2011-04-30T10:41:52Z</time>
<desc>lat.=20.957478, lon.=107.050392, Alt.=52.302277m. Speed=0.108000m/h.</desc>
<speed>0.030000</speed>
</trkpt>
<trkpt lat="20.957476" lon="107.050400">
<ele>52.365753</ele>
<time>2011-04-30T10:41:57Z</time>
<desc>lat.=20.957476, lon.=107.050400, Alt.=52.365753m. Speed=0.468000m/h.</desc>
<speed>0.130000</speed>
</trkpt>
<trkpt lat="20.957472" lon="107.050407">
<ele>52.462433</ele>
<time>2011-04-30T10:42:02Z</time>
<desc>lat.=20.957472, lon.=107.050407, Alt.=52.462433m. Speed=0.252000m/h.</desc>
<speed>0.070000</speed>
</trkpt>
<trkpt lat="20.957472" lon="107.050407">
<ele>52.535675</ele>
<time>2011-04-30T10:42:07Z</time>
<desc>lat.=20.957472, lon.=107.050407, Alt.=52.535675m. Speed=0.144000m/h.</desc>
<speed>0.040000</speed>
</trkpt>
<trkpt lat="20.957468" lon="107.050400">
<ele>52.622589</ele>
<time>2011-04-30T10:42:12Z</time>
<desc>lat.=20.957468, lon.=107.050400, Alt.=52.622589m. Speed=0.720000m/h.</desc>
<speed>0.200000</speed>
</trkpt>
<trkpt lat="20.957466" lon="107.050392">
<ele>52.666534</ele>
<time>2011-04-30T10:42:17Z</time>
<desc>lat.=20.957466, lon.=107.050392, Alt.=52.666534m. Speed=0.972000m/h.</desc>
<speed>0.270000</speed>
</trkpt>
<trkpt lat="20.957470" lon="107.050385">
<ele>52.696808</ele>
<time>2011-04-30T10:42:22Z</time>
<desc>lat.=20.957470, lon.=107.050385, Alt.=52.696808m. Speed=0.468000m/h.</desc>
<speed>0.130000</speed>
</trkpt>
<trkpt lat="20.957470" lon="107.050377">
<ele>52.718292</ele>
<time>2011-04-30T10:42:27Z</time>
<desc>lat.=20.957470, lon.=107.050377, Alt.=52.718292m. Speed=0.504000m/h.</desc>
<speed>0.140000</speed>
</trkpt>
<trkpt lat="20.957468" lon="107.050369">
<ele>52.745636</ele>
<time>2011-04-30T10:42:32Z</time>
<desc>lat.=20.957468, lon.=107.050369, Alt.=52.745636m. Speed=0.828000m/h.</desc>
<speed>0.230000</speed>
</trkpt>
<trkpt lat="20.957462" lon="107.050369">
<ele>52.788605</ele>
<time>2011-04-30T10:42:37Z</time>
<desc>lat.=20.957462, lon.=107.050369, Alt.=52.788605m. Speed=0.432000m/h.</desc>
<speed>0.120000</speed>
</trkpt>
<trkpt lat="20.957460" lon="107.050362">
<ele>52.831573</ele>
<time>2011-04-30T10:42:42Z</time>
<desc>lat.=20.957460, lon.=107.050362, Alt.=52.831573m. Speed=0.396000m/h.</desc>
<speed>0.110000</speed>
</trkpt>
<trkpt lat="20.957457" lon="107.050354">
<ele>52.851105</ele>
<time>2011-04-30T10:42:47Z</time>
<desc>lat.=20.957457, lon.=107.050354, Alt.=52.851105m. Speed=0.576000m/h.</desc>
<speed>0.160000</speed>
</trkpt>
<trkpt lat="20.957453" lon="107.050354">
<ele>52.865753</ele>
<time>2011-04-30T10:42:52Z</time>
<desc>lat.=20.957453, lon.=107.050354, Alt.=52.865753m. Speed=0.144000m/h.</desc>
<speed>0.040000</speed>
</trkpt>
<trkpt lat="20.957451" lon="107.050354">
<ele>52.875519</ele>
<time>2011-04-30T10:42:57Z</time>
<desc>lat.=20.957451, lon.=107.050354, Alt.=52.875519m. Speed=0.324000m/h.</desc>
<speed>0.090000</speed>
</trkpt>
<trkpt lat="20.957453" lon="107.050346">
<ele>52.870636</ele>
<time>2011-04-30T10:43:02Z</time>
<desc>lat.=20.957453, lon.=107.050346, Alt.=52.870636m. Speed=0.324000m/h.</desc>
<speed>0.090000</speed>
</trkpt>
<trkpt lat="20.957449" lon="107.050354">
<ele>52.888214</ele>
<time>2011-04-30T10:43:07Z</time>
<desc>lat.=20.957449, lon.=107.050354, Alt.=52.888214m. Speed=0.216000m/h.</desc>
<speed>0.060000</speed>
</trkpt>
<trkpt lat="20.957447" lon="107.050362">
<ele>52.894073</ele>
<time>2011-04-30T10:43:12Z</time>
<desc>lat.=20.957447, lon.=107.050362, Alt.=52.894073m. Speed=0.144000m/h.</desc>
<speed>0.040000</speed>
</trkpt>
<trkpt lat="20.957445" lon="107.050354">
<ele>52.941925</ele>
<time>2011-04-30T10:43:17Z</time>
<desc>lat.=20.957445, lon.=107.050354, Alt.=52.941925m. Speed=0.504000m/h.</desc>
<speed>0.140000</speed>
</trkpt>
<trkpt lat="20.957445" lon="107.050354">
<ele>53.002472</ele>
<time>2011-04-30T10:43:22Z</time>
<desc>lat.=20.957445, lon.=107.050354, Alt.=53.002472m. Speed=0.828000m/h.</desc>
<speed>0.230000</speed>
</trkpt>
<trkpt lat="20.957439" lon="107.050362">
<ele>53.066925</ele>
<time>2011-04-30T10:43:27Z</time>
<desc>lat.=20.957439, lon.=107.050362, Alt.=53.066925m. Speed=0.288000m/h.</desc>
<speed>0.080000</speed>
</trkpt>
<trkpt lat="20.957441" lon="107.050354">
<ele>53.099152</ele>
<time>2011-04-30T10:43:32Z</time>
<desc>lat.=20.957441, lon.=107.050354, Alt.=53.099152m. Speed=0.396000m/h.</desc>
<speed>0.110000</speed>
</trkpt>
<trkpt lat="20.957441" lon="107.050346">
<ele>53.095245</ele>
<time>2011-04-30T10:43:37Z</time>
<desc>lat.=20.957441, lon.=107.050346, Alt.=53.095245m. Speed=0.612000m/h.</desc>
<speed>0.170000</speed>
</trkpt>
<trkpt lat="20.957439" lon="107.050346">
<ele>53.081573</ele>
<time>2011-04-30T10:43:42Z</time>
<desc>lat.=20.957439, lon.=107.050346, Alt.=53.081573m. Speed=0.072000m/h.</desc>
<speed>0.020000</speed>
</trkpt>
<trkpt lat="20.957443" lon="107.050346">
<ele>53.097198</ele>
<time>2011-04-30T10:43:47Z</time>
<desc>lat.=20.957443, lon.=107.050346, Alt.=53.097198m. Speed=0.648000m/h.</desc>
<speed>0.180000</speed>
</trkpt>
<trkpt lat="20.957445" lon="107.050346">
<ele>53.125519</ele>
<time>2011-04-30T10:43:52Z</time>
<desc>lat.=20.957445, lon.=107.050346, Alt.=53.125519m. Speed=0.216000m/h.</desc>
<speed>0.060000</speed>
</trkpt>
<trkpt lat="20.957443" lon="107.050346">
<ele>53.155792</ele>
<time>2011-04-30T10:43:57Z</time>
<desc>lat.=20.957443, lon.=107.050346, Alt.=53.155792m. Speed=0.216000m/h.</desc>
<speed>0.060000</speed>
</trkpt>
<trkpt lat="20.957443" lon="107.050362">
<ele>53.179230</ele>
<time>2011-04-30T10:44:02Z</time>
<desc>lat.=20.957443, lon.=107.050362, Alt.=53.179230m. Speed=1.224000m/h.</desc>
<speed>0.340000</speed>
</trkpt>
<trkpt lat="20.957453" lon="107.050377">
<ele>54.096222</ele>
<time>2011-04-30T10:44:07Z</time>
<desc>lat.=20.957453, lon.=107.050377, Alt.=54.096222m. Speed=0.648000m/h.</desc>
<speed>0.180000</speed>
</trkpt>
<trkpt lat="20.957455" lon="107.050385">
<ele>54.139191</ele>
<time>2011-04-30T10:44:12Z</time>
<desc>lat.=20.957455, lon.=107.050385, Alt.=54.139191m. Speed=0.792000m/h.</desc>
<speed>0.220000</speed>
</trkpt>
<trkpt lat="20.957458" lon="107.050392">
<ele>54.202667</ele>
<time>2011-04-30T10:44:17Z</time>
<desc>lat.=20.957458, lon.=107.050392, Alt.=54.202667m. Speed=0.792000m/h.</desc>
<speed>0.220000</speed>
</trkpt>
<trkpt lat="20.957453" lon="107.050400">
<ele>54.232941</ele>
<time>2011-04-30T10:44:22Z</time>
<desc>lat.=20.957453, lon.=107.050400, Alt.=54.232941m. Speed=0.684000m/h.</desc>
<speed>0.190000</speed>
</trkpt>
<trkpt lat="20.957449" lon="107.050407">
<ele>54.256378</ele>
<time>2011-04-30T10:44:27Z</time>
<desc>lat.=20.957449, lon.=107.050407, Alt.=54.256378m. Speed=0.684000m/h.</desc>
<speed>0.190000</speed>
</trkpt>
<trkpt lat="20.957447" lon="107.050407">
<ele>54.272003</ele>
<time>2011-04-30T10:44:32Z</time>
<desc>lat.=20.957447, lon.=107.050407, Alt.=54.272003m. Speed=0.756000m/h.</desc>
<speed>0.210000</speed>
</trkpt>
<trkpt lat="20.957439" lon="107.050415">
<ele>54.297394</ele>
<time>2011-04-30T10:44:37Z</time>
<desc>lat.=20.957439, lon.=107.050415, Alt.=54.297394m. Speed=0.504000m/h.</desc>
<speed>0.140000</speed>
</trkpt>
<trkpt lat="20.957439" lon="107.050415">
<ele>54.315948</ele>
<time>2011-04-30T10:44:42Z</time>
<desc>lat.=20.957439, lon.=107.050415, Alt.=54.315948m. Speed=0.612000m/h.</desc>
<speed>0.170000</speed>
</trkpt>
<trkpt lat="20.957443" lon="107.050430">
<ele>54.322784</ele>
<time>2011-04-30T10:44:47Z</time>
<desc>lat.=20.957443, lon.=107.050430, Alt.=54.322784m. Speed=0.540000m/h.</desc>
<speed>0.150000</speed>
</trkpt>
<trkpt lat="20.957453" lon="107.050423">
<ele>54.575714</ele>
<time>2011-04-30T10:44:52Z</time>
<desc>lat.=20.957453, lon.=107.050423, Alt.=54.575714m. Speed=1.116000m/h.</desc>
<speed>0.310000</speed>
</trkpt>
<trkpt lat="20.957447" lon="107.050415">
<ele>54.930206</ele>
<time>2011-04-30T10:44:57Z</time>
<desc>lat.=20.957447, lon.=107.050415, Alt.=54.930206m. Speed=0.396000m/h.</desc>
<speed>0.110000</speed>
</trkpt>
<trkpt lat="20.957445" lon="107.050415">
<ele>54.998566</ele>
<time>2011-04-30T10:45:02Z</time>
<desc>lat.=20.957445, lon.=107.050415, Alt.=54.998566m. Speed=0.756000m/h.</desc>
<speed>0.210000</speed>
</trkpt>
<trkpt lat="20.957438" lon="107.050415">
<ele>54.968292</ele>
<time>2011-04-30T10:45:07Z</time>
<desc>lat.=20.957438, lon.=107.050415, Alt.=54.968292m. Speed=0.180000m/h.</desc>
<speed>0.050000</speed>
</trkpt>
<trkpt lat="20.957436" lon="107.050415">
<ele>54.959503</ele>
<time>2011-04-30T10:45:12Z</time>
<desc>lat.=20.957436, lon.=107.050415, Alt.=54.959503m. Speed=0.216000m/h.</desc>
<speed>0.060000</speed>
</trkpt>
<trkpt lat="20.957438" lon="107.050423">
<ele>54.952667</ele>
<time>2011-04-30T10:45:17Z</time>
<desc>lat.=20.957438, lon.=107.050423, Alt.=54.952667m. Speed=0.540000m/h.</desc>
<speed>0.150000</speed>
</trkpt>
<trkpt lat="20.957430" lon="107.050430">
<ele>54.942902</ele>
<time>2011-04-30T10:45:22Z</time>
<desc>lat.=20.957430, lon.=107.050430, Alt.=54.942902m. Speed=1.008000m/h.</desc>
<speed>0.280000</speed>
</trkpt>
<trkpt lat="20.957420" lon="107.050430">
<ele>54.949738</ele>
<time>2011-04-30T10:45:27Z</time>
<desc>lat.=20.957420, lon.=107.050430, Alt.=54.949738m. Speed=0.900000m/h.</desc>
<speed>0.250000</speed>
</trkpt>
<trkpt lat="20.957418" lon="107.050407">
<ele>54.744659</ele>
<time>2011-04-30T10:45:32Z</time>
<desc>lat.=20.957418, lon.=107.050407, Alt.=54.744659m. Speed=0.972000m/h.</desc>
<speed>0.270000</speed>
</trkpt>
<trkpt lat="20.957411" lon="107.050407">
<ele>54.264191</ele>
<time>2011-04-30T10:45:37Z</time>
<desc>lat.=20.957411, lon.=107.050407, Alt.=54.264191m. Speed=0.576000m/h.</desc>
<speed>0.160000</speed>
</trkpt>
<trkpt lat="20.957384" lon="107.050407">
<ele>53.899933</ele>
<time>2011-04-30T10:45:42Z</time>
<desc>lat.=20.957384, lon.=107.050407, Alt.=53.899933m. Speed=1.260000m/h.</desc>
<speed>0.350000</speed>
</trkpt>
<trkpt lat="20.957348" lon="107.050400">
<ele>53.120636</ele>
<time>2011-04-30T10:45:47Z</time>
<desc>lat.=20.957348, lon.=107.050400, Alt.=53.120636m. Speed=0.756000m/h.</desc>
<speed>0.210000</speed>
</trkpt>
<trkpt lat="20.957346" lon="107.050392">
<ele>52.972198</ele>
<time>2011-04-30T10:45:52Z</time>
<desc>lat.=20.957346, lon.=107.050392, Alt.=52.972198m. Speed=0.432000m/h.</desc>
<speed>0.120000</speed>
</trkpt>
<trkpt lat="20.957338" lon="107.050392">
<ele>52.966339</ele>
<time>2011-04-30T10:45:57Z</time>
<desc>lat.=20.957338, lon.=107.050392, Alt.=52.966339m. Speed=0.360000m/h.</desc>
<speed>0.100000</speed>
</trkpt>
<trkpt lat="20.957338" lon="107.050392">
<ele>52.966339</ele>
<time>2011-04-30T10:46:02Z</time>
<desc>lat.=20.957338, lon.=107.050392, Alt.=52.966339m. Speed=0.576000m/h.</desc>
<speed>0.160000</speed>
</trkpt>
<trkpt lat="20.957352" lon="107.050392">
<ele>52.850128</ele>
<time>2011-04-30T10:46:07Z</time>
<desc>lat.=20.957352, lon.=107.050392, Alt.=52.850128m. Speed=1.224000m/h.</desc>
<speed>0.340000</speed>
</trkpt>
<trkpt lat="20.957378" lon="107.050377">
<ele>52.307159</ele>
<time>2011-04-30T10:46:12Z</time>
<desc>lat.=20.957378, lon.=107.050377, Alt.=52.307159m. Speed=1.476000m/h.</desc>
<speed>0.410000</speed>
</trkpt>
<trkpt lat="20.957355" lon="107.050407">
<ele>51.635284</ele>
<time>2011-04-30T10:46:17Z</time>
<desc>lat.=20.957355, lon.=107.050407, Alt.=51.635284m. Speed=0.468000m/h.</desc>
<speed>0.130000</speed>
</trkpt>
<trkpt lat="20.957363" lon="107.050407">
<ele>51.577667</ele>
<time>2011-04-30T10:46:22Z</time>
<desc>lat.=20.957363, lon.=107.050407, Alt.=51.577667m. Speed=0.504000m/h.</desc>
<speed>0.140000</speed>
</trkpt>
<trkpt lat="20.957371" lon="107.050407">
<ele>51.470245</ele>
<time>2011-04-30T10:46:27Z</time>
<desc>lat.=20.957371, lon.=107.050407, Alt.=51.470245m. Speed=0.684000m/h.</desc>
<speed>0.190000</speed>
</trkpt>
<trkpt lat="20.957357" lon="107.050415">
<ele>51.395050</ele>
<time>2011-04-30T10:46:32Z</time>
<desc>lat.=20.957357, lon.=107.050415, Alt.=51.395050m. Speed=0.504000m/h.</desc>
<speed>0.140000</speed>
</trkpt>
<trkpt lat="20.957348" lon="107.050423">
<ele>51.248566</ele>
<time>2011-04-30T10:46:37Z</time>
<desc>lat.=20.957348, lon.=107.050423, Alt.=51.248566m. Speed=1.332000m/h.</desc>
<speed>0.370000</speed>
</trkpt>
<trkpt lat="20.957327" lon="107.050415">
<ele>50.903839</ele>
<time>2011-04-30T10:46:42Z</time>
<desc>lat.=20.957327, lon.=107.050415, Alt.=50.903839m. Speed=1.044000m/h.</desc>
<speed>0.290000</speed>
</trkpt>
<trkpt lat="20.957323" lon="107.050423">
<ele>50.746613</ele>
<time>2011-04-30T10:46:47Z</time>
<desc>lat.=20.957323, lon.=107.050423, Alt.=50.746613m. Speed=0.720000m/h.</desc>
<speed>0.200000</speed>
</trkpt>
<trkpt lat="20.957314" lon="107.050430">
<ele>50.731964</ele>
<time>2011-04-30T10:46:52Z</time>
<desc>lat.=20.957314, lon.=107.050430, Alt.=50.731964m. Speed=0.720000m/h.</desc>
<speed>0.200000</speed>
</trkpt>
<trkpt lat="20.957312" lon="107.050430">
<ele>50.735870</ele>
<time>2011-04-30T10:46:57Z</time>
<desc>lat.=20.957312, lon.=107.050430, Alt.=50.735870m. Speed=0.648000m/h.</desc>
<speed>0.180000</speed>
</trkpt>
<trkpt lat="20.957294" lon="107.050446">
<ele>51.015167</ele>
<time>2011-04-30T10:47:02Z</time>
<desc>lat.=20.957294, lon.=107.050446, Alt.=51.015167m. Speed=1.116000m/h.</desc>
<speed>0.310000</speed>
</trkpt>
<trkpt lat="20.957300" lon="107.050438">
<ele>51.068878</ele>
<time>2011-04-30T10:47:07Z</time>
<desc>lat.=20.957300, lon.=107.050438, Alt.=51.068878m. Speed=0.648000m/h.</desc>
<speed>0.180000</speed>
</trkpt>
<trkpt lat="20.957298" lon="107.050430">
<ele>51.086456</ele>
<time>2011-04-30T10:47:12Z</time>
<desc>lat.=20.957298, lon.=107.050430, Alt.=51.086456m. Speed=0.792000m/h.</desc>
<speed>0.220000</speed>
</trkpt>
<trkpt lat="20.957296" lon="107.050423">
<ele>51.096222</ele>
<time>2011-04-30T10:47:17Z</time>
<desc>lat.=20.957296, lon.=107.050423, Alt.=51.096222m. Speed=0.360000m/h.</desc>
<speed>0.100000</speed>
</trkpt>
<trkpt lat="20.957296" lon="107.050423">
<ele>51.101105</ele>
<time>2011-04-30T10:47:22Z</time>
<desc>lat.=20.957296, lon.=107.050423, Alt.=51.101105m. Speed=0.684000m/h.</desc>
<speed>0.190000</speed>
</trkpt>
<trkpt lat="20.957293" lon="107.050438">
<ele>51.647980</ele>
<time>2011-04-30T10:47:27Z</time>
<desc>lat.=20.957293, lon.=107.050438, Alt.=51.647980m. Speed=0.216000m/h.</desc>
<speed>0.060000</speed>
</trkpt>
<trkpt lat="20.957289" lon="107.050438">
<ele>51.688995</ele>
<time>2011-04-30T10:47:32Z</time>
<desc>lat.=20.957289, lon.=107.050438, Alt.=51.688995m. Speed=0.864000m/h.</desc>
<speed>0.240000</speed>
</trkpt>
<trkpt lat="20.957281" lon="107.050446">
<ele>52.432159</ele>
<time>2011-04-30T10:47:37Z</time>
<desc>lat.=20.957281, lon.=107.050446, Alt.=52.432159m. Speed=0.396000m/h.</desc>
<speed>0.110000</speed>
</trkpt>
<trkpt lat="20.957262" lon="107.050453">
<ele>52.747589</ele>
<time>2011-04-30T10:47:42Z</time>
<desc>lat.=20.957262, lon.=107.050453, Alt.=52.747589m. Speed=0.864000m/h.</desc>
<speed>0.240000</speed>
</trkpt>
<trkpt lat="20.957251" lon="107.050461">
<ele>52.764191</ele>
<time>2011-04-30T10:47:47Z</time>
<desc>lat.=20.957251, lon.=107.050461, Alt.=52.764191m. Speed=1.584000m/h.</desc>
<speed>0.440000</speed>
</trkpt>
<trkpt lat="20.957193" lon="107.050529">
<ele>53.570831</ele>
<time>2011-04-30T10:47:52Z</time>
<desc>lat.=20.957193, lon.=107.050529, Alt.=53.570831m. Speed=2.556000m/h.</desc>
<speed>0.710000</speed>
</trkpt>
<trkpt lat="20.957176" lon="107.050552">
<ele>54.387238</ele>
<time>2011-04-30T10:47:57Z</time>
<desc>lat.=20.957176, lon.=107.050552, Alt.=54.387238m. Speed=0.792000m/h.</desc>
<speed>0.220000</speed>
</trkpt>
<trkpt lat="20.957155" lon="107.050606">
<ele>54.780792</ele>
<time>2011-04-30T10:48:02Z</time>
<desc>lat.=20.957155, lon.=107.050606, Alt.=54.780792m. Speed=2.340000m/h.</desc>
<speed>0.650000</speed>
</trkpt>
<trkpt lat="20.957169" lon="107.050575">
<ele>55.325714</ele>
<time>2011-04-30T10:48:07Z</time>
<desc>lat.=20.957169, lon.=107.050575, Alt.=55.325714m. Speed=0.612000m/h.</desc>
<speed>0.170000</speed>
</trkpt>
<trkpt lat="20.957167" lon="107.050575">
<ele>55.362823</ele>
<time>2011-04-30T10:48:12Z</time>
<desc>lat.=20.957167, lon.=107.050575, Alt.=55.362823m. Speed=0.252000m/h.</desc>
<speed>0.070000</speed>
</trkpt>
<trkpt lat="20.957191" lon="107.050568">
<ele>54.942902</ele>
<time>2011-04-30T10:48:17Z</time>
<desc>lat.=20.957191, lon.=107.050568, Alt.=54.942902m. Speed=0.612000m/h.</desc>
<speed>0.170000</speed>
</trkpt>
<trkpt lat="20.957201" lon="107.050552">
<ele>54.853058</ele>
<time>2011-04-30T10:48:22Z</time>
<desc>lat.=20.957201, lon.=107.050552, Alt.=54.853058m. Speed=0.540000m/h.</desc>
<speed>0.150000</speed>
</trkpt>
<trkpt lat="20.957232" lon="107.050529">
<ele>54.819855</ele>
<time>2011-04-30T10:48:27Z</time>
<desc>lat.=20.957232, lon.=107.050529, Alt.=54.819855m. Speed=1.512000m/h.</desc>
<speed>0.420000</speed>
</trkpt>
<trkpt lat="20.957315" lon="107.050529">
<ele>54.612823</ele>
<time>2011-04-30T10:48:32Z</time>
<desc>lat.=20.957315, lon.=107.050529, Alt.=54.612823m. Speed=1.728000m/h.</desc>
<speed>0.480000</speed>
</trkpt>
<trkpt lat="20.957365" lon="107.050529">
<ele>54.209503</ele>
<time>2011-04-30T10:48:37Z</time>
<desc>lat.=20.957365, lon.=107.050529, Alt.=54.209503m. Speed=0.864000m/h.</desc>
<speed>0.240000</speed>
</trkpt>
<trkpt lat="20.957369" lon="107.050468">
<ele>54.455597</ele>
<time>2011-04-30T10:48:42Z</time>
<desc>lat.=20.957369, lon.=107.050468, Alt.=54.455597m. Speed=1.260000m/h.</desc>
<speed>0.350000</speed>
</trkpt>
<trkpt lat="20.957359" lon="107.050407">
<ele>54.620636</ele>
<time>2011-04-30T10:48:47Z</time>
<desc>lat.=20.957359, lon.=107.050407, Alt.=54.620636m. Speed=0.540000m/h.</desc>
<speed>0.150000</speed>
</trkpt>
<trkpt lat="20.957365" lon="107.050377">
<ele>55.219269</ele>
<time>2011-04-30T10:48:52Z</time>
<desc>lat.=20.957365, lon.=107.050377, Alt.=55.219269m. Speed=0.216000m/h.</desc>
<speed>0.060000</speed>
</trkpt>
<trkpt lat="20.957373" lon="107.050362">
<ele>55.205597</ele>
<time>2011-04-30T10:48:57Z</time>
<desc>lat.=20.957373, lon.=107.050362, Alt.=55.205597m. Speed=1.116000m/h.</desc>
<speed>0.310000</speed>
</trkpt>
<trkpt lat="20.957386" lon="107.050285">
<ele>55.134308</ele>
<time>2011-04-30T10:49:02Z</time>
<desc>lat.=20.957386, lon.=107.050285, Alt.=55.134308m. Speed=1.548000m/h.</desc>
<speed>0.430000</speed>
</trkpt>
<trkpt lat="20.957371" lon="107.050285">
<ele>54.591339</ele>
<time>2011-04-30T10:49:07Z</time>
<desc>lat.=20.957371, lon.=107.050285, Alt.=54.591339m. Speed=0.684000m/h.</desc>
<speed>0.190000</speed>
</trkpt>
<trkpt lat="20.957375" lon="107.050270">
<ele>54.477081</ele>
<time>2011-04-30T10:49:12Z</time>
<desc>lat.=20.957375, lon.=107.050270, Alt.=54.477081m. Speed=1.008000m/h.</desc>
<speed>0.280000</speed>
</trkpt>
<trkpt lat="20.957378" lon="107.050262">
<ele>54.464386</ele>
<time>2011-04-30T10:49:17Z</time>
<desc>lat.=20.957378, lon.=107.050262, Alt.=54.464386m. Speed=0.900000m/h.</desc>
<speed>0.250000</speed>
</trkpt>
<trkpt lat="20.957382" lon="107.050255">
<ele>54.461456</ele>
<time>2011-04-30T10:49:22Z</time>
<desc>lat.=20.957382, lon.=107.050255, Alt.=54.461456m. Speed=0.648000m/h.</desc>
<speed>0.180000</speed>
</trkpt>
<trkpt lat="20.957380" lon="107.050247">
<ele>54.431183</ele>
<time>2011-04-30T10:49:27Z</time>
<desc>lat.=20.957380, lon.=107.050247, Alt.=54.431183m. Speed=0.360000m/h.</desc>
<speed>0.100000</speed>
</trkpt>
<trkpt lat="20.957382" lon="107.050247">
<ele>54.417511</ele>
<time>2011-04-30T10:49:32Z</time>
<desc>lat.=20.957382, lon.=107.050247, Alt.=54.417511m. Speed=0.648000m/h.</desc>
<speed>0.180000</speed>
</trkpt>
<trkpt lat="20.957378" lon="107.050247">
<ele>54.401886</ele>
<time>2011-04-30T10:49:37Z</time>
<desc>lat.=20.957378, lon.=107.050247, Alt.=54.401886m. Speed=0.792000m/h.</desc>
<speed>0.220000</speed>
</trkpt>
<trkpt lat="20.957382" lon="107.050255">
<ele>54.389191</ele>
<time>2011-04-30T10:49:42Z</time>
<desc>lat.=20.957382, lon.=107.050255, Alt.=54.389191m. Speed=0.432000m/h.</desc>
<speed>0.120000</speed>
</trkpt>
<trkpt lat="20.957388" lon="107.050255">
<ele>54.380402</ele>
<time>2011-04-30T10:49:47Z</time>
<desc>lat.=20.957388, lon.=107.050255, Alt.=54.380402m. Speed=0.324000m/h.</desc>
<speed>0.090000</speed>
</trkpt>
<trkpt lat="20.957411" lon="107.050240">
<ele>54.051300</ele>
<time>2011-04-30T10:49:52Z</time>
<desc>lat.=20.957411, lon.=107.050240, Alt.=54.051300m. Speed=1.800000m/h.</desc>
<speed>0.500000</speed>
</trkpt>
<trkpt lat="20.957417" lon="107.050247">
<ele>53.839386</ele>
<time>2011-04-30T10:49:57Z</time>
<desc>lat.=20.957417, lon.=107.050247, Alt.=53.839386m. Speed=0.936000m/h.</desc>
<speed>0.260000</speed>
</trkpt>
<trkpt lat="20.957409" lon="107.050247">
<ele>53.737823</ele>
<time>2011-04-30T10:50:02Z</time>
<desc>lat.=20.957409, lon.=107.050247, Alt.=53.737823m. Speed=0.900000m/h.</desc>
<speed>0.250000</speed>
</trkpt>
<trkpt lat="20.957401" lon="107.050247">
<ele>53.725128</ele>
<time>2011-04-30T10:50:07Z</time>
<desc>lat.=20.957401, lon.=107.050247, Alt.=53.725128m. Speed=0.972000m/h.</desc>
<speed>0.270000</speed>
</trkpt>
<trkpt lat="20.957396" lon="107.050278">
<ele>53.409698</ele>
<time>2011-04-30T10:50:12Z</time>
<desc>lat.=20.957396, lon.=107.050278, Alt.=53.409698m. Speed=1.116000m/h.</desc>
<speed>0.310000</speed>
</trkpt>
<trkpt lat="20.957396" lon="107.050278">
<ele>53.179230</ele>
<time>2011-04-30T10:50:17Z</time>
<desc>lat.=20.957396, lon.=107.050278, Alt.=53.179230m. Speed=0.504000m/h.</desc>
<speed>0.140000</speed>
</trkpt>
<trkpt lat="20.957394" lon="107.050278">
<ele>53.158722</ele>
<time>2011-04-30T10:50:22Z</time>
<desc>lat.=20.957394, lon.=107.050278, Alt.=53.158722m. Speed=0.252000m/h.</desc>
<speed>0.070000</speed>
</trkpt>
<trkpt lat="20.957390" lon="107.050293">
<ele>53.201691</ele>
<time>2011-04-30T10:50:27Z</time>
<desc>lat.=20.957390, lon.=107.050293, Alt.=53.201691m. Speed=1.152000m/h.</desc>
<speed>0.320000</speed>
</trkpt>
<trkpt lat="20.957397" lon="107.050323">
<ele>53.242706</ele>
<time>2011-04-30T10:50:32Z</time>
<desc>lat.=20.957397, lon.=107.050323, Alt.=53.242706m. Speed=1.908000m/h.</desc>
<speed>0.530000</speed>
</trkpt>
<trkpt lat="20.957401" lon="107.050316">
<ele>53.575714</ele>
<time>2011-04-30T10:50:37Z</time>
<desc>lat.=20.957401, lon.=107.050316, Alt.=53.575714m. Speed=0.396000m/h.</desc>
<speed>0.110000</speed>
</trkpt>
<trkpt lat="20.957401" lon="107.050331">
<ele>53.856964</ele>
<time>2011-04-30T10:50:42Z</time>
<desc>lat.=20.957401, lon.=107.050331, Alt.=53.856964m. Speed=1.044000m/h.</desc>
<speed>0.290000</speed>
</trkpt>
<trkpt lat="20.957415" lon="107.050331">
<ele>54.146027</ele>
<time>2011-04-30T10:50:47Z</time>
<desc>lat.=20.957415, lon.=107.050331, Alt.=54.146027m. Speed=0.828000m/h.</desc>
<speed>0.230000</speed>
</trkpt>
<trkpt lat="20.957417" lon="107.050362">
<ele>55.295441</ele>
<time>2011-04-30T10:50:52Z</time>
<desc>lat.=20.957417, lon.=107.050362, Alt.=55.295441m. Speed=0.288000m/h.</desc>
<speed>0.080000</speed>
</trkpt>
<trkpt lat="20.957418" lon="107.050392">
<ele>56.349152</ele>
<time>2011-04-30T10:50:57Z</time>
<desc>lat.=20.957418, lon.=107.050392, Alt.=56.349152m. Speed=1.008000m/h.</desc>
<speed>0.280000</speed>
</trkpt>
<trkpt lat="20.957428" lon="107.050400">
<ele>56.891144</ele>
<time>2011-04-30T10:51:02Z</time>
<desc>lat.=20.957428, lon.=107.050400, Alt.=56.891144m. Speed=0.900000m/h.</desc>
<speed>0.250000</speed>
</trkpt>
<trkpt lat="20.957417" lon="107.050377">
<ele>58.745636</ele>
<time>2011-04-30T10:51:07Z</time>
<desc>lat.=20.957417, lon.=107.050377, Alt.=58.745636m. Speed=2.844000m/h.</desc>
<speed>0.790000</speed>
</trkpt>
<trkpt lat="20.957403" lon="107.050407">
<ele>60.532745</ele>
<time>2011-04-30T10:51:12Z</time>
<desc>lat.=20.957403, lon.=107.050407, Alt.=60.532745m. Speed=0.324000m/h.</desc>
<speed>0.090000</speed>
</trkpt>
<trkpt lat="20.957397" lon="107.050438">
<ele>61.253448</ele>
<time>2011-04-30T10:51:17Z</time>
<desc>lat.=20.957397, lon.=107.050438, Alt.=61.253448m. Speed=0.396000m/h.</desc>
<speed>0.110000</speed>
</trkpt>
<trkpt lat="20.957396" lon="107.050461">
<ele>61.762238</ele>
<time>2011-04-30T10:51:22Z</time>
<desc>lat.=20.957396, lon.=107.050461, Alt.=61.762238m. Speed=0.324000m/h.</desc>
<speed>0.090000</speed>
</trkpt>
<trkpt lat="20.957388" lon="107.050507">
<ele>62.338409</ele>
<time>2011-04-30T10:51:27Z</time>
<desc>lat.=20.957388, lon.=107.050507, Alt.=62.338409m. Speed=2.412000m/h.</desc>
<speed>0.670000</speed>
</trkpt>
<trkpt lat="20.957403" lon="107.050575">
<ele>63.066925</ele>
<time>2011-04-30T10:51:32Z</time>
<desc>lat.=20.957403, lon.=107.050575, Alt.=63.066925m. Speed=2.808000m/h.</desc>
<speed>0.780000</speed>
</trkpt>
<trkpt lat="20.957397" lon="107.050598">
<ele>63.983917</ele>
<time>2011-04-30T10:51:37Z</time>
<desc>lat.=20.957397, lon.=107.050598, Alt.=63.983917m. Speed=0.900000m/h.</desc>
<speed>0.250000</speed>
</trkpt>
<trkpt lat="20.957405" lon="107.050598">
<ele>64.344788</ele>
<time>2011-04-30T10:51:42Z</time>
<desc>lat.=20.957405, lon.=107.050598, Alt.=64.344788m. Speed=0.684000m/h.</desc>
<speed>0.190000</speed>
</trkpt>
<trkpt lat="20.957407" lon="107.050598">
<ele>64.471741</ele>
<time>2011-04-30T10:51:47Z</time>
<desc>lat.=20.957407, lon.=107.050598, Alt.=64.471741m. Speed=0.864000m/h.</desc>
<speed>0.240000</speed>
</trkpt>
<trkpt lat="20.957409" lon="107.050575">
<ele>64.438538</ele>
<time>2011-04-30T10:51:52Z</time>
<desc>lat.=20.957409, lon.=107.050575, Alt.=64.438538m. Speed=1.080000m/h.</desc>
<speed>0.300000</speed>
</trkpt>
<trkpt lat="20.957397" lon="107.050560">
<ele>64.606506</ele>
<time>2011-04-30T10:51:57Z</time>
<desc>lat.=20.957397, lon.=107.050560, Alt.=64.606506m. Speed=1.116000m/h.</desc>
<speed>0.310000</speed>
</trkpt>
<trkpt lat="20.957399" lon="107.050552">
<ele>65.247131</ele>
<time>2011-04-30T10:52:02Z</time>
<desc>lat.=20.957399, lon.=107.050552, Alt.=65.247131m. Speed=0.612000m/h.</desc>
<speed>0.170000</speed>
</trkpt>
<trkpt lat="20.957394" lon="107.050560">
<ele>65.299866</ele>
<time>2011-04-30T10:52:07Z</time>
<desc>lat.=20.957394, lon.=107.050560, Alt.=65.299866m. Speed=0.864000m/h.</desc>
<speed>0.240000</speed>
</trkpt>
<trkpt lat="20.957378" lon="107.050568">
<ele>65.633850</ele>
<time>2011-04-30T10:52:12Z</time>
<desc>lat.=20.957378, lon.=107.050568, Alt.=65.633850m. Speed=1.620000m/h.</desc>
<speed>0.450000</speed>
</trkpt>
<trkpt lat="20.957375" lon="107.050529">
<ele>65.920959</ele>
<time>2011-04-30T10:52:17Z</time>
<desc>lat.=20.957375, lon.=107.050529, Alt.=65.920959m. Speed=0.648000m/h.</desc>
<speed>0.180000</speed>
</trkpt>
<trkpt lat="20.957373" lon="107.050529">
<ele>65.948303</ele>
<time>2011-04-30T10:52:22Z</time>
<desc>lat.=20.957373, lon.=107.050529, Alt.=65.948303m. Speed=1.368000m/h.</desc>
<speed>0.380000</speed>
</trkpt>
<trkpt lat="20.957361" lon="107.050545">
<ele>66.268616</ele>
<time>2011-04-30T10:52:27Z</time>
<desc>lat.=20.957361, lon.=107.050545, Alt.=66.268616m. Speed=0.648000m/h.</desc>
<speed>0.180000</speed>
</trkpt>
<trkpt lat="20.957355" lon="107.050545">
<ele>66.309631</ele>
<time>2011-04-30T10:52:32Z</time>
<desc>lat.=20.957355, lon.=107.050545, Alt.=66.309631m. Speed=0.468000m/h.</desc>
<speed>0.130000</speed>
</trkpt>
<trkpt lat="20.957352" lon="107.050560">
<ele>66.348694</ele>
<time>2011-04-30T10:52:37Z</time>
<desc>lat.=20.957352, lon.=107.050560, Alt.=66.348694m. Speed=1.224000m/h.</desc>
<speed>0.340000</speed>
</trkpt>
<trkpt lat="20.957348" lon="107.050583">
<ele>68.028381</ele>
<time>2011-04-30T10:52:42Z</time>
<desc>lat.=20.957348, lon.=107.050583, Alt.=68.028381m. Speed=0.360000m/h.</desc>
<speed>0.100000</speed>
</trkpt>
<trkpt lat="20.957346" lon="107.050583">
<ele>68.508850</ele>
<time>2011-04-30T10:52:47Z</time>
<desc>lat.=20.957346, lon.=107.050583, Alt.=68.508850m. Speed=0.468000m/h.</desc>
<speed>0.130000</speed>
</trkpt>
<trkpt lat="20.957348" lon="107.050552">
<ele>69.016663</ele>
<time>2011-04-30T10:52:52Z</time>
<desc>lat.=20.957348, lon.=107.050552, Alt.=69.016663m. Speed=1.296000m/h.</desc>
<speed>0.360000</speed>
</trkpt>
<trkpt lat="20.957350" lon="107.050522">
<ele>69.432678</ele>
<time>2011-04-30T10:52:57Z</time>
<desc>lat.=20.957350, lon.=107.050522, Alt.=69.432678m. Speed=1.080000m/h.</desc>
<speed>0.300000</speed>
</trkpt>
<trkpt lat="20.957378" lon="107.050491">
<ele>70.176819</ele>
<time>2011-04-30T10:53:02Z</time>
<desc>lat.=20.957378, lon.=107.050491, Alt.=70.176819m. Speed=0.612000m/h.</desc>
<speed>0.170000</speed>
</trkpt>
<trkpt lat="20.957386" lon="107.050484">
<ele>70.934631</ele>
<time>2011-04-30T10:53:07Z</time>
<desc>lat.=20.957386, lon.=107.050484, Alt.=70.934631m. Speed=0.936000m/h.</desc>
<speed>0.260000</speed>
</trkpt>
<trkpt lat="20.957403" lon="107.050453">
<ele>72.452209</ele>
<time>2011-04-30T10:53:12Z</time>
<desc>lat.=20.957403, lon.=107.050453, Alt.=72.452209m. Speed=1.116000m/h.</desc>
<speed>0.310000</speed>
</trkpt>
<trkpt lat="20.957413" lon="107.050430">
<ele>73.471741</ele>
<time>2011-04-30T10:53:17Z</time>
<desc>lat.=20.957413, lon.=107.050430, Alt.=73.471741m. Speed=0.936000m/h.</desc>
<speed>0.260000</speed>
</trkpt>
<trkpt lat="20.957411" lon="107.050400">
<ele>74.327209</ele>
<time>2011-04-30T10:53:22Z</time>
<desc>lat.=20.957411, lon.=107.050400, Alt.=74.327209m. Speed=1.152000m/h.</desc>
<speed>0.320000</speed>
</trkpt>
<trkpt lat="20.957417" lon="107.050369">
<ele>75.356506</ele>
<time>2011-04-30T10:53:27Z</time>
<desc>lat.=20.957417, lon.=107.050369, Alt.=75.356506m. Speed=1.980000m/h.</desc>
<speed>0.550000</speed>
</trkpt>
<trkpt lat="20.957420" lon="107.050362">
<ele>75.768616</ele>
<time>2011-04-30T10:53:32Z</time>
<desc>lat.=20.957420, lon.=107.050362, Alt.=75.768616m. Speed=1.044000m/h.</desc>
<speed>0.290000</speed>
</trkpt>
<trkpt lat="20.957418" lon="107.050369">
<ele>76.510803</ele>
<time>2011-04-30T10:53:37Z</time>
<desc>lat.=20.957418, lon.=107.050369, Alt.=76.510803m. Speed=0.684000m/h.</desc>
<speed>0.190000</speed>
</trkpt>
<trkpt lat="20.957424" lon="107.050362">
<ele>76.524475</ele>
<time>2011-04-30T10:53:42Z</time>
<desc>lat.=20.957424, lon.=107.050362, Alt.=76.524475m. Speed=0.072000m/h.</desc>
<speed>0.020000</speed>
</trkpt>
<trkpt lat="20.957424" lon="107.050362">
<ele>76.538147</ele>
<time>2011-04-30T10:53:47Z</time>
<desc>lat.=20.957424, lon.=107.050362, Alt.=76.538147m. Speed=0.252000m/h.</desc>
<speed>0.070000</speed>
</trkpt>
<trkpt lat="20.957422" lon="107.050369">
<ele>76.532288</ele>
<time>2011-04-30T10:53:52Z</time>
<desc>lat.=20.957422, lon.=107.050369, Alt.=76.532288m. Speed=1.296000m/h.</desc>
<speed>0.360000</speed>
</trkpt>
<trkpt lat="20.957426" lon="107.050354">
<ele>76.575256</ele>
<time>2011-04-30T10:53:57Z</time>
<desc>lat.=20.957426, lon.=107.050354, Alt.=76.575256m. Speed=1.116000m/h.</desc>
<speed>0.310000</speed>
</trkpt>
<trkpt lat="20.957434" lon="107.050354">
<ele>76.864319</ele>
<time>2011-04-30T10:54:02Z</time>
<desc>lat.=20.957434, lon.=107.050354, Alt.=76.864319m. Speed=0.540000m/h.</desc>
<speed>0.150000</speed>
</trkpt>
<trkpt lat="20.957424" lon="107.050316">
<ele>77.120178</ele>
<time>2011-04-30T10:54:07Z</time>
<desc>lat.=20.957424, lon.=107.050316, Alt.=77.120178m. Speed=1.296000m/h.</desc>
<speed>0.360000</speed>
</trkpt>
<trkpt lat="20.957409" lon="107.050331">
<ele>77.540100</ele>
<time>2011-04-30T10:54:12Z</time>
<desc>lat.=20.957409, lon.=107.050331, Alt.=77.540100m. Speed=0.756000m/h.</desc>
<speed>0.210000</speed>
</trkpt>
<trkpt lat="20.957403" lon="107.050331">
<ele>77.653381</ele>
<time>2011-04-30T10:54:17Z</time>
<desc>lat.=20.957403, lon.=107.050331, Alt.=77.653381m. Speed=0.828000m/h.</desc>
<speed>0.230000</speed>
</trkpt>
<trkpt lat="20.957396" lon="107.050354">
<ele>77.419006</ele>
<time>2011-04-30T10:54:22Z</time>
<desc>lat.=20.957396, lon.=107.050354, Alt.=77.419006m. Speed=0.324000m/h.</desc>
<speed>0.090000</speed>
</trkpt>
<trkpt lat="20.957392" lon="107.050362">
<ele>77.419006</ele>
<time>2011-04-30T10:54:27Z</time>
<desc>lat.=20.957392, lon.=107.050362, Alt.=77.419006m. Speed=0.144000m/h.</desc>
<speed>0.040000</speed>
</trkpt>
<trkpt lat="20.957390" lon="107.050369">
<ele>77.588928</ele>
<time>2011-04-30T10:54:32Z</time>
<desc>lat.=20.957390, lon.=107.050369, Alt.=77.588928m. Speed=0.792000m/h.</desc>
<speed>0.220000</speed>
</trkpt>
<trkpt lat="20.957396" lon="107.050377">
<ele>77.682678</ele>
<time>2011-04-30T10:54:37Z</time>
<desc>lat.=20.957396, lon.=107.050377, Alt.=77.682678m. Speed=0.324000m/h.</desc>
<speed>0.090000</speed>
</trkpt>
<trkpt lat="20.957399" lon="107.050385">
<ele>77.717834</ele>
<time>2011-04-30T10:54:42Z</time>
<desc>lat.=20.957399, lon.=107.050385, Alt.=77.717834m. Speed=0.180000m/h.</desc>
<speed>0.050000</speed>
</trkpt>
<trkpt lat="20.957397" lon="107.050385">
<ele>77.719788</ele>
<time>2011-04-30T10:54:47Z</time>
<desc>lat.=20.957397, lon.=107.050385, Alt.=77.719788m. Speed=0.396000m/h.</desc>
<speed>0.110000</speed>
</trkpt>
<trkpt lat="20.957394" lon="107.050377">
<ele>77.708069</ele>
<time>2011-04-30T10:54:52Z</time>
<desc>lat.=20.957394, lon.=107.050377, Alt.=77.708069m. Speed=0.072000m/h.</desc>
<speed>0.020000</speed>
</trkpt>
<trkpt lat="20.957386" lon="107.050423">
<ele>77.866272</ele>
<time>2011-04-30T10:54:57Z</time>
<desc>lat.=20.957386, lon.=107.050423, Alt.=77.866272m. Speed=1.944000m/h.</desc>
<speed>0.540000</speed>
</trkpt>
<trkpt lat="20.957382" lon="107.050468">
<ele>78.069397</ele>
<time>2011-04-30T10:55:02Z</time>
<desc>lat.=20.957382, lon.=107.050468, Alt.=78.069397m. Speed=1.872000m/h.</desc>
<speed>0.520000</speed>
</trkpt>
<trkpt lat="20.957373" lon="107.050484">
<ele>78.176819</ele>
<time>2011-04-30T10:55:07Z</time>
<desc>lat.=20.957373, lon.=107.050484, Alt.=78.176819m. Speed=1.908000m/h.</desc>
<speed>0.530000</speed>
</trkpt>
<trkpt lat="20.957367" lon="107.050484">
<ele>78.329163</ele>
<time>2011-04-30T10:55:12Z</time>
<desc>lat.=20.957367, lon.=107.050484, Alt.=78.329163m. Speed=2.088000m/h.</desc>
<speed>0.580000</speed>
</trkpt>
<trkpt lat="20.957363" lon="107.050507">
<ele>78.336975</ele>
<time>2011-04-30T10:55:17Z</time>
<desc>lat.=20.957363, lon.=107.050507, Alt.=78.336975m. Speed=2.124000m/h.</desc>
<speed>0.590000</speed>
</trkpt>
<trkpt lat="20.957384" lon="107.050522">
<ele>78.172913</ele>
<time>2011-04-30T10:55:22Z</time>
<desc>lat.=20.957384, lon.=107.050522, Alt.=78.172913m. Speed=0.576000m/h.</desc>
<speed>0.160000</speed>
</trkpt>
<trkpt lat="20.957390" lon="107.050514">
<ele>78.180725</ele>
<time>2011-04-30T10:55:27Z</time>
<desc>lat.=20.957390, lon.=107.050514, Alt.=78.180725m. Speed=0.288000m/h.</desc>
<speed>0.080000</speed>
</trkpt>
<trkpt lat="20.957394" lon="107.050514">
<ele>78.184631</ele>
<time>2011-04-30T10:55:32Z</time>
<desc>lat.=20.957394, lon.=107.050514, Alt.=78.184631m. Speed=0.072000m/h.</desc>
<speed>0.020000</speed>
</trkpt>
<trkpt lat="20.957394" lon="107.050514">
<ele>78.182678</ele>
<time>2011-04-30T10:55:37Z</time>
<desc>lat.=20.957394, lon.=107.050514, Alt.=78.182678m. Speed=0.252000m/h.</desc>
<speed>0.070000</speed>
</trkpt>
<trkpt lat="20.957390" lon="107.050514">
<ele>78.172913</ele>
<time>2011-04-30T10:55:42Z</time>
<desc>lat.=20.957390, lon.=107.050514, Alt.=78.172913m. Speed=0.612000m/h.</desc>
<speed>0.170000</speed>
</trkpt>
<trkpt lat="20.957386" lon="107.050514">
<ele>78.153381</ele>
<time>2011-04-30T10:55:47Z</time>
<desc>lat.=20.957386, lon.=107.050514, Alt.=78.153381m. Speed=0.252000m/h.</desc>
<speed>0.070000</speed>
</trkpt>
<trkpt lat="20.957386" lon="107.050514">
<ele>78.131897</ele>
<time>2011-04-30T10:55:52Z</time>
<desc>lat.=20.957386, lon.=107.050514, Alt.=78.131897m. Speed=0.612000m/h.</desc>
<speed>0.170000</speed>
</trkpt>
<trkpt lat="20.957373" lon="107.050514">
<ele>78.047913</ele>
<time>2011-04-30T10:55:57Z</time>
<desc>lat.=20.957373, lon.=107.050514, Alt.=78.047913m. Speed=1.080000m/h.</desc>
<speed>0.300000</speed>
</trkpt>
<trkpt lat="20.957354" lon="107.050529">
<ele>77.721741</ele>
<time>2011-04-30T10:56:02Z</time>
<desc>lat.=20.957354, lon.=107.050529, Alt.=77.721741m. Speed=1.008000m/h.</desc>
<speed>0.280000</speed>
</trkpt>
<trkpt lat="20.957352" lon="107.050537">
<ele>77.497131</ele>
<time>2011-04-30T10:56:07Z</time>
<desc>lat.=20.957352, lon.=107.050537, Alt.=77.497131m. Speed=0.720000m/h.</desc>
<speed>0.200000</speed>
</trkpt>
<trkpt lat="20.957342" lon="107.050545">
<ele>77.461975</ele>
<time>2011-04-30T10:56:12Z</time>
<desc>lat.=20.957342, lon.=107.050545, Alt.=77.461975m. Speed=1.080000m/h.</desc>
<speed>0.300000</speed>
</trkpt>
<trkpt lat="20.957336" lon="107.050560">
<ele>77.069397</ele>
<time>2011-04-30T10:56:17Z</time>
<desc>lat.=20.957336, lon.=107.050560, Alt.=77.069397m. Speed=1.008000m/h.</desc>
<speed>0.280000</speed>
</trkpt>
<trkpt lat="20.957340" lon="107.050552">
<ele>76.829163</ele>
<time>2011-04-30T10:56:22Z</time>
<desc>lat.=20.957340, lon.=107.050552, Alt.=76.829163m. Speed=0.324000m/h.</desc>
<speed>0.090000</speed>
</trkpt>
<trkpt lat="20.957333" lon="107.050552">
<ele>76.786194</ele>
<time>2011-04-30T10:56:27Z</time>
<desc>lat.=20.957333, lon.=107.050552, Alt.=76.786194m. Speed=1.116000m/h.</desc>
<speed>0.310000</speed>
</trkpt>
<trkpt lat="20.957279" lon="107.050583">
<ele>76.795959</ele>
<time>2011-04-30T10:56:32Z</time>
<desc>lat.=20.957279, lon.=107.050583, Alt.=76.795959m. Speed=1.944000m/h.</desc>
<speed>0.540000</speed>
</trkpt>
<trkpt lat="20.957235" lon="107.050606">
<ele>76.799866</ele>
<time>2011-04-30T10:56:37Z</time>
<desc>lat.=20.957235, lon.=107.050606, Alt.=76.799866m. Speed=2.232000m/h.</desc>
<speed>0.620000</speed>
</trkpt>
<trkpt lat="20.957241" lon="107.050583">
<ele>76.747131</ele>
<time>2011-04-30T10:56:42Z</time>
<desc>lat.=20.957241, lon.=107.050583, Alt.=76.747131m. Speed=1.440000m/h.</desc>
<speed>0.400000</speed>
</trkpt>
<trkpt lat="20.957266" lon="107.050568">
<ele>76.659241</ele>
<time>2011-04-30T10:56:47Z</time>
<desc>lat.=20.957266, lon.=107.050568, Alt.=76.659241m. Speed=0.972000m/h.</desc>
<speed>0.270000</speed>
</trkpt>
<trkpt lat="20.957256" lon="107.050568">
<ele>76.614319</ele>
<time>2011-04-30T10:56:52Z</time>
<desc>lat.=20.957256, lon.=107.050568, Alt.=76.614319m. Speed=1.008000m/h.</desc>
<speed>0.280000</speed>
</trkpt>
<trkpt lat="20.957249" lon="107.050568">
<ele>76.571350</ele>
<time>2011-04-30T10:56:57Z</time>
<desc>lat.=20.957249, lon.=107.050568, Alt.=76.571350m. Speed=0.540000m/h.</desc>
<speed>0.150000</speed>
</trkpt>
<trkpt lat="20.957247" lon="107.050560">
<ele>76.524475</ele>
<time>2011-04-30T10:57:02Z</time>
<desc>lat.=20.957247, lon.=107.050560, Alt.=76.524475m. Speed=0.360000m/h.</desc>
<speed>0.100000</speed>
</trkpt>
<trkpt lat="20.957249" lon="107.050560">
<ele>76.475647</ele>
<time>2011-04-30T10:57:07Z</time>
<desc>lat.=20.957249, lon.=107.050560, Alt.=76.475647m. Speed=0.252000m/h.</desc>
<speed>0.070000</speed>
</trkpt>
<trkpt lat="20.957251" lon="107.050552">
<ele>76.426819</ele>
<time>2011-04-30T10:57:12Z</time>
<desc>lat.=20.957251, lon.=107.050552, Alt.=76.426819m. Speed=0.324000m/h.</desc>
<speed>0.090000</speed>
</trkpt>
<trkpt lat="20.957262" lon="107.050537">
<ele>76.374084</ele>
<time>2011-04-30T10:57:17Z</time>
<desc>lat.=20.957262, lon.=107.050537, Alt.=76.374084m. Speed=1.224000m/h.</desc>
<speed>0.340000</speed>
</trkpt>
<trkpt lat="20.957315" lon="107.050514">
<ele>76.260803</ele>
<time>2011-04-30T10:57:22Z</time>
<desc>lat.=20.957315, lon.=107.050514, Alt.=76.260803m. Speed=1.584000m/h.</desc>
<speed>0.440000</speed>
</trkpt>
<trkpt lat="20.957350" lon="107.050507">
<ele>76.157288</ele>
<time>2011-04-30T10:57:27Z</time>
<desc>lat.=20.957350, lon.=107.050507, Alt.=76.157288m. Speed=1.368000m/h.</desc>
<speed>0.380000</speed>
</trkpt>
<trkpt lat="20.957369" lon="107.050499">
<ele>76.014709</ele>
<time>2011-04-30T10:57:32Z</time>
<desc>lat.=20.957369, lon.=107.050499, Alt.=76.014709m. Speed=1.188000m/h.</desc>
<speed>0.330000</speed>
</trkpt>
<trkpt lat="20.957369" lon="107.050491">
<ele>75.801819</ele>
<time>2011-04-30T10:57:37Z</time>
<desc>lat.=20.957369, lon.=107.050491, Alt.=75.801819m. Speed=0.756000m/h.</desc>
<speed>0.210000</speed>
</trkpt>
<trkpt lat="20.957376" lon="107.050484">
<ele>75.741272</ele>
<time>2011-04-30T10:57:42Z</time>
<desc>lat.=20.957376, lon.=107.050484, Alt.=75.741272m. Speed=0.396000m/h.</desc>
<speed>0.110000</speed>
</trkpt>
<trkpt lat="20.957380" lon="107.050491">
<ele>75.672913</ele>
<time>2011-04-30T10:57:47Z</time>
<desc>lat.=20.957380, lon.=107.050491, Alt.=75.672913m. Speed=0.360000m/h.</desc>
<speed>0.100000</speed>
</trkpt>
<trkpt lat="20.957378" lon="107.050491">
<ele>75.592834</ele>
<time>2011-04-30T10:57:52Z</time>
<desc>lat.=20.957378, lon.=107.050491, Alt.=75.592834m. Speed=0.396000m/h.</desc>
<speed>0.110000</speed>
</trkpt>
<trkpt lat="20.957375" lon="107.050499">
<ele>75.504944</ele>
<time>2011-04-30T10:57:57Z</time>
<desc>lat.=20.957375, lon.=107.050499, Alt.=75.504944m. Speed=0.648000m/h.</desc>
<speed>0.180000</speed>
</trkpt>
<trkpt lat="20.957367" lon="107.050499">
<ele>75.399475</ele>
<time>2011-04-30T10:58:02Z</time>
<desc>lat.=20.957367, lon.=107.050499, Alt.=75.399475m. Speed=0.720000m/h.</desc>
<speed>0.200000</speed>
</trkpt>
<trkpt lat="20.957361" lon="107.050507">
<ele>75.278381</ele>
<time>2011-04-30T10:58:07Z</time>
<desc>lat.=20.957361, lon.=107.050507, Alt.=75.278381m. Speed=0.540000m/h.</desc>
<speed>0.150000</speed>
</trkpt>
<trkpt lat="20.957354" lon="107.050507">
<ele>75.147522</ele>
<time>2011-04-30T10:58:12Z</time>
<desc>lat.=20.957354, lon.=107.050507, Alt.=75.147522m. Speed=0.864000m/h.</desc>
<speed>0.240000</speed>
</trkpt>
<trkpt lat="20.957348" lon="107.050514">
<ele>74.993225</ele>
<time>2011-04-30T10:58:17Z</time>
<desc>lat.=20.957348, lon.=107.050514, Alt.=74.993225m. Speed=0.396000m/h.</desc>
<speed>0.110000</speed>
</trkpt>
<trkpt lat="20.957348" lon="107.050514">
<ele>74.821350</ele>
<time>2011-04-30T10:58:22Z</time>
<desc>lat.=20.957348, lon.=107.050514, Alt.=74.821350m. Speed=0.072000m/h.</desc>
<speed>0.020000</speed>
</trkpt>
<trkpt lat="20.957346" lon="107.050514">
<ele>74.635803</ele>
<time>2011-04-30T10:58:27Z</time>
<desc>lat.=20.957346, lon.=107.050514, Alt.=74.635803m. Speed=0.396000m/h.</desc>
<speed>0.110000</speed>
</trkpt>
<trkpt lat="20.957340" lon="107.050514">
<ele>74.442444</ele>
<time>2011-04-30T10:58:32Z</time>
<desc>lat.=20.957340, lon.=107.050514, Alt.=74.442444m. Speed=0.324000m/h.</desc>
<speed>0.090000</speed>
</trkpt>
<trkpt lat="20.957338" lon="107.050514">
<ele>74.239319</ele>
<time>2011-04-30T10:58:37Z</time>
<desc>lat.=20.957338, lon.=107.050514, Alt.=74.239319m. Speed=0.144000m/h.</desc>
<speed>0.040000</speed>
</trkpt>
<trkpt lat="20.957346" lon="107.050507">
<ele>73.922913</ele>
<time>2011-04-30T10:58:42Z</time>
<desc>lat.=20.957346, lon.=107.050507, Alt.=73.922913m. Speed=0.684000m/h.</desc>
<speed>0.190000</speed>
</trkpt>
<trkpt lat="20.957367" lon="107.050476">
<ele>73.737366</ele>
<time>2011-04-30T10:58:47Z</time>
<desc>lat.=20.957367, lon.=107.050476, Alt.=73.737366m. Speed=1.728000m/h.</desc>
<speed>0.480000</speed>
</trkpt>
<trkpt lat="20.957405" lon="107.050453">
<ele>72.348694</ele>
<time>2011-04-30T10:58:52Z</time>
<desc>lat.=20.957405, lon.=107.050453, Alt.=72.348694m. Speed=1.944000m/h.</desc>
<speed>0.540000</speed>
</trkpt>
<trkpt lat="20.957426" lon="107.050446">
<ele>70.963928</ele>
<time>2011-04-30T10:58:57Z</time>
<desc>lat.=20.957426, lon.=107.050446, Alt.=70.963928m. Speed=1.584000m/h.</desc>
<speed>0.440000</speed>
</trkpt>
<trkpt lat="20.957434" lon="107.050430">
<ele>69.629944</ele>
<time>2011-04-30T10:59:02Z</time>
<desc>lat.=20.957434, lon.=107.050430, Alt.=69.629944m. Speed=1.296000m/h.</desc>
<speed>0.360000</speed>
</trkpt>
<trkpt lat="20.957439" lon="107.050453">
<ele>68.383850</ele>
<time>2011-04-30T10:59:07Z</time>
<desc>lat.=20.957439, lon.=107.050453, Alt.=68.383850m. Speed=1.152000m/h.</desc>
<speed>0.320000</speed>
</trkpt>
<trkpt lat="20.957439" lon="107.050453">
<ele>67.497131</ele>
<time>2011-04-30T10:59:12Z</time>
<desc>lat.=20.957439, lon.=107.050453, Alt.=67.497131m. Speed=0.684000m/h.</desc>
<speed>0.190000</speed>
</trkpt>
<trkpt lat="20.957443" lon="107.050461">
<ele>66.985413</ele>
<time>2011-04-30T10:59:17Z</time>
<desc>lat.=20.957443, lon.=107.050461, Alt.=66.985413m. Speed=0.540000m/h.</desc>
<speed>0.150000</speed>
</trkpt>
<trkpt lat="20.957447" lon="107.050453">
<ele>66.622131</ele>
<time>2011-04-30T10:59:22Z</time>
<desc>lat.=20.957447, lon.=107.050453, Alt.=66.622131m. Speed=0.828000m/h.</desc>
<speed>0.230000</speed>
</trkpt>
<trkpt lat="20.957447" lon="107.050446">
<ele>66.264709</ele>
<time>2011-04-30T10:59:27Z</time>
<desc>lat.=20.957447, lon.=107.050446, Alt.=66.264709m. Speed=0.468000m/h.</desc>
<speed>0.130000</speed>
</trkpt>
<trkpt lat="20.957449" lon="107.050438">
<ele>65.913147</ele>
<time>2011-04-30T10:59:32Z</time>
<desc>lat.=20.957449, lon.=107.050438, Alt.=65.913147m. Speed=0.936000m/h.</desc>
<speed>0.260000</speed>
</trkpt>
<trkpt lat="20.957451" lon="107.050423">
<ele>65.567444</ele>
<time>2011-04-30T10:59:37Z</time>
<desc>lat.=20.957451, lon.=107.050423, Alt.=65.567444m. Speed=1.548000m/h.</desc>
<speed>0.430000</speed>
</trkpt>
<trkpt lat="20.957453" lon="107.050430">
<ele>64.184631</ele>
<time>2011-04-30T10:59:42Z</time>
<desc>lat.=20.957453, lon.=107.050430, Alt.=64.184631m. Speed=0.828000m/h.</desc>
<speed>0.230000</speed>
</trkpt>
<trkpt lat="20.957445" lon="107.050415">
<ele>63.981964</ele>
<time>2011-04-30T10:59:47Z</time>
<desc>lat.=20.957445, lon.=107.050415, Alt.=63.981964m. Speed=0.648000m/h.</desc>
<speed>0.180000</speed>
</trkpt>
<trkpt lat="20.957443" lon="107.050407">
<ele>63.579620</ele>
<time>2011-04-30T10:59:52Z</time>
<desc>lat.=20.957443, lon.=107.050407, Alt.=63.579620m. Speed=0.828000m/h.</desc>
<speed>0.230000</speed>
</trkpt>
<trkpt lat="20.957443" lon="107.050392">
<ele>63.164581</ele>
<time>2011-04-30T10:59:57Z</time>
<desc>lat.=20.957443, lon.=107.050392, Alt.=63.164581m. Speed=0.612000m/h.</desc>
<speed>0.170000</speed>
</trkpt>
<trkpt lat="20.957445" lon="107.050385">
<ele>62.761261</ele>
<time>2011-04-30T11:00:02Z</time>
<desc>lat.=20.957445, lon.=107.050385, Alt.=62.761261m. Speed=0.936000m/h.</desc>
<speed>0.260000</speed>
</trkpt>
<trkpt lat="20.957447" lon="107.050369">
<ele>62.363800</ele>
<time>2011-04-30T11:00:07Z</time>
<desc>lat.=20.957447, lon.=107.050369, Alt.=62.363800m. Speed=0.936000m/h.</desc>
<speed>0.260000</speed>
</trkpt>
<trkpt lat="20.957447" lon="107.050362">
<ele>62.045441</ele>
<time>2011-04-30T11:00:12Z</time>
<desc>lat.=20.957447, lon.=107.050362, Alt.=62.045441m. Speed=0.036000m/h.</desc>
<speed>0.010000</speed>
</trkpt>
<trkpt lat="20.957445" lon="107.050362">
<ele>61.720245</ele>
<time>2011-04-30T11:00:17Z</time>
<desc>lat.=20.957445, lon.=107.050362, Alt.=61.720245m. Speed=0.252000m/h.</desc>
<speed>0.070000</speed>
</trkpt>
<trkpt lat="20.957453" lon="107.050362">
<ele>62.303253</ele>
<time>2011-04-30T11:00:22Z</time>
<desc>lat.=20.957453, lon.=107.050362, Alt.=62.303253m. Speed=1.152000m/h.</desc>
<speed>0.320000</speed>
</trkpt>
<trkpt lat="20.957453" lon="107.050369">
<ele>62.883331</ele>
<time>2011-04-30T11:00:27Z</time>
<desc>lat.=20.957453, lon.=107.050369, Alt.=62.883331m. Speed=0.504000m/h.</desc>
<speed>0.140000</speed>
</trkpt>
<trkpt lat="20.957458" lon="107.050369">
<ele>63.061066</ele>
<time>2011-04-30T11:00:32Z</time>
<desc>lat.=20.957458, lon.=107.050369, Alt.=63.061066m. Speed=0.756000m/h.</desc>
<speed>0.210000</speed>
</trkpt>
<trkpt lat="20.957457" lon="107.050385">
<ele>63.121613</ele>
<time>2011-04-30T11:00:37Z</time>
<desc>lat.=20.957457, lon.=107.050385, Alt.=63.121613m. Speed=0.972000m/h.</desc>
<speed>0.270000</speed>
</trkpt>
<trkpt lat="20.957462" lon="107.050377">
<ele>63.147003</ele>
<time>2011-04-30T11:00:42Z</time>
<desc>lat.=20.957462, lon.=107.050377, Alt.=63.147003m. Speed=0.468000m/h.</desc>
<speed>0.130000</speed>
</trkpt>
<trkpt lat="20.957474" lon="107.050346">
<ele>63.162628</ele>
<time>2011-04-30T11:00:47Z</time>
<desc>lat.=20.957474, lon.=107.050346, Alt.=63.162628m. Speed=1.728000m/h.</desc>
<speed>0.480000</speed>
</trkpt>
<trkpt lat="20.957428" lon="107.050323">
<ele>63.173370</ele>
<time>2011-04-30T11:00:52Z</time>
<desc>lat.=20.957428, lon.=107.050323, Alt.=63.173370m. Speed=1.800000m/h.</desc>
<speed>0.500000</speed>
</trkpt>
<trkpt lat="20.957407" lon="107.050323">
<ele>63.186066</ele>
<time>2011-04-30T11:00:57Z</time>
<desc>lat.=20.957407, lon.=107.050323, Alt.=63.186066m. Speed=1.440000m/h.</desc>
<speed>0.400000</speed>
</trkpt>
<trkpt lat="20.957287" lon="107.050377">
<ele>58.970245</ele>
<time>2011-04-30T11:01:03Z</time>
<desc>lat.=20.957287, lon.=107.050377, Alt.=58.970245m. Speed=1.224000m/h.</desc>
<speed>0.340000</speed>
</trkpt>
<trkpt lat="20.957331" lon="107.050415">
<ele>55.464386</ele>
<time>2011-04-30T11:01:08Z</time>
<desc>lat.=20.957331, lon.=107.050415, Alt.=55.464386m. Speed=0.324000m/h.</desc>
<speed>0.090000</speed>
</trkpt>
<trkpt lat="20.957348" lon="107.050461">
<ele>60.951691</ele>
<time>2011-04-30T11:01:13Z</time>
<desc>lat.=20.957348, lon.=107.050461, Alt.=60.951691m. Speed=0.144000m/h.</desc>
<speed>0.040000</speed>
</trkpt>
<trkpt lat="20.957346" lon="107.050461">
<ele>60.952667</ele>
<time>2011-04-30T11:01:18Z</time>
<desc>lat.=20.957346, lon.=107.050461, Alt.=60.952667m. Speed=1.044000m/h.</desc>
<speed>0.290000</speed>
</trkpt>
<trkpt lat="20.957344" lon="107.050453">
<ele>60.942902</ele>
<time>2011-04-30T11:01:23Z</time>
<desc>lat.=20.957344, lon.=107.050453, Alt.=60.942902m. Speed=0.864000m/h.</desc>
<speed>0.240000</speed>
</trkpt>
<trkpt lat="20.957310" lon="107.050476">
<ele>60.867706</ele>
<time>2011-04-30T11:01:28Z</time>
<desc>lat.=20.957310, lon.=107.050476, Alt.=60.867706m. Speed=3.852000m/h.</desc>
<speed>1.070000</speed>
</trkpt>
<trkpt lat="20.957233" lon="107.050476">
<ele>62.022980</ele>
<time>2011-04-30T11:01:33Z</time>
<desc>lat.=20.957233, lon.=107.050476, Alt.=62.022980m. Speed=4.320000m/h.</desc>
<speed>1.200000</speed>
</trkpt>
<trkpt lat="20.957195" lon="107.050438">
<ele>63.359894</ele>
<time>2011-04-30T11:01:38Z</time>
<desc>lat.=20.957195, lon.=107.050438, Alt.=63.359894m. Speed=3.528000m/h.</desc>
<speed>0.980000</speed>
</trkpt>
<trkpt lat="20.957161" lon="107.050362">
<ele>63.304230</ele>
<time>2011-04-30T11:01:43Z</time>
<desc>lat.=20.957161, lon.=107.050362, Alt.=63.304230m. Speed=5.256000m/h.</desc>
<speed>1.460000</speed>
</trkpt>
<trkpt lat="20.957109" lon="107.050285">
<ele>63.112823</ele>
<time>2011-04-30T11:01:48Z</time>
<desc>lat.=20.957109, lon.=107.050285, Alt.=63.112823m. Speed=6.444000m/h.</desc>
<speed>1.790000</speed>
</trkpt>
<trkpt lat="20.957062" lon="107.050217">
<ele>62.365753</ele>
<time>2011-04-30T11:01:53Z</time>
<desc>lat.=20.957062, lon.=107.050217, Alt.=62.365753m. Speed=5.832000m/h.</desc>
<speed>1.620000</speed>
</trkpt>
<trkpt lat="20.957067" lon="107.050117">
<ele>62.854034</ele>
<time>2011-04-30T11:01:58Z</time>
<desc>lat.=20.957067, lon.=107.050117, Alt.=62.854034m. Speed=5.688000m/h.</desc>
<speed>1.580000</speed>
</trkpt>
<trkpt lat="20.957085" lon="107.050041">
<ele>55.807159</ele>
<time>2011-04-30T11:02:03Z</time>
<desc>lat.=20.957085, lon.=107.050041, Alt.=55.807159m. Speed=4.716000m/h.</desc>
<speed>1.310000</speed>
</trkpt>
<trkpt lat="20.957098" lon="107.050003">
<ele>49.576691</ele>
<time>2011-04-30T11:02:08Z</time>
<desc>lat.=20.957098, lon.=107.050003, Alt.=49.576691m. Speed=4.752000m/h.</desc>
<speed>1.320000</speed>
</trkpt>
<trkpt lat="20.957064" lon="107.050011">
<ele>47.302277</ele>
<time>2011-04-30T11:02:13Z</time>
<desc>lat.=20.957064, lon.=107.050011, Alt.=47.302277m. Speed=4.500000m/h.</desc>
<speed>1.250000</speed>
</trkpt>
<trkpt lat="20.957020" lon="107.050049">
<ele>49.083527</ele>
<time>2011-04-30T11:02:18Z</time>
<desc>lat.=20.957020, lon.=107.050049, Alt.=49.083527m. Speed=4.140000m/h.</desc>
<speed>1.150000</speed>
</trkpt>
<trkpt lat="20.956970" lon="107.050041">
<ele>53.013214</ele>
<time>2011-04-30T11:02:23Z</time>
<desc>lat.=20.956970, lon.=107.050041, Alt.=53.013214m. Speed=4.140000m/h.</desc>
<speed>1.150000</speed>
</trkpt>
<trkpt lat="20.956921" lon="107.050026">
<ele>55.487823</ele>
<time>2011-04-30T11:02:28Z</time>
<desc>lat.=20.956921, lon.=107.050026, Alt.=55.487823m. Speed=3.600000m/h.</desc>
<speed>1.000000</speed>
</trkpt>
<trkpt lat="20.956852" lon="107.050026">
<ele>51.046417</ele>
<time>2011-04-30T11:02:33Z</time>
<desc>lat.=20.956852, lon.=107.050026, Alt.=51.046417m. Speed=5.004000m/h.</desc>
<speed>1.390000</speed>
</trkpt>
<trkpt lat="20.956802" lon="107.050056">
<ele>50.842316</ele>
<time>2011-04-30T11:02:38Z</time>
<desc>lat.=20.956802, lon.=107.050056, Alt.=50.842316m. Speed=2.268000m/h.</desc>
<speed>0.630000</speed>
</trkpt>
<trkpt lat="20.956741" lon="107.050003">
<ele>52.015167</ele>
<time>2011-04-30T11:02:43Z</time>
<desc>lat.=20.956741, lon.=107.050003, Alt.=52.015167m. Speed=3.564000m/h.</desc>
<speed>0.990000</speed>
</trkpt>
<trkpt lat="20.956688" lon="107.049965">
<ele>53.305206</ele>
<time>2011-04-30T11:02:48Z</time>
<desc>lat.=20.956688, lon.=107.049965, Alt.=53.305206m. Speed=5.040000m/h.</desc>
<speed>1.400000</speed>
</trkpt>
<trkpt lat="20.956621" lon="107.049950">
<ele>53.314972</ele>
<time>2011-04-30T11:02:53Z</time>
<desc>lat.=20.956621, lon.=107.049950, Alt.=53.314972m. Speed=4.824000m/h.</desc>
<speed>1.340000</speed>
</trkpt>
<trkpt lat="20.956543" lon="107.049942">
<ele>53.593292</ele>
<time>2011-04-30T11:02:58Z</time>
<desc>lat.=20.956543, lon.=107.049942, Alt.=53.593292m. Speed=4.788000m/h.</desc>
<speed>1.330000</speed>
</trkpt>
<trkpt lat="20.956470" lon="107.049934">
<ele>52.195831</ele>
<time>2011-04-30T11:03:03Z</time>
<desc>lat.=20.956470, lon.=107.049934, Alt.=52.195831m. Speed=5.364000m/h.</desc>
<speed>1.490000</speed>
</trkpt>
<trkpt lat="20.956434" lon="107.049881">
<ele>52.161652</ele>
<time>2011-04-30T11:03:08Z</time>
<desc>lat.=20.956434, lon.=107.049881, Alt.=52.161652m. Speed=5.580000m/h.</desc>
<speed>1.550000</speed>
</trkpt>
<trkpt lat="20.956404" lon="107.049820">
<ele>52.026886</ele>
<time>2011-04-30T11:03:13Z</time>
<desc>lat.=20.956404, lon.=107.049820, Alt.=52.026886m. Speed=4.572000m/h.</desc>
<speed>1.270000</speed>
</trkpt>
<trkpt lat="20.956379" lon="107.049759">
<ele>51.990753</ele>
<time>2011-04-30T11:03:18Z</time>
<desc>lat.=20.956379, lon.=107.049759, Alt.=51.990753m. Speed=5.616000m/h.</desc>
<speed>1.560000</speed>
</trkpt>
<trkpt lat="20.956348" lon="107.049706">
<ele>48.789581</ele>
<time>2011-04-30T11:03:23Z</time>
<desc>lat.=20.956348, lon.=107.049706, Alt.=48.789581m. Speed=6.732000m/h.</desc>
<speed>1.870000</speed>
</trkpt>
<trkpt lat="20.956303" lon="107.049667">
<ele>45.933136</ele>
<time>2011-04-30T11:03:28Z</time>
<desc>lat.=20.956303, lon.=107.049667, Alt.=45.933136m. Speed=5.400000m/h.</desc>
<speed>1.500000</speed>
</trkpt>
<trkpt lat="20.956110" lon="107.049698">
<ele>15.442024</ele>
<time>2011-04-30T11:03:33Z</time>
<desc>lat.=20.956110, lon.=107.049698, Alt.=15.442024m. Speed=5.076000m/h.</desc>
<speed>1.410000</speed>
</trkpt>
<trkpt lat="20.956108" lon="107.049736">
<ele>18.329361</ele>
<time>2011-04-30T11:03:38Z</time>
<desc>lat.=20.956108, lon.=107.049736, Alt.=18.329361m. Speed=2.268000m/h.</desc>
<speed>0.630000</speed>
</trkpt>
<trkpt lat="20.956083" lon="107.049721">
<ele>19.948990</ele>
<time>2011-04-30T11:03:43Z</time>
<desc>lat.=20.956083, lon.=107.049721, Alt.=19.948990m. Speed=4.392000m/h.</desc>
<speed>1.220000</speed>
</trkpt>
<trkpt lat="20.956020" lon="107.049713">
<ele>18.149673</ele>
<time>2011-04-30T11:03:48Z</time>
<desc>lat.=20.956020, lon.=107.049713, Alt.=18.149673m. Speed=4.968000m/h.</desc>
<speed>1.380000</speed>
</trkpt>
<trkpt lat="20.955959" lon="107.049721">
<ele>17.554947</ele>
<time>2011-04-30T11:03:53Z</time>
<desc>lat.=20.955959, lon.=107.049721, Alt.=17.554947m. Speed=4.860000m/h.</desc>
<speed>1.350000</speed>
</trkpt>
<trkpt lat="20.955889" lon="107.049728">
<ele>14.911018</ele>
<time>2011-04-30T11:03:58Z</time>
<desc>lat.=20.955889, lon.=107.049728, Alt.=14.911018m. Speed=5.364000m/h.</desc>
<speed>1.490000</speed>
</trkpt>
<trkpt lat="20.955824" lon="107.049767">
<ele>14.202278</ele>
<time>2011-04-30T11:04:03Z</time>
<desc>lat.=20.955824, lon.=107.049767, Alt.=14.202278m. Speed=5.076000m/h.</desc>
<speed>1.410000</speed>
</trkpt>
<trkpt lat="20.955761" lon="107.049789">
<ele>13.437141</ele>
<time>2011-04-30T11:04:08Z</time>
<desc>lat.=20.955761, lon.=107.049789, Alt.=13.437141m. Speed=5.868000m/h.</desc>
<speed>1.630000</speed>
</trkpt>
<trkpt lat="20.955715" lon="107.049789">
<ele>13.198128</ele>
<time>2011-04-30T11:04:13Z</time>
<desc>lat.=20.955715, lon.=107.049789, Alt.=13.198128m. Speed=2.844000m/h.</desc>
<speed>0.790000</speed>
</trkpt>
<trkpt lat="20.955687" lon="107.049782">
<ele>12.977913</ele>
<time>2011-04-30T11:04:18Z</time>
<desc>lat.=20.955687, lon.=107.049782, Alt.=12.977913m. Speed=1.476000m/h.</desc>
<speed>0.410000</speed>
</trkpt>
<trkpt lat="20.955662" lon="107.049751">
<ele>13.713997</ele>
<time>2011-04-30T11:04:23Z</time>
<desc>lat.=20.955662, lon.=107.049751, Alt.=13.713997m. Speed=3.708000m/h.</desc>
<speed>1.030000</speed>
</trkpt>
<trkpt lat="20.955627" lon="107.049713">
<ele>14.040413</ele>
<time>2011-04-30T11:04:28Z</time>
<desc>lat.=20.955627, lon.=107.049713, Alt.=14.040413m. Speed=4.968000m/h.</desc>
<speed>1.380000</speed>
</trkpt>
<trkpt lat="20.955597" lon="107.049683">
<ele>15.763802</ele>
<time>2011-04-30T11:04:33Z</time>
<desc>lat.=20.955597, lon.=107.049683, Alt.=15.763802m. Speed=3.780000m/h.</desc>
<speed>1.050000</speed>
</trkpt>
<trkpt lat="20.955545" lon="107.049637">
<ele>16.152115</ele>
<time>2011-04-30T11:04:38Z</time>
<desc>lat.=20.955545, lon.=107.049637, Alt.=16.152115m. Speed=4.788000m/h.</desc>
<speed>1.330000</speed>
</trkpt>
<trkpt lat="20.955519" lon="107.049591">
<ele>16.958267</ele>
<time>2011-04-30T11:04:43Z</time>
<desc>lat.=20.955519, lon.=107.049591, Alt.=16.958267m. Speed=3.924000m/h.</desc>
<speed>1.090000</speed>
</trkpt>
<trkpt lat="20.955486" lon="107.049538">
<ele>17.808365</ele>
<time>2011-04-30T11:04:48Z</time>
<desc>lat.=20.955486, lon.=107.049538, Alt.=17.808365m. Speed=3.132000m/h.</desc>
<speed>0.870000</speed>
</trkpt>
<trkpt lat="20.955450" lon="107.049461">
<ele>17.582291</ele>
<time>2011-04-30T11:04:53Z</time>
<desc>lat.=20.955450, lon.=107.049461, Alt.=17.582291m. Speed=1.800000m/h.</desc>
<speed>0.500000</speed>
</trkpt>
<trkpt lat="20.955431" lon="107.049393">
<ele>17.378189</ele>
<time>2011-04-30T11:04:58Z</time>
<desc>lat.=20.955431, lon.=107.049393, Alt.=17.378189m. Speed=3.780000m/h.</desc>
<speed>1.050000</speed>
</trkpt>
<trkpt lat="20.955416" lon="107.049339">
<ele>16.124771</ele>
<time>2011-04-30T11:05:03Z</time>
<desc>lat.=20.955416, lon.=107.049339, Alt.=16.124771m. Speed=2.232000m/h.</desc>
<speed>0.620000</speed>
</trkpt>
<trkpt lat="20.955399" lon="107.049278">
<ele>13.833870</ele>
<time>2011-04-30T11:05:08Z</time>
<desc>lat.=20.955399, lon.=107.049278, Alt.=13.833870m. Speed=3.276000m/h.</desc>
<speed>0.910000</speed>
</trkpt>
<trkpt lat="20.955423" lon="107.049248">
<ele>13.830696</ele>
<time>2011-04-30T11:05:13Z</time>
<desc>lat.=20.955423, lon.=107.049248, Alt.=13.830696m. Speed=2.520000m/h.</desc>
<speed>0.700000</speed>
</trkpt>
<trkpt lat="20.955441" lon="107.049225">
<ele>13.402718</ele>
<time>2011-04-30T11:05:18Z</time>
<desc>lat.=20.955441, lon.=107.049225, Alt.=13.402718m. Speed=0.252000m/h.</desc>
<speed>0.070000</speed>
</trkpt>
<trkpt lat="20.955448" lon="107.049210">
<ele>13.962044</ele>
<time>2011-04-30T11:05:23Z</time>
<desc>lat.=20.955448, lon.=107.049210, Alt.=13.962044m. Speed=2.628000m/h.</desc>
<speed>0.730000</speed>
</trkpt>
<trkpt lat="20.955452" lon="107.049187">
<ele>12.440804</ele>
<time>2011-04-30T11:05:28Z</time>
<desc>lat.=20.955452, lon.=107.049187, Alt.=12.440804m. Speed=0.000000m/h.</desc>
<speed>0.000000</speed>
</trkpt>
<trkpt lat="20.955452" lon="107.049187">
<ele>12.400032</ele>
<time>2011-04-30T11:05:33Z</time>
<desc>lat.=20.955452, lon.=107.049187, Alt.=12.400032m. Speed=0.072000m/h.</desc>
<speed>0.020000</speed>
</trkpt>
<trkpt lat="20.955452" lon="107.049179">
<ele>12.387337</ele>
<time>2011-04-30T11:05:38Z</time>
<desc>lat.=20.955452, lon.=107.049179, Alt.=12.387337m. Speed=0.072000m/h.</desc>
<speed>0.020000</speed>
</trkpt>
<trkpt lat="20.955452" lon="107.049179">
<ele>12.442757</ele>
<time>2011-04-30T11:05:43Z</time>
<desc>lat.=20.955452, lon.=107.049179, Alt.=12.442757m. Speed=0.900000m/h.</desc>
<speed>0.250000</speed>
</trkpt>
<trkpt lat="20.955452" lon="107.049171">
<ele>12.688606</ele>
<time>2011-04-30T11:05:48Z</time>
<desc>lat.=20.955452, lon.=107.049171, Alt.=12.688606m. Speed=0.504000m/h.</desc>
<speed>0.140000</speed>
</trkpt>
<trkpt lat="20.955452" lon="107.049171">
<ele>12.742561</ele>
<time>2011-04-30T11:05:53Z</time>
<desc>lat.=20.955452, lon.=107.049171, Alt.=12.742561m. Speed=0.108000m/h.</desc>
<speed>0.030000</speed>
</trkpt>
<trkpt lat="20.955450" lon="107.049171">
<ele>12.771614</ele>
<time>2011-04-30T11:05:58Z</time>
<desc>lat.=20.955450, lon.=107.049171, Alt.=12.771614m. Speed=0.036000m/h.</desc>
<speed>0.010000</speed>
</trkpt>
<trkpt lat="20.955450" lon="107.049171">
<ele>12.797005</ele>
<time>2011-04-30T11:06:03Z</time>
<desc>lat.=20.955450, lon.=107.049171, Alt.=12.797005m. Speed=0.000000m/h.</desc>
<speed>0.000000</speed>
</trkpt>
<trkpt lat="20.955452" lon="107.049171">
<ele>12.826546</ele>
<time>2011-04-30T11:06:08Z</time>
<desc>lat.=20.955452, lon.=107.049171, Alt.=12.826546m. Speed=0.144000m/h.</desc>
<speed>0.040000</speed>
</trkpt>
<trkpt lat="20.955452" lon="107.049171">
<ele>12.874641</ele>
<time>2011-04-30T11:06:13Z</time>
<desc>lat.=20.955452, lon.=107.049171, Alt.=12.874641m. Speed=0.144000m/h.</desc>
<speed>0.040000</speed>
</trkpt>
<trkpt lat="20.955452" lon="107.049179">
<ele>12.880745</ele>
<time>2011-04-30T11:06:18Z</time>
<desc>lat.=20.955452, lon.=107.049179, Alt.=12.880745m. Speed=0.144000m/h.</desc>
<speed>0.040000</speed>
</trkpt>
<trkpt lat="20.955454" lon="107.049179">
<ele>12.892464</ele>
<time>2011-04-30T11:06:23Z</time>
<desc>lat.=20.955454, lon.=107.049179, Alt.=12.892464m. Speed=0.072000m/h.</desc>
<speed>0.020000</speed>
</trkpt>
<trkpt lat="20.955454" lon="107.049179">
<ele>12.898567</ele>
<time>2011-04-30T11:06:28Z</time>
<desc>lat.=20.955454, lon.=107.049179, Alt.=12.898567m. Speed=0.036000m/h.</desc>
<speed>0.010000</speed>
</trkpt>
<trkpt lat="20.955454" lon="107.049179">
<ele>12.902962</ele>
<time>2011-04-30T11:06:33Z</time>
<desc>lat.=20.955454, lon.=107.049179, Alt.=12.902962m. Speed=0.072000m/h.</desc>
<speed>0.020000</speed>
</trkpt>
<trkpt lat="20.955454" lon="107.049179">
<ele>12.903450</ele>
<time>2011-04-30T11:06:38Z</time>
<desc>lat.=20.955454, lon.=107.049179, Alt.=12.903450m. Speed=0.108000m/h.</desc>
<speed>0.030000</speed>
</trkpt>
<trkpt lat="20.955454" lon="107.049179">
<ele>12.897591</ele>
<time>2011-04-30T11:06:43Z</time>
<desc>lat.=20.955454, lon.=107.049179, Alt.=12.897591m. Speed=0.000000m/h.</desc>
<speed>0.000000</speed>
</trkpt>
<trkpt lat="20.955454" lon="107.049179">
<ele>12.924202</ele>
<time>2011-04-30T11:06:48Z</time>
<desc>lat.=20.955454, lon.=107.049179, Alt.=12.924202m. Speed=0.072000m/h.</desc>
<speed>0.020000</speed>
</trkpt>
<trkpt lat="20.955454" lon="107.049179">
<ele>12.957405</ele>
<time>2011-04-30T11:06:53Z</time>
<desc>lat.=20.955454, lon.=107.049179, Alt.=12.957405m. Speed=0.000000m/h.</desc>
<speed>0.000000</speed>
</trkpt>
<trkpt lat="20.955454" lon="107.049179">
<ele>12.963264</ele>
<time>2011-04-30T11:06:58Z</time>
<desc>lat.=20.955454, lon.=107.049179, Alt.=12.963264m. Speed=0.000000m/h.</desc>
<speed>0.000000</speed>
</trkpt>
<trkpt lat="20.955454" lon="107.049179">
<ele>12.970345</ele>
<time>2011-04-30T11:07:03Z</time>
<desc>lat.=20.955454, lon.=107.049179, Alt.=12.970345m. Speed=0.000000m/h.</desc>
<speed>0.000000</speed>
</trkpt>
<trkpt lat="20.955454" lon="107.049179">
<ele>12.964729</ele>
<time>2011-04-30T11:07:08Z</time>
<desc>lat.=20.955454, lon.=107.049179, Alt.=12.964729m. Speed=0.000000m/h.</desc>
<speed>0.000000</speed>
</trkpt>
<trkpt lat="20.955454" lon="107.049179">
<ele>12.968147</ele>
<time>2011-04-30T11:07:13Z</time>
<desc>lat.=20.955454, lon.=107.049179, Alt.=12.968147m. Speed=0.000000m/h.</desc>
<speed>0.000000</speed>
</trkpt>
<trkpt lat="20.955454" lon="107.049171">
<ele>13.114388</ele>
<time>2011-04-30T11:07:18Z</time>
<desc>lat.=20.955454, lon.=107.049171, Alt.=13.114388m. Speed=0.108000m/h.</desc>
<speed>0.030000</speed>
</trkpt>
<trkpt lat="20.955456" lon="107.049164">
<ele>13.121956</ele>
<time>2011-04-30T11:07:23Z</time>
<desc>lat.=20.955456, lon.=107.049164, Alt.=13.121956m. Speed=0.072000m/h.</desc>
<speed>0.020000</speed>
</trkpt>
<trkpt lat="20.955458" lon="107.049156">
<ele>13.306282</ele>
<time>2011-04-30T11:07:28Z</time>
<desc>lat.=20.955458, lon.=107.049156, Alt.=13.306282m. Speed=0.180000m/h.</desc>
<speed>0.050000</speed>
</trkpt>
<trkpt lat="20.955448" lon="107.049126">
<ele>13.346809</ele>
<time>2011-04-30T11:07:33Z</time>
<desc>lat.=20.955448, lon.=107.049126, Alt.=13.346809m. Speed=0.144000m/h.</desc>
<speed>0.040000</speed>
</trkpt>
<trkpt lat="20.955452" lon="107.049126">
<ele>13.993294</ele>
<time>2011-04-30T11:07:38Z</time>
<desc>lat.=20.955452, lon.=107.049126, Alt.=13.993294m. Speed=0.036000m/h.</desc>
<speed>0.010000</speed>
</trkpt>
<trkpt lat="20.955463" lon="107.049133">
<ele>14.896614</ele>
<time>2011-04-30T11:07:43Z</time>
<desc>lat.=20.955463, lon.=107.049133, Alt.=14.896614m. Speed=0.072000m/h.</desc>
<speed>0.020000</speed>
</trkpt>
<trkpt lat="20.955469" lon="107.049141">
<ele>15.812386</ele>
<time>2011-04-30T11:07:48Z</time>
<desc>lat.=20.955469, lon.=107.049141, Alt.=15.812386m. Speed=0.072000m/h.</desc>
<speed>0.020000</speed>
</trkpt>
<trkpt lat="20.955473" lon="107.049141">
<ele>16.707291</ele>
<time>2011-04-30T11:07:53Z</time>
<desc>lat.=20.955473, lon.=107.049141, Alt.=16.707291m. Speed=0.144000m/h.</desc>
<speed>0.040000</speed>
</trkpt>
<trkpt lat="20.955475" lon="107.049141">
<ele>16.568130</ele>
<time>2011-04-30T11:07:58Z</time>
<desc>lat.=20.955475, lon.=107.049141, Alt.=16.568130m. Speed=0.000000m/h.</desc>
<speed>0.000000</speed>
</trkpt>
<trkpt lat="20.955475" lon="107.049141">
<ele>16.236588</ele>
<time>2011-04-30T11:08:03Z</time>
<desc>lat.=20.955475, lon.=107.049141, Alt.=16.236588m. Speed=0.000000m/h.</desc>
<speed>0.000000</speed>
</trkpt>
<trkpt lat="20.955473" lon="107.049141">
<ele>16.069107</ele>
<time>2011-04-30T11:08:08Z</time>
<desc>lat.=20.955473, lon.=107.049141, Alt.=16.069107m. Speed=0.000000m/h.</desc>
<speed>0.000000</speed>
</trkpt>
<trkpt lat="20.955471" lon="107.049133">
<ele>16.636978</ele>
<time>2011-04-30T11:08:13Z</time>
<desc>lat.=20.955471, lon.=107.049133, Alt.=16.636978m. Speed=0.000000m/h.</desc>
<speed>0.000000</speed>
</trkpt>
<trkpt lat="20.955481" lon="107.049126">
<ele>17.480240</ele>
<time>2011-04-30T11:08:18Z</time>
<desc>lat.=20.955481, lon.=107.049126, Alt.=17.480240m. Speed=0.072000m/h.</desc>
<speed>0.020000</speed>
</trkpt>
<trkpt lat="20.955479" lon="107.049118">
<ele>18.669205</ele>
<time>2011-04-30T11:08:23Z</time>
<desc>lat.=20.955479, lon.=107.049118, Alt.=18.669205m. Speed=0.036000m/h.</desc>
<speed>0.010000</speed>
</trkpt>
<trkpt lat="20.955484" lon="107.049118">
<ele>19.221939</ele>
<time>2011-04-30T11:08:28Z</time>
<desc>lat.=20.955484, lon.=107.049118, Alt.=19.221939m. Speed=0.036000m/h.</desc>
<speed>0.010000</speed>
</trkpt>
<trkpt lat="20.955481" lon="107.049110">
<ele>20.296646</ele>
<time>2011-04-30T11:08:33Z</time>
<desc>lat.=20.955481, lon.=107.049110, Alt.=20.296646m. Speed=0.108000m/h.</desc>
<speed>0.030000</speed>
</trkpt>
<trkpt lat="20.955471" lon="107.049103">
<ele>20.926041</ele>
<time>2011-04-30T11:08:38Z</time>
<desc>lat.=20.955471, lon.=107.049103, Alt.=20.926041m. Speed=0.216000m/h.</desc>
<speed>0.060000</speed>
</trkpt>
<trkpt lat="20.955460" lon="107.049103">
<ele>20.405045</ele>
<time>2011-04-30T11:08:43Z</time>
<desc>lat.=20.955460, lon.=107.049103, Alt.=20.405045m. Speed=0.252000m/h.</desc>
<speed>0.070000</speed>
</trkpt>
<trkpt lat="20.955454" lon="107.049095">
<ele>20.135513</ele>
<time>2011-04-30T11:08:48Z</time>
<desc>lat.=20.955454, lon.=107.049095, Alt.=20.135513m. Speed=0.180000m/h.</desc>
<speed>0.050000</speed>
</trkpt>
<trkpt lat="20.955448" lon="107.049088">
<ele>20.377213</ele>
<time>2011-04-30T11:08:53Z</time>
<desc>lat.=20.955448, lon.=107.049088, Alt.=20.377213m. Speed=0.180000m/h.</desc>
<speed>0.050000</speed>
</trkpt>
<trkpt lat="20.955450" lon="107.049088">
<ele>20.324478</ele>
<time>2011-04-30T11:08:58Z</time>
<desc>lat.=20.955450, lon.=107.049088, Alt.=20.324478m. Speed=0.072000m/h.</desc>
<speed>0.020000</speed>
</trkpt>
<trkpt lat="20.955454" lon="107.049088">
<ele>20.584244</ele>
<time>2011-04-30T11:09:03Z</time>
<desc>lat.=20.955454, lon.=107.049088, Alt.=20.584244m. Speed=0.000000m/h.</desc>
<speed>0.000000</speed>
</trkpt>
<trkpt lat="20.955460" lon="107.049095">
<ele>20.761490</ele>
<time>2011-04-30T11:09:08Z</time>
<desc>lat.=20.955460, lon.=107.049095, Alt.=20.761490m. Speed=0.000000m/h.</desc>
<speed>0.000000</speed>
</trkpt>
<trkpt lat="20.955460" lon="107.049103">
<ele>20.273697</ele>
<time>2011-04-30T11:09:13Z</time>
<desc>lat.=20.955460, lon.=107.049103, Alt.=20.273697m. Speed=0.000000m/h.</desc>
<speed>0.000000</speed>
</trkpt>
<trkpt lat="20.955456" lon="107.049088">
<ele>19.724380</ele>
<time>2011-04-30T11:09:18Z</time>
<desc>lat.=20.955456, lon.=107.049088, Alt.=19.724380m. Speed=0.036000m/h.</desc>
<speed>0.010000</speed>
</trkpt>
<trkpt lat="20.955452" lon="107.049080">
<ele>19.926529</ele>
<time>2011-04-30T11:09:23Z</time>
<desc>lat.=20.955452, lon.=107.049080, Alt.=19.926529m. Speed=0.036000m/h.</desc>
<speed>0.010000</speed>
</trkpt>
<trkpt lat="20.955439" lon="107.049049">
<ele>20.852310</ele>
<time>2011-04-30T11:09:28Z</time>
<desc>lat.=20.955439, lon.=107.049049, Alt.=20.852310m. Speed=0.108000m/h.</desc>
<speed>0.030000</speed>
</trkpt>
<trkpt lat="20.955439" lon="107.049057">
<ele>20.686783</ele>
<time>2011-04-30T11:09:33Z</time>
<desc>lat.=20.955439, lon.=107.049057, Alt.=20.686783m. Speed=0.072000m/h.</desc>
<speed>0.020000</speed>
</trkpt>
<trkpt lat="20.955435" lon="107.049065">
<ele>19.594986</ele>
<time>2011-04-30T11:09:38Z</time>
<desc>lat.=20.955435, lon.=107.049065, Alt.=19.594986m. Speed=0.000000m/h.</desc>
<speed>0.000000</speed>
</trkpt>
<trkpt lat="20.955433" lon="107.049065">
<ele>17.951431</ele>
<time>2011-04-30T11:09:43Z</time>
<desc>lat.=20.955433, lon.=107.049065, Alt.=17.951431m. Speed=0.072000m/h.</desc>
<speed>0.020000</speed>
</trkpt>
<trkpt lat="20.955437" lon="107.049072">
<ele>18.068619</ele>
<time>2011-04-30T11:09:48Z</time>
<desc>lat.=20.955437, lon.=107.049072, Alt.=18.068619m. Speed=0.000000m/h.</desc>
<speed>0.000000</speed>
</trkpt>
<trkpt lat="20.955441" lon="107.049072">
<ele>18.500259</ele>
<time>2011-04-30T11:09:53Z</time>
<desc>lat.=20.955441, lon.=107.049072, Alt.=18.500259m. Speed=0.000000m/h.</desc>
<speed>0.000000</speed>
</trkpt>
<trkpt lat="20.955446" lon="107.049088">
<ele>18.663345</ele>
<time>2011-04-30T11:09:58Z</time>
<desc>lat.=20.955446, lon.=107.049088, Alt.=18.663345m. Speed=0.216000m/h.</desc>
<speed>0.060000</speed>
</trkpt>
<trkpt lat="20.955456" lon="107.049110">
<ele>18.844986</ele>
<time>2011-04-30T11:10:03Z</time>
<desc>lat.=20.955456, lon.=107.049110, Alt.=18.844986m. Speed=0.468000m/h.</desc>
<speed>0.130000</speed>
</trkpt>
<trkpt lat="20.955454" lon="107.049095">
<ele>19.598404</ele>
<time>2011-04-30T11:10:08Z</time>
<desc>lat.=20.955454, lon.=107.049095, Alt.=19.598404m. Speed=0.144000m/h.</desc>
<speed>0.040000</speed>
</trkpt>
<trkpt lat="20.955446" lon="107.049080">
<ele>20.148697</ele>
<time>2011-04-30T11:10:13Z</time>
<desc>lat.=20.955446, lon.=107.049080, Alt.=20.148697m. Speed=0.108000m/h.</desc>
<speed>0.030000</speed>
</trkpt>
<trkpt lat="20.955446" lon="107.049072">
<ele>20.026138</ele>
<time>2011-04-30T11:10:18Z</time>
<desc>lat.=20.955446, lon.=107.049072, Alt.=20.026138m. Speed=0.108000m/h.</desc>
<speed>0.030000</speed>
</trkpt>
<trkpt lat="20.955446" lon="107.049080">
<ele>19.554459</ele>
<time>2011-04-30T11:10:23Z</time>
<desc>lat.=20.955446, lon.=107.049080, Alt.=19.554459m. Speed=0.036000m/h.</desc>
<speed>0.010000</speed>
</trkpt>
<trkpt lat="20.955450" lon="107.049095">
<ele>18.982681</ele>
<time>2011-04-30T11:10:28Z</time>
<desc>lat.=20.955450, lon.=107.049095, Alt.=18.982681m. Speed=0.036000m/h.</desc>
<speed>0.010000</speed>
</trkpt>
<trkpt lat="20.955452" lon="107.049095">
<ele>18.738052</ele>
<time>2011-04-30T11:10:33Z</time>
<desc>lat.=20.955452, lon.=107.049095, Alt.=18.738052m. Speed=0.000000m/h.</desc>
<speed>0.000000</speed>
</trkpt>
<trkpt lat="20.955458" lon="107.049088">
<ele>17.754166</ele>
<time>2011-04-30T11:10:38Z</time>
<desc>lat.=20.955458, lon.=107.049088, Alt.=17.754166m. Speed=0.000000m/h.</desc>
<speed>0.000000</speed>
</trkpt>
<trkpt lat="20.955471" lon="107.049103">
<ele>18.829361</ele>
<time>2011-04-30T11:10:43Z</time>
<desc>lat.=20.955471, lon.=107.049103, Alt.=18.829361m. Speed=0.180000m/h.</desc>
<speed>0.050000</speed>
</trkpt>
<trkpt lat="20.955458" lon="107.049065">
<ele>20.528091</ele>
<time>2011-04-30T11:10:48Z</time>
<desc>lat.=20.955458, lon.=107.049065, Alt.=20.528091m. Speed=0.288000m/h.</desc>
<speed>0.080000</speed>
</trkpt>
<trkpt lat="20.955450" lon="107.049065">
<ele>20.193130</ele>
<time>2011-04-30T11:10:53Z</time>
<desc>lat.=20.955450, lon.=107.049065, Alt.=20.193130m. Speed=0.000000m/h.</desc>
<speed>0.000000</speed>
</trkpt>
<trkpt lat="20.955456" lon="107.049080">
<ele>20.723404</ele>
<time>2011-04-30T11:10:58Z</time>
<desc>lat.=20.955456, lon.=107.049080, Alt.=20.723404m. Speed=0.000000m/h.</desc>
<speed>0.000000</speed>
</trkpt>
<trkpt lat="20.955454" lon="107.049080">
<ele>21.605728</ele>
<time>2011-04-30T11:11:03Z</time>
<desc>lat.=20.955454, lon.=107.049080, Alt.=21.605728m. Speed=0.036000m/h.</desc>
<speed>0.010000</speed>
</trkpt>
<trkpt lat="20.955456" lon="107.049088">
<ele>21.467545</ele>
<time>2011-04-30T11:11:08Z</time>
<desc>lat.=20.955456, lon.=107.049088, Alt.=21.467545m. Speed=0.036000m/h.</desc>
<speed>0.010000</speed>
</trkpt>
<trkpt lat="20.955454" lon="107.049088">
<ele>21.283463</ele>
<time>2011-04-30T11:11:13Z</time>
<desc>lat.=20.955454, lon.=107.049088, Alt.=21.283463m. Speed=0.036000m/h.</desc>
<speed>0.010000</speed>
</trkpt>
<trkpt lat="20.955444" lon="107.049065">
<ele>21.707779</ele>
<time>2011-04-30T11:11:18Z</time>
<desc>lat.=20.955444, lon.=107.049065, Alt.=21.707779m. Speed=0.000000m/h.</desc>
<speed>0.000000</speed>
</trkpt>
<trkpt lat="20.955454" lon="107.049065">
<ele>22.774185</ele>
<time>2011-04-30T11:11:23Z</time>
<desc>lat.=20.955454, lon.=107.049065, Alt.=22.774185m. Speed=0.036000m/h.</desc>
<speed>0.010000</speed>
</trkpt>
<trkpt lat="20.955454" lon="107.049065">
<ele>22.755630</ele>
<time>2011-04-30T11:11:28Z</time>
<desc>lat.=20.955454, lon.=107.049065, Alt.=22.755630m. Speed=0.000000m/h.</desc>
<speed>0.000000</speed>
</trkpt>
<trkpt lat="20.955452" lon="107.049065">
<ele>22.609146</ele>
<time>2011-04-30T11:11:33Z</time>
<desc>lat.=20.955452, lon.=107.049065, Alt.=22.609146m. Speed=0.000000m/h.</desc>
<speed>0.000000</speed>
</trkpt>
<trkpt lat="20.955465" lon="107.049095">
<ele>21.180435</ele>
<time>2011-04-30T11:11:38Z</time>
<desc>lat.=20.955465, lon.=107.049095, Alt.=21.180435m. Speed=0.432000m/h.</desc>
<speed>0.120000</speed>
</trkpt>
<trkpt lat="20.955462" lon="107.049095">
<ele>20.841080</ele>
<time>2011-04-30T11:11:43Z</time>
<desc>lat.=20.955462, lon.=107.049095, Alt.=20.841080m. Speed=0.216000m/h.</desc>
<speed>0.060000</speed>
</trkpt>
<trkpt lat="20.955462" lon="107.049126">
<ele>20.424088</ele>
<time>2011-04-30T11:11:48Z</time>
<desc>lat.=20.955462, lon.=107.049126, Alt.=20.424088m. Speed=0.432000m/h.</desc>
<speed>0.120000</speed>
</trkpt>
<trkpt lat="20.955454" lon="107.049126">
<ele>19.453384</ele>
<time>2011-04-30T11:11:53Z</time>
<desc>lat.=20.955454, lon.=107.049126, Alt.=19.453384m. Speed=0.180000m/h.</desc>
<speed>0.050000</speed>
</trkpt>
<trkpt lat="20.955448" lon="107.049110">
<ele>20.253189</ele>
<time>2011-04-30T11:11:58Z</time>
<desc>lat.=20.955448, lon.=107.049110, Alt.=20.253189m. Speed=0.036000m/h.</desc>
<speed>0.010000</speed>
</trkpt>
<trkpt lat="20.955452" lon="107.049118">
<ele>21.360123</ele>
<time>2011-04-30T11:12:03Z</time>
<desc>lat.=20.955452, lon.=107.049118, Alt.=21.360123m. Speed=0.216000m/h.</desc>
<speed>0.060000</speed>
</trkpt>
<trkpt lat="20.955463" lon="107.049141">
<ele>21.956314</ele>
<time>2011-04-30T11:12:08Z</time>
<desc>lat.=20.955463, lon.=107.049141, Alt.=21.956314m. Speed=0.540000m/h.</desc>
<speed>0.150000</speed>
</trkpt>
<trkpt lat="20.955458" lon="107.049133">
<ele>21.587662</ele>
<time>2011-04-30T11:12:13Z</time>
<desc>lat.=20.955458, lon.=107.049133, Alt.=21.587662m. Speed=0.216000m/h.</desc>
<speed>0.060000</speed>
</trkpt>
<trkpt lat="20.955448" lon="107.049103">
<ele>22.785416</ele>
<time>2011-04-30T11:12:18Z</time>
<desc>lat.=20.955448, lon.=107.049103, Alt.=22.785416m. Speed=0.180000m/h.</desc>
<speed>0.050000</speed>
</trkpt>
<trkpt lat="20.955442" lon="107.049095">
<ele>23.522232</ele>
<time>2011-04-30T11:12:23Z</time>
<desc>lat.=20.955442, lon.=107.049095, Alt.=23.522232m. Speed=0.252000m/h.</desc>
<speed>0.070000</speed>
</trkpt>
<trkpt lat="20.955442" lon="107.049095">
<ele>23.420181</ele>
<time>2011-04-30T11:12:28Z</time>
<desc>lat.=20.955442, lon.=107.049095, Alt.=23.420181m. Speed=0.072000m/h.</desc>
<speed>0.020000</speed>
</trkpt>
<trkpt lat="20.955448" lon="107.049110">
<ele>23.535904</ele>
<time>2011-04-30T11:12:33Z</time>
<desc>lat.=20.955448, lon.=107.049110, Alt.=23.535904m. Speed=0.036000m/h.</desc>
<speed>0.010000</speed>
</trkpt>
<trkpt lat="20.955460" lon="107.049141">
<ele>24.356216</ele>
<time>2011-04-30T11:12:38Z</time>
<desc>lat.=20.955460, lon.=107.049141, Alt.=24.356216m. Speed=0.108000m/h.</desc>
<speed>0.030000</speed>
</trkpt>
<trkpt lat="20.955463" lon="107.049149">
<ele>25.033463</ele>
<time>2011-04-30T11:12:43Z</time>
<desc>lat.=20.955463, lon.=107.049149, Alt.=25.033463m. Speed=0.036000m/h.</desc>
<speed>0.010000</speed>
</trkpt>
<trkpt lat="20.955463" lon="107.049141">
<ele>24.689713</ele>
<time>2011-04-30T11:12:48Z</time>
<desc>lat.=20.955463, lon.=107.049141, Alt.=24.689713m. Speed=0.036000m/h.</desc>
<speed>0.010000</speed>
</trkpt>
<trkpt lat="20.955465" lon="107.049141">
<ele>24.352798</ele>
<time>2011-04-30T11:12:53Z</time>
<desc>lat.=20.955465, lon.=107.049141, Alt.=24.352798m. Speed=0.000000m/h.</desc>
<speed>0.000000</speed>
</trkpt>
<trkpt lat="20.955469" lon="107.049149">
<ele>23.298111</ele>
<time>2011-04-30T11:12:58Z</time>
<desc>lat.=20.955469, lon.=107.049149, Alt.=23.298111m. Speed=0.036000m/h.</desc>
<speed>0.010000</speed>
</trkpt>
<trkpt lat="20.955454" lon="107.049110">
<ele>24.084244</ele>
<time>2011-04-30T11:13:03Z</time>
<desc>lat.=20.955454, lon.=107.049110, Alt.=24.084244m. Speed=0.144000m/h.</desc>
<speed>0.040000</speed>
</trkpt>
<trkpt lat="20.955446" lon="107.049095">
<ele>23.618912</ele>
<time>2011-04-30T11:13:08Z</time>
<desc>lat.=20.955446, lon.=107.049095, Alt.=23.618912m. Speed=0.036000m/h.</desc>
<speed>0.010000</speed>
</trkpt>
<trkpt lat="20.955448" lon="107.049095">
<ele>23.365982</ele>
<time>2011-04-30T11:13:13Z</time>
<desc>lat.=20.955448, lon.=107.049095, Alt.=23.365982m. Speed=0.000000m/h.</desc>
<speed>0.000000</speed>
</trkpt>
<trkpt lat="20.955448" lon="107.049088">
<ele>21.490982</ele>
<time>2011-04-30T11:13:18Z</time>
<desc>lat.=20.955448, lon.=107.049088, Alt.=21.490982m. Speed=0.000000m/h.</desc>
<speed>0.000000</speed>
</trkpt>
<trkpt lat="20.955454" lon="107.049095">
<ele>20.956314</ele>
<time>2011-04-30T11:13:23Z</time>
<desc>lat.=20.955454, lon.=107.049095, Alt.=20.956314m. Speed=0.000000m/h.</desc>
<speed>0.000000</speed>
</trkpt>
<trkpt lat="20.955456" lon="107.049080">
<ele>21.140396</ele>
<time>2011-04-30T11:13:28Z</time>
<desc>lat.=20.955456, lon.=107.049080, Alt.=21.140396m. Speed=0.036000m/h.</desc>
<speed>0.010000</speed>
</trkpt>
<trkpt lat="20.955458" lon="107.049103">
<ele>19.741470</ele>
<time>2011-04-30T11:13:33Z</time>
<desc>lat.=20.955458, lon.=107.049103, Alt.=19.741470m. Speed=0.036000m/h.</desc>
<speed>0.010000</speed>
</trkpt>
<trkpt lat="20.955456" lon="107.049103">
<ele>19.307877</ele>
<time>2011-04-30T11:13:38Z</time>
<desc>lat.=20.955456, lon.=107.049103, Alt.=19.307877m. Speed=0.000000m/h.</desc>
<speed>0.000000</speed>
</trkpt>
<trkpt lat="20.955456" lon="107.049103">
<ele>19.327408</ele>
<time>2011-04-30T11:13:43Z</time>
<desc>lat.=20.955456, lon.=107.049103, Alt.=19.327408m. Speed=0.036000m/h.</desc>
<speed>0.010000</speed>
</trkpt>
<trkpt lat="20.955456" lon="107.049103">
<ele>19.333755</ele>
<time>2011-04-30T11:13:48Z</time>
<desc>lat.=20.955456, lon.=107.049103, Alt.=19.333755m. Speed=0.000000m/h.</desc>
<speed>0.000000</speed>
</trkpt>
<trkpt lat="20.955456" lon="107.049103">
<ele>19.324966</ele>
<time>2011-04-30T11:13:53Z</time>
<desc>lat.=20.955456, lon.=107.049103, Alt.=19.324966m. Speed=0.036000m/h.</desc>
<speed>0.010000</speed>
</trkpt>
<trkpt lat="20.955456" lon="107.049103">
<ele>19.326920</ele>
<time>2011-04-30T11:13:58Z</time>
<desc>lat.=20.955456, lon.=107.049103, Alt.=19.326920m. Speed=0.000000m/h.</desc>
<speed>0.000000</speed>
</trkpt>
<trkpt lat="20.955456" lon="107.049103">
<ele>19.367447</ele>
<time>2011-04-30T11:14:03Z</time>
<desc>lat.=20.955456, lon.=107.049103, Alt.=19.367447m. Speed=0.036000m/h.</desc>
<speed>0.010000</speed>
</trkpt>
<trkpt lat="20.955456" lon="107.049103">
<ele>19.408951</ele>
<time>2011-04-30T11:14:08Z</time>
<desc>lat.=20.955456, lon.=107.049103, Alt.=19.408951m. Speed=0.036000m/h.</desc>
<speed>0.010000</speed>
</trkpt>
<trkpt lat="20.955456" lon="107.049103">
<ele>19.425064</ele>
<time>2011-04-30T11:14:13Z</time>
<desc>lat.=20.955456, lon.=107.049103, Alt.=19.425064m. Speed=0.108000m/h.</desc>
<speed>0.030000</speed>
</trkpt>
<trkpt lat="20.955458" lon="107.049103">
<ele>19.453873</ele>
<time>2011-04-30T11:14:18Z</time>
<desc>lat.=20.955458, lon.=107.049103, Alt.=19.453873m. Speed=0.072000m/h.</desc>
<speed>0.020000</speed>
</trkpt>
<trkpt lat="20.955458" lon="107.049110">
<ele>19.452896</ele>
<time>2011-04-30T11:14:23Z</time>
<desc>lat.=20.955458, lon.=107.049110, Alt.=19.452896m. Speed=0.036000m/h.</desc>
<speed>0.010000</speed>
</trkpt>
<trkpt lat="20.955458" lon="107.049110">
<ele>19.454361</ele>
<time>2011-04-30T11:14:28Z</time>
<desc>lat.=20.955458, lon.=107.049110, Alt.=19.454361m. Speed=0.000000m/h.</desc>
<speed>0.000000</speed>
</trkpt>
<trkpt lat="20.955458" lon="107.049110">
<ele>19.473404</ele>
<time>2011-04-30T11:14:33Z</time>
<desc>lat.=20.955458, lon.=107.049110, Alt.=19.473404m. Speed=0.000000m/h.</desc>
<speed>0.000000</speed>
</trkpt>
<trkpt lat="20.955458" lon="107.049110">
<ele>19.490494</ele>
<time>2011-04-30T11:14:38Z</time>
<desc>lat.=20.955458, lon.=107.049110, Alt.=19.490494m. Speed=0.000000m/h.</desc>
<speed>0.000000</speed>
</trkpt>
<trkpt lat="20.955458" lon="107.049110">
<ele>19.519302</ele>
<time>2011-04-30T11:14:43Z</time>
<desc>lat.=20.955458, lon.=107.049110, Alt.=19.519302m. Speed=0.036000m/h.</desc>
<speed>0.010000</speed>
</trkpt>
<trkpt lat="20.955458" lon="107.049110">
<ele>19.548111</ele>
<time>2011-04-30T11:14:48Z</time>
<desc>lat.=20.955458, lon.=107.049110, Alt.=19.548111m. Speed=0.072000m/h.</desc>
<speed>0.020000</speed>
</trkpt>
<trkpt lat="20.955458" lon="107.049110">
<ele>19.597916</ele>
<time>2011-04-30T11:14:53Z</time>
<desc>lat.=20.955458, lon.=107.049110, Alt.=19.597916m. Speed=0.000000m/h.</desc>
<speed>0.000000</speed>
</trkpt>
<trkpt lat="20.955460" lon="107.049110">
<ele>19.630142</ele>
<time>2011-04-30T11:14:58Z</time>
<desc>lat.=20.955460, lon.=107.049110, Alt.=19.630142m. Speed=0.000000m/h.</desc>
<speed>0.000000</speed>
</trkpt>
<trkpt lat="20.955460" lon="107.049110">
<ele>19.679459</ele>
<time>2011-04-30T11:15:03Z</time>
<desc>lat.=20.955460, lon.=107.049110, Alt.=19.679459m. Speed=0.072000m/h.</desc>
<speed>0.020000</speed>
</trkpt>
<trkpt lat="20.955460" lon="107.049110">
<ele>19.711685</ele>
<time>2011-04-30T11:15:08Z</time>
<desc>lat.=20.955460, lon.=107.049110, Alt.=19.711685m. Speed=0.000000m/h.</desc>
<speed>0.000000</speed>
</trkpt>
<trkpt lat="20.955460" lon="107.049110">
<ele>19.715103</ele>
<time>2011-04-30T11:15:13Z</time>
<desc>lat.=20.955460, lon.=107.049110, Alt.=19.715103m. Speed=0.036000m/h.</desc>
<speed>0.010000</speed>
</trkpt>
<trkpt lat="20.955460" lon="107.049110">
<ele>19.703873</ele>
<time>2011-04-30T11:15:18Z</time>
<desc>lat.=20.955460, lon.=107.049110, Alt.=19.703873m. Speed=0.036000m/h.</desc>
<speed>0.010000</speed>
</trkpt>
<trkpt lat="20.955460" lon="107.049110">
<ele>19.678482</ele>
<time>2011-04-30T11:15:23Z</time>
<desc>lat.=20.955460, lon.=107.049110, Alt.=19.678482m. Speed=0.072000m/h.</desc>
<speed>0.020000</speed>
</trkpt>
<trkpt lat="20.955462" lon="107.049110">
<ele>19.641861</ele>
<time>2011-04-30T11:15:28Z</time>
<desc>lat.=20.955462, lon.=107.049110, Alt.=19.641861m. Speed=0.252000m/h.</desc>
<speed>0.070000</speed>
</trkpt>
<trkpt lat="20.955462" lon="107.049103">
<ele>19.617447</ele>
<time>2011-04-30T11:15:33Z</time>
<desc>lat.=20.955462, lon.=107.049103, Alt.=19.617447m. Speed=0.072000m/h.</desc>
<speed>0.020000</speed>
</trkpt>
<trkpt lat="20.955462" lon="107.049103">
<ele>19.615005</ele>
<time>2011-04-30T11:15:38Z</time>
<desc>lat.=20.955462, lon.=107.049103, Alt.=19.615005m. Speed=0.000000m/h.</desc>
<speed>0.000000</speed>
</trkpt>
<trkpt lat="20.955462" lon="107.049103">
<ele>19.628677</ele>
<time>2011-04-30T11:15:43Z</time>
<desc>lat.=20.955462, lon.=107.049103, Alt.=19.628677m. Speed=0.000000m/h.</desc>
<speed>0.000000</speed>
</trkpt>
<trkpt lat="20.955462" lon="107.049103">
<ele>19.568619</ele>
<time>2011-04-30T11:15:48Z</time>
<desc>lat.=20.955462, lon.=107.049103, Alt.=19.568619m. Speed=0.000000m/h.</desc>
<speed>0.000000</speed>
</trkpt>
<trkpt lat="20.955460" lon="107.049103">
<ele>19.539810</ele>
<time>2011-04-30T11:15:53Z</time>
<desc>lat.=20.955460, lon.=107.049103, Alt.=19.539810m. Speed=0.180000m/h.</desc>
<speed>0.050000</speed>
</trkpt>
<trkpt lat="20.955460" lon="107.049103">
<ele>19.536880</ele>
<time>2011-04-30T11:15:58Z</time>
<desc>lat.=20.955460, lon.=107.049103, Alt.=19.536880m. Speed=0.108000m/h.</desc>
<speed>0.030000</speed>
</trkpt>
<trkpt lat="20.955460" lon="107.049103">
<ele>19.523209</ele>
<time>2011-04-30T11:16:03Z</time>
<desc>lat.=20.955460, lon.=107.049103, Alt.=19.523209m. Speed=0.000000m/h.</desc>
<speed>0.000000</speed>
</trkpt>
<trkpt lat="20.955460" lon="107.049103">
<ele>19.510513</ele>
<time>2011-04-30T11:16:08Z</time>
<desc>lat.=20.955460, lon.=107.049103, Alt.=19.510513m. Speed=0.000000m/h.</desc>
<speed>0.000000</speed>
</trkpt>
<trkpt lat="20.955458" lon="107.049103">
<ele>19.492935</ele>
<time>2011-04-30T11:16:13Z</time>
<desc>lat.=20.955458, lon.=107.049103, Alt.=19.492935m. Speed=0.072000m/h.</desc>
<speed>0.020000</speed>
</trkpt>
<trkpt lat="20.955458" lon="107.049103">
<ele>19.467545</ele>
<time>2011-04-30T11:16:18Z</time>
<desc>lat.=20.955458, lon.=107.049103, Alt.=19.467545m. Speed=0.072000m/h.</desc>
<speed>0.020000</speed>
</trkpt>
<trkpt lat="20.955458" lon="107.049103">
<ele>19.385025</ele>
<time>2011-04-30T11:16:23Z</time>
<desc>lat.=20.955458, lon.=107.049103, Alt.=19.385025m. Speed=0.324000m/h.</desc>
<speed>0.090000</speed>
</trkpt>
<trkpt lat="20.955460" lon="107.049103">
<ele>19.329849</ele>
<time>2011-04-30T11:16:28Z</time>
<desc>lat.=20.955460, lon.=107.049103, Alt.=19.329849m. Speed=0.936000m/h.</desc>
<speed>0.260000</speed>
</trkpt>
<trkpt lat="20.955490" lon="107.049103">
<ele>18.177017</ele>
<time>2011-04-30T11:16:33Z</time>
<desc>lat.=20.955490, lon.=107.049103, Alt.=18.177017m. Speed=3.456000m/h.</desc>
<speed>0.960000</speed>
</trkpt>
<trkpt lat="20.955524" lon="107.049103">
<ele>18.004166</ele>
<time>2011-04-30T11:16:38Z</time>
<desc>lat.=20.955524, lon.=107.049103, Alt.=18.004166m. Speed=3.024000m/h.</desc>
<speed>0.840000</speed>
</trkpt>
<trkpt lat="20.955538" lon="107.049118">
<ele>18.382584</ele>
<time>2011-04-30T11:16:43Z</time>
<desc>lat.=20.955538, lon.=107.049118, Alt.=18.382584m. Speed=0.036000m/h.</desc>
<speed>0.010000</speed>
</trkpt>
<trkpt lat="20.955534" lon="107.049103">
<ele>17.026138</ele>
<time>2011-04-30T11:16:48Z</time>
<desc>lat.=20.955534, lon.=107.049103, Alt.=17.026138m. Speed=1.980000m/h.</desc>
<speed>0.550000</speed>
</trkpt>
<trkpt lat="20.955538" lon="107.049095">
<ele>15.174446</ele>
<time>2011-04-30T11:16:53Z</time>
<desc>lat.=20.955538, lon.=107.049095, Alt.=15.174446m. Speed=0.036000m/h.</desc>
<speed>0.010000</speed>
</trkpt>
<trkpt lat="20.955536" lon="107.049088">
<ele>14.607552</ele>
<time>2011-04-30T11:16:58Z</time>
<desc>lat.=20.955536, lon.=107.049088, Alt.=14.607552m. Speed=2.556000m/h.</desc>
<speed>0.710000</speed>
</trkpt>
<trkpt lat="20.955534" lon="107.049065">
<ele>14.028450</ele>
<time>2011-04-30T11:17:03Z</time>
<desc>lat.=20.955534, lon.=107.049065, Alt.=14.028450m. Speed=2.628000m/h.</desc>
<speed>0.730000</speed>
</trkpt>
<trkpt lat="20.955528" lon="107.049042">
<ele>13.509407</ele>
<time>2011-04-30T11:17:08Z</time>
<desc>lat.=20.955528, lon.=107.049042, Alt.=13.509407m. Speed=0.036000m/h.</desc>
<speed>0.010000</speed>
</trkpt>
<trkpt lat="20.955509" lon="107.049042">
<ele>12.707161</ele>
<time>2011-04-30T11:17:13Z</time>
<desc>lat.=20.955509, lon.=107.049042, Alt.=12.707161m. Speed=1.332000m/h.</desc>
<speed>0.370000</speed>
</trkpt>
<trkpt lat="20.955502" lon="107.049042">
<ele>11.349495</ele>
<time>2011-04-30T11:17:18Z</time>
<desc>lat.=20.955502, lon.=107.049042, Alt.=11.349495m. Speed=2.556000m/h.</desc>
<speed>0.710000</speed>
</trkpt>
<trkpt lat="20.955463" lon="107.049057">
<ele>10.701790</ele>
<time>2011-04-30T11:17:23Z</time>
<desc>lat.=20.955463, lon.=107.049057, Alt.=10.701790m. Speed=3.528000m/h.</desc>
<speed>0.980000</speed>
</trkpt>
<trkpt lat="20.955442" lon="107.049065">
<ele>10.211067</ele>
<time>2011-04-30T11:17:28Z</time>
<desc>lat.=20.955442, lon.=107.049065, Alt.=10.211067m. Speed=0.684000m/h.</desc>
<speed>0.190000</speed>
</trkpt>
<trkpt lat="20.955393" lon="107.049088">
<ele>10.988655</ele>
<time>2011-04-30T11:17:33Z</time>
<desc>lat.=20.955393, lon.=107.049088, Alt.=10.988655m. Speed=2.736000m/h.</desc>
<speed>0.760000</speed>
</trkpt>
<trkpt lat="20.955366" lon="107.049118">
<ele>12.242561</ele>
<time>2011-04-30T11:17:38Z</time>
<desc>lat.=20.955366, lon.=107.049118, Alt.=12.242561m. Speed=1.836000m/h.</desc>
<speed>0.510000</speed>
</trkpt>
<trkpt lat="20.955343" lon="107.049141">
<ele>13.521126</ele>
<time>2011-04-30T11:17:43Z</time>
<desc>lat.=20.955343, lon.=107.049141, Alt.=13.521126m. Speed=2.988000m/h.</desc>
<speed>0.830000</speed>
</trkpt>
<trkpt lat="20.955292" lon="107.049141">
<ele>12.638313</ele>
<time>2011-04-30T11:17:48Z</time>
<desc>lat.=20.955292, lon.=107.049141, Alt.=12.638313m. Speed=2.988000m/h.</desc>
<speed>0.830000</speed>
</trkpt>
<trkpt lat="20.955252" lon="107.049118">
<ele>10.936165</ele>
<time>2011-04-30T11:17:53Z</time>
<desc>lat.=20.955252, lon.=107.049118, Alt.=10.936165m. Speed=3.240000m/h.</desc>
<speed>0.900000</speed>
</trkpt>
<trkpt lat="20.955229" lon="107.049095">
<ele>10.143929</ele>
<time>2011-04-30T11:17:58Z</time>
<desc>lat.=20.955229, lon.=107.049095, Alt.=10.143929m. Speed=3.636000m/h.</desc>
<speed>1.010000</speed>
</trkpt>
<trkpt lat="20.955187" lon="107.049103">
<ele>9.645882</ele>
<time>2011-04-30T11:18:03Z</time>
<desc>lat.=20.955187, lon.=107.049103, Alt.=9.645882m. Speed=3.816000m/h.</desc>
<speed>1.060000</speed>
</trkpt>
<trkpt lat="20.955151" lon="107.049126">
<ele>9.614143</ele>
<time>2011-04-30T11:18:08Z</time>
<desc>lat.=20.955151, lon.=107.049126, Alt.=9.614143m. Speed=3.744000m/h.</desc>
<speed>1.040000</speed>
</trkpt>
<trkpt lat="20.955116" lon="107.049141">
<ele>10.401985</ele>
<time>2011-04-30T11:18:13Z</time>
<desc>lat.=20.955116, lon.=107.049141, Alt.=10.401985m. Speed=3.204000m/h.</desc>
<speed>0.890000</speed>
</trkpt>
<trkpt lat="20.955078" lon="107.049149">
<ele>10.698372</ele>
<time>2011-04-30T11:18:18Z</time>
<desc>lat.=20.955078, lon.=107.049149, Alt.=10.698372m. Speed=2.952000m/h.</desc>
<speed>0.820000</speed>
</trkpt>
<trkpt lat="20.955046" lon="107.049118">
<ele>10.198616</ele>
<time>2011-04-30T11:18:23Z</time>
<desc>lat.=20.955046, lon.=107.049118, Alt.=10.198616m. Speed=4.032000m/h.</desc>
<speed>1.120000</speed>
</trkpt>
<trkpt lat="20.955027" lon="107.049080">
<ele>10.455208</ele>
<time>2011-04-30T11:18:28Z</time>
<desc>lat.=20.955027, lon.=107.049080, Alt.=10.455208m. Speed=3.168000m/h.</desc>
<speed>0.880000</speed>
</trkpt>
<trkpt lat="20.955002" lon="107.049049">
<ele>10.407600</ele>
<time>2011-04-30T11:18:33Z</time>
<desc>lat.=20.955002, lon.=107.049049, Alt.=10.407600m. Speed=3.312000m/h.</desc>
<speed>0.920000</speed>
</trkpt>
<trkpt lat="20.955009" lon="107.049026">
<ele>10.994270</ele>
<time>2011-04-30T11:18:38Z</time>
<desc>lat.=20.955009, lon.=107.049026, Alt.=10.994270m. Speed=2.412000m/h.</desc>
<speed>0.670000</speed>
</trkpt>
<trkpt lat="20.955017" lon="107.049004">
<ele>10.426399</ele>
<time>2011-04-30T11:18:43Z</time>
<desc>lat.=20.955017, lon.=107.049004, Alt.=10.426399m. Speed=2.556000m/h.</desc>
<speed>0.710000</speed>
</trkpt>
<trkpt lat="20.955040" lon="107.048988">
<ele>10.276497</ele>
<time>2011-04-30T11:18:48Z</time>
<desc>lat.=20.955040, lon.=107.048988, Alt.=10.276497m. Speed=2.700000m/h.</desc>
<speed>0.750000</speed>
</trkpt>
<trkpt lat="20.955057" lon="107.048988">
<ele>10.784065</ele>
<time>2011-04-30T11:18:53Z</time>
<desc>lat.=20.955057, lon.=107.048988, Alt.=10.784065m. Speed=2.304000m/h.</desc>
<speed>0.640000</speed>
</trkpt>
<trkpt lat="20.955059" lon="107.048958">
<ele>10.426888</ele>
<time>2011-04-30T11:18:58Z</time>
<desc>lat.=20.955059, lon.=107.048958, Alt.=10.426888m. Speed=1.656000m/h.</desc>
<speed>0.460000</speed>
</trkpt>
<trkpt lat="20.955053" lon="107.048943">
<ele>10.069710</ele>
<time>2011-04-30T11:19:03Z</time>
<desc>lat.=20.955053, lon.=107.048943, Alt.=10.069710m. Speed=2.988000m/h.</desc>
<speed>0.830000</speed>
</trkpt>
<trkpt lat="20.955040" lon="107.048904">
<ele>9.639046</ele>
<time>2011-04-30T11:19:08Z</time>
<desc>lat.=20.955040, lon.=107.048904, Alt.=9.639046m. Speed=2.268000m/h.</desc>
<speed>0.630000</speed>
</trkpt>
<trkpt lat="20.955048" lon="107.048882">
<ele>9.298225</ele>
<time>2011-04-30T11:19:13Z</time>
<desc>lat.=20.955048, lon.=107.048882, Alt.=9.298225m. Speed=2.700000m/h.</desc>
<speed>0.750000</speed>
</trkpt>
<trkpt lat="20.955038" lon="107.048843">
<ele>8.786018</ele>
<time>2011-04-30T11:19:18Z</time>
<desc>lat.=20.955038, lon.=107.048843, Alt.=8.786018m. Speed=3.528000m/h.</desc>
<speed>0.980000</speed>
</trkpt>
<trkpt lat="20.955021" lon="107.048820">
<ele>8.564827</ele>
<time>2011-04-30T11:19:23Z</time>
<desc>lat.=20.955021, lon.=107.048820, Alt.=8.564827m. Speed=1.800000m/h.</desc>
<speed>0.500000</speed>
</trkpt>
<trkpt lat="20.955021" lon="107.048813">
<ele>8.655403</ele>
<time>2011-04-30T11:19:28Z</time>
<desc>lat.=20.955021, lon.=107.048813, Alt.=8.655403m. Speed=1.620000m/h.</desc>
<speed>0.450000</speed>
</trkpt>
<trkpt lat="20.955002" lon="107.048805">
<ele>6.621403</ele>
<time>2011-04-30T11:19:33Z</time>
<desc>lat.=20.955002, lon.=107.048805, Alt.=6.621403m. Speed=0.144000m/h.</desc>
<speed>0.040000</speed>
</trkpt>
<trkpt lat="20.955008" lon="107.048813">
<ele>5.561588</ele>
<time>2011-04-30T11:19:38Z</time>
<desc>lat.=20.955008, lon.=107.048813, Alt.=5.561588m. Speed=1.008000m/h.</desc>
<speed>0.280000</speed>
</trkpt>
<trkpt lat="20.955000" lon="107.048813">
<ele>4.341496</ele>
<time>2011-04-30T11:19:43Z</time>
<desc>lat.=20.955000, lon.=107.048813, Alt.=4.341496m. Speed=0.036000m/h.</desc>
<speed>0.010000</speed>
</trkpt>
<trkpt lat="20.954994" lon="107.048813">
<ele>2.921297</ele>
<time>2011-04-30T11:19:48Z</time>
<desc>lat.=20.954994, lon.=107.048813, Alt.=2.921297m. Speed=0.144000m/h.</desc>
<speed>0.040000</speed>
</trkpt>
<trkpt lat="20.954994" lon="107.048813">
<ele>2.853060</ele>
<time>2011-04-30T11:19:53Z</time>
<desc>lat.=20.954994, lon.=107.048813, Alt.=2.853060m. Speed=0.036000m/h.</desc>
<speed>0.010000</speed>
</trkpt>
<trkpt lat="20.954994" lon="107.048813">
<ele>2.824678</ele>
<time>2011-04-30T11:19:58Z</time>
<desc>lat.=20.954994, lon.=107.048813, Alt.=2.824678m. Speed=0.072000m/h.</desc>
<speed>0.020000</speed>
</trkpt>
<trkpt lat="20.954994" lon="107.048813">
<ele>2.791964</ele>
<time>2011-04-30T11:20:03Z</time>
<desc>lat.=20.954994, lon.=107.048813, Alt.=2.791964m. Speed=0.036000m/h.</desc>
<speed>0.010000</speed>
</trkpt>
<trkpt lat="20.954994" lon="107.048813">
<ele>2.781527</ele>
<time>2011-04-30T11:20:08Z</time>
<desc>lat.=20.954994, lon.=107.048813, Alt.=2.781527m. Speed=0.036000m/h.</desc>
<speed>0.010000</speed>
</trkpt>
<trkpt lat="20.954994" lon="107.048813">
<ele>2.763399</ele>
<time>2011-04-30T11:20:13Z</time>
<desc>lat.=20.954994, lon.=107.048813, Alt.=2.763399m. Speed=0.000000m/h.</desc>
<speed>0.000000</speed>
</trkpt>
<trkpt lat="20.954994" lon="107.048813">
<ele>2.745272</ele>
<time>2011-04-30T11:20:18Z</time>
<desc>lat.=20.954994, lon.=107.048813, Alt.=2.745272m. Speed=0.252000m/h.</desc>
<speed>0.070000</speed>
</trkpt>
<trkpt lat="20.954994" lon="107.048813">
<ele>2.740145</ele>
<time>2011-04-30T11:20:23Z</time>
<desc>lat.=20.954994, lon.=107.048813, Alt.=2.740145m. Speed=0.000000m/h.</desc>
<speed>0.000000</speed>
</trkpt>
<trkpt lat="20.954994" lon="107.048813">
<ele>2.706331</ele>
<time>2011-04-30T11:20:28Z</time>
<desc>lat.=20.954994, lon.=107.048813, Alt.=2.706331m. Speed=0.108000m/h.</desc>
<speed>0.030000</speed>
</trkpt>
<trkpt lat="20.954994" lon="107.048813">
<ele>2.687166</ele>
<time>2011-04-30T11:20:33Z</time>
<desc>lat.=20.954994, lon.=107.048813, Alt.=2.687166m. Speed=0.000000m/h.</desc>
<speed>0.000000</speed>
</trkpt>
<trkpt lat="20.954994" lon="107.048813">
<ele>2.649202</ele>
<time>2011-04-30T11:20:38Z</time>
<desc>lat.=20.954994, lon.=107.048813, Alt.=2.649202m. Speed=0.036000m/h.</desc>
<speed>0.010000</speed>
</trkpt>
<trkpt lat="20.954996" lon="107.048813">
<ele>2.602388</ele>
<time>2011-04-30T11:20:43Z</time>
<desc>lat.=20.954996, lon.=107.048813, Alt.=2.602388m. Speed=0.000000m/h.</desc>
<speed>0.000000</speed>
</trkpt>
<trkpt lat="20.954996" lon="107.048813">
<ele>2.555452</ele>
<time>2011-04-30T11:20:48Z</time>
<desc>lat.=20.954996, lon.=107.048813, Alt.=2.555452m. Speed=0.000000m/h.</desc>
<speed>0.000000</speed>
</trkpt>
<trkpt lat="20.954996" lon="107.048813">
<ele>2.524080</ele>
<time>2011-04-30T11:20:53Z</time>
<desc>lat.=20.954996, lon.=107.048813, Alt.=2.524080m. Speed=0.036000m/h.</desc>
<speed>0.010000</speed>
</trkpt>
<trkpt lat="20.954996" lon="107.048813">
<ele>2.509432</ele>
<time>2011-04-30T11:20:58Z</time>
<desc>lat.=20.954996, lon.=107.048813, Alt.=2.509432m. Speed=0.000000m/h.</desc>
<speed>0.000000</speed>
</trkpt>
<trkpt lat="20.954996" lon="107.048813">
<ele>2.498140</ele>
<time>2011-04-30T11:21:03Z</time>
<desc>lat.=20.954996, lon.=107.048813, Alt.=2.498140m. Speed=0.036000m/h.</desc>
<speed>0.010000</speed>
</trkpt>
<trkpt lat="20.954996" lon="107.048813">
<ele>2.502779</ele>
<time>2011-04-30T11:21:08Z</time>
<desc>lat.=20.954996, lon.=107.048813, Alt.=2.502779m. Speed=0.036000m/h.</desc>
<speed>0.010000</speed>
</trkpt>
<trkpt lat="20.954996" lon="107.048813">
<ele>2.497835</ele>
<time>2011-04-30T11:21:13Z</time>
<desc>lat.=20.954996, lon.=107.048813, Alt.=2.497835m. Speed=0.036000m/h.</desc>
<speed>0.010000</speed>
</trkpt>
<trkpt lat="20.954996" lon="107.048813">
<ele>2.507235</ele>
<time>2011-04-30T11:21:18Z</time>
<desc>lat.=20.954996, lon.=107.048813, Alt.=2.507235m. Speed=0.036000m/h.</desc>
<speed>0.010000</speed>
</trkpt>
<trkpt lat="20.954996" lon="107.048813">
<ele>2.528963</ele>
<time>2011-04-30T11:21:23Z</time>
<desc>lat.=20.954996, lon.=107.048813, Alt.=2.528963m. Speed=0.072000m/h.</desc>
<speed>0.020000</speed>
</trkpt>
<trkpt lat="20.954996" lon="107.048813">
<ele>2.551485</ele>
<time>2011-04-30T11:21:28Z</time>
<desc>lat.=20.954996, lon.=107.048813, Alt.=2.551485m. Speed=0.036000m/h.</desc>
<speed>0.010000</speed>
</trkpt>
<trkpt lat="20.954996" lon="107.048805">
<ele>2.559664</ele>
<time>2011-04-30T11:21:33Z</time>
<desc>lat.=20.954996, lon.=107.048805, Alt.=2.559664m. Speed=0.036000m/h.</desc>
<speed>0.010000</speed>
</trkpt>
<trkpt lat="20.954998" lon="107.048805">
<ele>2.575899</ele>
<time>2011-04-30T11:21:38Z</time>
<desc>lat.=20.954998, lon.=107.048805, Alt.=2.575899m. Speed=0.036000m/h.</desc>
<speed>0.010000</speed>
</trkpt>
<trkpt lat="20.954998" lon="107.048805">
<ele>2.605257</ele>
<time>2011-04-30T11:21:43Z</time>
<desc>lat.=20.954998, lon.=107.048805, Alt.=2.605257m. Speed=0.108000m/h.</desc>
<speed>0.030000</speed>
</trkpt>
<trkpt lat="20.954998" lon="107.048805">
<ele>2.595858</ele>
<time>2011-04-30T11:21:48Z</time>
<desc>lat.=20.954998, lon.=107.048805, Alt.=2.595858m. Speed=0.144000m/h.</desc>
<speed>0.040000</speed>
</trkpt>
<trkpt lat="20.954998" lon="107.048805">
<ele>2.579744</ele>
<time>2011-04-30T11:21:53Z</time>
<desc>lat.=20.954998, lon.=107.048805, Alt.=2.579744m. Speed=0.000000m/h.</desc>
<speed>0.000000</speed>
</trkpt>
<trkpt lat="20.954998" lon="107.048805">
<ele>2.596285</ele>
<time>2011-04-30T11:21:58Z</time>
<desc>lat.=20.954998, lon.=107.048805, Alt.=2.596285m. Speed=0.072000m/h.</desc>
<speed>0.020000</speed>
</trkpt>
<trkpt lat="20.955000" lon="107.048805">
<ele>2.607149</ele>
<time>2011-04-30T11:22:03Z</time>
<desc>lat.=20.955000, lon.=107.048805, Alt.=2.607149m. Speed=0.036000m/h.</desc>
<speed>0.010000</speed>
</trkpt>
<trkpt lat="20.955000" lon="107.048805">
<ele>2.612947</ele>
<time>2011-04-30T11:22:08Z</time>
<desc>lat.=20.955000, lon.=107.048805, Alt.=2.612947m. Speed=0.000000m/h.</desc>
<speed>0.000000</speed>
</trkpt>
<trkpt lat="20.955000" lon="107.048805">
<ele>2.614656</ele>
<time>2011-04-30T11:22:13Z</time>
<desc>lat.=20.955000, lon.=107.048805, Alt.=2.614656m. Speed=0.216000m/h.</desc>
<speed>0.060000</speed>
</trkpt>
<trkpt lat="20.955000" lon="107.048805">
<ele>2.621920</ele>
<time>2011-04-30T11:22:18Z</time>
<desc>lat.=20.955000, lon.=107.048805, Alt.=2.621920m. Speed=0.000000m/h.</desc>
<speed>0.000000</speed>
</trkpt>
<trkpt lat="20.955000" lon="107.048805">
<ele>2.616488</ele>
<time>2011-04-30T11:22:23Z</time>
<desc>lat.=20.955000, lon.=107.048805, Alt.=2.616488m. Speed=0.108000m/h.</desc>
<speed>0.030000</speed>
</trkpt>
<trkpt lat="20.955000" lon="107.048805">
<ele>2.601168</ele>
<time>2011-04-30T11:22:28Z</time>
<desc>lat.=20.955000, lon.=107.048805, Alt.=2.601168m. Speed=0.144000m/h.</desc>
<speed>0.040000</speed>
</trkpt>
<trkpt lat="20.955000" lon="107.048805">
<ele>2.629976</ele>
<time>2011-04-30T11:22:33Z</time>
<desc>lat.=20.955000, lon.=107.048805, Alt.=2.629976m. Speed=0.000000m/h.</desc>
<speed>0.000000</speed>
</trkpt>
<trkpt lat="20.955000" lon="107.048805">
<ele>2.618563</ele>
<time>2011-04-30T11:22:38Z</time>
<desc>lat.=20.955000, lon.=107.048805, Alt.=2.618563m. Speed=0.288000m/h.</desc>
<speed>0.080000</speed>
</trkpt>
<trkpt lat="20.955002" lon="107.048805">
<ele>2.631075</ele>
<time>2011-04-30T11:22:43Z</time>
<desc>lat.=20.955002, lon.=107.048805, Alt.=2.631075m. Speed=0.072000m/h.</desc>
<speed>0.020000</speed>
</trkpt>
<trkpt lat="20.955002" lon="107.048805">
<ele>2.633944</ele>
<time>2011-04-30T11:22:48Z</time>
<desc>lat.=20.955002, lon.=107.048805, Alt.=2.633944m. Speed=0.072000m/h.</desc>
<speed>0.020000</speed>
</trkpt>
<trkpt lat="20.955002" lon="107.048805">
<ele>2.623323</ele>
<time>2011-04-30T11:22:53Z</time>
<desc>lat.=20.955002, lon.=107.048805, Alt.=2.623323m. Speed=0.108000m/h.</desc>
<speed>0.030000</speed>
</trkpt>
<trkpt lat="20.955002" lon="107.048805">
<ele>2.629244</ele>
<time>2011-04-30T11:22:58Z</time>
<desc>lat.=20.955002, lon.=107.048805, Alt.=2.629244m. Speed=0.180000m/h.</desc>
<speed>0.050000</speed>
</trkpt>
<trkpt lat="20.955002" lon="107.048805">
<ele>2.619234</ele>
<time>2011-04-30T11:23:03Z</time>
<desc>lat.=20.955002, lon.=107.048805, Alt.=2.619234m. Speed=0.000000m/h.</desc>
<speed>0.000000</speed>
</trkpt>
<trkpt lat="20.955004" lon="107.048805">
<ele>2.616549</ele>
<time>2011-04-30T11:23:08Z</time>
<desc>lat.=20.955004, lon.=107.048805, Alt.=2.616549m. Speed=0.072000m/h.</desc>
<speed>0.020000</speed>
</trkpt>
<trkpt lat="20.955004" lon="107.048805">
<ele>2.595797</ele>
<time>2011-04-30T11:23:13Z</time>
<desc>lat.=20.955004, lon.=107.048805, Alt.=2.595797m. Speed=0.036000m/h.</desc>
<speed>0.010000</speed>
</trkpt>
<trkpt lat="20.955004" lon="107.048805">
<ele>2.586397</ele>
<time>2011-04-30T11:23:18Z</time>
<desc>lat.=20.955004, lon.=107.048805, Alt.=2.586397m. Speed=0.000000m/h.</desc>
<speed>0.000000</speed>
</trkpt>
<trkpt lat="20.955004" lon="107.048805">
<ele>2.575716</ele>
<time>2011-04-30T11:23:23Z</time>
<desc>lat.=20.955004, lon.=107.048805, Alt.=2.575716m. Speed=0.036000m/h.</desc>
<speed>0.010000</speed>
</trkpt>
<trkpt lat="20.955004" lon="107.048805">
<ele>2.570711</ele>
<time>2011-04-30T11:23:28Z</time>
<desc>lat.=20.955004, lon.=107.048805, Alt.=2.570711m. Speed=0.144000m/h.</desc>
<speed>0.040000</speed>
</trkpt>
<trkpt lat="20.955004" lon="107.048805">
<ele>2.563997</ele>
<time>2011-04-30T11:23:33Z</time>
<desc>lat.=20.955004, lon.=107.048805, Alt.=2.563997m. Speed=0.072000m/h.</desc>
<speed>0.020000</speed>
</trkpt>
<trkpt lat="20.954987" lon="107.048798">
<ele>1.996079</ele>
<time>2011-04-30T11:23:38Z</time>
<desc>lat.=20.954987, lon.=107.048798, Alt.=1.996079m. Speed=0.936000m/h.</desc>
<speed>0.260000</speed>
</trkpt>
<trkpt lat="20.954956" lon="107.048790">
<ele>2.085726</ele>
<time>2011-04-30T11:23:43Z</time>
<desc>lat.=20.954956, lon.=107.048790, Alt.=2.085726m. Speed=1.656000m/h.</desc>
<speed>0.460000</speed>
</trkpt>
<trkpt lat="20.954937" lon="107.048790">
<ele>1.405656</ele>
<time>2011-04-30T11:23:48Z</time>
<desc>lat.=20.954937, lon.=107.048790, Alt.=1.405656m. Speed=1.980000m/h.</desc>
<speed>0.550000</speed>
</trkpt>
<trkpt lat="20.954929" lon="107.048744">
<ele>1.606278</ele>
<time>2011-04-30T11:23:53Z</time>
<desc>lat.=20.954929, lon.=107.048744, Alt.=1.606278m. Speed=3.564000m/h.</desc>
<speed>0.990000</speed>
</trkpt>
<trkpt lat="20.954914" lon="107.048721">
<ele>2.366915</ele>
<time>2011-04-30T11:23:58Z</time>
<desc>lat.=20.954914, lon.=107.048721, Alt.=2.366915m. Speed=2.124000m/h.</desc>
<speed>0.590000</speed>
</trkpt>
<trkpt lat="20.954912" lon="107.048691">
<ele>3.303560</ele>
<time>2011-04-30T11:24:03Z</time>
<desc>lat.=20.954912, lon.=107.048691, Alt.=3.303560m. Speed=0.396000m/h.</desc>
<speed>0.110000</speed>
</trkpt>
<trkpt lat="20.954895" lon="107.048668">
<ele>3.466646</ele>
<time>2011-04-30T11:24:08Z</time>
<desc>lat.=20.954895, lon.=107.048668, Alt.=3.466646m. Speed=3.744000m/h.</desc>
<speed>1.040000</speed>
</trkpt>
<trkpt lat="20.954903" lon="107.048637">
<ele>3.483614</ele>
<time>2011-04-30T11:24:13Z</time>
<desc>lat.=20.954903, lon.=107.048637, Alt.=3.483614m. Speed=1.368000m/h.</desc>
<speed>0.380000</speed>
</trkpt>
<trkpt lat="20.954895" lon="107.048622">
<ele>3.021090</ele>
<time>2011-04-30T11:24:18Z</time>
<desc>lat.=20.954895, lon.=107.048622, Alt.=3.021090m. Speed=0.360000m/h.</desc>
<speed>0.100000</speed>
</trkpt>
<trkpt lat="20.954899" lon="107.048622">
<ele>2.696016</ele>
<time>2011-04-30T11:24:23Z</time>
<desc>lat.=20.954899, lon.=107.048622, Alt.=2.696016m. Speed=0.072000m/h.</desc>
<speed>0.020000</speed>
</trkpt>
<trkpt lat="20.954899" lon="107.048622">
<ele>2.643648</ele>
<time>2011-04-30T11:24:28Z</time>
<desc>lat.=20.954899, lon.=107.048622, Alt.=2.643648m. Speed=0.000000m/h.</desc>
<speed>0.000000</speed>
</trkpt>
<trkpt lat="20.954899" lon="107.048622">
<ele>2.594454</ele>
<time>2011-04-30T11:24:33Z</time>
<desc>lat.=20.954899, lon.=107.048622, Alt.=2.594454m. Speed=0.252000m/h.</desc>
<speed>0.070000</speed>
</trkpt>
<trkpt lat="20.954901" lon="107.048615">
<ele>2.629732</ele>
<time>2011-04-30T11:24:38Z</time>
<desc>lat.=20.954901, lon.=107.048615, Alt.=2.629732m. Speed=3.204000m/h.</desc>
<speed>0.890000</speed>
</trkpt>
<trkpt lat="20.954924" lon="107.048592">
<ele>2.768038</ele>
<time>2011-04-30T11:24:43Z</time>
<desc>lat.=20.954924, lon.=107.048592, Alt.=2.768038m. Speed=3.240000m/h.</desc>
<speed>0.900000</speed>
</trkpt>
<trkpt lat="20.954939" lon="107.048561">
<ele>3.277987</ele>
<time>2011-04-30T11:24:48Z</time>
<desc>lat.=20.954939, lon.=107.048561, Alt.=3.277987m. Speed=2.664000m/h.</desc>
<speed>0.740000</speed>
</trkpt>
<trkpt lat="20.954943" lon="107.048523">
<ele>2.840731</ele>
<time>2011-04-30T11:24:53Z</time>
<desc>lat.=20.954943, lon.=107.048523, Alt.=2.840731m. Speed=2.268000m/h.</desc>
<speed>0.630000</speed>
</trkpt>
<trkpt lat="20.954947" lon="107.048500">
<ele>3.153475</ele>
<time>2011-04-30T11:24:58Z</time>
<desc>lat.=20.954947, lon.=107.048500, Alt.=3.153475m. Speed=2.304000m/h.</desc>
<speed>0.640000</speed>
</trkpt>
<trkpt lat="20.954945" lon="107.048477">
<ele>2.681307</ele>
<time>2011-04-30T11:25:03Z</time>
<desc>lat.=20.954945, lon.=107.048477, Alt.=2.681307m. Speed=2.052000m/h.</desc>
<speed>0.570000</speed>
</trkpt>
<trkpt lat="20.954935" lon="107.048447">
<ele>2.273104</ele>
<time>2011-04-30T11:25:08Z</time>
<desc>lat.=20.954935, lon.=107.048447, Alt.=2.273104m. Speed=2.160000m/h.</desc>
<speed>0.600000</speed>
</trkpt>
<trkpt lat="20.954918" lon="107.048424">
<ele>1.919572</ele>
<time>2011-04-30T11:25:13Z</time>
<desc>lat.=20.954918, lon.=107.048424, Alt.=1.919572m. Speed=2.772000m/h.</desc>
<speed>0.770000</speed>
</trkpt>
<trkpt lat="20.954901" lon="107.048401">
<ele>2.054964</ele>
<time>2011-04-30T11:25:18Z</time>
<desc>lat.=20.954901, lon.=107.048401, Alt.=2.054964m. Speed=1.764000m/h.</desc>
<speed>0.490000</speed>
</trkpt>
<trkpt lat="20.954901" lon="107.048386">
<ele>2.076937</ele>
<time>2011-04-30T11:25:23Z</time>
<desc>lat.=20.954901, lon.=107.048386, Alt.=2.076937m. Speed=1.080000m/h.</desc>
<speed>0.300000</speed>
</trkpt>
<trkpt lat="20.954905" lon="107.048386">
<ele>2.692659</ele>
<time>2011-04-30T11:25:28Z</time>
<desc>lat.=20.954905, lon.=107.048386, Alt.=2.692659m. Speed=0.180000m/h.</desc>
<speed>0.050000</speed>
</trkpt>
<trkpt lat="20.954906" lon="107.048386">
<ele>3.099337</ele>
<time>2011-04-30T11:25:33Z</time>
<desc>lat.=20.954906, lon.=107.048386, Alt.=3.099337m. Speed=0.252000m/h.</desc>
<speed>0.070000</speed>
</trkpt>
<trkpt lat="20.954905" lon="107.048370">
<ele>3.432405</ele>
<time>2011-04-30T11:25:38Z</time>
<desc>lat.=20.954905, lon.=107.048370, Alt.=3.432405m. Speed=3.060000m/h.</desc>
<speed>0.850000</speed>
</trkpt>
<trkpt lat="20.954891" lon="107.048340">
<ele>2.647188</ele>
<time>2011-04-30T11:25:43Z</time>
<desc>lat.=20.954891, lon.=107.048340, Alt.=2.647188m. Speed=2.772000m/h.</desc>
<speed>0.770000</speed>
</trkpt>
<trkpt lat="20.954884" lon="107.048309">
<ele>2.655123</ele>
<time>2011-04-30T11:25:48Z</time>
<desc>lat.=20.954884, lon.=107.048309, Alt.=2.655123m. Speed=2.880000m/h.</desc>
<speed>0.800000</speed>
</trkpt>
<trkpt lat="20.954861" lon="107.048279">
<ele>2.690828</ele>
<time>2011-04-30T11:25:53Z</time>
<desc>lat.=20.954861, lon.=107.048279, Alt.=2.690828m. Speed=1.656000m/h.</desc>
<speed>0.460000</speed>
</trkpt>
<trkpt lat="20.954853" lon="107.048264">
<ele>1.839463</ele>
<time>2011-04-30T11:25:58Z</time>
<desc>lat.=20.954853, lon.=107.048264, Alt.=1.839463m. Speed=1.620000m/h.</desc>
<speed>0.450000</speed>
</trkpt>
<trkpt lat="20.954840" lon="107.048233">
<ele>0.467785</ele>
<time>2011-04-30T11:26:03Z</time>
<desc>lat.=20.954840, lon.=107.048233, Alt.=0.467785m. Speed=0.612000m/h.</desc>
<speed>0.170000</speed>
</trkpt>
<trkpt lat="20.954819" lon="107.048225">
<ele>0.847908</ele>
<time>2011-04-30T11:26:08Z</time>
<desc>lat.=20.954819, lon.=107.048225, Alt.=0.847908m. Speed=0.684000m/h.</desc>
<speed>0.190000</speed>
</trkpt>
<trkpt lat="20.954811" lon="107.048218">
<ele>0.939263</ele>
<time>2011-04-30T11:26:13Z</time>
<desc>lat.=20.954811, lon.=107.048218, Alt.=0.939263m. Speed=2.808000m/h.</desc>
<speed>0.780000</speed>
</trkpt>
<trkpt lat="20.954803" lon="107.048164">
<ele>0.930993</ele>
<time>2011-04-30T11:26:18Z</time>
<desc>lat.=20.954803, lon.=107.048164, Alt.=0.930993m. Speed=3.816000m/h.</desc>
<speed>1.060000</speed>
</trkpt>
<trkpt lat="20.954771" lon="107.048134">
<ele>0.991234</ele>
<time>2011-04-30T11:26:23Z</time>
<desc>lat.=20.954771, lon.=107.048134, Alt.=0.991234m. Speed=3.348000m/h.</desc>
<speed>0.930000</speed>
</trkpt>
<trkpt lat="20.954752" lon="107.048103">
<ele>1.995835</ele>
<time>2011-04-30T11:26:28Z</time>
<desc>lat.=20.954752, lon.=107.048103, Alt.=1.995835m. Speed=2.052000m/h.</desc>
<speed>0.570000</speed>
</trkpt>
<trkpt lat="20.954739" lon="107.048073">
<ele>3.352510</ele>
<time>2011-04-30T11:26:33Z</time>
<desc>lat.=20.954739, lon.=107.048073, Alt.=3.352510m. Speed=1.980000m/h.</desc>
<speed>0.550000</speed>
</trkpt>
<trkpt lat="20.954708" lon="107.048027">
<ele>3.912752</ele>
<time>2011-04-30T11:26:38Z</time>
<desc>lat.=20.954708, lon.=107.048027, Alt.=3.912752m. Speed=4.608000m/h.</desc>
<speed>1.280000</speed>
</trkpt>
<trkpt lat="20.954670" lon="107.047981">
<ele>4.455997</ele>
<time>2011-04-30T11:26:43Z</time>
<desc>lat.=20.954670, lon.=107.047981, Alt.=4.455997m. Speed=4.248000m/h.</desc>
<speed>1.180000</speed>
</trkpt>
<trkpt lat="20.954641" lon="107.047951">
<ele>4.946476</ele>
<time>2011-04-30T11:26:48Z</time>
<desc>lat.=20.954641, lon.=107.047951, Alt.=4.946476m. Speed=1.764000m/h.</desc>
<speed>0.490000</speed>
</trkpt>
<trkpt lat="20.954634" lon="107.047920">
<ele>4.831364</ele>
<time>2011-04-30T11:26:53Z</time>
<desc>lat.=20.954634, lon.=107.047920, Alt.=4.831364m. Speed=0.792000m/h.</desc>
<speed>0.220000</speed>
</trkpt>
<trkpt lat="20.954626" lon="107.047890">
<ele>5.028873</ele>
<time>2011-04-30T11:26:58Z</time>
<desc>lat.=20.954626, lon.=107.047890, Alt.=5.028873m. Speed=2.016000m/h.</desc>
<speed>0.560000</speed>
</trkpt>
<trkpt lat="20.954617" lon="107.047874">
<ele>5.179142</ele>
<time>2011-04-30T11:27:03Z</time>
<desc>lat.=20.954617, lon.=107.047874, Alt.=5.179142m. Speed=2.376000m/h.</desc>
<speed>0.660000</speed>
</trkpt>
<trkpt lat="20.954597" lon="107.047829">
<ele>4.696720</ele>
<time>2011-04-30T11:27:08Z</time>
<desc>lat.=20.954597, lon.=107.047829, Alt.=4.696720m. Speed=3.276000m/h.</desc>
<speed>0.910000</speed>
</trkpt>
<trkpt lat="20.954596" lon="107.047798">
<ele>4.388981</ele>
<time>2011-04-30T11:27:13Z</time>
<desc>lat.=20.954596, lon.=107.047798, Alt.=4.388981m. Speed=1.512000m/h.</desc>
<speed>0.420000</speed>
</trkpt>
<trkpt lat="20.954586" lon="107.047760">
<ele>3.705538</ele>
<time>2011-04-30T11:27:18Z</time>
<desc>lat.=20.954586, lon.=107.047760, Alt.=3.705538m. Speed=3.636000m/h.</desc>
<speed>1.010000</speed>
</trkpt>
<trkpt lat="20.954569" lon="107.047722">
<ele>3.534639</ele>
<time>2011-04-30T11:27:23Z</time>
<desc>lat.=20.954569, lon.=107.047722, Alt.=3.534639m. Speed=3.636000m/h.</desc>
<speed>1.010000</speed>
</trkpt>
<trkpt lat="20.954531" lon="107.047707">
<ele>3.833162</ele>
<time>2011-04-30T11:27:28Z</time>
<desc>lat.=20.954531, lon.=107.047707, Alt.=3.833162m. Speed=3.024000m/h.</desc>
<speed>0.840000</speed>
</trkpt>
<trkpt lat="20.954527" lon="107.047714">
<ele>4.336124</ele>
<time>2011-04-30T11:27:33Z</time>
<desc>lat.=20.954527, lon.=107.047714, Alt.=4.336124m. Speed=0.504000m/h.</desc>
<speed>0.140000</speed>
</trkpt>
<trkpt lat="20.954515" lon="107.047722">
<ele>4.426945</ele>
<time>2011-04-30T11:27:38Z</time>
<desc>lat.=20.954515, lon.=107.047722, Alt.=4.426945m. Speed=2.772000m/h.</desc>
<speed>0.770000</speed>
</trkpt>
<trkpt lat="20.954399" lon="107.047745">
<ele>3.503267</ele>
<time>2011-04-30T11:27:43Z</time>
<desc>lat.=20.954399, lon.=107.047745, Alt.=3.503267m. Speed=3.456000m/h.</desc>
<speed>0.960000</speed>
</trkpt>
<trkpt lat="20.954329" lon="107.047752">
<ele>3.605257</ele>
<time>2011-04-30T11:27:48Z</time>
<desc>lat.=20.954329, lon.=107.047752, Alt.=3.605257m. Speed=3.024000m/h.</desc>
<speed>0.840000</speed>
</trkpt>
<trkpt lat="20.954359" lon="107.047737">
<ele>4.033634</ele>
<time>2011-04-30T11:27:53Z</time>
<desc>lat.=20.954359, lon.=107.047737, Alt.=4.033634m. Speed=5.040000m/h.</desc>
<speed>1.400000</speed>
</trkpt>
<trkpt lat="20.954374" lon="107.047729">
<ele>4.742008</ele>
<time>2011-04-30T11:27:58Z</time>
<desc>lat.=20.954374, lon.=107.047729, Alt.=4.742008m. Speed=1.008000m/h.</desc>
<speed>0.280000</speed>
</trkpt>
<trkpt lat="20.954409" lon="107.047722">
<ele>4.893253</ele>
<time>2011-04-30T11:28:03Z</time>
<desc>lat.=20.954409, lon.=107.047722, Alt.=4.893253m. Speed=2.592000m/h.</desc>
<speed>0.720000</speed>
</trkpt>
<trkpt lat="20.954475" lon="107.047691">
<ele>4.935856</ele>
<time>2011-04-30T11:28:08Z</time>
<desc>lat.=20.954475, lon.=107.047691, Alt.=4.935856m. Speed=1.548000m/h.</desc>
<speed>0.430000</speed>
</trkpt>
<trkpt lat="20.954502" lon="107.047699">
<ele>5.060490</ele>
<time>2011-04-30T11:28:13Z</time>
<desc>lat.=20.954502, lon.=107.047699, Alt.=5.060490m. Speed=2.592000m/h.</desc>
<speed>0.720000</speed>
</trkpt>
<trkpt lat="20.954525" lon="107.047707">
<ele>4.400700</ele>
<time>2011-04-30T11:28:18Z</time>
<desc>lat.=20.954525, lon.=107.047707, Alt.=4.400700m. Speed=0.252000m/h.</desc>
<speed>0.070000</speed>
</trkpt>
<trkpt lat="20.954525" lon="107.047707">
<ele>4.244938</ele>
<time>2011-04-30T11:28:23Z</time>
<desc>lat.=20.954525, lon.=107.047707, Alt.=4.244938m. Speed=0.072000m/h.</desc>
<speed>0.020000</speed>
</trkpt>
<trkpt lat="20.954525" lon="107.047707">
<ele>4.267155</ele>
<time>2011-04-30T11:28:28Z</time>
<desc>lat.=20.954525, lon.=107.047707, Alt.=4.267155m. Speed=0.036000m/h.</desc>
<speed>0.010000</speed>
</trkpt>
<trkpt lat="20.954525" lon="107.047707">
<ele>4.268742</ele>
<time>2011-04-30T11:28:33Z</time>
<desc>lat.=20.954525, lon.=107.047707, Alt.=4.268742m. Speed=0.000000m/h.</desc>
<speed>0.000000</speed>
</trkpt>
<trkpt lat="20.954525" lon="107.047707">
<ele>4.264103</ele>
<time>2011-04-30T11:28:38Z</time>
<desc>lat.=20.954525, lon.=107.047707, Alt.=4.264103m. Speed=0.288000m/h.</desc>
<speed>0.080000</speed>
</trkpt>
<trkpt lat="20.954527" lon="107.047707">
<ele>4.346867</ele>
<time>2011-04-30T11:28:43Z</time>
<desc>lat.=20.954527, lon.=107.047707, Alt.=4.346867m. Speed=1.080000m/h.</desc>
<speed>0.300000</speed>
</trkpt>
<trkpt lat="20.954525" lon="107.047707">
<ele>4.282169</ele>
<time>2011-04-30T11:28:48Z</time>
<desc>lat.=20.954525, lon.=107.047707, Alt.=4.282169m. Speed=0.072000m/h.</desc>
<speed>0.020000</speed>
</trkpt>
<trkpt lat="20.954527" lon="107.047707">
<ele>4.326725</ele>
<time>2011-04-30T11:28:53Z</time>
<desc>lat.=20.954527, lon.=107.047707, Alt.=4.326725m. Speed=0.108000m/h.</desc>
<speed>0.030000</speed>
</trkpt>
<trkpt lat="20.954527" lon="107.047707">
<ele>4.358707</ele>
<time>2011-04-30T11:28:58Z</time>
<desc>lat.=20.954527, lon.=107.047707, Alt.=4.358707m. Speed=0.036000m/h.</desc>
<speed>0.010000</speed>
</trkpt>
<trkpt lat="20.954527" lon="107.047707">
<ele>4.367741</ele>
<time>2011-04-30T11:29:03Z</time>
<desc>lat.=20.954527, lon.=107.047707, Alt.=4.367741m. Speed=0.036000m/h.</desc>
<speed>0.010000</speed>
</trkpt>
<trkpt lat="20.954527" lon="107.047707">
<ele>4.384830</ele>
<time>2011-04-30T11:29:08Z</time>
<desc>lat.=20.954527, lon.=107.047707, Alt.=4.384830m. Speed=0.144000m/h.</desc>
<speed>0.040000</speed>
</trkpt>
<trkpt lat="20.954527" lon="107.047707">
<ele>4.396671</ele>
<time>2011-04-30T11:29:13Z</time>
<desc>lat.=20.954527, lon.=107.047707, Alt.=4.396671m. Speed=1.008000m/h.</desc>
<speed>0.280000</speed>
</trkpt>
<trkpt lat="20.954542" lon="107.047722">
<ele>5.615299</ele>
<time>2011-04-30T11:29:18Z</time>
<desc>lat.=20.954542, lon.=107.047722, Alt.=5.615299m. Speed=3.132000m/h.</desc>
<speed>0.870000</speed>
</trkpt>
<trkpt lat="20.954554" lon="107.047737">
<ele>6.879459</ele>
<time>2011-04-30T11:29:23Z</time>
<desc>lat.=20.954554, lon.=107.047737, Alt.=6.879459m. Speed=0.216000m/h.</desc>
<speed>0.060000</speed>
</trkpt>
<trkpt lat="20.954559" lon="107.047729">
<ele>7.351017</ele>
<time>2011-04-30T11:29:28Z</time>
<desc>lat.=20.954559, lon.=107.047729, Alt.=7.351017m. Speed=0.036000m/h.</desc>
<speed>0.010000</speed>
</trkpt>
<trkpt lat="20.954559" lon="107.047729">
<ele>7.353580</ele>
<time>2011-04-30T11:29:33Z</time>
<desc>lat.=20.954559, lon.=107.047729, Alt.=7.353580m. Speed=0.072000m/h.</desc>
<speed>0.020000</speed>
</trkpt>
<trkpt lat="20.954559" lon="107.047729">
<ele>7.436710</ele>
<time>2011-04-30T11:29:38Z</time>
<desc>lat.=20.954559, lon.=107.047729, Alt.=7.436710m. Speed=0.036000m/h.</desc>
<speed>0.010000</speed>
</trkpt>
<trkpt lat="20.954559" lon="107.047729">
<ele>7.455387</ele>
<time>2011-04-30T11:29:43Z</time>
<desc>lat.=20.954559, lon.=107.047729, Alt.=7.455387m. Speed=0.036000m/h.</desc>
<speed>0.010000</speed>
</trkpt>
<trkpt lat="20.954559" lon="107.047722">
<ele>7.468693</ele>
<time>2011-04-30T11:29:48Z</time>
<desc>lat.=20.954559, lon.=107.047722, Alt.=7.468693m. Speed=0.000000m/h.</desc>
<speed>0.000000</speed>
</trkpt>
<trkpt lat="20.954559" lon="107.047722">
<ele>7.477360</ele>
<time>2011-04-30T11:29:53Z</time>
<desc>lat.=20.954559, lon.=107.047722, Alt.=7.477360m. Speed=0.000000m/h.</desc>
<speed>0.000000</speed>
</trkpt>
<trkpt lat="20.954559" lon="107.047722">
<ele>7.484928</ele>
<time>2011-04-30T11:29:58Z</time>
<desc>lat.=20.954559, lon.=107.047722, Alt.=7.484928m. Speed=0.000000m/h.</desc>
<speed>0.000000</speed>
</trkpt>
<trkpt lat="20.954559" lon="107.047722">
<ele>7.494083</ele>
<time>2011-04-30T11:30:03Z</time>
<desc>lat.=20.954559, lon.=107.047722, Alt.=7.494083m. Speed=0.108000m/h.</desc>
<speed>0.030000</speed>
</trkpt>
<trkpt lat="20.954559" lon="107.047729">
<ele>6.399357</ele>
<time>2011-04-30T11:30:08Z</time>
<desc>lat.=20.954559, lon.=107.047729, Alt.=6.399357m. Speed=2.124000m/h.</desc>
<speed>0.590000</speed>
</trkpt>
<trkpt lat="20.954575" lon="107.047768">
<ele>6.080387</ele>
<time>2011-04-30T11:30:13Z</time>
<desc>lat.=20.954575, lon.=107.047768, Alt.=6.080387m. Speed=3.456000m/h.</desc>
<speed>0.960000</speed>
</trkpt>
<trkpt lat="20.954601" lon="107.047806">
<ele>6.986271</ele>
<time>2011-04-30T11:30:18Z</time>
<desc>lat.=20.954601, lon.=107.047806, Alt.=6.986271m. Speed=3.816000m/h.</desc>
<speed>1.060000</speed>
</trkpt>
<trkpt lat="20.954611" lon="107.047844">
<ele>8.152718</ele>
<time>2011-04-30T11:30:23Z</time>
<desc>lat.=20.954611, lon.=107.047844, Alt.=8.152718m. Speed=3.960000m/h.</desc>
<speed>1.100000</speed>
</trkpt>
<trkpt lat="20.954615" lon="107.047905">
<ele>10.676888</ele>
<time>2011-04-30T11:30:28Z</time>
<desc>lat.=20.954615, lon.=107.047905, Alt.=10.676888m. Speed=3.420000m/h.</desc>
<speed>0.950000</speed>
</trkpt>
<trkpt lat="20.954575" lon="107.047951">
<ele>5.900089</ele>
<time>2011-04-30T11:30:33Z</time>
<desc>lat.=20.954575, lon.=107.047951, Alt.=5.900089m. Speed=3.312000m/h.</desc>
<speed>0.920000</speed>
</trkpt>
<trkpt lat="20.954567" lon="107.047974">
<ele>5.922794</ele>
<time>2011-04-30T11:30:38Z</time>
<desc>lat.=20.954567, lon.=107.047974, Alt.=5.922794m. Speed=2.304000m/h.</desc>
<speed>0.640000</speed>
</trkpt>
<trkpt lat="20.954546" lon="107.047997">
<ele>5.380192</ele>
<time>2011-04-30T11:30:43Z</time>
<desc>lat.=20.954546, lon.=107.047997, Alt.=5.380192m. Speed=3.204000m/h.</desc>
<speed>0.890000</speed>
</trkpt>
<trkpt lat="20.954538" lon="107.048019">
<ele>6.411076</ele>
<time>2011-04-30T11:30:48Z</time>
<desc>lat.=20.954538, lon.=107.048019, Alt.=6.411076m. Speed=2.736000m/h.</desc>
<speed>0.760000</speed>
</trkpt>
<trkpt lat="20.954538" lon="107.048050">
<ele>6.923405</ele>
<time>2011-04-30T11:30:53Z</time>
<desc>lat.=20.954538, lon.=107.048050, Alt.=6.923405m. Speed=1.656000m/h.</desc>
<speed>0.460000</speed>
</trkpt>
<trkpt lat="20.954559" lon="107.048088">
<ele>6.695133</ele>
<time>2011-04-30T11:30:58Z</time>
<desc>lat.=20.954559, lon.=107.048088, Alt.=6.695133m. Speed=1.368000m/h.</desc>
<speed>0.380000</speed>
</trkpt>
<trkpt lat="20.954575" lon="107.048103">
<ele>6.953922</ele>
<time>2011-04-30T11:31:03Z</time>
<desc>lat.=20.954575, lon.=107.048103, Alt.=6.953922m. Speed=0.360000m/h.</desc>
<speed>0.100000</speed>
</trkpt>
<trkpt lat="20.954575" lon="107.048103">
<ele>7.187077</ele>
<time>2011-04-30T11:31:08Z</time>
<desc>lat.=20.954575, lon.=107.048103, Alt.=7.187077m. Speed=0.972000m/h.</desc>
<speed>0.270000</speed>
</trkpt>
<trkpt lat="20.954580" lon="107.048103">
<ele>7.577946</ele>
<time>2011-04-30T11:31:13Z</time>
<desc>lat.=20.954580, lon.=107.048103, Alt.=7.577946m. Speed=0.216000m/h.</desc>
<speed>0.060000</speed>
</trkpt>
<trkpt lat="20.954582" lon="107.048103">
<ele>7.725407</ele>
<time>2011-04-30T11:31:18Z</time>
<desc>lat.=20.954582, lon.=107.048103, Alt.=7.725407m. Speed=0.216000m/h.</desc>
<speed>0.060000</speed>
</trkpt>
<trkpt lat="20.954584" lon="107.048103">
<ele>7.857243</ele>
<time>2011-04-30T11:31:23Z</time>
<desc>lat.=20.954584, lon.=107.048103, Alt.=7.857243m. Speed=2.088000m/h.</desc>
<speed>0.580000</speed>
</trkpt>
<trkpt lat="20.954573" lon="107.048126">
<ele>9.950325</ele>
<time>2011-04-30T11:31:28Z</time>
<desc>lat.=20.954573, lon.=107.048126, Alt.=9.950325m. Speed=1.908000m/h.</desc>
<speed>0.530000</speed>
</trkpt>
<trkpt lat="20.954573" lon="107.048149">
<ele>12.377815</ele>
<time>2011-04-30T11:31:33Z</time>
<desc>lat.=20.954573, lon.=107.048149, Alt.=12.377815m. Speed=1.224000m/h.</desc>
<speed>0.340000</speed>
</trkpt>
<trkpt lat="20.954576" lon="107.048180">
<ele>12.287971</ele>
<time>2011-04-30T11:31:38Z</time>
<desc>lat.=20.954576, lon.=107.048180, Alt.=12.287971m. Speed=2.772000m/h.</desc>
<speed>0.770000</speed>
</trkpt>
<trkpt lat="20.954590" lon="107.048187">
<ele>12.408089</ele>
<time>2011-04-30T11:31:43Z</time>
<desc>lat.=20.954590, lon.=107.048187, Alt.=12.408089m. Speed=1.080000m/h.</desc>
<speed>0.300000</speed>
</trkpt>
<trkpt lat="20.954620" lon="107.048218">
<ele>11.477425</ele>
<time>2011-04-30T11:31:48Z</time>
<desc>lat.=20.954620, lon.=107.048218, Alt.=11.477425m. Speed=1.440000m/h.</desc>
<speed>0.400000</speed>
</trkpt>
<trkpt lat="20.954628" lon="107.048218">
<ele>11.106331</ele>
<time>2011-04-30T11:31:53Z</time>
<desc>lat.=20.954628, lon.=107.048218, Alt.=11.106331m. Speed=0.324000m/h.</desc>
<speed>0.090000</speed>
</trkpt>
<trkpt lat="20.954634" lon="107.048218">
<ele>10.886848</ele>
<time>2011-04-30T11:31:58Z</time>
<desc>lat.=20.954634, lon.=107.048218, Alt.=10.886848m. Speed=1.404000m/h.</desc>
<speed>0.390000</speed>
</trkpt>
<trkpt lat="20.954626" lon="107.048233">
<ele>11.931282</ele>
<time>2011-04-30T11:32:03Z</time>
<desc>lat.=20.954626, lon.=107.048233, Alt.=11.931282m. Speed=0.792000m/h.</desc>
<speed>0.220000</speed>
</trkpt>
<trkpt lat="20.954639" lon="107.048271">
<ele>13.137337</ele>
<time>2011-04-30T11:32:08Z</time>
<desc>lat.=20.954639, lon.=107.048271, Alt.=13.137337m. Speed=2.340000m/h.</desc>
<speed>0.650000</speed>
</trkpt>
<trkpt lat="20.954647" lon="107.048294">
<ele>13.518684</ele>
<time>2011-04-30T11:32:13Z</time>
<desc>lat.=20.954647, lon.=107.048294, Alt.=13.518684m. Speed=1.800000m/h.</desc>
<speed>0.500000</speed>
</trkpt>
<trkpt lat="20.954653" lon="107.048332">
<ele>14.890266</ele>
<time>2011-04-30T11:32:18Z</time>
<desc>lat.=20.954653, lon.=107.048332, Alt.=14.890266m. Speed=2.304000m/h.</desc>
<speed>0.640000</speed>
</trkpt>
<trkpt lat="20.954672" lon="107.048370">
<ele>16.388443</ele>
<time>2011-04-30T11:32:23Z</time>
<desc>lat.=20.954672, lon.=107.048370, Alt.=16.388443m. Speed=1.908000m/h.</desc>
<speed>0.530000</speed>
</trkpt>
<trkpt lat="20.954720" lon="107.048409">
<ele>13.854866</ele>
<time>2011-04-30T11:32:28Z</time>
<desc>lat.=20.954720, lon.=107.048409, Alt.=13.854866m. Speed=3.960000m/h.</desc>
<speed>1.100000</speed>
</trkpt>
<trkpt lat="20.954773" lon="107.048409">
<ele>12.404915</ele>
<time>2011-04-30T11:32:33Z</time>
<desc>lat.=20.954773, lon.=107.048409, Alt.=12.404915m. Speed=3.312000m/h.</desc>
<speed>0.920000</speed>
</trkpt>
<trkpt lat="20.954815" lon="107.048409">
<ele>10.957405</ele>
<time>2011-04-30T11:32:38Z</time>
<desc>lat.=20.954815, lon.=107.048409, Alt.=10.957405m. Speed=2.484000m/h.</desc>
<speed>0.690000</speed>
</trkpt>
<trkpt lat="20.954823" lon="107.048424">
<ele>12.075569</ele>
<time>2011-04-30T11:32:43Z</time>
<desc>lat.=20.954823, lon.=107.048424, Alt.=12.075569m. Speed=1.260000m/h.</desc>
<speed>0.350000</speed>
</trkpt>
<trkpt lat="20.954847" lon="107.048439">
<ele>11.413704</ele>
<time>2011-04-30T11:32:48Z</time>
<desc>lat.=20.954847, lon.=107.048439, Alt.=11.413704m. Speed=2.160000m/h.</desc>
<speed>0.600000</speed>
</trkpt>
<trkpt lat="20.954863" lon="107.048470">
<ele>10.427620</ele>
<time>2011-04-30T11:32:53Z</time>
<desc>lat.=20.954863, lon.=107.048470, Alt.=10.427620m. Speed=2.484000m/h.</desc>
<speed>0.690000</speed>
</trkpt>
<trkpt lat="20.954870" lon="107.048500">
<ele>12.824104</ele>
<time>2011-04-30T11:32:58Z</time>
<desc>lat.=20.954870, lon.=107.048500, Alt.=12.824104m. Speed=3.204000m/h.</desc>
<speed>0.890000</speed>
</trkpt>
<trkpt lat="20.954891" lon="107.048523">
<ele>13.757454</ele>
<time>2011-04-30T11:33:03Z</time>
<desc>lat.=20.954891, lon.=107.048523, Alt.=13.757454m. Speed=2.484000m/h.</desc>
<speed>0.690000</speed>
</trkpt>
<trkpt lat="20.954912" lon="107.048553">
<ele>12.185188</ele>
<time>2011-04-30T11:33:08Z</time>
<desc>lat.=20.954912, lon.=107.048553, Alt.=12.185188m. Speed=2.952000m/h.</desc>
<speed>0.820000</speed>
</trkpt>
<trkpt lat="20.954952" lon="107.048538">
<ele>10.956184</ele>
<time>2011-04-30T11:33:13Z</time>
<desc>lat.=20.954952, lon.=107.048538, Alt.=10.956184m. Speed=2.664000m/h.</desc>
<speed>0.740000</speed>
</trkpt>
<trkpt lat="20.954987" lon="107.048523">
<ele>9.206429</ele>
<time>2011-04-30T11:33:18Z</time>
<desc>lat.=20.954987, lon.=107.048523, Alt.=9.206429m. Speed=2.484000m/h.</desc>
<speed>0.690000</speed>
</trkpt>
<trkpt lat="20.954990" lon="107.048531">
<ele>8.562630</ele>
<time>2011-04-30T11:33:23Z</time>
<desc>lat.=20.954990, lon.=107.048531, Alt.=8.562630m. Speed=1.296000m/h.</desc>
<speed>0.360000</speed>
</trkpt>
<trkpt lat="20.954987" lon="107.048523">
<ele>7.359928</ele>
<time>2011-04-30T11:33:28Z</time>
<desc>lat.=20.954987, lon.=107.048523, Alt.=7.359928m. Speed=2.772000m/h.</desc>
<speed>0.770000</speed>
</trkpt>
<trkpt lat="20.955000" lon="107.048515">
<ele>6.868229</ele>
<time>2011-04-30T11:33:33Z</time>
<desc>lat.=20.955000, lon.=107.048515, Alt.=6.868229m. Speed=0.684000m/h.</desc>
<speed>0.190000</speed>
</trkpt>
<trkpt lat="20.955042" lon="107.048508">
<ele>5.316959</ele>
<time>2011-04-30T11:33:38Z</time>
<desc>lat.=20.955042, lon.=107.048508, Alt.=5.316959m. Speed=2.916000m/h.</desc>
<speed>0.810000</speed>
</trkpt>
<trkpt lat="20.955070" lon="107.048492">
<ele>4.839787</ele>
<time>2011-04-30T11:33:43Z</time>
<desc>lat.=20.955070, lon.=107.048492, Alt.=4.839787m. Speed=2.412000m/h.</desc>
<speed>0.670000</speed>
</trkpt>
<trkpt lat="20.955082" lon="107.048500">
<ele>5.841251</ele>
<time>2011-04-30T11:33:48Z</time>
<desc>lat.=20.955082, lon.=107.048500, Alt.=5.841251m. Speed=1.404000m/h.</desc>
<speed>0.390000</speed>
</trkpt>
<trkpt lat="20.955088" lon="107.048500">
<ele>6.584904</ele>
<time>2011-04-30T11:33:53Z</time>
<desc>lat.=20.955088, lon.=107.048500, Alt.=6.584904m. Speed=2.664000m/h.</desc>
<speed>0.740000</speed>
</trkpt>
<trkpt lat="20.955095" lon="107.048523">
<ele>8.617317</ele>
<time>2011-04-30T11:33:58Z</time>
<desc>lat.=20.955095, lon.=107.048523, Alt.=8.617317m. Speed=1.908000m/h.</desc>
<speed>0.530000</speed>
</trkpt>
<trkpt lat="20.955099" lon="107.048546">
<ele>8.887581</ele>
<time>2011-04-30T11:34:03Z</time>
<desc>lat.=20.955099, lon.=107.048546, Alt.=8.887581m. Speed=0.468000m/h.</desc>
<speed>0.130000</speed>
</trkpt>
<trkpt lat="20.955105" lon="107.048553">
<ele>8.681282</ele>
<time>2011-04-30T11:34:08Z</time>
<desc>lat.=20.955105, lon.=107.048553, Alt.=8.681282m. Speed=0.432000m/h.</desc>
<speed>0.120000</speed>
</trkpt>
<trkpt lat="20.955107" lon="107.048553">
<ele>8.710823</ele>
<time>2011-04-30T11:34:13Z</time>
<desc>lat.=20.955107, lon.=107.048553, Alt.=8.710823m. Speed=0.180000m/h.</desc>
<speed>0.050000</speed>
</trkpt>
<trkpt lat="20.955107" lon="107.048553">
<ele>8.681526</ele>
<time>2011-04-30T11:34:18Z</time>
<desc>lat.=20.955107, lon.=107.048553, Alt.=8.681526m. Speed=0.036000m/h.</desc>
<speed>0.010000</speed>
</trkpt>
<trkpt lat="20.955107" lon="107.048553">
<ele>8.659309</ele>
<time>2011-04-30T11:34:23Z</time>
<desc>lat.=20.955107, lon.=107.048553, Alt.=8.659309m. Speed=0.000000m/h.</desc>
<speed>0.000000</speed>
</trkpt>
<trkpt lat="20.955107" lon="107.048553">
<ele>8.674690</ele>
<time>2011-04-30T11:34:28Z</time>
<desc>lat.=20.955107, lon.=107.048553, Alt.=8.674690m. Speed=0.000000m/h.</desc>
<speed>0.000000</speed>
</trkpt>
<trkpt lat="20.955107" lon="107.048553">
<ele>8.680794</ele>
<time>2011-04-30T11:34:33Z</time>
<desc>lat.=20.955107, lon.=107.048553, Alt.=8.680794m. Speed=0.144000m/h.</desc>
<speed>0.040000</speed>
</trkpt>
<trkpt lat="20.955109" lon="107.048553">
<ele>8.692757</ele>
<time>2011-04-30T11:34:38Z</time>
<desc>lat.=20.955109, lon.=107.048553, Alt.=8.692757m. Speed=0.036000m/h.</desc>
<speed>0.010000</speed>
</trkpt>
<trkpt lat="20.955109" lon="107.048553">
<ele>8.682014</ele>
<time>2011-04-30T11:34:43Z</time>
<desc>lat.=20.955109, lon.=107.048553, Alt.=8.682014m. Speed=0.036000m/h.</desc>
<speed>0.010000</speed>
</trkpt>
<trkpt lat="20.955109" lon="107.048553">
<ele>8.666878</ele>
<time>2011-04-30T11:34:48Z</time>
<desc>lat.=20.955109, lon.=107.048553, Alt.=8.666878m. Speed=0.036000m/h.</desc>
<speed>0.010000</speed>
</trkpt>
<trkpt lat="20.955109" lon="107.048553">
<ele>8.624641</ele>
<time>2011-04-30T11:34:53Z</time>
<desc>lat.=20.955109, lon.=107.048553, Alt.=8.624641m. Speed=0.036000m/h.</desc>
<speed>0.010000</speed>
</trkpt>
<trkpt lat="20.955109" lon="107.048553">
<ele>8.620003</ele>
<time>2011-04-30T11:34:58Z</time>
<desc>lat.=20.955109, lon.=107.048553, Alt.=8.620003m. Speed=0.036000m/h.</desc>
<speed>0.010000</speed>
</trkpt>
<trkpt lat="20.955111" lon="107.048553">
<ele>8.653206</ele>
<time>2011-04-30T11:35:03Z</time>
<desc>lat.=20.955111, lon.=107.048553, Alt.=8.653206m. Speed=0.000000m/h.</desc>
<speed>0.000000</speed>
</trkpt>
<trkpt lat="20.955111" lon="107.048553">
<ele>8.666389</ele>
<time>2011-04-30T11:35:08Z</time>
<desc>lat.=20.955111, lon.=107.048553, Alt.=8.666389m. Speed=0.036000m/h.</desc>
<speed>0.010000</speed>
</trkpt>
<trkpt lat="20.955111" lon="107.048553">
<ele>8.660286</ele>
<time>2011-04-30T11:35:13Z</time>
<desc>lat.=20.955111, lon.=107.048553, Alt.=8.660286m. Speed=0.036000m/h.</desc>
<speed>0.010000</speed>
</trkpt>
<trkpt lat="20.955111" lon="107.048553">
<ele>8.682991</ele>
<time>2011-04-30T11:35:18Z</time>
<desc>lat.=20.955111, lon.=107.048553, Alt.=8.682991m. Speed=0.288000m/h.</desc>
<speed>0.080000</speed>
</trkpt>
<trkpt lat="20.955111" lon="107.048553">
<ele>8.674934</ele>
<time>2011-04-30T11:35:23Z</time>
<desc>lat.=20.955111, lon.=107.048553, Alt.=8.674934m. Speed=0.036000m/h.</desc>
<speed>0.010000</speed>
</trkpt>
<trkpt lat="20.955111" lon="107.048553">
<ele>8.669563</ele>
<time>2011-04-30T11:35:28Z</time>
<desc>lat.=20.955111, lon.=107.048553, Alt.=8.669563m. Speed=0.072000m/h.</desc>
<speed>0.020000</speed>
</trkpt>
<trkpt lat="20.955111" lon="107.048553">
<ele>8.644417</ele>
<time>2011-04-30T11:35:33Z</time>
<desc>lat.=20.955111, lon.=107.048553, Alt.=8.644417m. Speed=0.000000m/h.</desc>
<speed>0.000000</speed>
</trkpt>
<trkpt lat="20.955111" lon="107.048553">
<ele>8.617073</ele>
<time>2011-04-30T11:35:38Z</time>
<desc>lat.=20.955111, lon.=107.048553, Alt.=8.617073m. Speed=0.000000m/h.</desc>
<speed>0.000000</speed>
</trkpt>
<trkpt lat="20.955111" lon="107.048553">
<ele>8.594856</ele>
<time>2011-04-30T11:35:43Z</time>
<desc>lat.=20.955111, lon.=107.048553, Alt.=8.594856m. Speed=0.036000m/h.</desc>
<speed>0.010000</speed>
</trkpt>
<trkpt lat="20.955111" lon="107.048553">
<ele>8.547737</ele>
<time>2011-04-30T11:35:48Z</time>
<desc>lat.=20.955111, lon.=107.048553, Alt.=8.547737m. Speed=0.036000m/h.</desc>
<speed>0.010000</speed>
</trkpt>
<trkpt lat="20.955111" lon="107.048553">
<ele>8.487923</ele>
<time>2011-04-30T11:35:53Z</time>
<desc>lat.=20.955111, lon.=107.048553, Alt.=8.487923m. Speed=0.000000m/h.</desc>
<speed>0.000000</speed>
</trkpt>
<trkpt lat="20.955111" lon="107.048553">
<ele>8.441048</ele>
<time>2011-04-30T11:35:58Z</time>
<desc>lat.=20.955111, lon.=107.048553, Alt.=8.441048m. Speed=0.036000m/h.</desc>
<speed>0.010000</speed>
</trkpt>
<trkpt lat="20.955111" lon="107.048553">
<ele>8.419075</ele>
<time>2011-04-30T11:36:03Z</time>
<desc>lat.=20.955111, lon.=107.048553, Alt.=8.419075m. Speed=0.000000m/h.</desc>
<speed>0.000000</speed>
</trkpt>
<trkpt lat="20.955111" lon="107.048553">
<ele>8.382942</ele>
<time>2011-04-30T11:36:08Z</time>
<desc>lat.=20.955111, lon.=107.048553, Alt.=8.382942m. Speed=0.036000m/h.</desc>
<speed>0.010000</speed>
</trkpt>
<trkpt lat="20.955111" lon="107.048553">
<ele>8.358284</ele>
<time>2011-04-30T11:36:13Z</time>
<desc>lat.=20.955111, lon.=107.048553, Alt.=8.358284m. Speed=0.000000m/h.</desc>
<speed>0.000000</speed>
</trkpt>
<trkpt lat="20.955111" lon="107.048553">
<ele>8.330208</ele>
<time>2011-04-30T11:36:18Z</time>
<desc>lat.=20.955111, lon.=107.048553, Alt.=8.330208m. Speed=0.000000m/h.</desc>
<speed>0.000000</speed>
</trkpt>
<trkpt lat="20.955111" lon="107.048553">
<ele>8.309700</ele>
<time>2011-04-30T11:36:23Z</time>
<desc>lat.=20.955111, lon.=107.048553, Alt.=8.309700m. Speed=0.000000m/h.</desc>
<speed>0.000000</speed>
</trkpt>
<trkpt lat="20.955111" lon="107.048553">
<ele>8.281868</ele>
<time>2011-04-30T11:36:28Z</time>
<desc>lat.=20.955111, lon.=107.048553, Alt.=8.281868m. Speed=0.072000m/h.</desc>
<speed>0.020000</speed>
</trkpt>
<trkpt lat="20.955111" lon="107.048553">
<ele>8.275276</ele>
<time>2011-04-30T11:36:33Z</time>
<desc>lat.=20.955111, lon.=107.048553, Alt.=8.275276m. Speed=0.000000m/h.</desc>
<speed>0.000000</speed>
</trkpt>
<trkpt lat="20.955112" lon="107.048553">
<ele>8.282112</ele>
<time>2011-04-30T11:36:38Z</time>
<desc>lat.=20.955112, lon.=107.048553, Alt.=8.282112m. Speed=0.072000m/h.</desc>
<speed>0.020000</speed>
</trkpt>
<trkpt lat="20.955112" lon="107.048553">
<ele>8.276985</ele>
<time>2011-04-30T11:36:43Z</time>
<desc>lat.=20.955112, lon.=107.048553, Alt.=8.276985m. Speed=0.000000m/h.</desc>
<speed>0.000000</speed>
</trkpt>
<trkpt lat="20.955112" lon="107.048561">
<ele>8.255989</ele>
<time>2011-04-30T11:36:48Z</time>
<desc>lat.=20.955112, lon.=107.048561, Alt.=8.255989m. Speed=0.000000m/h.</desc>
<speed>0.000000</speed>
</trkpt>
<trkpt lat="20.955112" lon="107.048561">
<ele>8.257942</ele>
<time>2011-04-30T11:36:53Z</time>
<desc>lat.=20.955112, lon.=107.048561, Alt.=8.257942m. Speed=0.036000m/h.</desc>
<speed>0.010000</speed>
</trkpt>
<trkpt lat="20.955112" lon="107.048561">
<ele>8.224251</ele>
<time>2011-04-30T11:36:58Z</time>
<desc>lat.=20.955112, lon.=107.048561, Alt.=8.224251m. Speed=0.036000m/h.</desc>
<speed>0.010000</speed>
</trkpt>
<trkpt lat="20.955112" lon="107.048561">
<ele>8.200569</ele>
<time>2011-04-30T11:37:03Z</time>
<desc>lat.=20.955112, lon.=107.048561, Alt.=8.200569m. Speed=0.036000m/h.</desc>
<speed>0.010000</speed>
</trkpt>
<trkpt lat="20.955112" lon="107.048561">
<ele>8.196663</ele>
<time>2011-04-30T11:37:08Z</time>
<desc>lat.=20.955112, lon.=107.048561, Alt.=8.196663m. Speed=0.072000m/h.</desc>
<speed>0.020000</speed>
</trkpt>
<trkpt lat="20.955112" lon="107.048561">
<ele>8.176888</ele>
<time>2011-04-30T11:37:13Z</time>
<desc>lat.=20.955112, lon.=107.048561, Alt.=8.176888m. Speed=0.000000m/h.</desc>
<speed>0.000000</speed>
</trkpt>
<trkpt lat="20.955114" lon="107.048561">
<ele>8.186653</ele>
<time>2011-04-30T11:37:18Z</time>
<desc>lat.=20.955114, lon.=107.048561, Alt.=8.186653m. Speed=0.036000m/h.</desc>
<speed>0.010000</speed>
</trkpt>
<trkpt lat="20.955114" lon="107.048561">
<ele>8.162483</ele>
<time>2011-04-30T11:37:23Z</time>
<desc>lat.=20.955114, lon.=107.048561, Alt.=8.162483m. Speed=0.036000m/h.</desc>
<speed>0.010000</speed>
</trkpt>
<trkpt lat="20.955114" lon="107.048561">
<ele>8.147346</ele>
<time>2011-04-30T11:37:28Z</time>
<desc>lat.=20.955114, lon.=107.048561, Alt.=8.147346m. Speed=0.036000m/h.</desc>
<speed>0.010000</speed>
</trkpt>
<trkpt lat="20.955114" lon="107.048561">
<ele>8.144417</ele>
<time>2011-04-30T11:37:33Z</time>
<desc>lat.=20.955114, lon.=107.048561, Alt.=8.144417m. Speed=0.108000m/h.</desc>
<speed>0.030000</speed>
</trkpt>
<trkpt lat="20.955116" lon="107.048561">
<ele>8.146858</ele>
<time>2011-04-30T11:37:38Z</time>
<desc>lat.=20.955116, lon.=107.048561, Alt.=8.146858m. Speed=0.036000m/h.</desc>
<speed>0.010000</speed>
</trkpt>
<trkpt lat="20.955116" lon="107.048561">
<ele>8.143196</ele>
<time>2011-04-30T11:37:43Z</time>
<desc>lat.=20.955116, lon.=107.048561, Alt.=8.143196m. Speed=0.108000m/h.</desc>
<speed>0.030000</speed>
</trkpt>
<trkpt lat="20.955116" lon="107.048561">
<ele>8.143684</ele>
<time>2011-04-30T11:37:48Z</time>
<desc>lat.=20.955116, lon.=107.048561, Alt.=8.143684m. Speed=0.000000m/h.</desc>
<speed>0.000000</speed>
</trkpt>
<trkpt lat="20.955116" lon="107.048561">
<ele>8.125374</ele>
<time>2011-04-30T11:37:53Z</time>
<desc>lat.=20.955116, lon.=107.048561, Alt.=8.125374m. Speed=0.000000m/h.</desc>
<speed>0.000000</speed>
</trkpt>
<trkpt lat="20.955116" lon="107.048561">
<ele>8.095100</ele>
<time>2011-04-30T11:37:58Z</time>
<desc>lat.=20.955116, lon.=107.048561, Alt.=8.095100m. Speed=0.000000m/h.</desc>
<speed>0.000000</speed>
</trkpt>
<trkpt lat="20.955116" lon="107.048561">
<ele>8.069466</ele>
<time>2011-04-30T11:38:03Z</time>
<desc>lat.=20.955116, lon.=107.048561, Alt.=8.069466m. Speed=0.216000m/h.</desc>
<speed>0.060000</speed>
</trkpt>
<trkpt lat="20.955116" lon="107.048561">
<ele>8.026497</ele>
<time>2011-04-30T11:38:08Z</time>
<desc>lat.=20.955116, lon.=107.048561, Alt.=8.026497m. Speed=0.000000m/h.</desc>
<speed>0.000000</speed>
</trkpt>
<trkpt lat="20.955116" lon="107.048561">
<ele>7.988224</ele>
<time>2011-04-30T11:38:13Z</time>
<desc>lat.=20.955116, lon.=107.048561, Alt.=7.988224m. Speed=0.036000m/h.</desc>
<speed>0.010000</speed>
</trkpt>
<trkpt lat="20.955116" lon="107.048561">
<ele>7.944889</ele>
<time>2011-04-30T11:38:18Z</time>
<desc>lat.=20.955116, lon.=107.048561, Alt.=7.944889m. Speed=0.036000m/h.</desc>
<speed>0.010000</speed>
</trkpt>
<trkpt lat="20.955116" lon="107.048561">
<ele>7.919621</ele>
<time>2011-04-30T11:38:23Z</time>
<desc>lat.=20.955116, lon.=107.048561, Alt.=7.919621m. Speed=0.000000m/h.</desc>
<speed>0.000000</speed>
</trkpt>
<trkpt lat="20.955116" lon="107.048561">
<ele>7.868473</ele>
<time>2011-04-30T11:38:28Z</time>
<desc>lat.=20.955116, lon.=107.048561, Alt.=7.868473m. Speed=0.036000m/h.</desc>
<speed>0.010000</speed>
</trkpt>
<trkpt lat="20.955116" lon="107.048561">
<ele>7.813175</ele>
<time>2011-04-30T11:38:33Z</time>
<desc>lat.=20.955116, lon.=107.048561, Alt.=7.813175m. Speed=0.036000m/h.</desc>
<speed>0.010000</speed>
</trkpt>
<trkpt lat="20.955116" lon="107.048561">
<ele>7.761051</ele>
<time>2011-04-30T11:38:38Z</time>
<desc>lat.=20.955116, lon.=107.048561, Alt.=7.761051m. Speed=0.000000m/h.</desc>
<speed>0.000000</speed>
</trkpt>
<trkpt lat="20.955116" lon="107.048561">
<ele>7.724674</ele>
<time>2011-04-30T11:38:43Z</time>
<desc>lat.=20.955116, lon.=107.048561, Alt.=7.724674m. Speed=0.000000m/h.</desc>
<speed>0.000000</speed>
</trkpt>
<trkpt lat="20.955116" lon="107.048561">
<ele>7.685734</ele>
<time>2011-04-30T11:38:48Z</time>
<desc>lat.=20.955116, lon.=107.048561, Alt.=7.685734m. Speed=0.000000m/h.</desc>
<speed>0.000000</speed>
</trkpt>
<trkpt lat="20.955116" lon="107.048561">
<ele>7.657536</ele>
<time>2011-04-30T11:38:53Z</time>
<desc>lat.=20.955116, lon.=107.048561, Alt.=7.657536m. Speed=0.036000m/h.</desc>
<speed>0.010000</speed>
</trkpt>
<trkpt lat="20.955116" lon="107.048561">
<ele>7.608585</ele>
<time>2011-04-30T11:38:58Z</time>
<desc>lat.=20.955116, lon.=107.048561, Alt.=7.608585m. Speed=0.396000m/h.</desc>
<speed>0.110000</speed>
</trkpt>
<trkpt lat="20.955116" lon="107.048561">
<ele>7.613468</ele>
<time>2011-04-30T11:39:03Z</time>
<desc>lat.=20.955116, lon.=107.048561, Alt.=7.613468m. Speed=0.036000m/h.</desc>
<speed>0.010000</speed>
</trkpt>
<trkpt lat="20.955116" lon="107.048561">
<ele>7.615543</ele>
<time>2011-04-30T11:39:08Z</time>
<desc>lat.=20.955116, lon.=107.048561, Alt.=7.615543m. Speed=0.072000m/h.</desc>
<speed>0.020000</speed>
</trkpt>
<trkpt lat="20.955116" lon="107.048561">
<ele>7.631413</ele>
<time>2011-04-30T11:39:13Z</time>
<desc>lat.=20.955116, lon.=107.048561, Alt.=7.631413m. Speed=0.036000m/h.</desc>
<speed>0.010000</speed>
</trkpt>
<trkpt lat="20.955116" lon="107.048561">
<ele>7.648624</ele>
<time>2011-04-30T11:39:18Z</time>
<desc>lat.=20.955116, lon.=107.048561, Alt.=7.648624m. Speed=0.000000m/h.</desc>
<speed>0.000000</speed>
</trkpt>
<trkpt lat="20.955116" lon="107.048561">
<ele>7.690739</ele>
<time>2011-04-30T11:39:23Z</time>
<desc>lat.=20.955116, lon.=107.048561, Alt.=7.690739m. Speed=0.000000m/h.</desc>
<speed>0.000000</speed>
</trkpt>
<trkpt lat="20.955116" lon="107.048561">
<ele>7.709415</ele>
<time>2011-04-30T11:39:28Z</time>
<desc>lat.=20.955116, lon.=107.048561, Alt.=7.709415m. Speed=0.000000m/h.</desc>
<speed>0.000000</speed>
</trkpt>
<trkpt lat="20.955116" lon="107.048561">
<ele>7.695133</ele>
<time>2011-04-30T11:39:33Z</time>
<desc>lat.=20.955116, lon.=107.048561, Alt.=7.695133m. Speed=0.000000m/h.</desc>
<speed>0.000000</speed>
</trkpt>
<trkpt lat="20.955116" lon="107.048561">
<ele>7.662540</ele>
<time>2011-04-30T11:39:38Z</time>
<desc>lat.=20.955116, lon.=107.048561, Alt.=7.662540m. Speed=0.036000m/h.</desc>
<speed>0.010000</speed>
</trkpt>
<trkpt lat="20.955116" lon="107.048561">
<ele>7.639469</ele>
<time>2011-04-30T11:39:43Z</time>
<desc>lat.=20.955116, lon.=107.048561, Alt.=7.639469m. Speed=0.324000m/h.</desc>
<speed>0.090000</speed>
</trkpt>
<trkpt lat="20.955118" lon="107.048561">
<ele>7.615421</ele>
<time>2011-04-30T11:39:48Z</time>
<desc>lat.=20.955118, lon.=107.048561, Alt.=7.615421m. Speed=0.000000m/h.</desc>
<speed>0.000000</speed>
</trkpt>
<trkpt lat="20.955118" lon="107.048561">
<ele>7.606754</ele>
<time>2011-04-30T11:39:53Z</time>
<desc>lat.=20.955118, lon.=107.048561, Alt.=7.606754m. Speed=0.036000m/h.</desc>
<speed>0.010000</speed>
</trkpt>
<trkpt lat="20.955118" lon="107.048561">
<ele>7.559269</ele>
<time>2011-04-30T11:39:58Z</time>
<desc>lat.=20.955118, lon.=107.048561, Alt.=7.559269m. Speed=0.180000m/h.</desc>
<speed>0.050000</speed>
</trkpt>
<trkpt lat="20.955116" lon="107.048561">
<ele>7.505314</ele>
<time>2011-04-30T11:40:03Z</time>
<desc>lat.=20.955116, lon.=107.048561, Alt.=7.505314m. Speed=0.252000m/h.</desc>
<speed>0.070000</speed>
</trkpt>
<trkpt lat="20.955112" lon="107.048561">
<ele>7.297916</ele>
<time>2011-04-30T11:40:08Z</time>
<desc>lat.=20.955112, lon.=107.048561, Alt.=7.297916m. Speed=0.036000m/h.</desc>
<speed>0.010000</speed>
</trkpt>
<trkpt lat="20.955112" lon="107.048561">
<ele>7.236393</ele>
<time>2011-04-30T11:40:13Z</time>
<desc>lat.=20.955112, lon.=107.048561, Alt.=7.236393m. Speed=0.036000m/h.</desc>
<speed>0.010000</speed>
</trkpt>
<trkpt lat="20.955112" lon="107.048561">
<ele>7.186832</ele>
<time>2011-04-30T11:40:18Z</time>
<desc>lat.=20.955112, lon.=107.048561, Alt.=7.186832m. Speed=0.072000m/h.</desc>
<speed>0.020000</speed>
</trkpt>
<trkpt lat="20.955112" lon="107.048561">
<ele>7.168034</ele>
<time>2011-04-30T11:40:23Z</time>
<desc>lat.=20.955112, lon.=107.048561, Alt.=7.168034m. Speed=0.000000m/h.</desc>
<speed>0.000000</speed>
</trkpt>
<trkpt lat="20.955112" lon="107.048561">
<ele>7.146061</ele>
<time>2011-04-30T11:40:28Z</time>
<desc>lat.=20.955112, lon.=107.048561, Alt.=7.146061m. Speed=0.144000m/h.</desc>
<speed>0.040000</speed>
</trkpt>
<trkpt lat="20.955112" lon="107.048561">
<ele>7.119572</ele>
<time>2011-04-30T11:40:33Z</time>
<desc>lat.=20.955112, lon.=107.048561, Alt.=7.119572m. Speed=0.036000m/h.</desc>
<speed>0.010000</speed>
</trkpt>
<trkpt lat="20.955112" lon="107.048561">
<ele>7.080265</ele>
<time>2011-04-30T11:40:38Z</time>
<desc>lat.=20.955112, lon.=107.048561, Alt.=7.080265m. Speed=0.036000m/h.</desc>
<speed>0.010000</speed>
</trkpt>
<trkpt lat="20.955112" lon="107.048561">
<ele>7.035831</ele>
<time>2011-04-30T11:40:43Z</time>
<desc>lat.=20.955112, lon.=107.048561, Alt.=7.035831m. Speed=0.000000m/h.</desc>
<speed>0.000000</speed>
</trkpt>
<trkpt lat="20.955112" lon="107.048561">
<ele>7.003849</ele>
<time>2011-04-30T11:40:48Z</time>
<desc>lat.=20.955112, lon.=107.048561, Alt.=7.003849m. Speed=0.036000m/h.</desc>
<speed>0.010000</speed>
</trkpt>
<trkpt lat="20.955112" lon="107.048561">
<ele>6.941715</ele>
<time>2011-04-30T11:40:53Z</time>
<desc>lat.=20.955112, lon.=107.048561, Alt.=6.941715m. Speed=0.036000m/h.</desc>
<speed>0.010000</speed>
</trkpt>
<trkpt lat="20.955122" lon="107.048546">
<ele>5.617863</ele>
<time>2011-04-30T11:40:58Z</time>
<desc>lat.=20.955122, lon.=107.048546, Alt.=5.617863m. Speed=1.476000m/h.</desc>
<speed>0.410000</speed>
</trkpt>
<trkpt lat="20.955120" lon="107.048546">
<ele>4.123966</ele>
<time>2011-04-30T11:41:03Z</time>
<desc>lat.=20.955120, lon.=107.048546, Alt.=4.123966m. Speed=0.036000m/h.</desc>
<speed>0.010000</speed>
</trkpt>
<trkpt lat="20.955120" lon="107.048546">
<ele>4.143497</ele>
<time>2011-04-30T11:41:08Z</time>
<desc>lat.=20.955120, lon.=107.048546, Alt.=4.143497m. Speed=0.108000m/h.</desc>
<speed>0.030000</speed>
</trkpt>
<trkpt lat="20.955120" lon="107.048546">
<ele>4.117130</ele>
<time>2011-04-30T11:41:13Z</time>
<desc>lat.=20.955120, lon.=107.048546, Alt.=4.117130m. Speed=0.288000m/h.</desc>
<speed>0.080000</speed>
</trkpt>
<trkpt lat="20.955120" lon="107.048546">
<ele>4.083317</ele>
<time>2011-04-30T11:41:18Z</time>
<desc>lat.=20.955120, lon.=107.048546, Alt.=4.083317m. Speed=0.252000m/h.</desc>
<speed>0.070000</speed>
</trkpt>
<trkpt lat="20.955120" lon="107.048546">
<ele>4.100651</ele>
<time>2011-04-30T11:41:23Z</time>
<desc>lat.=20.955120, lon.=107.048546, Alt.=4.100651m. Speed=0.144000m/h.</desc>
<speed>0.040000</speed>
</trkpt>
<trkpt lat="20.955120" lon="107.048538">
<ele>4.032780</ele>
<time>2011-04-30T11:41:28Z</time>
<desc>lat.=20.955120, lon.=107.048538, Alt.=4.032780m. Speed=0.036000m/h.</desc>
<speed>0.010000</speed>
</trkpt>
<trkpt lat="20.955118" lon="107.048538">
<ele>4.123478</ele>
<time>2011-04-30T11:41:33Z</time>
<desc>lat.=20.955118, lon.=107.048538, Alt.=4.123478m. Speed=0.540000m/h.</desc>
<speed>0.150000</speed>
</trkpt>
<trkpt lat="20.955116" lon="107.048538">
<ele>4.367985</ele>
<time>2011-04-30T11:41:38Z</time>
<desc>lat.=20.955116, lon.=107.048538, Alt.=4.367985m. Speed=0.144000m/h.</desc>
<speed>0.040000</speed>
</trkpt>
<trkpt lat="20.955114" lon="107.048538">
<ele>4.341129</ele>
<time>2011-04-30T11:41:43Z</time>
<desc>lat.=20.955114, lon.=107.048538, Alt.=4.341129m. Speed=0.000000m/h.</desc>
<speed>0.000000</speed>
</trkpt>
<trkpt lat="20.955114" lon="107.048538">
<ele>4.299747</ele>
<time>2011-04-30T11:41:48Z</time>
<desc>lat.=20.955114, lon.=107.048538, Alt.=4.299747m. Speed=0.000000m/h.</desc>
<speed>0.000000</speed>
</trkpt>
<trkpt lat="20.955114" lon="107.048538">
<ele>4.275578</ele>
<time>2011-04-30T11:41:53Z</time>
<desc>lat.=20.955114, lon.=107.048538, Alt.=4.275578m. Speed=0.180000m/h.</desc>
<speed>0.050000</speed>
</trkpt>
<trkpt lat="20.955114" lon="107.048538">
<ele>4.280460</ele>
<time>2011-04-30T11:41:58Z</time>
<desc>lat.=20.955114, lon.=107.048538, Alt.=4.280460m. Speed=0.036000m/h.</desc>
<speed>0.010000</speed>
</trkpt>
<trkpt lat="20.955114" lon="107.048538">
<ele>4.274601</ele>
<time>2011-04-30T11:42:03Z</time>
<desc>lat.=20.955114, lon.=107.048538, Alt.=4.274601m. Speed=0.000000m/h.</desc>
<speed>0.000000</speed>
</trkpt>
<trkpt lat="20.955112" lon="107.048538">
<ele>4.264957</ele>
<time>2011-04-30T11:42:08Z</time>
<desc>lat.=20.955112, lon.=107.048538, Alt.=4.264957m. Speed=0.180000m/h.</desc>
<speed>0.050000</speed>
</trkpt>
<trkpt lat="20.955107" lon="107.048546">
<ele>4.538883</ele>
<time>2011-04-30T11:42:13Z</time>
<desc>lat.=20.955107, lon.=107.048546, Alt.=4.538883m. Speed=2.556000m/h.</desc>
<speed>0.710000</speed>
</trkpt>
<trkpt lat="20.955074" lon="107.048569">
<ele>4.328068</ele>
<time>2011-04-30T11:42:18Z</time>
<desc>lat.=20.955074, lon.=107.048569, Alt.=4.328068m. Speed=2.916000m/h.</desc>
<speed>0.810000</speed>
</trkpt>
<trkpt lat="20.955042" lon="107.048599">
<ele>5.071720</ele>
<time>2011-04-30T11:42:23Z</time>
<desc>lat.=20.955042, lon.=107.048599, Alt.=5.071720m. Speed=0.756000m/h.</desc>
<speed>0.210000</speed>
</trkpt>
<trkpt lat="20.955029" lon="107.048599">
<ele>4.190495</ele>
<time>2011-04-30T11:42:28Z</time>
<desc>lat.=20.955029, lon.=107.048599, Alt.=4.190495m. Speed=2.952000m/h.</desc>
<speed>0.820000</speed>
</trkpt>
<trkpt lat="20.955000" lon="107.048630">
<ele>4.666935</ele>
<time>2011-04-30T11:42:33Z</time>
<desc>lat.=20.955000, lon.=107.048630, Alt.=4.666935m. Speed=3.060000m/h.</desc>
<speed>0.850000</speed>
</trkpt>
<trkpt lat="20.955000" lon="107.048660">
<ele>4.895573</ele>
<time>2011-04-30T11:42:38Z</time>
<desc>lat.=20.955000, lon.=107.048660, Alt.=4.895573m. Speed=3.132000m/h.</desc>
<speed>0.870000</speed>
</trkpt>
<trkpt lat="20.955008" lon="107.048691">
<ele>5.605656</ele>
<time>2011-04-30T11:42:43Z</time>
<desc>lat.=20.955008, lon.=107.048691, Alt.=5.605656m. Speed=1.440000m/h.</desc>
<speed>0.400000</speed>
</trkpt>
<trkpt lat="20.955013" lon="107.048714">
<ele>5.083195</ele>
<time>2011-04-30T11:42:48Z</time>
<desc>lat.=20.955013, lon.=107.048714, Alt.=5.083195m. Speed=0.612000m/h.</desc>
<speed>0.170000</speed>
</trkpt>
<trkpt lat="20.955017" lon="107.048729">
<ele>5.138737</ele>
<time>2011-04-30T11:42:53Z</time>
<desc>lat.=20.955017, lon.=107.048729, Alt.=5.138737m. Speed=2.016000m/h.</desc>
<speed>0.560000</speed>
</trkpt>
<trkpt lat="20.955017" lon="107.048744">
<ele>5.007511</ele>
<time>2011-04-30T11:42:58Z</time>
<desc>lat.=20.955017, lon.=107.048744, Alt.=5.007511m. Speed=1.512000m/h.</desc>
<speed>0.420000</speed>
</trkpt>
<trkpt lat="20.955029" lon="107.048767">
<ele>5.371037</ele>
<time>2011-04-30T11:43:03Z</time>
<desc>lat.=20.955029, lon.=107.048767, Alt.=5.371037m. Speed=3.168000m/h.</desc>
<speed>0.880000</speed>
</trkpt>
<trkpt lat="20.955036" lon="107.048805">
<ele>5.776310</ele>
<time>2011-04-30T11:43:08Z</time>
<desc>lat.=20.955036, lon.=107.048805, Alt.=5.776310m. Speed=2.592000m/h.</desc>
<speed>0.720000</speed>
</trkpt>
<trkpt lat="20.955032" lon="107.048820">
<ele>5.458317</ele>
<time>2011-04-30T11:43:13Z</time>
<desc>lat.=20.955032, lon.=107.048820, Alt.=5.458317m. Speed=1.008000m/h.</desc>
<speed>0.280000</speed>
</trkpt>
<trkpt lat="20.955048" lon="107.048836">
<ele>5.519718</ele>
<time>2011-04-30T11:43:18Z</time>
<desc>lat.=20.955048, lon.=107.048836, Alt.=5.519718m. Speed=0.396000m/h.</desc>
<speed>0.110000</speed>
</trkpt>
<trkpt lat="20.955059" lon="107.048859">
<ele>4.561344</ele>
<time>2011-04-30T11:43:23Z</time>
<desc>lat.=20.955059, lon.=107.048859, Alt.=4.561344m. Speed=3.960000m/h.</desc>
<speed>1.100000</speed>
</trkpt>
<trkpt lat="20.955074" lon="107.048897">
<ele>4.542545</ele>
<time>2011-04-30T11:43:28Z</time>
<desc>lat.=20.955074, lon.=107.048897, Alt.=4.542545m. Speed=2.880000m/h.</desc>
<speed>0.800000</speed>
</trkpt>
<trkpt lat="20.955090" lon="107.048935">
<ele>4.600773</ele>
<time>2011-04-30T11:43:33Z</time>
<desc>lat.=20.955090, lon.=107.048935, Alt.=4.600773m. Speed=3.420000m/h.</desc>
<speed>0.950000</speed>
</trkpt>
<trkpt lat="20.955111" lon="107.048973">
<ele>4.871525</ele>
<time>2011-04-30T11:43:38Z</time>
<desc>lat.=20.955111, lon.=107.048973, Alt.=4.871525m. Speed=2.304000m/h.</desc>
<speed>0.640000</speed>
</trkpt>
<trkpt lat="20.955128" lon="107.048988">
<ele>4.676456</ele>
<time>2011-04-30T11:43:43Z</time>
<desc>lat.=20.955128, lon.=107.048988, Alt.=4.676456m. Speed=1.116000m/h.</desc>
<speed>0.310000</speed>
</trkpt>
<trkpt lat="20.955145" lon="107.048996">
<ele>4.382755</ele>
<time>2011-04-30T11:43:48Z</time>
<desc>lat.=20.955145, lon.=107.048996, Alt.=4.382755m. Speed=0.180000m/h.</desc>
<speed>0.050000</speed>
</trkpt>
<trkpt lat="20.955147" lon="107.048996">
<ele>4.602726</ele>
<time>2011-04-30T11:43:53Z</time>
<desc>lat.=20.955147, lon.=107.048996, Alt.=4.602726m. Speed=0.612000m/h.</desc>
<speed>0.170000</speed>
</trkpt>
<trkpt lat="20.955143" lon="107.049004">
<ele>4.451969</ele>
<time>2011-04-30T11:43:58Z</time>
<desc>lat.=20.955143, lon.=107.049004, Alt.=4.451969m. Speed=0.180000m/h.</desc>
<speed>0.050000</speed>
</trkpt>
<trkpt lat="20.955143" lon="107.049004">
<ele>4.447697</ele>
<time>2011-04-30T11:44:03Z</time>
<desc>lat.=20.955143, lon.=107.049004, Alt.=4.447697m. Speed=0.000000m/h.</desc>
<speed>0.000000</speed>
</trkpt>
<trkpt lat="20.955143" lon="107.049004">
<ele>4.448063</ele>
<time>2011-04-30T11:44:08Z</time>
<desc>lat.=20.955143, lon.=107.049004, Alt.=4.448063m. Speed=0.144000m/h.</desc>
<speed>0.040000</speed>
</trkpt>
<trkpt lat="20.955143" lon="107.049004">
<ele>4.370304</ele>
<time>2011-04-30T11:44:13Z</time>
<desc>lat.=20.955143, lon.=107.049004, Alt.=4.370304m. Speed=0.144000m/h.</desc>
<speed>0.040000</speed>
</trkpt>
<trkpt lat="20.955143" lon="107.049004">
<ele>4.311222</ele>
<time>2011-04-30T11:44:18Z</time>
<desc>lat.=20.955143, lon.=107.049004, Alt.=4.311222m. Speed=0.036000m/h.</desc>
<speed>0.010000</speed>
</trkpt>
<trkpt lat="20.955143" lon="107.049004">
<ele>4.312321</ele>
<time>2011-04-30T11:44:23Z</time>
<desc>lat.=20.955143, lon.=107.049004, Alt.=4.312321m. Speed=0.072000m/h.</desc>
<speed>0.020000</speed>
</trkpt>
<trkpt lat="20.955143" lon="107.049004">
<ele>4.382145</ele>
<time>2011-04-30T11:44:28Z</time>
<desc>lat.=20.955143, lon.=107.049004, Alt.=4.382145m. Speed=0.036000m/h.</desc>
<speed>0.010000</speed>
</trkpt>
<trkpt lat="20.955145" lon="107.049004">
<ele>4.208561</ele>
<time>2011-04-30T11:44:33Z</time>
<desc>lat.=20.955145, lon.=107.049004, Alt.=4.208561m. Speed=0.072000m/h.</desc>
<speed>0.020000</speed>
</trkpt>
<trkpt lat="20.955143" lon="107.049004">
<ele>4.209660</ele>
<time>2011-04-30T11:44:38Z</time>
<desc>lat.=20.955143, lon.=107.049004, Alt.=4.209660m. Speed=0.144000m/h.</desc>
<speed>0.040000</speed>
</trkpt>
<trkpt lat="20.955143" lon="107.049004">
<ele>4.214176</ele>
<time>2011-04-30T11:44:43Z</time>
<desc>lat.=20.955143, lon.=107.049004, Alt.=4.214176m. Speed=1.080000m/h.</desc>
<speed>0.300000</speed>
</trkpt>
<trkpt lat="20.955145" lon="107.049004">
<ele>4.312199</ele>
<time>2011-04-30T11:44:48Z</time>
<desc>lat.=20.955145, lon.=107.049004, Alt.=4.312199m. Speed=0.576000m/h.</desc>
<speed>0.160000</speed>
</trkpt>
<trkpt lat="20.955149" lon="107.049011">
<ele>4.356998</ele>
<time>2011-04-30T11:44:53Z</time>
<desc>lat.=20.955149, lon.=107.049011, Alt.=4.356998m. Speed=2.988000m/h.</desc>
<speed>0.830000</speed>
</trkpt>
<trkpt lat="20.955151" lon="107.049049">
<ele>4.221867</ele>
<time>2011-04-30T11:44:58Z</time>
<desc>lat.=20.955151, lon.=107.049049, Alt.=4.221867m. Speed=1.944000m/h.</desc>
<speed>0.540000</speed>
</trkpt>
<trkpt lat="20.955156" lon="107.049065">
<ele>4.371891</ele>
<time>2011-04-30T11:45:03Z</time>
<desc>lat.=20.955156, lon.=107.049065, Alt.=4.371891m. Speed=1.872000m/h.</desc>
<speed>0.520000</speed>
</trkpt>
<trkpt lat="20.955170" lon="107.049072">
<ele>4.406803</ele>
<time>2011-04-30T11:45:08Z</time>
<desc>lat.=20.955170, lon.=107.049072, Alt.=4.406803m. Speed=1.368000m/h.</desc>
<speed>0.380000</speed>
</trkpt>
<trkpt lat="20.955172" lon="107.049110">
<ele>4.019718</ele>
<time>2011-04-30T11:45:13Z</time>
<desc>lat.=20.955172, lon.=107.049110, Alt.=4.019718m. Speed=2.520000m/h.</desc>
<speed>0.700000</speed>
</trkpt>
<trkpt lat="20.955187" lon="107.049141">
<ele>4.288639</ele>
<time>2011-04-30T11:45:18Z</time>
<desc>lat.=20.955187, lon.=107.049141, Alt.=4.288639m. Speed=3.096000m/h.</desc>
<speed>0.860000</speed>
</trkpt>
<trkpt lat="20.955198" lon="107.049164">
<ele>3.614473</ele>
<time>2011-04-30T11:45:23Z</time>
<desc>lat.=20.955198, lon.=107.049164, Alt.=3.614473m. Speed=1.872000m/h.</desc>
<speed>0.520000</speed>
</trkpt>
<trkpt lat="20.955217" lon="107.049194">
<ele>4.052921</ele>
<time>2011-04-30T11:45:28Z</time>
<desc>lat.=20.955217, lon.=107.049194, Alt.=4.052921m. Speed=3.348000m/h.</desc>
<speed>0.930000</speed>
</trkpt>
<trkpt lat="20.955244" lon="107.049202">
<ele>4.523746</ele>
<time>2011-04-30T11:45:33Z</time>
<desc>lat.=20.955244, lon.=107.049202, Alt.=4.523746m. Speed=2.484000m/h.</desc>
<speed>0.690000</speed>
</trkpt>
<trkpt lat="20.955265" lon="107.049217">
<ele>4.880314</ele>
<time>2011-04-30T11:45:38Z</time>
<desc>lat.=20.955265, lon.=107.049217, Alt.=4.880314m. Speed=2.088000m/h.</desc>
<speed>0.580000</speed>
</trkpt>
<trkpt lat="20.955273" lon="107.049232">
<ele>5.236515</ele>
<time>2011-04-30T11:45:43Z</time>
<desc>lat.=20.955273, lon.=107.049232, Alt.=5.236515m. Speed=1.800000m/h.</desc>
<speed>0.500000</speed>
</trkpt>
<trkpt lat="20.955280" lon="107.049255">
<ele>5.502628</ele>
<time>2011-04-30T11:45:48Z</time>
<desc>lat.=20.955280, lon.=107.049255, Alt.=5.502628m. Speed=2.484000m/h.</desc>
<speed>0.690000</speed>
</trkpt>
<trkpt lat="20.955296" lon="107.049286">
<ele>4.696232</ele>
<time>2011-04-30T11:45:53Z</time>
<desc>lat.=20.955296, lon.=107.049286, Alt.=4.696232m. Speed=2.340000m/h.</desc>
<speed>0.650000</speed>
</trkpt>
<trkpt lat="20.955307" lon="107.049324">
<ele>4.252628</ele>
<time>2011-04-30T11:45:58Z</time>
<desc>lat.=20.955307, lon.=107.049324, Alt.=4.252628m. Speed=2.808000m/h.</desc>
<speed>0.780000</speed>
</trkpt>
<trkpt lat="20.955320" lon="107.049370">
<ele>4.279850</ele>
<time>2011-04-30T11:46:03Z</time>
<desc>lat.=20.955320, lon.=107.049370, Alt.=4.279850m. Speed=2.232000m/h.</desc>
<speed>0.620000</speed>
</trkpt>
<trkpt lat="20.955334" lon="107.049400">
<ele>4.748234</ele>
<time>2011-04-30T11:46:08Z</time>
<desc>lat.=20.955334, lon.=107.049400, Alt.=4.748234m. Speed=2.376000m/h.</desc>
<speed>0.660000</speed>
</trkpt>
<trkpt lat="20.955353" lon="107.049431">
<ele>5.141666</ele>
<time>2011-04-30T11:46:13Z</time>
<desc>lat.=20.955353, lon.=107.049431, Alt.=5.141666m. Speed=2.916000m/h.</desc>
<speed>0.810000</speed>
</trkpt>
<trkpt lat="20.955368" lon="107.049461">
<ele>5.432926</ele>
<time>2011-04-30T11:46:18Z</time>
<desc>lat.=20.955368, lon.=107.049461, Alt.=5.432926m. Speed=3.168000m/h.</desc>
<speed>0.880000</speed>
</trkpt>
<trkpt lat="20.955379" lon="107.049500">
<ele>6.059757</ele>
<time>2011-04-30T11:46:23Z</time>
<desc>lat.=20.955379, lon.=107.049500, Alt.=6.059757m. Speed=1.944000m/h.</desc>
<speed>0.540000</speed>
</trkpt>
<trkpt lat="20.955383" lon="107.049530">
<ele>6.834538</ele>
<time>2011-04-30T11:46:28Z</time>
<desc>lat.=20.955383, lon.=107.049530, Alt.=6.834538m. Speed=1.296000m/h.</desc>
<speed>0.360000</speed>
</trkpt>
<trkpt lat="20.955395" lon="107.049576">
<ele>6.351749</ele>
<time>2011-04-30T11:46:33Z</time>
<desc>lat.=20.955395, lon.=107.049576, Alt.=6.351749m. Speed=3.276000m/h.</desc>
<speed>0.910000</speed>
</trkpt>
<trkpt lat="20.955416" lon="107.049606">
<ele>5.533268</ele>
<time>2011-04-30T11:46:38Z</time>
<desc>lat.=20.955416, lon.=107.049606, Alt.=5.533268m. Speed=1.656000m/h.</desc>
<speed>0.460000</speed>
</trkpt>
<trkpt lat="20.955429" lon="107.049637">
<ele>6.066837</ele>
<time>2011-04-30T11:46:43Z</time>
<desc>lat.=20.955429, lon.=107.049637, Alt.=6.066837m. Speed=2.808000m/h.</desc>
<speed>0.780000</speed>
</trkpt>
<trkpt lat="20.955446" lon="107.049667">
<ele>6.108341</ele>
<time>2011-04-30T11:46:48Z</time>
<desc>lat.=20.955446, lon.=107.049667, Alt.=6.108341m. Speed=1.872000m/h.</desc>
<speed>0.520000</speed>
</trkpt>
<trkpt lat="20.955471" lon="107.049675">
<ele>6.965641</ele>
<time>2011-04-30T11:46:53Z</time>
<desc>lat.=20.955471, lon.=107.049675, Alt.=6.965641m. Speed=2.808000m/h.</desc>
<speed>0.780000</speed>
</trkpt>
<trkpt lat="20.955486" lon="107.049690">
<ele>6.792423</ele>
<time>2011-04-30T11:46:58Z</time>
<desc>lat.=20.955486, lon.=107.049690, Alt.=6.792423m. Speed=3.096000m/h.</desc>
<speed>0.860000</speed>
</trkpt>
<trkpt lat="20.955509" lon="107.049728">
<ele>6.978336</ele>
<time>2011-04-30T11:47:03Z</time>
<desc>lat.=20.955509, lon.=107.049728, Alt.=6.978336m. Speed=3.636000m/h.</desc>
<speed>1.010000</speed>
</trkpt>
<trkpt lat="20.955536" lon="107.049751">
<ele>7.212345</ele>
<time>2011-04-30T11:47:08Z</time>
<desc>lat.=20.955536, lon.=107.049751, Alt.=7.212345m. Speed=3.492000m/h.</desc>
<speed>0.970000</speed>
</trkpt>
<trkpt lat="20.955557" lon="107.049789">
<ele>7.493717</ele>
<time>2011-04-30T11:47:13Z</time>
<desc>lat.=20.955557, lon.=107.049789, Alt.=7.493717m. Speed=3.420000m/h.</desc>
<speed>0.950000</speed>
</trkpt>
<trkpt lat="20.955593" lon="107.049820">
<ele>7.365177</ele>
<time>2011-04-30T11:47:18Z</time>
<desc>lat.=20.955593, lon.=107.049820, Alt.=7.365177m. Speed=1.656000m/h.</desc>
<speed>0.460000</speed>
</trkpt>
<trkpt lat="20.955618" lon="107.049835">
<ele>6.611759</ele>
<time>2011-04-30T11:47:23Z</time>
<desc>lat.=20.955618, lon.=107.049835, Alt.=6.611759m. Speed=3.816000m/h.</desc>
<speed>1.060000</speed>
</trkpt>
<trkpt lat="20.955645" lon="107.049873">
<ele>6.497990</ele>
<time>2011-04-30T11:47:28Z</time>
<desc>lat.=20.955645, lon.=107.049873, Alt.=6.497990m. Speed=3.780000m/h.</desc>
<speed>1.050000</speed>
</trkpt>
<trkpt lat="20.955679" lon="107.049904">
<ele>6.216251</ele>
<time>2011-04-30T11:47:33Z</time>
<desc>lat.=20.955679, lon.=107.049904, Alt.=6.216251m. Speed=3.816000m/h.</desc>
<speed>1.060000</speed>
</trkpt>
<trkpt lat="20.955688" lon="107.049919">
<ele>7.525578</ele>
<time>2011-04-30T11:47:38Z</time>
<desc>lat.=20.955688, lon.=107.049919, Alt.=7.525578m. Speed=1.296000m/h.</desc>
<speed>0.360000</speed>
</trkpt>
<trkpt lat="20.955706" lon="107.049934">
<ele>9.500130</ele>
<time>2011-04-30T11:47:43Z</time>
<desc>lat.=20.955706, lon.=107.049934, Alt.=9.500130m. Speed=1.260000m/h.</desc>
<speed>0.350000</speed>
</trkpt>
<trkpt lat="20.955751" lon="107.049942">
<ele>9.543587</ele>
<time>2011-04-30T11:47:48Z</time>
<desc>lat.=20.955751, lon.=107.049942, Alt.=9.543587m. Speed=2.592000m/h.</desc>
<speed>0.720000</speed>
</trkpt>
<trkpt lat="20.955770" lon="107.049957">
<ele>10.220345</ele>
<time>2011-04-30T11:47:53Z</time>
<desc>lat.=20.955770, lon.=107.049957, Alt.=10.220345m. Speed=2.592000m/h.</desc>
<speed>0.720000</speed>
</trkpt>
<trkpt lat="20.955795" lon="107.049980">
<ele>9.595589</ele>
<time>2011-04-30T11:47:58Z</time>
<desc>lat.=20.955795, lon.=107.049980, Alt.=9.595589m. Speed=0.720000m/h.</desc>
<speed>0.200000</speed>
</trkpt>
<trkpt lat="20.955820" lon="107.049995">
<ele>8.782845</ele>
<time>2011-04-30T11:48:03Z</time>
<desc>lat.=20.955820, lon.=107.049995, Alt.=8.782845m. Speed=0.756000m/h.</desc>
<speed>0.210000</speed>
</trkpt>
<trkpt lat="20.955839" lon="107.049995">
<ele>8.724251</ele>
<time>2011-04-30T11:48:08Z</time>
<desc>lat.=20.955839, lon.=107.049995, Alt.=8.724251m. Speed=1.008000m/h.</desc>
<speed>0.280000</speed>
</trkpt>
<trkpt lat="20.955828" lon="107.050011">
<ele>9.085335</ele>
<time>2011-04-30T11:48:13Z</time>
<desc>lat.=20.955828, lon.=107.050011, Alt.=9.085335m. Speed=0.252000m/h.</desc>
<speed>0.070000</speed>
</trkpt>
<trkpt lat="20.955835" lon="107.050003">
<ele>8.937630</ele>
<time>2011-04-30T11:48:18Z</time>
<desc>lat.=20.955835, lon.=107.050003, Alt.=8.937630m. Speed=1.512000m/h.</desc>
<speed>0.420000</speed>
</trkpt>
<trkpt lat="20.955841" lon="107.050003">
<ele>9.417366</ele>
<time>2011-04-30T11:48:23Z</time>
<desc>lat.=20.955841, lon.=107.050003, Alt.=9.417366m. Speed=0.576000m/h.</desc>
<speed>0.160000</speed>
</trkpt>
<trkpt lat="20.955841" lon="107.050011">
<ele>10.109261</ele>
<time>2011-04-30T11:48:28Z</time>
<desc>lat.=20.955841, lon.=107.050011, Alt.=10.109261m. Speed=1.044000m/h.</desc>
<speed>0.290000</speed>
</trkpt>
<trkpt lat="20.955841" lon="107.050003">
<ele>9.072884</ele>
<time>2011-04-30T11:48:33Z</time>
<desc>lat.=20.955841, lon.=107.050003, Alt.=9.072884m. Speed=0.612000m/h.</desc>
<speed>0.170000</speed>
</trkpt>
<trkpt lat="20.955835" lon="107.050011">
<ele>8.611946</ele>
<time>2011-04-30T11:48:38Z</time>
<desc>lat.=20.955835, lon.=107.050011, Alt.=8.611946m. Speed=0.360000m/h.</desc>
<speed>0.100000</speed>
</trkpt>
<trkpt lat="20.955832" lon="107.050003">
<ele>7.930607</ele>
<time>2011-04-30T11:48:43Z</time>
<desc>lat.=20.955832, lon.=107.050003, Alt.=7.930607m. Speed=0.180000m/h.</desc>
<speed>0.050000</speed>
</trkpt>
<trkpt lat="20.955824" lon="107.050011">
<ele>7.462955</ele>
<time>2011-04-30T11:48:48Z</time>
<desc>lat.=20.955824, lon.=107.050011, Alt.=7.462955m. Speed=0.216000m/h.</desc>
<speed>0.060000</speed>
</trkpt>
<trkpt lat="20.955812" lon="107.050011">
<ele>7.685246</ele>
<time>2011-04-30T11:48:53Z</time>
<desc>lat.=20.955812, lon.=107.050011, Alt.=7.685246m. Speed=1.116000m/h.</desc>
<speed>0.310000</speed>
</trkpt>
<trkpt lat="20.955832" lon="107.050018">
<ele>7.825993</ele>
<time>2011-04-30T11:48:58Z</time>
<desc>lat.=20.955832, lon.=107.050018, Alt.=7.825993m. Speed=0.972000m/h.</desc>
<speed>0.270000</speed>
</trkpt>
<trkpt lat="20.955822" lon="107.050049">
<ele>8.122932</ele>
<time>2011-04-30T11:49:03Z</time>
<desc>lat.=20.955822, lon.=107.050049, Alt.=8.122932m. Speed=3.420000m/h.</desc>
<speed>0.950000</speed>
</trkpt>
<trkpt lat="20.955843" lon="107.050087">
<ele>7.313541</ele>
<time>2011-04-30T11:49:08Z</time>
<desc>lat.=20.955843, lon.=107.050087, Alt.=7.313541m. Speed=3.528000m/h.</desc>
<speed>0.980000</speed>
</trkpt>
<trkpt lat="20.955856" lon="107.050102">
<ele>7.441471</ele>
<time>2011-04-30T11:49:13Z</time>
<desc>lat.=20.955856, lon.=107.050102, Alt.=7.441471m. Speed=2.448000m/h.</desc>
<speed>0.680000</speed>
</trkpt>
<trkpt lat="20.955875" lon="107.050102">
<ele>8.218147</ele>
<time>2011-04-30T11:49:18Z</time>
<desc>lat.=20.955875, lon.=107.050102, Alt.=8.218147m. Speed=1.044000m/h.</desc>
<speed>0.290000</speed>
</trkpt>
<trkpt lat="20.955902" lon="107.050110">
<ele>8.326790</ele>
<time>2011-04-30T11:49:23Z</time>
<desc>lat.=20.955902, lon.=107.050110, Alt.=8.326790m. Speed=3.276000m/h.</desc>
<speed>0.910000</speed>
</trkpt>
<trkpt lat="20.955933" lon="107.050110">
<ele>9.225471</ele>
<time>2011-04-30T11:49:28Z</time>
<desc>lat.=20.955933, lon.=107.050110, Alt.=9.225471m. Speed=2.340000m/h.</desc>
<speed>0.650000</speed>
</trkpt>
<trkpt lat="20.955959" lon="107.050095">
<ele>10.166878</ele>
<time>2011-04-30T11:49:33Z</time>
<desc>lat.=20.955959, lon.=107.050095, Alt.=10.166878m. Speed=1.080000m/h.</desc>
<speed>0.300000</speed>
</trkpt>
<trkpt lat="20.955961" lon="107.050087">
<ele>9.530647</ele>
<time>2011-04-30T11:49:38Z</time>
<desc>lat.=20.955961, lon.=107.050087, Alt.=9.530647m. Speed=0.288000m/h.</desc>
<speed>0.080000</speed>
</trkpt>
<trkpt lat="20.955965" lon="107.050087">
<ele>9.682014</ele>
<time>2011-04-30T11:49:43Z</time>
<desc>lat.=20.955965, lon.=107.050087, Alt.=9.682014m. Speed=1.260000m/h.</desc>
<speed>0.350000</speed>
</trkpt>
<trkpt lat="20.955986" lon="107.050087">
<ele>8.897835</ele>
<time>2011-04-30T11:49:48Z</time>
<desc>lat.=20.955986, lon.=107.050087, Alt.=8.897835m. Speed=2.232000m/h.</desc>
<speed>0.620000</speed>
</trkpt>
<trkpt lat="20.956007" lon="107.050125">
<ele>9.388802</ele>
<time>2011-04-30T11:49:53Z</time>
<desc>lat.=20.956007, lon.=107.050125, Alt.=9.388802m. Speed=1.116000m/h.</desc>
<speed>0.310000</speed>
</trkpt>
<trkpt lat="20.956030" lon="107.050148">
<ele>9.698128</ele>
<time>2011-04-30T11:49:58Z</time>
<desc>lat.=20.956030, lon.=107.050148, Alt.=9.698128m. Speed=2.016000m/h.</desc>
<speed>0.560000</speed>
</trkpt>
<trkpt lat="20.956028" lon="107.050148">
<ele>9.117561</ele>
<time>2011-04-30T11:50:03Z</time>
<desc>lat.=20.956028, lon.=107.050148, Alt.=9.117561m. Speed=2.340000m/h.</desc>
<speed>0.650000</speed>
</trkpt>
<trkpt lat="20.956009" lon="107.050179">
<ele>9.740364</ele>
<time>2011-04-30T11:50:08Z</time>
<desc>lat.=20.956009, lon.=107.050179, Alt.=9.740364m. Speed=2.016000m/h.</desc>
<speed>0.560000</speed>
</trkpt>
<trkpt lat="20.955999" lon="107.050186">
<ele>9.893440</ele>
<time>2011-04-30T11:50:13Z</time>
<desc>lat.=20.955999, lon.=107.050186, Alt.=9.893440m. Speed=1.008000m/h.</desc>
<speed>0.280000</speed>
</trkpt>
<trkpt lat="20.955982" lon="107.050201">
<ele>9.520149</ele>
<time>2011-04-30T11:50:18Z</time>
<desc>lat.=20.955982, lon.=107.050201, Alt.=9.520149m. Speed=1.728000m/h.</desc>
<speed>0.480000</speed>
</trkpt>
<trkpt lat="20.955986" lon="107.050217">
<ele>8.460823</ele>
<time>2011-04-30T11:50:23Z</time>
<desc>lat.=20.955986, lon.=107.050217, Alt.=8.460823m. Speed=1.260000m/h.</desc>
<speed>0.350000</speed>
</trkpt>
<trkpt lat="20.955982" lon="107.050232">
<ele>6.895939</ele>
<time>2011-04-30T11:50:28Z</time>
<desc>lat.=20.955982, lon.=107.050232, Alt.=6.895939m. Speed=0.036000m/h.</desc>
<speed>0.010000</speed>
</trkpt>
<trkpt lat="20.955982" lon="107.050224">
<ele>6.346500</ele>
<time>2011-04-30T11:50:33Z</time>
<desc>lat.=20.955982, lon.=107.050224, Alt.=6.346500m. Speed=0.936000m/h.</desc>
<speed>0.260000</speed>
</trkpt>
<trkpt lat="20.955982" lon="107.050224">
<ele>6.149235</ele>
<time>2011-04-30T11:50:38Z</time>
<desc>lat.=20.955982, lon.=107.050224, Alt.=6.149235m. Speed=0.036000m/h.</desc>
<speed>0.010000</speed>
</trkpt>
<trkpt lat="20.955982" lon="107.050224">
<ele>6.033756</ele>
<time>2011-04-30T11:50:43Z</time>
<desc>lat.=20.955982, lon.=107.050224, Alt.=6.033756m. Speed=0.036000m/h.</desc>
<speed>0.010000</speed>
</trkpt>
<trkpt lat="20.955982" lon="107.050224">
<ele>5.954777</ele>
<time>2011-04-30T11:50:48Z</time>
<desc>lat.=20.955982, lon.=107.050224, Alt.=5.954777m. Speed=0.000000m/h.</desc>
<speed>0.000000</speed>
</trkpt>
<trkpt lat="20.955982" lon="107.050224">
<ele>5.939640</ele>
<time>2011-04-30T11:50:53Z</time>
<desc>lat.=20.955982, lon.=107.050224, Alt.=5.939640m. Speed=0.036000m/h.</desc>
<speed>0.010000</speed>
</trkpt>
<trkpt lat="20.955982" lon="107.050224">
<ele>5.922672</ele>
<time>2011-04-30T11:50:58Z</time>
<desc>lat.=20.955982, lon.=107.050224, Alt.=5.922672m. Speed=0.000000m/h.</desc>
<speed>0.000000</speed>
</trkpt>
<trkpt lat="20.955982" lon="107.050224">
<ele>5.907658</ele>
<time>2011-04-30T11:51:03Z</time>
<desc>lat.=20.955982, lon.=107.050224, Alt.=5.907658m. Speed=0.036000m/h.</desc>
<speed>0.010000</speed>
</trkpt>
<trkpt lat="20.955982" lon="107.050232">
<ele>5.900211</ele>
<time>2011-04-30T11:51:08Z</time>
<desc>lat.=20.955982, lon.=107.050232, Alt.=5.900211m. Speed=0.072000m/h.</desc>
<speed>0.020000</speed>
</trkpt>
<trkpt lat="20.955982" lon="107.050232">
<ele>5.877506</ele>
<time>2011-04-30T11:51:13Z</time>
<desc>lat.=20.955982, lon.=107.050232, Alt.=5.877506m. Speed=0.000000m/h.</desc>
<speed>0.000000</speed>
</trkpt>
<trkpt lat="20.955982" lon="107.050232">
<ele>5.858952</ele>
<time>2011-04-30T11:51:18Z</time>
<desc>lat.=20.955982, lon.=107.050232, Alt.=5.858952m. Speed=0.000000m/h.</desc>
<speed>0.000000</speed>
</trkpt>
<trkpt lat="20.955982" lon="107.050232">
<ele>5.828068</ele>
<time>2011-04-30T11:51:23Z</time>
<desc>lat.=20.955982, lon.=107.050232, Alt.=5.828068m. Speed=0.000000m/h.</desc>
<speed>0.000000</speed>
</trkpt>
<trkpt lat="20.955982" lon="107.050232">
<ele>5.822086</ele>
<time>2011-04-30T11:51:28Z</time>
<desc>lat.=20.955982, lon.=107.050232, Alt.=5.822086m. Speed=0.000000m/h.</desc>
<speed>0.000000</speed>
</trkpt>
<trkpt lat="20.955982" lon="107.050232">
<ele>5.808048</ele>
<time>2011-04-30T11:51:33Z</time>
<desc>lat.=20.955982, lon.=107.050232, Alt.=5.808048m. Speed=0.000000m/h.</desc>
<speed>0.000000</speed>
</trkpt>
<trkpt lat="20.955982" lon="107.050232">
<ele>5.806339</ele>
<time>2011-04-30T11:51:38Z</time>
<desc>lat.=20.955982, lon.=107.050232, Alt.=5.806339m. Speed=0.036000m/h.</desc>
<speed>0.010000</speed>
</trkpt>
<trkpt lat="20.955982" lon="107.050232">
<ele>5.782291</ele>
<time>2011-04-30T11:51:43Z</time>
<desc>lat.=20.955982, lon.=107.050232, Alt.=5.782291m. Speed=0.000000m/h.</desc>
<speed>0.000000</speed>
</trkpt>
<trkpt lat="20.955982" lon="107.050232">
<ele>5.751896</ele>
<time>2011-04-30T11:51:48Z</time>
<desc>lat.=20.955982, lon.=107.050232, Alt.=5.751896m. Speed=0.000000m/h.</desc>
<speed>0.000000</speed>
</trkpt>
<trkpt lat="20.955982" lon="107.050232">
<ele>5.706120</ele>
<time>2011-04-30T11:51:53Z</time>
<desc>lat.=20.955982, lon.=107.050232, Alt.=5.706120m. Speed=0.000000m/h.</desc>
<speed>0.000000</speed>
</trkpt>
<trkpt lat="20.955982" lon="107.050232">
<ele>5.679752</ele>
<time>2011-04-30T11:51:58Z</time>
<desc>lat.=20.955982, lon.=107.050232, Alt.=5.679752m. Speed=0.000000m/h.</desc>
<speed>0.000000</speed>
</trkpt>
<trkpt lat="20.955982" lon="107.050232">
<ele>5.645939</ele>
<time>2011-04-30T11:52:03Z</time>
<desc>lat.=20.955982, lon.=107.050232, Alt.=5.645939m. Speed=0.000000m/h.</desc>
<speed>0.000000</speed>
</trkpt>
<trkpt lat="20.955982" lon="107.050232">
<ele>5.605167</ele>
<time>2011-04-30T11:52:08Z</time>
<desc>lat.=20.955982, lon.=107.050232, Alt.=5.605167m. Speed=0.000000m/h.</desc>
<speed>0.000000</speed>
</trkpt>
<trkpt lat="20.955982" lon="107.050232">
<ele>5.583683</ele>
<time>2011-04-30T11:52:13Z</time>
<desc>lat.=20.955982, lon.=107.050232, Alt.=5.583683m. Speed=0.000000m/h.</desc>
<speed>0.000000</speed>
</trkpt>
<trkpt lat="20.955982" lon="107.050232">
<ele>5.586369</ele>
<time>2011-04-30T11:52:18Z</time>
<desc>lat.=20.955982, lon.=107.050232, Alt.=5.586369m. Speed=0.000000m/h.</desc>
<speed>0.000000</speed>
</trkpt>
<trkpt lat="20.955982" lon="107.050232">
<ele>5.590275</ele>
<time>2011-04-30T11:52:23Z</time>
<desc>lat.=20.955982, lon.=107.050232, Alt.=5.590275m. Speed=0.036000m/h.</desc>
<speed>0.010000</speed>
</trkpt>
<trkpt lat="20.955982" lon="107.050232">
<ele>5.596867</ele>
<time>2011-04-30T11:52:28Z</time>
<desc>lat.=20.955982, lon.=107.050232, Alt.=5.596867m. Speed=0.000000m/h.</desc>
<speed>0.000000</speed>
</trkpt>
<trkpt lat="20.955982" lon="107.050232">
<ele>5.608585</ele>
<time>2011-04-30T11:52:33Z</time>
<desc>lat.=20.955982, lon.=107.050232, Alt.=5.608585m. Speed=0.000000m/h.</desc>
<speed>0.000000</speed>
</trkpt>
<trkpt lat="20.955982" lon="107.050232">
<ele>5.602970</ele>
<time>2011-04-30T11:52:38Z</time>
<desc>lat.=20.955982, lon.=107.050232, Alt.=5.602970m. Speed=0.000000m/h.</desc>
<speed>0.000000</speed>
</trkpt>
<trkpt lat="20.955982" lon="107.050232">
<ele>5.594425</ele>
<time>2011-04-30T11:52:43Z</time>
<desc>lat.=20.955982, lon.=107.050232, Alt.=5.594425m. Speed=0.000000m/h.</desc>
<speed>0.000000</speed>
</trkpt>
<trkpt lat="20.955982" lon="107.050232">
<ele>5.592106</ele>
<time>2011-04-30T11:52:48Z</time>
<desc>lat.=20.955982, lon.=107.050232, Alt.=5.592106m. Speed=0.036000m/h.</desc>
<speed>0.010000</speed>
</trkpt>
<trkpt lat="20.955982" lon="107.050232">
<ele>5.583317</ele>
<time>2011-04-30T11:52:53Z</time>
<desc>lat.=20.955982, lon.=107.050232, Alt.=5.583317m. Speed=0.000000m/h.</desc>
<speed>0.000000</speed>
</trkpt>
<trkpt lat="20.955982" lon="107.050232">
<ele>5.566105</ele>
<time>2011-04-30T11:52:58Z</time>
<desc>lat.=20.955982, lon.=107.050232, Alt.=5.566105m. Speed=0.000000m/h.</desc>
<speed>0.000000</speed>
</trkpt>
<trkpt lat="20.955982" lon="107.050232">
<ele>5.556339</ele>
<time>2011-04-30T11:53:03Z</time>
<desc>lat.=20.955982, lon.=107.050232, Alt.=5.556339m. Speed=0.036000m/h.</desc>
<speed>0.010000</speed>
</trkpt>
<trkpt lat="20.955982" lon="107.050232">
<ele>5.538151</ele>
<time>2011-04-30T11:53:08Z</time>
<desc>lat.=20.955982, lon.=107.050232, Alt.=5.538151m. Speed=0.036000m/h.</desc>
<speed>0.010000</speed>
</trkpt>
<trkpt lat="20.955982" lon="107.050232">
<ele>5.507633</ele>
<time>2011-04-30T11:53:13Z</time>
<desc>lat.=20.955982, lon.=107.050232, Alt.=5.507633m. Speed=0.036000m/h.</desc>
<speed>0.010000</speed>
</trkpt>
<trkpt lat="20.955982" lon="107.050232">
<ele>5.495060</ele>
<time>2011-04-30T11:53:18Z</time>
<desc>lat.=20.955982, lon.=107.050232, Alt.=5.495060m. Speed=0.036000m/h.</desc>
<speed>0.010000</speed>
</trkpt>
<trkpt lat="20.955982" lon="107.050232">
<ele>5.480412</ele>
<time>2011-04-30T11:53:23Z</time>
<desc>lat.=20.955982, lon.=107.050232, Alt.=5.480412m. Speed=0.000000m/h.</desc>
<speed>0.000000</speed>
</trkpt>
<trkpt lat="20.955980" lon="107.050232">
<ele>5.454655</ele>
<time>2011-04-30T11:53:28Z</time>
<desc>lat.=20.955980, lon.=107.050232, Alt.=5.454655m. Speed=0.000000m/h.</desc>
<speed>0.000000</speed>
</trkpt>
<trkpt lat="20.955980" lon="107.050232">
<ele>5.418644</ele>
<time>2011-04-30T11:53:33Z</time>
<desc>lat.=20.955980, lon.=107.050232, Alt.=5.418644m. Speed=0.000000m/h.</desc>
<speed>0.000000</speed>
</trkpt>
<trkpt lat="20.955980" lon="107.050232">
<ele>5.387028</ele>
<time>2011-04-30T11:53:38Z</time>
<desc>lat.=20.955980, lon.=107.050232, Alt.=5.387028m. Speed=0.000000m/h.</desc>
<speed>0.000000</speed>
</trkpt>
<trkpt lat="20.955980" lon="107.050232">
<ele>5.359684</ele>
<time>2011-04-30T11:53:43Z</time>
<desc>lat.=20.955980, lon.=107.050232, Alt.=5.359684m. Speed=0.180000m/h.</desc>
<speed>0.050000</speed>
</trkpt>
<trkpt lat="20.955980" lon="107.050232">
<ele>5.332951</ele>
<time>2011-04-30T11:53:48Z</time>
<desc>lat.=20.955980, lon.=107.050232, Alt.=5.332951m. Speed=0.036000m/h.</desc>
<speed>0.010000</speed>
</trkpt>
<trkpt lat="20.955980" lon="107.050232">
<ele>5.288517</ele>
<time>2011-04-30T11:53:53Z</time>
<desc>lat.=20.955980, lon.=107.050232, Alt.=5.288517m. Speed=0.000000m/h.</desc>
<speed>0.000000</speed>
</trkpt>
<trkpt lat="20.955980" lon="107.050232">
<ele>5.261539</ele>
<time>2011-04-30T11:53:58Z</time>
<desc>lat.=20.955980, lon.=107.050232, Alt.=5.261539m. Speed=0.000000m/h.</desc>
<speed>0.000000</speed>
</trkpt>
<trkpt lat="20.955980" lon="107.050232">
<ele>5.222599</ele>
<time>2011-04-30T11:54:03Z</time>
<desc>lat.=20.955980, lon.=107.050232, Alt.=5.222599m. Speed=0.036000m/h.</desc>
<speed>0.010000</speed>
</trkpt>
<trkpt lat="20.955980" lon="107.050232">
<ele>5.173038</ele>
<time>2011-04-30T11:54:08Z</time>
<desc>lat.=20.955980, lon.=107.050232, Alt.=5.173038m. Speed=0.000000m/h.</desc>
<speed>0.000000</speed>
</trkpt>
<trkpt lat="20.955980" lon="107.050232">
<ele>5.153629</ele>
<time>2011-04-30T11:54:13Z</time>
<desc>lat.=20.955980, lon.=107.050232, Alt.=5.153629m. Speed=0.036000m/h.</desc>
<speed>0.010000</speed>
</trkpt>
<trkpt lat="20.955980" lon="107.050232">
<ele>5.159611</ele>
<time>2011-04-30T11:54:18Z</time>
<desc>lat.=20.955980, lon.=107.050232, Alt.=5.159611m. Speed=0.072000m/h.</desc>
<speed>0.020000</speed>
</trkpt>
<trkpt lat="20.955980" lon="107.050232">
<ele>5.148991</ele>
<time>2011-04-30T11:54:23Z</time>
<desc>lat.=20.955980, lon.=107.050232, Alt.=5.148991m. Speed=0.072000m/h.</desc>
<speed>0.020000</speed>
</trkpt>
<trkpt lat="20.955980" lon="107.050232">
<ele>5.159000</ele>
<time>2011-04-30T11:54:28Z</time>
<desc>lat.=20.955980, lon.=107.050232, Alt.=5.159000m. Speed=0.000000m/h.</desc>
<speed>0.000000</speed>
</trkpt>
<trkpt lat="20.955980" lon="107.050232">
<ele>5.170353</ele>
<time>2011-04-30T11:54:33Z</time>
<desc>lat.=20.955980, lon.=107.050232, Alt.=5.170353m. Speed=0.000000m/h.</desc>
<speed>0.000000</speed>
</trkpt>
<trkpt lat="20.955980" lon="107.050232">
<ele>5.175480</ele>
<time>2011-04-30T11:54:38Z</time>
<desc>lat.=20.955980, lon.=107.050232, Alt.=5.175480m. Speed=0.036000m/h.</desc>
<speed>0.010000</speed>
</trkpt>
<trkpt lat="20.955978" lon="107.050232">
<ele>5.179508</ele>
<time>2011-04-30T11:54:43Z</time>
<desc>lat.=20.955978, lon.=107.050232, Alt.=5.179508m. Speed=0.036000m/h.</desc>
<speed>0.010000</speed>
</trkpt>
<trkpt lat="20.955980" lon="107.050232">
<ele>5.161320</ele>
<time>2011-04-30T11:54:48Z</time>
<desc>lat.=20.955980, lon.=107.050232, Alt.=5.161320m. Speed=0.432000m/h.</desc>
<speed>0.120000</speed>
</trkpt>
<trkpt lat="20.955975" lon="107.050224">
<ele>5.147892</ele>
<time>2011-04-30T11:54:53Z</time>
<desc>lat.=20.955975, lon.=107.050224, Alt.=5.147892m. Speed=0.720000m/h.</desc>
<speed>0.200000</speed>
</trkpt>
<trkpt lat="20.955971" lon="107.050217">
<ele>5.118473</ele>
<time>2011-04-30T11:54:58Z</time>
<desc>lat.=20.955971, lon.=107.050217, Alt.=5.118473m. Speed=0.612000m/h.</desc>
<speed>0.170000</speed>
</trkpt>
<trkpt lat="20.955967" lon="107.050209">
<ele>5.098454</ele>
<time>2011-04-30T11:55:03Z</time>
<desc>lat.=20.955967, lon.=107.050209, Alt.=5.098454m. Speed=0.504000m/h.</desc>
<speed>0.140000</speed>
</trkpt>
<trkpt lat="20.955965" lon="107.050209">
<ele>5.114811</ele>
<time>2011-04-30T11:55:08Z</time>
<desc>lat.=20.955965, lon.=107.050209, Alt.=5.114811m. Speed=0.252000m/h.</desc>
<speed>0.070000</speed>
</trkpt>
<trkpt lat="20.955963" lon="107.050201">
<ele>5.158146</ele>
<time>2011-04-30T11:55:13Z</time>
<desc>lat.=20.955963, lon.=107.050201, Alt.=5.158146m. Speed=0.108000m/h.</desc>
<speed>0.030000</speed>
</trkpt>
<trkpt lat="20.955963" lon="107.050209">
<ele>5.211246</ele>
<time>2011-04-30T11:55:18Z</time>
<desc>lat.=20.955963, lon.=107.050209, Alt.=5.211246m. Speed=0.288000m/h.</desc>
<speed>0.080000</speed>
</trkpt>
<trkpt lat="20.955963" lon="107.050209">
<ele>5.219303</ele>
<time>2011-04-30T11:55:23Z</time>
<desc>lat.=20.955963, lon.=107.050209, Alt.=5.219303m. Speed=0.828000m/h.</desc>
<speed>0.230000</speed>
</trkpt>
<trkpt lat="20.955963" lon="107.050224">
<ele>5.063541</ele>
<time>2011-04-30T11:55:28Z</time>
<desc>lat.=20.955963, lon.=107.050224, Alt.=5.063541m. Speed=0.576000m/h.</desc>
<speed>0.160000</speed>
</trkpt>
<trkpt lat="20.955961" lon="107.050232">
<ele>4.690006</ele>
<time>2011-04-30T11:55:33Z</time>
<desc>lat.=20.955961, lon.=107.050232, Alt.=4.690006m. Speed=0.612000m/h.</desc>
<speed>0.170000</speed>
</trkpt>
<trkpt lat="20.955954" lon="107.050240">
<ele>4.176945</ele>
<time>2011-04-30T11:55:38Z</time>
<desc>lat.=20.955954, lon.=107.050240, Alt.=4.176945m. Speed=0.648000m/h.</desc>
<speed>0.180000</speed>
</trkpt>
<trkpt lat="20.955948" lon="107.050240">
<ele>3.654634</ele>
<time>2011-04-30T11:55:43Z</time>
<desc>lat.=20.955948, lon.=107.050240, Alt.=3.654634m. Speed=0.180000m/h.</desc>
<speed>0.050000</speed>
</trkpt>
<trkpt lat="20.955946" lon="107.050240">
<ele>3.271029</ele>
<time>2011-04-30T11:55:48Z</time>
<desc>lat.=20.955946, lon.=107.050240, Alt.=3.271029m. Speed=0.216000m/h.</desc>
<speed>0.060000</speed>
</trkpt>
<trkpt lat="20.955946" lon="107.050240">
<ele>3.021090</ele>
<time>2011-04-30T11:55:53Z</time>
<desc>lat.=20.955946, lon.=107.050240, Alt.=3.021090m. Speed=0.252000m/h.</desc>
<speed>0.070000</speed>
</trkpt>
<trkpt lat="20.955948" lon="107.050247">
<ele>2.920748</ele>
<time>2011-04-30T11:55:58Z</time>
<desc>lat.=20.955948, lon.=107.050247, Alt.=2.920748m. Speed=0.072000m/h.</desc>
<speed>0.020000</speed>
</trkpt>
<trkpt lat="20.955948" lon="107.050247">
<ele>2.938997</ele>
<time>2011-04-30T11:56:03Z</time>
<desc>lat.=20.955948, lon.=107.050247, Alt.=2.938997m. Speed=0.180000m/h.</desc>
<speed>0.050000</speed>
</trkpt>
<trkpt lat="20.955946" lon="107.050247">
<ele>2.964510</ele>
<time>2011-04-30T11:56:08Z</time>
<desc>lat.=20.955946, lon.=107.050247, Alt.=2.964510m. Speed=0.072000m/h.</desc>
<speed>0.020000</speed>
</trkpt>
<trkpt lat="20.955948" lon="107.050247">
<ele>2.936922</ele>
<time>2011-04-30T11:56:13Z</time>
<desc>lat.=20.955948, lon.=107.050247, Alt.=2.936922m. Speed=0.000000m/h.</desc>
<speed>0.000000</speed>
</trkpt>
<trkpt lat="20.955948" lon="107.050247">
<ele>2.894869</ele>
<time>2011-04-30T11:56:18Z</time>
<desc>lat.=20.955948, lon.=107.050247, Alt.=2.894869m. Speed=0.000000m/h.</desc>
<speed>0.000000</speed>
</trkpt>
<trkpt lat="20.955948" lon="107.050247">
<ele>2.862825</ele>
<time>2011-04-30T11:56:23Z</time>
<desc>lat.=20.955948, lon.=107.050247, Alt.=2.862825m. Speed=0.072000m/h.</desc>
<speed>0.020000</speed>
</trkpt>
<trkpt lat="20.955948" lon="107.050247">
<ele>2.859468</ele>
<time>2011-04-30T11:56:28Z</time>
<desc>lat.=20.955948, lon.=107.050247, Alt.=2.859468m. Speed=0.036000m/h.</desc>
<speed>0.010000</speed>
</trkpt>
<trkpt lat="20.955948" lon="107.050247">
<ele>2.866854</ele>
<time>2011-04-30T11:56:33Z</time>
<desc>lat.=20.955948, lon.=107.050247, Alt.=2.866854m. Speed=0.072000m/h.</desc>
<speed>0.020000</speed>
</trkpt>
<trkpt lat="20.955948" lon="107.050247">
<ele>2.854708</ele>
<time>2011-04-30T11:56:38Z</time>
<desc>lat.=20.955948, lon.=107.050247, Alt.=2.854708m. Speed=0.144000m/h.</desc>
<speed>0.040000</speed>
</trkpt>
<trkpt lat="20.955948" lon="107.050247">
<ele>2.860018</ele>
<time>2011-04-30T11:56:43Z</time>
<desc>lat.=20.955948, lon.=107.050247, Alt.=2.860018m. Speed=0.144000m/h.</desc>
<speed>0.040000</speed>
</trkpt>
<trkpt lat="20.955948" lon="107.050247">
<ele>2.847261</ele>
<time>2011-04-30T11:56:48Z</time>
<desc>lat.=20.955948, lon.=107.050247, Alt.=2.847261m. Speed=0.144000m/h.</desc>
<speed>0.040000</speed>
</trkpt>
<trkpt lat="20.955948" lon="107.050247">
<ele>2.824434</ele>
<time>2011-04-30T11:56:53Z</time>
<desc>lat.=20.955948, lon.=107.050247, Alt.=2.824434m. Speed=0.036000m/h.</desc>
<speed>0.010000</speed>
</trkpt>
<trkpt lat="20.955946" lon="107.050255">
<ele>2.808931</ele>
<time>2011-04-30T11:56:58Z</time>
<desc>lat.=20.955946, lon.=107.050255, Alt.=2.808931m. Speed=0.036000m/h.</desc>
<speed>0.010000</speed>
</trkpt>
<trkpt lat="20.955948" lon="107.050255">
<ele>2.807955</ele>
<time>2011-04-30T11:57:03Z</time>
<desc>lat.=20.955948, lon.=107.050255, Alt.=2.807955m. Speed=0.036000m/h.</desc>
<speed>0.010000</speed>
</trkpt>
<trkpt lat="20.955948" lon="107.050255">
<ele>2.795809</ele>
<time>2011-04-30T11:57:08Z</time>
<desc>lat.=20.955948, lon.=107.050255, Alt.=2.795809m. Speed=0.072000m/h.</desc>
<speed>0.020000</speed>
</trkpt>
<trkpt lat="20.955948" lon="107.050255">
<ele>2.796785</ele>
<time>2011-04-30T11:57:13Z</time>
<desc>lat.=20.955948, lon.=107.050255, Alt.=2.796785m. Speed=0.000000m/h.</desc>
<speed>0.000000</speed>
</trkpt>
<trkpt lat="20.955948" lon="107.050255">
<ele>2.794283</ele>
<time>2011-04-30T11:57:18Z</time>
<desc>lat.=20.955948, lon.=107.050255, Alt.=2.794283m. Speed=0.036000m/h.</desc>
<speed>0.010000</speed>
</trkpt>
<trkpt lat="20.955948" lon="107.050255">
<ele>2.812654</ele>
<time>2011-04-30T11:57:23Z</time>
<desc>lat.=20.955948, lon.=107.050255, Alt.=2.812654m. Speed=0.108000m/h.</desc>
<speed>0.030000</speed>
</trkpt>
<trkpt lat="20.955950" lon="107.050255">
<ele>2.810884</ele>
<time>2011-04-30T11:57:28Z</time>
<desc>lat.=20.955950, lon.=107.050255, Alt.=2.810884m. Speed=0.072000m/h.</desc>
<speed>0.020000</speed>
</trkpt>
<trkpt lat="20.955950" lon="107.050255">
<ele>2.805880</ele>
<time>2011-04-30T11:57:33Z</time>
<desc>lat.=20.955950, lon.=107.050255, Alt.=2.805880m. Speed=0.036000m/h.</desc>
<speed>0.010000</speed>
</trkpt>
<trkpt lat="20.955950" lon="107.050255">
<ele>2.773226</ele>
<time>2011-04-30T11:57:38Z</time>
<desc>lat.=20.955950, lon.=107.050255, Alt.=2.773226m. Speed=0.000000m/h.</desc>
<speed>0.000000</speed>
</trkpt>
<trkpt lat="20.955950" lon="107.050255">
<ele>2.763094</ele>
<time>2011-04-30T11:57:43Z</time>
<desc>lat.=20.955950, lon.=107.050255, Alt.=2.763094m. Speed=0.036000m/h.</desc>
<speed>0.010000</speed>
</trkpt>
<trkpt lat="20.955950" lon="107.050255">
<ele>2.742708</ele>
<time>2011-04-30T11:57:48Z</time>
<desc>lat.=20.955950, lon.=107.050255, Alt.=2.742708m. Speed=0.000000m/h.</desc>
<speed>0.000000</speed>
</trkpt>
<trkpt lat="20.955950" lon="107.050255">
<ele>2.712374</ele>
<time>2011-04-30T11:57:53Z</time>
<desc>lat.=20.955950, lon.=107.050255, Alt.=2.712374m. Speed=0.108000m/h.</desc>
<speed>0.030000</speed>
</trkpt>
<trkpt lat="20.955950" lon="107.050255">
<ele>2.682711</ele>
<time>2011-04-30T11:57:58Z</time>
<desc>lat.=20.955950, lon.=107.050255, Alt.=2.682711m. Speed=0.000000m/h.</desc>
<speed>0.000000</speed>
</trkpt>
<trkpt lat="20.955950" lon="107.050255">
<ele>2.664339</ele>
<time>2011-04-30T11:58:03Z</time>
<desc>lat.=20.955950, lon.=107.050255, Alt.=2.664339m. Speed=0.000000m/h.</desc>
<speed>0.000000</speed>
</trkpt>
<trkpt lat="20.955950" lon="107.050255">
<ele>2.661837</ele>
<time>2011-04-30T11:58:08Z</time>
<desc>lat.=20.955950, lon.=107.050255, Alt.=2.661837m. Speed=0.036000m/h.</desc>
<speed>0.010000</speed>
</trkpt>
<trkpt lat="20.955950" lon="107.050255">
<ele>2.679903</ele>
<time>2011-04-30T11:58:13Z</time>
<desc>lat.=20.955950, lon.=107.050255, Alt.=2.679903m. Speed=0.036000m/h.</desc>
<speed>0.010000</speed>
</trkpt>
<trkpt lat="20.955950" lon="107.050255">
<ele>2.700777</ele>
<time>2011-04-30T11:58:18Z</time>
<desc>lat.=20.955950, lon.=107.050255, Alt.=2.700777m. Speed=0.000000m/h.</desc>
<speed>0.000000</speed>
</trkpt>
<trkpt lat="20.955952" lon="107.050255">
<ele>2.716707</ele>
<time>2011-04-30T11:58:23Z</time>
<desc>lat.=20.955952, lon.=107.050255, Alt.=2.716707m. Speed=0.000000m/h.</desc>
<speed>0.000000</speed>
</trkpt>
<trkpt lat="20.955952" lon="107.050255">
<ele>2.732393</ele>
<time>2011-04-30T11:58:28Z</time>
<desc>lat.=20.955952, lon.=107.050255, Alt.=2.732393m. Speed=0.000000m/h.</desc>
<speed>0.000000</speed>
</trkpt>
<trkpt lat="20.955952" lon="107.050255">
<ele>2.723665</ele>
<time>2011-04-30T11:58:33Z</time>
<desc>lat.=20.955952, lon.=107.050255, Alt.=2.723665m. Speed=0.036000m/h.</desc>
<speed>0.010000</speed>
</trkpt>
<trkpt lat="20.955952" lon="107.050255">
<ele>2.711214</ele>
<time>2011-04-30T11:58:38Z</time>
<desc>lat.=20.955952, lon.=107.050255, Alt.=2.711214m. Speed=0.108000m/h.</desc>
<speed>0.030000</speed>
</trkpt>
<trkpt lat="20.955952" lon="107.050255">
<ele>2.673800</ele>
<time>2011-04-30T11:58:43Z</time>
<desc>lat.=20.955952, lon.=107.050255, Alt.=2.673800m. Speed=0.072000m/h.</desc>
<speed>0.020000</speed>
</trkpt>
<trkpt lat="20.955952" lon="107.050255">
<ele>2.635653</ele>
<time>2011-04-30T11:58:48Z</time>
<desc>lat.=20.955952, lon.=107.050255, Alt.=2.635653m. Speed=0.036000m/h.</desc>
<speed>0.010000</speed>
</trkpt>
<trkpt lat="20.955952" lon="107.050255">
<ele>2.577364</ele>
<time>2011-04-30T11:58:53Z</time>
<desc>lat.=20.955952, lon.=107.050255, Alt.=2.577364m. Speed=0.000000m/h.</desc>
<speed>0.000000</speed>
</trkpt>
<trkpt lat="20.955952" lon="107.050255">
<ele>2.516207</ele>
<time>2011-04-30T11:58:58Z</time>
<desc>lat.=20.955952, lon.=107.050255, Alt.=2.516207m. Speed=0.036000m/h.</desc>
<speed>0.010000</speed>
</trkpt>
<trkpt lat="20.955952" lon="107.050255">
<ele>2.470552</ele>
<time>2011-04-30T11:59:03Z</time>
<desc>lat.=20.955952, lon.=107.050255, Alt.=2.470552m. Speed=0.000000m/h.</desc>
<speed>0.000000</speed>
</trkpt>
<trkpt lat="20.955952" lon="107.050255">
<ele>2.453218</ele>
<time>2011-04-30T11:59:08Z</time>
<desc>lat.=20.955952, lon.=107.050255, Alt.=2.453218m. Speed=0.036000m/h.</desc>
<speed>0.010000</speed>
</trkpt>
<trkpt lat="20.955952" lon="107.050255">
<ele>2.436617</ele>
<time>2011-04-30T11:59:13Z</time>
<desc>lat.=20.955952, lon.=107.050255, Alt.=2.436617m. Speed=0.036000m/h.</desc>
<speed>0.010000</speed>
</trkpt>
<trkpt lat="20.955952" lon="107.050255">
<ele>2.409395</ele>
<time>2011-04-30T11:59:18Z</time>
<desc>lat.=20.955952, lon.=107.050255, Alt.=2.409395m. Speed=0.000000m/h.</desc>
<speed>0.000000</speed>
</trkpt>
<trkpt lat="20.955952" lon="107.050255">
<ele>2.374239</ele>
<time>2011-04-30T11:59:23Z</time>
<desc>lat.=20.955952, lon.=107.050255, Alt.=2.374239m. Speed=0.036000m/h.</desc>
<speed>0.010000</speed>
</trkpt>
<trkpt lat="20.955952" lon="107.050255">
<ele>2.364168</ele>
<time>2011-04-30T11:59:28Z</time>
<desc>lat.=20.955952, lon.=107.050255, Alt.=2.364168m. Speed=0.036000m/h.</desc>
<speed>0.010000</speed>
</trkpt>
<trkpt lat="20.955952" lon="107.050255">
<ele>2.353487</ele>
<time>2011-04-30T11:59:33Z</time>
<desc>lat.=20.955952, lon.=107.050255, Alt.=2.353487m. Speed=0.036000m/h.</desc>
<speed>0.010000</speed>
</trkpt>
<trkpt lat="20.955952" lon="107.050255">
<ele>2.352816</ele>
<time>2011-04-30T11:59:38Z</time>
<desc>lat.=20.955952, lon.=107.050255, Alt.=2.352816m. Speed=0.036000m/h.</desc>
<speed>0.010000</speed>
</trkpt>
<trkpt lat="20.955952" lon="107.050255">
<ele>2.359774</ele>
<time>2011-04-30T11:59:43Z</time>
<desc>lat.=20.955952, lon.=107.050255, Alt.=2.359774m. Speed=0.036000m/h.</desc>
<speed>0.010000</speed>
</trkpt>
<trkpt lat="20.955950" lon="107.050255">
<ele>2.361483</ele>
<time>2011-04-30T11:59:48Z</time>
<desc>lat.=20.955950, lon.=107.050255, Alt.=2.361483m. Speed=0.000000m/h.</desc>
<speed>0.000000</speed>
</trkpt>
<trkpt lat="20.955950" lon="107.050255">
<ele>2.357882</ele>
<time>2011-04-30T11:59:53Z</time>
<desc>lat.=20.955950, lon.=107.050255, Alt.=2.357882m. Speed=0.072000m/h.</desc>
<speed>0.020000</speed>
</trkpt>
<trkpt lat="20.955950" lon="107.050255">
<ele>2.334078</ele>
<time>2011-04-30T11:59:58Z</time>
<desc>lat.=20.955950, lon.=107.050255, Alt.=2.334078m. Speed=0.000000m/h.</desc>
<speed>0.000000</speed>
</trkpt>
<trkpt lat="20.955950" lon="107.050255">
<ele>2.320345</ele>
<time>2011-04-30T12:00:03Z</time>
<desc>lat.=20.955950, lon.=107.050255, Alt.=2.320345m. Speed=0.000000m/h.</desc>
<speed>0.000000</speed>
</trkpt>
<trkpt lat="20.955950" lon="107.050255">
<ele>2.317293</ele>
<time>2011-04-30T12:00:08Z</time>
<desc>lat.=20.955950, lon.=107.050255, Alt.=2.317293m. Speed=0.000000m/h.</desc>
<speed>0.000000</speed>
</trkpt>
<trkpt lat="20.955950" lon="107.050255">
<ele>2.313204</ele>
<time>2011-04-30T12:00:13Z</time>
<desc>lat.=20.955950, lon.=107.050255, Alt.=2.313204m. Speed=0.036000m/h.</desc>
<speed>0.010000</speed>
</trkpt>
<trkpt lat="20.955950" lon="107.050255">
<ele>2.300264</ele>
<time>2011-04-30T12:00:18Z</time>
<desc>lat.=20.955950, lon.=107.050255, Alt.=2.300264m. Speed=0.036000m/h.</desc>
<speed>0.010000</speed>
</trkpt>
<trkpt lat="20.955950" lon="107.050255">
<ele>2.292391</ele>
<time>2011-04-30T12:00:23Z</time>
<desc>lat.=20.955950, lon.=107.050255, Alt.=2.292391m. Speed=0.000000m/h.</desc>
<speed>0.000000</speed>
</trkpt>
<trkpt lat="20.955950" lon="107.050255">
<ele>2.267855</ele>
<time>2011-04-30T12:00:28Z</time>
<desc>lat.=20.955950, lon.=107.050255, Alt.=2.267855m. Speed=0.036000m/h.</desc>
<speed>0.010000</speed>
</trkpt>
<trkpt lat="20.955950" lon="107.050255">
<ele>2.238680</ele>
<time>2011-04-30T12:00:33Z</time>
<desc>lat.=20.955950, lon.=107.050255, Alt.=2.238680m. Speed=0.000000m/h.</desc>
<speed>0.000000</speed>
</trkpt>
<trkpt lat="20.955950" lon="107.050255">
<ele>2.206636</ele>
<time>2011-04-30T12:00:38Z</time>
<desc>lat.=20.955950, lon.=107.050255, Alt.=2.206636m. Speed=0.000000m/h.</desc>
<speed>0.000000</speed>
</trkpt>
<trkpt lat="20.955950" lon="107.050255">
<ele>2.177401</ele>
<time>2011-04-30T12:00:43Z</time>
<desc>lat.=20.955950, lon.=107.050255, Alt.=2.177401m. Speed=0.036000m/h.</desc>
<speed>0.010000</speed>
</trkpt>
<trkpt lat="20.955950" lon="107.050255">
<ele>2.142122</ele>
<time>2011-04-30T12:00:48Z</time>
<desc>lat.=20.955950, lon.=107.050255, Alt.=2.142122m. Speed=0.000000m/h.</desc>
<speed>0.000000</speed>
</trkpt>
<trkpt lat="20.955950" lon="107.050255">
<ele>2.124605</ele>
<time>2011-04-30T12:00:53Z</time>
<desc>lat.=20.955950, lon.=107.050255, Alt.=2.124605m. Speed=0.072000m/h.</desc>
<speed>0.020000</speed>
</trkpt>
<trkpt lat="20.955950" lon="107.050255">
<ele>2.109652</ele>
<time>2011-04-30T12:00:58Z</time>
<desc>lat.=20.955950, lon.=107.050255, Alt.=2.109652m. Speed=0.000000m/h.</desc>
<speed>0.000000</speed>
</trkpt>
<trkpt lat="20.955950" lon="107.050255">
<ele>2.090975</ele>
<time>2011-04-30T12:01:03Z</time>
<desc>lat.=20.955950, lon.=107.050255, Alt.=2.090975m. Speed=0.036000m/h.</desc>
<speed>0.010000</speed>
</trkpt>
<trkpt lat="20.955950" lon="107.050255">
<ele>2.082369</ele>
<time>2011-04-30T12:01:08Z</time>
<desc>lat.=20.955950, lon.=107.050255, Alt.=2.082369m. Speed=0.036000m/h.</desc>
<speed>0.010000</speed>
</trkpt>
<trkpt lat="20.955950" lon="107.050255">
<ele>2.060640</ele>
<time>2011-04-30T12:01:13Z</time>
<desc>lat.=20.955950, lon.=107.050255, Alt.=2.060640m. Speed=0.036000m/h.</desc>
<speed>0.010000</speed>
</trkpt>
<trkpt lat="20.955948" lon="107.050255">
<ele>2.045015</ele>
<time>2011-04-30T12:01:18Z</time>
<desc>lat.=20.955948, lon.=107.050255, Alt.=2.045015m. Speed=0.000000m/h.</desc>
<speed>0.000000</speed>
</trkpt>
<trkpt lat="20.955948" lon="107.050255">
<ele>2.039766</ele>
<time>2011-04-30T12:01:23Z</time>
<desc>lat.=20.955948, lon.=107.050255, Alt.=2.039766m. Speed=0.000000m/h.</desc>
<speed>0.000000</speed>
</trkpt>
<trkpt lat="20.955948" lon="107.050255">
<ele>2.020845</ele>
<time>2011-04-30T12:01:28Z</time>
<desc>lat.=20.955948, lon.=107.050255, Alt.=2.020845m. Speed=0.072000m/h.</desc>
<speed>0.020000</speed>
</trkpt>
<trkpt lat="20.955948" lon="107.050255">
<ele>2.015841</ele>
<time>2011-04-30T12:01:33Z</time>
<desc>lat.=20.955948, lon.=107.050255, Alt.=2.015841m. Speed=0.072000m/h.</desc>
<speed>0.020000</speed>
</trkpt>
<trkpt lat="20.955948" lon="107.050255">
<ele>2.011812</ele>
<time>2011-04-30T12:01:38Z</time>
<desc>lat.=20.955948, lon.=107.050255, Alt.=2.011812m. Speed=0.000000m/h.</desc>
<speed>0.000000</speed>
</trkpt>
<trkpt lat="20.955948" lon="107.050255">
<ele>2.009493</ele>
<time>2011-04-30T12:01:43Z</time>
<desc>lat.=20.955948, lon.=107.050255, Alt.=2.009493m. Speed=0.072000m/h.</desc>
<speed>0.020000</speed>
</trkpt>
<trkpt lat="20.955948" lon="107.050255">
<ele>2.018160</ele>
<time>2011-04-30T12:01:48Z</time>
<desc>lat.=20.955948, lon.=107.050255, Alt.=2.018160m. Speed=0.036000m/h.</desc>
<speed>0.010000</speed>
</trkpt>
<trkpt lat="20.955948" lon="107.050255">
<ele>2.035616</ele>
<time>2011-04-30T12:01:53Z</time>
<desc>lat.=20.955948, lon.=107.050255, Alt.=2.035616m. Speed=0.000000m/h.</desc>
<speed>0.000000</speed>
</trkpt>
<trkpt lat="20.955948" lon="107.050262">
<ele>2.050508</ele>
<time>2011-04-30T12:01:58Z</time>
<desc>lat.=20.955948, lon.=107.050262, Alt.=2.050508m. Speed=0.072000m/h.</desc>
<speed>0.020000</speed>
</trkpt>
<trkpt lat="20.955946" lon="107.050262">
<ele>2.077730</ele>
<time>2011-04-30T12:02:03Z</time>
<desc>lat.=20.955946, lon.=107.050262, Alt.=2.077730m. Speed=0.000000m/h.</desc>
<speed>0.000000</speed>
</trkpt>
<trkpt lat="20.955946" lon="107.050262">
<ele>2.097506</ele>
<time>2011-04-30T12:02:08Z</time>
<desc>lat.=20.955946, lon.=107.050262, Alt.=2.097506m. Speed=0.036000m/h.</desc>
<speed>0.010000</speed>
</trkpt>
<trkpt lat="20.955946" lon="107.050262">
<ele>2.116365</ele>
<time>2011-04-30T12:02:13Z</time>
<desc>lat.=20.955946, lon.=107.050262, Alt.=2.116365m. Speed=0.072000m/h.</desc>
<speed>0.020000</speed>
</trkpt>
<trkpt lat="20.955946" lon="107.050262">
<ele>2.129366</ele>
<time>2011-04-30T12:02:18Z</time>
<desc>lat.=20.955946, lon.=107.050262, Alt.=2.129366m. Speed=0.000000m/h.</desc>
<speed>0.000000</speed>
</trkpt>
<trkpt lat="20.955944" lon="107.050262">
<ele>2.149691</ele>
<time>2011-04-30T12:02:23Z</time>
<desc>lat.=20.955944, lon.=107.050262, Alt.=2.149691m. Speed=0.036000m/h.</desc>
<speed>0.010000</speed>
</trkpt>
<trkpt lat="20.955944" lon="107.050262">
<ele>2.168795</ele>
<time>2011-04-30T12:02:28Z</time>
<desc>lat.=20.955944, lon.=107.050262, Alt.=2.168795m. Speed=0.000000m/h.</desc>
<speed>0.000000</speed>
</trkpt>
<trkpt lat="20.955944" lon="107.050262">
<ele>2.179415</ele>
<time>2011-04-30T12:02:33Z</time>
<desc>lat.=20.955944, lon.=107.050262, Alt.=2.179415m. Speed=0.000000m/h.</desc>
<speed>0.000000</speed>
</trkpt>
<trkpt lat="20.955944" lon="107.050262">
<ele>2.188326</ele>
<time>2011-04-30T12:02:38Z</time>
<desc>lat.=20.955944, lon.=107.050262, Alt.=2.188326m. Speed=0.072000m/h.</desc>
<speed>0.020000</speed>
</trkpt>
<trkpt lat="20.955944" lon="107.050262">
<ele>2.196505</ele>
<time>2011-04-30T12:02:43Z</time>
<desc>lat.=20.955944, lon.=107.050262, Alt.=2.196505m. Speed=0.036000m/h.</desc>
<speed>0.010000</speed>
</trkpt>
<trkpt lat="20.955944" lon="107.050262">
<ele>2.194307</ele>
<time>2011-04-30T12:02:48Z</time>
<desc>lat.=20.955944, lon.=107.050262, Alt.=2.194307m. Speed=0.036000m/h.</desc>
<speed>0.010000</speed>
</trkpt>
<trkpt lat="20.955944" lon="107.050262">
<ele>2.201021</ele>
<time>2011-04-30T12:02:53Z</time>
<desc>lat.=20.955944, lon.=107.050262, Alt.=2.201021m. Speed=0.000000m/h.</desc>
<speed>0.000000</speed>
</trkpt>
<trkpt lat="20.955942" lon="107.050262">
<ele>2.204256</ele>
<time>2011-04-30T12:02:58Z</time>
<desc>lat.=20.955942, lon.=107.050262, Alt.=2.204256m. Speed=0.000000m/h.</desc>
<speed>0.000000</speed>
</trkpt>
<trkpt lat="20.955942" lon="107.050262">
<ele>2.211336</ele>
<time>2011-04-30T12:03:03Z</time>
<desc>lat.=20.955942, lon.=107.050262, Alt.=2.211336m. Speed=0.000000m/h.</desc>
<speed>0.000000</speed>
</trkpt>
<trkpt lat="20.955942" lon="107.050262">
<ele>2.238436</ele>
<time>2011-04-30T12:03:08Z</time>
<desc>lat.=20.955942, lon.=107.050262, Alt.=2.238436m. Speed=0.000000m/h.</desc>
<speed>0.000000</speed>
</trkpt>
<trkpt lat="20.955942" lon="107.050262">
<ele>2.250521</ele>
<time>2011-04-30T12:03:13Z</time>
<desc>lat.=20.955942, lon.=107.050262, Alt.=2.250521m. Speed=0.036000m/h.</desc>
<speed>0.010000</speed>
</trkpt>
<trkpt lat="20.955942" lon="107.050262">
<ele>2.261690</ele>
<time>2011-04-30T12:03:18Z</time>
<desc>lat.=20.955942, lon.=107.050262, Alt.=2.261690m. Speed=0.072000m/h.</desc>
<speed>0.020000</speed>
</trkpt>
<trkpt lat="20.955942" lon="107.050262">
<ele>2.262300</ele>
<time>2011-04-30T12:03:23Z</time>
<desc>lat.=20.955942, lon.=107.050262, Alt.=2.262300m. Speed=0.036000m/h.</desc>
<speed>0.010000</speed>
</trkpt>
<trkpt lat="20.955942" lon="107.050262">
<ele>2.271212</ele>
<time>2011-04-30T12:03:28Z</time>
<desc>lat.=20.955942, lon.=107.050262, Alt.=2.271212m. Speed=0.036000m/h.</desc>
<speed>0.010000</speed>
</trkpt>
<trkpt lat="20.955940" lon="107.050262">
<ele>2.264376</ele>
<time>2011-04-30T12:03:33Z</time>
<desc>lat.=20.955940, lon.=107.050262, Alt.=2.264376m. Speed=0.000000m/h.</desc>
<speed>0.000000</speed>
</trkpt>
<trkpt lat="20.955940" lon="107.050262">
<ele>2.257113</ele>
<time>2011-04-30T12:03:38Z</time>
<desc>lat.=20.955940, lon.=107.050262, Alt.=2.257113m. Speed=0.000000m/h.</desc>
<speed>0.000000</speed>
</trkpt>
<trkpt lat="20.955940" lon="107.050262">
<ele>2.255953</ele>
<time>2011-04-30T12:03:43Z</time>
<desc>lat.=20.955940, lon.=107.050262, Alt.=2.255953m. Speed=0.000000m/h.</desc>
<speed>0.000000</speed>
</trkpt>
<trkpt lat="20.955940" lon="107.050262">
<ele>2.253633</ele>
<time>2011-04-30T12:03:48Z</time>
<desc>lat.=20.955940, lon.=107.050262, Alt.=2.253633m. Speed=0.000000m/h.</desc>
<speed>0.000000</speed>
</trkpt>
<trkpt lat="20.955940" lon="107.050262">
<ele>2.249239</ele>
<time>2011-04-30T12:03:53Z</time>
<desc>lat.=20.955940, lon.=107.050262, Alt.=2.249239m. Speed=0.036000m/h.</desc>
<speed>0.010000</speed>
</trkpt>
<trkpt lat="20.955940" lon="107.050270">
<ele>2.231783</ele>
<time>2011-04-30T12:03:58Z</time>
<desc>lat.=20.955940, lon.=107.050270, Alt.=2.231783m. Speed=0.036000m/h.</desc>
<speed>0.010000</speed>
</trkpt>
<trkpt lat="20.955940" lon="107.050270">
<ele>2.211641</ele>
<time>2011-04-30T12:04:03Z</time>
<desc>lat.=20.955940, lon.=107.050270, Alt.=2.211641m. Speed=0.072000m/h.</desc>
<speed>0.020000</speed>
</trkpt>
<trkpt lat="20.955940" lon="107.050270">
<ele>2.192965</ele>
<time>2011-04-30T12:04:08Z</time>
<desc>lat.=20.955940, lon.=107.050270, Alt.=2.192965m. Speed=0.072000m/h.</desc>
<speed>0.020000</speed>
</trkpt>
<trkpt lat="20.955940" lon="107.050270">
<ele>2.175020</ele>
<time>2011-04-30T12:04:13Z</time>
<desc>lat.=20.955940, lon.=107.050270, Alt.=2.175020m. Speed=0.036000m/h.</desc>
<speed>0.010000</speed>
</trkpt>
<trkpt lat="20.955938" lon="107.050270">
<ele>2.153109</ele>
<time>2011-04-30T12:04:18Z</time>
<desc>lat.=20.955938, lon.=107.050270, Alt.=2.153109m. Speed=0.072000m/h.</desc>
<speed>0.020000</speed>
</trkpt>
<trkpt lat="20.955938" lon="107.050270">
<ele>2.144747</ele>
<time>2011-04-30T12:04:23Z</time>
<desc>lat.=20.955938, lon.=107.050270, Alt.=2.144747m. Speed=0.036000m/h.</desc>
<speed>0.010000</speed>
</trkpt>
<trkpt lat="20.955938" lon="107.050270">
<ele>2.123018</ele>
<time>2011-04-30T12:04:28Z</time>
<desc>lat.=20.955938, lon.=107.050270, Alt.=2.123018m. Speed=0.036000m/h.</desc>
<speed>0.010000</speed>
</trkpt>
<trkpt lat="20.955938" lon="107.050270">
<ele>2.106417</ele>
<time>2011-04-30T12:04:33Z</time>
<desc>lat.=20.955938, lon.=107.050270, Alt.=2.106417m. Speed=0.000000m/h.</desc>
<speed>0.000000</speed>
</trkpt>
<trkpt lat="20.955938" lon="107.050270">
<ele>2.089266</ele>
<time>2011-04-30T12:04:38Z</time>
<desc>lat.=20.955938, lon.=107.050270, Alt.=2.089266m. Speed=0.036000m/h.</desc>
<speed>0.010000</speed>
</trkpt>
<trkpt lat="20.955938" lon="107.050270">
<ele>2.079866</ele>
<time>2011-04-30T12:04:43Z</time>
<desc>lat.=20.955938, lon.=107.050270, Alt.=2.079866m. Speed=0.036000m/h.</desc>
<speed>0.010000</speed>
</trkpt>
<trkpt lat="20.955938" lon="107.050270">
<ele>2.076937</ele>
<time>2011-04-30T12:04:48Z</time>
<desc>lat.=20.955938, lon.=107.050270, Alt.=2.076937m. Speed=0.072000m/h.</desc>
<speed>0.020000</speed>
</trkpt>
<trkpt lat="20.955938" lon="107.050270">
<ele>2.069307</ele>
<time>2011-04-30T12:04:53Z</time>
<desc>lat.=20.955938, lon.=107.050270, Alt.=2.069307m. Speed=0.036000m/h.</desc>
<speed>0.010000</speed>
</trkpt>
<trkpt lat="20.955938" lon="107.050270">
<ele>2.048433</ele>
<time>2011-04-30T12:04:58Z</time>
<desc>lat.=20.955938, lon.=107.050270, Alt.=2.048433m. Speed=0.072000m/h.</desc>
<speed>0.020000</speed>
</trkpt>
<trkpt lat="20.955938" lon="107.050270">
<ele>2.036043</ele>
<time>2011-04-30T12:05:03Z</time>
<desc>lat.=20.955938, lon.=107.050270, Alt.=2.036043m. Speed=0.036000m/h.</desc>
<speed>0.010000</speed>
</trkpt>
<trkpt lat="20.955938" lon="107.050270">
<ele>2.012117</ele>
<time>2011-04-30T12:05:08Z</time>
<desc>lat.=20.955938, lon.=107.050270, Alt.=2.012117m. Speed=0.036000m/h.</desc>
<speed>0.010000</speed>
</trkpt>
<trkpt lat="20.955938" lon="107.050270">
<ele>2.008028</ele>
<time>2011-04-30T12:05:13Z</time>
<desc>lat.=20.955938, lon.=107.050270, Alt.=2.008028m. Speed=0.000000m/h.</desc>
<speed>0.000000</speed>
</trkpt>
<trkpt lat="20.955938" lon="107.050270">
<ele>2.005098</ele>
<time>2011-04-30T12:05:18Z</time>
<desc>lat.=20.955938, lon.=107.050270, Alt.=2.005098m. Speed=0.036000m/h.</desc>
<speed>0.010000</speed>
</trkpt>
<trkpt lat="20.955938" lon="107.050270">
<ele>2.006197</ele>
<time>2011-04-30T12:05:23Z</time>
<desc>lat.=20.955938, lon.=107.050270, Alt.=2.006197m. Speed=0.036000m/h.</desc>
<speed>0.010000</speed>
</trkpt>
<trkpt lat="20.955938" lon="107.050270">
<ele>1.988481</ele>
<time>2011-04-30T12:05:28Z</time>
<desc>lat.=20.955938, lon.=107.050270, Alt.=1.988481m. Speed=0.000000m/h.</desc>
<speed>0.000000</speed>
</trkpt>
<trkpt lat="20.955938" lon="107.050270">
<ele>1.975114</ele>
<time>2011-04-30T12:05:33Z</time>
<desc>lat.=20.955938, lon.=107.050270, Alt.=1.975114m. Speed=0.036000m/h.</desc>
<speed>0.010000</speed>
</trkpt>
<trkpt lat="20.955938" lon="107.050270">
<ele>1.960160</ele>
<time>2011-04-30T12:05:38Z</time>
<desc>lat.=20.955938, lon.=107.050270, Alt.=1.960160m. Speed=0.000000m/h.</desc>
<speed>0.000000</speed>
</trkpt>
<trkpt lat="20.955938" lon="107.050270">
<ele>1.945359</ele>
<time>2011-04-30T12:05:43Z</time>
<desc>lat.=20.955938, lon.=107.050270, Alt.=1.945359m. Speed=0.072000m/h.</desc>
<speed>0.020000</speed>
</trkpt>
<trkpt lat="20.955938" lon="107.050270">
<ele>1.932298</ele>
<time>2011-04-30T12:05:48Z</time>
<desc>lat.=20.955938, lon.=107.050270, Alt.=1.932298m. Speed=0.036000m/h.</desc>
<speed>0.010000</speed>
</trkpt>
<trkpt lat="20.955938" lon="107.050270">
<ele>1.930802</ele>
<time>2011-04-30T12:05:53Z</time>
<desc>lat.=20.955938, lon.=107.050270, Alt.=1.930802m. Speed=0.000000m/h.</desc>
<speed>0.000000</speed>
</trkpt>
<trkpt lat="20.955940" lon="107.050270">
<ele>1.925340</ele>
<time>2011-04-30T12:05:58Z</time>
<desc>lat.=20.955940, lon.=107.050270, Alt.=1.925340m. Speed=0.000000m/h.</desc>
<speed>0.000000</speed>
</trkpt>
<trkpt lat="20.955940" lon="107.050270">
<ele>1.916490</ele>
<time>2011-04-30T12:06:03Z</time>
<desc>lat.=20.955940, lon.=107.050270, Alt.=1.916490m. Speed=0.036000m/h.</desc>
<speed>0.010000</speed>
</trkpt>
<trkpt lat="20.955940" lon="107.050270">
<ele>1.902329</ele>
<time>2011-04-30T12:06:08Z</time>
<desc>lat.=20.955940, lon.=107.050270, Alt.=1.902329m. Speed=0.000000m/h.</desc>
<speed>0.000000</speed>
</trkpt>
<trkpt lat="20.955940" lon="107.050270">
<ele>1.893540</ele>
<time>2011-04-30T12:06:13Z</time>
<desc>lat.=20.955940, lon.=107.050270, Alt.=1.893540m. Speed=0.000000m/h.</desc>
<speed>0.000000</speed>
</trkpt>
<trkpt lat="20.955940" lon="107.050270">
<ele>1.887864</ele>
<time>2011-04-30T12:06:18Z</time>
<desc>lat.=20.955940, lon.=107.050270, Alt.=1.887864m. Speed=0.036000m/h.</desc>
<speed>0.010000</speed>
</trkpt>
<trkpt lat="20.955938" lon="107.050270">
<ele>1.865067</ele>
<time>2011-04-30T12:06:23Z</time>
<desc>lat.=20.955938, lon.=107.050270, Alt.=1.865067m. Speed=0.036000m/h.</desc>
<speed>0.010000</speed>
</trkpt>
<trkpt lat="20.955938" lon="107.050270">
<ele>1.826249</ele>
<time>2011-04-30T12:06:28Z</time>
<desc>lat.=20.955938, lon.=107.050270, Alt.=1.826249m. Speed=0.072000m/h.</desc>
<speed>0.020000</speed>
</trkpt>
<trkpt lat="20.955938" lon="107.050270">
<ele>1.815812</ele>
<time>2011-04-30T12:06:33Z</time>
<desc>lat.=20.955938, lon.=107.050270, Alt.=1.815812m. Speed=0.108000m/h.</desc>
<speed>0.030000</speed>
</trkpt>
<trkpt lat="20.955938" lon="107.050270">
<ele>1.814683</ele>
<time>2011-04-30T12:06:38Z</time>
<desc>lat.=20.955938, lon.=107.050270, Alt.=1.814683m. Speed=0.072000m/h.</desc>
<speed>0.020000</speed>
</trkpt>
<trkpt lat="20.955938" lon="107.050270">
<ele>1.818559</ele>
<time>2011-04-30T12:06:43Z</time>
<desc>lat.=20.955938, lon.=107.050270, Alt.=1.818559m. Speed=0.000000m/h.</desc>
<speed>0.000000</speed>
</trkpt>
<trkpt lat="20.955938" lon="107.050270">
<ele>1.789689</ele>
<time>2011-04-30T12:06:48Z</time>
<desc>lat.=20.955938, lon.=107.050270, Alt.=1.789689m. Speed=0.072000m/h.</desc>
<speed>0.020000</speed>
</trkpt>
<trkpt lat="20.955938" lon="107.050270">
<ele>1.766740</ele>
<time>2011-04-30T12:06:53Z</time>
<desc>lat.=20.955938, lon.=107.050270, Alt.=1.766740m. Speed=0.036000m/h.</desc>
<speed>0.010000</speed>
</trkpt>
<trkpt lat="20.955938" lon="107.050270">
<ele>1.728868</ele>
<time>2011-04-30T12:06:58Z</time>
<desc>lat.=20.955938, lon.=107.050270, Alt.=1.728868m. Speed=0.072000m/h.</desc>
<speed>0.020000</speed>
</trkpt>
<trkpt lat="20.955938" lon="107.050270">
<ele>1.722978</ele>
<time>2011-04-30T12:07:03Z</time>
<desc>lat.=20.955938, lon.=107.050270, Alt.=1.722978m. Speed=0.000000m/h.</desc>
<speed>0.000000</speed>
</trkpt>
<trkpt lat="20.955938" lon="107.050270">
<ele>1.734574</ele>
<time>2011-04-30T12:07:08Z</time>
<desc>lat.=20.955938, lon.=107.050270, Alt.=1.734574m. Speed=0.000000m/h.</desc>
<speed>0.000000</speed>
</trkpt>
<trkpt lat="20.955936" lon="107.050270">
<ele>1.739915</ele>
<time>2011-04-30T12:07:13Z</time>
<desc>lat.=20.955936, lon.=107.050270, Alt.=1.739915m. Speed=0.000000m/h.</desc>
<speed>0.000000</speed>
</trkpt>
<trkpt lat="20.955936" lon="107.050270">
<ele>1.741471</ele>
<time>2011-04-30T12:07:18Z</time>
<desc>lat.=20.955936, lon.=107.050270, Alt.=1.741471m. Speed=0.036000m/h.</desc>
<speed>0.010000</speed>
</trkpt>
<trkpt lat="20.955936" lon="107.050270">
<ele>1.740922</ele>
<time>2011-04-30T12:07:23Z</time>
<desc>lat.=20.955936, lon.=107.050270, Alt.=1.740922m. Speed=0.000000m/h.</desc>
<speed>0.000000</speed>
</trkpt>
<trkpt lat="20.955936" lon="107.050270">
<ele>1.721208</ele>
<time>2011-04-30T12:07:28Z</time>
<desc>lat.=20.955936, lon.=107.050270, Alt.=1.721208m. Speed=0.108000m/h.</desc>
<speed>0.030000</speed>
</trkpt>
<trkpt lat="20.955936" lon="107.050270">
<ele>1.689347</ele>
<time>2011-04-30T12:07:33Z</time>
<desc>lat.=20.955936, lon.=107.050270, Alt.=1.689347m. Speed=0.072000m/h.</desc>
<speed>0.020000</speed>
</trkpt>
<trkpt lat="20.955936" lon="107.050270">
<ele>1.660905</ele>
<time>2011-04-30T12:07:38Z</time>
<desc>lat.=20.955936, lon.=107.050270, Alt.=1.660905m. Speed=0.072000m/h.</desc>
<speed>0.020000</speed>
</trkpt>
<trkpt lat="20.955936" lon="107.050270">
<ele>1.636918</ele>
<time>2011-04-30T12:07:43Z</time>
<desc>lat.=20.955936, lon.=107.050270, Alt.=1.636918m. Speed=0.036000m/h.</desc>
<speed>0.010000</speed>
</trkpt>
<trkpt lat="20.955936" lon="107.050270">
<ele>1.595109</ele>
<time>2011-04-30T12:07:48Z</time>
<desc>lat.=20.955936, lon.=107.050270, Alt.=1.595109m. Speed=0.072000m/h.</desc>
<speed>0.020000</speed>
</trkpt>
<trkpt lat="20.955936" lon="107.050270">
<ele>1.561753</ele>
<time>2011-04-30T12:07:53Z</time>
<desc>lat.=20.955936, lon.=107.050270, Alt.=1.561753m. Speed=0.036000m/h.</desc>
<speed>0.010000</speed>
</trkpt>
<trkpt lat="20.955936" lon="107.050270">
<ele>1.561875</ele>
<time>2011-04-30T12:07:58Z</time>
<desc>lat.=20.955936, lon.=107.050270, Alt.=1.561875m. Speed=0.036000m/h.</desc>
<speed>0.010000</speed>
</trkpt>
<trkpt lat="20.955936" lon="107.050270">
<ele>1.544816</ele>
<time>2011-04-30T12:08:03Z</time>
<desc>lat.=20.955936, lon.=107.050270, Alt.=1.544816m. Speed=0.036000m/h.</desc>
<speed>0.010000</speed>
</trkpt>
<trkpt lat="20.955936" lon="107.050270">
<ele>1.542954</ele>
<time>2011-04-30T12:08:08Z</time>
<desc>lat.=20.955936, lon.=107.050270, Alt.=1.542954m. Speed=0.036000m/h.</desc>
<speed>0.010000</speed>
</trkpt>
<trkpt lat="20.955936" lon="107.050270">
<ele>1.518571</ele>
<time>2011-04-30T12:08:13Z</time>
<desc>lat.=20.955936, lon.=107.050270, Alt.=1.518571m. Speed=0.072000m/h.</desc>
<speed>0.020000</speed>
</trkpt>
<trkpt lat="20.955935" lon="107.050270">
<ele>1.447068</ele>
<time>2011-04-30T12:08:18Z</time>
<desc>lat.=20.955935, lon.=107.050270, Alt.=1.447068m. Speed=0.036000m/h.</desc>
<speed>0.010000</speed>
</trkpt>
<trkpt lat="20.955935" lon="107.050270">
<ele>1.397630</ele>
<time>2011-04-30T12:08:23Z</time>
<desc>lat.=20.955935, lon.=107.050270, Alt.=1.397630m. Speed=0.072000m/h.</desc>
<speed>0.020000</speed>
</trkpt>
<trkpt lat="20.955935" lon="107.050270">
<ele>1.354051</ele>
<time>2011-04-30T12:08:28Z</time>
<desc>lat.=20.955935, lon.=107.050270, Alt.=1.354051m. Speed=0.000000m/h.</desc>
<speed>0.000000</speed>
</trkpt>
<trkpt lat="20.955935" lon="107.050270">
<ele>1.338670</ele>
<time>2011-04-30T12:08:33Z</time>
<desc>lat.=20.955935, lon.=107.050270, Alt.=1.338670m. Speed=0.036000m/h.</desc>
<speed>0.010000</speed>
</trkpt>
<trkpt lat="20.955935" lon="107.050270">
<ele>1.334947</ele>
<time>2011-04-30T12:08:38Z</time>
<desc>lat.=20.955935, lon.=107.050270, Alt.=1.334947m. Speed=0.000000m/h.</desc>
<speed>0.000000</speed>
</trkpt>
<trkpt lat="20.955935" lon="107.050270">
<ele>1.319932</ele>
<time>2011-04-30T12:08:43Z</time>
<desc>lat.=20.955935, lon.=107.050270, Alt.=1.319932m. Speed=0.000000m/h.</desc>
<speed>0.000000</speed>
</trkpt>
<trkpt lat="20.955935" lon="107.050270">
<ele>1.319169</ele>
<time>2011-04-30T12:08:48Z</time>
<desc>lat.=20.955935, lon.=107.050270, Alt.=1.319169m. Speed=0.072000m/h.</desc>
<speed>0.020000</speed>
</trkpt>
<trkpt lat="20.955933" lon="107.050270">
<ele>1.313554</ele>
<time>2011-04-30T12:08:53Z</time>
<desc>lat.=20.955933, lon.=107.050270, Alt.=1.313554m. Speed=0.036000m/h.</desc>
<speed>0.010000</speed>
</trkpt>
<trkpt lat="20.955933" lon="107.050270">
<ele>1.323289</ele>
<time>2011-04-30T12:08:58Z</time>
<desc>lat.=20.955933, lon.=107.050270, Alt.=1.323289m. Speed=0.036000m/h.</desc>
<speed>0.010000</speed>
</trkpt>
<trkpt lat="20.955933" lon="107.050270">
<ele>1.356919</ele>
<time>2011-04-30T12:09:03Z</time>
<desc>lat.=20.955933, lon.=107.050270, Alt.=1.356919m. Speed=0.036000m/h.</desc>
<speed>0.010000</speed>
</trkpt>
<trkpt lat="20.955933" lon="107.050270">
<ele>1.396165</ele>
<time>2011-04-30T12:09:08Z</time>
<desc>lat.=20.955933, lon.=107.050270, Alt.=1.396165m. Speed=0.000000m/h.</desc>
<speed>0.000000</speed>
</trkpt>
<trkpt lat="20.955933" lon="107.050270">
<ele>1.422624</ele>
<time>2011-04-30T12:09:13Z</time>
<desc>lat.=20.955933, lon.=107.050270, Alt.=1.422624m. Speed=0.036000m/h.</desc>
<speed>0.010000</speed>
</trkpt>
<trkpt lat="20.955933" lon="107.050278">
<ele>1.445481</ele>
<time>2011-04-30T12:09:18Z</time>
<desc>lat.=20.955933, lon.=107.050278, Alt.=1.445481m. Speed=0.036000m/h.</desc>
<speed>0.010000</speed>
</trkpt>
<trkpt lat="20.955933" lon="107.050270">
<ele>1.466416</ele>
<time>2011-04-30T12:09:23Z</time>
<desc>lat.=20.955933, lon.=107.050270, Alt.=1.466416m. Speed=0.000000m/h.</desc>
<speed>0.000000</speed>
</trkpt>
<trkpt lat="20.955933" lon="107.050270">
<ele>1.499345</ele>
<time>2011-04-30T12:09:28Z</time>
<desc>lat.=20.955933, lon.=107.050270, Alt.=1.499345m. Speed=0.072000m/h.</desc>
<speed>0.020000</speed>
</trkpt>
<trkpt lat="20.955933" lon="107.050270">
<ele>1.481431</ele>
<time>2011-04-30T12:09:33Z</time>
<desc>lat.=20.955933, lon.=107.050270, Alt.=1.481431m. Speed=0.072000m/h.</desc>
<speed>0.020000</speed>
</trkpt>
<trkpt lat="20.955935" lon="107.050270">
<ele>1.503007</ele>
<time>2011-04-30T12:09:38Z</time>
<desc>lat.=20.955935, lon.=107.050270, Alt.=1.503007m. Speed=0.108000m/h.</desc>
<speed>0.030000</speed>
</trkpt>
<trkpt lat="20.955935" lon="107.050270">
<ele>1.497453</ele>
<time>2011-04-30T12:09:43Z</time>
<desc>lat.=20.955935, lon.=107.050270, Alt.=1.497453m. Speed=0.000000m/h.</desc>
<speed>0.000000</speed>
</trkpt>
<trkpt lat="20.955935" lon="107.050270">
<ele>1.473832</ele>
<time>2011-04-30T12:09:48Z</time>
<desc>lat.=20.955935, lon.=107.050270, Alt.=1.473832m. Speed=0.000000m/h.</desc>
<speed>0.000000</speed>
</trkpt>
<trkpt lat="20.955935" lon="107.050270">
<ele>1.463853</ele>
<time>2011-04-30T12:09:53Z</time>
<desc>lat.=20.955935, lon.=107.050270, Alt.=1.463853m. Speed=0.000000m/h.</desc>
<speed>0.000000</speed>
</trkpt>
<trkpt lat="20.955935" lon="107.050270">
<ele>1.420213</ele>
<time>2011-04-30T12:09:58Z</time>
<desc>lat.=20.955935, lon.=107.050270, Alt.=1.420213m. Speed=0.000000m/h.</desc>
<speed>0.000000</speed>
</trkpt>
<trkpt lat="20.955935" lon="107.050270">
<ele>1.338212</ele>
<time>2011-04-30T12:10:03Z</time>
<desc>lat.=20.955935, lon.=107.050270, Alt.=1.338212m. Speed=0.036000m/h.</desc>
<speed>0.010000</speed>
</trkpt>
<trkpt lat="20.955935" lon="107.050270">
<ele>1.284928</ele>
<time>2011-04-30T12:10:08Z</time>
<desc>lat.=20.955935, lon.=107.050270, Alt.=1.284928m. Speed=0.036000m/h.</desc>
<speed>0.010000</speed>
</trkpt>
<trkpt lat="20.955935" lon="107.050270">
<ele>1.268449</ele>
<time>2011-04-30T12:10:13Z</time>
<desc>lat.=20.955935, lon.=107.050270, Alt.=1.268449m. Speed=0.036000m/h.</desc>
<speed>0.010000</speed>
</trkpt>
<trkpt lat="20.955935" lon="107.050270">
<ele>1.268754</ele>
<time>2011-04-30T12:10:18Z</time>
<desc>lat.=20.955935, lon.=107.050270, Alt.=1.268754m. Speed=0.072000m/h.</desc>
<speed>0.020000</speed>
</trkpt>
<trkpt lat="20.955935" lon="107.050270">
<ele>1.256303</ele>
<time>2011-04-30T12:10:23Z</time>
<desc>lat.=20.955935, lon.=107.050270, Alt.=1.256303m. Speed=0.036000m/h.</desc>
<speed>0.010000</speed>
</trkpt>
<trkpt lat="20.955935" lon="107.050270">
<ele>1.246751</ele>
<time>2011-04-30T12:10:28Z</time>
<desc>lat.=20.955935, lon.=107.050270, Alt.=1.246751m. Speed=0.036000m/h.</desc>
<speed>0.010000</speed>
</trkpt>
<trkpt lat="20.955935" lon="107.050270">
<ele>1.247941</ele>
<time>2011-04-30T12:10:33Z</time>
<desc>lat.=20.955935, lon.=107.050270, Alt.=1.247941m. Speed=0.036000m/h.</desc>
<speed>0.010000</speed>
</trkpt>
<trkpt lat="20.955935" lon="107.050270">
<ele>1.230882</ele>
<time>2011-04-30T12:10:38Z</time>
<desc>lat.=20.955935, lon.=107.050270, Alt.=1.230882m. Speed=0.036000m/h.</desc>
<speed>0.010000</speed>
</trkpt>
<trkpt lat="20.955935" lon="107.050270">
<ele>1.201768</ele>
<time>2011-04-30T12:10:43Z</time>
<desc>lat.=20.955935, lon.=107.050270, Alt.=1.201768m. Speed=0.036000m/h.</desc>
<speed>0.010000</speed>
</trkpt>
<trkpt lat="20.955935" lon="107.050270">
<ele>1.184678</ele>
<time>2011-04-30T12:10:48Z</time>
<desc>lat.=20.955935, lon.=107.050270, Alt.=1.184678m. Speed=0.000000m/h.</desc>
<speed>0.000000</speed>
</trkpt>
<trkpt lat="20.955935" lon="107.050270">
<ele>1.161881</ele>
<time>2011-04-30T12:10:53Z</time>
<desc>lat.=20.955935, lon.=107.050270, Alt.=1.161881m. Speed=0.000000m/h.</desc>
<speed>0.000000</speed>
</trkpt>
<trkpt lat="20.955935" lon="107.050270">
<ele>1.141526</ele>
<time>2011-04-30T12:10:58Z</time>
<desc>lat.=20.955935, lon.=107.050270, Alt.=1.141526m. Speed=0.036000m/h.</desc>
<speed>0.010000</speed>
</trkpt>
<trkpt lat="20.955935" lon="107.050270">
<ele>1.130723</ele>
<time>2011-04-30T12:11:03Z</time>
<desc>lat.=20.955935, lon.=107.050270, Alt.=1.130723m. Speed=0.072000m/h.</desc>
<speed>0.020000</speed>
</trkpt>
<trkpt lat="20.955935" lon="107.050270">
<ele>1.134690</ele>
<time>2011-04-30T12:11:08Z</time>
<desc>lat.=20.955935, lon.=107.050270, Alt.=1.134690m. Speed=0.000000m/h.</desc>
<speed>0.000000</speed>
</trkpt>
<trkpt lat="20.955935" lon="107.050270">
<ele>1.107652</ele>
<time>2011-04-30T12:11:13Z</time>
<desc>lat.=20.955935, lon.=107.050270, Alt.=1.107652m. Speed=0.000000m/h.</desc>
<speed>0.000000</speed>
</trkpt>
<trkpt lat="20.955935" lon="107.050270">
<ele>1.095811</ele>
<time>2011-04-30T12:11:18Z</time>
<desc>lat.=20.955935, lon.=107.050270, Alt.=1.095811m. Speed=0.036000m/h.</desc>
<speed>0.010000</speed>
</trkpt>
<trkpt lat="20.955935" lon="107.050270">
<ele>1.062882</ele>
<time>2011-04-30T12:11:23Z</time>
<desc>lat.=20.955935, lon.=107.050270, Alt.=1.062882m. Speed=0.036000m/h.</desc>
<speed>0.010000</speed>
</trkpt>
<trkpt lat="20.955935" lon="107.050270">
<ele>1.042985</ele>
<time>2011-04-30T12:11:28Z</time>
<desc>lat.=20.955935, lon.=107.050270, Alt.=1.042985m. Speed=0.000000m/h.</desc>
<speed>0.000000</speed>
</trkpt>
<trkpt lat="20.955935" lon="107.050270">
<ele>1.024064</ele>
<time>2011-04-30T12:11:33Z</time>
<desc>lat.=20.955935, lon.=107.050270, Alt.=1.024064m. Speed=0.000000m/h.</desc>
<speed>0.000000</speed>
</trkpt>
<trkpt lat="20.955935" lon="107.050270">
<ele>0.985390</ele>
<time>2011-04-30T12:11:38Z</time>
<desc>lat.=20.955935, lon.=107.050270, Alt.=0.985390m. Speed=0.036000m/h.</desc>
<speed>0.010000</speed>
</trkpt>
<trkpt lat="20.955935" lon="107.050270">
<ele>0.949379</ele>
<time>2011-04-30T12:11:43Z</time>
<desc>lat.=20.955935, lon.=107.050270, Alt.=0.949379m. Speed=0.072000m/h.</desc>
<speed>0.020000</speed>
</trkpt>
<trkpt lat="20.955935" lon="107.050270">
<ele>0.948922</ele>
<time>2011-04-30T12:11:48Z</time>
<desc>lat.=20.955935, lon.=107.050270, Alt.=0.948922m. Speed=0.036000m/h.</desc>
<speed>0.010000</speed>
</trkpt>
<trkpt lat="20.955935" lon="107.050270">
<ele>0.937600</ele>
<time>2011-04-30T12:11:53Z</time>
<desc>lat.=20.955935, lon.=107.050270, Alt.=0.937600m. Speed=0.036000m/h.</desc>
<speed>0.010000</speed>
</trkpt>
<trkpt lat="20.955936" lon="107.050270">
<ele>0.927804</ele>
<time>2011-04-30T12:11:58Z</time>
<desc>lat.=20.955936, lon.=107.050270, Alt.=0.927804m. Speed=0.036000m/h.</desc>
<speed>0.010000</speed>
</trkpt>
<trkpt lat="20.955936" lon="107.050270">
<ele>0.910378</ele>
<time>2011-04-30T12:12:03Z</time>
<desc>lat.=20.955936, lon.=107.050270, Alt.=0.910378m. Speed=0.036000m/h.</desc>
<speed>0.010000</speed>
</trkpt>
<trkpt lat="20.955936" lon="107.050270">
<ele>0.883507</ele>
<time>2011-04-30T12:12:08Z</time>
<desc>lat.=20.955936, lon.=107.050270, Alt.=0.883507m. Speed=0.072000m/h.</desc>
<speed>0.020000</speed>
</trkpt>
<trkpt lat="20.955936" lon="107.050270">
<ele>0.838616</ele>
<time>2011-04-30T12:12:13Z</time>
<desc>lat.=20.955936, lon.=107.050270, Alt.=0.838616m. Speed=0.252000m/h.</desc>
<speed>0.070000</speed>
</trkpt>
<trkpt lat="20.955938" lon="107.050270">
<ele>0.824578</ele>
<time>2011-04-30T12:12:18Z</time>
<desc>lat.=20.955938, lon.=107.050270, Alt.=0.824578m. Speed=0.180000m/h.</desc>
<speed>0.050000</speed>
</trkpt>
<trkpt lat="20.955938" lon="107.050270">
<ele>0.810051</ele>
<time>2011-04-30T12:12:23Z</time>
<desc>lat.=20.955938, lon.=107.050270, Alt.=0.810051m. Speed=0.144000m/h.</desc>
<speed>0.040000</speed>
</trkpt>
<trkpt lat="20.955938" lon="107.050270">
<ele>0.779641</ele>
<time>2011-04-30T12:12:28Z</time>
<desc>lat.=20.955938, lon.=107.050270, Alt.=0.779641m. Speed=0.108000m/h.</desc>
<speed>0.030000</speed>
</trkpt>
<trkpt lat="20.955938" lon="107.050270">
<ele>0.751610</ele>
<time>2011-04-30T12:12:33Z</time>
<desc>lat.=20.955938, lon.=107.050270, Alt.=0.751610m. Speed=0.144000m/h.</desc>
<speed>0.040000</speed>
</trkpt>
<trkpt lat="20.955938" lon="107.050270">
<ele>0.781838</ele>
<time>2011-04-30T12:12:38Z</time>
<desc>lat.=20.955938, lon.=107.050270, Alt.=0.781838m. Speed=0.072000m/h.</desc>
<speed>0.020000</speed>
</trkpt>
<trkpt lat="20.955938" lon="107.050262">
<ele>0.780678</ele>
<time>2011-04-30T12:12:43Z</time>
<desc>lat.=20.955938, lon.=107.050262, Alt.=0.780678m. Speed=0.000000m/h.</desc>
<speed>0.000000</speed>
</trkpt>
<trkpt lat="20.955938" lon="107.050262">
<ele>0.751244</ele>
<time>2011-04-30T12:12:48Z</time>
<desc>lat.=20.955938, lon.=107.050262, Alt.=0.751244m. Speed=0.000000m/h.</desc>
<speed>0.000000</speed>
</trkpt>
<trkpt lat="20.955940" lon="107.050262">
<ele>0.699334</ele>
<time>2011-04-30T12:12:53Z</time>
<desc>lat.=20.955940, lon.=107.050262, Alt.=0.699334m. Speed=0.000000m/h.</desc>
<speed>0.000000</speed>
</trkpt>
<trkpt lat="20.955940" lon="107.050262">
<ele>0.638024</ele>
<time>2011-04-30T12:12:58Z</time>
<desc>lat.=20.955940, lon.=107.050262, Alt.=0.638024m. Speed=0.000000m/h.</desc>
<speed>0.000000</speed>
</trkpt>
<trkpt lat="20.955940" lon="107.050262">
<ele>0.579583</ele>
<time>2011-04-30T12:13:03Z</time>
<desc>lat.=20.955940, lon.=107.050262, Alt.=0.579583m. Speed=0.000000m/h.</desc>
<speed>0.000000</speed>
</trkpt>
<trkpt lat="20.955940" lon="107.050262">
<ele>0.540703</ele>
<time>2011-04-30T12:13:08Z</time>
<desc>lat.=20.955940, lon.=107.050262, Alt.=0.540703m. Speed=0.036000m/h.</desc>
<speed>0.010000</speed>
</trkpt>
<trkpt lat="20.955940" lon="107.050262">
<ele>0.484410</ele>
<time>2011-04-30T12:13:13Z</time>
<desc>lat.=20.955940, lon.=107.050262, Alt.=0.484410m. Speed=0.000000m/h.</desc>
<speed>0.000000</speed>
</trkpt>
<trkpt lat="20.955940" lon="107.050262">
<ele>0.434307</ele>
<time>2011-04-30T12:13:18Z</time>
<desc>lat.=20.955940, lon.=107.050262, Alt.=0.434307m. Speed=0.036000m/h.</desc>
<speed>0.010000</speed>
</trkpt>
<trkpt lat="20.955940" lon="107.050262">
<ele>0.442944</ele>
<time>2011-04-30T12:13:23Z</time>
<desc>lat.=20.955940, lon.=107.050262, Alt.=0.442944m. Speed=0.072000m/h.</desc>
<speed>0.020000</speed>
</trkpt>
<trkpt lat="20.955940" lon="107.050262">
<ele>0.433995</ele>
<time>2011-04-30T12:13:28Z</time>
<desc>lat.=20.955940, lon.=107.050262, Alt.=0.433995m. Speed=0.000000m/h.</desc>
<speed>0.000000</speed>
</trkpt>
<trkpt lat="20.955938" lon="107.050262">
<ele>0.420605</ele>
<time>2011-04-30T12:13:33Z</time>
<desc>lat.=20.955938, lon.=107.050262, Alt.=0.420605m. Speed=0.000000m/h.</desc>
<speed>0.000000</speed>
</trkpt>
<trkpt lat="20.955940" lon="107.050262">
<ele>0.476467</ele>
<time>2011-04-30T12:13:38Z</time>
<desc>lat.=20.955940, lon.=107.050262, Alt.=0.476467m. Speed=0.000000m/h.</desc>
<speed>0.000000</speed>
</trkpt>
<trkpt lat="20.955940" lon="107.050262">
<ele>0.527932</ele>
<time>2011-04-30T12:13:43Z</time>
<desc>lat.=20.955940, lon.=107.050262, Alt.=0.527932m. Speed=0.000000m/h.</desc>
<speed>0.000000</speed>
</trkpt>
<trkpt lat="20.955940" lon="107.050262">
<ele>0.563012</ele>
<time>2011-04-30T12:13:48Z</time>
<desc>lat.=20.955940, lon.=107.050262, Alt.=0.563012m. Speed=0.000000m/h.</desc>
<speed>0.000000</speed>
</trkpt>
<trkpt lat="20.955940" lon="107.050262">
<ele>0.568825</ele>
<time>2011-04-30T12:13:53Z</time>
<desc>lat.=20.955940, lon.=107.050262, Alt.=0.568825m. Speed=0.000000m/h.</desc>
<speed>0.000000</speed>
</trkpt>
<trkpt lat="20.955940" lon="107.050262">
<ele>0.562859</ele>
<time>2011-04-30T12:13:58Z</time>
<desc>lat.=20.955940, lon.=107.050262, Alt.=0.562859m. Speed=0.000000m/h.</desc>
<speed>0.000000</speed>
</trkpt>
<trkpt lat="20.955940" lon="107.050262">
<ele>0.556511</ele>
<time>2011-04-30T12:14:03Z</time>
<desc>lat.=20.955940, lon.=107.050262, Alt.=0.556511m. Speed=0.000000m/h.</desc>
<speed>0.000000</speed>
</trkpt>
<trkpt lat="20.955940" lon="107.050262">
<ele>0.564797</ele>
<time>2011-04-30T12:14:08Z</time>
<desc>lat.=20.955940, lon.=107.050262, Alt.=0.564797m. Speed=0.000000m/h.</desc>
<speed>0.000000</speed>
</trkpt>
<trkpt lat="20.955940" lon="107.050262">
<ele>0.561562</ele>
<time>2011-04-30T12:14:13Z</time>
<desc>lat.=20.955940, lon.=107.050262, Alt.=0.561562m. Speed=0.000000m/h.</desc>
<speed>0.000000</speed>
</trkpt>
<trkpt lat="20.955940" lon="107.050262">
<ele>0.563042</ele>
<time>2011-04-30T12:14:18Z</time>
<desc>lat.=20.955940, lon.=107.050262, Alt.=0.563042m. Speed=0.000000m/h.</desc>
<speed>0.000000</speed>
</trkpt>
<trkpt lat="20.955940" lon="107.050262">
<ele>0.552498</ele>
<time>2011-04-30T12:14:23Z</time>
<desc>lat.=20.955940, lon.=107.050262, Alt.=0.552498m. Speed=0.000000m/h.</desc>
<speed>0.000000</speed>
</trkpt>
<trkpt lat="20.955942" lon="107.050262">
<ele>0.517983</ele>
<time>2011-04-30T12:14:28Z</time>
<desc>lat.=20.955942, lon.=107.050262, Alt.=0.517983m. Speed=0.000000m/h.</desc>
<speed>0.000000</speed>
</trkpt>
<trkpt lat="20.955942" lon="107.050262">
<ele>0.474552</ele>
<time>2011-04-30T12:14:33Z</time>
<desc>lat.=20.955942, lon.=107.050262, Alt.=0.474552m. Speed=0.036000m/h.</desc>
<speed>0.010000</speed>
</trkpt>
<trkpt lat="20.955942" lon="107.050262">
<ele>0.449902</ele>
<time>2011-04-30T12:14:38Z</time>
<desc>lat.=20.955942, lon.=107.050262, Alt.=0.449902m. Speed=0.000000m/h.</desc>
<speed>0.000000</speed>
</trkpt>
<trkpt lat="20.955940" lon="107.050262">
<ele>0.422039</ele>
<time>2011-04-30T12:14:43Z</time>
<desc>lat.=20.955940, lon.=107.050262, Alt.=0.422039m. Speed=0.000000m/h.</desc>
<speed>0.000000</speed>
</trkpt>
<trkpt lat="20.955940" lon="107.050262">
<ele>0.378826</ele>
<time>2011-04-30T12:14:48Z</time>
<desc>lat.=20.955940, lon.=107.050262, Alt.=0.378826m. Speed=0.000000m/h.</desc>
<speed>0.000000</speed>
</trkpt>
<trkpt lat="20.955940" lon="107.050262">
<ele>0.330418</ele>
<time>2011-04-30T12:14:53Z</time>
<desc>lat.=20.955940, lon.=107.050262, Alt.=0.330418m. Speed=0.000000m/h.</desc>
<speed>0.000000</speed>
</trkpt>
<trkpt lat="20.955940" lon="107.050262">
<ele>0.287014</ele>
<time>2011-04-30T12:14:58Z</time>
<desc>lat.=20.955940, lon.=107.050262, Alt.=0.287014m. Speed=0.000000m/h.</desc>
<speed>0.000000</speed>
</trkpt>
<trkpt lat="20.955940" lon="107.050262">
<ele>0.295231</ele>
<time>2011-04-30T12:15:03Z</time>
<desc>lat.=20.955940, lon.=107.050262, Alt.=0.295231m. Speed=0.036000m/h.</desc>
<speed>0.010000</speed>
</trkpt>
<trkpt lat="20.955942" lon="107.050262">
<ele>0.326802</ele>
<time>2011-04-30T12:15:08Z</time>
<desc>lat.=20.955942, lon.=107.050262, Alt.=0.326802m. Speed=0.036000m/h.</desc>
<speed>0.010000</speed>
</trkpt>
<trkpt lat="20.955942" lon="107.050262">
<ele>0.315457</ele>
<time>2011-04-30T12:15:13Z</time>
<desc>lat.=20.955942, lon.=107.050262, Alt.=0.315457m. Speed=0.036000m/h.</desc>
<speed>0.010000</speed>
</trkpt>
<trkpt lat="20.955942" lon="107.050262">
<ele>0.317570</ele>
<time>2011-04-30T12:15:18Z</time>
<desc>lat.=20.955942, lon.=107.050262, Alt.=0.317570m. Speed=0.036000m/h.</desc>
<speed>0.010000</speed>
</trkpt>
<trkpt lat="20.955942" lon="107.050262">
<ele>0.318173</ele>
<time>2011-04-30T12:15:23Z</time>
<desc>lat.=20.955942, lon.=107.050262, Alt.=0.318173m. Speed=0.000000m/h.</desc>
<speed>0.000000</speed>
</trkpt>
<trkpt lat="20.955942" lon="107.050262">
<ele>0.300183</ele>
<time>2011-04-30T12:15:28Z</time>
<desc>lat.=20.955942, lon.=107.050262, Alt.=0.300183m. Speed=0.000000m/h.</desc>
<speed>0.000000</speed>
</trkpt>
<trkpt lat="20.955942" lon="107.050262">
<ele>0.304089</ele>
<time>2011-04-30T12:15:33Z</time>
<desc>lat.=20.955942, lon.=107.050262, Alt.=0.304089m. Speed=0.036000m/h.</desc>
<speed>0.010000</speed>
</trkpt>
<trkpt lat="20.955942" lon="107.050262">
<ele>0.359699</ele>
<time>2011-04-30T12:15:38Z</time>
<desc>lat.=20.955942, lon.=107.050262, Alt.=0.359699m. Speed=0.036000m/h.</desc>
<speed>0.010000</speed>
</trkpt>
<trkpt lat="20.955942" lon="107.050262">
<ele>0.359043</ele>
<time>2011-04-30T12:15:43Z</time>
<desc>lat.=20.955942, lon.=107.050262, Alt.=0.359043m. Speed=0.036000m/h.</desc>
<speed>0.010000</speed>
</trkpt>
<trkpt lat="20.955942" lon="107.050262">
<ele>0.331738</ele>
<time>2011-04-30T12:15:48Z</time>
<desc>lat.=20.955942, lon.=107.050262, Alt.=0.331738m. Speed=0.252000m/h.</desc>
<speed>0.070000</speed>
</trkpt>
<trkpt lat="20.955946" lon="107.050262">
<ele>0.314556</ele>
<time>2011-04-30T12:15:53Z</time>
<desc>lat.=20.955946, lon.=107.050262, Alt.=0.314556m. Speed=0.288000m/h.</desc>
<speed>0.080000</speed>
</trkpt>
<trkpt lat="20.955948" lon="107.050262">
<ele>0.293331</ele>
<time>2011-04-30T12:15:58Z</time>
<desc>lat.=20.955948, lon.=107.050262, Alt.=0.293331m. Speed=0.108000m/h.</desc>
<speed>0.030000</speed>
</trkpt>
<trkpt lat="20.955950" lon="107.050262">
<ele>0.299656</ele>
<time>2011-04-30T12:16:03Z</time>
<desc>lat.=20.955950, lon.=107.050262, Alt.=0.299656m. Speed=0.072000m/h.</desc>
<speed>0.020000</speed>
</trkpt>
<trkpt lat="20.955950" lon="107.050262">
<ele>0.306622</ele>
<time>2011-04-30T12:16:08Z</time>
<desc>lat.=20.955950, lon.=107.050262, Alt.=0.306622m. Speed=0.072000m/h.</desc>
<speed>0.020000</speed>
</trkpt>
<trkpt lat="20.955950" lon="107.050262">
<ele>0.329853</ele>
<time>2011-04-30T12:16:13Z</time>
<desc>lat.=20.955950, lon.=107.050262, Alt.=0.329853m. Speed=0.144000m/h.</desc>
<speed>0.040000</speed>
</trkpt>
<trkpt lat="20.955950" lon="107.050262">
<ele>0.373188</ele>
<time>2011-04-30T12:16:18Z</time>
<desc>lat.=20.955950, lon.=107.050262, Alt.=0.373188m. Speed=0.324000m/h.</desc>
<speed>0.090000</speed>
</trkpt>
<trkpt lat="20.955952" lon="107.050262">
<ele>0.385288</ele>
<time>2011-04-30T12:16:23Z</time>
<desc>lat.=20.955952, lon.=107.050262, Alt.=0.385288m. Speed=0.144000m/h.</desc>
<speed>0.040000</speed>
</trkpt>
<trkpt lat="20.955952" lon="107.050262">
<ele>0.395252</ele>
<time>2011-04-30T12:16:28Z</time>
<desc>lat.=20.955952, lon.=107.050262, Alt.=0.395252m. Speed=0.000000m/h.</desc>
<speed>0.000000</speed>
</trkpt>
<trkpt lat="20.955952" lon="107.050262">
<ele>0.402416</ele>
<time>2011-04-30T12:16:33Z</time>
<desc>lat.=20.955952, lon.=107.050262, Alt.=0.402416m. Speed=0.000000m/h.</desc>
<speed>0.000000</speed>
</trkpt>
<trkpt lat="20.955952" lon="107.050262">
<ele>0.411579</ele>
<time>2011-04-30T12:16:38Z</time>
<desc>lat.=20.955952, lon.=107.050262, Alt.=0.411579m. Speed=0.036000m/h.</desc>
<speed>0.010000</speed>
</trkpt>
<trkpt lat="20.955952" lon="107.050262">
<ele>0.410275</ele>
<time>2011-04-30T12:16:43Z</time>
<desc>lat.=20.955952, lon.=107.050262, Alt.=0.410275m. Speed=0.036000m/h.</desc>
<speed>0.010000</speed>
</trkpt>
<trkpt lat="20.955952" lon="107.050262">
<ele>0.422680</ele>
<time>2011-04-30T12:16:48Z</time>
<desc>lat.=20.955952, lon.=107.050262, Alt.=0.422680m. Speed=0.000000m/h.</desc>
<speed>0.000000</speed>
</trkpt>
<trkpt lat="20.955952" lon="107.050262">
<ele>0.440617</ele>
<time>2011-04-30T12:16:53Z</time>
<desc>lat.=20.955952, lon.=107.050262, Alt.=0.440617m. Speed=0.072000m/h.</desc>
<speed>0.020000</speed>
</trkpt>
<trkpt lat="20.955954" lon="107.050262">
<ele>0.446285</ele>
<time>2011-04-30T12:16:58Z</time>
<desc>lat.=20.955954, lon.=107.050262, Alt.=0.446285m. Speed=0.036000m/h.</desc>
<speed>0.010000</speed>
</trkpt>
<trkpt lat="20.955954" lon="107.050262">
<ele>0.449543</ele>
<time>2011-04-30T12:17:03Z</time>
<desc>lat.=20.955954, lon.=107.050262, Alt.=0.449543m. Speed=0.000000m/h.</desc>
<speed>0.000000</speed>
</trkpt>
<trkpt lat="20.955954" lon="107.050262">
<ele>0.461231</ele>
<time>2011-04-30T12:17:08Z</time>
<desc>lat.=20.955954, lon.=107.050262, Alt.=0.461231m. Speed=0.072000m/h.</desc>
<speed>0.020000</speed>
</trkpt>
<trkpt lat="20.955954" lon="107.050262">
<ele>0.482876</ele>
<time>2011-04-30T12:17:13Z</time>
<desc>lat.=20.955954, lon.=107.050262, Alt.=0.482876m. Speed=0.036000m/h.</desc>
<speed>0.010000</speed>
</trkpt>
<trkpt lat="20.955954" lon="107.050262">
<ele>0.508965</ele>
<time>2011-04-30T12:17:18Z</time>
<desc>lat.=20.955954, lon.=107.050262, Alt.=0.508965m. Speed=0.000000m/h.</desc>
<speed>0.000000</speed>
</trkpt>
<trkpt lat="20.955954" lon="107.050262">
<ele>0.524498</ele>
<time>2011-04-30T12:17:23Z</time>
<desc>lat.=20.955954, lon.=107.050262, Alt.=0.524498m. Speed=0.000000m/h.</desc>
<speed>0.000000</speed>
</trkpt>
<trkpt lat="20.955954" lon="107.050262">
<ele>0.530587</ele>
<time>2011-04-30T12:17:28Z</time>
<desc>lat.=20.955954, lon.=107.050262, Alt.=0.530587m. Speed=0.108000m/h.</desc>
<speed>0.030000</speed>
</trkpt>
<trkpt lat="20.955954" lon="107.050262">
<ele>0.507470</ele>
<time>2011-04-30T12:17:33Z</time>
<desc>lat.=20.955954, lon.=107.050262, Alt.=0.507470m. Speed=0.036000m/h.</desc>
<speed>0.010000</speed>
</trkpt>
<trkpt lat="20.955954" lon="107.050262">
<ele>0.517479</ele>
<time>2011-04-30T12:17:38Z</time>
<desc>lat.=20.955954, lon.=107.050262, Alt.=0.517479m. Speed=0.072000m/h.</desc>
<speed>0.020000</speed>
</trkpt>
<trkpt lat="20.955954" lon="107.050262">
<ele>0.517403</ele>
<time>2011-04-30T12:17:43Z</time>
<desc>lat.=20.955954, lon.=107.050262, Alt.=0.517403m. Speed=0.180000m/h.</desc>
<speed>0.050000</speed>
</trkpt>
<trkpt lat="20.955954" lon="107.050262">
<ele>0.530709</ele>
<time>2011-04-30T12:17:48Z</time>
<desc>lat.=20.955954, lon.=107.050262, Alt.=0.530709m. Speed=0.180000m/h.</desc>
<speed>0.050000</speed>
</trkpt>
<trkpt lat="20.955954" lon="107.050262">
<ele>0.538262</ele>
<time>2011-04-30T12:17:53Z</time>
<desc>lat.=20.955954, lon.=107.050262, Alt.=0.538262m. Speed=0.324000m/h.</desc>
<speed>0.090000</speed>
</trkpt>
<trkpt lat="20.955954" lon="107.050262">
<ele>0.633782</ele>
<time>2011-04-30T12:17:58Z</time>
<desc>lat.=20.955954, lon.=107.050262, Alt.=0.633782m. Speed=0.468000m/h.</desc>
<speed>0.130000</speed>
</trkpt>
<trkpt lat="20.955954" lon="107.050262">
<ele>0.628075</ele>
<time>2011-04-30T12:18:03Z</time>
<desc>lat.=20.955954, lon.=107.050262, Alt.=0.628075m. Speed=0.180000m/h.</desc>
<speed>0.050000</speed>
</trkpt>
<trkpt lat="20.955954" lon="107.050262">
<ele>0.625817</ele>
<time>2011-04-30T12:18:08Z</time>
<desc>lat.=20.955954, lon.=107.050262, Alt.=0.625817m. Speed=0.000000m/h.</desc>
<speed>0.000000</speed>
</trkpt>
<trkpt lat="20.955956" lon="107.050262">
<ele>0.798363</ele>
<time>2011-04-30T12:18:13Z</time>
<desc>lat.=20.955956, lon.=107.050262, Alt.=0.798363m. Speed=0.324000m/h.</desc>
<speed>0.090000</speed>
</trkpt>
<trkpt lat="20.955956" lon="107.050262">
<ele>0.803154</ele>
<time>2011-04-30T12:18:18Z</time>
<desc>lat.=20.955956, lon.=107.050262, Alt.=0.803154m. Speed=0.144000m/h.</desc>
<speed>0.040000</speed>
</trkpt>
<trkpt lat="20.955956" lon="107.050262">
<ele>0.796502</ele>
<time>2011-04-30T12:18:23Z</time>
<desc>lat.=20.955956, lon.=107.050262, Alt.=0.796502m. Speed=0.108000m/h.</desc>
<speed>0.030000</speed>
</trkpt>
<trkpt lat="20.955956" lon="107.050262">
<ele>0.783532</ele>
<time>2011-04-30T12:18:28Z</time>
<desc>lat.=20.955956, lon.=107.050262, Alt.=0.783532m. Speed=0.072000m/h.</desc>
<speed>0.020000</speed>
</trkpt>
<trkpt lat="20.955956" lon="107.050262">
<ele>0.800240</ele>
<time>2011-04-30T12:18:33Z</time>
<desc>lat.=20.955956, lon.=107.050262, Alt.=0.800240m. Speed=0.036000m/h.</desc>
<speed>0.010000</speed>
</trkpt>
<trkpt lat="20.955957" lon="107.050262">
<ele>0.893197</ele>
<time>2011-04-30T12:18:38Z</time>
<desc>lat.=20.955957, lon.=107.050262, Alt.=0.893197m. Speed=0.036000m/h.</desc>
<speed>0.010000</speed>
</trkpt>
<trkpt lat="20.955957" lon="107.050262">
<ele>0.868538</ele>
<time>2011-04-30T12:18:43Z</time>
<desc>lat.=20.955957, lon.=107.050262, Alt.=0.868538m. Speed=0.144000m/h.</desc>
<speed>0.040000</speed>
</trkpt>
<trkpt lat="20.955957" lon="107.050262">
<ele>0.878945</ele>
<time>2011-04-30T12:18:48Z</time>
<desc>lat.=20.955957, lon.=107.050262, Alt.=0.878945m. Speed=0.108000m/h.</desc>
<speed>0.030000</speed>
</trkpt>
<trkpt lat="20.955959" lon="107.050262">
<ele>0.927681</ele>
<time>2011-04-30T12:18:53Z</time>
<desc>lat.=20.955959, lon.=107.050262, Alt.=0.927681m. Speed=0.252000m/h.</desc>
<speed>0.070000</speed>
</trkpt>
<trkpt lat="20.955961" lon="107.050255">
<ele>1.028764</ele>
<time>2011-04-30T12:18:58Z</time>
<desc>lat.=20.955961, lon.=107.050255, Alt.=1.028764m. Speed=0.324000m/h.</desc>
<speed>0.090000</speed>
</trkpt>
<trkpt lat="20.955961" lon="107.050255">
<ele>1.148362</ele>
<time>2011-04-30T12:19:03Z</time>
<desc>lat.=20.955961, lon.=107.050255, Alt.=1.148362m. Speed=0.036000m/h.</desc>
<speed>0.010000</speed>
</trkpt>
<trkpt lat="20.955961" lon="107.050255">
<ele>1.096269</ele>
<time>2011-04-30T12:19:08Z</time>
<desc>lat.=20.955961, lon.=107.050255, Alt.=1.096269m. Speed=0.036000m/h.</desc>
<speed>0.010000</speed>
</trkpt>
<trkpt lat="20.955961" lon="107.050255">
<ele>1.098771</ele>
<time>2011-04-30T12:19:13Z</time>
<desc>lat.=20.955961, lon.=107.050255, Alt.=1.098771m. Speed=0.000000m/h.</desc>
<speed>0.000000</speed>
</trkpt>
<trkpt lat="20.955975" lon="107.050240">
<ele>3.598177</ele>
<time>2011-04-30T12:19:18Z</time>
<desc>lat.=20.955975, lon.=107.050240, Alt.=3.598177m. Speed=1.404000m/h.</desc>
<speed>0.390000</speed>
</trkpt>
<trkpt lat="20.955980" lon="107.050232">
<ele>3.216158</ele>
<time>2011-04-30T12:19:23Z</time>
<desc>lat.=20.955980, lon.=107.050232, Alt.=3.216158m. Speed=0.108000m/h.</desc>
<speed>0.030000</speed>
</trkpt>
<trkpt lat="20.955980" lon="107.050232">
<ele>3.337252</ele>
<time>2011-04-30T12:19:28Z</time>
<desc>lat.=20.955980, lon.=107.050232, Alt.=3.337252m. Speed=0.072000m/h.</desc>
<speed>0.020000</speed>
</trkpt>
<trkpt lat="20.955980" lon="107.050232">
<ele>3.279085</ele>
<time>2011-04-30T12:19:33Z</time>
<desc>lat.=20.955980, lon.=107.050232, Alt.=3.279085m. Speed=0.036000m/h.</desc>
<speed>0.010000</speed>
</trkpt>
<trkpt lat="20.955980" lon="107.050232">
<ele>3.213350</ele>
<time>2011-04-30T12:19:38Z</time>
<desc>lat.=20.955980, lon.=107.050232, Alt.=3.213350m. Speed=0.072000m/h.</desc>
<speed>0.020000</speed>
</trkpt>
<trkpt lat="20.955980" lon="107.050232">
<ele>3.195589</ele>
<time>2011-04-30T12:19:43Z</time>
<desc>lat.=20.955980, lon.=107.050232, Alt.=3.195589m. Speed=0.108000m/h.</desc>
<speed>0.030000</speed>
</trkpt>
<trkpt lat="20.955980" lon="107.050232">
<ele>3.183077</ele>
<time>2011-04-30T12:19:48Z</time>
<desc>lat.=20.955980, lon.=107.050232, Alt.=3.183077m. Speed=0.000000m/h.</desc>
<speed>0.000000</speed>
</trkpt>
<trkpt lat="20.955982" lon="107.050232">
<ele>3.168612</ele>
<time>2011-04-30T12:19:53Z</time>
<desc>lat.=20.955982, lon.=107.050232, Alt.=3.168612m. Speed=0.000000m/h.</desc>
<speed>0.000000</speed>
</trkpt>
<trkpt lat="20.955982" lon="107.050232">
<ele>3.145601</ele>
<time>2011-04-30T12:19:58Z</time>
<desc>lat.=20.955982, lon.=107.050232, Alt.=3.145601m. Speed=0.036000m/h.</desc>
<speed>0.010000</speed>
</trkpt>
<trkpt lat="20.955982" lon="107.050232">
<ele>3.145418</ele>
<time>2011-04-30T12:20:03Z</time>
<desc>lat.=20.955982, lon.=107.050232, Alt.=3.145418m. Speed=0.036000m/h.</desc>
<speed>0.010000</speed>
</trkpt>
<trkpt lat="20.955982" lon="107.050232">
<ele>3.172029</ele>
<time>2011-04-30T12:20:08Z</time>
<desc>lat.=20.955982, lon.=107.050232, Alt.=3.172029m. Speed=0.144000m/h.</desc>
<speed>0.040000</speed>
</trkpt>
<trkpt lat="20.955982" lon="107.050232">
<ele>3.184847</ele>
<time>2011-04-30T12:20:13Z</time>
<desc>lat.=20.955982, lon.=107.050232, Alt.=3.184847m. Speed=0.000000m/h.</desc>
<speed>0.000000</speed>
</trkpt>
<trkpt lat="20.955982" lon="107.050232">
<ele>3.225679</ele>
<time>2011-04-30T12:20:18Z</time>
<desc>lat.=20.955982, lon.=107.050232, Alt.=3.225679m. Speed=0.072000m/h.</desc>
<speed>0.020000</speed>
</trkpt>
<trkpt lat="20.955986" lon="107.050232">
<ele>3.037020</ele>
<time>2011-04-30T12:20:23Z</time>
<desc>lat.=20.955986, lon.=107.050232, Alt.=3.037020m. Speed=1.548000m/h.</desc>
<speed>0.430000</speed>
</trkpt>
<trkpt lat="20.956015" lon="107.050209">
<ele>3.147005</ele>
<time>2011-04-30T12:20:28Z</time>
<desc>lat.=20.956015, lon.=107.050209, Alt.=3.147005m. Speed=2.628000m/h.</desc>
<speed>0.730000</speed>
</trkpt>
<trkpt lat="20.956026" lon="107.050179">
<ele>4.969547</ele>
<time>2011-04-30T12:20:33Z</time>
<desc>lat.=20.956026, lon.=107.050179, Alt.=4.969547m. Speed=1.188000m/h.</desc>
<speed>0.330000</speed>
</trkpt>
<trkpt lat="20.956030" lon="107.050179">
<ele>5.385929</ele>
<time>2011-04-30T12:20:38Z</time>
<desc>lat.=20.956030, lon.=107.050179, Alt.=5.385929m. Speed=1.116000m/h.</desc>
<speed>0.310000</speed>
</trkpt>
<trkpt lat="20.956038" lon="107.050156">
<ele>5.660221</ele>
<time>2011-04-30T12:20:43Z</time>
<desc>lat.=20.956038, lon.=107.050156, Alt.=5.660221m. Speed=1.512000m/h.</desc>
<speed>0.420000</speed>
</trkpt>
<trkpt lat="20.956039" lon="107.050148">
<ele>4.616520</ele>
<time>2011-04-30T12:20:48Z</time>
<desc>lat.=20.956039, lon.=107.050148, Alt.=4.616520m. Speed=3.240000m/h.</desc>
<speed>0.900000</speed>
</trkpt>
<trkpt lat="20.956068" lon="107.050133">
<ele>4.669376</ele>
<time>2011-04-30T12:20:53Z</time>
<desc>lat.=20.956068, lon.=107.050133, Alt.=4.669376m. Speed=2.124000m/h.</desc>
<speed>0.590000</speed>
</trkpt>
<trkpt lat="20.956072" lon="107.050125">
<ele>4.804386</ele>
<time>2011-04-30T12:20:58Z</time>
<desc>lat.=20.956072, lon.=107.050125, Alt.=4.804386m. Speed=1.404000m/h.</desc>
<speed>0.390000</speed>
</trkpt>
<trkpt lat="20.956074" lon="107.050102">
<ele>4.590031</ele>
<time>2011-04-30T12:21:03Z</time>
<desc>lat.=20.956074, lon.=107.050102, Alt.=4.590031m. Speed=1.080000m/h.</desc>
<speed>0.300000</speed>
</trkpt>
<trkpt lat="20.956066" lon="107.050072">
<ele>4.192936</ele>
<time>2011-04-30T12:21:08Z</time>
<desc>lat.=20.956066, lon.=107.050072, Alt.=4.192936m. Speed=2.628000m/h.</desc>
<speed>0.730000</speed>
</trkpt>
<trkpt lat="20.956064" lon="107.050026">
<ele>3.643038</ele>
<time>2011-04-30T12:21:13Z</time>
<desc>lat.=20.956064, lon.=107.050026, Alt.=3.643038m. Speed=4.428000m/h.</desc>
<speed>1.230000</speed>
</trkpt>
<trkpt lat="20.956060" lon="107.049980">
<ele>4.679386</ele>
<time>2011-04-30T12:21:18Z</time>
<desc>lat.=20.956060, lon.=107.049980, Alt.=4.679386m. Speed=3.060000m/h.</desc>
<speed>0.850000</speed>
</trkpt>
<trkpt lat="20.956045" lon="107.049934">
<ele>5.769962</ele>
<time>2011-04-30T12:21:23Z</time>
<desc>lat.=20.956045, lon.=107.049934, Alt.=5.769962m. Speed=4.608000m/h.</desc>
<speed>1.280000</speed>
</trkpt>
<trkpt lat="20.956030" lon="107.049889">
<ele>6.639713</ele>
<time>2011-04-30T12:21:28Z</time>
<desc>lat.=20.956030, lon.=107.049889, Alt.=6.639713m. Speed=3.780000m/h.</desc>
<speed>1.050000</speed>
</trkpt>
<trkpt lat="20.955994" lon="107.049850">
<ele>6.734440</ele>
<time>2011-04-30T12:21:33Z</time>
<desc>lat.=20.955994, lon.=107.049850, Alt.=6.734440m. Speed=3.780000m/h.</desc>
<speed>1.050000</speed>
</trkpt>
<trkpt lat="20.955982" lon="107.049820">
<ele>7.649967</ele>
<time>2011-04-30T12:21:38Z</time>
<desc>lat.=20.955982, lon.=107.049820, Alt.=7.649967m. Speed=0.432000m/h.</desc>
<speed>0.120000</speed>
</trkpt>
<trkpt lat="20.955990" lon="107.049812">
<ele>7.580387</ele>
<time>2011-04-30T12:21:43Z</time>
<desc>lat.=20.955990, lon.=107.049812, Alt.=7.580387m. Speed=0.360000m/h.</desc>
<speed>0.100000</speed>
</trkpt>
<trkpt lat="20.955990" lon="107.049812">
<ele>7.838078</ele>
<time>2011-04-30T12:21:48Z</time>
<desc>lat.=20.955990, lon.=107.049812, Alt.=7.838078m. Speed=0.036000m/h.</desc>
<speed>0.010000</speed>
</trkpt>
<trkpt lat="20.955992" lon="107.049812">
<ele>7.866032</ele>
<time>2011-04-30T12:21:53Z</time>
<desc>lat.=20.955992, lon.=107.049812, Alt.=7.866032m. Speed=0.072000m/h.</desc>
<speed>0.020000</speed>
</trkpt>
<trkpt lat="20.955992" lon="107.049812">
<ele>7.854435</ele>
<time>2011-04-30T12:21:58Z</time>
<desc>lat.=20.955992, lon.=107.049812, Alt.=7.854435m. Speed=0.072000m/h.</desc>
<speed>0.020000</speed>
</trkpt>
<trkpt lat="20.955992" lon="107.049812">
<ele>7.859440</ele>
<time>2011-04-30T12:22:03Z</time>
<desc>lat.=20.955992, lon.=107.049812, Alt.=7.859440m. Speed=0.576000m/h.</desc>
<speed>0.160000</speed>
</trkpt>
<trkpt lat="20.955967" lon="107.049835">
<ele>7.681950</ele>
<time>2011-04-30T12:22:08Z</time>
<desc>lat.=20.955967, lon.=107.049835, Alt.=7.681950m. Speed=2.268000m/h.</desc>
<speed>0.630000</speed>
</trkpt>
<trkpt lat="20.955940" lon="107.049850">
<ele>8.665657</ele>
<time>2011-04-30T12:22:13Z</time>
<desc>lat.=20.955940, lon.=107.049850, Alt.=8.665657m. Speed=3.816000m/h.</desc>
<speed>1.060000</speed>
</trkpt>
<trkpt lat="20.955910" lon="107.049889">
<ele>10.360970</ele>
<time>2011-04-30T12:22:18Z</time>
<desc>lat.=20.955910, lon.=107.049889, Alt.=10.360970m. Speed=3.312000m/h.</desc>
<speed>0.920000</speed>
</trkpt>
<trkpt lat="20.955883" lon="107.049919">
<ele>10.780647</ele>
<time>2011-04-30T12:22:23Z</time>
<desc>lat.=20.955883, lon.=107.049919, Alt.=10.780647m. Speed=2.340000m/h.</desc>
<speed>0.650000</speed>
</trkpt>
<trkpt lat="20.955875" lon="107.049950">
<ele>10.553841</ele>
<time>2011-04-30T12:22:28Z</time>
<desc>lat.=20.955875, lon.=107.049950, Alt.=10.553841m. Speed=2.448000m/h.</desc>
<speed>0.680000</speed>
</trkpt>
<trkpt lat="20.955872" lon="107.049980">
<ele>10.855110</ele>
<time>2011-04-30T12:22:33Z</time>
<desc>lat.=20.955872, lon.=107.049980, Alt.=10.855110m. Speed=2.016000m/h.</desc>
<speed>0.560000</speed>
</trkpt>
<trkpt lat="20.955868" lon="107.050011">
<ele>11.474739</ele>
<time>2011-04-30T12:22:38Z</time>
<desc>lat.=20.955868, lon.=107.050011, Alt.=11.474739m. Speed=1.800000m/h.</desc>
<speed>0.500000</speed>
</trkpt>
<trkpt lat="20.955873" lon="107.050018">
<ele>10.914680</ele>
<time>2011-04-30T12:22:43Z</time>
<desc>lat.=20.955873, lon.=107.050018, Alt.=10.914680m. Speed=0.720000m/h.</desc>
<speed>0.200000</speed>
</trkpt>
<trkpt lat="20.955870" lon="107.050018">
<ele>10.832649</ele>
<time>2011-04-30T12:22:48Z</time>
<desc>lat.=20.955870, lon.=107.050018, Alt.=10.832649m. Speed=0.144000m/h.</desc>
<speed>0.040000</speed>
</trkpt>
<trkpt lat="20.955853" lon="107.050003">
<ele>10.880257</ele>
<time>2011-04-30T12:22:53Z</time>
<desc>lat.=20.955853, lon.=107.050003, Alt.=10.880257m. Speed=6.660000m/h.</desc>
<speed>1.850000</speed>
</trkpt>
<trkpt lat="20.955837" lon="107.049995">
<ele>10.657356</ele>
<time>2011-04-30T12:22:58Z</time>
<desc>lat.=20.955837, lon.=107.049995, Alt.=10.657356m. Speed=0.216000m/h.</desc>
<speed>0.060000</speed>
</trkpt>
<trkpt lat="20.955839" lon="107.049995">
<ele>10.313606</ele>
<time>2011-04-30T12:23:03Z</time>
<desc>lat.=20.955839, lon.=107.049995, Alt.=10.313606m. Speed=0.792000m/h.</desc>
<speed>0.220000</speed>
</trkpt>
<trkpt lat="20.955847" lon="107.050003">
<ele>9.440804</ele>
<time>2011-04-30T12:23:08Z</time>
<desc>lat.=20.955847, lon.=107.050003, Alt.=9.440804m. Speed=0.576000m/h.</desc>
<speed>0.160000</speed>
</trkpt>
<trkpt lat="20.955845" lon="107.050003">
<ele>9.411507</ele>
<time>2011-04-30T12:23:13Z</time>
<desc>lat.=20.955845, lon.=107.050003, Alt.=9.411507m. Speed=1.512000m/h.</desc>
<speed>0.420000</speed>
</trkpt>
<trkpt lat="20.955864" lon="107.049995">
<ele>9.733772</ele>
<time>2011-04-30T12:23:18Z</time>
<desc>lat.=20.955864, lon.=107.049995, Alt.=9.733772m. Speed=1.836000m/h.</desc>
<speed>0.510000</speed>
</trkpt>
<trkpt lat="20.955860" lon="107.049980">
<ele>10.469856</ele>
<time>2011-04-30T12:23:23Z</time>
<desc>lat.=20.955860, lon.=107.049980, Alt.=10.469856m. Speed=2.556000m/h.</desc>
<speed>0.710000</speed>
</trkpt>
<trkpt lat="20.955866" lon="107.050003">
<ele>11.034065</ele>
<time>2011-04-30T12:23:28Z</time>
<desc>lat.=20.955866, lon.=107.050003, Alt.=11.034065m. Speed=3.888000m/h.</desc>
<speed>1.080000</speed>
</trkpt>
<trkpt lat="20.955858" lon="107.050026">
<ele>12.191292</ele>
<time>2011-04-30T12:23:33Z</time>
<desc>lat.=20.955858, lon.=107.050026, Alt.=12.191292m. Speed=0.576000m/h.</desc>
<speed>0.160000</speed>
</trkpt>
<trkpt lat="20.955854" lon="107.050026">
<ele>12.655159</ele>
<time>2011-04-30T12:23:38Z</time>
<desc>lat.=20.955854, lon.=107.050026, Alt.=12.655159m. Speed=1.692000m/h.</desc>
<speed>0.470000</speed>
</trkpt>
<trkpt lat="20.955851" lon="107.049973">
<ele>13.278694</ele>
<time>2011-04-30T12:23:43Z</time>
<desc>lat.=20.955851, lon.=107.049973, Alt.=13.278694m. Speed=2.592000m/h.</desc>
<speed>0.720000</speed>
</trkpt>
<trkpt lat="20.955843" lon="107.049942">
<ele>14.212532</ele>
<time>2011-04-30T12:23:48Z</time>
<desc>lat.=20.955843, lon.=107.049942, Alt.=14.212532m. Speed=3.312000m/h.</desc>
<speed>0.920000</speed>
</trkpt>
<trkpt lat="20.955818" lon="107.049942">
<ele>14.488411</ele>
<time>2011-04-30T12:23:53Z</time>
<desc>lat.=20.955818, lon.=107.049942, Alt.=14.488411m. Speed=1.800000m/h.</desc>
<speed>0.500000</speed>
</trkpt>
<trkpt lat="20.955809" lon="107.049950">
<ele>13.571419</ele>
<time>2011-04-30T12:23:58Z</time>
<desc>lat.=20.955809, lon.=107.049950, Alt.=13.571419m. Speed=0.180000m/h.</desc>
<speed>0.050000</speed>
</trkpt>
<trkpt lat="20.955799" lon="107.049950">
<ele>12.832405</ele>
<time>2011-04-30T12:24:03Z</time>
<desc>lat.=20.955799, lon.=107.049950, Alt.=12.832405m. Speed=0.072000m/h.</desc>
<speed>0.020000</speed>
</trkpt>
<trkpt lat="20.955795" lon="107.049950">
<ele>12.787727</ele>
<time>2011-04-30T12:24:08Z</time>
<desc>lat.=20.955795, lon.=107.049950, Alt.=12.787727m. Speed=0.216000m/h.</desc>
<speed>0.060000</speed>
</trkpt>
<trkpt lat="20.955793" lon="107.049950">
<ele>12.775520</ele>
<time>2011-04-30T12:24:13Z</time>
<desc>lat.=20.955793, lon.=107.049950, Alt.=12.775520m. Speed=0.144000m/h.</desc>
<speed>0.040000</speed>
</trkpt>
<trkpt lat="20.955793" lon="107.049950">
<ele>12.770393</ele>
<time>2011-04-30T12:24:18Z</time>
<desc>lat.=20.955793, lon.=107.049950, Alt.=12.770393m. Speed=0.072000m/h.</desc>
<speed>0.020000</speed>
</trkpt>
<trkpt lat="20.955793" lon="107.049950">
<ele>12.779182</ele>
<time>2011-04-30T12:24:23Z</time>
<desc>lat.=20.955793, lon.=107.049950, Alt.=12.779182m. Speed=0.036000m/h.</desc>
<speed>0.010000</speed>
</trkpt>
<trkpt lat="20.955793" lon="107.049950">
<ele>12.765266</ele>
<time>2011-04-30T12:24:28Z</time>
<desc>lat.=20.955793, lon.=107.049950, Alt.=12.765266m. Speed=0.036000m/h.</desc>
<speed>0.010000</speed>
</trkpt>
<trkpt lat="20.955793" lon="107.049950">
<ele>12.770882</ele>
<time>2011-04-30T12:24:33Z</time>
<desc>lat.=20.955793, lon.=107.049950, Alt.=12.770882m. Speed=0.000000m/h.</desc>
<speed>0.000000</speed>
</trkpt>
<trkpt lat="20.955793" lon="107.049950">
<ele>12.781380</ele>
<time>2011-04-30T12:24:38Z</time>
<desc>lat.=20.955793, lon.=107.049950, Alt.=12.781380m. Speed=0.216000m/h.</desc>
<speed>0.060000</speed>
</trkpt>
<trkpt lat="20.955793" lon="107.049950">
<ele>12.790901</ele>
<time>2011-04-30T12:24:43Z</time>
<desc>lat.=20.955793, lon.=107.049950, Alt.=12.790901m. Speed=0.288000m/h.</desc>
<speed>0.080000</speed>
</trkpt>
<trkpt lat="20.955793" lon="107.049950">
<ele>12.798714</ele>
<time>2011-04-30T12:24:48Z</time>
<desc>lat.=20.955793, lon.=107.049950, Alt.=12.798714m. Speed=0.036000m/h.</desc>
<speed>0.010000</speed>
</trkpt>
<trkpt lat="20.955793" lon="107.049950">
<ele>12.809212</ele>
<time>2011-04-30T12:24:53Z</time>
<desc>lat.=20.955793, lon.=107.049950, Alt.=12.809212m. Speed=0.000000m/h.</desc>
<speed>0.000000</speed>
</trkpt>
<trkpt lat="20.955791" lon="107.049950">
<ele>12.818001</ele>
<time>2011-04-30T12:24:58Z</time>
<desc>lat.=20.955791, lon.=107.049950, Alt.=12.818001m. Speed=0.000000m/h.</desc>
<speed>0.000000</speed>
</trkpt>
<trkpt lat="20.955791" lon="107.049950">
<ele>12.819954</ele>
<time>2011-04-30T12:25:03Z</time>
<desc>lat.=20.955791, lon.=107.049950, Alt.=12.819954m. Speed=0.036000m/h.</desc>
<speed>0.010000</speed>
</trkpt>
<trkpt lat="20.955791" lon="107.049950">
<ele>12.827766</ele>
<time>2011-04-30T12:25:08Z</time>
<desc>lat.=20.955791, lon.=107.049950, Alt.=12.827766m. Speed=0.036000m/h.</desc>
<speed>0.010000</speed>
</trkpt>
<trkpt lat="20.955791" lon="107.049950">
<ele>12.844856</ele>
<time>2011-04-30T12:25:13Z</time>
<desc>lat.=20.955791, lon.=107.049950, Alt.=12.844856m. Speed=0.072000m/h.</desc>
<speed>0.020000</speed>
</trkpt>
<trkpt lat="20.955791" lon="107.049950">
<ele>12.837776</ele>
<time>2011-04-30T12:25:18Z</time>
<desc>lat.=20.955791, lon.=107.049950, Alt.=12.837776m. Speed=0.036000m/h.</desc>
<speed>0.010000</speed>
</trkpt>
<trkpt lat="20.955791" lon="107.049950">
<ele>12.827034</ele>
<time>2011-04-30T12:25:23Z</time>
<desc>lat.=20.955791, lon.=107.049950, Alt.=12.827034m. Speed=0.036000m/h.</desc>
<speed>0.010000</speed>
</trkpt>
<trkpt lat="20.955791" lon="107.049950">
<ele>12.832893</ele>
<time>2011-04-30T12:25:28Z</time>
<desc>lat.=20.955791, lon.=107.049950, Alt.=12.832893m. Speed=0.180000m/h.</desc>
<speed>0.050000</speed>
</trkpt>
<trkpt lat="20.955795" lon="107.049950">
<ele>12.897346</ele>
<time>2011-04-30T12:25:33Z</time>
<desc>lat.=20.955795, lon.=107.049950, Alt.=12.897346m. Speed=0.468000m/h.</desc>
<speed>0.130000</speed>
</trkpt>
<trkpt lat="20.955797" lon="107.049942">
<ele>12.990120</ele>
<time>2011-04-30T12:25:38Z</time>
<desc>lat.=20.955797, lon.=107.049942, Alt.=12.990120m. Speed=0.072000m/h.</desc>
<speed>0.020000</speed>
</trkpt>
<trkpt lat="20.955799" lon="107.049942">
<ele>12.972786</ele>
<time>2011-04-30T12:25:43Z</time>
<desc>lat.=20.955799, lon.=107.049942, Alt.=12.972786m. Speed=0.000000m/h.</desc>
<speed>0.000000</speed>
</trkpt>
<trkpt lat="20.955801" lon="107.049942">
<ele>12.986702</ele>
<time>2011-04-30T12:25:48Z</time>
<desc>lat.=20.955801, lon.=107.049942, Alt.=12.986702m. Speed=1.728000m/h.</desc>
<speed>0.480000</speed>
</trkpt>
<trkpt lat="20.955811" lon="107.049942">
<ele>14.197395</ele>
<time>2011-04-30T12:25:53Z</time>
<desc>lat.=20.955811, lon.=107.049942, Alt.=14.197395m. Speed=0.828000m/h.</desc>
<speed>0.230000</speed>
</trkpt>
<trkpt lat="20.955824" lon="107.049965">
<ele>15.124886</ele>
<time>2011-04-30T12:25:58Z</time>
<desc>lat.=20.955824, lon.=107.049965, Alt.=15.124886m. Speed=1.224000m/h.</desc>
<speed>0.340000</speed>
</trkpt>
<trkpt lat="20.955830" lon="107.049980">
<ele>14.595833</ele>
<time>2011-04-30T12:26:03Z</time>
<desc>lat.=20.955830, lon.=107.049980, Alt.=14.595833m. Speed=1.440000m/h.</desc>
<speed>0.400000</speed>
</trkpt>
<trkpt lat="20.955832" lon="107.049980">
<ele>13.537483</ele>
<time>2011-04-30T12:26:08Z</time>
<desc>lat.=20.955832, lon.=107.049980, Alt.=13.537483m. Speed=0.576000m/h.</desc>
<speed>0.160000</speed>
</trkpt>
<trkpt lat="20.955830" lon="107.049980">
<ele>13.253792</ele>
<time>2011-04-30T12:26:13Z</time>
<desc>lat.=20.955830, lon.=107.049980, Alt.=13.253792m. Speed=0.108000m/h.</desc>
<speed>0.030000</speed>
</trkpt>
<trkpt lat="20.955830" lon="107.049980">
<ele>13.130745</ele>
<time>2011-04-30T12:26:18Z</time>
<desc>lat.=20.955830, lon.=107.049980, Alt.=13.130745m. Speed=0.108000m/h.</desc>
<speed>0.030000</speed>
</trkpt>
<trkpt lat="20.955830" lon="107.049980">
<ele>13.074104</ele>
<time>2011-04-30T12:26:23Z</time>
<desc>lat.=20.955830, lon.=107.049980, Alt.=13.074104m. Speed=0.036000m/h.</desc>
<speed>0.010000</speed>
</trkpt>
<trkpt lat="20.955830" lon="107.049980">
<ele>13.080696</ele>
<time>2011-04-30T12:26:28Z</time>
<desc>lat.=20.955830, lon.=107.049980, Alt.=13.080696m. Speed=0.072000m/h.</desc>
<speed>0.020000</speed>
</trkpt>
<trkpt lat="20.955832" lon="107.049980">
<ele>13.077522</ele>
<time>2011-04-30T12:26:33Z</time>
<desc>lat.=20.955832, lon.=107.049980, Alt.=13.077522m. Speed=0.072000m/h.</desc>
<speed>0.020000</speed>
</trkpt>
<trkpt lat="20.955832" lon="107.049980">
<ele>13.075081</ele>
<time>2011-04-30T12:26:38Z</time>
<desc>lat.=20.955832, lon.=107.049980, Alt.=13.075081m. Speed=0.000000m/h.</desc>
<speed>0.000000</speed>
</trkpt>
<trkpt lat="20.955832" lon="107.049980">
<ele>13.075325</ele>
<time>2011-04-30T12:26:43Z</time>
<desc>lat.=20.955832, lon.=107.049980, Alt.=13.075325m. Speed=0.000000m/h.</desc>
<speed>0.000000</speed>
</trkpt>
<trkpt lat="20.955832" lon="107.049980">
<ele>13.075081</ele>
<time>2011-04-30T12:26:48Z</time>
<desc>lat.=20.955832, lon.=107.049980, Alt.=13.075081m. Speed=0.036000m/h.</desc>
<speed>0.010000</speed>
</trkpt>
<trkpt lat="20.955830" lon="107.049980">
<ele>13.075813</ele>
<time>2011-04-30T12:26:53Z</time>
<desc>lat.=20.955830, lon.=107.049980, Alt.=13.075813m. Speed=0.000000m/h.</desc>
<speed>0.000000</speed>
</trkpt>
<trkpt lat="20.955830" lon="107.049980">
<ele>13.065315</ele>
<time>2011-04-30T12:26:58Z</time>
<desc>lat.=20.955830, lon.=107.049980, Alt.=13.065315m. Speed=0.036000m/h.</desc>
<speed>0.010000</speed>
</trkpt>
<trkpt lat="20.955830" lon="107.049980">
<ele>13.051399</ele>
<time>2011-04-30T12:27:03Z</time>
<desc>lat.=20.955830, lon.=107.049980, Alt.=13.051399m. Speed=0.144000m/h.</desc>
<speed>0.040000</speed>
</trkpt>
<trkpt lat="20.955830" lon="107.049980">
<ele>13.028206</ele>
<time>2011-04-30T12:27:08Z</time>
<desc>lat.=20.955830, lon.=107.049980, Alt.=13.028206m. Speed=0.036000m/h.</desc>
<speed>0.010000</speed>
</trkpt>
<trkpt lat="20.955830" lon="107.049980">
<ele>13.014290</ele>
<time>2011-04-30T12:27:13Z</time>
<desc>lat.=20.955830, lon.=107.049980, Alt.=13.014290m. Speed=0.000000m/h.</desc>
<speed>0.000000</speed>
</trkpt>
<trkpt lat="20.955830" lon="107.049988">
<ele>13.001595</ele>
<time>2011-04-30T12:27:18Z</time>
<desc>lat.=20.955830, lon.=107.049988, Alt.=13.001595m. Speed=0.000000m/h.</desc>
<speed>0.000000</speed>
</trkpt>
<trkpt lat="20.955830" lon="107.049988">
<ele>12.977913</ele>
<time>2011-04-30T12:27:23Z</time>
<desc>lat.=20.955830, lon.=107.049988, Alt.=12.977913m. Speed=0.036000m/h.</desc>
<speed>0.010000</speed>
</trkpt>
<trkpt lat="20.955828" lon="107.049988">
<ele>12.921272</ele>
<time>2011-04-30T12:27:28Z</time>
<desc>lat.=20.955828, lon.=107.049988, Alt.=12.921272m. Speed=0.108000m/h.</desc>
<speed>0.030000</speed>
</trkpt>
<trkpt lat="20.955828" lon="107.049988">
<ele>12.840462</ele>
<time>2011-04-30T12:27:33Z</time>
<desc>lat.=20.955828, lon.=107.049988, Alt.=12.840462m. Speed=0.144000m/h.</desc>
<speed>0.040000</speed>
</trkpt>
<trkpt lat="20.955830" lon="107.049988">
<ele>12.781380</ele>
<time>2011-04-30T12:27:38Z</time>
<desc>lat.=20.955830, lon.=107.049988, Alt.=12.781380m. Speed=0.072000m/h.</desc>
<speed>0.020000</speed>
</trkpt>
<trkpt lat="20.955830" lon="107.049988">
<ele>12.699837</ele>
<time>2011-04-30T12:27:43Z</time>
<desc>lat.=20.955830, lon.=107.049988, Alt.=12.699837m. Speed=0.036000m/h.</desc>
<speed>0.010000</speed>
</trkpt>
<trkpt lat="20.955830" lon="107.049988">
<ele>12.661995</ele>
<time>2011-04-30T12:27:48Z</time>
<desc>lat.=20.955830, lon.=107.049988, Alt.=12.661995m. Speed=0.000000m/h.</desc>
<speed>0.000000</speed>
</trkpt>
<trkpt lat="20.955830" lon="107.049988">
<ele>12.631233</ele>
<time>2011-04-30T12:27:53Z</time>
<desc>lat.=20.955830, lon.=107.049988, Alt.=12.631233m. Speed=0.000000m/h.</desc>
<speed>0.000000</speed>
</trkpt>
<trkpt lat="20.955830" lon="107.049988">
<ele>12.605354</ele>
<time>2011-04-30T12:27:58Z</time>
<desc>lat.=20.955830, lon.=107.049988, Alt.=12.605354m. Speed=0.036000m/h.</desc>
<speed>0.010000</speed>
</trkpt>
<trkpt lat="20.955830" lon="107.049988">
<ele>12.572639</ele>
<time>2011-04-30T12:28:03Z</time>
<desc>lat.=20.955830, lon.=107.049988, Alt.=12.572639m. Speed=0.000000m/h.</desc>
<speed>0.000000</speed>
</trkpt>
<trkpt lat="20.955830" lon="107.049988">
<ele>12.557991</ele>
<time>2011-04-30T12:28:08Z</time>
<desc>lat.=20.955830, lon.=107.049988, Alt.=12.557991m. Speed=0.000000m/h.</desc>
<speed>0.000000</speed>
</trkpt>
<trkpt lat="20.955830" lon="107.049988">
<ele>12.554817</ele>
<time>2011-04-30T12:28:13Z</time>
<desc>lat.=20.955830, lon.=107.049988, Alt.=12.554817m. Speed=0.000000m/h.</desc>
<speed>0.000000</speed>
</trkpt>
<trkpt lat="20.955832" lon="107.049988">
<ele>12.560432</ele>
<time>2011-04-30T12:28:18Z</time>
<desc>lat.=20.955832, lon.=107.049988, Alt.=12.560432m. Speed=0.036000m/h.</desc>
<speed>0.010000</speed>
</trkpt>
<trkpt lat="20.955832" lon="107.049988">
<ele>12.565315</ele>
<time>2011-04-30T12:28:23Z</time>
<desc>lat.=20.955832, lon.=107.049988, Alt.=12.565315m. Speed=0.216000m/h.</desc>
<speed>0.060000</speed>
</trkpt>
<trkpt lat="20.955833" lon="107.049988">
<ele>12.556770</ele>
<time>2011-04-30T12:28:28Z</time>
<desc>lat.=20.955833, lon.=107.049988, Alt.=12.556770m. Speed=0.396000m/h.</desc>
<speed>0.110000</speed>
</trkpt>
<trkpt lat="20.955832" lon="107.049980">
<ele>12.551399</ele>
<time>2011-04-30T12:28:33Z</time>
<desc>lat.=20.955832, lon.=107.049980, Alt.=12.551399m. Speed=0.144000m/h.</desc>
<speed>0.040000</speed>
</trkpt>
<trkpt lat="20.955832" lon="107.049980">
<ele>12.540413</ele>
<time>2011-04-30T12:28:38Z</time>
<desc>lat.=20.955832, lon.=107.049980, Alt.=12.540413m. Speed=0.072000m/h.</desc>
<speed>0.020000</speed>
</trkpt>
<trkpt lat="20.955832" lon="107.049980">
<ele>12.539192</ele>
<time>2011-04-30T12:28:43Z</time>
<desc>lat.=20.955832, lon.=107.049980, Alt.=12.539192m. Speed=0.000000m/h.</desc>
<speed>0.000000</speed>
</trkpt>
<trkpt lat="20.955832" lon="107.049980">
<ele>12.526253</ele>
<time>2011-04-30T12:28:48Z</time>
<desc>lat.=20.955832, lon.=107.049980, Alt.=12.526253m. Speed=0.000000m/h.</desc>
<speed>0.000000</speed>
</trkpt>
<trkpt lat="20.955832" lon="107.049980">
<ele>12.509407</ele>
<time>2011-04-30T12:28:53Z</time>
<desc>lat.=20.955832, lon.=107.049980, Alt.=12.509407m. Speed=0.000000m/h.</desc>
<speed>0.000000</speed>
</trkpt>
<trkpt lat="20.955832" lon="107.049980">
<ele>12.489388</ele>
<time>2011-04-30T12:28:58Z</time>
<desc>lat.=20.955832, lon.=107.049980, Alt.=12.489388m. Speed=0.072000m/h.</desc>
<speed>0.020000</speed>
</trkpt>
<trkpt lat="20.955832" lon="107.049980">
<ele>12.442757</ele>
<time>2011-04-30T12:29:03Z</time>
<desc>lat.=20.955832, lon.=107.049980, Alt.=12.442757m. Speed=0.000000m/h.</desc>
<speed>0.000000</speed>
</trkpt>
<trkpt lat="20.955832" lon="107.049980">
<ele>12.394661</ele>
<time>2011-04-30T12:29:08Z</time>
<desc>lat.=20.955832, lon.=107.049980, Alt.=12.394661m. Speed=0.072000m/h.</desc>
<speed>0.020000</speed>
</trkpt>
<trkpt lat="20.955832" lon="107.049980">
<ele>12.335091</ele>
<time>2011-04-30T12:29:13Z</time>
<desc>lat.=20.955832, lon.=107.049980, Alt.=12.335091m. Speed=0.000000m/h.</desc>
<speed>0.000000</speed>
</trkpt>
<trkpt lat="20.955832" lon="107.049980">
<ele>12.242317</ele>
<time>2011-04-30T12:29:18Z</time>
<desc>lat.=20.955832, lon.=107.049980, Alt.=12.242317m. Speed=0.036000m/h.</desc>
<speed>0.010000</speed>
</trkpt>
<trkpt lat="20.955832" lon="107.049980">
<ele>12.225227</ele>
<time>2011-04-30T12:29:23Z</time>
<desc>lat.=20.955832, lon.=107.049980, Alt.=12.225227m. Speed=0.000000m/h.</desc>
<speed>0.000000</speed>
</trkpt>
<trkpt lat="20.955832" lon="107.049980">
<ele>12.171028</ele>
<time>2011-04-30T12:29:28Z</time>
<desc>lat.=20.955832, lon.=107.049980, Alt.=12.171028m. Speed=0.000000m/h.</desc>
<speed>0.000000</speed>
</trkpt>
<trkpt lat="20.955833" lon="107.049980">
<ele>12.104378</ele>
<time>2011-04-30T12:29:33Z</time>
<desc>lat.=20.955833, lon.=107.049980, Alt.=12.104378m. Speed=0.036000m/h.</desc>
<speed>0.010000</speed>
</trkpt>
<trkpt lat="20.955833" lon="107.049980">
<ele>12.039925</ele>
<time>2011-04-30T12:29:38Z</time>
<desc>lat.=20.955833, lon.=107.049980, Alt.=12.039925m. Speed=0.072000m/h.</desc>
<speed>0.020000</speed>
</trkpt>
<trkpt lat="20.955833" lon="107.049980">
<ele>11.987923</ele>
<time>2011-04-30T12:29:43Z</time>
<desc>lat.=20.955833, lon.=107.049980, Alt.=11.987923m. Speed=0.072000m/h.</desc>
<speed>0.020000</speed>
</trkpt>
<trkpt lat="20.955833" lon="107.049980">
<ele>11.973274</ele>
<time>2011-04-30T12:29:48Z</time>
<desc>lat.=20.955833, lon.=107.049980, Alt.=11.973274m. Speed=0.000000m/h.</desc>
<speed>0.000000</speed>
</trkpt>
<trkpt lat="20.955833" lon="107.049980">
<ele>11.944954</ele>
<time>2011-04-30T12:29:53Z</time>
<desc>lat.=20.955833, lon.=107.049980, Alt.=11.944954m. Speed=0.000000m/h.</desc>
<speed>0.000000</speed>
</trkpt>
<trkpt lat="20.955833" lon="107.049980">
<ele>11.904427</ele>
<time>2011-04-30T12:29:58Z</time>
<desc>lat.=20.955833, lon.=107.049980, Alt.=11.904427m. Speed=0.036000m/h.</desc>
<speed>0.010000</speed>
</trkpt>
<trkpt lat="20.955833" lon="107.049980">
<ele>11.877083</ele>
<time>2011-04-30T12:30:03Z</time>
<desc>lat.=20.955833, lon.=107.049980, Alt.=11.877083m. Speed=0.036000m/h.</desc>
<speed>0.010000</speed>
</trkpt>
<trkpt lat="20.955833" lon="107.049980">
<ele>11.847298</ele>
<time>2011-04-30T12:30:08Z</time>
<desc>lat.=20.955833, lon.=107.049980, Alt.=11.847298m. Speed=0.000000m/h.</desc>
<speed>0.000000</speed>
</trkpt>
<trkpt lat="20.955833" lon="107.049980">
<ele>11.797249</ele>
<time>2011-04-30T12:30:13Z</time>
<desc>lat.=20.955833, lon.=107.049980, Alt.=11.797249m. Speed=0.036000m/h.</desc>
<speed>0.010000</speed>
</trkpt>
<trkpt lat="20.955833" lon="107.049980">
<ele>11.749153</ele>
<time>2011-04-30T12:30:18Z</time>
<desc>lat.=20.955833, lon.=107.049980, Alt.=11.749153m. Speed=0.144000m/h.</desc>
<speed>0.040000</speed>
</trkpt>
<trkpt lat="20.955833" lon="107.049980">
<ele>11.714485</ele>
<time>2011-04-30T12:30:23Z</time>
<desc>lat.=20.955833, lon.=107.049980, Alt.=11.714485m. Speed=0.072000m/h.</desc>
<speed>0.020000</speed>
</trkpt>
<trkpt lat="20.955833" lon="107.049980">
<ele>11.688850</ele>
<time>2011-04-30T12:30:28Z</time>
<desc>lat.=20.955833, lon.=107.049980, Alt.=11.688850m. Speed=0.036000m/h.</desc>
<speed>0.010000</speed>
</trkpt>
<trkpt lat="20.955833" lon="107.049980">
<ele>11.657112</ele>
<time>2011-04-30T12:30:33Z</time>
<desc>lat.=20.955833, lon.=107.049980, Alt.=11.657112m. Speed=0.000000m/h.</desc>
<speed>0.000000</speed>
</trkpt>
<trkpt lat="20.955833" lon="107.049973">
<ele>11.627571</ele>
<time>2011-04-30T12:30:38Z</time>
<desc>lat.=20.955833, lon.=107.049973, Alt.=11.627571m. Speed=0.144000m/h.</desc>
<speed>0.040000</speed>
</trkpt>
<trkpt lat="20.955833" lon="107.049973">
<ele>11.554085</ele>
<time>2011-04-30T12:30:43Z</time>
<desc>lat.=20.955833, lon.=107.049973, Alt.=11.554085m. Speed=0.072000m/h.</desc>
<speed>0.020000</speed>
</trkpt>
<trkpt lat="20.955833" lon="107.049973">
<ele>11.513802</ele>
<time>2011-04-30T12:30:48Z</time>
<desc>lat.=20.955833, lon.=107.049973, Alt.=11.513802m. Speed=0.000000m/h.</desc>
<speed>0.000000</speed>
</trkpt>
<trkpt lat="20.955833" lon="107.049973">
<ele>11.478157</ele>
<time>2011-04-30T12:30:53Z</time>
<desc>lat.=20.955833, lon.=107.049973, Alt.=11.478157m. Speed=0.036000m/h.</desc>
<speed>0.010000</speed>
</trkpt>
<trkpt lat="20.955833" lon="107.049973">
<ele>11.433968</ele>
<time>2011-04-30T12:30:58Z</time>
<desc>lat.=20.955833, lon.=107.049973, Alt.=11.433968m. Speed=0.000000m/h.</desc>
<speed>0.000000</speed>
</trkpt>
<trkpt lat="20.955833" lon="107.049973">
<ele>11.342415</ele>
<time>2011-04-30T12:31:03Z</time>
<desc>lat.=20.955833, lon.=107.049973, Alt.=11.342415m. Speed=0.036000m/h.</desc>
<speed>0.010000</speed>
</trkpt>
<trkpt lat="20.955833" lon="107.049973">
<ele>11.235237</ele>
<time>2011-04-30T12:31:08Z</time>
<desc>lat.=20.955833, lon.=107.049973, Alt.=11.235237m. Speed=0.036000m/h.</desc>
<speed>0.010000</speed>
</trkpt>
<trkpt lat="20.955833" lon="107.049973">
<ele>11.127083</ele>
<time>2011-04-30T12:31:13Z</time>
<desc>lat.=20.955833, lon.=107.049973, Alt.=11.127083m. Speed=0.036000m/h.</desc>
<speed>0.010000</speed>
</trkpt>
<trkpt lat="20.955833" lon="107.049973">
<ele>11.077522</ele>
<time>2011-04-30T12:31:18Z</time>
<desc>lat.=20.955833, lon.=107.049973, Alt.=11.077522m. Speed=0.000000m/h.</desc>
<speed>0.000000</speed>
</trkpt>
<trkpt lat="20.955833" lon="107.049973">
<ele>11.033089</ele>
<time>2011-04-30T12:31:23Z</time>
<desc>lat.=20.955833, lon.=107.049973, Alt.=11.033089m. Speed=0.000000m/h.</desc>
<speed>0.000000</speed>
</trkpt>
<trkpt lat="20.955833" lon="107.049973">
<ele>11.007698</ele>
<time>2011-04-30T12:31:28Z</time>
<desc>lat.=20.955833, lon.=107.049973, Alt.=11.007698m. Speed=0.036000m/h.</desc>
<speed>0.010000</speed>
</trkpt>
<trkpt lat="20.955833" lon="107.049973">
<ele>10.956429</ele>
<time>2011-04-30T12:31:33Z</time>
<desc>lat.=20.955833, lon.=107.049973, Alt.=10.956429m. Speed=0.036000m/h.</desc>
<speed>0.010000</speed>
</trkpt>
<trkpt lat="20.955833" lon="107.049973">
<ele>10.866096</ele>
<time>2011-04-30T12:31:38Z</time>
<desc>lat.=20.955833, lon.=107.049973, Alt.=10.866096m. Speed=0.036000m/h.</desc>
<speed>0.010000</speed>
</trkpt>
<trkpt lat="20.955833" lon="107.049973">
<ele>10.792366</ele>
<time>2011-04-30T12:31:43Z</time>
<desc>lat.=20.955833, lon.=107.049973, Alt.=10.792366m. Speed=0.108000m/h.</desc>
<speed>0.030000</speed>
</trkpt>
<trkpt lat="20.955833" lon="107.049973">
<ele>10.714485</ele>
<time>2011-04-30T12:31:48Z</time>
<desc>lat.=20.955833, lon.=107.049973, Alt.=10.714485m. Speed=0.036000m/h.</desc>
<speed>0.010000</speed>
</trkpt>
<trkpt lat="20.955833" lon="107.049973">
<ele>10.600227</ele>
<time>2011-04-30T12:31:53Z</time>
<desc>lat.=20.955833, lon.=107.049973, Alt.=10.600227m. Speed=0.036000m/h.</desc>
<speed>0.010000</speed>
</trkpt>
<trkpt lat="20.955833" lon="107.049973">
<ele>10.503792</ele>
<time>2011-04-30T12:31:58Z</time>
<desc>lat.=20.955833, lon.=107.049973, Alt.=10.503792m. Speed=0.036000m/h.</desc>
<speed>0.010000</speed>
</trkpt>
<trkpt lat="20.955833" lon="107.049973">
<ele>10.434212</ele>
<time>2011-04-30T12:32:03Z</time>
<desc>lat.=20.955833, lon.=107.049973, Alt.=10.434212m. Speed=0.072000m/h.</desc>
<speed>0.020000</speed>
</trkpt>
<trkpt lat="20.955833" lon="107.049973">
<ele>10.391731</ele>
<time>2011-04-30T12:32:08Z</time>
<desc>lat.=20.955833, lon.=107.049973, Alt.=10.391731m. Speed=0.036000m/h.</desc>
<speed>0.010000</speed>
</trkpt>
<trkpt lat="20.955833" lon="107.049973">
<ele>10.307503</ele>
<time>2011-04-30T12:32:13Z</time>
<desc>lat.=20.955833, lon.=107.049973, Alt.=10.307503m. Speed=0.000000m/h.</desc>
<speed>0.000000</speed>
</trkpt>
<trkpt lat="20.955833" lon="107.049973">
<ele>10.255257</ele>
<time>2011-04-30T12:32:18Z</time>
<desc>lat.=20.955833, lon.=107.049973, Alt.=10.255257m. Speed=0.000000m/h.</desc>
<speed>0.000000</speed>
</trkpt>
<trkpt lat="20.955833" lon="107.049973">
<ele>10.182747</ele>
<time>2011-04-30T12:32:23Z</time>
<desc>lat.=20.955833, lon.=107.049973, Alt.=10.182747m. Speed=0.000000m/h.</desc>
<speed>0.000000</speed>
</trkpt>
<trkpt lat="20.955833" lon="107.049973">
<ele>10.130501</ele>
<time>2011-04-30T12:32:28Z</time>
<desc>lat.=20.955833, lon.=107.049973, Alt.=10.130501m. Speed=0.000000m/h.</desc>
<speed>0.000000</speed>
</trkpt>
<trkpt lat="20.955833" lon="107.049973">
<ele>10.105843</ele>
<time>2011-04-30T12:32:33Z</time>
<desc>lat.=20.955833, lon.=107.049973, Alt.=10.105843m. Speed=0.036000m/h.</desc>
<speed>0.010000</speed>
</trkpt>
<trkpt lat="20.955833" lon="107.049973">
<ele>10.057747</ele>
<time>2011-04-30T12:32:38Z</time>
<desc>lat.=20.955833, lon.=107.049973, Alt.=10.057747m. Speed=0.036000m/h.</desc>
<speed>0.010000</speed>
</trkpt>
<trkpt lat="20.955833" lon="107.049973">
<ele>9.962288</ele>
<time>2011-04-30T12:32:43Z</time>
<desc>lat.=20.955833, lon.=107.049973, Alt.=9.962288m. Speed=0.000000m/h.</desc>
<speed>0.000000</speed>
</trkpt>
<trkpt lat="20.955833" lon="107.049973">
<ele>9.890755</ele>
<time>2011-04-30T12:32:48Z</time>
<desc>lat.=20.955833, lon.=107.049973, Alt.=9.890755m. Speed=0.000000m/h.</desc>
<speed>0.000000</speed>
</trkpt>
<trkpt lat="20.955833" lon="107.049973">
<ele>9.826546</ele>
<time>2011-04-30T12:32:53Z</time>
<desc>lat.=20.955833, lon.=107.049973, Alt.=9.826546m. Speed=0.000000m/h.</desc>
<speed>0.000000</speed>
</trkpt>
<trkpt lat="20.955833" lon="107.049973">
<ele>9.756477</ele>
<time>2011-04-30T12:32:58Z</time>
<desc>lat.=20.955833, lon.=107.049973, Alt.=9.756477m. Speed=0.000000m/h.</desc>
<speed>0.000000</speed>
</trkpt>
<trkpt lat="20.955833" lon="107.049973">
<ele>9.716682</ele>
<time>2011-04-30T12:33:03Z</time>
<desc>lat.=20.955833, lon.=107.049973, Alt.=9.716682m. Speed=0.000000m/h.</desc>
<speed>0.000000</speed>
</trkpt>
<trkpt lat="20.955833" lon="107.049973">
<ele>9.670296</ele>
<time>2011-04-30T12:33:08Z</time>
<desc>lat.=20.955833, lon.=107.049973, Alt.=9.670296m. Speed=0.036000m/h.</desc>
<speed>0.010000</speed>
</trkpt>
<trkpt lat="20.955833" lon="107.049973">
<ele>9.622200</ele>
<time>2011-04-30T12:33:13Z</time>
<desc>lat.=20.955833, lon.=107.049973, Alt.=9.622200m. Speed=0.036000m/h.</desc>
<speed>0.010000</speed>
</trkpt>
<trkpt lat="20.955833" lon="107.049973">
<ele>9.580208</ele>
<time>2011-04-30T12:33:18Z</time>
<desc>lat.=20.955833, lon.=107.049973, Alt.=9.580208m. Speed=0.036000m/h.</desc>
<speed>0.010000</speed>
</trkpt>
<trkpt lat="20.955833" lon="107.049973">
<ele>9.541389</ele>
<time>2011-04-30T12:33:23Z</time>
<desc>lat.=20.955833, lon.=107.049973, Alt.=9.541389m. Speed=0.072000m/h.</desc>
<speed>0.020000</speed>
</trkpt>
<trkpt lat="20.955833" lon="107.049973">
<ele>9.511604</ele>
<time>2011-04-30T12:33:28Z</time>
<desc>lat.=20.955833, lon.=107.049973, Alt.=9.511604m. Speed=0.036000m/h.</desc>
<speed>0.010000</speed>
</trkpt>
<trkpt lat="20.955833" lon="107.049973">
<ele>9.458626</ele>
<time>2011-04-30T12:33:33Z</time>
<desc>lat.=20.955833, lon.=107.049973, Alt.=9.458626m. Speed=0.000000m/h.</desc>
<speed>0.000000</speed>
</trkpt>
<trkpt lat="20.955833" lon="107.049973">
<ele>9.430061</ele>
<time>2011-04-30T12:33:38Z</time>
<desc>lat.=20.955833, lon.=107.049973, Alt.=9.430061m. Speed=0.036000m/h.</desc>
<speed>0.010000</speed>
</trkpt>
<trkpt lat="20.955833" lon="107.049973">
<ele>9.405891</ele>
<time>2011-04-30T12:33:43Z</time>
<desc>lat.=20.955833, lon.=107.049973, Alt.=9.405891m. Speed=0.000000m/h.</desc>
<speed>0.000000</speed>
</trkpt>
<trkpt lat="20.955833" lon="107.049973">
<ele>9.396126</ele>
<time>2011-04-30T12:33:48Z</time>
<desc>lat.=20.955833, lon.=107.049973, Alt.=9.396126m. Speed=0.036000m/h.</desc>
<speed>0.010000</speed>
</trkpt>
<trkpt lat="20.955832" lon="107.049973">
<ele>9.378792</ele>
<time>2011-04-30T12:33:53Z</time>
<desc>lat.=20.955832, lon.=107.049973, Alt.=9.378792m. Speed=0.000000m/h.</desc>
<speed>0.000000</speed>
</trkpt>
<trkpt lat="20.955832" lon="107.049973">
<ele>9.343147</ele>
<time>2011-04-30T12:33:58Z</time>
<desc>lat.=20.955832, lon.=107.049973, Alt.=9.343147m. Speed=0.000000m/h.</desc>
<speed>0.000000</speed>
</trkpt>
<trkpt lat="20.955832" lon="107.049973">
<ele>9.315315</ele>
<time>2011-04-30T12:34:03Z</time>
<desc>lat.=20.955832, lon.=107.049973, Alt.=9.315315m. Speed=0.036000m/h.</desc>
<speed>0.010000</speed>
</trkpt>
<trkpt lat="20.955832" lon="107.049973">
<ele>9.286507</ele>
<time>2011-04-30T12:34:08Z</time>
<desc>lat.=20.955832, lon.=107.049973, Alt.=9.286507m. Speed=0.036000m/h.</desc>
<speed>0.010000</speed>
</trkpt>
<trkpt lat="20.955832" lon="107.049973">
<ele>9.247444</ele>
<time>2011-04-30T12:34:13Z</time>
<desc>lat.=20.955832, lon.=107.049973, Alt.=9.247444m. Speed=0.000000m/h.</desc>
<speed>0.000000</speed>
</trkpt>
<trkpt lat="20.955832" lon="107.049973">
<ele>9.196663</ele>
<time>2011-04-30T12:34:18Z</time>
<desc>lat.=20.955832, lon.=107.049973, Alt.=9.196663m. Speed=0.000000m/h.</desc>
<speed>0.000000</speed>
</trkpt>
<trkpt lat="20.955832" lon="107.049973">
<ele>9.176399</ele>
<time>2011-04-30T12:34:23Z</time>
<desc>lat.=20.955832, lon.=107.049973, Alt.=9.176399m. Speed=0.000000m/h.</desc>
<speed>0.000000</speed>
</trkpt>
<trkpt lat="20.955832" lon="107.049973">
<ele>9.146126</ele>
<time>2011-04-30T12:34:28Z</time>
<desc>lat.=20.955832, lon.=107.049973, Alt.=9.146126m. Speed=0.000000m/h.</desc>
<speed>0.000000</speed>
</trkpt>
<trkpt lat="20.955832" lon="107.049973">
<ele>9.147835</ele>
<time>2011-04-30T12:34:33Z</time>
<desc>lat.=20.955832, lon.=107.049973, Alt.=9.147835m. Speed=0.000000m/h.</desc>
<speed>0.000000</speed>
</trkpt>
<trkpt lat="20.955832" lon="107.049973">
<ele>9.122932</ele>
<time>2011-04-30T12:34:38Z</time>
<desc>lat.=20.955832, lon.=107.049973, Alt.=9.122932m. Speed=0.000000m/h.</desc>
<speed>0.000000</speed>
</trkpt>
<trkpt lat="20.955832" lon="107.049973">
<ele>9.117805</ele>
<time>2011-04-30T12:34:43Z</time>
<desc>lat.=20.955832, lon.=107.049973, Alt.=9.117805m. Speed=0.036000m/h.</desc>
<speed>0.010000</speed>
</trkpt>
<trkpt lat="20.955832" lon="107.049973">
<ele>9.111702</ele>
<time>2011-04-30T12:34:48Z</time>
<desc>lat.=20.955832, lon.=107.049973, Alt.=9.111702m. Speed=0.036000m/h.</desc>
<speed>0.010000</speed>
</trkpt>
<trkpt lat="20.955832" lon="107.049973">
<ele>9.089241</ele>
<time>2011-04-30T12:34:53Z</time>
<desc>lat.=20.955832, lon.=107.049973, Alt.=9.089241m. Speed=0.036000m/h.</desc>
<speed>0.010000</speed>
</trkpt>
<trkpt lat="20.955832" lon="107.049973">
<ele>9.081184</ele>
<time>2011-04-30T12:34:58Z</time>
<desc>lat.=20.955832, lon.=107.049973, Alt.=9.081184m. Speed=0.000000m/h.</desc>
<speed>0.000000</speed>
</trkpt>
<trkpt lat="20.955832" lon="107.049973">
<ele>9.060432</ele>
<time>2011-04-30T12:35:03Z</time>
<desc>lat.=20.955832, lon.=107.049973, Alt.=9.060432m. Speed=0.000000m/h.</desc>
<speed>0.000000</speed>
</trkpt>
<trkpt lat="20.955832" lon="107.049973">
<ele>9.039680</ele>
<time>2011-04-30T12:35:08Z</time>
<desc>lat.=20.955832, lon.=107.049973, Alt.=9.039680m. Speed=0.000000m/h.</desc>
<speed>0.000000</speed>
</trkpt>
<trkpt lat="20.955832" lon="107.049973">
<ele>9.023567</ele>
<time>2011-04-30T12:35:13Z</time>
<desc>lat.=20.955832, lon.=107.049973, Alt.=9.023567m. Speed=0.036000m/h.</desc>
<speed>0.010000</speed>
</trkpt>
<trkpt lat="20.955832" lon="107.049973">
<ele>9.002815</ele>
<time>2011-04-30T12:35:18Z</time>
<desc>lat.=20.955832, lon.=107.049973, Alt.=9.002815m. Speed=0.000000m/h.</desc>
<speed>0.000000</speed>
</trkpt>
<trkpt lat="20.955832" lon="107.049973">
<ele>8.975227</ele>
<time>2011-04-30T12:35:23Z</time>
<desc>lat.=20.955832, lon.=107.049973, Alt.=8.975227m. Speed=0.036000m/h.</desc>
<speed>0.010000</speed>
</trkpt>
<trkpt lat="20.955832" lon="107.049973">
<ele>8.958626</ele>
<time>2011-04-30T12:35:28Z</time>
<desc>lat.=20.955832, lon.=107.049973, Alt.=8.958626m. Speed=0.036000m/h.</desc>
<speed>0.010000</speed>
</trkpt>
<trkpt lat="20.955832" lon="107.049973">
<ele>8.949593</ele>
<time>2011-04-30T12:35:33Z</time>
<desc>lat.=20.955832, lon.=107.049973, Alt.=8.949593m. Speed=0.000000m/h.</desc>
<speed>0.000000</speed>
</trkpt>
<trkpt lat="20.955832" lon="107.049973">
<ele>8.939583</ele>
<time>2011-04-30T12:35:38Z</time>
<desc>lat.=20.955832, lon.=107.049973, Alt.=8.939583m. Speed=0.036000m/h.</desc>
<speed>0.010000</speed>
</trkpt>
<trkpt lat="20.955832" lon="107.049973">
<ele>8.909065</ele>
<time>2011-04-30T12:35:43Z</time>
<desc>lat.=20.955832, lon.=107.049973, Alt.=8.909065m. Speed=0.000000m/h.</desc>
<speed>0.000000</speed>
</trkpt>
<trkpt lat="20.955832" lon="107.049973">
<ele>8.887093</ele>
<time>2011-04-30T12:35:48Z</time>
<desc>lat.=20.955832, lon.=107.049973, Alt.=8.887093m. Speed=0.000000m/h.</desc>
<speed>0.000000</speed>
</trkpt>
<trkpt lat="20.955832" lon="107.049973">
<ele>8.874641</ele>
<time>2011-04-30T12:35:53Z</time>
<desc>lat.=20.955832, lon.=107.049973, Alt.=8.874641m. Speed=0.036000m/h.</desc>
<speed>0.010000</speed>
</trkpt>
<trkpt lat="20.955832" lon="107.049973">
<ele>8.865120</ele>
<time>2011-04-30T12:35:58Z</time>
<desc>lat.=20.955832, lon.=107.049973, Alt.=8.865120m. Speed=0.072000m/h.</desc>
<speed>0.020000</speed>
</trkpt>
<trkpt lat="20.955830" lon="107.049973">
<ele>8.851448</ele>
<time>2011-04-30T12:36:03Z</time>
<desc>lat.=20.955830, lon.=107.049973, Alt.=8.851448m. Speed=0.000000m/h.</desc>
<speed>0.000000</speed>
</trkpt>
<trkpt lat="20.955830" lon="107.049973">
<ele>8.843391</ele>
<time>2011-04-30T12:36:08Z</time>
<desc>lat.=20.955830, lon.=107.049973, Alt.=8.843391m. Speed=0.036000m/h.</desc>
<speed>0.010000</speed>
</trkpt>
<trkpt lat="20.955830" lon="107.049973">
<ele>8.817513</ele>
<time>2011-04-30T12:36:13Z</time>
<desc>lat.=20.955830, lon.=107.049973, Alt.=8.817513m. Speed=0.036000m/h.</desc>
<speed>0.010000</speed>
</trkpt>
<trkpt lat="20.955830" lon="107.049973">
<ele>8.788216</ele>
<time>2011-04-30T12:36:18Z</time>
<desc>lat.=20.955830, lon.=107.049973, Alt.=8.788216m. Speed=0.036000m/h.</desc>
<speed>0.010000</speed>
</trkpt>
<trkpt lat="20.955830" lon="107.049973">
<ele>8.768684</ele>
<time>2011-04-30T12:36:23Z</time>
<desc>lat.=20.955830, lon.=107.049973, Alt.=8.768684m. Speed=0.000000m/h.</desc>
<speed>0.000000</speed>
</trkpt>
<trkpt lat="20.955830" lon="107.049973">
<ele>8.755013</ele>
<time>2011-04-30T12:36:28Z</time>
<desc>lat.=20.955830, lon.=107.049973, Alt.=8.755013m. Speed=0.036000m/h.</desc>
<speed>0.010000</speed>
</trkpt>
<trkpt lat="20.955830" lon="107.049973">
<ele>8.713264</ele>
<time>2011-04-30T12:36:33Z</time>
<desc>lat.=20.955830, lon.=107.049973, Alt.=8.713264m. Speed=0.108000m/h.</desc>
<speed>0.030000</speed>
</trkpt>
<trkpt lat="20.955830" lon="107.049973">
<ele>8.684212</ele>
<time>2011-04-30T12:36:38Z</time>
<desc>lat.=20.955830, lon.=107.049973, Alt.=8.684212m. Speed=0.036000m/h.</desc>
<speed>0.010000</speed>
</trkpt>
<trkpt lat="20.955830" lon="107.049973">
<ele>8.636360</ele>
<time>2011-04-30T12:36:43Z</time>
<desc>lat.=20.955830, lon.=107.049973, Alt.=8.636360m. Speed=0.036000m/h.</desc>
<speed>0.010000</speed>
</trkpt>
<trkpt lat="20.955830" lon="107.049980">
<ele>8.606331</ele>
<time>2011-04-30T12:36:48Z</time>
<desc>lat.=20.955830, lon.=107.049980, Alt.=8.606331m. Speed=0.000000m/h.</desc>
<speed>0.000000</speed>
</trkpt>
<trkpt lat="20.955830" lon="107.049980">
<ele>8.587532</ele>
<time>2011-04-30T12:36:53Z</time>
<desc>lat.=20.955830, lon.=107.049980, Alt.=8.587532m. Speed=0.072000m/h.</desc>
<speed>0.020000</speed>
</trkpt>
<trkpt lat="20.955830" lon="107.049980">
<ele>8.573616</ele>
<time>2011-04-30T12:36:58Z</time>
<desc>lat.=20.955830, lon.=107.049980, Alt.=8.573616m. Speed=0.036000m/h.</desc>
<speed>0.010000</speed>
</trkpt>
<trkpt lat="20.955830" lon="107.049980">
<ele>8.558479</ele>
<time>2011-04-30T12:37:03Z</time>
<desc>lat.=20.955830, lon.=107.049980, Alt.=8.558479m. Speed=0.000000m/h.</desc>
<speed>0.000000</speed>
</trkpt>
<trkpt lat="20.955830" lon="107.049973">
<ele>8.554329</ele>
<time>2011-04-30T12:37:08Z</time>
<desc>lat.=20.955830, lon.=107.049973, Alt.=8.554329m. Speed=0.036000m/h.</desc>
<speed>0.010000</speed>
</trkpt>
<trkpt lat="20.955830" lon="107.049973">
<ele>8.550667</ele>
<time>2011-04-30T12:37:13Z</time>
<desc>lat.=20.955830, lon.=107.049973, Alt.=8.550667m. Speed=0.072000m/h.</desc>
<speed>0.020000</speed>
</trkpt>
<trkpt lat="20.955830" lon="107.049973">
<ele>8.538460</ele>
<time>2011-04-30T12:37:18Z</time>
<desc>lat.=20.955830, lon.=107.049973, Alt.=8.538460m. Speed=0.036000m/h.</desc>
<speed>0.010000</speed>
</trkpt>
<trkpt lat="20.955830" lon="107.049973">
<ele>8.527718</ele>
<time>2011-04-30T12:37:23Z</time>
<desc>lat.=20.955830, lon.=107.049973, Alt.=8.527718m. Speed=0.000000m/h.</desc>
<speed>0.000000</speed>
</trkpt>
<trkpt lat="20.955830" lon="107.049973">
<ele>8.521858</ele>
<time>2011-04-30T12:37:28Z</time>
<desc>lat.=20.955830, lon.=107.049973, Alt.=8.521858m. Speed=0.000000m/h.</desc>
<speed>0.000000</speed>
</trkpt>
<trkpt lat="20.955830" lon="107.049973">
<ele>8.508186</ele>
<time>2011-04-30T12:37:33Z</time>
<desc>lat.=20.955830, lon.=107.049973, Alt.=8.508186m. Speed=0.000000m/h.</desc>
<speed>0.000000</speed>
</trkpt>
<trkpt lat="20.955830" lon="107.049973">
<ele>8.492317</ele>
<time>2011-04-30T12:37:38Z</time>
<desc>lat.=20.955830, lon.=107.049973, Alt.=8.492317m. Speed=0.000000m/h.</desc>
<speed>0.000000</speed>
</trkpt>
<trkpt lat="20.955830" lon="107.049973">
<ele>8.484505</ele>
<time>2011-04-30T12:37:43Z</time>
<desc>lat.=20.955830, lon.=107.049973, Alt.=8.484505m. Speed=0.000000m/h.</desc>
<speed>0.000000</speed>
</trkpt>
<trkpt lat="20.955830" lon="107.049973">
<ele>8.472054</ele>
<time>2011-04-30T12:37:48Z</time>
<desc>lat.=20.955830, lon.=107.049973, Alt.=8.472054m. Speed=0.000000m/h.</desc>
<speed>0.000000</speed>
</trkpt>
<trkpt lat="20.955830" lon="107.049973">
<ele>8.458626</ele>
<time>2011-04-30T12:37:53Z</time>
<desc>lat.=20.955830, lon.=107.049973, Alt.=8.458626m. Speed=0.036000m/h.</desc>
<speed>0.010000</speed>
</trkpt>
<trkpt lat="20.955832" lon="107.049973">
<ele>8.445198</ele>
<time>2011-04-30T12:37:58Z</time>
<desc>lat.=20.955832, lon.=107.049973, Alt.=8.445198m. Speed=0.000000m/h.</desc>
<speed>0.000000</speed>
</trkpt>
<trkpt lat="20.955832" lon="107.049973">
<ele>8.424934</ele>
<time>2011-04-30T12:38:03Z</time>
<desc>lat.=20.955832, lon.=107.049973, Alt.=8.424934m. Speed=0.036000m/h.</desc>
<speed>0.010000</speed>
</trkpt>
<trkpt lat="20.955832" lon="107.049973">
<ele>8.411507</ele>
<time>2011-04-30T12:38:08Z</time>
<desc>lat.=20.955832, lon.=107.049973, Alt.=8.411507m. Speed=0.000000m/h.</desc>
<speed>0.000000</speed>
</trkpt>
<trkpt lat="20.955832" lon="107.049973">
<ele>8.399055</ele>
<time>2011-04-30T12:38:13Z</time>
<desc>lat.=20.955832, lon.=107.049973, Alt.=8.399055m. Speed=0.072000m/h.</desc>
<speed>0.020000</speed>
</trkpt>
<trkpt lat="20.955832" lon="107.049973">
<ele>8.383919</ele>
<time>2011-04-30T12:38:18Z</time>
<desc>lat.=20.955832, lon.=107.049973, Alt.=8.383919m. Speed=0.000000m/h.</desc>
<speed>0.000000</speed>
</trkpt>
<trkpt lat="20.955832" lon="107.049973">
<ele>8.381477</ele>
<time>2011-04-30T12:38:23Z</time>
<desc>lat.=20.955832, lon.=107.049973, Alt.=8.381477m. Speed=0.036000m/h.</desc>
<speed>0.010000</speed>
</trkpt>
<trkpt lat="20.955832" lon="107.049973">
<ele>8.370247</ele>
<time>2011-04-30T12:38:28Z</time>
<desc>lat.=20.955832, lon.=107.049973, Alt.=8.370247m. Speed=0.000000m/h.</desc>
<speed>0.000000</speed>
</trkpt>
<trkpt lat="20.955832" lon="107.049973">
<ele>8.364143</ele>
<time>2011-04-30T12:38:33Z</time>
<desc>lat.=20.955832, lon.=107.049973, Alt.=8.364143m. Speed=0.000000m/h.</desc>
<speed>0.000000</speed>
</trkpt>
<trkpt lat="20.955832" lon="107.049973">
<ele>8.347054</ele>
<time>2011-04-30T12:38:38Z</time>
<desc>lat.=20.955832, lon.=107.049973, Alt.=8.347054m. Speed=0.036000m/h.</desc>
<speed>0.010000</speed>
</trkpt>
<trkpt lat="20.955832" lon="107.049973">
<ele>8.312141</ele>
<time>2011-04-30T12:38:43Z</time>
<desc>lat.=20.955832, lon.=107.049973, Alt.=8.312141m. Speed=0.000000m/h.</desc>
<speed>0.000000</speed>
</trkpt>
<trkpt lat="20.955832" lon="107.049973">
<ele>8.285774</ele>
<time>2011-04-30T12:38:48Z</time>
<desc>lat.=20.955832, lon.=107.049973, Alt.=8.285774m. Speed=0.036000m/h.</desc>
<speed>0.010000</speed>
</trkpt>
<trkpt lat="20.955832" lon="107.049980">
<ele>8.251350</ele>
<time>2011-04-30T12:38:53Z</time>
<desc>lat.=20.955832, lon.=107.049980, Alt.=8.251350m. Speed=0.036000m/h.</desc>
<speed>0.010000</speed>
</trkpt>
<trkpt lat="20.955832" lon="107.049980">
<ele>8.221809</ele>
<time>2011-04-30T12:38:58Z</time>
<desc>lat.=20.955832, lon.=107.049980, Alt.=8.221809m. Speed=0.000000m/h.</desc>
<speed>0.000000</speed>
</trkpt>
<trkpt lat="20.955832" lon="107.049980">
<ele>8.191780</ele>
<time>2011-04-30T12:39:03Z</time>
<desc>lat.=20.955832, lon.=107.049980, Alt.=8.191780m. Speed=0.036000m/h.</desc>
<speed>0.010000</speed>
</trkpt>
<trkpt lat="20.955832" lon="107.049980">
<ele>8.160530</ele>
<time>2011-04-30T12:39:08Z</time>
<desc>lat.=20.955832, lon.=107.049980, Alt.=8.160530m. Speed=0.000000m/h.</desc>
<speed>0.000000</speed>
</trkpt>
<trkpt lat="20.955832" lon="107.049980">
<ele>8.137581</ele>
<time>2011-04-30T12:39:13Z</time>
<desc>lat.=20.955832, lon.=107.049980, Alt.=8.137581m. Speed=0.000000m/h.</desc>
<speed>0.000000</speed>
</trkpt>
<trkpt lat="20.955833" lon="107.049980">
<ele>8.097298</ele>
<time>2011-04-30T12:39:18Z</time>
<desc>lat.=20.955833, lon.=107.049980, Alt.=8.097298m. Speed=0.108000m/h.</desc>
<speed>0.030000</speed>
</trkpt>
<trkpt lat="20.955833" lon="107.049980">
<ele>8.055305</ele>
<time>2011-04-30T12:39:23Z</time>
<desc>lat.=20.955833, lon.=107.049980, Alt.=8.055305m. Speed=0.036000m/h.</desc>
<speed>0.010000</speed>
</trkpt>
<trkpt lat="20.955833" lon="107.049980">
<ele>8.011604</ele>
<time>2011-04-30T12:39:28Z</time>
<desc>lat.=20.955833, lon.=107.049980, Alt.=8.011604m. Speed=0.036000m/h.</desc>
<speed>0.010000</speed>
</trkpt>
<trkpt lat="20.955833" lon="107.049980">
<ele>7.975407</ele>
<time>2011-04-30T12:39:33Z</time>
<desc>lat.=20.955833, lon.=107.049980, Alt.=7.975407m. Speed=0.036000m/h.</desc>
<speed>0.010000</speed>
</trkpt>
<trkpt lat="20.955833" lon="107.049980">
<ele>7.861149</ele>
<time>2011-04-30T12:39:38Z</time>
<desc>lat.=20.955833, lon.=107.049980, Alt.=7.861149m. Speed=0.036000m/h.</desc>
<speed>0.010000</speed>
</trkpt>
<trkpt lat="20.955833" lon="107.049980">
<ele>7.654850</ele>
<time>2011-04-30T12:39:43Z</time>
<desc>lat.=20.955833, lon.=107.049980, Alt.=7.654850m. Speed=0.072000m/h.</desc>
<speed>0.020000</speed>
</trkpt>
<trkpt lat="20.955833" lon="107.049980">
<ele>7.628117</ele>
<time>2011-04-30T12:39:48Z</time>
<desc>lat.=20.955833, lon.=107.049980, Alt.=7.628117m. Speed=0.000000m/h.</desc>
<speed>0.000000</speed>
</trkpt>
<trkpt lat="20.955833" lon="107.049980">
<ele>7.617985</ele>
<time>2011-04-30T12:39:53Z</time>
<desc>lat.=20.955833, lon.=107.049980, Alt.=7.617985m. Speed=0.036000m/h.</desc>
<speed>0.010000</speed>
</trkpt>
<trkpt lat="20.955833" lon="107.049980">
<ele>7.612125</ele>
<time>2011-04-30T12:39:58Z</time>
<desc>lat.=20.955833, lon.=107.049980, Alt.=7.612125m. Speed=0.000000m/h.</desc>
<speed>0.000000</speed>
</trkpt>
<trkpt lat="20.955833" lon="107.049980">
<ele>7.636784</ele>
<time>2011-04-30T12:40:03Z</time>
<desc>lat.=20.955833, lon.=107.049980, Alt.=7.636784m. Speed=0.108000m/h.</desc>
<speed>0.030000</speed>
</trkpt>
<trkpt lat="20.955833" lon="107.049980">
<ele>7.616642</ele>
<time>2011-04-30T12:40:08Z</time>
<desc>lat.=20.955833, lon.=107.049980, Alt.=7.616642m. Speed=0.000000m/h.</desc>
<speed>0.000000</speed>
</trkpt>
<trkpt lat="20.955833" lon="107.049980">
<ele>7.601017</ele>
<time>2011-04-30T12:40:13Z</time>
<desc>lat.=20.955833, lon.=107.049980, Alt.=7.601017m. Speed=0.036000m/h.</desc>
<speed>0.010000</speed>
</trkpt>
<trkpt lat="20.955833" lon="107.049980">
<ele>7.561100</ele>
<time>2011-04-30T12:40:18Z</time>
<desc>lat.=20.955833, lon.=107.049980, Alt.=7.561100m. Speed=0.036000m/h.</desc>
<speed>0.010000</speed>
</trkpt>
<trkpt lat="20.955833" lon="107.049980">
<ele>7.529362</ele>
<time>2011-04-30T12:40:23Z</time>
<desc>lat.=20.955833, lon.=107.049980, Alt.=7.529362m. Speed=0.036000m/h.</desc>
<speed>0.010000</speed>
</trkpt>
<trkpt lat="20.955833" lon="107.049980">
<ele>7.500797</ele>
<time>2011-04-30T12:40:28Z</time>
<desc>lat.=20.955833, lon.=107.049980, Alt.=7.500797m. Speed=0.036000m/h.</desc>
<speed>0.010000</speed>
</trkpt>
<trkpt lat="20.955833" lon="107.049980">
<ele>7.468204</ele>
<time>2011-04-30T12:40:33Z</time>
<desc>lat.=20.955833, lon.=107.049980, Alt.=7.468204m. Speed=0.036000m/h.</desc>
<speed>0.010000</speed>
</trkpt>
<trkpt lat="20.955833" lon="107.049980">
<ele>7.452824</ele>
<time>2011-04-30T12:40:38Z</time>
<desc>lat.=20.955833, lon.=107.049980, Alt.=7.452824m. Speed=0.108000m/h.</desc>
<speed>0.030000</speed>
</trkpt>
<trkpt lat="20.955833" lon="107.049980">
<ele>7.421574</ele>
<time>2011-04-30T12:40:43Z</time>
<desc>lat.=20.955833, lon.=107.049980, Alt.=7.421574m. Speed=0.036000m/h.</desc>
<speed>0.010000</speed>
</trkpt>
<trkpt lat="20.955833" lon="107.049988">
<ele>7.433903</ele>
<time>2011-04-30T12:40:48Z</time>
<desc>lat.=20.955833, lon.=107.049988, Alt.=7.433903m. Speed=1.800000m/h.</desc>
<speed>0.500000</speed>
</trkpt>
<trkpt lat="20.955839" lon="107.049980">
<ele>7.962589</ele>
<time>2011-04-30T12:40:53Z</time>
<desc>lat.=20.955839, lon.=107.049980, Alt.=7.962589m. Speed=0.468000m/h.</desc>
<speed>0.130000</speed>
</trkpt>
<trkpt lat="20.955835" lon="107.049988">
<ele>8.144661</ele>
<time>2011-04-30T12:40:58Z</time>
<desc>lat.=20.955835, lon.=107.049988, Alt.=8.144661m. Speed=0.324000m/h.</desc>
<speed>0.090000</speed>
</trkpt>
<trkpt lat="20.955833" lon="107.049988">
<ele>8.326546</ele>
<time>2011-04-30T12:41:03Z</time>
<desc>lat.=20.955833, lon.=107.049988, Alt.=8.326546m. Speed=0.144000m/h.</desc>
<speed>0.040000</speed>
</trkpt>
<trkpt lat="20.955835" lon="107.049988">
<ele>8.458870</ele>
<time>2011-04-30T12:41:08Z</time>
<desc>lat.=20.955835, lon.=107.049988, Alt.=8.458870m. Speed=0.144000m/h.</desc>
<speed>0.040000</speed>
</trkpt>
<trkpt lat="20.955839" lon="107.049988">
<ele>8.301399</ele>
<time>2011-04-30T12:41:13Z</time>
<desc>lat.=20.955839, lon.=107.049988, Alt.=8.301399m. Speed=0.036000m/h.</desc>
<speed>0.010000</speed>
</trkpt>
<trkpt lat="20.955841" lon="107.049973">
<ele>7.463322</ele>
<time>2011-04-30T12:41:18Z</time>
<desc>lat.=20.955841, lon.=107.049973, Alt.=7.463322m. Speed=0.108000m/h.</desc>
<speed>0.030000</speed>
</trkpt>
<trkpt lat="20.955839" lon="107.049973">
<ele>7.465641</ele>
<time>2011-04-30T12:41:23Z</time>
<desc>lat.=20.955839, lon.=107.049973, Alt.=7.465641m. Speed=1.224000m/h.</desc>
<speed>0.340000</speed>
</trkpt>
<trkpt lat="20.955845" lon="107.049957">
<ele>6.799747</ele>
<time>2011-04-30T12:41:28Z</time>
<desc>lat.=20.955845, lon.=107.049957, Alt.=6.799747m. Speed=2.700000m/h.</desc>
<speed>0.750000</speed>
</trkpt>
<trkpt lat="20.955837" lon="107.049934">
<ele>7.149113</ele>
<time>2011-04-30T12:41:33Z</time>
<desc>lat.=20.955837, lon.=107.049934, Alt.=7.149113m. Speed=3.060000m/h.</desc>
<speed>0.850000</speed>
</trkpt>
<trkpt lat="20.955826" lon="107.049889">
<ele>6.737125</ele>
<time>2011-04-30T12:41:38Z</time>
<desc>lat.=20.955826, lon.=107.049889, Alt.=6.737125m. Speed=1.980000m/h.</desc>
<speed>0.550000</speed>
</trkpt>
<trkpt lat="20.955826" lon="107.049873">
<ele>7.206120</ele>
<time>2011-04-30T12:41:43Z</time>
<desc>lat.=20.955826, lon.=107.049873, Alt.=7.206120m. Speed=2.376000m/h.</desc>
<speed>0.660000</speed>
</trkpt>
<trkpt lat="20.955818" lon="107.049858">
<ele>7.172672</ele>
<time>2011-04-30T12:41:48Z</time>
<desc>lat.=20.955818, lon.=107.049858, Alt.=7.172672m. Speed=0.180000m/h.</desc>
<speed>0.050000</speed>
</trkpt>
<trkpt lat="20.955818" lon="107.049873">
<ele>7.001530</ele>
<time>2011-04-30T12:41:53Z</time>
<desc>lat.=20.955818, lon.=107.049873, Alt.=7.001530m. Speed=2.844000m/h.</desc>
<speed>0.790000</speed>
</trkpt>
<trkpt lat="20.955811" lon="107.049904">
<ele>8.132454</ele>
<time>2011-04-30T12:41:58Z</time>
<desc>lat.=20.955811, lon.=107.049904, Alt.=8.132454m. Speed=2.808000m/h.</desc>
<speed>0.780000</speed>
</trkpt>
<trkpt lat="20.955811" lon="107.049904">
<ele>8.173225</ele>
<time>2011-04-30T12:42:03Z</time>
<desc>lat.=20.955811, lon.=107.049904, Alt.=8.173225m. Speed=2.448000m/h.</desc>
<speed>0.680000</speed>
</trkpt>
<trkpt lat="20.955797" lon="107.049911">
<ele>8.784798</ele>
<time>2011-04-30T12:42:08Z</time>
<desc>lat.=20.955797, lon.=107.049911, Alt.=8.784798m. Speed=1.476000m/h.</desc>
<speed>0.410000</speed>
</trkpt>
<trkpt lat="20.955793" lon="107.049904">
<ele>8.550423</ele>
<time>2011-04-30T12:42:13Z</time>
<desc>lat.=20.955793, lon.=107.049904, Alt.=8.550423m. Speed=1.044000m/h.</desc>
<speed>0.290000</speed>
</trkpt>
<trkpt lat="20.955793" lon="107.049904">
<ele>8.579720</ele>
<time>2011-04-30T12:42:18Z</time>
<desc>lat.=20.955793, lon.=107.049904, Alt.=8.579720m. Speed=0.144000m/h.</desc>
<speed>0.040000</speed>
</trkpt>
<trkpt lat="20.955793" lon="107.049904">
<ele>8.552620</ele>
<time>2011-04-30T12:42:23Z</time>
<desc>lat.=20.955793, lon.=107.049904, Alt.=8.552620m. Speed=0.036000m/h.</desc>
<speed>0.010000</speed>
</trkpt>
<trkpt lat="20.955791" lon="107.049904">
<ele>8.551643</ele>
<time>2011-04-30T12:42:28Z</time>
<desc>lat.=20.955791, lon.=107.049904, Alt.=8.551643m. Speed=0.000000m/h.</desc>
<speed>0.000000</speed>
</trkpt>
<trkpt lat="20.955791" lon="107.049904">
<ele>8.468391</ele>
<time>2011-04-30T12:42:33Z</time>
<desc>lat.=20.955791, lon.=107.049904, Alt.=8.468391m. Speed=0.036000m/h.</desc>
<speed>0.010000</speed>
</trkpt>
<trkpt lat="20.955791" lon="107.049904">
<ele>8.448860</ele>
<time>2011-04-30T12:42:38Z</time>
<desc>lat.=20.955791, lon.=107.049904, Alt.=8.448860m. Speed=0.468000m/h.</desc>
<speed>0.130000</speed>
</trkpt>
<trkpt lat="20.955784" lon="107.049919">
<ele>8.401009</ele>
<time>2011-04-30T12:42:43Z</time>
<desc>lat.=20.955784, lon.=107.049919, Alt.=8.401009m. Speed=2.196000m/h.</desc>
<speed>0.610000</speed>
</trkpt>
<trkpt lat="20.955769" lon="107.049927">
<ele>8.654427</ele>
<time>2011-04-30T12:42:48Z</time>
<desc>lat.=20.955769, lon.=107.049927, Alt.=8.654427m. Speed=2.016000m/h.</desc>
<speed>0.560000</speed>
</trkpt>
<trkpt lat="20.955750" lon="107.049911">
<ele>8.517464</ele>
<time>2011-04-30T12:42:53Z</time>
<desc>lat.=20.955750, lon.=107.049911, Alt.=8.517464m. Speed=2.952000m/h.</desc>
<speed>0.820000</speed>
</trkpt>
<trkpt lat="20.955753" lon="107.049942">
<ele>8.567268</ele>
<time>2011-04-30T12:42:58Z</time>
<desc>lat.=20.955753, lon.=107.049942, Alt.=8.567268m. Speed=3.960000m/h.</desc>
<speed>1.100000</speed>
</trkpt>
<trkpt lat="20.955769" lon="107.049988">
<ele>8.355110</ele>
<time>2011-04-30T12:43:03Z</time>
<desc>lat.=20.955769, lon.=107.049988, Alt.=8.355110m. Speed=3.744000m/h.</desc>
<speed>1.040000</speed>
</trkpt>
<trkpt lat="20.955784" lon="107.050026">
<ele>7.845768</ele>
<time>2011-04-30T12:43:08Z</time>
<desc>lat.=20.955784, lon.=107.050026, Alt.=7.845768m. Speed=2.988000m/h.</desc>
<speed>0.830000</speed>
</trkpt>
<trkpt lat="20.955791" lon="107.050049">
<ele>7.557438</ele>
<time>2011-04-30T12:43:13Z</time>
<desc>lat.=20.955791, lon.=107.050049, Alt.=7.557438m. Speed=0.648000m/h.</desc>
<speed>0.180000</speed>
</trkpt>
<trkpt lat="20.955797" lon="107.050064">
<ele>7.428898</ele>
<time>2011-04-30T12:43:18Z</time>
<desc>lat.=20.955797, lon.=107.050064, Alt.=7.428898m. Speed=1.224000m/h.</desc>
<speed>0.340000</speed>
</trkpt>
<trkpt lat="20.955799" lon="107.050079">
<ele>6.372990</ele>
<time>2011-04-30T12:43:23Z</time>
<desc>lat.=20.955799, lon.=107.050079, Alt.=6.372990m. Speed=0.684000m/h.</desc>
<speed>0.190000</speed>
</trkpt>
<trkpt lat="20.955797" lon="107.050079">
<ele>5.814274</ele>
<time>2011-04-30T12:43:28Z</time>
<desc>lat.=20.955797, lon.=107.050079, Alt.=5.814274m. Speed=1.296000m/h.</desc>
<speed>0.360000</speed>
</trkpt>
<trkpt lat="20.955790" lon="107.050087">
<ele>6.154118</ele>
<time>2011-04-30T12:43:33Z</time>
<desc>lat.=20.955790, lon.=107.050087, Alt.=6.154118m. Speed=0.936000m/h.</desc>
<speed>0.260000</speed>
</trkpt>
<trkpt lat="20.955788" lon="107.050117">
<ele>5.866276</ele>
<time>2011-04-30T12:43:38Z</time>
<desc>lat.=20.955788, lon.=107.050117, Alt.=5.866276m. Speed=0.972000m/h.</desc>
<speed>0.270000</speed>
</trkpt>
<trkpt lat="20.955795" lon="107.050148">
<ele>6.029850</ele>
<time>2011-04-30T12:43:43Z</time>
<desc>lat.=20.955795, lon.=107.050148, Alt.=6.029850m. Speed=3.744000m/h.</desc>
<speed>1.040000</speed>
</trkpt>
<trkpt lat="20.955816" lon="107.050186">
<ele>5.183292</ele>
<time>2011-04-30T12:43:48Z</time>
<desc>lat.=20.955816, lon.=107.050186, Alt.=5.183292m. Speed=2.808000m/h.</desc>
<speed>0.780000</speed>
</trkpt>
<trkpt lat="20.955839" lon="107.050217">
<ele>4.374943</ele>
<time>2011-04-30T12:43:53Z</time>
<desc>lat.=20.955839, lon.=107.050217, Alt.=4.374943m. Speed=3.528000m/h.</desc>
<speed>0.980000</speed>
</trkpt>
<trkpt lat="20.955864" lon="107.050224">
<ele>3.904024</ele>
<time>2011-04-30T12:43:58Z</time>
<desc>lat.=20.955864, lon.=107.050224, Alt.=3.904024m. Speed=3.240000m/h.</desc>
<speed>0.900000</speed>
</trkpt>
<trkpt lat="20.955908" lon="107.050232">
<ele>4.924870</ele>
<time>2011-04-30T12:44:03Z</time>
<desc>lat.=20.955908, lon.=107.050232, Alt.=4.924870m. Speed=3.636000m/h.</desc>
<speed>1.010000</speed>
</trkpt>
<trkpt lat="20.955948" lon="107.050232">
<ele>4.276554</ele>
<time>2011-04-30T12:44:08Z</time>
<desc>lat.=20.955948, lon.=107.050232, Alt.=4.276554m. Speed=3.060000m/h.</desc>
<speed>0.850000</speed>
</trkpt>
<trkpt lat="20.955973" lon="107.050201">
<ele>4.775211</ele>
<time>2011-04-30T12:44:13Z</time>
<desc>lat.=20.955973, lon.=107.050201, Alt.=4.775211m. Speed=2.448000m/h.</desc>
<speed>0.680000</speed>
</trkpt>
<trkpt lat="20.955978" lon="107.050163">
<ele>6.389103</ele>
<time>2011-04-30T12:44:18Z</time>
<desc>lat.=20.955978, lon.=107.050163, Alt.=6.389103m. Speed=3.276000m/h.</desc>
<speed>0.910000</speed>
</trkpt>
<trkpt lat="20.956018" lon="107.050148">
<ele>7.028751</ele>
<time>2011-04-30T12:44:23Z</time>
<desc>lat.=20.956018, lon.=107.050148, Alt.=7.028751m. Speed=2.844000m/h.</desc>
<speed>0.790000</speed>
</trkpt>
<trkpt lat="20.956036" lon="107.050133">
<ele>6.902409</ele>
<time>2011-04-30T12:44:28Z</time>
<desc>lat.=20.956036, lon.=107.050133, Alt.=6.902409m. Speed=0.504000m/h.</desc>
<speed>0.140000</speed>
</trkpt>
<trkpt lat="20.956034" lon="107.050125">
<ele>6.913517</ele>
<time>2011-04-30T12:44:33Z</time>
<desc>lat.=20.956034, lon.=107.050125, Alt.=6.913517m. Speed=0.468000m/h.</desc>
<speed>0.130000</speed>
</trkpt>
<trkpt lat="20.956028" lon="107.050125">
<ele>6.864201</ele>
<time>2011-04-30T12:44:38Z</time>
<desc>lat.=20.956028, lon.=107.050125, Alt.=6.864201m. Speed=0.864000m/h.</desc>
<speed>0.240000</speed>
</trkpt>
<trkpt lat="20.956020" lon="107.050133">
<ele>6.526676</ele>
<time>2011-04-30T12:44:43Z</time>
<desc>lat.=20.956020, lon.=107.050133, Alt.=6.526676m. Speed=0.540000m/h.</desc>
<speed>0.150000</speed>
</trkpt>
<trkpt lat="20.956020" lon="107.050133">
<ele>6.477848</ele>
<time>2011-04-30T12:44:48Z</time>
<desc>lat.=20.956020, lon.=107.050133, Alt.=6.477848m. Speed=0.792000m/h.</desc>
<speed>0.220000</speed>
</trkpt>
<trkpt lat="20.956022" lon="107.050125">
<ele>6.434879</ele>
<time>2011-04-30T12:44:53Z</time>
<desc>lat.=20.956022, lon.=107.050125, Alt.=6.434879m. Speed=0.108000m/h.</desc>
<speed>0.030000</speed>
</trkpt>
<trkpt lat="20.956022" lon="107.050125">
<ele>6.404972</ele>
<time>2011-04-30T12:44:58Z</time>
<desc>lat.=20.956022, lon.=107.050125, Alt.=6.404972m. Speed=0.036000m/h.</desc>
<speed>0.010000</speed>
</trkpt>
<trkpt lat="20.956022" lon="107.050125">
<ele>6.401920</ele>
<time>2011-04-30T12:45:03Z</time>
<desc>lat.=20.956022, lon.=107.050125, Alt.=6.401920m. Speed=0.000000m/h.</desc>
<speed>0.000000</speed>
</trkpt>
<trkpt lat="20.956022" lon="107.050125">
<ele>6.368717</ele>
<time>2011-04-30T12:45:08Z</time>
<desc>lat.=20.956022, lon.=107.050125, Alt.=6.368717m. Speed=0.036000m/h.</desc>
<speed>0.010000</speed>
</trkpt>
<trkpt lat="20.956022" lon="107.050125">
<ele>6.344425</ele>
<time>2011-04-30T12:45:13Z</time>
<desc>lat.=20.956022, lon.=107.050125, Alt.=6.344425m. Speed=0.000000m/h.</desc>
<speed>0.000000</speed>
</trkpt>
<trkpt lat="20.956022" lon="107.050125">
<ele>6.334904</ele>
<time>2011-04-30T12:45:18Z</time>
<desc>lat.=20.956022, lon.=107.050125, Alt.=6.334904m. Speed=0.036000m/h.</desc>
<speed>0.010000</speed>
</trkpt>
<trkpt lat="20.956022" lon="107.050125">
<ele>6.319645</ele>
<time>2011-04-30T12:45:23Z</time>
<desc>lat.=20.956022, lon.=107.050125, Alt.=6.319645m. Speed=0.000000m/h.</desc>
<speed>0.000000</speed>
</trkpt>
<trkpt lat="20.956022" lon="107.050125">
<ele>6.288639</ele>
<time>2011-04-30T12:45:28Z</time>
<desc>lat.=20.956022, lon.=107.050125, Alt.=6.288639m. Speed=0.036000m/h.</desc>
<speed>0.010000</speed>
</trkpt>
<trkpt lat="20.956020" lon="107.050133">
<ele>6.217594</ele>
<time>2011-04-30T12:45:33Z</time>
<desc>lat.=20.956020, lon.=107.050133, Alt.=6.217594m. Speed=0.180000m/h.</desc>
<speed>0.050000</speed>
</trkpt>
<trkpt lat="20.956018" lon="107.050133">
<ele>6.106144</ele>
<time>2011-04-30T12:45:38Z</time>
<desc>lat.=20.956018, lon.=107.050133, Alt.=6.106144m. Speed=0.180000m/h.</desc>
<speed>0.050000</speed>
</trkpt>
<trkpt lat="20.956015" lon="107.050133">
<ele>5.962467</ele>
<time>2011-04-30T12:45:43Z</time>
<desc>lat.=20.956015, lon.=107.050133, Alt.=5.962467m. Speed=0.108000m/h.</desc>
<speed>0.030000</speed>
</trkpt>
<trkpt lat="20.956020" lon="107.050133">
<ele>5.853336</ele>
<time>2011-04-30T12:45:48Z</time>
<desc>lat.=20.956020, lon.=107.050133, Alt.=5.853336m. Speed=1.188000m/h.</desc>
<speed>0.330000</speed>
</trkpt>
<trkpt lat="20.956043" lon="107.050117">
<ele>5.640079</ele>
<time>2011-04-30T12:45:53Z</time>
<desc>lat.=20.956043, lon.=107.050117, Alt.=5.640079m. Speed=2.304000m/h.</desc>
<speed>0.640000</speed>
</trkpt>
<trkpt lat="20.956060" lon="107.050125">
<ele>6.231144</ele>
<time>2011-04-30T12:45:58Z</time>
<desc>lat.=20.956060, lon.=107.050125, Alt.=6.231144m. Speed=2.088000m/h.</desc>
<speed>0.580000</speed>
</trkpt>
<trkpt lat="20.956068" lon="107.050140">
<ele>5.621525</ele>
<time>2011-04-30T12:46:03Z</time>
<desc>lat.=20.956068, lon.=107.050140, Alt.=5.621525m. Speed=1.800000m/h.</desc>
<speed>0.500000</speed>
</trkpt>
<trkpt lat="20.956072" lon="107.050148">
<ele>4.741154</ele>
<time>2011-04-30T12:46:08Z</time>
<desc>lat.=20.956072, lon.=107.050148, Alt.=4.741154m. Speed=0.072000m/h.</desc>
<speed>0.020000</speed>
</trkpt>
<trkpt lat="20.956072" lon="107.050148">
<ele>4.609806</ele>
<time>2011-04-30T12:46:13Z</time>
<desc>lat.=20.956072, lon.=107.050148, Alt.=4.609806m. Speed=0.144000m/h.</desc>
<speed>0.040000</speed>
</trkpt>
<trkpt lat="20.956072" lon="107.050148">
<ele>4.567081</ele>
<time>2011-04-30T12:46:18Z</time>
<desc>lat.=20.956072, lon.=107.050148, Alt.=4.567081m. Speed=0.252000m/h.</desc>
<speed>0.070000</speed>
</trkpt>
<trkpt lat="20.956072" lon="107.050148">
<ele>4.574406</ele>
<time>2011-04-30T12:46:23Z</time>
<desc>lat.=20.956072, lon.=107.050148, Alt.=4.574406m. Speed=0.072000m/h.</desc>
<speed>0.020000</speed>
</trkpt>
<trkpt lat="20.956072" lon="107.050148">
<ele>4.565372</ele>
<time>2011-04-30T12:46:28Z</time>
<desc>lat.=20.956072, lon.=107.050148, Alt.=4.565372m. Speed=0.000000m/h.</desc>
<speed>0.000000</speed>
</trkpt>
<trkpt lat="20.956072" lon="107.050148">
<ele>4.551579</ele>
<time>2011-04-30T12:46:33Z</time>
<desc>lat.=20.956072, lon.=107.050148, Alt.=4.551579m. Speed=0.432000m/h.</desc>
<speed>0.120000</speed>
</trkpt>
<trkpt lat="20.956072" lon="107.050148">
<ele>4.534245</ele>
<time>2011-04-30T12:46:38Z</time>
<desc>lat.=20.956072, lon.=107.050148, Alt.=4.534245m. Speed=0.252000m/h.</desc>
<speed>0.070000</speed>
</trkpt>
<trkpt lat="20.956072" lon="107.050148">
<ele>4.525089</ele>
<time>2011-04-30T12:46:43Z</time>
<desc>lat.=20.956072, lon.=107.050148, Alt.=4.525089m. Speed=0.000000m/h.</desc>
<speed>0.000000</speed>
</trkpt>
<trkpt lat="20.956074" lon="107.050148">
<ele>4.511906</ele>
<time>2011-04-30T12:46:48Z</time>
<desc>lat.=20.956074, lon.=107.050148, Alt.=4.511906m. Speed=0.036000m/h.</desc>
<speed>0.010000</speed>
</trkpt>
<trkpt lat="20.956072" lon="107.050148">
<ele>4.478703</ele>
<time>2011-04-30T12:46:53Z</time>
<desc>lat.=20.956072, lon.=107.050148, Alt.=4.478703m. Speed=0.036000m/h.</desc>
<speed>0.010000</speed>
</trkpt>
<trkpt lat="20.956074" lon="107.050148">
<ele>4.478825</ele>
<time>2011-04-30T12:46:58Z</time>
<desc>lat.=20.956074, lon.=107.050148, Alt.=4.478825m. Speed=0.000000m/h.</desc>
<speed>0.000000</speed>
</trkpt>
<trkpt lat="20.956074" lon="107.050148">
<ele>4.465641</ele>
<time>2011-04-30T12:47:03Z</time>
<desc>lat.=20.956074, lon.=107.050148, Alt.=4.465641m. Speed=0.000000m/h.</desc>
<speed>0.000000</speed>
</trkpt>
<trkpt lat="20.956074" lon="107.050148">
<ele>4.464664</ele>
<time>2011-04-30T12:47:08Z</time>
<desc>lat.=20.956074, lon.=107.050148, Alt.=4.464664m. Speed=0.036000m/h.</desc>
<speed>0.010000</speed>
</trkpt>
<trkpt lat="20.956074" lon="107.050148">
<ele>4.457706</ele>
<time>2011-04-30T12:47:13Z</time>
<desc>lat.=20.956074, lon.=107.050148, Alt.=4.457706m. Speed=0.108000m/h.</desc>
<speed>0.030000</speed>
</trkpt>
<trkpt lat="20.956074" lon="107.050148">
<ele>4.444523</ele>
<time>2011-04-30T12:47:18Z</time>
<desc>lat.=20.956074, lon.=107.050148, Alt.=4.444523m. Speed=0.972000m/h.</desc>
<speed>0.270000</speed>
</trkpt>
<trkpt lat="20.956059" lon="107.050140">
<ele>6.109684</ele>
<time>2011-04-30T12:47:23Z</time>
<desc>lat.=20.956059, lon.=107.050140, Alt.=6.109684m. Speed=1.008000m/h.</desc>
<speed>0.280000</speed>
</trkpt>
<trkpt lat="20.956059" lon="107.050140">
<ele>6.373112</ele>
<time>2011-04-30T12:47:28Z</time>
<desc>lat.=20.956059, lon.=107.050140, Alt.=6.373112m. Speed=0.180000m/h.</desc>
<speed>0.050000</speed>
</trkpt>
<trkpt lat="20.956055" lon="107.050140">
<ele>6.391422</ele>
<time>2011-04-30T12:47:33Z</time>
<desc>lat.=20.956055, lon.=107.050140, Alt.=6.391422m. Speed=1.296000m/h.</desc>
<speed>0.360000</speed>
</trkpt>
<trkpt lat="20.956055" lon="107.050125">
<ele>6.650089</ele>
<time>2011-04-30T12:47:38Z</time>
<desc>lat.=20.956055, lon.=107.050125, Alt.=6.650089m. Speed=0.216000m/h.</desc>
<speed>0.060000</speed>
</trkpt>
<trkpt lat="20.956053" lon="107.050125">
<ele>6.661564</ele>
<time>2011-04-30T12:47:43Z</time>
<desc>lat.=20.956053, lon.=107.050125, Alt.=6.661564m. Speed=0.252000m/h.</desc>
<speed>0.070000</speed>
</trkpt>
<trkpt lat="20.956043" lon="107.050133">
<ele>6.781071</ele>
<time>2011-04-30T12:47:48Z</time>
<desc>lat.=20.956043, lon.=107.050133, Alt.=6.781071m. Speed=0.288000m/h.</desc>
<speed>0.080000</speed>
</trkpt>
<trkpt lat="20.956038" lon="107.050133">
<ele>6.832951</ele>
<time>2011-04-30T12:47:53Z</time>
<desc>lat.=20.956038, lon.=107.050133, Alt.=6.832951m. Speed=0.000000m/h.</desc>
<speed>0.000000</speed>
</trkpt>
<trkpt lat="20.956034" lon="107.050125">
<ele>6.900211</ele>
<time>2011-04-30T12:47:58Z</time>
<desc>lat.=20.956034, lon.=107.050125, Alt.=6.900211m. Speed=0.432000m/h.</desc>
<speed>0.120000</speed>
</trkpt>
<trkpt lat="20.956036" lon="107.050125">
<ele>6.895817</ele>
<time>2011-04-30T12:48:03Z</time>
<desc>lat.=20.956036, lon.=107.050125, Alt.=6.895817m. Speed=0.036000m/h.</desc>
<speed>0.010000</speed>
</trkpt>
<trkpt lat="20.956034" lon="107.050125">
<ele>6.886662</ele>
<time>2011-04-30T12:48:08Z</time>
<desc>lat.=20.956034, lon.=107.050125, Alt.=6.886662m. Speed=0.000000m/h.</desc>
<speed>0.000000</speed>
</trkpt>
<trkpt lat="20.956034" lon="107.050125">
<ele>6.878239</ele>
<time>2011-04-30T12:48:13Z</time>
<desc>lat.=20.956034, lon.=107.050125, Alt.=6.878239m. Speed=0.000000m/h.</desc>
<speed>0.000000</speed>
</trkpt>
<trkpt lat="20.956036" lon="107.050125">
<ele>6.883732</ele>
<time>2011-04-30T12:48:18Z</time>
<desc>lat.=20.956036, lon.=107.050125, Alt.=6.883732m. Speed=0.036000m/h.</desc>
<speed>0.010000</speed>
</trkpt>
<trkpt lat="20.956034" lon="107.050125">
<ele>6.883366</ele>
<time>2011-04-30T12:48:23Z</time>
<desc>lat.=20.956034, lon.=107.050125, Alt.=6.883366m. Speed=0.000000m/h.</desc>
<speed>0.000000</speed>
</trkpt>
<trkpt lat="20.956034" lon="107.050125">
<ele>6.878849</ele>
<time>2011-04-30T12:48:28Z</time>
<desc>lat.=20.956034, lon.=107.050125, Alt.=6.878849m. Speed=0.108000m/h.</desc>
<speed>0.030000</speed>
</trkpt>
<trkpt lat="20.956032" lon="107.050125">
<ele>6.985783</ele>
<time>2011-04-30T12:48:33Z</time>
<desc>lat.=20.956032, lon.=107.050125, Alt.=6.985783m. Speed=1.332000m/h.</desc>
<speed>0.370000</speed>
</trkpt>
<trkpt lat="20.956047" lon="107.050133">
<ele>6.798038</ele>
<time>2011-04-30T12:48:38Z</time>
<desc>lat.=20.956047, lon.=107.050133, Alt.=6.798038m. Speed=2.628000m/h.</desc>
<speed>0.730000</speed>
</trkpt>
<trkpt lat="20.956078" lon="107.050110">
<ele>6.118961</ele>
<time>2011-04-30T12:48:43Z</time>
<desc>lat.=20.956078, lon.=107.050110, Alt.=6.118961m. Speed=2.052000m/h.</desc>
<speed>0.570000</speed>
</trkpt>
<trkpt lat="20.956079" lon="107.050072">
<ele>6.818424</ele>
<time>2011-04-30T12:48:48Z</time>
<desc>lat.=20.956079, lon.=107.050072, Alt.=6.818424m. Speed=2.736000m/h.</desc>
<speed>0.760000</speed>
</trkpt>
<trkpt lat="20.956074" lon="107.050056">
<ele>7.586735</ele>
<time>2011-04-30T12:48:53Z</time>
<desc>lat.=20.956074, lon.=107.050056, Alt.=7.586735m. Speed=0.540000m/h.</desc>
<speed>0.150000</speed>
</trkpt>
<trkpt lat="20.956066" lon="107.050026">
<ele>7.130436</ele>
<time>2011-04-30T12:48:58Z</time>
<desc>lat.=20.956066, lon.=107.050026, Alt.=7.130436m. Speed=3.924000m/h.</desc>
<speed>1.090000</speed>
</trkpt>
<trkpt lat="20.956059" lon="107.050011">
<ele>7.050236</ele>
<time>2011-04-30T12:49:03Z</time>
<desc>lat.=20.956059, lon.=107.050011, Alt.=7.050236m. Speed=1.116000m/h.</desc>
<speed>0.310000</speed>
</trkpt>
<trkpt lat="20.956062" lon="107.049995">
<ele>6.907413</ele>
<time>2011-04-30T12:49:08Z</time>
<desc>lat.=20.956062, lon.=107.049995, Alt.=6.907413m. Speed=1.404000m/h.</desc>
<speed>0.390000</speed>
</trkpt>
<trkpt lat="20.956055" lon="107.049988">
<ele>7.394352</ele>
<time>2011-04-30T12:49:13Z</time>
<desc>lat.=20.956055, lon.=107.049988, Alt.=7.394352m. Speed=0.288000m/h.</desc>
<speed>0.080000</speed>
</trkpt>
<trkpt lat="20.956055" lon="107.049988">
<ele>7.471622</ele>
<time>2011-04-30T12:49:18Z</time>
<desc>lat.=20.956055, lon.=107.049988, Alt.=7.471622m. Speed=0.108000m/h.</desc>
<speed>0.030000</speed>
</trkpt>
<trkpt lat="20.956053" lon="107.049980">
<ele>7.492252</ele>
<time>2011-04-30T12:49:23Z</time>
<desc>lat.=20.956053, lon.=107.049980, Alt.=7.492252m. Speed=0.540000m/h.</desc>
<speed>0.150000</speed>
</trkpt>
<trkpt lat="20.956053" lon="107.049980">
<ele>7.485783</ele>
<time>2011-04-30T12:49:28Z</time>
<desc>lat.=20.956053, lon.=107.049980, Alt.=7.485783m. Speed=0.756000m/h.</desc>
<speed>0.210000</speed>
</trkpt>
<trkpt lat="20.956053" lon="107.049980">
<ele>7.470768</ele>
<time>2011-04-30T12:49:33Z</time>
<desc>lat.=20.956053, lon.=107.049980, Alt.=7.470768m. Speed=0.036000m/h.</desc>
<speed>0.010000</speed>
</trkpt>
<trkpt lat="20.956047" lon="107.049980">
<ele>7.502018</ele>
<time>2011-04-30T12:49:38Z</time>
<desc>lat.=20.956047, lon.=107.049980, Alt.=7.502018m. Speed=0.972000m/h.</desc>
<speed>0.270000</speed>
</trkpt>
<trkpt lat="20.956041" lon="107.049973">
<ele>7.115299</ele>
<time>2011-04-30T12:49:43Z</time>
<desc>lat.=20.956041, lon.=107.049973, Alt.=7.115299m. Speed=0.720000m/h.</desc>
<speed>0.200000</speed>
</trkpt>
<trkpt lat="20.956026" lon="107.049973">
<ele>6.999699</ele>
<time>2011-04-30T12:49:48Z</time>
<desc>lat.=20.956026, lon.=107.049973, Alt.=6.999699m. Speed=0.936000m/h.</desc>
<speed>0.260000</speed>
</trkpt>
<trkpt lat="20.956013" lon="107.049980">
<ele>7.814518</ele>
<time>2011-04-30T12:49:53Z</time>
<desc>lat.=20.956013, lon.=107.049980, Alt.=7.814518m. Speed=0.648000m/h.</desc>
<speed>0.180000</speed>
</trkpt>
<trkpt lat="20.956011" lon="107.049980">
<ele>7.452335</ele>
<time>2011-04-30T12:49:58Z</time>
<desc>lat.=20.956011, lon.=107.049980, Alt.=7.452335m. Speed=1.296000m/h.</desc>
<speed>0.360000</speed>
</trkpt>
<trkpt lat="20.956003" lon="107.049965">
<ele>5.640446</ele>
<time>2011-04-30T12:50:03Z</time>
<desc>lat.=20.956003, lon.=107.049965, Alt.=5.640446m. Speed=0.936000m/h.</desc>
<speed>0.260000</speed>
</trkpt>
<trkpt lat="20.956003" lon="107.049965">
<ele>5.442692</ele>
<time>2011-04-30T12:50:08Z</time>
<desc>lat.=20.956003, lon.=107.049965, Alt.=5.442692m. Speed=0.252000m/h.</desc>
<speed>0.070000</speed>
</trkpt>
<trkpt lat="20.956001" lon="107.049965">
<ele>5.073185</ele>
<time>2011-04-30T12:50:13Z</time>
<desc>lat.=20.956001, lon.=107.049965, Alt.=5.073185m. Speed=0.108000m/h.</desc>
<speed>0.030000</speed>
</trkpt>
<trkpt lat="20.955999" lon="107.049965">
<ele>4.943302</ele>
<time>2011-04-30T12:50:18Z</time>
<desc>lat.=20.955999, lon.=107.049965, Alt.=4.943302m. Speed=0.108000m/h.</desc>
<speed>0.030000</speed>
</trkpt>
<trkpt lat="20.955999" lon="107.049965">
<ele>4.895817</ele>
<time>2011-04-30T12:50:23Z</time>
<desc>lat.=20.955999, lon.=107.049965, Alt.=4.895817m. Speed=0.144000m/h.</desc>
<speed>0.040000</speed>
</trkpt>
<trkpt lat="20.955999" lon="107.049965">
<ele>4.873600</ele>
<time>2011-04-30T12:50:28Z</time>
<desc>lat.=20.955999, lon.=107.049965, Alt.=4.873600m. Speed=0.072000m/h.</desc>
<speed>0.020000</speed>
</trkpt>
<trkpt lat="20.955999" lon="107.049965">
<ele>4.872746</ele>
<time>2011-04-30T12:50:33Z</time>
<desc>lat.=20.955999, lon.=107.049965, Alt.=4.872746m. Speed=0.108000m/h.</desc>
<speed>0.030000</speed>
</trkpt>
<trkpt lat="20.955999" lon="107.049965">
<ele>4.876530</ele>
<time>2011-04-30T12:50:38Z</time>
<desc>lat.=20.955999, lon.=107.049965, Alt.=4.876530m. Speed=0.072000m/h.</desc>
<speed>0.020000</speed>
</trkpt>
<trkpt lat="20.956001" lon="107.049965">
<ele>4.878361</ele>
<time>2011-04-30T12:50:43Z</time>
<desc>lat.=20.956001, lon.=107.049965, Alt.=4.878361m. Speed=0.036000m/h.</desc>
<speed>0.010000</speed>
</trkpt>
<trkpt lat="20.955999" lon="107.049965">
<ele>4.876286</ele>
<time>2011-04-30T12:50:48Z</time>
<desc>lat.=20.955999, lon.=107.049965, Alt.=4.876286m. Speed=0.180000m/h.</desc>
<speed>0.050000</speed>
</trkpt>
<trkpt lat="20.955997" lon="107.049965">
<ele>4.874577</ele>
<time>2011-04-30T12:50:53Z</time>
<desc>lat.=20.955997, lon.=107.049965, Alt.=4.874577m. Speed=0.144000m/h.</desc>
<speed>0.040000</speed>
</trkpt>
<trkpt lat="20.955997" lon="107.049957">
<ele>4.874210</ele>
<time>2011-04-30T12:50:58Z</time>
<desc>lat.=20.955997, lon.=107.049957, Alt.=4.874210m. Speed=0.108000m/h.</desc>
<speed>0.030000</speed>
</trkpt>
<trkpt lat="20.955997" lon="107.049957">
<ele>4.868107</ele>
<time>2011-04-30T12:51:03Z</time>
<desc>lat.=20.955997, lon.=107.049957, Alt.=4.868107m. Speed=0.576000m/h.</desc>
<speed>0.160000</speed>
</trkpt>
<trkpt lat="20.955996" lon="107.049950">
<ele>4.864567</ele>
<time>2011-04-30T12:51:08Z</time>
<desc>lat.=20.955996, lon.=107.049950, Alt.=4.864567m. Speed=0.504000m/h.</desc>
<speed>0.140000</speed>
</trkpt>
<trkpt lat="20.955994" lon="107.049950">
<ele>4.869083</ele>
<time>2011-04-30T12:51:13Z</time>
<desc>lat.=20.955994, lon.=107.049950, Alt.=4.869083m. Speed=0.396000m/h.</desc>
<speed>0.110000</speed>
</trkpt>
<trkpt lat="20.955997" lon="107.049950">
<ele>4.880192</ele>
<time>2011-04-30T12:51:18Z</time>
<desc>lat.=20.955997, lon.=107.049950, Alt.=4.880192m. Speed=0.180000m/h.</desc>
<speed>0.050000</speed>
</trkpt>
<trkpt lat="20.955997" lon="107.049950">
<ele>4.882877</ele>
<time>2011-04-30T12:51:23Z</time>
<desc>lat.=20.955997, lon.=107.049950, Alt.=4.882877m. Speed=0.252000m/h.</desc>
<speed>0.070000</speed>
</trkpt>
<trkpt lat="20.955997" lon="107.049957">
<ele>4.884220</ele>
<time>2011-04-30T12:51:28Z</time>
<desc>lat.=20.955997, lon.=107.049957, Alt.=4.884220m. Speed=0.216000m/h.</desc>
<speed>0.060000</speed>
</trkpt>
<trkpt lat="20.955996" lon="107.049957">
<ele>4.890568</ele>
<time>2011-04-30T12:51:33Z</time>
<desc>lat.=20.955996, lon.=107.049957, Alt.=4.890568m. Speed=0.720000m/h.</desc>
<speed>0.200000</speed>
</trkpt>
<trkpt lat="20.955997" lon="107.049965">
<ele>4.734928</ele>
<time>2011-04-30T12:51:38Z</time>
<desc>lat.=20.955997, lon.=107.049965, Alt.=4.734928m. Speed=0.360000m/h.</desc>
<speed>0.100000</speed>
</trkpt>
<trkpt lat="20.955996" lon="107.049965">
<ele>4.672062</ele>
<time>2011-04-30T12:51:43Z</time>
<desc>lat.=20.955996, lon.=107.049965, Alt.=4.672062m. Speed=0.180000m/h.</desc>
<speed>0.050000</speed>
</trkpt>
<trkpt lat="20.955994" lon="107.049965">
<ele>4.663151</ele>
<time>2011-04-30T12:51:48Z</time>
<desc>lat.=20.955994, lon.=107.049965, Alt.=4.663151m. Speed=0.252000m/h.</desc>
<speed>0.070000</speed>
</trkpt>
<trkpt lat="20.955990" lon="107.049965">
<ele>4.662907</ele>
<time>2011-04-30T12:51:53Z</time>
<desc>lat.=20.955990, lon.=107.049965, Alt.=4.662907m. Speed=0.288000m/h.</desc>
<speed>0.080000</speed>
</trkpt>
<trkpt lat="20.955990" lon="107.049965">
<ele>4.660709</ele>
<time>2011-04-30T12:51:58Z</time>
<desc>lat.=20.955990, lon.=107.049965, Alt.=4.660709m. Speed=0.000000m/h.</desc>
<speed>0.000000</speed>
</trkpt>
<trkpt lat="20.955990" lon="107.049957">
<ele>4.668278</ele>
<time>2011-04-30T12:52:03Z</time>
<desc>lat.=20.955990, lon.=107.049957, Alt.=4.668278m. Speed=0.108000m/h.</desc>
<speed>0.030000</speed>
</trkpt>
<trkpt lat="20.955990" lon="107.049957">
<ele>4.673649</ele>
<time>2011-04-30T12:52:08Z</time>
<desc>lat.=20.955990, lon.=107.049957, Alt.=4.673649m. Speed=0.216000m/h.</desc>
<speed>0.060000</speed>
</trkpt>
<trkpt lat="20.955990" lon="107.049950">
<ele>4.677433</ele>
<time>2011-04-30T12:52:13Z</time>
<desc>lat.=20.955990, lon.=107.049950, Alt.=4.677433m. Speed=0.468000m/h.</desc>
<speed>0.130000</speed>
</trkpt>
<trkpt lat="20.955986" lon="107.049957">
<ele>4.680241</ele>
<time>2011-04-30T12:52:18Z</time>
<desc>lat.=20.955986, lon.=107.049957, Alt.=4.680241m. Speed=0.036000m/h.</desc>
<speed>0.010000</speed>
</trkpt>
<trkpt lat="20.955988" lon="107.049950">
<ele>4.682560</ele>
<time>2011-04-30T12:52:23Z</time>
<desc>lat.=20.955988, lon.=107.049950, Alt.=4.682560m. Speed=0.288000m/h.</desc>
<speed>0.080000</speed>
</trkpt>
<trkpt lat="20.955988" lon="107.049950">
<ele>4.677677</ele>
<time>2011-04-30T12:52:28Z</time>
<desc>lat.=20.955988, lon.=107.049950, Alt.=4.677677m. Speed=0.216000m/h.</desc>
<speed>0.060000</speed>
</trkpt>
<trkpt lat="20.955986" lon="107.049957">
<ele>4.685123</ele>
<time>2011-04-30T12:52:33Z</time>
<desc>lat.=20.955986, lon.=107.049957, Alt.=4.685123m. Speed=0.396000m/h.</desc>
<speed>0.110000</speed>
</trkpt>
<trkpt lat="20.955984" lon="107.049957">
<ele>4.689152</ele>
<time>2011-04-30T12:52:38Z</time>
<desc>lat.=20.955984, lon.=107.049957, Alt.=4.689152m. Speed=0.144000m/h.</desc>
<speed>0.040000</speed>
</trkpt>
<trkpt lat="20.955986" lon="107.049957">
<ele>4.698917</ele>
<time>2011-04-30T12:52:43Z</time>
<desc>lat.=20.955986, lon.=107.049957, Alt.=4.698917m. Speed=0.180000m/h.</desc>
<speed>0.050000</speed>
</trkpt>
<trkpt lat="20.955986" lon="107.049965">
<ele>4.668644</ele>
<time>2011-04-30T12:52:48Z</time>
<desc>lat.=20.955986, lon.=107.049965, Alt.=4.668644m. Speed=0.108000m/h.</desc>
<speed>0.030000</speed>
</trkpt>
<trkpt lat="20.955986" lon="107.049965">
<ele>4.659489</ele>
<time>2011-04-30T12:52:53Z</time>
<desc>lat.=20.955986, lon.=107.049965, Alt.=4.659489m. Speed=0.072000m/h.</desc>
<speed>0.020000</speed>
</trkpt>
<trkpt lat="20.955986" lon="107.049965">
<ele>4.648869</ele>
<time>2011-04-30T12:52:58Z</time>
<desc>lat.=20.955986, lon.=107.049965, Alt.=4.648869m. Speed=0.000000m/h.</desc>
<speed>0.000000</speed>
</trkpt>
<trkpt lat="20.955986" lon="107.049965">
<ele>4.646305</ele>
<time>2011-04-30T12:53:03Z</time>
<desc>lat.=20.955986, lon.=107.049965, Alt.=4.646305m. Speed=0.144000m/h.</desc>
<speed>0.040000</speed>
</trkpt>
<trkpt lat="20.955984" lon="107.049965">
<ele>4.625065</ele>
<time>2011-04-30T12:53:08Z</time>
<desc>lat.=20.955984, lon.=107.049965, Alt.=4.625065m. Speed=0.072000m/h.</desc>
<speed>0.020000</speed>
</trkpt>
<trkpt lat="20.955984" lon="107.049965">
<ele>4.594913</ele>
<time>2011-04-30T12:53:13Z</time>
<desc>lat.=20.955984, lon.=107.049965, Alt.=4.594913m. Speed=0.000000m/h.</desc>
<speed>0.000000</speed>
</trkpt>
<trkpt lat="20.955984" lon="107.049965">
<ele>4.597721</ele>
<time>2011-04-30T12:53:18Z</time>
<desc>lat.=20.955984, lon.=107.049965, Alt.=4.597721m. Speed=0.108000m/h.</desc>
<speed>0.030000</speed>
</trkpt>
<trkpt lat="20.955984" lon="107.049965">
<ele>4.613346</ele>
<time>2011-04-30T12:53:23Z</time>
<desc>lat.=20.955984, lon.=107.049965, Alt.=4.613346m. Speed=0.000000m/h.</desc>
<speed>0.000000</speed>
</trkpt>
<trkpt lat="20.955984" lon="107.049965">
<ele>4.591740</ele>
<time>2011-04-30T12:53:28Z</time>
<desc>lat.=20.955984, lon.=107.049965, Alt.=4.591740m. Speed=0.036000m/h.</desc>
<speed>0.010000</speed>
</trkpt>
<trkpt lat="20.955984" lon="107.049965">
<ele>4.557926</ele>
<time>2011-04-30T12:53:33Z</time>
<desc>lat.=20.955984, lon.=107.049965, Alt.=4.557926m. Speed=0.000000m/h.</desc>
<speed>0.000000</speed>
</trkpt>
<trkpt lat="20.955984" lon="107.049965">
<ele>4.529728</ele>
<time>2011-04-30T12:53:38Z</time>
<desc>lat.=20.955984, lon.=107.049965, Alt.=4.529728m. Speed=0.000000m/h.</desc>
<speed>0.000000</speed>
</trkpt>
<trkpt lat="20.955984" lon="107.049965">
<ele>4.522038</ele>
<time>2011-04-30T12:53:43Z</time>
<desc>lat.=20.955984, lon.=107.049965, Alt.=4.522038m. Speed=0.000000m/h.</desc>
<speed>0.000000</speed>
</trkpt>
<trkpt lat="20.955984" lon="107.049965">
<ele>4.538517</ele>
<time>2011-04-30T12:53:48Z</time>
<desc>lat.=20.955984, lon.=107.049965, Alt.=4.538517m. Speed=0.036000m/h.</desc>
<speed>0.010000</speed>
</trkpt>
<trkpt lat="20.955984" lon="107.049965">
<ele>4.552067</ele>
<time>2011-04-30T12:53:53Z</time>
<desc>lat.=20.955984, lon.=107.049965, Alt.=4.552067m. Speed=0.000000m/h.</desc>
<speed>0.000000</speed>
</trkpt>
<trkpt lat="20.955984" lon="107.049965">
<ele>4.575382</ele>
<time>2011-04-30T12:53:58Z</time>
<desc>lat.=20.955984, lon.=107.049965, Alt.=4.575382m. Speed=0.072000m/h.</desc>
<speed>0.020000</speed>
</trkpt>
<trkpt lat="20.955984" lon="107.049965">
<ele>4.556828</ele>
<time>2011-04-30T12:54:03Z</time>
<desc>lat.=20.955984, lon.=107.049965, Alt.=4.556828m. Speed=0.036000m/h.</desc>
<speed>0.010000</speed>
</trkpt>
<trkpt lat="20.955984" lon="107.049965">
<ele>4.538273</ele>
<time>2011-04-30T12:54:08Z</time>
<desc>lat.=20.955984, lon.=107.049965, Alt.=4.538273m. Speed=0.036000m/h.</desc>
<speed>0.010000</speed>
</trkpt>
<trkpt lat="20.955984" lon="107.049965">
<ele>4.518742</ele>
<time>2011-04-30T12:54:13Z</time>
<desc>lat.=20.955984, lon.=107.049965, Alt.=4.518742m. Speed=0.000000m/h.</desc>
<speed>0.000000</speed>
</trkpt>
<trkpt lat="20.955984" lon="107.049965">
<ele>4.442326</ele>
<time>2011-04-30T12:54:18Z</time>
<desc>lat.=20.955984, lon.=107.049965, Alt.=4.442326m. Speed=0.000000m/h.</desc>
<speed>0.000000</speed>
</trkpt>
<trkpt lat="20.955984" lon="107.049965">
<ele>4.411198</ele>
<time>2011-04-30T12:54:23Z</time>
<desc>lat.=20.955984, lon.=107.049965, Alt.=4.411198m. Speed=0.072000m/h.</desc>
<speed>0.020000</speed>
</trkpt>
<trkpt lat="20.955984" lon="107.049965">
<ele>4.406071</ele>
<time>2011-04-30T12:54:28Z</time>
<desc>lat.=20.955984, lon.=107.049965, Alt.=4.406071m. Speed=0.036000m/h.</desc>
<speed>0.010000</speed>
</trkpt>
<trkpt lat="20.955984" lon="107.049965">
<ele>4.398502</ele>
<time>2011-04-30T12:54:33Z</time>
<desc>lat.=20.955984, lon.=107.049965, Alt.=4.398502m. Speed=0.000000m/h.</desc>
<speed>0.000000</speed>
</trkpt>
<trkpt lat="20.955984" lon="107.049965">
<ele>4.434391</ele>
<time>2011-04-30T12:54:38Z</time>
<desc>lat.=20.955984, lon.=107.049965, Alt.=4.434391m. Speed=0.180000m/h.</desc>
<speed>0.050000</speed>
</trkpt>
<trkpt lat="20.955984" lon="107.049965">
<ele>4.465031</ele>
<time>2011-04-30T12:54:43Z</time>
<desc>lat.=20.955984, lon.=107.049965, Alt.=4.465031m. Speed=0.036000m/h.</desc>
<speed>0.010000</speed>
</trkpt>
<trkpt lat="20.955984" lon="107.049965">
<ele>4.512760</ele>
<time>2011-04-30T12:54:48Z</time>
<desc>lat.=20.955984, lon.=107.049965, Alt.=4.512760m. Speed=0.036000m/h.</desc>
<speed>0.010000</speed>
</trkpt>
<trkpt lat="20.955984" lon="107.049965">
<ele>4.550358</ele>
<time>2011-04-30T12:54:53Z</time>
<desc>lat.=20.955984, lon.=107.049965, Alt.=4.550358m. Speed=0.036000m/h.</desc>
<speed>0.010000</speed>
</trkpt>
<trkpt lat="20.955984" lon="107.049965">
<ele>4.597599</ele>
<time>2011-04-30T12:54:58Z</time>
<desc>lat.=20.955984, lon.=107.049965, Alt.=4.597599m. Speed=0.000000m/h.</desc>
<speed>0.000000</speed>
</trkpt>
<trkpt lat="20.955984" lon="107.049965">
<ele>4.679020</ele>
<time>2011-04-30T12:55:03Z</time>
<desc>lat.=20.955984, lon.=107.049965, Alt.=4.679020m. Speed=0.072000m/h.</desc>
<speed>0.020000</speed>
</trkpt>
<trkpt lat="20.955982" lon="107.049965">
<ele>4.698429</ele>
<time>2011-04-30T12:55:08Z</time>
<desc>lat.=20.955982, lon.=107.049965, Alt.=4.698429m. Speed=0.036000m/h.</desc>
<speed>0.010000</speed>
</trkpt>
<trkpt lat="20.955982" lon="107.049965">
<ele>4.751163</ele>
<time>2011-04-30T12:55:13Z</time>
<desc>lat.=20.955982, lon.=107.049965, Alt.=4.751163m. Speed=0.036000m/h.</desc>
<speed>0.010000</speed>
</trkpt>
<trkpt lat="20.955982" lon="107.049965">
<ele>4.785954</ele>
<time>2011-04-30T12:55:18Z</time>
<desc>lat.=20.955982, lon.=107.049965, Alt.=4.785954m. Speed=0.036000m/h.</desc>
<speed>0.010000</speed>
</trkpt>
<trkpt lat="20.955982" lon="107.049965">
<ele>4.826237</ele>
<time>2011-04-30T12:55:23Z</time>
<desc>lat.=20.955982, lon.=107.049965, Alt.=4.826237m. Speed=0.144000m/h.</desc>
<speed>0.040000</speed>
</trkpt>
<trkpt lat="20.955982" lon="107.049965">
<ele>4.843693</ele>
<time>2011-04-30T12:55:28Z</time>
<desc>lat.=20.955982, lon.=107.049965, Alt.=4.843693m. Speed=0.036000m/h.</desc>
<speed>0.010000</speed>
</trkpt>
<trkpt lat="20.955982" lon="107.049965">
<ele>4.882389</ele>
<time>2011-04-30T12:55:33Z</time>
<desc>lat.=20.955982, lon.=107.049965, Alt.=4.882389m. Speed=0.108000m/h.</desc>
<speed>0.030000</speed>
</trkpt>
<trkpt lat="20.955982" lon="107.049965">
<ele>4.941837</ele>
<time>2011-04-30T12:55:38Z</time>
<desc>lat.=20.955982, lon.=107.049965, Alt.=4.941837m. Speed=0.036000m/h.</desc>
<speed>0.010000</speed>
</trkpt>
<trkpt lat="20.955982" lon="107.049965">
<ele>4.972721</ele>
<time>2011-04-30T12:55:43Z</time>
<desc>lat.=20.955982, lon.=107.049965, Alt.=4.972721m. Speed=0.000000m/h.</desc>
<speed>0.000000</speed>
</trkpt>
<trkpt lat="20.955982" lon="107.049965">
<ele>4.993229</ele>
<time>2011-04-30T12:55:48Z</time>
<desc>lat.=20.955982, lon.=107.049965, Alt.=4.993229m. Speed=0.000000m/h.</desc>
<speed>0.000000</speed>
</trkpt>
<trkpt lat="20.955982" lon="107.049965">
<ele>4.966373</ele>
<time>2011-04-30T12:55:53Z</time>
<desc>lat.=20.955982, lon.=107.049965, Alt.=4.966373m. Speed=0.108000m/h.</desc>
<speed>0.030000</speed>
</trkpt>
<trkpt lat="20.955982" lon="107.049965">
<ele>4.993351</ele>
<time>2011-04-30T12:55:58Z</time>
<desc>lat.=20.955982, lon.=107.049965, Alt.=4.993351m. Speed=0.000000m/h.</desc>
<speed>0.000000</speed>
</trkpt>
<trkpt lat="20.955982" lon="107.049965">
<ele>5.000675</ele>
<time>2011-04-30T12:56:03Z</time>
<desc>lat.=20.955982, lon.=107.049965, Alt.=5.000675m. Speed=0.000000m/h.</desc>
<speed>0.000000</speed>
</trkpt>
<trkpt lat="20.955982" lon="107.049965">
<ele>5.012028</ele>
<time>2011-04-30T12:56:08Z</time>
<desc>lat.=20.955982, lon.=107.049965, Alt.=5.012028m. Speed=0.036000m/h.</desc>
<speed>0.010000</speed>
</trkpt>
<trkpt lat="20.955982" lon="107.049965">
<ele>5.038151</ele>
<time>2011-04-30T12:56:13Z</time>
<desc>lat.=20.955982, lon.=107.049965, Alt.=5.038151m. Speed=0.000000m/h.</desc>
<speed>0.000000</speed>
</trkpt>
<trkpt lat="20.955982" lon="107.049965">
<ele>5.061588</ele>
<time>2011-04-30T12:56:18Z</time>
<desc>lat.=20.955982, lon.=107.049965, Alt.=5.061588m. Speed=0.000000m/h.</desc>
<speed>0.000000</speed>
</trkpt>
<trkpt lat="20.955982" lon="107.049965">
<ele>5.093082</ele>
<time>2011-04-30T12:56:23Z</time>
<desc>lat.=20.955982, lon.=107.049965, Alt.=5.093082m. Speed=0.036000m/h.</desc>
<speed>0.010000</speed>
</trkpt>
<trkpt lat="20.955982" lon="107.049965">
<ele>5.122013</ele>
<time>2011-04-30T12:56:28Z</time>
<desc>lat.=20.955982, lon.=107.049965, Alt.=5.122013m. Speed=0.000000m/h.</desc>
<speed>0.000000</speed>
</trkpt>
<trkpt lat="20.955982" lon="107.049965">
<ele>5.157047</ele>
<time>2011-04-30T12:56:33Z</time>
<desc>lat.=20.955982, lon.=107.049965, Alt.=5.157047m. Speed=0.000000m/h.</desc>
<speed>0.000000</speed>
</trkpt>
<trkpt lat="20.955982" lon="107.049965">
<ele>5.222843</ele>
<time>2011-04-30T12:56:38Z</time>
<desc>lat.=20.955982, lon.=107.049965, Alt.=5.222843m. Speed=0.036000m/h.</desc>
<speed>0.010000</speed>
</trkpt>
<trkpt lat="20.955982" lon="107.049965">
<ele>5.266911</ele>
<time>2011-04-30T12:56:43Z</time>
<desc>lat.=20.955982, lon.=107.049965, Alt.=5.266911m. Speed=0.000000m/h.</desc>
<speed>0.000000</speed>
</trkpt>
<trkpt lat="20.955982" lon="107.049965">
<ele>5.304630</ele>
<time>2011-04-30T12:56:48Z</time>
<desc>lat.=20.955982, lon.=107.049965, Alt.=5.304630m. Speed=0.000000m/h.</desc>
<speed>0.000000</speed>
</trkpt>
<trkpt lat="20.955982" lon="107.049965">
<ele>5.330875</ele>
<time>2011-04-30T12:56:53Z</time>
<desc>lat.=20.955982, lon.=107.049965, Alt.=5.330875m. Speed=0.000000m/h.</desc>
<speed>0.000000</speed>
</trkpt>
<trkpt lat="20.955982" lon="107.049965">
<ele>5.337955</ele>
<time>2011-04-30T12:56:58Z</time>
<desc>lat.=20.955982, lon.=107.049965, Alt.=5.337955m. Speed=0.036000m/h.</desc>
<speed>0.010000</speed>
</trkpt>
<trkpt lat="20.955982" lon="107.049965">
<ele>5.340153</ele>
<time>2011-04-30T12:57:03Z</time>
<desc>lat.=20.955982, lon.=107.049965, Alt.=5.340153m. Speed=0.036000m/h.</desc>
<speed>0.010000</speed>
</trkpt>
<trkpt lat="20.955982" lon="107.049965">
<ele>5.349430</ele>
<time>2011-04-30T12:57:08Z</time>
<desc>lat.=20.955982, lon.=107.049965, Alt.=5.349430m. Speed=0.000000m/h.</desc>
<speed>0.000000</speed>
</trkpt>
<trkpt lat="20.955982" lon="107.049965">
<ele>5.347355</ele>
<time>2011-04-30T12:57:13Z</time>
<desc>lat.=20.955982, lon.=107.049965, Alt.=5.347355m. Speed=0.000000m/h.</desc>
<speed>0.000000</speed>
</trkpt>
<trkpt lat="20.955982" lon="107.049965">
<ele>5.331730</ele>
<time>2011-04-30T12:57:18Z</time>
<desc>lat.=20.955982, lon.=107.049965, Alt.=5.331730m. Speed=0.072000m/h.</desc>
<speed>0.020000</speed>
</trkpt>
<trkpt lat="20.955982" lon="107.049965">
<ele>5.335392</ele>
<time>2011-04-30T12:57:23Z</time>
<desc>lat.=20.955982, lon.=107.049965, Alt.=5.335392m. Speed=0.000000m/h.</desc>
<speed>0.000000</speed>
</trkpt>
<trkpt lat="20.955982" lon="107.049965">
<ele>5.340031</ele>
<time>2011-04-30T12:57:28Z</time>
<desc>lat.=20.955982, lon.=107.049965, Alt.=5.340031m. Speed=0.072000m/h.</desc>
<speed>0.020000</speed>
</trkpt>
<trkpt lat="20.955982" lon="107.049965">
<ele>5.337467</ele>
<time>2011-04-30T12:57:33Z</time>
<desc>lat.=20.955982, lon.=107.049965, Alt.=5.337467m. Speed=0.072000m/h.</desc>
<speed>0.020000</speed>
</trkpt>
<trkpt lat="20.955982" lon="107.049965">
<ele>5.346378</ele>
<time>2011-04-30T12:57:38Z</time>
<desc>lat.=20.955982, lon.=107.049965, Alt.=5.346378m. Speed=0.072000m/h.</desc>
<speed>0.020000</speed>
</trkpt>
<trkpt lat="20.955980" lon="107.049965">
<ele>5.369205</ele>
<time>2011-04-30T12:57:43Z</time>
<desc>lat.=20.955980, lon.=107.049965, Alt.=5.369205m. Speed=0.072000m/h.</desc>
<speed>0.020000</speed>
</trkpt>
<trkpt lat="20.955980" lon="107.049965">
<ele>5.377018</ele>
<time>2011-04-30T12:57:48Z</time>
<desc>lat.=20.955980, lon.=107.049965, Alt.=5.377018m. Speed=0.036000m/h.</desc>
<speed>0.010000</speed>
</trkpt>
<trkpt lat="20.955980" lon="107.049965">
<ele>5.380802</ele>
<time>2011-04-30T12:57:53Z</time>
<desc>lat.=20.955980, lon.=107.049965, Alt.=5.380802m. Speed=0.180000m/h.</desc>
<speed>0.050000</speed>
</trkpt>
<trkpt lat="20.955980" lon="107.049965">
<ele>5.377018</ele>
<time>2011-04-30T12:57:58Z</time>
<desc>lat.=20.955980, lon.=107.049965, Alt.=5.377018m. Speed=0.072000m/h.</desc>
<speed>0.020000</speed>
</trkpt>
<trkpt lat="20.955980" lon="107.049965">
<ele>5.360294</ele>
<time>2011-04-30T12:58:03Z</time>
<desc>lat.=20.955980, lon.=107.049965, Alt.=5.360294m. Speed=0.072000m/h.</desc>
<speed>0.020000</speed>
</trkpt>
<trkpt lat="20.955980" lon="107.049965">
<ele>5.312931</ele>
<time>2011-04-30T12:58:08Z</time>
<desc>lat.=20.955980, lon.=107.049965, Alt.=5.312931m. Speed=0.036000m/h.</desc>
<speed>0.010000</speed>
</trkpt>
<trkpt lat="20.955980" lon="107.049965">
<ele>5.264469</ele>
<time>2011-04-30T12:58:13Z</time>
<desc>lat.=20.955980, lon.=107.049965, Alt.=5.264469m. Speed=0.108000m/h.</desc>
<speed>0.030000</speed>
</trkpt>
<trkpt lat="20.955980" lon="107.049965">
<ele>5.209538</ele>
<time>2011-04-30T12:58:18Z</time>
<desc>lat.=20.955980, lon.=107.049965, Alt.=5.209538m. Speed=0.000000m/h.</desc>
<speed>0.000000</speed>
</trkpt>
<trkpt lat="20.955980" lon="107.049965">
<ele>5.142155</ele>
<time>2011-04-30T12:58:23Z</time>
<desc>lat.=20.955980, lon.=107.049965, Alt.=5.142155m. Speed=0.036000m/h.</desc>
<speed>0.010000</speed>
</trkpt>
<trkpt lat="20.955980" lon="107.049965">
<ele>5.043644</ele>
<time>2011-04-30T12:58:28Z</time>
<desc>lat.=20.955980, lon.=107.049965, Alt.=5.043644m. Speed=0.000000m/h.</desc>
<speed>0.000000</speed>
</trkpt>
<trkpt lat="20.955980" lon="107.049965">
<ele>4.974308</ele>
<time>2011-04-30T12:58:33Z</time>
<desc>lat.=20.955980, lon.=107.049965, Alt.=4.974308m. Speed=0.036000m/h.</desc>
<speed>0.010000</speed>
</trkpt>
<trkpt lat="20.955980" lon="107.049965">
<ele>4.956120</ele>
<time>2011-04-30T12:58:38Z</time>
<desc>lat.=20.955980, lon.=107.049965, Alt.=4.956120m. Speed=0.144000m/h.</desc>
<speed>0.040000</speed>
</trkpt>
<trkpt lat="20.955980" lon="107.049965">
<ele>4.940128</ele>
<time>2011-04-30T12:58:43Z</time>
<desc>lat.=20.955980, lon.=107.049965, Alt.=4.940128m. Speed=0.036000m/h.</desc>
<speed>0.010000</speed>
</trkpt>
<trkpt lat="20.955980" lon="107.049965">
<ele>4.923283</ele>
<time>2011-04-30T12:58:48Z</time>
<desc>lat.=20.955980, lon.=107.049965, Alt.=4.923283m. Speed=0.000000m/h.</desc>
<speed>0.000000</speed>
</trkpt>
<trkpt lat="20.955980" lon="107.049965">
<ele>4.888737</ele>
<time>2011-04-30T12:58:53Z</time>
<desc>lat.=20.955980, lon.=107.049965, Alt.=4.888737m. Speed=0.000000m/h.</desc>
<speed>0.000000</speed>
</trkpt>
<trkpt lat="20.955980" lon="107.049965">
<ele>4.845524</ele>
<time>2011-04-30T12:58:58Z</time>
<desc>lat.=20.955980, lon.=107.049965, Alt.=4.845524m. Speed=0.000000m/h.</desc>
<speed>0.000000</speed>
</trkpt>
<trkpt lat="20.955980" lon="107.049965">
<ele>4.802433</ele>
<time>2011-04-30T12:59:03Z</time>
<desc>lat.=20.955980, lon.=107.049965, Alt.=4.802433m. Speed=0.036000m/h.</desc>
<speed>0.010000</speed>
</trkpt>
<trkpt lat="20.955980" lon="107.049965">
<ele>4.749699</ele>
<time>2011-04-30T12:59:08Z</time>
<desc>lat.=20.955980, lon.=107.049965, Alt.=4.749699m. Speed=0.072000m/h.</desc>
<speed>0.020000</speed>
</trkpt>
<trkpt lat="20.955980" lon="107.049965">
<ele>4.712223</ele>
<time>2011-04-30T12:59:13Z</time>
<desc>lat.=20.955980, lon.=107.049965, Alt.=4.712223m. Speed=0.000000m/h.</desc>
<speed>0.000000</speed>
</trkpt>
<trkpt lat="20.955980" lon="107.049965">
<ele>4.694401</ele>
<time>2011-04-30T12:59:18Z</time>
<desc>lat.=20.955980, lon.=107.049965, Alt.=4.694401m. Speed=0.108000m/h.</desc>
<speed>0.030000</speed>
</trkpt>
<trkpt lat="20.955980" lon="107.049965">
<ele>4.685978</ele>
<time>2011-04-30T12:59:23Z</time>
<desc>lat.=20.955980, lon.=107.049965, Alt.=4.685978m. Speed=0.036000m/h.</desc>
<speed>0.010000</speed>
</trkpt>
<trkpt lat="20.955980" lon="107.049965">
<ele>4.658512</ele>
<time>2011-04-30T12:59:28Z</time>
<desc>lat.=20.955980, lon.=107.049965, Alt.=4.658512m. Speed=0.000000m/h.</desc>
<speed>0.000000</speed>
</trkpt>
<trkpt lat="20.955980" lon="107.049965">
<ele>4.633854</ele>
<time>2011-04-30T12:59:33Z</time>
<desc>lat.=20.955980, lon.=107.049965, Alt.=4.633854m. Speed=0.000000m/h.</desc>
<speed>0.000000</speed>
</trkpt>
<trkpt lat="20.955982" lon="107.049965">
<ele>4.610783</ele>
<time>2011-04-30T12:59:38Z</time>
<desc>lat.=20.955982, lon.=107.049965, Alt.=4.610783m. Speed=0.036000m/h.</desc>
<speed>0.010000</speed>
</trkpt>
<trkpt lat="20.955980" lon="107.049965">
<ele>4.604435</ele>
<time>2011-04-30T12:59:43Z</time>
<desc>lat.=20.955980, lon.=107.049965, Alt.=4.604435m. Speed=0.036000m/h.</desc>
<speed>0.010000</speed>
</trkpt>
<trkpt lat="20.955980" lon="107.049965">
<ele>4.594669</ele>
<time>2011-04-30T12:59:48Z</time>
<desc>lat.=20.955980, lon.=107.049965, Alt.=4.594669m. Speed=0.072000m/h.</desc>
<speed>0.020000</speed>
</trkpt>
<trkpt lat="20.955980" lon="107.049965">
<ele>4.579166</ele>
<time>2011-04-30T12:59:53Z</time>
<desc>lat.=20.955980, lon.=107.049965, Alt.=4.579166m. Speed=0.000000m/h.</desc>
<speed>0.000000</speed>
</trkpt>
<trkpt lat="20.955980" lon="107.049965">
<ele>4.541691</ele>
<time>2011-04-30T12:59:58Z</time>
<desc>lat.=20.955980, lon.=107.049965, Alt.=4.541691m. Speed=0.036000m/h.</desc>
<speed>0.010000</speed>
</trkpt>
<trkpt lat="20.955980" lon="107.049965">
<ele>4.531193</ele>
<time>2011-04-30T13:00:03Z</time>
<desc>lat.=20.955980, lon.=107.049965, Alt.=4.531193m. Speed=0.000000m/h.</desc>
<speed>0.000000</speed>
</trkpt>
<trkpt lat="20.955980" lon="107.049965">
<ele>4.516178</ele>
<time>2011-04-30T13:00:08Z</time>
<desc>lat.=20.955980, lon.=107.049965, Alt.=4.516178m. Speed=0.036000m/h.</desc>
<speed>0.010000</speed>
</trkpt>
<trkpt lat="20.955980" lon="107.049965">
<ele>4.491642</ele>
<time>2011-04-30T13:00:13Z</time>
<desc>lat.=20.955980, lon.=107.049965, Alt.=4.491642m. Speed=0.000000m/h.</desc>
<speed>0.000000</speed>
</trkpt>
<trkpt lat="20.955980" lon="107.049965">
<ele>4.481632</ele>
<time>2011-04-30T13:00:18Z</time>
<desc>lat.=20.955980, lon.=107.049965, Alt.=4.481632m. Speed=0.108000m/h.</desc>
<speed>0.030000</speed>
</trkpt>
<trkpt lat="20.955980" lon="107.049965">
<ele>4.459660</ele>
<time>2011-04-30T13:00:23Z</time>
<desc>lat.=20.955980, lon.=107.049965, Alt.=4.459660m. Speed=0.000000m/h.</desc>
<speed>0.000000</speed>
</trkpt>
<trkpt lat="20.955980" lon="107.049965">
<ele>4.437809</ele>
<time>2011-04-30T13:00:28Z</time>
<desc>lat.=20.955980, lon.=107.049965, Alt.=4.437809m. Speed=0.036000m/h.</desc>
<speed>0.010000</speed>
</trkpt>
<trkpt lat="20.955980" lon="107.049965">
<ele>4.451725</ele>
<time>2011-04-30T13:00:33Z</time>
<desc>lat.=20.955980, lon.=107.049965, Alt.=4.451725m. Speed=0.036000m/h.</desc>
<speed>0.010000</speed>
</trkpt>
<trkpt lat="20.955980" lon="107.049965">
<ele>4.461735</ele>
<time>2011-04-30T13:00:38Z</time>
<desc>lat.=20.955980, lon.=107.049965, Alt.=4.461735m. Speed=0.000000m/h.</desc>
<speed>0.000000</speed>
</trkpt>
<trkpt lat="20.955980" lon="107.049965">
<ele>4.490910</ele>
<time>2011-04-30T13:00:43Z</time>
<desc>lat.=20.955980, lon.=107.049965, Alt.=4.490910m. Speed=0.072000m/h.</desc>
<speed>0.020000</speed>
</trkpt>
<trkpt lat="20.955980" lon="107.049965">
<ele>4.496281</ele>
<time>2011-04-30T13:00:48Z</time>
<desc>lat.=20.955980, lon.=107.049965, Alt.=4.496281m. Speed=0.000000m/h.</desc>
<speed>0.000000</speed>
</trkpt>
<trkpt lat="20.955980" lon="107.049965">
<ele>4.488224</ele>
<time>2011-04-30T13:00:53Z</time>
<desc>lat.=20.955980, lon.=107.049965, Alt.=4.488224m. Speed=0.036000m/h.</desc>
<speed>0.010000</speed>
</trkpt>
<trkpt lat="20.955980" lon="107.049965">
<ele>4.488590</ele>
<time>2011-04-30T13:00:58Z</time>
<desc>lat.=20.955980, lon.=107.049965, Alt.=4.488590m. Speed=0.000000m/h.</desc>
<speed>0.000000</speed>
</trkpt>
<trkpt lat="20.955980" lon="107.049965">
<ele>4.490543</ele>
<time>2011-04-30T13:01:03Z</time>
<desc>lat.=20.955980, lon.=107.049965, Alt.=4.490543m. Speed=0.000000m/h.</desc>
<speed>0.000000</speed>
</trkpt>
<trkpt lat="20.955980" lon="107.049965">
<ele>4.501286</ele>
<time>2011-04-30T13:01:08Z</time>
<desc>lat.=20.955980, lon.=107.049965, Alt.=4.501286m. Speed=0.072000m/h.</desc>
<speed>0.020000</speed>
</trkpt>
<trkpt lat="20.955980" lon="107.049965">
<ele>4.514835</ele>
<time>2011-04-30T13:01:13Z</time>
<desc>lat.=20.955980, lon.=107.049965, Alt.=4.514835m. Speed=0.000000m/h.</desc>
<speed>0.000000</speed>
</trkpt>
<trkpt lat="20.955980" lon="107.049965">
<ele>4.536198</ele>
<time>2011-04-30T13:01:18Z</time>
<desc>lat.=20.955980, lon.=107.049965, Alt.=4.536198m. Speed=0.072000m/h.</desc>
<speed>0.020000</speed>
</trkpt>
<trkpt lat="20.955980" lon="107.049965">
<ele>4.554874</ele>
<time>2011-04-30T13:01:23Z</time>
<desc>lat.=20.955980, lon.=107.049965, Alt.=4.554874m. Speed=0.000000m/h.</desc>
<speed>0.000000</speed>
</trkpt>
<trkpt lat="20.955980" lon="107.049965">
<ele>4.559879</ele>
<time>2011-04-30T13:01:28Z</time>
<desc>lat.=20.955980, lon.=107.049965, Alt.=4.559879m. Speed=0.000000m/h.</desc>
<speed>0.000000</speed>
</trkpt>
<trkpt lat="20.955980" lon="107.049965">
<ele>4.557926</ele>
<time>2011-04-30T13:01:33Z</time>
<desc>lat.=20.955980, lon.=107.049965, Alt.=4.557926m. Speed=0.000000m/h.</desc>
<speed>0.000000</speed>
</trkpt>
<trkpt lat="20.955980" lon="107.049965">
<ele>4.547794</ele>
<time>2011-04-30T13:01:38Z</time>
<desc>lat.=20.955980, lon.=107.049965, Alt.=4.547794m. Speed=0.036000m/h.</desc>
<speed>0.010000</speed>
</trkpt>
<trkpt lat="20.955980" lon="107.049965">
<ele>4.533390</ele>
<time>2011-04-30T13:01:43Z</time>
<desc>lat.=20.955980, lon.=107.049965, Alt.=4.533390m. Speed=0.036000m/h.</desc>
<speed>0.010000</speed>
</trkpt>
<trkpt lat="20.955980" lon="107.049965">
<ele>4.545475</ele>
<time>2011-04-30T13:01:48Z</time>
<desc>lat.=20.955980, lon.=107.049965, Alt.=4.545475m. Speed=0.000000m/h.</desc>
<speed>0.000000</speed>
</trkpt>
<trkpt lat="20.955980" lon="107.049965">
<ele>4.545475</ele>
<time>2011-04-30T13:01:53Z</time>
<desc>lat.=20.955980, lon.=107.049965, Alt.=4.545475m. Speed=0.000000m/h.</desc>
<speed>0.000000</speed>
</trkpt>
<trkpt lat="20.955980" lon="107.049965">
<ele>4.563053</ele>
<time>2011-04-30T13:01:58Z</time>
<desc>lat.=20.955980, lon.=107.049965, Alt.=4.563053m. Speed=0.000000m/h.</desc>
<speed>0.000000</speed>
</trkpt>
<trkpt lat="20.955980" lon="107.049965">
<ele>4.562565</ele>
<time>2011-04-30T13:02:03Z</time>
<desc>lat.=20.955980, lon.=107.049965, Alt.=4.562565m. Speed=0.000000m/h.</desc>
<speed>0.000000</speed>
</trkpt>
<trkpt lat="20.955980" lon="107.049965">
<ele>4.568913</ele>
<time>2011-04-30T13:02:08Z</time>
<desc>lat.=20.955980, lon.=107.049965, Alt.=4.568913m. Speed=0.072000m/h.</desc>
<speed>0.020000</speed>
</trkpt>
<trkpt lat="20.955980" lon="107.049965">
<ele>4.583805</ele>
<time>2011-04-30T13:02:13Z</time>
<desc>lat.=20.955980, lon.=107.049965, Alt.=4.583805m. Speed=0.036000m/h.</desc>
<speed>0.010000</speed>
</trkpt>
<trkpt lat="20.955980" lon="107.049965">
<ele>4.606022</ele>
<time>2011-04-30T13:02:18Z</time>
<desc>lat.=20.955980, lon.=107.049965, Alt.=4.606022m. Speed=0.000000m/h.</desc>
<speed>0.000000</speed>
</trkpt>
<trkpt lat="20.955980" lon="107.049965">
<ele>4.639347</ele>
<time>2011-04-30T13:02:23Z</time>
<desc>lat.=20.955980, lon.=107.049965, Alt.=4.639347m. Speed=0.000000m/h.</desc>
<speed>0.000000</speed>
</trkpt>
<trkpt lat="20.955982" lon="107.049965">
<ele>4.657536</ele>
<time>2011-04-30T13:02:28Z</time>
<desc>lat.=20.955982, lon.=107.049965, Alt.=4.657536m. Speed=0.036000m/h.</desc>
<speed>0.010000</speed>
</trkpt>
<trkpt lat="20.955982" lon="107.049965">
<ele>4.682194</ele>
<time>2011-04-30T13:02:33Z</time>
<desc>lat.=20.955982, lon.=107.049965, Alt.=4.682194m. Speed=0.000000m/h.</desc>
<speed>0.000000</speed>
</trkpt>
<trkpt lat="20.955982" lon="107.049965">
<ele>4.700993</ele>
<time>2011-04-30T13:02:38Z</time>
<desc>lat.=20.955982, lon.=107.049965, Alt.=4.700993m. Speed=0.036000m/h.</desc>
<speed>0.010000</speed>
</trkpt>
<trkpt lat="20.955982" lon="107.049965">
<ele>4.735538</ele>
<time>2011-04-30T13:02:43Z</time>
<desc>lat.=20.955982, lon.=107.049965, Alt.=4.735538m. Speed=0.000000m/h.</desc>
<speed>0.000000</speed>
</trkpt>
<trkpt lat="20.955982" lon="107.049965">
<ele>4.753239</ele>
<time>2011-04-30T13:02:48Z</time>
<desc>lat.=20.955982, lon.=107.049965, Alt.=4.753239m. Speed=0.036000m/h.</desc>
<speed>0.010000</speed>
</trkpt>
<trkpt lat="20.955982" lon="107.049965">
<ele>4.761662</ele>
<time>2011-04-30T13:02:53Z</time>
<desc>lat.=20.955982, lon.=107.049965, Alt.=4.761662m. Speed=0.000000m/h.</desc>
<speed>0.000000</speed>
</trkpt>
<trkpt lat="20.955982" lon="107.049965">
<ele>4.769840</ele>
<time>2011-04-30T13:02:58Z</time>
<desc>lat.=20.955982, lon.=107.049965, Alt.=4.769840m. Speed=0.036000m/h.</desc>
<speed>0.010000</speed>
</trkpt>
<trkpt lat="20.955982" lon="107.049965">
<ele>4.776432</ele>
<time>2011-04-30T13:03:03Z</time>
<desc>lat.=20.955982, lon.=107.049965, Alt.=4.776432m. Speed=0.000000m/h.</desc>
<speed>0.000000</speed>
</trkpt>
<trkpt lat="20.955982" lon="107.049965">
<ele>4.781803</ele>
<time>2011-04-30T13:03:08Z</time>
<desc>lat.=20.955982, lon.=107.049965, Alt.=4.781803m. Speed=0.036000m/h.</desc>
<speed>0.010000</speed>
</trkpt>
<trkpt lat="20.955982" lon="107.049965">
<ele>4.754459</ele>
<time>2011-04-30T13:03:13Z</time>
<desc>lat.=20.955982, lon.=107.049965, Alt.=4.754459m. Speed=0.000000m/h.</desc>
<speed>0.000000</speed>
</trkpt>
<trkpt lat="20.955982" lon="107.049965">
<ele>4.743229</ele>
<time>2011-04-30T13:03:18Z</time>
<desc>lat.=20.955982, lon.=107.049965, Alt.=4.743229m. Speed=0.000000m/h.</desc>
<speed>0.000000</speed>
</trkpt>
<trkpt lat="20.955984" lon="107.049965">
<ele>4.754337</ele>
<time>2011-04-30T13:03:23Z</time>
<desc>lat.=20.955984, lon.=107.049965, Alt.=4.754337m. Speed=0.000000m/h.</desc>
<speed>0.000000</speed>
</trkpt>
<trkpt lat="20.955984" lon="107.049965">
<ele>4.768375</ele>
<time>2011-04-30T13:03:28Z</time>
<desc>lat.=20.955984, lon.=107.049965, Alt.=4.768375m. Speed=0.000000m/h.</desc>
<speed>0.000000</speed>
</trkpt>
<trkpt lat="20.955984" lon="107.049965">
<ele>4.778141</ele>
<time>2011-04-30T13:03:33Z</time>
<desc>lat.=20.955984, lon.=107.049965, Alt.=4.778141m. Speed=0.000000m/h.</desc>
<speed>0.000000</speed>
</trkpt>
<trkpt lat="20.955984" lon="107.049965">
<ele>4.788883</ele>
<time>2011-04-30T13:03:38Z</time>
<desc>lat.=20.955984, lon.=107.049965, Alt.=4.788883m. Speed=0.072000m/h.</desc>
<speed>0.020000</speed>
</trkpt>
<trkpt lat="20.955984" lon="107.049965">
<ele>4.786442</ele>
<time>2011-04-30T13:03:43Z</time>
<desc>lat.=20.955984, lon.=107.049965, Alt.=4.786442m. Speed=0.108000m/h.</desc>
<speed>0.030000</speed>
</trkpt>
<trkpt lat="20.955984" lon="107.049965">
<ele>4.788273</ele>
<time>2011-04-30T13:03:48Z</time>
<desc>lat.=20.955984, lon.=107.049965, Alt.=4.788273m. Speed=0.036000m/h.</desc>
<speed>0.010000</speed>
</trkpt>
<trkpt lat="20.955984" lon="107.049965">
<ele>4.784367</ele>
<time>2011-04-30T13:03:53Z</time>
<desc>lat.=20.955984, lon.=107.049965, Alt.=4.784367m. Speed=0.288000m/h.</desc>
<speed>0.080000</speed>
</trkpt>
<trkpt lat="20.955982" lon="107.049973">
<ele>4.858707</ele>
<time>2011-04-30T13:03:58Z</time>
<desc>lat.=20.955982, lon.=107.049973, Alt.=4.858707m. Speed=0.612000m/h.</desc>
<speed>0.170000</speed>
</trkpt>
<trkpt lat="20.955984" lon="107.049965">
<ele>5.057194</ele>
<time>2011-04-30T13:04:03Z</time>
<desc>lat.=20.955984, lon.=107.049965, Alt.=5.057194m. Speed=0.864000m/h.</desc>
<speed>0.240000</speed>
</trkpt>
<trkpt lat="20.955978" lon="107.049965">
<ele>4.699162</ele>
<time>2011-04-30T13:04:08Z</time>
<desc>lat.=20.955978, lon.=107.049965, Alt.=4.699162m. Speed=0.180000m/h.</desc>
<speed>0.050000</speed>
</trkpt>
<trkpt lat="20.955980" lon="107.049965">
<ele>4.777897</ele>
<time>2011-04-30T13:04:13Z</time>
<desc>lat.=20.955980, lon.=107.049965, Alt.=4.777897m. Speed=1.692000m/h.</desc>
<speed>0.470000</speed>
</trkpt>
<trkpt lat="20.955984" lon="107.049957">
<ele>4.561100</ele>
<time>2011-04-30T13:04:18Z</time>
<desc>lat.=20.955984, lon.=107.049957, Alt.=4.561100m. Speed=0.072000m/h.</desc>
<speed>0.020000</speed>
</trkpt>
<trkpt lat="20.955986" lon="107.049957">
<ele>4.599430</ele>
<time>2011-04-30T13:04:23Z</time>
<desc>lat.=20.955986, lon.=107.049957, Alt.=4.599430m. Speed=0.288000m/h.</desc>
<speed>0.080000</speed>
</trkpt>
<trkpt lat="20.955982" lon="107.049957">
<ele>4.765079</ele>
<time>2011-04-30T13:04:28Z</time>
<desc>lat.=20.955982, lon.=107.049957, Alt.=4.765079m. Speed=0.576000m/h.</desc>
<speed>0.160000</speed>
</trkpt>
<trkpt lat="20.955984" lon="107.049957">
<ele>4.670475</ele>
<time>2011-04-30T13:04:33Z</time>
<desc>lat.=20.955984, lon.=107.049957, Alt.=4.670475m. Speed=0.108000m/h.</desc>
<speed>0.030000</speed>
</trkpt>
<trkpt lat="20.955984" lon="107.049957">
<ele>4.642765</ele>
<time>2011-04-30T13:04:38Z</time>
<desc>lat.=20.955984, lon.=107.049957, Alt.=4.642765m. Speed=0.108000m/h.</desc>
<speed>0.030000</speed>
</trkpt>
<trkpt lat="20.955984" lon="107.049957">
<ele>4.626286</ele>
<time>2011-04-30T13:04:43Z</time>
<desc>lat.=20.955984, lon.=107.049957, Alt.=4.626286m. Speed=0.036000m/h.</desc>
<speed>0.010000</speed>
</trkpt>
<trkpt lat="20.955984" lon="107.049957">
<ele>4.610538</ele>
<time>2011-04-30T13:04:48Z</time>
<desc>lat.=20.955984, lon.=107.049957, Alt.=4.610538m. Speed=0.000000m/h.</desc>
<speed>0.000000</speed>
</trkpt>
<trkpt lat="20.955984" lon="107.049957">
<ele>4.591862</ele>
<time>2011-04-30T13:04:53Z</time>
<desc>lat.=20.955984, lon.=107.049957, Alt.=4.591862m. Speed=0.072000m/h.</desc>
<speed>0.020000</speed>
</trkpt>
<trkpt lat="20.955980" lon="107.049957">
<ele>4.588078</ele>
<time>2011-04-30T13:04:58Z</time>
<desc>lat.=20.955980, lon.=107.049957, Alt.=4.588078m. Speed=1.872000m/h.</desc>
<speed>0.520000</speed>
</trkpt>
<trkpt lat="20.955963" lon="107.049957">
<ele>4.693790</ele>
<time>2011-04-30T13:05:03Z</time>
<desc>lat.=20.955963, lon.=107.049957, Alt.=4.693790m. Speed=0.936000m/h.</desc>
<speed>0.260000</speed>
</trkpt>
<trkpt lat="20.955950" lon="107.049957">
<ele>4.710392</ele>
<time>2011-04-30T13:05:08Z</time>
<desc>lat.=20.955950, lon.=107.049957, Alt.=4.710392m. Speed=0.108000m/h.</desc>
<speed>0.030000</speed>
</trkpt>
<trkpt lat="20.955952" lon="107.049950">
<ele>4.704777</ele>
<time>2011-04-30T13:05:13Z</time>
<desc>lat.=20.955952, lon.=107.049950, Alt.=4.704777m. Speed=0.144000m/h.</desc>
<speed>0.040000</speed>
</trkpt>
<trkpt lat="20.955954" lon="107.049950">
<ele>4.810001</ele>
<time>2011-04-30T13:05:18Z</time>
<desc>lat.=20.955954, lon.=107.049950, Alt.=4.810001m. Speed=0.000000m/h.</desc>
<speed>0.000000</speed>
</trkpt>
<trkpt lat="20.955959" lon="107.049950">
<ele>5.023746</ele>
<time>2011-04-30T13:05:23Z</time>
<desc>lat.=20.955959, lon.=107.049950, Alt.=5.023746m. Speed=0.072000m/h.</desc>
<speed>0.020000</speed>
</trkpt>
<trkpt lat="20.955959" lon="107.049950">
<ele>4.851383</ele>
<time>2011-04-30T13:05:28Z</time>
<desc>lat.=20.955959, lon.=107.049950, Alt.=4.851383m. Speed=0.504000m/h.</desc>
<speed>0.140000</speed>
</trkpt>
<trkpt lat="20.955948" lon="107.049965">
<ele>5.359196</ele>
<time>2011-04-30T13:05:33Z</time>
<desc>lat.=20.955948, lon.=107.049965, Alt.=5.359196m. Speed=0.684000m/h.</desc>
<speed>0.190000</speed>
</trkpt>
<trkpt lat="20.955938" lon="107.049988">
<ele>5.683537</ele>
<time>2011-04-30T13:05:38Z</time>
<desc>lat.=20.955938, lon.=107.049988, Alt.=5.683537m. Speed=2.484000m/h.</desc>
<speed>0.690000</speed>
</trkpt>
<trkpt lat="20.955906" lon="107.050018">
<ele>6.267887</ele>
<time>2011-04-30T13:05:43Z</time>
<desc>lat.=20.955906, lon.=107.050018, Alt.=6.267887m. Speed=2.916000m/h.</desc>
<speed>0.810000</speed>
</trkpt>
<trkpt lat="20.955860" lon="107.049980">
<ele>5.636784</ele>
<time>2011-04-30T13:05:48Z</time>
<desc>lat.=20.955860, lon.=107.049980, Alt.=5.636784m. Speed=4.176000m/h.</desc>
<speed>1.160000</speed>
</trkpt>
<trkpt lat="20.955849" lon="107.049942">
<ele>5.710514</ele>
<time>2011-04-30T13:05:53Z</time>
<desc>lat.=20.955849, lon.=107.049942, Alt.=5.710514m. Speed=3.492000m/h.</desc>
<speed>0.970000</speed>
</trkpt>
<trkpt lat="20.955881" lon="107.049904">
<ele>6.225895</ele>
<time>2011-04-30T13:05:58Z</time>
<desc>lat.=20.955881, lon.=107.049904, Alt.=6.225895m. Speed=3.708000m/h.</desc>
<speed>1.030000</speed>
</trkpt>
<trkpt lat="20.955914" lon="107.049866">
<ele>6.505558</ele>
<time>2011-04-30T13:06:03Z</time>
<desc>lat.=20.955914, lon.=107.049866, Alt.=6.505558m. Speed=3.672000m/h.</desc>
<speed>1.020000</speed>
</trkpt>
<trkpt lat="20.955935" lon="107.049835">
<ele>6.152897</ele>
<time>2011-04-30T13:06:08Z</time>
<desc>lat.=20.955935, lon.=107.049835, Alt.=6.152897m. Speed=2.412000m/h.</desc>
<speed>0.670000</speed>
</trkpt>
<trkpt lat="20.955933" lon="107.049835">
<ele>5.792912</ele>
<time>2011-04-30T13:06:13Z</time>
<desc>lat.=20.955933, lon.=107.049835, Alt.=5.792912m. Speed=3.024000m/h.</desc>
<speed>0.840000</speed>
</trkpt>
<trkpt lat="20.955921" lon="107.049835">
<ele>5.600529</ele>
<time>2011-04-30T13:06:18Z</time>
<desc>lat.=20.955921, lon.=107.049835, Alt.=5.600529m. Speed=2.988000m/h.</desc>
<speed>0.830000</speed>
</trkpt>
<trkpt lat="20.955906" lon="107.049820">
<ele>4.811710</ele>
<time>2011-04-30T13:06:23Z</time>
<desc>lat.=20.955906, lon.=107.049820, Alt.=4.811710m. Speed=0.612000m/h.</desc>
<speed>0.170000</speed>
</trkpt>
<trkpt lat="20.955908" lon="107.049789">
<ele>5.403629</ele>
<time>2011-04-30T13:06:28Z</time>
<desc>lat.=20.955908, lon.=107.049789, Alt.=5.403629m. Speed=2.340000m/h.</desc>
<speed>0.650000</speed>
</trkpt>
<trkpt lat="20.955896" lon="107.049767">
<ele>6.347843</ele>
<time>2011-04-30T13:06:33Z</time>
<desc>lat.=20.955896, lon.=107.049767, Alt.=6.347843m. Speed=2.124000m/h.</desc>
<speed>0.590000</speed>
</trkpt>
<trkpt lat="20.955879" lon="107.049744">
<ele>6.307682</ele>
<time>2011-04-30T13:06:38Z</time>
<desc>lat.=20.955879, lon.=107.049744, Alt.=6.307682m. Speed=1.368000m/h.</desc>
<speed>0.380000</speed>
</trkpt>
<trkpt lat="20.955879" lon="107.049728">
<ele>5.994205</ele>
<time>2011-04-30T13:06:43Z</time>
<desc>lat.=20.955879, lon.=107.049728, Alt.=5.994205m. Speed=2.088000m/h.</desc>
<speed>0.580000</speed>
</trkpt>
<trkpt lat="20.955854" lon="107.049728">
<ele>6.224186</ele>
<time>2011-04-30T13:06:48Z</time>
<desc>lat.=20.955854, lon.=107.049728, Alt.=6.224186m. Speed=2.556000m/h.</desc>
<speed>0.710000</speed>
</trkpt>
<trkpt lat="20.955835" lon="107.049728">
<ele>6.165836</ele>
<time>2011-04-30T13:06:53Z</time>
<desc>lat.=20.955835, lon.=107.049728, Alt.=6.165836m. Speed=1.980000m/h.</desc>
<speed>0.550000</speed>
</trkpt>
<trkpt lat="20.955818" lon="107.049706">
<ele>5.841007</ele>
<time>2011-04-30T13:06:58Z</time>
<desc>lat.=20.955818, lon.=107.049706, Alt.=5.841007m. Speed=2.484000m/h.</desc>
<speed>0.690000</speed>
</trkpt>
<trkpt lat="20.955814" lon="107.049690">
<ele>5.471867</ele>
<time>2011-04-30T13:07:03Z</time>
<desc>lat.=20.955814, lon.=107.049690, Alt.=5.471867m. Speed=1.548000m/h.</desc>
<speed>0.430000</speed>
</trkpt>
<trkpt lat="20.955805" lon="107.049683">
<ele>5.816349</ele>
<time>2011-04-30T13:07:08Z</time>
<desc>lat.=20.955805, lon.=107.049683, Alt.=5.816349m. Speed=1.440000m/h.</desc>
<speed>0.400000</speed>
</trkpt>
<trkpt lat="20.955797" lon="107.049675">
<ele>4.159000</ele>
<time>2011-04-30T13:07:13Z</time>
<desc>lat.=20.955797, lon.=107.049675, Alt.=4.159000m. Speed=0.864000m/h.</desc>
<speed>0.240000</speed>
</trkpt>
<trkpt lat="20.955799" lon="107.049675">
<ele>4.107853</ele>
<time>2011-04-30T13:07:18Z</time>
<desc>lat.=20.955799, lon.=107.049675, Alt.=4.107853m. Speed=0.576000m/h.</desc>
<speed>0.160000</speed>
</trkpt>
<trkpt lat="20.955793" lon="107.049683">
<ele>3.667147</ele>
<time>2011-04-30T13:07:23Z</time>
<desc>lat.=20.955793, lon.=107.049683, Alt.=3.667147m. Speed=0.432000m/h.</desc>
<speed>0.120000</speed>
</trkpt>
<trkpt lat="20.955791" lon="107.049690">
<ele>3.285677</ele>
<time>2011-04-30T13:07:28Z</time>
<desc>lat.=20.955791, lon.=107.049690, Alt.=3.285677m. Speed=2.448000m/h.</desc>
<speed>0.680000</speed>
</trkpt>
<trkpt lat="20.955790" lon="107.049690">
<ele>1.870957</ele>
<time>2011-04-30T13:07:33Z</time>
<desc>lat.=20.955790, lon.=107.049690, Alt.=1.870957m. Speed=0.000000m/h.</desc>
<speed>0.000000</speed>
</trkpt>
<trkpt lat="20.955790" lon="107.049698">
<ele>1.776139</ele>
<time>2011-04-30T13:07:38Z</time>
<desc>lat.=20.955790, lon.=107.049698, Alt.=1.776139m. Speed=0.072000m/h.</desc>
<speed>0.020000</speed>
</trkpt>
<trkpt lat="20.955790" lon="107.049683">
<ele>0.624611</ele>
<time>2011-04-30T13:07:43Z</time>
<desc>lat.=20.955790, lon.=107.049683, Alt.=0.624611m. Speed=1.692000m/h.</desc>
<speed>0.470000</speed>
</trkpt>
<trkpt lat="20.955791" lon="107.049660">
<ele>0.908104</ele>
<time>2011-04-30T13:07:48Z</time>
<desc>lat.=20.955791, lon.=107.049660, Alt.=0.908104m. Speed=1.008000m/h.</desc>
<speed>0.280000</speed>
</trkpt>
<trkpt lat="20.955778" lon="107.049644">
<ele>0.948082</ele>
<time>2011-04-30T13:07:53Z</time>
<desc>lat.=20.955778, lon.=107.049644, Alt.=0.948082m. Speed=0.612000m/h.</desc>
<speed>0.170000</speed>
</trkpt>
<trkpt lat="20.955765" lon="107.049637">
<ele>0.872704</ele>
<time>2011-04-30T13:07:58Z</time>
<desc>lat.=20.955765, lon.=107.049637, Alt.=0.872704m. Speed=2.304000m/h.</desc>
<speed>0.640000</speed>
</trkpt>
<trkpt lat="20.955740" lon="107.049629">
<ele>0.601906</ele>
<time>2011-04-30T13:08:03Z</time>
<desc>lat.=20.955740, lon.=107.049629, Alt.=0.601906m. Speed=0.468000m/h.</desc>
<speed>0.130000</speed>
</trkpt>
<trkpt lat="20.955740" lon="107.049622">
<ele>0.818841</ele>
<time>2011-04-30T13:08:08Z</time>
<desc>lat.=20.955740, lon.=107.049622, Alt.=0.818841m. Speed=0.072000m/h.</desc>
<speed>0.020000</speed>
</trkpt>
<trkpt lat="20.955734" lon="107.049629">
<ele>0.861702</ele>
<time>2011-04-30T13:08:13Z</time>
<desc>lat.=20.955734, lon.=107.049629, Alt.=0.861702m. Speed=1.008000m/h.</desc>
<speed>0.280000</speed>
</trkpt>
<trkpt lat="20.955721" lon="107.049637">
<ele>1.072770</ele>
<time>2011-04-30T13:08:18Z</time>
<desc>lat.=20.955721, lon.=107.049637, Alt.=1.072770m. Speed=1.728000m/h.</desc>
<speed>0.480000</speed>
</trkpt>
<trkpt lat="20.955704" lon="107.049652">
<ele>1.124192</ele>
<time>2011-04-30T13:08:23Z</time>
<desc>lat.=20.955704, lon.=107.049652, Alt.=1.124192m. Speed=2.304000m/h.</desc>
<speed>0.640000</speed>
</trkpt>
<trkpt lat="20.955681" lon="107.049675">
<ele>1.177476</ele>
<time>2011-04-30T13:08:28Z</time>
<desc>lat.=20.955681, lon.=107.049675, Alt.=1.177476m. Speed=2.088000m/h.</desc>
<speed>0.580000</speed>
</trkpt>
<trkpt lat="20.955658" lon="107.049683">
<ele>1.096025</ele>
<time>2011-04-30T13:08:33Z</time>
<desc>lat.=20.955658, lon.=107.049683, Alt.=1.096025m. Speed=2.844000m/h.</desc>
<speed>0.790000</speed>
</trkpt>
<trkpt lat="20.955631" lon="107.049690">
<ele>0.124980</ele>
<time>2011-04-30T13:08:38Z</time>
<desc>lat.=20.955631, lon.=107.049690, Alt.=0.124980m. Speed=2.772000m/h.</desc>
<speed>0.770000</speed>
</trkpt>
<trkpt lat="20.955606" lon="107.049675">
<ele>-1.623612</ele>
<time>2011-04-30T13:08:43Z</time>
<desc>lat.=20.955606, lon.=107.049675, Alt.=-1.623612m. Speed=2.988000m/h.</desc>
<speed>0.830000</speed>
</trkpt>
<trkpt lat="20.955576" lon="107.049667">
<ele>-3.335360</ele>
<time>2011-04-30T13:08:48Z</time>
<desc>lat.=20.955576, lon.=107.049667, Alt.=-3.335360m. Speed=2.448000m/h.</desc>
<speed>0.680000</speed>
</trkpt>
<trkpt lat="20.955551" lon="107.049675">
<ele>-4.246525</ele>
<time>2011-04-30T13:08:53Z</time>
<desc>lat.=20.955551, lon.=107.049675, Alt.=-4.246525m. Speed=0.468000m/h.</desc>
<speed>0.130000</speed>
</trkpt>
<trkpt lat="20.955544" lon="107.049667">
<ele>-4.975040</ele>
<time>2011-04-30T13:08:58Z</time>
<desc>lat.=20.955544, lon.=107.049667, Alt.=-4.975040m. Speed=2.592000m/h.</desc>
<speed>0.720000</speed>
</trkpt>
<trkpt lat="20.955517" lon="107.049667">
<ele>-5.350407</ele>
<time>2011-04-30T13:09:03Z</time>
<desc>lat.=20.955517, lon.=107.049667, Alt.=-5.350407m. Speed=2.340000m/h.</desc>
<speed>0.650000</speed>
</trkpt>
<trkpt lat="20.955492" lon="107.049652">
<ele>-5.592472</ele>
<time>2011-04-30T13:09:08Z</time>
<desc>lat.=20.955492, lon.=107.049652, Alt.=-5.592472m. Speed=2.736000m/h.</desc>
<speed>0.760000</speed>
</trkpt>
<trkpt lat="20.955477" lon="107.049644">
<ele>-5.939396</ele>
<time>2011-04-30T13:09:13Z</time>
<desc>lat.=20.955477, lon.=107.049644, Alt.=-5.939396m. Speed=1.764000m/h.</desc>
<speed>0.490000</speed>
</trkpt>
<trkpt lat="20.955442" lon="107.049660">
<ele>-6.418888</ele>
<time>2011-04-30T13:09:18Z</time>
<desc>lat.=20.955442, lon.=107.049660, Alt.=-6.418888m. Speed=2.988000m/h.</desc>
<speed>0.830000</speed>
</trkpt>
<trkpt lat="20.955412" lon="107.049644">
<ele>-6.384830</ele>
<time>2011-04-30T13:09:23Z</time>
<desc>lat.=20.955412, lon.=107.049644, Alt.=-6.384830m. Speed=2.232000m/h.</desc>
<speed>0.620000</speed>
</trkpt>
<trkpt lat="20.955389" lon="107.049637">
<ele>-6.197941</ele>
<time>2011-04-30T13:09:28Z</time>
<desc>lat.=20.955389, lon.=107.049637, Alt.=-6.197941m. Speed=1.044000m/h.</desc>
<speed>0.290000</speed>
</trkpt>
<trkpt lat="20.955402" lon="107.049629">
<ele>-6.609074</ele>
<time>2011-04-30T13:09:33Z</time>
<desc>lat.=20.955402, lon.=107.049629, Alt.=-6.609074m. Speed=0.864000m/h.</desc>
<speed>0.240000</speed>
</trkpt>
<trkpt lat="20.955410" lon="107.049622">
<ele>-7.160343</ele>
<time>2011-04-30T13:09:38Z</time>
<desc>lat.=20.955410, lon.=107.049622, Alt.=-7.160343m. Speed=1.008000m/h.</desc>
<speed>0.280000</speed>
</trkpt>
<trkpt lat="20.955400" lon="107.049629">
<ele>-7.368107</ele>
<time>2011-04-30T13:09:43Z</time>
<desc>lat.=20.955400, lon.=107.049629, Alt.=-7.368107m. Speed=0.684000m/h.</desc>
<speed>0.190000</speed>
</trkpt>
<trkpt lat="20.955402" lon="107.049629">
<ele>-7.315006</ele>
<time>2011-04-30T13:09:48Z</time>
<desc>lat.=20.955402, lon.=107.049629, Alt.=-7.315006m. Speed=0.252000m/h.</desc>
<speed>0.070000</speed>
</trkpt>
<trkpt lat="20.955404" lon="107.049629">
<ele>-7.229923</ele>
<time>2011-04-30T13:09:53Z</time>
<desc>lat.=20.955404, lon.=107.049629, Alt.=-7.229923m. Speed=0.144000m/h.</desc>
<speed>0.040000</speed>
</trkpt>
<trkpt lat="20.955402" lon="107.049629">
<ele>-7.277653</ele>
<time>2011-04-30T13:09:58Z</time>
<desc>lat.=20.955402, lon.=107.049629, Alt.=-7.277653m. Speed=0.180000m/h.</desc>
<speed>0.050000</speed>
</trkpt>
<trkpt lat="20.955402" lon="107.049629">
<ele>-7.289494</ele>
<time>2011-04-30T13:10:03Z</time>
<desc>lat.=20.955402, lon.=107.049629, Alt.=-7.289494m. Speed=0.036000m/h.</desc>
<speed>0.010000</speed>
</trkpt>
<trkpt lat="20.955402" lon="107.049629">
<ele>-7.295597</ele>
<time>2011-04-30T13:10:08Z</time>
<desc>lat.=20.955402, lon.=107.049629, Alt.=-7.295597m. Speed=0.000000m/h.</desc>
<speed>0.000000</speed>
</trkpt>
<trkpt lat="20.955402" lon="107.049629">
<ele>-7.296085</ele>
<time>2011-04-30T13:10:13Z</time>
<desc>lat.=20.955402, lon.=107.049629, Alt.=-7.296085m. Speed=0.144000m/h.</desc>
<speed>0.040000</speed>
</trkpt>
<trkpt lat="20.955402" lon="107.049629">
<ele>-7.295841</ele>
<time>2011-04-30T13:10:18Z</time>
<desc>lat.=20.955402, lon.=107.049629, Alt.=-7.295841m. Speed=0.216000m/h.</desc>
<speed>0.060000</speed>
</trkpt>
<trkpt lat="20.955402" lon="107.049629">
<ele>-7.310246</ele>
<time>2011-04-30T13:10:23Z</time>
<desc>lat.=20.955402, lon.=107.049629, Alt.=-7.310246m. Speed=0.144000m/h.</desc>
<speed>0.040000</speed>
</trkpt>
<trkpt lat="20.955391" lon="107.049614">
<ele>-7.074162</ele>
<time>2011-04-30T13:10:28Z</time>
<desc>lat.=20.955391, lon.=107.049614, Alt.=-7.074162m. Speed=1.548000m/h.</desc>
<speed>0.430000</speed>
</trkpt>
<trkpt lat="20.955400" lon="107.049606">
<ele>-6.265446</ele>
<time>2011-04-30T13:10:33Z</time>
<desc>lat.=20.955400, lon.=107.049606, Alt.=-6.265446m. Speed=0.180000m/h.</desc>
<speed>0.050000</speed>
</trkpt>
<trkpt lat="20.955400" lon="107.049606">
<ele>-5.844913</ele>
<time>2011-04-30T13:10:38Z</time>
<desc>lat.=20.955400, lon.=107.049606, Alt.=-5.844913m. Speed=0.108000m/h.</desc>
<speed>0.030000</speed>
</trkpt>
<trkpt lat="20.955400" lon="107.049606">
<ele>-5.525700</ele>
<time>2011-04-30T13:10:43Z</time>
<desc>lat.=20.955400, lon.=107.049606, Alt.=-5.525700m. Speed=0.072000m/h.</desc>
<speed>0.020000</speed>
</trkpt>
<trkpt lat="20.955400" lon="107.049606">
<ele>-5.482243</ele>
<time>2011-04-30T13:10:48Z</time>
<desc>lat.=20.955400, lon.=107.049606, Alt.=-5.482243m. Speed=0.000000m/h.</desc>
<speed>0.000000</speed>
</trkpt>
<trkpt lat="20.955400" lon="107.049606">
<ele>-5.492374</ele>
<time>2011-04-30T13:10:53Z</time>
<desc>lat.=20.955400, lon.=107.049606, Alt.=-5.492374m. Speed=0.000000m/h.</desc>
<speed>0.000000</speed>
</trkpt>
<trkpt lat="20.955400" lon="107.049606">
<ele>-5.519352</ele>
<time>2011-04-30T13:10:58Z</time>
<desc>lat.=20.955400, lon.=107.049606, Alt.=-5.519352m. Speed=0.000000m/h.</desc>
<speed>0.000000</speed>
</trkpt>
<trkpt lat="20.955400" lon="107.049606">
<ele>-5.544621</ele>
<time>2011-04-30T13:11:03Z</time>
<desc>lat.=20.955400, lon.=107.049606, Alt.=-5.544621m. Speed=0.000000m/h.</desc>
<speed>0.000000</speed>
</trkpt>
<trkpt lat="20.955400" lon="107.049606">
<ele>-5.555241</ele>
<time>2011-04-30T13:11:08Z</time>
<desc>lat.=20.955400, lon.=107.049606, Alt.=-5.555241m. Speed=0.000000m/h.</desc>
<speed>0.000000</speed>
</trkpt>
<trkpt lat="20.955400" lon="107.049606">
<ele>-5.572208</ele>
<time>2011-04-30T13:11:13Z</time>
<desc>lat.=20.955400, lon.=107.049606, Alt.=-5.572208m. Speed=0.000000m/h.</desc>
<speed>0.000000</speed>
</trkpt>
<trkpt lat="20.955400" lon="107.049606">
<ele>-5.583317</ele>
<time>2011-04-30T13:11:18Z</time>
<desc>lat.=20.955400, lon.=107.049606, Alt.=-5.583317m. Speed=0.000000m/h.</desc>
<speed>0.000000</speed>
</trkpt>
<trkpt lat="20.955400" lon="107.049606">
<ele>-5.583073</ele>
<time>2011-04-30T13:11:23Z</time>
<desc>lat.=20.955400, lon.=107.049606, Alt.=-5.583073m. Speed=0.000000m/h.</desc>
<speed>0.000000</speed>
</trkpt>
<trkpt lat="20.955400" lon="107.049606">
<ele>-5.591862</ele>
<time>2011-04-30T13:11:28Z</time>
<desc>lat.=20.955400, lon.=107.049606, Alt.=-5.591862m. Speed=0.036000m/h.</desc>
<speed>0.010000</speed>
</trkpt>
<trkpt lat="20.955400" lon="107.049606">
<ele>-5.598698</ele>
<time>2011-04-30T13:11:33Z</time>
<desc>lat.=20.955400, lon.=107.049606, Alt.=-5.598698m. Speed=0.000000m/h.</desc>
<speed>0.000000</speed>
</trkpt>
<trkpt lat="20.955400" lon="107.049606">
<ele>-5.616154</ele>
<time>2011-04-30T13:11:38Z</time>
<desc>lat.=20.955400, lon.=107.049606, Alt.=-5.616154m. Speed=0.036000m/h.</desc>
<speed>0.010000</speed>
</trkpt>
<trkpt lat="20.955400" lon="107.049606">
<ele>-5.639591</ele>
<time>2011-04-30T13:11:43Z</time>
<desc>lat.=20.955400, lon.=107.049606, Alt.=-5.639591m. Speed=0.036000m/h.</desc>
<speed>0.010000</speed>
</trkpt>
<trkpt lat="20.955400" lon="107.049606">
<ele>-5.661442</ele>
<time>2011-04-30T13:11:48Z</time>
<desc>lat.=20.955400, lon.=107.049606, Alt.=-5.661442m. Speed=0.036000m/h.</desc>
<speed>0.010000</speed>
</trkpt>
<trkpt lat="20.955400" lon="107.049606">
<ele>-5.684391</ele>
<time>2011-04-30T13:11:53Z</time>
<desc>lat.=20.955400, lon.=107.049606, Alt.=-5.684391m. Speed=0.000000m/h.</desc>
<speed>0.000000</speed>
</trkpt>
<trkpt lat="20.955400" lon="107.049606">
<ele>-5.698063</ele>
<time>2011-04-30T13:11:58Z</time>
<desc>lat.=20.955400, lon.=107.049606, Alt.=-5.698063m. Speed=0.108000m/h.</desc>
<speed>0.030000</speed>
</trkpt>
<trkpt lat="20.955400" lon="107.049606">
<ele>-5.712955</ele>
<time>2011-04-30T13:12:03Z</time>
<desc>lat.=20.955400, lon.=107.049606, Alt.=-5.712955m. Speed=0.144000m/h.</desc>
<speed>0.040000</speed>
</trkpt>
<trkpt lat="20.955400" lon="107.049606">
<ele>-5.793644</ele>
<time>2011-04-30T13:12:08Z</time>
<desc>lat.=20.955400, lon.=107.049606, Alt.=-5.793644m. Speed=0.036000m/h.</desc>
<speed>0.010000</speed>
</trkpt>
<trkpt lat="20.955400" lon="107.049606">
<ele>-5.807804</ele>
<time>2011-04-30T13:12:13Z</time>
<desc>lat.=20.955400, lon.=107.049606, Alt.=-5.807804m. Speed=0.000000m/h.</desc>
<speed>0.000000</speed>
</trkpt>
<trkpt lat="20.955400" lon="107.049606">
<ele>-5.802311</ele>
<time>2011-04-30T13:12:18Z</time>
<desc>lat.=20.955400, lon.=107.049606, Alt.=-5.802311m. Speed=0.072000m/h.</desc>
<speed>0.020000</speed>
</trkpt>
<trkpt lat="20.955400" lon="107.049606">
<ele>-5.810368</ele>
<time>2011-04-30T13:12:23Z</time>
<desc>lat.=20.955400, lon.=107.049606, Alt.=-5.810368m. Speed=0.036000m/h.</desc>
<speed>0.010000</speed>
</trkpt>
<trkpt lat="20.955400" lon="107.049606">
<ele>-5.815495</ele>
<time>2011-04-30T13:12:28Z</time>
<desc>lat.=20.955400, lon.=107.049606, Alt.=-5.815495m. Speed=0.036000m/h.</desc>
<speed>0.010000</speed>
</trkpt>
<trkpt lat="20.955400" lon="107.049606">
<ele>-5.826725</ele>
<time>2011-04-30T13:12:33Z</time>
<desc>lat.=20.955400, lon.=107.049606, Alt.=-5.826725m. Speed=0.036000m/h.</desc>
<speed>0.010000</speed>
</trkpt>
<trkpt lat="20.955400" lon="107.049606">
<ele>-5.839298</ele>
<time>2011-04-30T13:12:38Z</time>
<desc>lat.=20.955400, lon.=107.049606, Alt.=-5.839298m. Speed=0.000000m/h.</desc>
<speed>0.000000</speed>
</trkpt>
<trkpt lat="20.955400" lon="107.049606">
<ele>-5.841373</ele>
<time>2011-04-30T13:12:43Z</time>
<desc>lat.=20.955400, lon.=107.049606, Alt.=-5.841373m. Speed=0.000000m/h.</desc>
<speed>0.000000</speed>
</trkpt>
<trkpt lat="20.955400" lon="107.049606">
<ele>-5.839176</ele>
<time>2011-04-30T13:12:48Z</time>
<desc>lat.=20.955400, lon.=107.049606, Alt.=-5.839176m. Speed=0.000000m/h.</desc>
<speed>0.000000</speed>
</trkpt>
<trkpt lat="20.955400" lon="107.049606">
<ele>-5.837467</ele>
<time>2011-04-30T13:12:53Z</time>
<desc>lat.=20.955400, lon.=107.049606, Alt.=-5.837467m. Speed=0.036000m/h.</desc>
<speed>0.010000</speed>
</trkpt>
<trkpt lat="20.955400" lon="107.049606">
<ele>-5.840275</ele>
<time>2011-04-30T13:12:58Z</time>
<desc>lat.=20.955400, lon.=107.049606, Alt.=-5.840275m. Speed=0.000000m/h.</desc>
<speed>0.000000</speed>
</trkpt>
<trkpt lat="20.955400" lon="107.049606">
<ele>-5.844913</ele>
<time>2011-04-30T13:13:03Z</time>
<desc>lat.=20.955400, lon.=107.049606, Alt.=-5.844913m. Speed=0.036000m/h.</desc>
<speed>0.010000</speed>
</trkpt>
<trkpt lat="20.955400" lon="107.049606">
<ele>-5.847477</ele>
<time>2011-04-30T13:13:08Z</time>
<desc>lat.=20.955400, lon.=107.049606, Alt.=-5.847477m. Speed=0.000000m/h.</desc>
<speed>0.000000</speed>
</trkpt>
<trkpt lat="20.955400" lon="107.049606">
<ele>-5.846378</ele>
<time>2011-04-30T13:13:13Z</time>
<desc>lat.=20.955400, lon.=107.049606, Alt.=-5.846378m. Speed=0.000000m/h.</desc>
<speed>0.000000</speed>
</trkpt>
<trkpt lat="20.955400" lon="107.049606">
<ele>-5.845402</ele>
<time>2011-04-30T13:13:18Z</time>
<desc>lat.=20.955400, lon.=107.049606, Alt.=-5.845402m. Speed=0.036000m/h.</desc>
<speed>0.010000</speed>
</trkpt>
<trkpt lat="20.955400" lon="107.049606">
<ele>-5.841496</ele>
<time>2011-04-30T13:13:23Z</time>
<desc>lat.=20.955400, lon.=107.049606, Alt.=-5.841496m. Speed=0.000000m/h.</desc>
<speed>0.000000</speed>
</trkpt>
<trkpt lat="20.955400" lon="107.049606">
<ele>-5.836124</ele>
<time>2011-04-30T13:13:28Z</time>
<desc>lat.=20.955400, lon.=107.049606, Alt.=-5.836124m. Speed=0.000000m/h.</desc>
<speed>0.000000</speed>
</trkpt>
<trkpt lat="20.955400" lon="107.049606">
<ele>-5.823917</ele>
<time>2011-04-30T13:13:33Z</time>
<desc>lat.=20.955400, lon.=107.049606, Alt.=-5.823917m. Speed=0.000000m/h.</desc>
<speed>0.000000</speed>
</trkpt>
<trkpt lat="20.955400" lon="107.049606">
<ele>-5.806705</ele>
<time>2011-04-30T13:13:38Z</time>
<desc>lat.=20.955400, lon.=107.049606, Alt.=-5.806705m. Speed=0.036000m/h.</desc>
<speed>0.010000</speed>
</trkpt>
<trkpt lat="20.955400" lon="107.049606">
<ele>-5.795231</ele>
<time>2011-04-30T13:13:43Z</time>
<desc>lat.=20.955400, lon.=107.049606, Alt.=-5.795231m. Speed=0.072000m/h.</desc>
<speed>0.020000</speed>
</trkpt>
<trkpt lat="20.955400" lon="107.049606">
<ele>-5.783878</ele>
<time>2011-04-30T13:13:48Z</time>
<desc>lat.=20.955400, lon.=107.049606, Alt.=-5.783878m. Speed=0.000000m/h.</desc>
<speed>0.000000</speed>
</trkpt>
<trkpt lat="20.955400" lon="107.049606">
<ele>-5.762760</ele>
<time>2011-04-30T13:13:53Z</time>
<desc>lat.=20.955400, lon.=107.049606, Alt.=-5.762760m. Speed=0.072000m/h.</desc>
<speed>0.020000</speed>
</trkpt>
<trkpt lat="20.955400" lon="107.049606">
<ele>-5.747257</ele>
<time>2011-04-30T13:13:58Z</time>
<desc>lat.=20.955400, lon.=107.049606, Alt.=-5.747257m. Speed=0.036000m/h.</desc>
<speed>0.010000</speed>
</trkpt>
<trkpt lat="20.955400" lon="107.049606">
<ele>-5.731266</ele>
<time>2011-04-30T13:14:03Z</time>
<desc>lat.=20.955400, lon.=107.049606, Alt.=-5.731266m. Speed=0.036000m/h.</desc>
<speed>0.010000</speed>
</trkpt>
<trkpt lat="20.955400" lon="107.049606">
<ele>-5.718449</ele>
<time>2011-04-30T13:14:08Z</time>
<desc>lat.=20.955400, lon.=107.049606, Alt.=-5.718449m. Speed=0.000000m/h.</desc>
<speed>0.000000</speed>
</trkpt>
<trkpt lat="20.955400" lon="107.049606">
<ele>-5.707462</ele>
<time>2011-04-30T13:14:13Z</time>
<desc>lat.=20.955400, lon.=107.049606, Alt.=-5.707462m. Speed=0.108000m/h.</desc>
<speed>0.030000</speed>
</trkpt>
<trkpt lat="20.955400" lon="107.049606">
<ele>-5.718204</ele>
<time>2011-04-30T13:14:18Z</time>
<desc>lat.=20.955400, lon.=107.049606, Alt.=-5.718204m. Speed=0.072000m/h.</desc>
<speed>0.020000</speed>
</trkpt>
<trkpt lat="20.955402" lon="107.049606">
<ele>-5.720402</ele>
<time>2011-04-30T13:14:23Z</time>
<desc>lat.=20.955402, lon.=107.049606, Alt.=-5.720402m. Speed=0.072000m/h.</desc>
<speed>0.020000</speed>
</trkpt>
<trkpt lat="20.955402" lon="107.049606">
<ele>-5.719059</ele>
<time>2011-04-30T13:14:28Z</time>
<desc>lat.=20.955402, lon.=107.049606, Alt.=-5.719059m. Speed=0.000000m/h.</desc>
<speed>0.000000</speed>
</trkpt>
<trkpt lat="20.955400" lon="107.049606">
<ele>-5.706120</ele>
<time>2011-04-30T13:14:33Z</time>
<desc>lat.=20.955400, lon.=107.049606, Alt.=-5.706120m. Speed=0.036000m/h.</desc>
<speed>0.010000</speed>
</trkpt>
<trkpt lat="20.955400" lon="107.049606">
<ele>-5.692081</ele>
<time>2011-04-30T13:14:38Z</time>
<desc>lat.=20.955400, lon.=107.049606, Alt.=-5.692081m. Speed=0.000000m/h.</desc>
<speed>0.000000</speed>
</trkpt>
<trkpt lat="20.955400" lon="107.049606">
<ele>-5.685368</ele>
<time>2011-04-30T13:14:43Z</time>
<desc>lat.=20.955400, lon.=107.049606, Alt.=-5.685368m. Speed=0.000000m/h.</desc>
<speed>0.000000</speed>
</trkpt>
<trkpt lat="20.955400" lon="107.049606">
<ele>-5.685123</ele>
<time>2011-04-30T13:14:48Z</time>
<desc>lat.=20.955400, lon.=107.049606, Alt.=-5.685123m. Speed=0.000000m/h.</desc>
<speed>0.000000</speed>
</trkpt>
<trkpt lat="20.955400" lon="107.049606">
<ele>-5.687809</ele>
<time>2011-04-30T13:14:53Z</time>
<desc>lat.=20.955400, lon.=107.049606, Alt.=-5.687809m. Speed=0.036000m/h.</desc>
<speed>0.010000</speed>
</trkpt>
<trkpt lat="20.955400" lon="107.049606">
<ele>-5.687321</ele>
<time>2011-04-30T13:14:58Z</time>
<desc>lat.=20.955400, lon.=107.049606, Alt.=-5.687321m. Speed=0.000000m/h.</desc>
<speed>0.000000</speed>
</trkpt>
<trkpt lat="20.955400" lon="107.049606">
<ele>-5.674015</ele>
<time>2011-04-30T13:15:03Z</time>
<desc>lat.=20.955400, lon.=107.049606, Alt.=-5.674015m. Speed=0.000000m/h.</desc>
<speed>0.000000</speed>
</trkpt>
<trkpt lat="20.955400" lon="107.049606">
<ele>-5.671329</ele>
<time>2011-04-30T13:15:08Z</time>
<desc>lat.=20.955400, lon.=107.049606, Alt.=-5.671329m. Speed=0.036000m/h.</desc>
<speed>0.010000</speed>
</trkpt>
<trkpt lat="20.955400" lon="107.049606">
<ele>-5.658390</ele>
<time>2011-04-30T13:15:13Z</time>
<desc>lat.=20.955400, lon.=107.049606, Alt.=-5.658390m. Speed=0.000000m/h.</desc>
<speed>0.000000</speed>
</trkpt>
<trkpt lat="20.955400" lon="107.049606">
<ele>-5.655827</ele>
<time>2011-04-30T13:15:18Z</time>
<desc>lat.=20.955400, lon.=107.049606, Alt.=-5.655827m. Speed=0.000000m/h.</desc>
<speed>0.000000</speed>
</trkpt>
<trkpt lat="20.955400" lon="107.049606">
<ele>-5.660343</ele>
<time>2011-04-30T13:15:23Z</time>
<desc>lat.=20.955400, lon.=107.049606, Alt.=-5.660343m. Speed=0.000000m/h.</desc>
<speed>0.000000</speed>
</trkpt>
<trkpt lat="20.955400" lon="107.049606">
<ele>-5.652897</ele>
<time>2011-04-30T13:15:28Z</time>
<desc>lat.=20.955400, lon.=107.049606, Alt.=-5.652897m. Speed=0.108000m/h.</desc>
<speed>0.030000</speed>
</trkpt>
<trkpt lat="20.955400" lon="107.049606">
<ele>-5.639347</ele>
<time>2011-04-30T13:15:33Z</time>
<desc>lat.=20.955400, lon.=107.049606, Alt.=-5.639347m. Speed=0.000000m/h.</desc>
<speed>0.000000</speed>
</trkpt>
<trkpt lat="20.955400" lon="107.049606">
<ele>-5.640812</ele>
<time>2011-04-30T13:15:38Z</time>
<desc>lat.=20.955400, lon.=107.049606, Alt.=-5.640812m. Speed=0.036000m/h.</desc>
<speed>0.010000</speed>
</trkpt>
<trkpt lat="20.955399" lon="107.049606">
<ele>-5.468693</ele>
<time>2011-04-30T13:15:43Z</time>
<desc>lat.=20.955399, lon.=107.049606, Alt.=-5.468693m. Speed=0.036000m/h.</desc>
<speed>0.010000</speed>
</trkpt>
<trkpt lat="20.955399" lon="107.049606">
<ele>-5.437809</ele>
<time>2011-04-30T13:15:48Z</time>
<desc>lat.=20.955399, lon.=107.049606, Alt.=-5.437809m. Speed=0.000000m/h.</desc>
<speed>0.000000</speed>
</trkpt>
<trkpt lat="20.955400" lon="107.049606">
<ele>-5.507511</ele>
<time>2011-04-30T13:15:53Z</time>
<desc>lat.=20.955400, lon.=107.049606, Alt.=-5.507511m. Speed=0.072000m/h.</desc>
<speed>0.020000</speed>
</trkpt>
<trkpt lat="20.955400" lon="107.049606">
<ele>-5.518620</ele>
<time>2011-04-30T13:15:58Z</time>
<desc>lat.=20.955400, lon.=107.049606, Alt.=-5.518620m. Speed=0.000000m/h.</desc>
<speed>0.000000</speed>
</trkpt>
<trkpt lat="20.955400" lon="107.049606">
<ele>-5.518864</ele>
<time>2011-04-30T13:16:03Z</time>
<desc>lat.=20.955400, lon.=107.049606, Alt.=-5.518864m. Speed=0.036000m/h.</desc>
<speed>0.010000</speed>
</trkpt>
<trkpt lat="20.955400" lon="107.049606">
<ele>-5.505802</ele>
<time>2011-04-30T13:16:08Z</time>
<desc>lat.=20.955400, lon.=107.049606, Alt.=-5.505802m. Speed=0.000000m/h.</desc>
<speed>0.000000</speed>
</trkpt>
<trkpt lat="20.955400" lon="107.049606">
<ele>-5.476871</ele>
<time>2011-04-30T13:16:13Z</time>
<desc>lat.=20.955400, lon.=107.049606, Alt.=-5.476871m. Speed=0.072000m/h.</desc>
<speed>0.020000</speed>
</trkpt>
<trkpt lat="20.955400" lon="107.049606">
<ele>-5.461369</ele>
<time>2011-04-30T13:16:18Z</time>
<desc>lat.=20.955400, lon.=107.049606, Alt.=-5.461369m. Speed=0.036000m/h.</desc>
<speed>0.010000</speed>
</trkpt>
<trkpt lat="20.955400" lon="107.049606">
<ele>-5.449894</ele>
<time>2011-04-30T13:16:23Z</time>
<desc>lat.=20.955400, lon.=107.049606, Alt.=-5.449894m. Speed=0.072000m/h.</desc>
<speed>0.020000</speed>
</trkpt>
<trkpt lat="20.955400" lon="107.049606">
<ele>-5.446354</ele>
<time>2011-04-30T13:16:28Z</time>
<desc>lat.=20.955400, lon.=107.049606, Alt.=-5.446354m. Speed=0.036000m/h.</desc>
<speed>0.010000</speed>
</trkpt>
<trkpt lat="20.955400" lon="107.049606">
<ele>-5.487370</ele>
<time>2011-04-30T13:16:33Z</time>
<desc>lat.=20.955400, lon.=107.049606, Alt.=-5.487370m. Speed=0.000000m/h.</desc>
<speed>0.000000</speed>
</trkpt>
<trkpt lat="20.955400" lon="107.049606">
<ele>-5.488468</ele>
<time>2011-04-30T13:16:38Z</time>
<desc>lat.=20.955400, lon.=107.049606, Alt.=-5.488468m. Speed=0.036000m/h.</desc>
<speed>0.010000</speed>
</trkpt>
<trkpt lat="20.955400" lon="107.049606">
<ele>-5.495060</ele>
<time>2011-04-30T13:16:43Z</time>
<desc>lat.=20.955400, lon.=107.049606, Alt.=-5.495060m. Speed=0.036000m/h.</desc>
<speed>0.010000</speed>
</trkpt>
<trkpt lat="20.955400" lon="107.049606">
<ele>-5.505802</ele>
<time>2011-04-30T13:16:48Z</time>
<desc>lat.=20.955400, lon.=107.049606, Alt.=-5.505802m. Speed=0.000000m/h.</desc>
<speed>0.000000</speed>
</trkpt>
<trkpt lat="20.955400" lon="107.049606">
<ele>-5.517887</ele>
<time>2011-04-30T13:16:53Z</time>
<desc>lat.=20.955400, lon.=107.049606, Alt.=-5.517887m. Speed=0.072000m/h.</desc>
<speed>0.020000</speed>
</trkpt>
<trkpt lat="20.955400" lon="107.049606">
<ele>-5.535099</ele>
<time>2011-04-30T13:16:58Z</time>
<desc>lat.=20.955400, lon.=107.049606, Alt.=-5.535099m. Speed=0.036000m/h.</desc>
<speed>0.010000</speed>
</trkpt>
<trkpt lat="20.955400" lon="107.049606">
<ele>-5.546085</ele>
<time>2011-04-30T13:17:03Z</time>
<desc>lat.=20.955400, lon.=107.049606, Alt.=-5.546085m. Speed=0.036000m/h.</desc>
<speed>0.010000</speed>
</trkpt>
<trkpt lat="20.955402" lon="107.049606">
<ele>-5.557804</ele>
<time>2011-04-30T13:17:08Z</time>
<desc>lat.=20.955402, lon.=107.049606, Alt.=-5.557804m. Speed=0.000000m/h.</desc>
<speed>0.000000</speed>
</trkpt>
<trkpt lat="20.955402" lon="107.049606">
<ele>-5.556583</ele>
<time>2011-04-30T13:17:13Z</time>
<desc>lat.=20.955402, lon.=107.049606, Alt.=-5.556583m. Speed=0.036000m/h.</desc>
<speed>0.010000</speed>
</trkpt>
<trkpt lat="20.955400" lon="107.049606">
<ele>-5.550358</ele>
<time>2011-04-30T13:17:18Z</time>
<desc>lat.=20.955400, lon.=107.049606, Alt.=-5.550358m. Speed=0.036000m/h.</desc>
<speed>0.010000</speed>
</trkpt>
<trkpt lat="20.955402" lon="107.049606">
<ele>-5.546574</ele>
<time>2011-04-30T13:17:23Z</time>
<desc>lat.=20.955402, lon.=107.049606, Alt.=-5.546574m. Speed=0.036000m/h.</desc>
<speed>0.010000</speed>
</trkpt>
<trkpt lat="20.955402" lon="107.049606">
<ele>-5.570133</ele>
<time>2011-04-30T13:17:28Z</time>
<desc>lat.=20.955402, lon.=107.049606, Alt.=-5.570133m. Speed=0.108000m/h.</desc>
<speed>0.030000</speed>
</trkpt>
<trkpt lat="20.955402" lon="107.049606">
<ele>-5.587589</ele>
<time>2011-04-30T13:17:33Z</time>
<desc>lat.=20.955402, lon.=107.049606, Alt.=-5.587589m. Speed=0.000000m/h.</desc>
<speed>0.000000</speed>
</trkpt>
<trkpt lat="20.955402" lon="107.049606">
<ele>-5.597477</ele>
<time>2011-04-30T13:17:38Z</time>
<desc>lat.=20.955402, lon.=107.049606, Alt.=-5.597477m. Speed=0.000000m/h.</desc>
<speed>0.000000</speed>
</trkpt>
<trkpt lat="20.955402" lon="107.049606">
<ele>-5.607121</ele>
<time>2011-04-30T13:17:43Z</time>
<desc>lat.=20.955402, lon.=107.049606, Alt.=-5.607121m. Speed=0.000000m/h.</desc>
<speed>0.000000</speed>
</trkpt>
<trkpt lat="20.955402" lon="107.049606">
<ele>-5.612492</ele>
<time>2011-04-30T13:17:48Z</time>
<desc>lat.=20.955402, lon.=107.049606, Alt.=-5.612492m. Speed=0.036000m/h.</desc>
<speed>0.010000</speed>
</trkpt>
<trkpt lat="20.955402" lon="107.049606">
<ele>-5.636906</ele>
<time>2011-04-30T13:17:53Z</time>
<desc>lat.=20.955402, lon.=107.049606, Alt.=-5.636906m. Speed=0.000000m/h.</desc>
<speed>0.000000</speed>
</trkpt>
<trkpt lat="20.955402" lon="107.049606">
<ele>-5.658024</ele>
<time>2011-04-30T13:17:58Z</time>
<desc>lat.=20.955402, lon.=107.049606, Alt.=-5.658024m. Speed=0.036000m/h.</desc>
<speed>0.010000</speed>
</trkpt>
<trkpt lat="20.955402" lon="107.049606">
<ele>-5.680485</ele>
<time>2011-04-30T13:18:03Z</time>
<desc>lat.=20.955402, lon.=107.049606, Alt.=-5.680485m. Speed=0.000000m/h.</desc>
<speed>0.000000</speed>
</trkpt>
<trkpt lat="20.955402" lon="107.049606">
<ele>-5.701725</ele>
<time>2011-04-30T13:18:08Z</time>
<desc>lat.=20.955402, lon.=107.049606, Alt.=-5.701725m. Speed=0.000000m/h.</desc>
<speed>0.000000</speed>
</trkpt>
<trkpt lat="20.955402" lon="107.049606">
<ele>-5.737492</ele>
<time>2011-04-30T13:18:13Z</time>
<desc>lat.=20.955402, lon.=107.049606, Alt.=-5.737492m. Speed=0.036000m/h.</desc>
<speed>0.010000</speed>
</trkpt>
<trkpt lat="20.955402" lon="107.049606">
<ele>-5.766300</ele>
<time>2011-04-30T13:18:18Z</time>
<desc>lat.=20.955402, lon.=107.049606, Alt.=-5.766300m. Speed=0.000000m/h.</desc>
<speed>0.000000</speed>
</trkpt>
<trkpt lat="20.955402" lon="107.049606">
<ele>-5.790836</ele>
<time>2011-04-30T13:18:23Z</time>
<desc>lat.=20.955402, lon.=107.049606, Alt.=-5.790836m. Speed=0.000000m/h.</desc>
<speed>0.000000</speed>
</trkpt>
<trkpt lat="20.955404" lon="107.049606">
<ele>-5.831852</ele>
<time>2011-04-30T13:18:28Z</time>
<desc>lat.=20.955404, lon.=107.049606, Alt.=-5.831852m. Speed=0.000000m/h.</desc>
<speed>0.000000</speed>
</trkpt>
<trkpt lat="20.955404" lon="107.049606">
<ele>-5.841251</ele>
<time>2011-04-30T13:18:33Z</time>
<desc>lat.=20.955404, lon.=107.049606, Alt.=-5.841251m. Speed=0.000000m/h.</desc>
<speed>0.000000</speed>
</trkpt>
<trkpt lat="20.955402" lon="107.049606">
<ele>-5.891544</ele>
<time>2011-04-30T13:18:38Z</time>
<desc>lat.=20.955402, lon.=107.049606, Alt.=-5.891544m. Speed=0.000000m/h.</desc>
<speed>0.000000</speed>
</trkpt>
<trkpt lat="20.955402" lon="107.049606">
<ele>-5.936832</ele>
<time>2011-04-30T13:18:43Z</time>
<desc>lat.=20.955402, lon.=107.049606, Alt.=-5.936832m. Speed=0.000000m/h.</desc>
<speed>0.000000</speed>
</trkpt>
<trkpt lat="20.955402" lon="107.049606">
<ele>-5.967350</ele>
<time>2011-04-30T13:18:48Z</time>
<desc>lat.=20.955402, lon.=107.049606, Alt.=-5.967350m. Speed=0.000000m/h.</desc>
<speed>0.000000</speed>
</trkpt>
<trkpt lat="20.955402" lon="107.049606">
<ele>-5.998478</ele>
<time>2011-04-30T13:18:53Z</time>
<desc>lat.=20.955402, lon.=107.049606, Alt.=-5.998478m. Speed=0.000000m/h.</desc>
<speed>0.000000</speed>
</trkpt>
<trkpt lat="20.955402" lon="107.049606">
<ele>-6.031193</ele>
<time>2011-04-30T13:18:58Z</time>
<desc>lat.=20.955402, lon.=107.049606, Alt.=-6.031193m. Speed=0.000000m/h.</desc>
<speed>0.000000</speed>
</trkpt>
<trkpt lat="20.955402" lon="107.049606">
<ele>-6.060612</ele>
<time>2011-04-30T13:19:03Z</time>
<desc>lat.=20.955402, lon.=107.049606, Alt.=-6.060612m. Speed=0.000000m/h.</desc>
<speed>0.000000</speed>
</trkpt>
<trkpt lat="20.955404" lon="107.049606">
<ele>-6.096989</ele>
<time>2011-04-30T13:19:08Z</time>
<desc>lat.=20.955404, lon.=107.049606, Alt.=-6.096989m. Speed=0.036000m/h.</desc>
<speed>0.010000</speed>
</trkpt>
<trkpt lat="20.955404" lon="107.049606">
<ele>-6.107609</ele>
<time>2011-04-30T13:19:13Z</time>
<desc>lat.=20.955404, lon.=107.049606, Alt.=-6.107609m. Speed=0.000000m/h.</desc>
<speed>0.000000</speed>
</trkpt>
<trkpt lat="20.955404" lon="107.049606">
<ele>-6.110416</ele>
<time>2011-04-30T13:19:18Z</time>
<desc>lat.=20.955404, lon.=107.049606, Alt.=-6.110416m. Speed=0.000000m/h.</desc>
<speed>0.000000</speed>
</trkpt>
<trkpt lat="20.955404" lon="107.049606">
<ele>-6.117252</ele>
<time>2011-04-30T13:19:23Z</time>
<desc>lat.=20.955404, lon.=107.049606, Alt.=-6.117252m. Speed=0.036000m/h.</desc>
<speed>0.010000</speed>
</trkpt>
<trkpt lat="20.955404" lon="107.049606">
<ele>-6.125431</ele>
<time>2011-04-30T13:19:28Z</time>
<desc>lat.=20.955404, lon.=107.049606, Alt.=-6.125431m. Speed=0.000000m/h.</desc>
<speed>0.000000</speed>
</trkpt>
<trkpt lat="20.955404" lon="107.049606">
<ele>-6.133610</ele>
<time>2011-04-30T13:19:33Z</time>
<desc>lat.=20.955404, lon.=107.049606, Alt.=-6.133610m. Speed=0.036000m/h.</desc>
<speed>0.010000</speed>
</trkpt>
<trkpt lat="20.955404" lon="107.049606">
<ele>-6.135929</ele>
<time>2011-04-30T13:19:38Z</time>
<desc>lat.=20.955404, lon.=107.049606, Alt.=-6.135929m. Speed=0.000000m/h.</desc>
<speed>0.000000</speed>
</trkpt>
<trkpt lat="20.955404" lon="107.049606">
<ele>-6.135197</ele>
<time>2011-04-30T13:19:43Z</time>
<desc>lat.=20.955404, lon.=107.049606, Alt.=-6.135197m. Speed=0.036000m/h.</desc>
<speed>0.010000</speed>
</trkpt>
<trkpt lat="20.955404" lon="107.049606">
<ele>-6.134220</ele>
<time>2011-04-30T13:19:48Z</time>
<desc>lat.=20.955404, lon.=107.049606, Alt.=-6.134220m. Speed=0.000000m/h.</desc>
<speed>0.000000</speed>
</trkpt>
<trkpt lat="20.955404" lon="107.049606">
<ele>-6.136539</ele>
<time>2011-04-30T13:19:53Z</time>
<desc>lat.=20.955404, lon.=107.049606, Alt.=-6.136539m. Speed=0.000000m/h.</desc>
<speed>0.000000</speed>
</trkpt>
<trkpt lat="20.955404" lon="107.049606">
<ele>-6.149479</ele>
<time>2011-04-30T13:19:58Z</time>
<desc>lat.=20.955404, lon.=107.049606, Alt.=-6.149479m. Speed=0.036000m/h.</desc>
<speed>0.010000</speed>
</trkpt>
<trkpt lat="20.955404" lon="107.049606">
<ele>-6.169010</ele>
<time>2011-04-30T13:20:03Z</time>
<desc>lat.=20.955404, lon.=107.049606, Alt.=-6.169010m. Speed=0.144000m/h.</desc>
<speed>0.040000</speed>
</trkpt>
<trkpt lat="20.955404" lon="107.049606">
<ele>-6.184513</ele>
<time>2011-04-30T13:20:08Z</time>
<desc>lat.=20.955404, lon.=107.049606, Alt.=-6.184513m. Speed=0.036000m/h.</desc>
<speed>0.010000</speed>
</trkpt>
<trkpt lat="20.955404" lon="107.049606">
<ele>-6.182682</ele>
<time>2011-04-30T13:20:13Z</time>
<desc>lat.=20.955404, lon.=107.049606, Alt.=-6.182682m. Speed=0.036000m/h.</desc>
<speed>0.010000</speed>
</trkpt>
<trkpt lat="20.955404" lon="107.049606">
<ele>-6.182438</ele>
<time>2011-04-30T13:20:18Z</time>
<desc>lat.=20.955404, lon.=107.049606, Alt.=-6.182438m. Speed=0.000000m/h.</desc>
<speed>0.000000</speed>
</trkpt>
<trkpt lat="20.955404" lon="107.049606">
<ele>-6.199772</ele>
<time>2011-04-30T13:20:23Z</time>
<desc>lat.=20.955404, lon.=107.049606, Alt.=-6.199772m. Speed=0.036000m/h.</desc>
<speed>0.010000</speed>
</trkpt>
<trkpt lat="20.955406" lon="107.049606">
<ele>-6.227238</ele>
<time>2011-04-30T13:20:28Z</time>
<desc>lat.=20.955406, lon.=107.049606, Alt.=-6.227238m. Speed=0.000000m/h.</desc>
<speed>0.000000</speed>
</trkpt>
<trkpt lat="20.955406" lon="107.049606">
<ele>-6.253483</ele>
<time>2011-04-30T13:20:33Z</time>
<desc>lat.=20.955406, lon.=107.049606, Alt.=-6.253483m. Speed=0.000000m/h.</desc>
<speed>0.000000</speed>
</trkpt>
<trkpt lat="20.955406" lon="107.049606">
<ele>-6.264103</ele>
<time>2011-04-30T13:20:38Z</time>
<desc>lat.=20.955406, lon.=107.049606, Alt.=-6.264103m. Speed=0.000000m/h.</desc>
<speed>0.000000</speed>
</trkpt>
<trkpt lat="20.955406" lon="107.049606">
<ele>-6.275455</ele>
<time>2011-04-30T13:20:43Z</time>
<desc>lat.=20.955406, lon.=107.049606, Alt.=-6.275455m. Speed=0.000000m/h.</desc>
<speed>0.000000</speed>
</trkpt>
<trkpt lat="20.955406" lon="107.049606">
<ele>-6.281925</ele>
<time>2011-04-30T13:20:48Z</time>
<desc>lat.=20.955406, lon.=107.049606, Alt.=-6.281925m. Speed=0.036000m/h.</desc>
<speed>0.010000</speed>
</trkpt>
<trkpt lat="20.955406" lon="107.049606">
<ele>-6.284733</ele>
<time>2011-04-30T13:20:53Z</time>
<desc>lat.=20.955406, lon.=107.049606, Alt.=-6.284733m. Speed=0.036000m/h.</desc>
<speed>0.010000</speed>
</trkpt>
<trkpt lat="20.955406" lon="107.049606">
<ele>-6.289982</ele>
<time>2011-04-30T13:20:58Z</time>
<desc>lat.=20.955406, lon.=107.049606, Alt.=-6.289982m. Speed=0.036000m/h.</desc>
<speed>0.010000</speed>
</trkpt>
<trkpt lat="20.955406" lon="107.049606">
<ele>-6.294987</ele>
<time>2011-04-30T13:21:03Z</time>
<desc>lat.=20.955406, lon.=107.049606, Alt.=-6.294987m. Speed=0.036000m/h.</desc>
<speed>0.010000</speed>
</trkpt>
<trkpt lat="20.955406" lon="107.049606">
<ele>-6.300602</ele>
<time>2011-04-30T13:21:08Z</time>
<desc>lat.=20.955406, lon.=107.049606, Alt.=-6.300602m. Speed=0.000000m/h.</desc>
<speed>0.000000</speed>
</trkpt>
<trkpt lat="20.955406" lon="107.049606">
<ele>-6.311100</ele>
<time>2011-04-30T13:21:13Z</time>
<desc>lat.=20.955406, lon.=107.049606, Alt.=-6.311100m. Speed=0.000000m/h.</desc>
<speed>0.000000</speed>
</trkpt>
<trkpt lat="20.955406" lon="107.049606">
<ele>-6.333561</ele>
<time>2011-04-30T13:21:18Z</time>
<desc>lat.=20.955406, lon.=107.049606, Alt.=-6.333561m. Speed=0.000000m/h.</desc>
<speed>0.000000</speed>
</trkpt>
<trkpt lat="20.955406" lon="107.049606">
<ele>-6.347477</ele>
<time>2011-04-30T13:21:23Z</time>
<desc>lat.=20.955406, lon.=107.049606, Alt.=-6.347477m. Speed=0.144000m/h.</desc>
<speed>0.040000</speed>
</trkpt>
<trkpt lat="20.955406" lon="107.049606">
<ele>-6.369694</ele>
<time>2011-04-30T13:21:28Z</time>
<desc>lat.=20.955406, lon.=107.049606, Alt.=-6.369694m. Speed=0.000000m/h.</desc>
<speed>0.000000</speed>
</trkpt>
<trkpt lat="20.955406" lon="107.049606">
<ele>-6.397038</ele>
<time>2011-04-30T13:21:33Z</time>
<desc>lat.=20.955406, lon.=107.049606, Alt.=-6.397038m. Speed=0.000000m/h.</desc>
<speed>0.000000</speed>
</trkpt>
<trkpt lat="20.955406" lon="107.049606">
<ele>-6.415714</ele>
<time>2011-04-30T13:21:38Z</time>
<desc>lat.=20.955406, lon.=107.049606, Alt.=-6.415714m. Speed=0.036000m/h.</desc>
<speed>0.010000</speed>
</trkpt>
<trkpt lat="20.955406" lon="107.049606">
<ele>-6.452702</ele>
<time>2011-04-30T13:21:43Z</time>
<desc>lat.=20.955406, lon.=107.049606, Alt.=-6.452702m. Speed=0.000000m/h.</desc>
<speed>0.000000</speed>
</trkpt>
<trkpt lat="20.955406" lon="107.049606">
<ele>-6.467106</ele>
<time>2011-04-30T13:21:48Z</time>
<desc>lat.=20.955406, lon.=107.049606, Alt.=-6.467106m. Speed=0.036000m/h.</desc>
<speed>0.010000</speed>
</trkpt>
<trkpt lat="20.955406" lon="107.049606">
<ele>-6.494450</ele>
<time>2011-04-30T13:21:53Z</time>
<desc>lat.=20.955406, lon.=107.049606, Alt.=-6.494450m. Speed=0.036000m/h.</desc>
<speed>0.010000</speed>
</trkpt>
<trkpt lat="20.955406" lon="107.049599">
<ele>-6.515079</ele>
<time>2011-04-30T13:21:58Z</time>
<desc>lat.=20.955406, lon.=107.049599, Alt.=-6.515079m. Speed=0.000000m/h.</desc>
<speed>0.000000</speed>
</trkpt>
<trkpt lat="20.955406" lon="107.049599">
<ele>-6.559635</ele>
<time>2011-04-30T13:22:03Z</time>
<desc>lat.=20.955406, lon.=107.049599, Alt.=-6.559635m. Speed=0.108000m/h.</desc>
<speed>0.030000</speed>
</trkpt>
<trkpt lat="20.955406" lon="107.049599">
<ele>-6.578434</ele>
<time>2011-04-30T13:22:08Z</time>
<desc>lat.=20.955406, lon.=107.049599, Alt.=-6.578434m. Speed=0.000000m/h.</desc>
<speed>0.000000</speed>
</trkpt>
<trkpt lat="20.955406" lon="107.049599">
<ele>-6.602360</ele>
<time>2011-04-30T13:22:13Z</time>
<desc>lat.=20.955406, lon.=107.049599, Alt.=-6.602360m. Speed=0.036000m/h.</desc>
<speed>0.010000</speed>
</trkpt>
<trkpt lat="20.955406" lon="107.049599">
<ele>-6.629093</ele>
<time>2011-04-30T13:22:18Z</time>
<desc>lat.=20.955406, lon.=107.049599, Alt.=-6.629093m. Speed=0.000000m/h.</desc>
<speed>0.000000</speed>
</trkpt>
<trkpt lat="20.955406" lon="107.049599">
<ele>-6.650822</ele>
<time>2011-04-30T13:22:23Z</time>
<desc>lat.=20.955406, lon.=107.049599, Alt.=-6.650822m. Speed=0.000000m/h.</desc>
<speed>0.000000</speed>
</trkpt>
<trkpt lat="20.955406" lon="107.049599">
<ele>-6.659733</ele>
<time>2011-04-30T13:22:28Z</time>
<desc>lat.=20.955406, lon.=107.049599, Alt.=-6.659733m. Speed=0.036000m/h.</desc>
<speed>0.010000</speed>
</trkpt>
<trkpt lat="20.955406" lon="107.049599">
<ele>-6.676212</ele>
<time>2011-04-30T13:22:33Z</time>
<desc>lat.=20.955406, lon.=107.049599, Alt.=-6.676212m. Speed=0.000000m/h.</desc>
<speed>0.000000</speed>
</trkpt>
<trkpt lat="20.955406" lon="107.049599">
<ele>-6.686222</ele>
<time>2011-04-30T13:22:38Z</time>
<desc>lat.=20.955406, lon.=107.049599, Alt.=-6.686222m. Speed=0.072000m/h.</desc>
<speed>0.020000</speed>
</trkpt>
<trkpt lat="20.955406" lon="107.049599">
<ele>-6.692814</ele>
<time>2011-04-30T13:22:43Z</time>
<desc>lat.=20.955406, lon.=107.049599, Alt.=-6.692814m. Speed=0.036000m/h.</desc>
<speed>0.010000</speed>
</trkpt>
<trkpt lat="20.955406" lon="107.049599">
<ele>-6.726383</ele>
<time>2011-04-30T13:22:48Z</time>
<desc>lat.=20.955406, lon.=107.049599, Alt.=-6.726383m. Speed=0.072000m/h.</desc>
<speed>0.020000</speed>
</trkpt>
<trkpt lat="20.955406" lon="107.049599">
<ele>-6.763859</ele>
<time>2011-04-30T13:22:53Z</time>
<desc>lat.=20.955406, lon.=107.049599, Alt.=-6.763859m. Speed=0.072000m/h.</desc>
<speed>0.020000</speed>
</trkpt>
<trkpt lat="20.955406" lon="107.049599">
<ele>-6.793156</ele>
<time>2011-04-30T13:22:58Z</time>
<desc>lat.=20.955406, lon.=107.049599, Alt.=-6.793156m. Speed=0.000000m/h.</desc>
<speed>0.000000</speed>
</trkpt>
<trkpt lat="20.955406" lon="107.049599">
<ele>-6.809391</ele>
<time>2011-04-30T13:23:03Z</time>
<desc>lat.=20.955406, lon.=107.049599, Alt.=-6.809391m. Speed=0.000000m/h.</desc>
<speed>0.000000</speed>
</trkpt>
<trkpt lat="20.955406" lon="107.049599">
<ele>-6.823795</ele>
<time>2011-04-30T13:23:08Z</time>
<desc>lat.=20.955406, lon.=107.049599, Alt.=-6.823795m. Speed=0.144000m/h.</desc>
<speed>0.040000</speed>
</trkpt>
<trkpt lat="20.955404" lon="107.049606">
<ele>-6.834904</ele>
<time>2011-04-30T13:23:13Z</time>
<desc>lat.=20.955404, lon.=107.049606, Alt.=-6.834904m. Speed=0.036000m/h.</desc>
<speed>0.010000</speed>
</trkpt>
<trkpt lat="20.955404" lon="107.049606">
<ele>-6.851017</ele>
<time>2011-04-30T13:23:18Z</time>
<desc>lat.=20.955404, lon.=107.049606, Alt.=-6.851017m. Speed=0.288000m/h.</desc>
<speed>0.080000</speed>
</trkpt>
<trkpt lat="20.955402" lon="107.049606">
<ele>-6.885319</ele>
<time>2011-04-30T13:23:23Z</time>
<desc>lat.=20.955402, lon.=107.049606, Alt.=-6.885319m. Speed=0.036000m/h.</desc>
<speed>0.010000</speed>
</trkpt>
<trkpt lat="20.955402" lon="107.049599">
<ele>-6.903507</ele>
<time>2011-04-30T13:23:28Z</time>
<desc>lat.=20.955402, lon.=107.049599, Alt.=-6.903507m. Speed=0.000000m/h.</desc>
<speed>0.000000</speed>
</trkpt>
<trkpt lat="20.955402" lon="107.049599">
<ele>-6.929630</ele>
<time>2011-04-30T13:23:33Z</time>
<desc>lat.=20.955402, lon.=107.049599, Alt.=-6.929630m. Speed=0.036000m/h.</desc>
<speed>0.010000</speed>
</trkpt>
<trkpt lat="20.955402" lon="107.049599">
<ele>-6.942448</ele>
<time>2011-04-30T13:23:38Z</time>
<desc>lat.=20.955402, lon.=107.049599, Alt.=-6.942448m. Speed=0.000000m/h.</desc>
<speed>0.000000</speed>
</trkpt>
<trkpt lat="20.955402" lon="107.049599">
<ele>-6.942814</ele>
<time>2011-04-30T13:23:43Z</time>
<desc>lat.=20.955402, lon.=107.049599, Alt.=-6.942814m. Speed=0.000000m/h.</desc>
<speed>0.000000</speed>
</trkpt>
<trkpt lat="20.955402" lon="107.049606">
<ele>-6.959293</ele>
<time>2011-04-30T13:23:48Z</time>
<desc>lat.=20.955402, lon.=107.049606, Alt.=-6.959293m. Speed=0.072000m/h.</desc>
<speed>0.020000</speed>
</trkpt>
<trkpt lat="20.955402" lon="107.049606">
<ele>-6.974918</ele>
<time>2011-04-30T13:23:53Z</time>
<desc>lat.=20.955402, lon.=107.049606, Alt.=-6.974918m. Speed=0.036000m/h.</desc>
<speed>0.010000</speed>
</trkpt>
<trkpt lat="20.955402" lon="107.049606">
<ele>-6.994450</ele>
<time>2011-04-30T13:23:58Z</time>
<desc>lat.=20.955402, lon.=107.049606, Alt.=-6.994450m. Speed=0.072000m/h.</desc>
<speed>0.020000</speed>
</trkpt>
<trkpt lat="20.955402" lon="107.049606">
<ele>-7.003849</ele>
<time>2011-04-30T13:24:03Z</time>
<desc>lat.=20.955402, lon.=107.049606, Alt.=-7.003849m. Speed=0.072000m/h.</desc>
<speed>0.020000</speed>
</trkpt>
<trkpt lat="20.955402" lon="107.049606">
<ele>-7.002750</ele>
<time>2011-04-30T13:24:08Z</time>
<desc>lat.=20.955402, lon.=107.049606, Alt.=-7.002750m. Speed=0.072000m/h.</desc>
<speed>0.020000</speed>
</trkpt>
<trkpt lat="20.955402" lon="107.049606">
<ele>-7.013615</ele>
<time>2011-04-30T13:24:13Z</time>
<desc>lat.=20.955402, lon.=107.049606, Alt.=-7.013615m. Speed=0.036000m/h.</desc>
<speed>0.010000</speed>
</trkpt>
<trkpt lat="20.955402" lon="107.049606">
<ele>-7.023380</ele>
<time>2011-04-30T13:24:18Z</time>
<desc>lat.=20.955402, lon.=107.049606, Alt.=-7.023380m. Speed=0.036000m/h.</desc>
<speed>0.010000</speed>
</trkpt>
<trkpt lat="20.955402" lon="107.049606">
<ele>-7.035709</ele>
<time>2011-04-30T13:24:23Z</time>
<desc>lat.=20.955402, lon.=107.049606, Alt.=-7.035709m. Speed=0.072000m/h.</desc>
<speed>0.020000</speed>
</trkpt>
<trkpt lat="20.955400" lon="107.049606">
<ele>-7.043644</ele>
<time>2011-04-30T13:24:28Z</time>
<desc>lat.=20.955400, lon.=107.049606, Alt.=-7.043644m. Speed=0.108000m/h.</desc>
<speed>0.030000</speed>
</trkpt>
<trkpt lat="20.955400" lon="107.049606">
<ele>-7.048527</ele>
<time>2011-04-30T13:24:33Z</time>
<desc>lat.=20.955400, lon.=107.049606, Alt.=-7.048527m. Speed=0.036000m/h.</desc>
<speed>0.010000</speed>
</trkpt>
<trkpt lat="20.955400" lon="107.049606">
<ele>-7.056461</ele>
<time>2011-04-30T13:24:38Z</time>
<desc>lat.=20.955400, lon.=107.049606, Alt.=-7.056461m. Speed=0.000000m/h.</desc>
<speed>0.000000</speed>
</trkpt>
<trkpt lat="20.955400" lon="107.049606">
<ele>-7.066227</ele>
<time>2011-04-30T13:24:43Z</time>
<desc>lat.=20.955400, lon.=107.049606, Alt.=-7.066227m. Speed=0.324000m/h.</desc>
<speed>0.090000</speed>
</trkpt>
<trkpt lat="20.955400" lon="107.049606">
<ele>-7.069523</ele>
<time>2011-04-30T13:24:48Z</time>
<desc>lat.=20.955400, lon.=107.049606, Alt.=-7.069523m. Speed=0.072000m/h.</desc>
<speed>0.020000</speed>
</trkpt>
<trkpt lat="20.955400" lon="107.049606">
<ele>-7.061832</ele>
<time>2011-04-30T13:24:53Z</time>
<desc>lat.=20.955400, lon.=107.049606, Alt.=-7.061832m. Speed=0.108000m/h.</desc>
<speed>0.030000</speed>
</trkpt>
<trkpt lat="20.955400" lon="107.049606">
<ele>-7.060123</ele>
<time>2011-04-30T13:24:58Z</time>
<desc>lat.=20.955400, lon.=107.049606, Alt.=-7.060123m. Speed=0.000000m/h.</desc>
<speed>0.000000</speed>
</trkpt>
<trkpt lat="20.955400" lon="107.049606">
<ele>-7.069035</ele>
<time>2011-04-30T13:25:03Z</time>
<desc>lat.=20.955400, lon.=107.049606, Alt.=-7.069035m. Speed=0.072000m/h.</desc>
<speed>0.020000</speed>
</trkpt>
<trkpt lat="20.955400" lon="107.049606">
<ele>-7.070499</ele>
<time>2011-04-30T13:25:08Z</time>
<desc>lat.=20.955400, lon.=107.049606, Alt.=-7.070499m. Speed=0.000000m/h.</desc>
<speed>0.000000</speed>
</trkpt>
<trkpt lat="20.955400" lon="107.049606">
<ele>-7.075504</ele>
<time>2011-04-30T13:25:13Z</time>
<desc>lat.=20.955400, lon.=107.049606, Alt.=-7.075504m. Speed=0.036000m/h.</desc>
<speed>0.010000</speed>
</trkpt>
<trkpt lat="20.955400" lon="107.049606">
<ele>-7.082951</ele>
<time>2011-04-30T13:25:18Z</time>
<desc>lat.=20.955400, lon.=107.049606, Alt.=-7.082951m. Speed=0.036000m/h.</desc>
<speed>0.010000</speed>
</trkpt>
<trkpt lat="20.955400" lon="107.049606">
<ele>-7.081242</ele>
<time>2011-04-30T13:25:23Z</time>
<desc>lat.=20.955400, lon.=107.049606, Alt.=-7.081242m. Speed=0.036000m/h.</desc>
<speed>0.010000</speed>
</trkpt>
<trkpt lat="20.955400" lon="107.049606">
<ele>-7.068913</ele>
<time>2011-04-30T13:25:28Z</time>
<desc>lat.=20.955400, lon.=107.049606, Alt.=-7.068913m. Speed=0.036000m/h.</desc>
<speed>0.010000</speed>
</trkpt>
<trkpt lat="20.955400" lon="107.049606">
<ele>-7.044376</ele>
<time>2011-04-30T13:25:33Z</time>
<desc>lat.=20.955400, lon.=107.049606, Alt.=-7.044376m. Speed=0.072000m/h.</desc>
<speed>0.020000</speed>
</trkpt>
<trkpt lat="20.955400" lon="107.049606">
<ele>-7.027897</ele>
<time>2011-04-30T13:25:38Z</time>
<desc>lat.=20.955400, lon.=107.049606, Alt.=-7.027897m. Speed=0.108000m/h.</desc>
<speed>0.030000</speed>
</trkpt>
<trkpt lat="20.955400" lon="107.049606">
<ele>-7.037296</ele>
<time>2011-04-30T13:25:43Z</time>
<desc>lat.=20.955400, lon.=107.049606, Alt.=-7.037296m. Speed=0.000000m/h.</desc>
<speed>0.000000</speed>
</trkpt>
<trkpt lat="20.955399" lon="107.049606">
<ele>-7.040714</ele>
<time>2011-04-30T13:25:48Z</time>
<desc>lat.=20.955399, lon.=107.049606, Alt.=-7.040714m. Speed=0.072000m/h.</desc>
<speed>0.020000</speed>
</trkpt>
<trkpt lat="20.955399" lon="107.049606">
<ele>-7.040958</ele>
<time>2011-04-30T13:25:53Z</time>
<desc>lat.=20.955399, lon.=107.049606, Alt.=-7.040958m. Speed=0.036000m/h.</desc>
<speed>0.010000</speed>
</trkpt>
<trkpt lat="20.955399" lon="107.049606">
<ele>-7.022038</ele>
<time>2011-04-30T13:25:58Z</time>
<desc>lat.=20.955399, lon.=107.049606, Alt.=-7.022038m. Speed=0.036000m/h.</desc>
<speed>0.010000</speed>
</trkpt>
<trkpt lat="20.955399" lon="107.049606">
<ele>-7.026310</ele>
<time>2011-04-30T13:26:03Z</time>
<desc>lat.=20.955399, lon.=107.049606, Alt.=-7.026310m. Speed=0.036000m/h.</desc>
<speed>0.010000</speed>
</trkpt>
<trkpt lat="20.955399" lon="107.049606">
<ele>-7.039738</ele>
<time>2011-04-30T13:26:08Z</time>
<desc>lat.=20.955399, lon.=107.049606, Alt.=-7.039738m. Speed=0.000000m/h.</desc>
<speed>0.000000</speed>
</trkpt>
<trkpt lat="20.955399" lon="107.049606">
<ele>-7.052311</ele>
<time>2011-04-30T13:26:13Z</time>
<desc>lat.=20.955399, lon.=107.049606, Alt.=-7.052311m. Speed=0.036000m/h.</desc>
<speed>0.010000</speed>
</trkpt>
<trkpt lat="20.955399" lon="107.049606">
<ele>-7.067448</ele>
<time>2011-04-30T13:26:18Z</time>
<desc>lat.=20.955399, lon.=107.049606, Alt.=-7.067448m. Speed=0.000000m/h.</desc>
<speed>0.000000</speed>
</trkpt>
<trkpt lat="20.955399" lon="107.049606">
<ele>-7.078922</ele>
<time>2011-04-30T13:26:23Z</time>
<desc>lat.=20.955399, lon.=107.049606, Alt.=-7.078922m. Speed=0.036000m/h.</desc>
<speed>0.010000</speed>
</trkpt>
<trkpt lat="20.955400" lon="107.049606">
<ele>-7.096867</ele>
<time>2011-04-30T13:26:28Z</time>
<desc>lat.=20.955400, lon.=107.049606, Alt.=-7.096867m. Speed=0.000000m/h.</desc>
<speed>0.000000</speed>
</trkpt>
<trkpt lat="20.955400" lon="107.049606">
<ele>-7.109318</ele>
<time>2011-04-30T13:26:33Z</time>
<desc>lat.=20.955400, lon.=107.049606, Alt.=-7.109318m. Speed=0.036000m/h.</desc>
<speed>0.010000</speed>
</trkpt>
<trkpt lat="20.955400" lon="107.049606">
<ele>-7.113590</ele>
<time>2011-04-30T13:26:38Z</time>
<desc>lat.=20.955400, lon.=107.049606, Alt.=-7.113590m. Speed=0.036000m/h.</desc>
<speed>0.010000</speed>
</trkpt>
<trkpt lat="20.955399" lon="107.049606">
<ele>-7.118229</ele>
<time>2011-04-30T13:26:43Z</time>
<desc>lat.=20.955399, lon.=107.049606, Alt.=-7.118229m. Speed=0.000000m/h.</desc>
<speed>0.000000</speed>
</trkpt>
<trkpt lat="20.955399" lon="107.049606">
<ele>-7.129948</ele>
<time>2011-04-30T13:26:48Z</time>
<desc>lat.=20.955399, lon.=107.049606, Alt.=-7.129948m. Speed=0.000000m/h.</desc>
<speed>0.000000</speed>
</trkpt>
<trkpt lat="20.955399" lon="107.049606">
<ele>-7.142765</ele>
<time>2011-04-30T13:26:53Z</time>
<desc>lat.=20.955399, lon.=107.049606, Alt.=-7.142765m. Speed=0.072000m/h.</desc>
<speed>0.020000</speed>
</trkpt>
<trkpt lat="20.955400" lon="107.049606">
<ele>-7.147770</ele>
<time>2011-04-30T13:26:58Z</time>
<desc>lat.=20.955400, lon.=107.049606, Alt.=-7.147770m. Speed=0.036000m/h.</desc>
<speed>0.010000</speed>
</trkpt>
<trkpt lat="20.955400" lon="107.049606">
<ele>-7.145695</ele>
<time>2011-04-30T13:27:03Z</time>
<desc>lat.=20.955400, lon.=107.049606, Alt.=-7.145695m. Speed=0.000000m/h.</desc>
<speed>0.000000</speed>
</trkpt>
<trkpt lat="20.955400" lon="107.049606">
<ele>-7.143131</ele>
<time>2011-04-30T13:27:08Z</time>
<desc>lat.=20.955400, lon.=107.049606, Alt.=-7.143131m. Speed=0.036000m/h.</desc>
<speed>0.010000</speed>
</trkpt>
<trkpt lat="20.955400" lon="107.049606">
<ele>-7.144474</ele>
<time>2011-04-30T13:27:13Z</time>
<desc>lat.=20.955400, lon.=107.049606, Alt.=-7.144474m. Speed=0.000000m/h.</desc>
<speed>0.000000</speed>
</trkpt>
<trkpt lat="20.955400" lon="107.049606">
<ele>-7.143986</ele>
<time>2011-04-30T13:27:18Z</time>
<desc>lat.=20.955400, lon.=107.049606, Alt.=-7.143986m. Speed=0.000000m/h.</desc>
<speed>0.000000</speed>
</trkpt>
<trkpt lat="20.955400" lon="107.049606">
<ele>-7.146549</ele>
<time>2011-04-30T13:27:23Z</time>
<desc>lat.=20.955400, lon.=107.049606, Alt.=-7.146549m. Speed=0.036000m/h.</desc>
<speed>0.010000</speed>
</trkpt>
<trkpt lat="20.955400" lon="107.049606">
<ele>-7.147282</ele>
<time>2011-04-30T13:27:28Z</time>
<desc>lat.=20.955400, lon.=107.049606, Alt.=-7.147282m. Speed=0.000000m/h.</desc>
<speed>0.000000</speed>
</trkpt>
<trkpt lat="20.955400" lon="107.049606">
<ele>-7.150944</ele>
<time>2011-04-30T13:27:33Z</time>
<desc>lat.=20.955400, lon.=107.049606, Alt.=-7.150944m. Speed=0.036000m/h.</desc>
<speed>0.010000</speed>
</trkpt>
<trkpt lat="20.955400" lon="107.049606">
<ele>-7.128483</ele>
<time>2011-04-30T13:27:38Z</time>
<desc>lat.=20.955400, lon.=107.049606, Alt.=-7.128483m. Speed=0.000000m/h.</desc>
<speed>0.000000</speed>
</trkpt>
<trkpt lat="20.955400" lon="107.049606">
<ele>-7.099796</ele>
<time>2011-04-30T13:27:43Z</time>
<desc>lat.=20.955400, lon.=107.049606, Alt.=-7.099796m. Speed=0.000000m/h.</desc>
<speed>0.000000</speed>
</trkpt>
<trkpt lat="20.955400" lon="107.049606">
<ele>-7.081486</ele>
<time>2011-04-30T13:27:48Z</time>
<desc>lat.=20.955400, lon.=107.049606, Alt.=-7.081486m. Speed=0.072000m/h.</desc>
<speed>0.020000</speed>
</trkpt>
<trkpt lat="20.955400" lon="107.049606">
<ele>-7.073185</ele>
<time>2011-04-30T13:27:53Z</time>
<desc>lat.=20.955400, lon.=107.049606, Alt.=-7.073185m. Speed=0.036000m/h.</desc>
<speed>0.010000</speed>
</trkpt>
<trkpt lat="20.955400" lon="107.049606">
<ele>-7.075748</ele>
<time>2011-04-30T13:27:58Z</time>
<desc>lat.=20.955400, lon.=107.049606, Alt.=-7.075748m. Speed=0.000000m/h.</desc>
<speed>0.000000</speed>
</trkpt>
<trkpt lat="20.955400" lon="107.049606">
<ele>-7.089054</ele>
<time>2011-04-30T13:28:03Z</time>
<desc>lat.=20.955400, lon.=107.049606, Alt.=-7.089054m. Speed=0.036000m/h.</desc>
<speed>0.010000</speed>
</trkpt>
<trkpt lat="20.955400" lon="107.049606">
<ele>-7.077702</ele>
<time>2011-04-30T13:28:08Z</time>
<desc>lat.=20.955400, lon.=107.049606, Alt.=-7.077702m. Speed=0.036000m/h.</desc>
<speed>0.010000</speed>
</trkpt>
<trkpt lat="20.955400" lon="107.049606">
<ele>-7.050724</ele>
<time>2011-04-30T13:28:13Z</time>
<desc>lat.=20.955400, lon.=107.049606, Alt.=-7.050724m. Speed=0.072000m/h.</desc>
<speed>0.020000</speed>
</trkpt>
<trkpt lat="20.955400" lon="107.049606">
<ele>-7.026310</ele>
<time>2011-04-30T13:28:18Z</time>
<desc>lat.=20.955400, lon.=107.049606, Alt.=-7.026310m. Speed=0.036000m/h.</desc>
<speed>0.010000</speed>
</trkpt>
<trkpt lat="20.955400" lon="107.049606">
<ele>-6.978947</ele>
<time>2011-04-30T13:28:23Z</time>
<desc>lat.=20.955400, lon.=107.049606, Alt.=-6.978947m. Speed=0.108000m/h.</desc>
<speed>0.030000</speed>
</trkpt>
<trkpt lat="20.955400" lon="107.049606">
<ele>-6.889835</ele>
<time>2011-04-30T13:28:28Z</time>
<desc>lat.=20.955400, lon.=107.049606, Alt.=-6.889835m. Speed=0.036000m/h.</desc>
<speed>0.010000</speed>
</trkpt>
<trkpt lat="20.955399" lon="107.049606">
<ele>-6.809513</ele>
<time>2011-04-30T13:28:33Z</time>
<desc>lat.=20.955399, lon.=107.049606, Alt.=-6.809513m. Speed=0.036000m/h.</desc>
<speed>0.010000</speed>
</trkpt>
<trkpt lat="20.955399" lon="107.049606">
<ele>-6.729923</ele>
<time>2011-04-30T13:28:38Z</time>
<desc>lat.=20.955399, lon.=107.049606, Alt.=-6.729923m. Speed=0.000000m/h.</desc>
<speed>0.000000</speed>
</trkpt>
<trkpt lat="20.955399" lon="107.049606">
<ele>-6.636539</ele>
<time>2011-04-30T13:28:43Z</time>
<desc>lat.=20.955399, lon.=107.049606, Alt.=-6.636539m. Speed=0.036000m/h.</desc>
<speed>0.010000</speed>
</trkpt>
<trkpt lat="20.955399" lon="107.049606">
<ele>-6.549503</ele>
<time>2011-04-30T13:28:48Z</time>
<desc>lat.=20.955399, lon.=107.049606, Alt.=-6.549503m. Speed=0.036000m/h.</desc>
<speed>0.010000</speed>
</trkpt>
<trkpt lat="20.955399" lon="107.049606">
<ele>-6.449039</ele>
<time>2011-04-30T13:28:53Z</time>
<desc>lat.=20.955399, lon.=107.049606, Alt.=-6.449039m. Speed=0.000000m/h.</desc>
<speed>0.000000</speed>
</trkpt>
<trkpt lat="20.955399" lon="107.049606">
<ele>-6.381535</ele>
<time>2011-04-30T13:28:58Z</time>
<desc>lat.=20.955399, lon.=107.049606, Alt.=-6.381535m. Speed=0.000000m/h.</desc>
<speed>0.000000</speed>
</trkpt>
<trkpt lat="20.955399" lon="107.049606">
<ele>-6.320133</ele>
<time>2011-04-30T13:29:03Z</time>
<desc>lat.=20.955399, lon.=107.049606, Alt.=-6.320133m. Speed=0.036000m/h.</desc>
<speed>0.010000</speed>
</trkpt>
<trkpt lat="20.955399" lon="107.049606">
<ele>-6.270817</ele>
<time>2011-04-30T13:29:08Z</time>
<desc>lat.=20.955399, lon.=107.049606, Alt.=-6.270817m. Speed=0.000000m/h.</desc>
<speed>0.000000</speed>
</trkpt>
<trkpt lat="20.955399" lon="107.049606">
<ele>-6.234074</ele>
<time>2011-04-30T13:29:13Z</time>
<desc>lat.=20.955399, lon.=107.049606, Alt.=-6.234074m. Speed=0.000000m/h.</desc>
<speed>0.000000</speed>
</trkpt>
<trkpt lat="20.955399" lon="107.049606">
<ele>-6.196232</ele>
<time>2011-04-30T13:29:18Z</time>
<desc>lat.=20.955399, lon.=107.049606, Alt.=-6.196232m. Speed=0.000000m/h.</desc>
<speed>0.000000</speed>
</trkpt>
<trkpt lat="20.955399" lon="107.049606">
<ele>-6.141422</ele>
<time>2011-04-30T13:29:23Z</time>
<desc>lat.=20.955399, lon.=107.049606, Alt.=-6.141422m. Speed=0.000000m/h.</desc>
<speed>0.000000</speed>
</trkpt>
<trkpt lat="20.955397" lon="107.049606">
<ele>-6.080875</ele>
<time>2011-04-30T13:29:28Z</time>
<desc>lat.=20.955397, lon.=107.049606, Alt.=-6.080875m. Speed=0.000000m/h.</desc>
<speed>0.000000</speed>
</trkpt>
<trkpt lat="20.955397" lon="107.049614">
<ele>-6.031803</ele>
<time>2011-04-30T13:29:33Z</time>
<desc>lat.=20.955397, lon.=107.049614, Alt.=-6.031803m. Speed=0.072000m/h.</desc>
<speed>0.020000</speed>
</trkpt>
<trkpt lat="20.955397" lon="107.049614">
<ele>-5.967350</ele>
<time>2011-04-30T13:29:38Z</time>
<desc>lat.=20.955397, lon.=107.049614, Alt.=-5.967350m. Speed=0.000000m/h.</desc>
<speed>0.000000</speed>
</trkpt>
<trkpt lat="20.955397" lon="107.049614">
<ele>-5.912052</ele>
<time>2011-04-30T13:29:43Z</time>
<desc>lat.=20.955397, lon.=107.049614, Alt.=-5.912052m. Speed=0.036000m/h.</desc>
<speed>0.010000</speed>
</trkpt>
<trkpt lat="20.955395" lon="107.049614">
<ele>-5.859684</ele>
<time>2011-04-30T13:29:48Z</time>
<desc>lat.=20.955395, lon.=107.049614, Alt.=-5.859684m. Speed=0.036000m/h.</desc>
<speed>0.010000</speed>
</trkpt>
<trkpt lat="20.955395" lon="107.049614">
<ele>-5.805851</ele>
<time>2011-04-30T13:29:53Z</time>
<desc>lat.=20.955395, lon.=107.049614, Alt.=-5.805851m. Speed=0.000000m/h.</desc>
<speed>0.000000</speed>
</trkpt>
<trkpt lat="20.955395" lon="107.049614">
<ele>-5.747135</ele>
<time>2011-04-30T13:29:58Z</time>
<desc>lat.=20.955395, lon.=107.049614, Alt.=-5.747135m. Speed=0.036000m/h.</desc>
<speed>0.010000</speed>
</trkpt>
<trkpt lat="20.955395" lon="107.049614">
<ele>-5.679508</ele>
<time>2011-04-30T13:30:03Z</time>
<desc>lat.=20.955395, lon.=107.049614, Alt.=-5.679508m. Speed=0.072000m/h.</desc>
<speed>0.020000</speed>
</trkpt>
<trkpt lat="20.955395" lon="107.049614">
<ele>-5.632511</ele>
<time>2011-04-30T13:30:08Z</time>
<desc>lat.=20.955395, lon.=107.049614, Alt.=-5.632511m. Speed=0.000000m/h.</desc>
<speed>0.000000</speed>
</trkpt>
<trkpt lat="20.955395" lon="107.049614">
<ele>-5.585392</ele>
<time>2011-04-30T13:30:13Z</time>
<desc>lat.=20.955395, lon.=107.049614, Alt.=-5.585392m. Speed=0.036000m/h.</desc>
<speed>0.010000</speed>
</trkpt>
<trkpt lat="20.955395" lon="107.049614">
<ele>-5.540592</ele>
<time>2011-04-30T13:30:18Z</time>
<desc>lat.=20.955395, lon.=107.049614, Alt.=-5.540592m. Speed=0.000000m/h.</desc>
<speed>0.000000</speed>
</trkpt>
<trkpt lat="20.955395" lon="107.049614">
<ele>-5.516056</ele>
<time>2011-04-30T13:30:23Z</time>
<desc>lat.=20.955395, lon.=107.049614, Alt.=-5.516056m. Speed=0.036000m/h.</desc>
<speed>0.010000</speed>
</trkpt>
<trkpt lat="20.955393" lon="107.049614">
<ele>-5.484684</ele>
<time>2011-04-30T13:30:28Z</time>
<desc>lat.=20.955393, lon.=107.049614, Alt.=-5.484684m. Speed=0.036000m/h.</desc>
<speed>0.010000</speed>
</trkpt>
<trkpt lat="20.955393" lon="107.049614">
<ele>-5.488712</ele>
<time>2011-04-30T13:30:33Z</time>
<desc>lat.=20.955393, lon.=107.049614, Alt.=-5.488712m. Speed=0.036000m/h.</desc>
<speed>0.010000</speed>
</trkpt>
<trkpt lat="20.955393" lon="107.049614">
<ele>-5.460148</ele>
<time>2011-04-30T13:30:38Z</time>
<desc>lat.=20.955393, lon.=107.049614, Alt.=-5.460148m. Speed=0.000000m/h.</desc>
<speed>0.000000</speed>
</trkpt>
<trkpt lat="20.955393" lon="107.049614">
<ele>-5.402775</ele>
<time>2011-04-30T13:30:43Z</time>
<desc>lat.=20.955393, lon.=107.049614, Alt.=-5.402775m. Speed=0.000000m/h.</desc>
<speed>0.000000</speed>
</trkpt>
<trkpt lat="20.955393" lon="107.049614">
<ele>-5.362858</ele>
<time>2011-04-30T13:30:48Z</time>
<desc>lat.=20.955393, lon.=107.049614, Alt.=-5.362858m. Speed=0.000000m/h.</desc>
<speed>0.000000</speed>
</trkpt>
<trkpt lat="20.955391" lon="107.049614">
<ele>-5.345158</ele>
<time>2011-04-30T13:30:53Z</time>
<desc>lat.=20.955391, lon.=107.049614, Alt.=-5.345158m. Speed=0.216000m/h.</desc>
<speed>0.060000</speed>
</trkpt>
<trkpt lat="20.955391" lon="107.049614">
<ele>-5.306828</ele>
<time>2011-04-30T13:30:58Z</time>
<desc>lat.=20.955391, lon.=107.049614, Alt.=-5.306828m. Speed=0.072000m/h.</desc>
<speed>0.020000</speed>
</trkpt>
<trkpt lat="20.955391" lon="107.049614">
<ele>-5.310612</ele>
<time>2011-04-30T13:31:03Z</time>
<desc>lat.=20.955391, lon.=107.049614, Alt.=-5.310612m. Speed=0.432000m/h.</desc>
<speed>0.120000</speed>
</trkpt>
<trkpt lat="20.955399" lon="107.049614">
<ele>-5.228092</ele>
<time>2011-04-30T13:31:08Z</time>
<desc>lat.=20.955399, lon.=107.049614, Alt.=-5.228092m. Speed=0.792000m/h.</desc>
<speed>0.220000</speed>
</trkpt>
<trkpt lat="20.955418" lon="107.049606">
<ele>-5.464542</ele>
<time>2011-04-30T13:31:13Z</time>
<desc>lat.=20.955418, lon.=107.049606, Alt.=-5.464542m. Speed=1.764000m/h.</desc>
<speed>0.490000</speed>
</trkpt>
<trkpt lat="20.955431" lon="107.049606">
<ele>-5.371037</ele>
<time>2011-04-30T13:31:18Z</time>
<desc>lat.=20.955431, lon.=107.049606, Alt.=-5.371037m. Speed=1.728000m/h.</desc>
<speed>0.480000</speed>
</trkpt>
<trkpt lat="20.955454" lon="107.049614">
<ele>-4.541447</ele>
<time>2011-04-30T13:31:23Z</time>
<desc>lat.=20.955454, lon.=107.049614, Alt.=-4.541447m. Speed=0.432000m/h.</desc>
<speed>0.120000</speed>
</trkpt>
<trkpt lat="20.955439" lon="107.049606">
<ele>-5.240421</ele>
<time>2011-04-30T13:31:28Z</time>
<desc>lat.=20.955439, lon.=107.049606, Alt.=-5.240421m. Speed=0.324000m/h.</desc>
<speed>0.090000</speed>
</trkpt>
<trkpt lat="20.955441" lon="107.049606">
<ele>-4.939640</ele>
<time>2011-04-30T13:31:33Z</time>
<desc>lat.=20.955441, lon.=107.049606, Alt.=-4.939640m. Speed=0.612000m/h.</desc>
<speed>0.170000</speed>
</trkpt>
<trkpt lat="20.955439" lon="107.049599">
<ele>-5.564762</ele>
<time>2011-04-30T13:31:38Z</time>
<desc>lat.=20.955439, lon.=107.049599, Alt.=-5.564762m. Speed=1.404000m/h.</desc>
<speed>0.390000</speed>
</trkpt>
<trkpt lat="20.955435" lon="107.049583">
<ele>-6.544010</ele>
<time>2011-04-30T13:31:43Z</time>
<desc>lat.=20.955435, lon.=107.049583, Alt.=-6.544010m. Speed=1.224000m/h.</desc>
<speed>0.340000</speed>
</trkpt>
<trkpt lat="20.955433" lon="107.049576">
<ele>-6.549015</ele>
<time>2011-04-30T13:31:48Z</time>
<desc>lat.=20.955433, lon.=107.049576, Alt.=-6.549015m. Speed=0.504000m/h.</desc>
<speed>0.140000</speed>
</trkpt>
<trkpt lat="20.955446" lon="107.049561">
<ele>-6.490421</ele>
<time>2011-04-30T13:31:53Z</time>
<desc>lat.=20.955446, lon.=107.049561, Alt.=-6.490421m. Speed=2.628000m/h.</desc>
<speed>0.730000</speed>
</trkpt>
<trkpt lat="20.955469" lon="107.049583">
<ele>-5.281437</ele>
<time>2011-04-30T13:31:58Z</time>
<desc>lat.=20.955469, lon.=107.049583, Alt.=-5.281437m. Speed=3.420000m/h.</desc>
<speed>0.950000</speed>
</trkpt>
<trkpt lat="20.955496" lon="107.049583">
<ele>-4.215275</ele>
<time>2011-04-30T13:32:03Z</time>
<desc>lat.=20.955496, lon.=107.049583, Alt.=-4.215275m. Speed=1.800000m/h.</desc>
<speed>0.500000</speed>
</trkpt>
<trkpt lat="20.955515" lon="107.049576">
<ele>-3.179049</ele>
<time>2011-04-30T13:32:08Z</time>
<desc>lat.=20.955515, lon.=107.049576, Alt.=-3.179049m. Speed=2.484000m/h.</desc>
<speed>0.690000</speed>
</trkpt>
<trkpt lat="20.955538" lon="107.049553">
<ele>-1.854295</ele>
<time>2011-04-30T13:32:13Z</time>
<desc>lat.=20.955538, lon.=107.049553, Alt.=-1.854295m. Speed=2.556000m/h.</desc>
<speed>0.710000</speed>
</trkpt>
<trkpt lat="20.955572" lon="107.049530">
<ele>-0.202700</ele>
<time>2011-04-30T13:32:18Z</time>
<desc>lat.=20.955572, lon.=107.049530, Alt.=-0.202700m. Speed=2.088000m/h.</desc>
<speed>0.580000</speed>
</trkpt>
<trkpt lat="20.955616" lon="107.049515">
<ele>0.364445</ele>
<time>2011-04-30T13:32:23Z</time>
<desc>lat.=20.955616, lon.=107.049515, Alt.=0.364445m. Speed=3.348000m/h.</desc>
<speed>0.930000</speed>
</trkpt>
<trkpt lat="20.955635" lon="107.049522">
<ele>0.615441</ele>
<time>2011-04-30T13:32:28Z</time>
<desc>lat.=20.955635, lon.=107.049522, Alt.=0.615441m. Speed=1.044000m/h.</desc>
<speed>0.290000</speed>
</trkpt>
<trkpt lat="20.955656" lon="107.049515">
<ele>-0.118676</ele>
<time>2011-04-30T13:32:33Z</time>
<desc>lat.=20.955656, lon.=107.049515, Alt.=-0.118676m. Speed=2.556000m/h.</desc>
<speed>0.710000</speed>
</trkpt>
<trkpt lat="20.955690" lon="107.049484">
<ele>-0.480236</ele>
<time>2011-04-30T13:32:38Z</time>
<desc>lat.=20.955690, lon.=107.049484, Alt.=-0.480236m. Speed=3.492000m/h.</desc>
<speed>0.970000</speed>
</trkpt>
<trkpt lat="20.955717" lon="107.049461">
<ele>-0.214819</ele>
<time>2011-04-30T13:32:43Z</time>
<desc>lat.=20.955717, lon.=107.049461, Alt.=-0.214819m. Speed=3.276000m/h.</desc>
<speed>0.910000</speed>
</trkpt>
<trkpt lat="20.955740" lon="107.049423">
<ele>-0.157591</ele>
<time>2011-04-30T13:32:48Z</time>
<desc>lat.=20.955740, lon.=107.049423, Alt.=-0.157591m. Speed=2.340000m/h.</desc>
<speed>0.650000</speed>
</trkpt>
<trkpt lat="20.955753" lon="107.049393">
<ele>0.187651</ele>
<time>2011-04-30T13:32:53Z</time>
<desc>lat.=20.955753, lon.=107.049393, Alt.=0.187651m. Speed=2.952000m/h.</desc>
<speed>0.820000</speed>
</trkpt>
<trkpt lat="20.955812" lon="107.049370">
<ele>-1.720384</ele>
<time>2011-04-30T13:32:58Z</time>
<desc>lat.=20.955812, lon.=107.049370, Alt.=-1.720384m. Speed=1.224000m/h.</desc>
<speed>0.340000</speed>
</trkpt>
<trkpt lat="20.955839" lon="107.049355">
<ele>-1.225816</ele>
<time>2011-04-30T13:33:03Z</time>
<desc>lat.=20.955839, lon.=107.049355, Alt.=-1.225816m. Speed=1.404000m/h.</desc>
<speed>0.390000</speed>
</trkpt>
<trkpt lat="20.955851" lon="107.049339">
<ele>-0.259991</ele>
<time>2011-04-30T13:33:08Z</time>
<desc>lat.=20.955851, lon.=107.049339, Alt.=-0.259991m. Speed=2.052000m/h.</desc>
<speed>0.570000</speed>
</trkpt>
<trkpt lat="20.955885" lon="107.049339">
<ele>0.719414</ele>
<time>2011-04-30T13:33:13Z</time>
<desc>lat.=20.955885, lon.=107.049339, Alt.=0.719414m. Speed=2.412000m/h.</desc>
<speed>0.670000</speed>
</trkpt>
<trkpt lat="20.955938" lon="107.049362">
<ele>0.808892</ele>
<time>2011-04-30T13:33:18Z</time>
<desc>lat.=20.955938, lon.=107.049362, Alt.=0.808892m. Speed=3.780000m/h.</desc>
<speed>1.050000</speed>
</trkpt>
<trkpt lat="20.955984" lon="107.049393">
<ele>-0.034295</ele>
<time>2011-04-30T13:33:23Z</time>
<desc>lat.=20.955984, lon.=107.049393, Alt.=-0.034295m. Speed=3.708000m/h.</desc>
<speed>1.030000</speed>
</trkpt>
<trkpt lat="20.956020" lon="107.049416">
<ele>0.794320</ele>
<time>2011-04-30T13:33:28Z</time>
<desc>lat.=20.956020, lon.=107.049416, Alt.=0.794320m. Speed=2.412000m/h.</desc>
<speed>0.670000</speed>
</trkpt>
<trkpt lat="20.956055" lon="107.049431">
<ele>2.290621</ele>
<time>2011-04-30T13:33:33Z</time>
<desc>lat.=20.956055, lon.=107.049431, Alt.=2.290621m. Speed=1.116000m/h.</desc>
<speed>0.310000</speed>
</trkpt>
<trkpt lat="20.956068" lon="107.049438">
<ele>2.981905</ele>
<time>2011-04-30T13:33:38Z</time>
<desc>lat.=20.956068, lon.=107.049438, Alt.=2.981905m. Speed=1.944000m/h.</desc>
<speed>0.540000</speed>
</trkpt>
<trkpt lat="20.956099" lon="107.049454">
<ele>4.589909</ele>
<time>2011-04-30T13:33:43Z</time>
<desc>lat.=20.956099, lon.=107.049454, Alt.=4.589909m. Speed=3.204000m/h.</desc>
<speed>0.890000</speed>
</trkpt>
<trkpt lat="20.956127" lon="107.049469">
<ele>6.958073</ele>
<time>2011-04-30T13:33:48Z</time>
<desc>lat.=20.956127, lon.=107.049469, Alt.=6.958073m. Speed=2.520000m/h.</desc>
<speed>0.700000</speed>
</trkpt>
<trkpt lat="20.956150" lon="107.049484">
<ele>8.535286</ele>
<time>2011-04-30T13:33:53Z</time>
<desc>lat.=20.956150, lon.=107.049484, Alt.=8.535286m. Speed=2.844000m/h.</desc>
<speed>0.790000</speed>
</trkpt>
<trkpt lat="20.956184" lon="107.049522">
<ele>9.814827</ele>
<time>2011-04-30T13:33:58Z</time>
<desc>lat.=20.956184, lon.=107.049522, Alt.=9.814827m. Speed=3.312000m/h.</desc>
<speed>0.920000</speed>
</trkpt>
<trkpt lat="20.956213" lon="107.049553">
<ele>10.328255</ele>
<time>2011-04-30T13:34:03Z</time>
<desc>lat.=20.956213, lon.=107.049553, Alt.=10.328255m. Speed=3.492000m/h.</desc>
<speed>0.970000</speed>
</trkpt>
<trkpt lat="20.956226" lon="107.049599">
<ele>10.357307</ele>
<time>2011-04-30T13:34:08Z</time>
<desc>lat.=20.956226, lon.=107.049599, Alt.=10.357307m. Speed=3.636000m/h.</desc>
<speed>1.010000</speed>
</trkpt>
<trkpt lat="20.956244" lon="107.049667">
<ele>8.690315</ele>
<time>2011-04-30T13:34:13Z</time>
<desc>lat.=20.956244, lon.=107.049667, Alt.=8.690315m. Speed=4.536000m/h.</desc>
<speed>1.260000</speed>
</trkpt>
<trkpt lat="20.956284" lon="107.049698">
<ele>7.393864</ele>
<time>2011-04-30T13:34:18Z</time>
<desc>lat.=20.956284, lon.=107.049698, Alt.=7.393864m. Speed=5.112000m/h.</desc>
<speed>1.420000</speed>
</trkpt>
<trkpt lat="20.956327" lon="107.049698">
<ele>6.146671</ele>
<time>2011-04-30T13:34:23Z</time>
<desc>lat.=20.956327, lon.=107.049698, Alt.=6.146671m. Speed=4.032000m/h.</desc>
<speed>1.120000</speed>
</trkpt>
<trkpt lat="20.956345" lon="107.049690">
<ele>4.861515</ele>
<time>2011-04-30T13:34:28Z</time>
<desc>lat.=20.956345, lon.=107.049690, Alt.=4.861515m. Speed=3.816000m/h.</desc>
<speed>1.060000</speed>
</trkpt>
<trkpt lat="20.956383" lon="107.049690">
<ele>5.347965</ele>
<time>2011-04-30T13:34:33Z</time>
<desc>lat.=20.956383, lon.=107.049690, Alt.=5.347965m. Speed=0.684000m/h.</desc>
<speed>0.190000</speed>
</trkpt>
<trkpt lat="20.956387" lon="107.049690">
<ele>5.555973</ele>
<time>2011-04-30T13:34:38Z</time>
<desc>lat.=20.956387, lon.=107.049690, Alt.=5.555973m. Speed=2.088000m/h.</desc>
<speed>0.580000</speed>
</trkpt>
<trkpt lat="20.956425" lon="107.049706">
<ele>5.088688</ele>
<time>2011-04-30T13:34:43Z</time>
<desc>lat.=20.956425, lon.=107.049706, Alt.=5.088688m. Speed=4.212000m/h.</desc>
<speed>1.170000</speed>
</trkpt>
<trkpt lat="20.956470" lon="107.049736">
<ele>4.102970</ele>
<time>2011-04-30T13:34:48Z</time>
<desc>lat.=20.956470, lon.=107.049736, Alt.=4.102970m. Speed=3.636000m/h.</desc>
<speed>1.010000</speed>
</trkpt>
<trkpt lat="20.956507" lon="107.049751">
<ele>2.266939</ele>
<time>2011-04-30T13:34:53Z</time>
<desc>lat.=20.956507, lon.=107.049751, Alt.=2.266939m. Speed=2.124000m/h.</desc>
<speed>0.590000</speed>
</trkpt>
<trkpt lat="20.956549" lon="107.049767">
<ele>1.130540</ele>
<time>2011-04-30T13:34:58Z</time>
<desc>lat.=20.956549, lon.=107.049767, Alt.=1.130540m. Speed=4.680000m/h.</desc>
<speed>1.300000</speed>
</trkpt>
<trkpt lat="20.956579" lon="107.049782">
<ele>2.059725</ele>
<time>2011-04-30T13:35:03Z</time>
<desc>lat.=20.956579, lon.=107.049782, Alt.=2.059725m. Speed=3.528000m/h.</desc>
<speed>0.980000</speed>
</trkpt>
<trkpt lat="20.956606" lon="107.049767">
<ele>2.396029</ele>
<time>2011-04-30T13:35:08Z</time>
<desc>lat.=20.956606, lon.=107.049767, Alt.=2.396029m. Speed=2.232000m/h.</desc>
<speed>0.620000</speed>
</trkpt>
<trkpt lat="20.956654" lon="107.049789">
<ele>1.484941</ele>
<time>2011-04-30T13:35:13Z</time>
<desc>lat.=20.956654, lon.=107.049789, Alt.=1.484941m. Speed=3.204000m/h.</desc>
<speed>0.890000</speed>
</trkpt>
<trkpt lat="20.956688" lon="107.049812">
<ele>2.445345</ele>
<time>2011-04-30T13:35:18Z</time>
<desc>lat.=20.956688, lon.=107.049812, Alt.=2.445345m. Speed=4.608000m/h.</desc>
<speed>1.280000</speed>
</trkpt>
<trkpt lat="20.956730" lon="107.049850">
<ele>3.670565</ele>
<time>2011-04-30T13:35:23Z</time>
<desc>lat.=20.956730, lon.=107.049850, Alt.=3.670565m. Speed=4.968000m/h.</desc>
<speed>1.380000</speed>
</trkpt>
<trkpt lat="20.956785" lon="107.049889">
<ele>4.573551</ele>
<time>2011-04-30T13:35:28Z</time>
<desc>lat.=20.956785, lon.=107.049889, Alt.=4.573551m. Speed=4.752000m/h.</desc>
<speed>1.320000</speed>
</trkpt>
<trkpt lat="20.956831" lon="107.049934">
<ele>6.263859</ele>
<time>2011-04-30T13:35:33Z</time>
<desc>lat.=20.956831, lon.=107.049934, Alt.=6.263859m. Speed=4.392000m/h.</desc>
<speed>1.220000</speed>
</trkpt>
<trkpt lat="20.956861" lon="107.049980">
<ele>10.884407</ele>
<time>2011-04-30T13:35:38Z</time>
<desc>lat.=20.956861, lon.=107.049980, Alt.=10.884407m. Speed=3.924000m/h.</desc>
<speed>1.090000</speed>
</trkpt>
<trkpt lat="20.956890" lon="107.050034">
<ele>14.785774</ele>
<time>2011-04-30T13:35:43Z</time>
<desc>lat.=20.956890, lon.=107.050034, Alt.=14.785774m. Speed=3.096000m/h.</desc>
<speed>0.860000</speed>
</trkpt>
<trkpt lat="20.956930" lon="107.050079">
<ele>19.540298</ele>
<time>2011-04-30T13:35:48Z</time>
<desc>lat.=20.956930, lon.=107.050079, Alt.=19.540298m. Speed=3.312000m/h.</desc>
<speed>0.920000</speed>
</trkpt>
<trkpt lat="20.956968" lon="107.050117">
<ele>23.265884</ele>
<time>2011-04-30T13:35:53Z</time>
<desc>lat.=20.956968, lon.=107.050117, Alt.=23.265884m. Speed=4.212000m/h.</desc>
<speed>1.170000</speed>
</trkpt>
<trkpt lat="20.956995" lon="107.050125">
<ele>28.279068</ele>
<time>2011-04-30T13:35:58Z</time>
<desc>lat.=20.956995, lon.=107.050125, Alt.=28.279068m. Speed=2.448000m/h.</desc>
<speed>0.680000</speed>
</trkpt>
<trkpt lat="20.957010" lon="107.050148">
<ele>30.018326</ele>
<time>2011-04-30T13:36:03Z</time>
<desc>lat.=20.957010, lon.=107.050148, Alt.=30.018326m. Speed=1.764000m/h.</desc>
<speed>0.490000</speed>
</trkpt>
<trkpt lat="20.957054" lon="107.050125">
<ele>31.480728</ele>
<time>2011-04-30T13:36:08Z</time>
<desc>lat.=20.957054, lon.=107.050125, Alt.=31.480728m. Speed=1.512000m/h.</desc>
<speed>0.420000</speed>
</trkpt>
<trkpt lat="20.957098" lon="107.050087">
<ele>34.547394</ele>
<time>2011-04-30T13:36:13Z</time>
<desc>lat.=20.957098, lon.=107.050087, Alt.=34.547394m. Speed=1.584000m/h.</desc>
<speed>0.440000</speed>
</trkpt>
<trkpt lat="20.957094" lon="107.050087">
<ele>35.061066</ele>
<time>2011-04-30T13:36:18Z</time>
<desc>lat.=20.957094, lon.=107.050087, Alt.=35.061066m. Speed=0.648000m/h.</desc>
<speed>0.180000</speed>
</trkpt>
<trkpt lat="20.957106" lon="107.050102">
<ele>36.104034</ele>
<time>2011-04-30T13:36:23Z</time>
<desc>lat.=20.957106, lon.=107.050102, Alt.=36.104034m. Speed=1.548000m/h.</desc>
<speed>0.430000</speed>
</trkpt>
<trkpt lat="20.957153" lon="107.050110">
<ele>37.696808</ele>
<time>2011-04-30T13:36:28Z</time>
<desc>lat.=20.957153, lon.=107.050110, Alt.=37.696808m. Speed=1.080000m/h.</desc>
<speed>0.300000</speed>
</trkpt>
<trkpt lat="20.957155" lon="107.050125">
<ele>38.541534</ele>
<time>2011-04-30T13:36:33Z</time>
<desc>lat.=20.957155, lon.=107.050125, Alt.=38.541534m. Speed=1.080000m/h.</desc>
<speed>0.300000</speed>
</trkpt>
<trkpt lat="20.957190" lon="107.050125">
<ele>36.581573</ele>
<time>2011-04-30T13:36:38Z</time>
<desc>lat.=20.957190, lon.=107.050125, Alt.=36.581573m. Speed=2.304000m/h.</desc>
<speed>0.640000</speed>
</trkpt>
<trkpt lat="20.957247" lon="107.050163">
<ele>36.955597</ele>
<time>2011-04-30T13:36:43Z</time>
<desc>lat.=20.957247, lon.=107.050163, Alt.=36.955597m. Speed=0.252000m/h.</desc>
<speed>0.070000</speed>
</trkpt>
<trkpt lat="20.957256" lon="107.050171">
<ele>36.971222</ele>
<time>2011-04-30T13:36:48Z</time>
<desc>lat.=20.957256, lon.=107.050171, Alt.=36.971222m. Speed=0.000000m/h.</desc>
<speed>0.000000</speed>
</trkpt>
<trkpt lat="20.957262" lon="107.050186">
<ele>36.499542</ele>
<time>2011-04-30T13:36:53Z</time>
<desc>lat.=20.957262, lon.=107.050186, Alt.=36.499542m. Speed=1.908000m/h.</desc>
<speed>0.530000</speed>
</trkpt>
<trkpt lat="20.957281" lon="107.050209">
<ele>35.310089</ele>
<time>2011-04-30T13:36:58Z</time>
<desc>lat.=20.957281, lon.=107.050209, Alt.=35.310089m. Speed=0.756000m/h.</desc>
<speed>0.210000</speed>
</trkpt>
<trkpt lat="20.957291" lon="107.050209">
<ele>34.822784</ele>
<time>2011-04-30T13:37:03Z</time>
<desc>lat.=20.957291, lon.=107.050209, Alt.=34.822784m. Speed=0.468000m/h.</desc>
<speed>0.130000</speed>
</trkpt>
<trkpt lat="20.957298" lon="107.050217">
<ele>34.387238</ele>
<time>2011-04-30T13:37:08Z</time>
<desc>lat.=20.957298, lon.=107.050217, Alt.=34.387238m. Speed=0.324000m/h.</desc>
<speed>0.090000</speed>
</trkpt>
<trkpt lat="20.957293" lon="107.050217">
<ele>33.934113</ele>
<time>2011-04-30T13:37:13Z</time>
<desc>lat.=20.957293, lon.=107.050217, Alt.=33.934113m. Speed=0.828000m/h.</desc>
<speed>0.230000</speed>
</trkpt>
<trkpt lat="20.957300" lon="107.050224">
<ele>32.952667</ele>
<time>2011-04-30T13:37:18Z</time>
<desc>lat.=20.957300, lon.=107.050224, Alt.=32.952667m. Speed=0.108000m/h.</desc>
<speed>0.030000</speed>
</trkpt>
<trkpt lat="20.957294" lon="107.050232">
<ele>32.291534</ele>
<time>2011-04-30T13:37:23Z</time>
<desc>lat.=20.957294, lon.=107.050232, Alt.=32.291534m. Speed=0.288000m/h.</desc>
<speed>0.080000</speed>
</trkpt>
<trkpt lat="20.957293" lon="107.050232">
<ele>31.819107</ele>
<time>2011-04-30T13:37:28Z</time>
<desc>lat.=20.957293, lon.=107.050232, Alt.=31.819107m. Speed=0.252000m/h.</desc>
<speed>0.070000</speed>
</trkpt>
<trkpt lat="20.957291" lon="107.050240">
<ele>31.352310</ele>
<time>2011-04-30T13:37:33Z</time>
<desc>lat.=20.957291, lon.=107.050240, Alt.=31.352310m. Speed=0.036000m/h.</desc>
<speed>0.010000</speed>
</trkpt>
<trkpt lat="20.957291" lon="107.050240">
<ele>30.861588</ele>
<time>2011-04-30T13:37:38Z</time>
<desc>lat.=20.957291, lon.=107.050240, Alt.=30.861588m. Speed=0.108000m/h.</desc>
<speed>0.030000</speed>
</trkpt>
<trkpt lat="20.957273" lon="107.050224">
<ele>29.298111</ele>
<time>2011-04-30T13:37:43Z</time>
<desc>lat.=20.957273, lon.=107.050224, Alt.=29.298111m. Speed=2.268000m/h.</desc>
<speed>0.630000</speed>
</trkpt>
<trkpt lat="20.957266" lon="107.050217">
<ele>28.391373</ele>
<time>2011-04-30T13:37:48Z</time>
<desc>lat.=20.957266, lon.=107.050217, Alt.=28.391373m. Speed=1.188000m/h.</desc>
<speed>0.330000</speed>
</trkpt>
<trkpt lat="20.957279" lon="107.050240">
<ele>26.781021</ele>
<time>2011-04-30T13:37:53Z</time>
<desc>lat.=20.957279, lon.=107.050240, Alt.=26.781021m. Speed=1.692000m/h.</desc>
<speed>0.470000</speed>
</trkpt>
<trkpt lat="20.957291" lon="107.050255">
<ele>27.330338</ele>
<time>2011-04-30T13:37:58Z</time>
<desc>lat.=20.957291, lon.=107.050255, Alt.=27.330338m. Speed=0.576000m/h.</desc>
<speed>0.160000</speed>
</trkpt>
<trkpt lat="20.957308" lon="107.050255">
<ele>28.209244</ele>
<time>2011-04-30T13:38:03Z</time>
<desc>lat.=20.957308, lon.=107.050255, Alt.=28.209244m. Speed=1.224000m/h.</desc>
<speed>0.340000</speed>
</trkpt>
<trkpt lat="20.957312" lon="107.050262">
<ele>28.291275</ele>
<time>2011-04-30T13:38:08Z</time>
<desc>lat.=20.957312, lon.=107.050262, Alt.=28.291275m. Speed=0.360000m/h.</desc>
<speed>0.100000</speed>
</trkpt>
<trkpt lat="20.957310" lon="107.050262">
<ele>28.251236</ele>
<time>2011-04-30T13:38:13Z</time>
<desc>lat.=20.957310, lon.=107.050262, Alt.=28.251236m. Speed=0.756000m/h.</desc>
<speed>0.210000</speed>
</trkpt>
<trkpt lat="20.957310" lon="107.050262">
<ele>28.243912</ele>
<time>2011-04-30T13:38:18Z</time>
<desc>lat.=20.957310, lon.=107.050262, Alt.=28.243912m. Speed=0.216000m/h.</desc>
<speed>0.060000</speed>
</trkpt>
<trkpt lat="20.957310" lon="107.050270">
<ele>28.291275</ele>
<time>2011-04-30T13:38:23Z</time>
<desc>lat.=20.957310, lon.=107.050270, Alt.=28.291275m. Speed=0.288000m/h.</desc>
<speed>0.080000</speed>
</trkpt>
<trkpt lat="20.957308" lon="107.050278">
<ele>28.358170</ele>
<time>2011-04-30T13:38:28Z</time>
<desc>lat.=20.957308, lon.=107.050278, Alt.=28.358170m. Speed=0.792000m/h.</desc>
<speed>0.220000</speed>
</trkpt>
<trkpt lat="20.957306" lon="107.050285">
<ele>28.387466</ele>
<time>2011-04-30T13:38:33Z</time>
<desc>lat.=20.957306, lon.=107.050285, Alt.=28.387466m. Speed=0.540000m/h.</desc>
<speed>0.150000</speed>
</trkpt>
<trkpt lat="20.957304" lon="107.050293">
<ele>28.422623</ele>
<time>2011-04-30T13:38:38Z</time>
<desc>lat.=20.957304, lon.=107.050293, Alt.=28.422623m. Speed=0.288000m/h.</desc>
<speed>0.080000</speed>
</trkpt>
<trkpt lat="20.957298" lon="107.050301">
<ele>28.476822</ele>
<time>2011-04-30T13:38:43Z</time>
<desc>lat.=20.957298, lon.=107.050301, Alt.=28.476822m. Speed=0.216000m/h.</desc>
<speed>0.060000</speed>
</trkpt>
<trkpt lat="20.957293" lon="107.050301">
<ele>28.587173</ele>
<time>2011-04-30T13:38:48Z</time>
<desc>lat.=20.957293, lon.=107.050301, Alt.=28.587173m. Speed=0.900000m/h.</desc>
<speed>0.250000</speed>
</trkpt>
<trkpt lat="20.957306" lon="107.050331">
<ele>28.663345</ele>
<time>2011-04-30T13:38:53Z</time>
<desc>lat.=20.957306, lon.=107.050331, Alt.=28.663345m. Speed=0.504000m/h.</desc>
<speed>0.140000</speed>
</trkpt>
<trkpt lat="20.957308" lon="107.050346">
<ele>28.684341</ele>
<time>2011-04-30T13:38:58Z</time>
<desc>lat.=20.957308, lon.=107.050346, Alt.=28.684341m. Speed=0.468000m/h.</desc>
<speed>0.130000</speed>
</trkpt>
<trkpt lat="20.957306" lon="107.050354">
<ele>28.704361</ele>
<time>2011-04-30T13:39:03Z</time>
<desc>lat.=20.957306, lon.=107.050354, Alt.=28.704361m. Speed=1.044000m/h.</desc>
<speed>0.290000</speed>
</trkpt>
<trkpt lat="20.957310" lon="107.050392">
<ele>28.638443</ele>
<time>2011-04-30T13:39:08Z</time>
<desc>lat.=20.957310, lon.=107.050392, Alt.=28.638443m. Speed=1.800000m/h.</desc>
<speed>0.500000</speed>
</trkpt>
<trkpt lat="20.957336" lon="107.050507">
<ele>28.522720</ele>
<time>2011-04-30T13:39:13Z</time>
<desc>lat.=20.957336, lon.=107.050507, Alt.=28.522720m. Speed=4.284000m/h.</desc>
<speed>1.190000</speed>
</trkpt>
<trkpt lat="20.957342" lon="107.050613">
<ele>28.458267</ele>
<time>2011-04-30T13:39:18Z</time>
<desc>lat.=20.957342, lon.=107.050613, Alt.=28.458267m. Speed=4.068000m/h.</desc>
<speed>1.130000</speed>
</trkpt>
<trkpt lat="20.957327" lon="107.050636">
<ele>28.404556</ele>
<time>2011-04-30T13:39:23Z</time>
<desc>lat.=20.957327, lon.=107.050636, Alt.=28.404556m. Speed=3.528000m/h.</desc>
<speed>0.980000</speed>
</trkpt>
<trkpt lat="20.957302" lon="107.050636">
<ele>28.329849</ele>
<time>2011-04-30T13:39:28Z</time>
<desc>lat.=20.957302, lon.=107.050636, Alt.=28.329849m. Speed=2.268000m/h.</desc>
<speed>0.630000</speed>
</trkpt>
<trkpt lat="20.957279" lon="107.050621">
<ele>28.221451</ele>
<time>2011-04-30T13:39:33Z</time>
<desc>lat.=20.957279, lon.=107.050621, Alt.=28.221451m. Speed=1.620000m/h.</desc>
<speed>0.450000</speed>
</trkpt>
<trkpt lat="20.957243" lon="107.050644">
<ele>28.172134</ele>
<time>2011-04-30T13:39:38Z</time>
<desc>lat.=20.957243, lon.=107.050644, Alt.=28.172134m. Speed=1.728000m/h.</desc>
<speed>0.480000</speed>
</trkpt>
<trkpt lat="20.957232" lon="107.050652">
<ele>28.109146</ele>
<time>2011-04-30T13:39:43Z</time>
<desc>lat.=20.957232, lon.=107.050652, Alt.=28.109146m. Speed=1.188000m/h.</desc>
<speed>0.330000</speed>
</trkpt>
<trkpt lat="20.957207" lon="107.050652">
<ele>28.124283</ele>
<time>2011-04-30T13:39:48Z</time>
<desc>lat.=20.957207, lon.=107.050652, Alt.=28.124283m. Speed=1.188000m/h.</desc>
<speed>0.330000</speed>
</trkpt>
<trkpt lat="20.957195" lon="107.050629">
<ele>28.148697</ele>
<time>2011-04-30T13:39:53Z</time>
<desc>lat.=20.957195, lon.=107.050629, Alt.=28.148697m. Speed=1.044000m/h.</desc>
<speed>0.290000</speed>
</trkpt>
<trkpt lat="20.957203" lon="107.050621">
<ele>28.143814</ele>
<time>2011-04-30T13:39:58Z</time>
<desc>lat.=20.957203, lon.=107.050621, Alt.=28.143814m. Speed=0.828000m/h.</desc>
<speed>0.230000</speed>
</trkpt>
<trkpt lat="20.957195" lon="107.050613">
<ele>28.165298</ele>
<time>2011-04-30T13:40:03Z</time>
<desc>lat.=20.957195, lon.=107.050613, Alt.=28.165298m. Speed=0.828000m/h.</desc>
<speed>0.230000</speed>
</trkpt>
<trkpt lat="20.957191" lon="107.050606">
<ele>28.185806</ele>
<time>2011-04-30T13:40:08Z</time>
<desc>lat.=20.957191, lon.=107.050606, Alt.=28.185806m. Speed=0.360000m/h.</desc>
<speed>0.100000</speed>
</trkpt>
<trkpt lat="20.957191" lon="107.050598">
<ele>28.206802</ele>
<time>2011-04-30T13:40:13Z</time>
<desc>lat.=20.957191, lon.=107.050598, Alt.=28.206802m. Speed=0.396000m/h.</desc>
<speed>0.110000</speed>
</trkpt>
<trkpt lat="20.957191" lon="107.050591">
<ele>28.233170</ele>
<time>2011-04-30T13:40:18Z</time>
<desc>lat.=20.957191, lon.=107.050591, Alt.=28.233170m. Speed=0.540000m/h.</desc>
<speed>0.150000</speed>
</trkpt>
<trkpt lat="20.957193" lon="107.050591">
<ele>28.260513</ele>
<time>2011-04-30T13:40:23Z</time>
<desc>lat.=20.957193, lon.=107.050591, Alt.=28.260513m. Speed=0.288000m/h.</desc>
<speed>0.080000</speed>
</trkpt>
<trkpt lat="20.957197" lon="107.050591">
<ele>28.288834</ele>
<time>2011-04-30T13:40:28Z</time>
<desc>lat.=20.957197, lon.=107.050591, Alt.=28.288834m. Speed=0.108000m/h.</desc>
<speed>0.030000</speed>
</trkpt>
<trkpt lat="20.957197" lon="107.050591">
<ele>28.316666</ele>
<time>2011-04-30T13:40:33Z</time>
<desc>lat.=20.957197, lon.=107.050591, Alt.=28.316666m. Speed=0.504000m/h.</desc>
<speed>0.140000</speed>
</trkpt>
<trkpt lat="20.957199" lon="107.050598">
<ele>28.344986</ele>
<time>2011-04-30T13:40:38Z</time>
<desc>lat.=20.957199, lon.=107.050598, Alt.=28.344986m. Speed=0.108000m/h.</desc>
<speed>0.030000</speed>
</trkpt>
<trkpt lat="20.957199" lon="107.050598">
<ele>28.372330</ele>
<time>2011-04-30T13:40:43Z</time>
<desc>lat.=20.957199, lon.=107.050598, Alt.=28.372330m. Speed=0.036000m/h.</desc>
<speed>0.010000</speed>
</trkpt>
<trkpt lat="20.957197" lon="107.050606">
<ele>28.398697</ele>
<time>2011-04-30T13:40:48Z</time>
<desc>lat.=20.957197, lon.=107.050606, Alt.=28.398697m. Speed=0.720000m/h.</desc>
<speed>0.200000</speed>
</trkpt>
<trkpt lat="20.957193" lon="107.050613">
<ele>28.426529</ele>
<time>2011-04-30T13:40:53Z</time>
<desc>lat.=20.957193, lon.=107.050613, Alt.=28.426529m. Speed=0.792000m/h.</desc>
<speed>0.220000</speed>
</trkpt>
<trkpt lat="20.957191" lon="107.050621">
<ele>28.453873</ele>
<time>2011-04-30T13:40:58Z</time>
<desc>lat.=20.957191, lon.=107.050621, Alt.=28.453873m. Speed=0.864000m/h.</desc>
<speed>0.240000</speed>
</trkpt>
<trkpt lat="20.957197" lon="107.050629">
<ele>28.481216</ele>
<time>2011-04-30T13:41:03Z</time>
<desc>lat.=20.957197, lon.=107.050629, Alt.=28.481216m. Speed=0.612000m/h.</desc>
<speed>0.170000</speed>
</trkpt>
<trkpt lat="20.957199" lon="107.050629">
<ele>28.512466</ele>
<time>2011-04-30T13:41:08Z</time>
<desc>lat.=20.957199, lon.=107.050629, Alt.=28.512466m. Speed=0.540000m/h.</desc>
<speed>0.150000</speed>
</trkpt>
<trkpt lat="20.957203" lon="107.050613">
<ele>28.546158</ele>
<time>2011-04-30T13:41:13Z</time>
<desc>lat.=20.957203, lon.=107.050613, Alt.=28.546158m. Speed=1.152000m/h.</desc>
<speed>0.320000</speed>
</trkpt>
<trkpt lat="20.957209" lon="107.050545">
<ele>28.833755</ele>
<time>2011-04-30T13:41:18Z</time>
<desc>lat.=20.957209, lon.=107.050545, Alt.=28.833755m. Speed=1.440000m/h.</desc>
<speed>0.400000</speed>
</trkpt>
<trkpt lat="20.957214" lon="107.050499">
<ele>28.971939</ele>
<time>2011-04-30T13:41:23Z</time>
<desc>lat.=20.957214, lon.=107.050499, Alt.=28.971939m. Speed=1.512000m/h.</desc>
<speed>0.420000</speed>
</trkpt>
<trkpt lat="20.957220" lon="107.050514">
<ele>29.297134</ele>
<time>2011-04-30T13:41:28Z</time>
<desc>lat.=20.957220, lon.=107.050514, Alt.=29.297134m. Speed=0.900000m/h.</desc>
<speed>0.250000</speed>
</trkpt>
<trkpt lat="20.957226" lon="107.050537">
<ele>29.495377</ele>
<time>2011-04-30T13:41:33Z</time>
<desc>lat.=20.957226, lon.=107.050537, Alt.=29.495377m. Speed=0.216000m/h.</desc>
<speed>0.060000</speed>
</trkpt>
<trkpt lat="20.957228" lon="107.050537">
<ele>29.573013</ele>
<time>2011-04-30T13:41:38Z</time>
<desc>lat.=20.957228, lon.=107.050537, Alt.=29.573013m. Speed=0.324000m/h.</desc>
<speed>0.090000</speed>
</trkpt>
<trkpt lat="20.957232" lon="107.050537">
<ele>29.662857</ele>
<time>2011-04-30T13:41:43Z</time>
<desc>lat.=20.957232, lon.=107.050537, Alt.=29.662857m. Speed=0.144000m/h.</desc>
<speed>0.040000</speed>
</trkpt>
<trkpt lat="20.957228" lon="107.050545">
<ele>29.763931</ele>
<time>2011-04-30T13:41:48Z</time>
<desc>lat.=20.957228, lon.=107.050545, Alt.=29.763931m. Speed=0.576000m/h.</desc>
<speed>0.160000</speed>
</trkpt>
<trkpt lat="20.957218" lon="107.050537">
<ele>29.860611</ele>
<time>2011-04-30T13:41:53Z</time>
<desc>lat.=20.957218, lon.=107.050537, Alt.=29.860611m. Speed=0.936000m/h.</desc>
<speed>0.260000</speed>
</trkpt>
<trkpt lat="20.957180" lon="107.050552">
<ele>29.908951</ele>
<time>2011-04-30T13:41:58Z</time>
<desc>lat.=20.957180, lon.=107.050552, Alt.=29.908951m. Speed=1.476000m/h.</desc>
<speed>0.410000</speed>
</trkpt>
<trkpt lat="20.957167" lon="107.050545">
<ele>29.866470</ele>
<time>2011-04-30T13:42:03Z</time>
<desc>lat.=20.957167, lon.=107.050545, Alt.=29.866470m. Speed=1.260000m/h.</desc>
<speed>0.350000</speed>
</trkpt>
<trkpt lat="20.957167" lon="107.050552">
<ele>29.540298</ele>
<time>2011-04-30T13:42:08Z</time>
<desc>lat.=20.957167, lon.=107.050552, Alt.=29.540298m. Speed=1.080000m/h.</desc>
<speed>0.300000</speed>
</trkpt>
<trkpt lat="20.957159" lon="107.050552">
<ele>29.278580</ele>
<time>2011-04-30T13:42:13Z</time>
<desc>lat.=20.957159, lon.=107.050552, Alt.=29.278580m. Speed=0.828000m/h.</desc>
<speed>0.230000</speed>
</trkpt>
<trkpt lat="20.957150" lon="107.050552">
<ele>29.302994</ele>
<time>2011-04-30T13:42:18Z</time>
<desc>lat.=20.957150, lon.=107.050552, Alt.=29.302994m. Speed=0.828000m/h.</desc>
<speed>0.230000</speed>
</trkpt>
<trkpt lat="20.957144" lon="107.050560">
<ele>29.297623</ele>
<time>2011-04-30T13:42:23Z</time>
<desc>lat.=20.957144, lon.=107.050560, Alt.=29.297623m. Speed=0.576000m/h.</desc>
<speed>0.160000</speed>
</trkpt>
<trkpt lat="20.957142" lon="107.050560">
<ele>29.300552</ele>
<time>2011-04-30T13:42:28Z</time>
<desc>lat.=20.957142, lon.=107.050560, Alt.=29.300552m. Speed=0.252000m/h.</desc>
<speed>0.070000</speed>
</trkpt>
<trkpt lat="20.957146" lon="107.050560">
<ele>29.310318</ele>
<time>2011-04-30T13:42:33Z</time>
<desc>lat.=20.957146, lon.=107.050560, Alt.=29.310318m. Speed=0.540000m/h.</desc>
<speed>0.150000</speed>
</trkpt>
<trkpt lat="20.957153" lon="107.050552">
<ele>29.341568</ele>
<time>2011-04-30T13:42:38Z</time>
<desc>lat.=20.957153, lon.=107.050552, Alt.=29.341568m. Speed=0.792000m/h.</desc>
<speed>0.220000</speed>
</trkpt>
<trkpt lat="20.957163" lon="107.050552">
<ele>29.397720</ele>
<time>2011-04-30T13:42:43Z</time>
<desc>lat.=20.957163, lon.=107.050552, Alt.=29.397720m. Speed=0.576000m/h.</desc>
<speed>0.160000</speed>
</trkpt>
<trkpt lat="20.957170" lon="107.050545">
<ele>29.477310</ele>
<time>2011-04-30T13:42:48Z</time>
<desc>lat.=20.957170, lon.=107.050545, Alt.=29.477310m. Speed=0.576000m/h.</desc>
<speed>0.160000</speed>
</trkpt>
<trkpt lat="20.957172" lon="107.050545">
<ele>29.589127</ele>
<time>2011-04-30T13:42:53Z</time>
<desc>lat.=20.957172, lon.=107.050545, Alt.=29.589127m. Speed=0.828000m/h.</desc>
<speed>0.230000</speed>
</trkpt>
<trkpt lat="20.957191" lon="107.050560">
<ele>29.583755</ele>
<time>2011-04-30T13:42:58Z</time>
<desc>lat.=20.957191, lon.=107.050560, Alt.=29.583755m. Speed=1.512000m/h.</desc>
<speed>0.420000</speed>
</trkpt>
<trkpt lat="20.957230" lon="107.050591">
<ele>29.675064</ele>
<time>2011-04-30T13:43:03Z</time>
<desc>lat.=20.957230, lon.=107.050591, Alt.=29.675064m. Speed=2.520000m/h.</desc>
<speed>0.700000</speed>
</trkpt>
<trkpt lat="20.957266" lon="107.050621">
<ele>29.835709</ele>
<time>2011-04-30T13:43:08Z</time>
<desc>lat.=20.957266, lon.=107.050621, Alt.=29.835709m. Speed=3.024000m/h.</desc>
<speed>0.840000</speed>
</trkpt>
<trkpt lat="20.960104" lon="107.050331">
<ele>29.373306</ele>
<time>2011-04-30T13:44:20Z</time>
<desc>lat.=20.960104, lon.=107.050331, Alt.=29.373306m. Speed=0.936000m/h.</desc>
<speed>0.260000</speed>
</trkpt>
<trkpt lat="20.957525" lon="107.050301">
<ele>29.221451</ele>
<time>2011-04-30T13:44:25Z</time>
<desc>lat.=20.957525, lon.=107.050301, Alt.=29.221451m. Speed=2.196000m/h.</desc>
<speed>0.610000</speed>
</trkpt>
<trkpt lat="20.957260" lon="107.050362">
<ele>28.873306</ele>
<time>2011-04-30T13:44:30Z</time>
<desc>lat.=20.957260, lon.=107.050362, Alt.=28.873306m. Speed=2.160000m/h.</desc>
<speed>0.600000</speed>
</trkpt>
<trkpt lat="20.957096" lon="107.050461">
<ele>28.865982</ele>
<time>2011-04-30T13:44:35Z</time>
<desc>lat.=20.957096, lon.=107.050461, Alt.=28.865982m. Speed=4.032000m/h.</desc>
<speed>1.120000</speed>
</trkpt>
<trkpt lat="20.957067" lon="107.050621">
<ele>28.301041</ele>
<time>2011-04-30T13:44:40Z</time>
<desc>lat.=20.957067, lon.=107.050621, Alt.=28.301041m. Speed=4.464000m/h.</desc>
<speed>1.240000</speed>
</trkpt>
<trkpt lat="20.957150" lon="107.050598">
<ele>28.415787</ele>
<time>2011-04-30T13:44:45Z</time>
<desc>lat.=20.957150, lon.=107.050598, Alt.=28.415787m. Speed=1.332000m/h.</desc>
<speed>0.370000</speed>
</trkpt>
<trkpt lat="20.957188" lon="107.050575">
<ele>28.218033</ele>
<time>2011-04-30T13:44:50Z</time>
<desc>lat.=20.957188, lon.=107.050575, Alt.=28.218033m. Speed=0.792000m/h.</desc>
<speed>0.220000</speed>
</trkpt>
<trkpt lat="20.957182" lon="107.050575">
<ele>28.200455</ele>
<time>2011-04-30T13:44:55Z</time>
<desc>lat.=20.957182, lon.=107.050575, Alt.=28.200455m. Speed=0.288000m/h.</desc>
<speed>0.080000</speed>
</trkpt>
<trkpt lat="20.957186" lon="107.050575">
<ele>28.179459</ele>
<time>2011-04-30T13:45:00Z</time>
<desc>lat.=20.957186, lon.=107.050575, Alt.=28.179459m. Speed=0.108000m/h.</desc>
<speed>0.030000</speed>
</trkpt>
<trkpt lat="20.957186" lon="107.050568">
<ele>28.167740</ele>
<time>2011-04-30T13:45:05Z</time>
<desc>lat.=20.957186, lon.=107.050568, Alt.=28.167740m. Speed=0.252000m/h.</desc>
<speed>0.070000</speed>
</trkpt>
<trkpt lat="20.957184" lon="107.050568">
<ele>28.135025</ele>
<time>2011-04-30T13:45:10Z</time>
<desc>lat.=20.957184, lon.=107.050568, Alt.=28.135025m. Speed=0.684000m/h.</desc>
<speed>0.190000</speed>
</trkpt>
<trkpt lat="20.957178" lon="107.050560">
<ele>28.092545</ele>
<time>2011-04-30T13:45:15Z</time>
<desc>lat.=20.957178, lon.=107.050560, Alt.=28.092545m. Speed=0.576000m/h.</desc>
<speed>0.160000</speed>
</trkpt>
<trkpt lat="20.957172" lon="107.050552">
<ele>28.010025</ele>
<time>2011-04-30T13:45:20Z</time>
<desc>lat.=20.957172, lon.=107.050552, Alt.=28.010025m. Speed=1.044000m/h.</desc>
<speed>0.290000</speed>
</trkpt>
<trkpt lat="20.957163" lon="107.050529">
<ele>27.509537</ele>
<time>2011-04-30T13:45:25Z</time>
<desc>lat.=20.957163, lon.=107.050529, Alt.=27.509537m. Speed=1.512000m/h.</desc>
<speed>0.420000</speed>
</trkpt>
<trkpt lat="20.957123" lon="107.050522">
<ele>27.016861</ele>
<time>2011-04-30T13:45:30Z</time>
<desc>lat.=20.957123, lon.=107.050522, Alt.=27.016861m. Speed=1.512000m/h.</desc>
<speed>0.420000</speed>
</trkpt>
<trkpt lat="20.957108" lon="107.050499">
<ele>26.041763</ele>
<time>2011-04-30T13:45:35Z</time>
<desc>lat.=20.957108, lon.=107.050499, Alt.=26.041763m. Speed=1.440000m/h.</desc>
<speed>0.400000</speed>
</trkpt>
<trkpt lat="20.957090" lon="107.050453">
<ele>25.177505</ele>
<time>2011-04-30T13:45:40Z</time>
<desc>lat.=20.957090, lon.=107.050453, Alt.=25.177505m. Speed=1.944000m/h.</desc>
<speed>0.540000</speed>
</trkpt>
<trkpt lat="20.957073" lon="107.050415">
<ele>24.742935</ele>
<time>2011-04-30T13:45:45Z</time>
<desc>lat.=20.957073, lon.=107.050415, Alt.=24.742935m. Speed=2.520000m/h.</desc>
<speed>0.700000</speed>
</trkpt>
<trkpt lat="20.957067" lon="107.050400">
<ele>24.626236</ele>
<time>2011-04-30T13:45:50Z</time>
<desc>lat.=20.957067, lon.=107.050400, Alt.=24.626236m. Speed=1.584000m/h.</desc>
<speed>0.440000</speed>
</trkpt>
<trkpt lat="20.957048" lon="107.050415">
<ele>24.639420</ele>
<time>2011-04-30T13:45:55Z</time>
<desc>lat.=20.957048, lon.=107.050415, Alt.=24.639420m. Speed=1.584000m/h.</desc>
<speed>0.440000</speed>
</trkpt>
<trkpt lat="20.957018" lon="107.050392">
<ele>24.630630</ele>
<time>2011-04-30T13:46:00Z</time>
<desc>lat.=20.957018, lon.=107.050392, Alt.=24.630630m. Speed=2.484000m/h.</desc>
<speed>0.690000</speed>
</trkpt>
<trkpt lat="20.956972" lon="107.050331">
<ele>24.615494</ele>
<time>2011-04-30T13:46:05Z</time>
<desc>lat.=20.956972, lon.=107.050331, Alt.=24.615494m. Speed=5.508000m/h.</desc>
<speed>1.530000</speed>
</trkpt>
<trkpt lat="20.956974" lon="107.050293">
<ele>24.315689</ele>
<time>2011-04-30T13:46:10Z</time>
<desc>lat.=20.956974, lon.=107.050293, Alt.=24.315689m. Speed=7.848000m/h.</desc>
<speed>2.180000</speed>
</trkpt>
<trkpt lat="20.957085" lon="107.050285">
<ele>23.751724</ele>
<time>2011-04-30T13:46:15Z</time>
<desc>lat.=20.957085, lon.=107.050285, Alt.=23.751724m. Speed=4.320000m/h.</desc>
<speed>1.200000</speed>
</trkpt>
<trkpt lat="20.957197" lon="107.050186">
<ele>22.970474</ele>
<time>2011-04-30T13:46:20Z</time>
<desc>lat.=20.957197, lon.=107.050186, Alt.=22.970474m. Speed=15.084000m/h.</desc>
<speed>4.190000</speed>
</trkpt>
<trkpt lat="20.957279" lon="107.050056">
<ele>20.892349</ele>
<time>2011-04-30T13:46:25Z</time>
<desc>lat.=20.957279, lon.=107.050056, Alt.=20.892349m. Speed=12.276000m/h.</desc>
<speed>3.410000</speed>
</trkpt>
<trkpt lat="20.957296" lon="107.049957">
<ele>16.962173</ele>
<time>2011-04-30T13:46:30Z</time>
<desc>lat.=20.957296, lon.=107.049957, Alt.=16.962173m. Speed=9.648000m/h.</desc>
<speed>2.680000</speed>
</trkpt>
<trkpt lat="20.957369" lon="107.049850">
<ele>13.974251</ele>
<time>2011-04-30T13:46:35Z</time>
<desc>lat.=20.957369, lon.=107.049850, Alt.=13.974251m. Speed=8.316000m/h.</desc>
<speed>2.310000</speed>
</trkpt>
<trkpt lat="20.957415" lon="107.049820">
<ele>11.328499</ele>
<time>2011-04-30T13:46:40Z</time>
<desc>lat.=20.957415, lon.=107.049820, Alt.=11.328499m. Speed=5.940000m/h.</desc>
<speed>1.650000</speed>
</trkpt>
<trkpt lat="20.957441" lon="107.049881">
<ele>9.436897</ele>
<time>2011-04-30T13:46:45Z</time>
<desc>lat.=20.957441, lon.=107.049881, Alt.=9.436897m. Speed=3.636000m/h.</desc>
<speed>1.010000</speed>
</trkpt>
<trkpt lat="20.957447" lon="107.050011">
<ele>6.685490</ele>
<time>2011-04-30T13:46:50Z</time>
<desc>lat.=20.957447, lon.=107.050011, Alt.=6.685490m. Speed=0.144000m/h.</desc>
<speed>0.040000</speed>
</trkpt>
<trkpt lat="20.957436" lon="107.050034">
<ele>4.920841</ele>
<time>2011-04-30T13:46:55Z</time>
<desc>lat.=20.957436, lon.=107.050034, Alt.=4.920841m. Speed=4.140000m/h.</desc>
<speed>1.150000</speed>
</trkpt>
<trkpt lat="20.957434" lon="107.050049">
<ele>3.236483</ele>
<time>2011-04-30T13:47:00Z</time>
<desc>lat.=20.957434, lon.=107.050049, Alt.=3.236483m. Speed=1.944000m/h.</desc>
<speed>0.540000</speed>
</trkpt>
<trkpt lat="20.957432" lon="107.050064">
<ele>1.380509</ele>
<time>2011-04-30T13:47:05Z</time>
<desc>lat.=20.957432, lon.=107.050064, Alt.=1.380509m. Speed=3.240000m/h.</desc>
<speed>0.900000</speed>
</trkpt>
<trkpt lat="20.957430" lon="107.050102">
<ele>-0.462361</ele>
<time>2011-04-30T13:47:10Z</time>
<desc>lat.=20.957430, lon.=107.050102, Alt.=-0.462361m. Speed=3.060000m/h.</desc>
<speed>0.850000</speed>
</trkpt>
<trkpt lat="20.957464" lon="107.050171">
<ele>-1.378434</ele>
<time>2011-04-30T13:47:15Z</time>
<desc>lat.=20.957464, lon.=107.050171, Alt.=-1.378434m. Speed=4.428000m/h.</desc>
<speed>1.230000</speed>
</trkpt>
<trkpt lat="20.957470" lon="107.050194">
<ele>-2.667147</ele>
<time>2011-04-30T13:47:20Z</time>
<desc>lat.=20.957470, lon.=107.050194, Alt.=-2.667147m. Speed=0.324000m/h.</desc>
<speed>0.090000</speed>
</trkpt>
<trkpt lat="20.957514" lon="107.050262">
<ele>-3.467867</ele>
<time>2011-04-30T13:47:25Z</time>
<desc>lat.=20.957514, lon.=107.050262, Alt.=-3.467867m. Speed=0.648000m/h.</desc>
<speed>0.180000</speed>
</trkpt>
<trkpt lat="20.957561" lon="107.050308">
<ele>-3.862947</ele>
<time>2011-04-30T13:47:30Z</time>
<desc>lat.=20.957561, lon.=107.050308, Alt.=-3.862947m. Speed=1.620000m/h.</desc>
<speed>0.450000</speed>
</trkpt>
<trkpt lat="20.957603" lon="107.050308">
<ele>-3.816256</ele>
<time>2011-04-30T13:47:35Z</time>
<desc>lat.=20.957603, lon.=107.050308, Alt.=-3.816256m. Speed=6.480000m/h.</desc>
<speed>1.800000</speed>
</trkpt>
<trkpt lat="20.957546" lon="107.050415">
<ele>-2.320711</ele>
<time>2011-04-30T13:47:40Z</time>
<desc>lat.=20.957546, lon.=107.050415, Alt.=-2.320711m. Speed=1.836000m/h.</desc>
<speed>0.510000</speed>
</trkpt>
<trkpt lat="20.957500" lon="107.050507">
<ele>-1.307084</ele>
<time>2011-04-30T13:47:45Z</time>
<desc>lat.=20.957500, lon.=107.050507, Alt.=-1.307084m. Speed=6.696000m/h.</desc>
<speed>1.860000</speed>
</trkpt>
<trkpt lat="20.957468" lon="107.050568">
<ele>-0.506890</ele>
<time>2011-04-30T13:47:50Z</time>
<desc>lat.=20.957468, lon.=107.050568, Alt.=-0.506890m. Speed=4.824000m/h.</desc>
<speed>1.340000</speed>
</trkpt>
<trkpt lat="20.957466" lon="107.050537">
<ele>0.787209</ele>
<time>2011-04-30T13:47:55Z</time>
<desc>lat.=20.957466, lon.=107.050537, Alt.=0.787209m. Speed=2.340000m/h.</desc>
<speed>0.650000</speed>
</trkpt>
<trkpt lat="20.957434" lon="107.050507">
<ele>5.523136</ele>
<time>2011-04-30T13:48:00Z</time>
<desc>lat.=20.957434, lon.=107.050507, Alt.=5.523136m. Speed=0.900000m/h.</desc>
<speed>0.250000</speed>
</trkpt>
<trkpt lat="20.957455" lon="107.050522">
<ele>11.330208</ele>
<time>2011-04-30T13:48:05Z</time>
<desc>lat.=20.957455, lon.=107.050522, Alt.=11.330208m. Speed=1.872000m/h.</desc>
<speed>0.520000</speed>
</trkpt>
<trkpt lat="20.957424" lon="107.050522">
<ele>17.585709</ele>
<time>2011-04-30T13:48:10Z</time>
<desc>lat.=20.957424, lon.=107.050522, Alt.=17.585709m. Speed=1.116000m/h.</desc>
<speed>0.310000</speed>
</trkpt>
<trkpt lat="20.957388" lon="107.050537">
<ele>23.668228</ele>
<time>2011-04-30T13:48:15Z</time>
<desc>lat.=20.957388, lon.=107.050537, Alt.=23.668228m. Speed=0.792000m/h.</desc>
<speed>0.220000</speed>
</trkpt>
<trkpt lat="20.957357" lon="107.050514">
<ele>28.740005</ele>
<time>2011-04-30T13:48:20Z</time>
<desc>lat.=20.957357, lon.=107.050514, Alt.=28.740005m. Speed=1.800000m/h.</desc>
<speed>0.500000</speed>
</trkpt>
<trkpt lat="20.957390" lon="107.050446">
<ele>32.064972</ele>
<time>2011-04-30T13:48:25Z</time>
<desc>lat.=20.957390, lon.=107.050446, Alt.=32.064972m. Speed=2.052000m/h.</desc>
<speed>0.570000</speed>
</trkpt>
<trkpt lat="20.957411" lon="107.050392">
<ele>34.456573</ele>
<time>2011-04-30T13:48:30Z</time>
<desc>lat.=20.957411, lon.=107.050392, Alt.=34.456573m. Speed=0.828000m/h.</desc>
<speed>0.230000</speed>
</trkpt>
<trkpt lat="20.957407" lon="107.050392">
<ele>35.190948</ele>
<time>2011-04-30T13:48:35Z</time>
<desc>lat.=20.957407, lon.=107.050392, Alt.=35.190948m. Speed=0.576000m/h.</desc>
<speed>0.160000</speed>
</trkpt>
<trkpt lat="20.957430" lon="107.050407">
<ele>35.186066</ele>
<time>2011-04-30T13:48:40Z</time>
<desc>lat.=20.957430, lon.=107.050407, Alt.=35.186066m. Speed=1.332000m/h.</desc>
<speed>0.370000</speed>
</trkpt>
<trkpt lat="20.957430" lon="107.050415">
<ele>35.587433</ele>
<time>2011-04-30T13:48:45Z</time>
<desc>lat.=20.957430, lon.=107.050415, Alt.=35.587433m. Speed=0.720000m/h.</desc>
<speed>0.200000</speed>
</trkpt>
<trkpt lat="20.957430" lon="107.050392">
<ele>35.804230</ele>
<time>2011-04-30T13:48:50Z</time>
<desc>lat.=20.957430, lon.=107.050392, Alt.=35.804230m. Speed=0.432000m/h.</desc>
<speed>0.120000</speed>
</trkpt>
<trkpt lat="20.957434" lon="107.050392">
<ele>35.790558</ele>
<time>2011-04-30T13:48:55Z</time>
<desc>lat.=20.957434, lon.=107.050392, Alt.=35.790558m. Speed=0.756000m/h.</desc>
<speed>0.210000</speed>
</trkpt>
<trkpt lat="20.957436" lon="107.050400">
<ele>35.376495</ele>
<time>2011-04-30T13:49:00Z</time>
<desc>lat.=20.957436, lon.=107.050400, Alt.=35.376495m. Speed=0.720000m/h.</desc>
<speed>0.200000</speed>
</trkpt>
<trkpt lat="20.957422" lon="107.050446">
<ele>35.237823</ele>
<time>2011-04-30T13:49:05Z</time>
<desc>lat.=20.957422, lon.=107.050446, Alt.=35.237823m. Speed=0.252000m/h.</desc>
<speed>0.070000</speed>
</trkpt>
<trkpt lat="20.957428" lon="107.050438">
<ele>35.221222</ele>
<time>2011-04-30T13:49:10Z</time>
<desc>lat.=20.957428, lon.=107.050438, Alt.=35.221222m. Speed=0.828000m/h.</desc>
<speed>0.230000</speed>
</trkpt>
<trkpt lat="20.957434" lon="107.050430">
<ele>35.257355</ele>
<time>2011-04-30T13:49:15Z</time>
<desc>lat.=20.957434, lon.=107.050430, Alt.=35.257355m. Speed=0.288000m/h.</desc>
<speed>0.080000</speed>
</trkpt>
<trkpt lat="20.957430" lon="107.050430">
<ele>35.310089</ele>
<time>2011-04-30T13:49:20Z</time>
<desc>lat.=20.957430, lon.=107.050430, Alt.=35.310089m. Speed=0.864000m/h.</desc>
<speed>0.240000</speed>
</trkpt>
<trkpt lat="20.957403" lon="107.050453">
<ele>35.015167</ele>
<time>2011-04-30T13:49:25Z</time>
<desc>lat.=20.957403, lon.=107.050453, Alt.=35.015167m. Speed=1.404000m/h.</desc>
<speed>0.390000</speed>
</trkpt>
<trkpt lat="20.957348" lon="107.050461">
<ele>34.489777</ele>
<time>2011-04-30T13:49:30Z</time>
<desc>lat.=20.957348, lon.=107.050461, Alt.=34.489777m. Speed=1.620000m/h.</desc>
<speed>0.450000</speed>
</trkpt>
<trkpt lat="20.957293" lon="107.050484">
<ele>34.634308</ele>
<time>2011-04-30T13:49:35Z</time>
<desc>lat.=20.957293, lon.=107.050484, Alt.=34.634308m. Speed=0.828000m/h.</desc>
<speed>0.230000</speed>
</trkpt>
<trkpt lat="20.957245" lon="107.050484">
<ele>36.641144</ele>
<time>2011-04-30T13:49:40Z</time>
<desc>lat.=20.957245, lon.=107.050484, Alt.=36.641144m. Speed=1.404000m/h.</desc>
<speed>0.390000</speed>
</trkpt>
<trkpt lat="20.957216" lon="107.050461">
<ele>37.915558</ele>
<time>2011-04-30T13:49:45Z</time>
<desc>lat.=20.957216, lon.=107.050461, Alt.=37.915558m. Speed=0.864000m/h.</desc>
<speed>0.240000</speed>
</trkpt>
<trkpt lat="20.957205" lon="107.050484">
<ele>38.505402</ele>
<time>2011-04-30T13:49:50Z</time>
<desc>lat.=20.957205, lon.=107.050484, Alt.=38.505402m. Speed=1.620000m/h.</desc>
<speed>0.450000</speed>
</trkpt>
<trkpt lat="20.957205" lon="107.050484">
<ele>39.018097</ele>
<time>2011-04-30T13:49:55Z</time>
<desc>lat.=20.957205, lon.=107.050484, Alt.=39.018097m. Speed=0.504000m/h.</desc>
<speed>0.140000</speed>
</trkpt>
<trkpt lat="20.957207" lon="107.050484">
<ele>39.030792</ele>
<time>2011-04-30T13:50:00Z</time>
<desc>lat.=20.957207, lon.=107.050484, Alt.=39.030792m. Speed=0.576000m/h.</desc>
<speed>0.160000</speed>
</trkpt>
<trkpt lat="20.957212" lon="107.050491">
<ele>39.044464</ele>
<time>2011-04-30T13:50:05Z</time>
<desc>lat.=20.957212, lon.=107.050491, Alt.=39.044464m. Speed=0.252000m/h.</desc>
<speed>0.070000</speed>
</trkpt>
<trkpt lat="20.957216" lon="107.050499">
<ele>39.398956</ele>
<time>2011-04-30T13:50:10Z</time>
<desc>lat.=20.957216, lon.=107.050499, Alt.=39.398956m. Speed=0.252000m/h.</desc>
<speed>0.070000</speed>
</trkpt>
<trkpt lat="20.957212" lon="107.050499">
<ele>39.483917</ele>
<time>2011-04-30T13:50:15Z</time>
<desc>lat.=20.957212, lon.=107.050499, Alt.=39.483917m. Speed=0.756000m/h.</desc>
<speed>0.210000</speed>
</trkpt>
<trkpt lat="20.957209" lon="107.050491">
<ele>39.217316</ele>
<time>2011-04-30T13:50:20Z</time>
<desc>lat.=20.957209, lon.=107.050491, Alt.=39.217316m. Speed=0.288000m/h.</desc>
<speed>0.080000</speed>
</trkpt>
<trkpt lat="20.957214" lon="107.050499">
<ele>38.626495</ele>
<time>2011-04-30T13:50:25Z</time>
<desc>lat.=20.957214, lon.=107.050499, Alt.=38.626495m. Speed=1.656000m/h.</desc>
<speed>0.460000</speed>
</trkpt>
<trkpt lat="20.957237" lon="107.050484">
<ele>37.908722</ele>
<time>2011-04-30T13:50:30Z</time>
<desc>lat.=20.957237, lon.=107.050484, Alt.=37.908722m. Speed=0.756000m/h.</desc>
<speed>0.210000</speed>
</trkpt>
<trkpt lat="20.957270" lon="107.050461">
<ele>37.893097</ele>
<time>2011-04-30T13:50:35Z</time>
<desc>lat.=20.957270, lon.=107.050461, Alt.=37.893097m. Speed=1.728000m/h.</desc>
<speed>0.480000</speed>
</trkpt>
<trkpt lat="20.957319" lon="107.050415">
<ele>38.272980</ele>
<time>2011-04-30T13:50:40Z</time>
<desc>lat.=20.957319, lon.=107.050415, Alt.=38.272980m. Speed=2.232000m/h.</desc>
<speed>0.620000</speed>
</trkpt>
<trkpt lat="20.957325" lon="107.050415">
<ele>38.747589</ele>
<time>2011-04-30T13:50:45Z</time>
<desc>lat.=20.957325, lon.=107.050415, Alt.=38.747589m. Speed=1.476000m/h.</desc>
<speed>0.410000</speed>
</trkpt>
<trkpt lat="20.957335" lon="107.050430">
<ele>39.095245</ele>
<time>2011-04-30T13:50:50Z</time>
<desc>lat.=20.957335, lon.=107.050430, Alt.=39.095245m. Speed=0.360000m/h.</desc>
<speed>0.100000</speed>
</trkpt>
<trkpt lat="20.957336" lon="107.050430">
<ele>39.125519</ele>
<time>2011-04-30T13:50:55Z</time>
<desc>lat.=20.957336, lon.=107.050430, Alt.=39.125519m. Speed=0.648000m/h.</desc>
<speed>0.180000</speed>
</trkpt>
<trkpt lat="20.957336" lon="107.050438">
<ele>39.132355</ele>
<time>2011-04-30T13:51:00Z</time>
<desc>lat.=20.957336, lon.=107.050438, Alt.=39.132355m. Speed=0.324000m/h.</desc>
<speed>0.090000</speed>
</trkpt>
<trkpt lat="20.957331" lon="107.050446">
<ele>39.072784</ele>
<time>2011-04-30T13:51:05Z</time>
<desc>lat.=20.957331, lon.=107.050446, Alt.=39.072784m. Speed=1.296000m/h.</desc>
<speed>0.360000</speed>
</trkpt>
<trkpt lat="20.957298" lon="107.050484">
<ele>39.044464</ele>
<time>2011-04-30T13:51:10Z</time>
<desc>lat.=20.957298, lon.=107.050484, Alt.=39.044464m. Speed=1.728000m/h.</desc>
<speed>0.480000</speed>
</trkpt>
<trkpt lat="20.957275" lon="107.050529">
<ele>38.741730</ele>
<time>2011-04-30T13:51:15Z</time>
<desc>lat.=20.957275, lon.=107.050529, Alt.=38.741730m. Speed=1.260000m/h.</desc>
<speed>0.350000</speed>
</trkpt>
<trkpt lat="20.957239" lon="107.050598">
<ele>38.568878</ele>
<time>2011-04-30T13:51:20Z</time>
<desc>lat.=20.957239, lon.=107.050598, Alt.=38.568878m. Speed=0.936000m/h.</desc>
<speed>0.260000</speed>
</trkpt>
<trkpt lat="20.957235" lon="107.050606">
<ele>38.569855</ele>
<time>2011-04-30T13:51:25Z</time>
<desc>lat.=20.957235, lon.=107.050606, Alt.=38.569855m. Speed=0.288000m/h.</desc>
<speed>0.080000</speed>
</trkpt>
<trkpt lat="20.957218" lon="107.050621">
<ele>38.418488</ele>
<time>2011-04-30T13:51:30Z</time>
<desc>lat.=20.957218, lon.=107.050621, Alt.=38.418488m. Speed=1.116000m/h.</desc>
<speed>0.310000</speed>
</trkpt>
<trkpt lat="20.957174" lon="107.050652">
<ele>37.530792</ele>
<time>2011-04-30T13:51:35Z</time>
<desc>lat.=20.957174, lon.=107.050652, Alt.=37.530792m. Speed=1.584000m/h.</desc>
<speed>0.440000</speed>
</trkpt>
<trkpt lat="20.957142" lon="107.050667">
<ele>36.786652</ele>
<time>2011-04-30T13:51:40Z</time>
<desc>lat.=20.957142, lon.=107.050667, Alt.=36.786652m. Speed=0.468000m/h.</desc>
<speed>0.130000</speed>
</trkpt>
<trkpt lat="20.957130" lon="107.050674">
<ele>36.230988</ele>
<time>2011-04-30T13:51:45Z</time>
<desc>lat.=20.957130, lon.=107.050674, Alt.=36.230988m. Speed=0.540000m/h.</desc>
<speed>0.150000</speed>
</trkpt>
<trkpt lat="20.957127" lon="107.050674">
<ele>36.165558</ele>
<time>2011-04-30T13:51:50Z</time>
<desc>lat.=20.957127, lon.=107.050674, Alt.=36.165558m. Speed=0.144000m/h.</desc>
<speed>0.040000</speed>
</trkpt>
<trkpt lat="20.957130" lon="107.050674">
<ele>36.101105</ele>
<time>2011-04-30T13:51:55Z</time>
<desc>lat.=20.957130, lon.=107.050674, Alt.=36.101105m. Speed=1.080000m/h.</desc>
<speed>0.300000</speed>
</trkpt>
<trkpt lat="20.957138" lon="107.050751">
<ele>35.229034</ele>
<time>2011-04-30T13:52:00Z</time>
<desc>lat.=20.957138, lon.=107.050751, Alt.=35.229034m. Speed=0.108000m/h.</desc>
<speed>0.030000</speed>
</trkpt>
<trkpt lat="20.957138" lon="107.050743">
<ele>35.176300</ele>
<time>2011-04-30T13:52:05Z</time>
<desc>lat.=20.957138, lon.=107.050743, Alt.=35.176300m. Speed=0.180000m/h.</desc>
<speed>0.050000</speed>
</trkpt>
<trkpt lat="20.957136" lon="107.050751">
<ele>35.158722</ele>
<time>2011-04-30T13:52:10Z</time>
<desc>lat.=20.957136, lon.=107.050751, Alt.=35.158722m. Speed=0.936000m/h.</desc>
<speed>0.260000</speed>
</trkpt>
<trkpt lat="20.957148" lon="107.050758">
<ele>34.469269</ele>
<time>2011-04-30T13:52:15Z</time>
<desc>lat.=20.957148, lon.=107.050758, Alt.=34.469269m. Speed=1.080000m/h.</desc>
<speed>0.300000</speed>
</trkpt>
<trkpt lat="20.957138" lon="107.050743">
<ele>33.972198</ele>
<time>2011-04-30T13:52:20Z</time>
<desc>lat.=20.957138, lon.=107.050743, Alt.=33.972198m. Speed=1.188000m/h.</desc>
<speed>0.330000</speed>
</trkpt>
<trkpt lat="20.957130" lon="107.050720">
<ele>33.517120</ele>
<time>2011-04-30T13:52:25Z</time>
<desc>lat.=20.957130, lon.=107.050720, Alt.=33.517120m. Speed=0.792000m/h.</desc>
<speed>0.220000</speed>
</trkpt>
<trkpt lat="20.957129" lon="107.050720">
<ele>33.475128</ele>
<time>2011-04-30T13:52:30Z</time>
<desc>lat.=20.957129, lon.=107.050720, Alt.=33.475128m. Speed=0.720000m/h.</desc>
<speed>0.200000</speed>
</trkpt>
<trkpt lat="20.957125" lon="107.050720">
<ele>33.450714</ele>
<time>2011-04-30T13:52:35Z</time>
<desc>lat.=20.957125, lon.=107.050720, Alt.=33.450714m. Speed=1.008000m/h.</desc>
<speed>0.280000</speed>
</trkpt>
<trkpt lat="20.957132" lon="107.050697">
<ele>33.063019</ele>
<time>2011-04-30T13:52:40Z</time>
<desc>lat.=20.957132, lon.=107.050697, Alt.=33.063019m. Speed=1.296000m/h.</desc>
<speed>0.360000</speed>
</trkpt>
<trkpt lat="20.957140" lon="107.050682">
<ele>32.647980</ele>
<time>2011-04-30T13:52:45Z</time>
<desc>lat.=20.957140, lon.=107.050682, Alt.=32.647980m. Speed=0.756000m/h.</desc>
<speed>0.210000</speed>
</trkpt>
<trkpt lat="20.957151" lon="107.050667">
<ele>32.732941</ele>
<time>2011-04-30T13:52:50Z</time>
<desc>lat.=20.957151, lon.=107.050667, Alt.=32.732941m. Speed=1.656000m/h.</desc>
<speed>0.460000</speed>
</trkpt>
<trkpt lat="20.957209" lon="107.050606">
<ele>32.862823</ele>
<time>2011-04-30T13:52:55Z</time>
<desc>lat.=20.957209, lon.=107.050606, Alt.=32.862823m. Speed=2.196000m/h.</desc>
<speed>0.610000</speed>
</trkpt>
<trkpt lat="20.957279" lon="107.050552">
<ele>32.945831</ele>
<time>2011-04-30T13:53:00Z</time>
<desc>lat.=20.957279, lon.=107.050552, Alt.=32.945831m. Speed=2.664000m/h.</desc>
<speed>0.740000</speed>
</trkpt>
<trkpt lat="20.957325" lon="107.050514">
<ele>32.743683</ele>
<time>2011-04-30T13:53:05Z</time>
<desc>lat.=20.957325, lon.=107.050514, Alt.=32.743683m. Speed=1.908000m/h.</desc>
<speed>0.530000</speed>
</trkpt>
<trkpt lat="20.957378" lon="107.050446">
<ele>32.858917</ele>
<time>2011-04-30T13:53:10Z</time>
<desc>lat.=20.957378, lon.=107.050446, Alt.=32.858917m. Speed=2.448000m/h.</desc>
<speed>0.680000</speed>
</trkpt>
<trkpt lat="20.957415" lon="107.050423">
<ele>33.347198</ele>
<time>2011-04-30T13:53:15Z</time>
<desc>lat.=20.957415, lon.=107.050423, Alt.=33.347198m. Speed=1.368000m/h.</desc>
<speed>0.380000</speed>
</trkpt>
<trkpt lat="20.957399" lon="107.050461">
<ele>34.037628</ele>
<time>2011-04-30T13:53:20Z</time>
<desc>lat.=20.957399, lon.=107.050461, Alt.=34.037628m. Speed=0.432000m/h.</desc>
<speed>0.120000</speed>
</trkpt>
<trkpt lat="20.957401" lon="107.050468">
<ele>34.202667</ele>
<time>2011-04-30T13:53:25Z</time>
<desc>lat.=20.957401, lon.=107.050468, Alt.=34.202667m. Speed=1.296000m/h.</desc>
<speed>0.360000</speed>
</trkpt>
<trkpt lat="20.957388" lon="107.050491">
<ele>34.438995</ele>
<time>2011-04-30T13:53:30Z</time>
<desc>lat.=20.957388, lon.=107.050491, Alt.=34.438995m. Speed=0.864000m/h.</desc>
<speed>0.240000</speed>
</trkpt>
<trkpt lat="20.957361" lon="107.050476">
<ele>34.678253</ele>
<time>2011-04-30T13:53:35Z</time>
<desc>lat.=20.957361, lon.=107.050476, Alt.=34.678253m. Speed=1.296000m/h.</desc>
<speed>0.360000</speed>
</trkpt>
<trkpt lat="20.957378" lon="107.050468">
<ele>34.638214</ele>
<time>2011-04-30T13:53:40Z</time>
<desc>lat.=20.957378, lon.=107.050468, Alt.=34.638214m. Speed=0.504000m/h.</desc>
<speed>0.140000</speed>
</trkpt>
<trkpt lat="20.957397" lon="107.050476">
<ele>34.593292</ele>
<time>2011-04-30T13:53:45Z</time>
<desc>lat.=20.957397, lon.=107.050476, Alt.=34.593292m. Speed=0.216000m/h.</desc>
<speed>0.060000</speed>
</trkpt>
<trkpt lat="20.957413" lon="107.050476">
<ele>34.511261</ele>
<time>2011-04-30T13:53:50Z</time>
<desc>lat.=20.957413, lon.=107.050476, Alt.=34.511261m. Speed=0.072000m/h.</desc>
<speed>0.020000</speed>
</trkpt>
<trkpt lat="20.957415" lon="107.050476">
<ele>34.482941</ele>
<time>2011-04-30T13:53:55Z</time>
<desc>lat.=20.957415, lon.=107.050476, Alt.=34.482941m. Speed=0.972000m/h.</desc>
<speed>0.270000</speed>
</trkpt>
<trkpt lat="20.957420" lon="107.050484">
<ele>34.476105</ele>
<time>2011-04-30T13:54:00Z</time>
<desc>lat.=20.957420, lon.=107.050484, Alt.=34.476105m. Speed=0.648000m/h.</desc>
<speed>0.180000</speed>
</trkpt>
<trkpt lat="20.957426" lon="107.050484">
<ele>34.493683</ele>
<time>2011-04-30T13:54:05Z</time>
<desc>lat.=20.957426, lon.=107.050484, Alt.=34.493683m. Speed=0.720000m/h.</desc>
<speed>0.200000</speed>
</trkpt>
<trkpt lat="20.957441" lon="107.050484">
<ele>34.331573</ele>
<time>2011-04-30T13:54:10Z</time>
<desc>lat.=20.957441, lon.=107.050484, Alt.=34.331573m. Speed=0.756000m/h.</desc>
<speed>0.210000</speed>
</trkpt>
<trkpt lat="20.957457" lon="107.050476">
<ele>34.273956</ele>
<time>2011-04-30T13:54:15Z</time>
<desc>lat.=20.957457, lon.=107.050476, Alt.=34.273956m. Speed=1.044000m/h.</desc>
<speed>0.290000</speed>
</trkpt>
<trkpt lat="20.957487" lon="107.050476">
<ele>34.262238</ele>
<time>2011-04-30T13:54:20Z</time>
<desc>lat.=20.957487, lon.=107.050476, Alt.=34.262238m. Speed=0.612000m/h.</desc>
<speed>0.170000</speed>
</trkpt>
<trkpt lat="20.957485" lon="107.050468">
<ele>34.232941</ele>
<time>2011-04-30T13:54:25Z</time>
<desc>lat.=20.957485, lon.=107.050468, Alt.=34.232941m. Speed=0.180000m/h.</desc>
<speed>0.050000</speed>
</trkpt>
<trkpt lat="20.957487" lon="107.050491">
<ele>33.941925</ele>
<time>2011-04-30T13:54:30Z</time>
<desc>lat.=20.957487, lon.=107.050491, Alt.=33.941925m. Speed=1.044000m/h.</desc>
<speed>0.290000</speed>
</trkpt>
<trkpt lat="20.957493" lon="107.050476">
<ele>33.884308</ele>
<time>2011-04-30T13:54:35Z</time>
<desc>lat.=20.957493, lon.=107.050476, Alt.=33.884308m. Speed=0.648000m/h.</desc>
<speed>0.180000</speed>
</trkpt>
<trkpt lat="20.957478" lon="107.050461">
<ele>34.145050</ele>
<time>2011-04-30T13:54:40Z</time>
<desc>lat.=20.957478, lon.=107.050461, Alt.=34.145050m. Speed=0.576000m/h.</desc>
<speed>0.160000</speed>
</trkpt>
<trkpt lat="20.957478" lon="107.050446">
<ele>34.115753</ele>
<time>2011-04-30T13:54:45Z</time>
<desc>lat.=20.957478, lon.=107.050446, Alt.=34.115753m. Speed=0.108000m/h.</desc>
<speed>0.030000</speed>
</trkpt>
<trkpt lat="20.957476" lon="107.050446">
<ele>34.126495</ele>
<time>2011-04-30T13:54:50Z</time>
<desc>lat.=20.957476, lon.=107.050446, Alt.=34.126495m. Speed=0.828000m/h.</desc>
<speed>0.230000</speed>
</trkpt>
<trkpt lat="20.957439" lon="107.050499">
<ele>34.568878</ele>
<time>2011-04-30T13:54:55Z</time>
<desc>lat.=20.957439, lon.=107.050499, Alt.=34.568878m. Speed=1.692000m/h.</desc>
<speed>0.470000</speed>
</trkpt>
<trkpt lat="20.957388" lon="107.050537">
<ele>35.221222</ele>
<time>2011-04-30T13:55:00Z</time>
<desc>lat.=20.957388, lon.=107.050537, Alt.=35.221222m. Speed=1.764000m/h.</desc>
<speed>0.490000</speed>
</trkpt>
<trkpt lat="20.957361" lon="107.050560">
<ele>35.374542</ele>
<time>2011-04-30T13:55:05Z</time>
<desc>lat.=20.957361, lon.=107.050560, Alt.=35.374542m. Speed=0.720000m/h.</desc>
<speed>0.200000</speed>
</trkpt>
<trkpt lat="20.957371" lon="107.050560">
<ele>35.456573</ele>
<time>2011-04-30T13:55:10Z</time>
<desc>lat.=20.957371, lon.=107.050560, Alt.=35.456573m. Speed=0.540000m/h.</desc>
<speed>0.150000</speed>
</trkpt>
<trkpt lat="20.957380" lon="107.050545">
<ele>35.487823</ele>
<time>2011-04-30T13:55:15Z</time>
<desc>lat.=20.957380, lon.=107.050545, Alt.=35.487823m. Speed=1.692000m/h.</desc>
<speed>0.470000</speed>
</trkpt>
<trkpt lat="20.957401" lon="107.050529">
<ele>35.233917</ele>
<time>2011-04-30T13:55:20Z</time>
<desc>lat.=20.957401, lon.=107.050529, Alt.=35.233917m. Speed=0.828000m/h.</desc>
<speed>0.230000</speed>
</trkpt>
<trkpt lat="20.957396" lon="107.050529">
<ele>34.997589</ele>
<time>2011-04-30T13:55:25Z</time>
<desc>lat.=20.957396, lon.=107.050529, Alt.=34.997589m. Speed=0.252000m/h.</desc>
<speed>0.070000</speed>
</trkpt>
<trkpt lat="20.957396" lon="107.050522">
<ele>34.736847</ele>
<time>2011-04-30T13:55:30Z</time>
<desc>lat.=20.957396, lon.=107.050522, Alt.=34.736847m. Speed=0.288000m/h.</desc>
<speed>0.080000</speed>
</trkpt>
<trkpt lat="20.957407" lon="107.050507">
<ele>34.723175</ele>
<time>2011-04-30T13:55:35Z</time>
<desc>lat.=20.957407, lon.=107.050507, Alt.=34.723175m. Speed=0.828000m/h.</desc>
<speed>0.230000</speed>
</trkpt>
<trkpt lat="20.957409" lon="107.050499">
<ele>34.706573</ele>
<time>2011-04-30T13:55:40Z</time>
<desc>lat.=20.957409, lon.=107.050499, Alt.=34.706573m. Speed=1.008000m/h.</desc>
<speed>0.280000</speed>
</trkpt>
<trkpt lat="20.957417" lon="107.050507">
<ele>35.565948</ele>
<time>2011-04-30T13:55:45Z</time>
<desc>lat.=20.957417, lon.=107.050507, Alt.=35.565948m. Speed=0.828000m/h.</desc>
<speed>0.230000</speed>
</trkpt>
<trkpt lat="20.957418" lon="107.050507">
<ele>35.616730</ele>
<time>2011-04-30T13:55:50Z</time>
<desc>lat.=20.957418, lon.=107.050507, Alt.=35.616730m. Speed=0.972000m/h.</desc>
<speed>0.270000</speed>
</trkpt>
<trkpt lat="20.957394" lon="107.050491">
<ele>36.015167</ele>
<time>2011-04-30T13:55:55Z</time>
<desc>lat.=20.957394, lon.=107.050491, Alt.=36.015167m. Speed=0.972000m/h.</desc>
<speed>0.270000</speed>
</trkpt>
<trkpt lat="20.957382" lon="107.050484">
<ele>36.103058</ele>
<time>2011-04-30T13:56:00Z</time>
<desc>lat.=20.957382, lon.=107.050484, Alt.=36.103058m. Speed=1.260000m/h.</desc>
<speed>0.350000</speed>
</trkpt>
<trkpt lat="20.957373" lon="107.050476">
<ele>37.140167</ele>
<time>2011-04-30T13:56:05Z</time>
<desc>lat.=20.957373, lon.=107.050476, Alt.=37.140167m. Speed=0.288000m/h.</desc>
<speed>0.080000</speed>
</trkpt>
<trkpt lat="20.957386" lon="107.050453">
<ele>37.612823</ele>
<time>2011-04-30T13:56:10Z</time>
<desc>lat.=20.957386, lon.=107.050453, Alt.=37.612823m. Speed=0.468000m/h.</desc>
<speed>0.130000</speed>
</trkpt>
<trkpt lat="20.957397" lon="107.050430">
<ele>37.884308</ele>
<time>2011-04-30T13:56:15Z</time>
<desc>lat.=20.957397, lon.=107.050430, Alt.=37.884308m. Speed=1.440000m/h.</desc>
<speed>0.400000</speed>
</trkpt>
<trkpt lat="20.957392" lon="107.050423">
<ele>39.844269</ele>
<time>2011-04-30T13:56:20Z</time>
<desc>lat.=20.957392, lon.=107.050423, Alt.=39.844269m. Speed=0.216000m/h.</desc>
<speed>0.060000</speed>
</trkpt>
<trkpt lat="20.957411" lon="107.050415">
<ele>40.572784</ele>
<time>2011-04-30T13:56:25Z</time>
<desc>lat.=20.957411, lon.=107.050415, Alt.=40.572784m. Speed=1.188000m/h.</desc>
<speed>0.330000</speed>
</trkpt>
<trkpt lat="20.957409" lon="107.050430">
<ele>41.273956</ele>
<time>2011-04-30T13:56:30Z</time>
<desc>lat.=20.957409, lon.=107.050430, Alt.=41.273956m. Speed=0.828000m/h.</desc>
<speed>0.230000</speed>
</trkpt>
<trkpt lat="20.957417" lon="107.050446">
<ele>41.132355</ele>
<time>2011-04-30T13:56:35Z</time>
<desc>lat.=20.957417, lon.=107.050446, Alt.=41.132355m. Speed=0.576000m/h.</desc>
<speed>0.160000</speed>
</trkpt>
<trkpt lat="20.957401" lon="107.050438">
<ele>40.977081</ele>
<time>2011-04-30T13:56:40Z</time>
<desc>lat.=20.957401, lon.=107.050438, Alt.=40.977081m. Speed=1.872000m/h.</desc>
<speed>0.520000</speed>
</trkpt>
<trkpt lat="20.957390" lon="107.050369">
<ele>40.604034</ele>
<time>2011-04-30T13:56:45Z</time>
<desc>lat.=20.957390, lon.=107.050369, Alt.=40.604034m. Speed=2.520000m/h.</desc>
<speed>0.700000</speed>
</trkpt>
<trkpt lat="20.957384" lon="107.050293">
<ele>40.178253</ele>
<time>2011-04-30T13:56:50Z</time>
<desc>lat.=20.957384, lon.=107.050293, Alt.=40.178253m. Speed=2.484000m/h.</desc>
<speed>0.690000</speed>
</trkpt>
<trkpt lat="20.957392" lon="107.050278">
<ele>40.635284</ele>
<time>2011-04-30T13:56:55Z</time>
<desc>lat.=20.957392, lon.=107.050278, Alt.=40.635284m. Speed=0.756000m/h.</desc>
<speed>0.210000</speed>
</trkpt>
<trkpt lat="20.957397" lon="107.050308">
<ele>41.177277</ele>
<time>2011-04-30T13:57:00Z</time>
<desc>lat.=20.957397, lon.=107.050308, Alt.=41.177277m. Speed=0.900000m/h.</desc>
<speed>0.250000</speed>
</trkpt>
<trkpt lat="20.957376" lon="107.050346">
<ele>40.936066</ele>
<time>2011-04-30T13:57:05Z</time>
<desc>lat.=20.957376, lon.=107.050346, Alt.=40.936066m. Speed=1.044000m/h.</desc>
<speed>0.290000</speed>
</trkpt>
<trkpt lat="20.957348" lon="107.050392">
<ele>40.527863</ele>
<time>2011-04-30T13:57:10Z</time>
<desc>lat.=20.957348, lon.=107.050392, Alt.=40.527863m. Speed=1.152000m/h.</desc>
<speed>0.320000</speed>
</trkpt>
<trkpt lat="20.957355" lon="107.050423">
<ele>39.746613</ele>
<time>2011-04-30T13:57:15Z</time>
<desc>lat.=20.957355, lon.=107.050423, Alt.=39.746613m. Speed=1.440000m/h.</desc>
<speed>0.400000</speed>
</trkpt>
<trkpt lat="20.957359" lon="107.050446">
<ele>38.909698</ele>
<time>2011-04-30T13:57:20Z</time>
<desc>lat.=20.957359, lon.=107.050446, Alt.=38.909698m. Speed=0.864000m/h.</desc>
<speed>0.240000</speed>
</trkpt>
<trkpt lat="20.957386" lon="107.050423">
<ele>38.039581</ele>
<time>2011-04-30T13:57:25Z</time>
<desc>lat.=20.957386, lon.=107.050423, Alt.=38.039581m. Speed=0.396000m/h.</desc>
<speed>0.110000</speed>
</trkpt>
<trkpt lat="20.957394" lon="107.050407">
<ele>37.932159</ele>
<time>2011-04-30T13:57:30Z</time>
<desc>lat.=20.957394, lon.=107.050407, Alt.=37.932159m. Speed=0.864000m/h.</desc>
<speed>0.240000</speed>
</trkpt>
<trkpt lat="20.957399" lon="107.050392">
<ele>37.974152</ele>
<time>2011-04-30T13:57:35Z</time>
<desc>lat.=20.957399, lon.=107.050392, Alt.=37.974152m. Speed=0.540000m/h.</desc>
<speed>0.150000</speed>
</trkpt>
<trkpt lat="20.957403" lon="107.050400">
<ele>38.035675</ele>
<time>2011-04-30T13:57:40Z</time>
<desc>lat.=20.957403, lon.=107.050400, Alt.=38.035675m. Speed=0.540000m/h.</desc>
<speed>0.150000</speed>
</trkpt>
<trkpt lat="20.957407" lon="107.050400">
<ele>38.072784</ele>
<time>2011-04-30T13:57:45Z</time>
<desc>lat.=20.957407, lon.=107.050400, Alt.=38.072784m. Speed=0.576000m/h.</desc>
<speed>0.160000</speed>
</trkpt>
<trkpt lat="20.957411" lon="107.050407">
<ele>38.080597</ele>
<time>2011-04-30T13:57:50Z</time>
<desc>lat.=20.957411, lon.=107.050407, Alt.=38.080597m. Speed=0.360000m/h.</desc>
<speed>0.100000</speed>
</trkpt>
<trkpt lat="20.957405" lon="107.050415">
<ele>37.895050</ele>
<time>2011-04-30T13:57:55Z</time>
<desc>lat.=20.957405, lon.=107.050415, Alt.=37.895050m. Speed=0.864000m/h.</desc>
<speed>0.240000</speed>
</trkpt>
<trkpt lat="20.957415" lon="107.050423">
<ele>37.594269</ele>
<time>2011-04-30T13:58:00Z</time>
<desc>lat.=20.957415, lon.=107.050423, Alt.=37.594269m. Speed=0.684000m/h.</desc>
<speed>0.190000</speed>
</trkpt>
<trkpt lat="20.957422" lon="107.050423">
<ele>37.544464</ele>
<time>2011-04-30T13:58:05Z</time>
<desc>lat.=20.957422, lon.=107.050423, Alt.=37.544464m. Speed=1.908000m/h.</desc>
<speed>0.530000</speed>
</trkpt>
<trkpt lat="20.957422" lon="107.050415">
<ele>36.846222</ele>
<time>2011-04-30T13:58:10Z</time>
<desc>lat.=20.957422, lon.=107.050415, Alt.=36.846222m. Speed=0.504000m/h.</desc>
<speed>0.140000</speed>
</trkpt>
<trkpt lat="20.957418" lon="107.050400">
<ele>36.754425</ele>
<time>2011-04-30T13:58:15Z</time>
<desc>lat.=20.957418, lon.=107.050400, Alt.=36.754425m. Speed=0.612000m/h.</desc>
<speed>0.170000</speed>
</trkpt>
<trkpt lat="20.957417" lon="107.050400">
<ele>36.729034</ele>
<time>2011-04-30T13:58:20Z</time>
<desc>lat.=20.957417, lon.=107.050400, Alt.=36.729034m. Speed=0.576000m/h.</desc>
<speed>0.160000</speed>
</trkpt>
<trkpt lat="20.957413" lon="107.050400">
<ele>36.751495</ele>
<time>2011-04-30T13:58:25Z</time>
<desc>lat.=20.957413, lon.=107.050400, Alt.=36.751495m. Speed=0.864000m/h.</desc>
<speed>0.240000</speed>
</trkpt>
<trkpt lat="20.957403" lon="107.050407">
<ele>36.788605</ele>
<time>2011-04-30T13:58:30Z</time>
<desc>lat.=20.957403, lon.=107.050407, Alt.=36.788605m. Speed=1.260000m/h.</desc>
<speed>0.350000</speed>
</trkpt>
<trkpt lat="20.957367" lon="107.050430">
<ele>37.019073</ele>
<time>2011-04-30T13:58:35Z</time>
<desc>lat.=20.957367, lon.=107.050430, Alt.=37.019073m. Speed=0.792000m/h.</desc>
<speed>0.220000</speed>
</trkpt>
<trkpt lat="20.957335" lon="107.050453">
<ele>36.487823</ele>
<time>2011-04-30T13:58:40Z</time>
<desc>lat.=20.957335, lon.=107.050453, Alt.=36.487823m. Speed=0.864000m/h.</desc>
<speed>0.240000</speed>
</trkpt>
<trkpt lat="20.957310" lon="107.050438">
<ele>36.308136</ele>
<time>2011-04-30T13:58:45Z</time>
<desc>lat.=20.957310, lon.=107.050438, Alt.=36.308136m. Speed=0.648000m/h.</desc>
<speed>0.180000</speed>
</trkpt>
<trkpt lat="20.957325" lon="107.050415">
<ele>36.559113</ele>
<time>2011-04-30T13:58:50Z</time>
<desc>lat.=20.957325, lon.=107.050415, Alt.=36.559113m. Speed=0.864000m/h.</desc>
<speed>0.240000</speed>
</trkpt>
<trkpt lat="20.957350" lon="107.050407">
<ele>37.326691</ele>
<time>2011-04-30T13:58:55Z</time>
<desc>lat.=20.957350, lon.=107.050407, Alt.=37.326691m. Speed=0.576000m/h.</desc>
<speed>0.160000</speed>
</trkpt>
<trkpt lat="20.957352" lon="107.050407">
<ele>37.365753</ele>
<time>2011-04-30T13:59:00Z</time>
<desc>lat.=20.957352, lon.=107.050407, Alt.=37.365753m. Speed=0.756000m/h.</desc>
<speed>0.210000</speed>
</trkpt>
<trkpt lat="20.957388" lon="107.050423">
<ele>38.161652</ele>
<time>2011-04-30T13:59:05Z</time>
<desc>lat.=20.957388, lon.=107.050423, Alt.=38.161652m. Speed=1.836000m/h.</desc>
<speed>0.510000</speed>
</trkpt>
<trkpt lat="20.957405" lon="107.050446">
<ele>38.986847</ele>
<time>2011-04-30T13:59:10Z</time>
<desc>lat.=20.957405, lon.=107.050446, Alt.=38.986847m. Speed=1.152000m/h.</desc>
<speed>0.320000</speed>
</trkpt>
<trkpt lat="20.957432" lon="107.050453">
<ele>39.920441</ele>
<time>2011-04-30T13:59:15Z</time>
<desc>lat.=20.957432, lon.=107.050453, Alt.=39.920441m. Speed=0.648000m/h.</desc>
<speed>0.180000</speed>
</trkpt>
<trkpt lat="20.957439" lon="107.050476">
<ele>40.333527</ele>
<time>2011-04-30T13:59:20Z</time>
<desc>lat.=20.957439, lon.=107.050476, Alt.=40.333527m. Speed=0.756000m/h.</desc>
<speed>0.210000</speed>
</trkpt>
<trkpt lat="20.957417" lon="107.050461">
<ele>40.389191</ele>
<time>2011-04-30T13:59:25Z</time>
<desc>lat.=20.957417, lon.=107.050461, Alt.=40.389191m. Speed=2.196000m/h.</desc>
<speed>0.610000</speed>
</trkpt>
<trkpt lat="20.957417" lon="107.050400">
<ele>40.273956</ele>
<time>2011-04-30T13:59:30Z</time>
<desc>lat.=20.957417, lon.=107.050400, Alt.=40.273956m. Speed=1.764000m/h.</desc>
<speed>0.490000</speed>
</trkpt>
<trkpt lat="20.957382" lon="107.050301">
<ele>40.260284</ele>
<time>2011-04-30T13:59:35Z</time>
<desc>lat.=20.957382, lon.=107.050301, Alt.=40.260284m. Speed=5.112000m/h.</desc>
<speed>1.420000</speed>
</trkpt>
<trkpt lat="20.957327" lon="107.050262">
<ele>40.295441</ele>
<time>2011-04-30T13:59:40Z</time>
<desc>lat.=20.957327, lon.=107.050262, Alt.=40.295441m. Speed=1.404000m/h.</desc>
<speed>0.390000</speed>
</trkpt>
<trkpt lat="20.957277" lon="107.050186">
<ele>40.421417</ele>
<time>2011-04-30T13:59:45Z</time>
<desc>lat.=20.957277, lon.=107.050186, Alt.=40.421417m. Speed=6.480000m/h.</desc>
<speed>1.800000</speed>
</trkpt>
<trkpt lat="20.957230" lon="107.050179">
<ele>40.358917</ele>
<time>2011-04-30T13:59:50Z</time>
<desc>lat.=20.957230, lon.=107.050179, Alt.=40.358917m. Speed=2.880000m/h.</desc>
<speed>0.800000</speed>
</trkpt>
<trkpt lat="20.957230" lon="107.050163">
<ele>39.846222</ele>
<time>2011-04-30T13:59:55Z</time>
<desc>lat.=20.957230, lon.=107.050163, Alt.=39.846222m. Speed=1.584000m/h.</desc>
<speed>0.440000</speed>
</trkpt>
<trkpt lat="20.957241" lon="107.050163">
<ele>39.278839</ele>
<time>2011-04-30T14:00:00Z</time>
<desc>lat.=20.957241, lon.=107.050163, Alt.=39.278839m. Speed=1.116000m/h.</desc>
<speed>0.310000</speed>
</trkpt>
<trkpt lat="20.957233" lon="107.050186">
<ele>39.102081</ele>
<time>2011-04-30T14:00:05Z</time>
<desc>lat.=20.957233, lon.=107.050186, Alt.=39.102081m. Speed=2.952000m/h.</desc>
<speed>0.820000</speed>
</trkpt>
<trkpt lat="20.957262" lon="107.050201">
<ele>39.272980</ele>
<time>2011-04-30T14:00:10Z</time>
<desc>lat.=20.957262, lon.=107.050201, Alt.=39.272980m. Speed=5.760000m/h.</desc>
<speed>1.600000</speed>
</trkpt>
<trkpt lat="20.957285" lon="107.050262">
<ele>39.588409</ele>
<time>2011-04-30T14:00:15Z</time>
<desc>lat.=20.957285, lon.=107.050262, Alt.=39.588409m. Speed=3.384000m/h.</desc>
<speed>0.940000</speed>
</trkpt>
<trkpt lat="20.957249" lon="107.050354">
<ele>38.530792</ele>
<time>2011-04-30T14:00:20Z</time>
<desc>lat.=20.957249, lon.=107.050354, Alt.=38.530792m. Speed=6.012000m/h.</desc>
<speed>1.670000</speed>
</trkpt>
<trkpt lat="20.957220" lon="107.050438">
<ele>36.132355</ele>
<time>2011-04-30T14:00:25Z</time>
<desc>lat.=20.957220, lon.=107.050438, Alt.=36.132355m. Speed=4.464000m/h.</desc>
<speed>1.240000</speed>
</trkpt>
<trkpt lat="20.957190" lon="107.050491">
<ele>34.498566</ele>
<time>2011-04-30T14:00:30Z</time>
<desc>lat.=20.957190, lon.=107.050491, Alt.=34.498566m. Speed=2.448000m/h.</desc>
<speed>0.680000</speed>
</trkpt>
<trkpt lat="20.957184" lon="107.050560">
<ele>33.320831</ele>
<time>2011-04-30T14:00:35Z</time>
<desc>lat.=20.957184, lon.=107.050560, Alt.=33.320831m. Speed=5.832000m/h.</desc>
<speed>1.620000</speed>
</trkpt>
<trkpt lat="20.957226" lon="107.050598">
<ele>32.546417</ele>
<time>2011-04-30T14:00:40Z</time>
<desc>lat.=20.957226, lon.=107.050598, Alt.=32.546417m. Speed=2.160000m/h.</desc>
<speed>0.600000</speed>
</trkpt>
<trkpt lat="20.957207" lon="107.050621">
<ele>32.036652</ele>
<time>2011-04-30T14:00:45Z</time>
<desc>lat.=20.957207, lon.=107.050621, Alt.=32.036652m. Speed=1.116000m/h.</desc>
<speed>0.310000</speed>
</trkpt>
<trkpt lat="20.957230" lon="107.050636">
<ele>31.254166</ele>
<time>2011-04-30T14:00:50Z</time>
<desc>lat.=20.957230, lon.=107.050636, Alt.=31.254166m. Speed=0.900000m/h.</desc>
<speed>0.250000</speed>
</trkpt>
<trkpt lat="20.957209" lon="107.050674">
<ele>29.834244</ele>
<time>2011-04-30T14:00:55Z</time>
<desc>lat.=20.957209, lon.=107.050674, Alt.=29.834244m. Speed=1.980000m/h.</desc>
<speed>0.550000</speed>
</trkpt>
<trkpt lat="20.957218" lon="107.050697">
<ele>28.427505</ele>
<time>2011-04-30T14:01:00Z</time>
<desc>lat.=20.957218, lon.=107.050697, Alt.=28.427505m. Speed=1.152000m/h.</desc>
<speed>0.320000</speed>
</trkpt>
<trkpt lat="20.957205" lon="107.050674">
<ele>28.249771</ele>
<time>2011-04-30T14:01:05Z</time>
<desc>lat.=20.957205, lon.=107.050674, Alt.=28.249771m. Speed=0.216000m/h.</desc>
<speed>0.060000</speed>
</trkpt>
<trkpt lat="20.957205" lon="107.050652">
<ele>28.365005</ele>
<time>2011-04-30T14:01:10Z</time>
<desc>lat.=20.957205, lon.=107.050652, Alt.=28.365005m. Speed=1.188000m/h.</desc>
<speed>0.330000</speed>
</trkpt>
<trkpt lat="20.957235" lon="107.050598">
<ele>29.086685</ele>
<time>2011-04-30T14:01:15Z</time>
<desc>lat.=20.957235, lon.=107.050598, Alt.=29.086685m. Speed=1.548000m/h.</desc>
<speed>0.430000</speed>
</trkpt>
<trkpt lat="20.957273" lon="107.050545">
<ele>29.386002</ele>
<time>2011-04-30T14:01:20Z</time>
<desc>lat.=20.957273, lon.=107.050545, Alt.=29.386002m. Speed=1.980000m/h.</desc>
<speed>0.550000</speed>
</trkpt>
<trkpt lat="20.957354" lon="107.050461">
<ele>28.831314</ele>
<time>2011-04-30T14:01:25Z</time>
<desc>lat.=20.957354, lon.=107.050461, Alt.=28.831314m. Speed=3.060000m/h.</desc>
<speed>0.850000</speed>
</trkpt>
<trkpt lat="20.957441" lon="107.050385">
<ele>28.247818</ele>
<time>2011-04-30T14:01:30Z</time>
<desc>lat.=20.957441, lon.=107.050385, Alt.=28.247818m. Speed=4.284000m/h.</desc>
<speed>1.190000</speed>
</trkpt>
<trkpt lat="20.957506" lon="107.050331">
<ele>27.196548</ele>
<time>2011-04-30T14:01:35Z</time>
<desc>lat.=20.957506, lon.=107.050331, Alt.=27.196548m. Speed=2.700000m/h.</desc>
<speed>0.750000</speed>
</trkpt>
<trkpt lat="20.957525" lon="107.050346">
<ele>27.298111</ele>
<time>2011-04-30T14:01:40Z</time>
<desc>lat.=20.957525, lon.=107.050346, Alt.=27.298111m. Speed=0.612000m/h.</desc>
<speed>0.170000</speed>
</trkpt>
<trkpt lat="20.957554" lon="107.050354">
<ele>27.105728</ele>
<time>2011-04-30T14:01:45Z</time>
<desc>lat.=20.957554, lon.=107.050354, Alt.=27.105728m. Speed=0.720000m/h.</desc>
<speed>0.200000</speed>
</trkpt>
</trkseg>
</trk>
</gpx>